<?xml version='1.0' encoding='UTF-8'?><gpx version="1.1" creator="JPX - https://github.com/jenetics/jpx" xmlns="http://www.topografix.com/GPX/1/1"><trk><trkseg><trkpt lat="40.012191112198174" lon="18.17778200443465"><ele>144.0</ele><time>2026-04-21T16:00:34.994Z</time></trkpt><trkpt lat="40.01217208441464" lon="18.177698795673397"><ele>144.0</ele><time>2026-04-21T16:00:37.994Z</time></trkpt><trkpt lat="40.012131728709164" lon="18.17763282060559"><ele>144.0</ele><time>2026-04-21T16:00:39.994Z</time></trkpt><trkpt lat="40.012103691345295" lon="18.177522505250867"><ele>144.0</ele><time>2026-04-21T16:00:42.994Z</time></trkpt><trkpt lat="40.01214085912154" lon="18.177427619311214"><ele>144.0</ele><time>2026-04-21T16:00:45.994Z</time></trkpt><trkpt lat="40.01221031838255" lon="18.177368514123785"><ele>144.0</ele><time>2026-04-21T16:00:47.994Z</time></trkpt><trkpt lat="40.01228069893497" lon="18.17733376042159"><ele>143.5</ele><time>2026-04-21T16:00:49.994Z</time></trkpt><trkpt lat="40.012354488613305" lon="18.17729950775528"><ele>143.0</ele><time>2026-04-21T16:00:51.994Z</time></trkpt><trkpt lat="40.012426451635314" lon="18.177269111975942"><ele>142.5</ele><time>2026-04-21T16:00:53.994Z</time></trkpt><trkpt lat="40.01248936592594" lon="18.1772651806566"><ele>142.0</ele><time>2026-04-21T16:00:58.994Z</time></trkpt><trkpt lat="40.0125063917536" lon="18.17712422798515"><ele>141.5</ele><time>2026-04-21T16:01:03.994Z</time></trkpt><trkpt lat="40.012486432098925" lon="18.177023575988652"><ele>141.0</ele><time>2026-04-21T16:01:04.994Z</time></trkpt><trkpt lat="40.01245573330864" lon="18.176920563937827"><ele>141.0</ele><time>2026-04-21T16:01:05.994Z</time></trkpt><trkpt lat="40.01241461386177" lon="18.176825101196872"><ele>141.0</ele><time>2026-04-21T16:01:06.994Z</time></trkpt><trkpt lat="40.012379821238035" lon="18.176723213826026"><ele>141.0</ele><time>2026-04-21T16:01:07.994Z</time></trkpt><trkpt lat="40.01234519557219" lon="18.176615376144433"><ele>141.0</ele><time>2026-04-21T16:01:08.994Z</time></trkpt><trkpt lat="40.0123058027958" lon="18.1765118042932"><ele>141.0</ele><time>2026-04-21T16:01:09.994Z</time></trkpt><trkpt lat="40.01226623985197" lon="18.17640353272347"><ele>141.0</ele><time>2026-04-21T16:01:10.994Z</time></trkpt><trkpt lat="40.012231664136884" lon="18.176297433918023"><ele>140.5</ele><time>2026-04-21T16:01:11.994Z</time></trkpt><trkpt lat="40.012197935830635" lon="18.176202971557938"><ele>140.0</ele><time>2026-04-21T16:01:12.994Z</time></trkpt><trkpt lat="40.01216339669832" lon="18.176115202113763"><ele>139.5</ele><time>2026-04-21T16:01:13.994Z</time></trkpt><trkpt lat="40.012136375635" lon="18.176021127026427"><ele>139.0</ele><time>2026-04-21T16:01:14.994Z</time></trkpt><trkpt lat="40.012123180278564" lon="18.175939214215212"><ele>138.5</ele><time>2026-04-21T16:01:15.994Z</time></trkpt><trkpt lat="40.012121271307365" lon="18.175818665352832"><ele>138.0</ele><time>2026-04-21T16:01:17.994Z</time></trkpt><trkpt lat="40.012211603713496" lon="18.175733211641766"><ele>137.4</ele><time>2026-04-21T16:01:19.994Z</time></trkpt><trkpt lat="40.01227407696696" lon="18.175669749035045"><ele>136.8</ele><time>2026-04-21T16:01:20.994Z</time></trkpt><trkpt lat="40.01235749318893" lon="18.17559884597811"><ele>136.2</ele><time>2026-04-21T16:01:21.994Z</time></trkpt><trkpt lat="40.01244199504497" lon="18.175533910799857"><ele>135.6</ele><time>2026-04-21T16:01:22.994Z</time></trkpt><trkpt lat="40.01252743804509" lon="18.17546656720722"><ele>135.0</ele><time>2026-04-21T16:01:23.994Z</time></trkpt><trkpt lat="40.01261517304372" lon="18.175396347479822"><ele>134.6</ele><time>2026-04-21T16:01:24.994Z</time></trkpt><trkpt lat="40.01271170055618" lon="18.17533625168663"><ele>134.2</ele><time>2026-04-21T16:01:25.994Z</time></trkpt><trkpt lat="40.01280791748475" lon="18.175271461898394"><ele>133.8</ele><time>2026-04-21T16:01:26.994Z</time></trkpt><trkpt lat="40.01290587286891" lon="18.17520503935132"><ele>133.4</ele><time>2026-04-21T16:01:27.994Z</time></trkpt><trkpt lat="40.012998869579185" lon="18.1751405342471"><ele>133.0</ele><time>2026-04-21T16:01:28.994Z</time></trkpt><trkpt lat="40.01309575802521" lon="18.175082071915707"><ele>133.0</ele><time>2026-04-21T16:01:29.994Z</time></trkpt><trkpt lat="40.013187476919576" lon="18.175019340301855"><ele>133.0</ele><time>2026-04-21T16:01:30.994Z</time></trkpt><trkpt lat="40.01328488862979" lon="18.174956430989926"><ele>133.0</ele><time>2026-04-21T16:01:31.994Z</time></trkpt><trkpt lat="40.01338752668418" lon="18.174886899997844"><ele>133.0</ele><time>2026-04-21T16:01:32.994Z</time></trkpt><trkpt lat="40.01349071061872" lon="18.17481943817371"><ele>133.0</ele><time>2026-04-21T16:01:33.994Z</time></trkpt><trkpt lat="40.013593914118196" lon="18.174752535138314"><ele>131.25</ele><time>2026-04-21T16:01:34.994Z</time></trkpt><trkpt lat="40.0137004673141" lon="18.174683199609092"><ele>129.5</ele><time>2026-04-21T16:01:35.994Z</time></trkpt><trkpt lat="40.01380565097883" lon="18.17461417188089"><ele>127.75</ele><time>2026-04-21T16:01:36.994Z</time></trkpt><trkpt lat="40.01390973528185" lon="18.174544221945684"><ele>126.0</ele><time>2026-04-21T16:01:37.994Z</time></trkpt><trkpt lat="40.01401397428392" lon="18.174483377354086"><ele>126.0</ele><time>2026-04-21T16:01:38.994Z</time></trkpt><trkpt lat="40.014110435961946" lon="18.17442690087734"><ele>126.0</ele><time>2026-04-21T16:01:39.994Z</time></trkpt><trkpt lat="40.0142059582866" lon="18.17436161455067"><ele>126.0</ele><time>2026-04-21T16:01:40.994Z</time></trkpt><trkpt lat="40.01429900276555" lon="18.17429983991391"><ele>126.0</ele><time>2026-04-21T16:01:41.994Z</time></trkpt><trkpt lat="40.0143924071096" lon="18.174230866551806"><ele>126.0</ele><time>2026-04-21T16:01:42.994Z</time></trkpt><trkpt lat="40.01448744897315" lon="18.17415907722422"><ele>127.0</ele><time>2026-04-21T16:01:43.994Z</time></trkpt><trkpt lat="40.014588200267205" lon="18.174095199862027"><ele>128.0</ele><time>2026-04-21T16:01:44.994Z</time></trkpt><trkpt lat="40.01469009707437" lon="18.174035216239954"><ele>129.0</ele><time>2026-04-21T16:01:45.994Z</time></trkpt><trkpt lat="40.014791754512295" lon="18.173962823739437"><ele>130.0</ele><time>2026-04-21T16:01:46.994Z</time></trkpt><trkpt lat="40.014896874753084" lon="18.17388725053435"><ele>131.25</ele><time>2026-04-21T16:01:47.994Z</time></trkpt><trkpt lat="40.015001525752844" lon="18.17381045719984"><ele>132.5</ele><time>2026-04-21T16:01:48.994Z</time></trkpt><trkpt lat="40.01510810499042" lon="18.173732093209125"><ele>133.75</ele><time>2026-04-21T16:01:49.994Z</time></trkpt><trkpt lat="40.01521842331062" lon="18.173659377167432"><ele>135.0</ele><time>2026-04-21T16:01:50.994Z</time></trkpt><trkpt lat="40.015327403785676" lon="18.173584112485948"><ele>135.0</ele><time>2026-04-21T16:01:51.994Z</time></trkpt><trkpt lat="40.015439875028186" lon="18.17350904852244"><ele>135.0</ele><time>2026-04-21T16:01:52.994Z</time></trkpt><trkpt lat="40.01555667023663" lon="18.17343713250772"><ele>135.0</ele><time>2026-04-21T16:01:53.994Z</time></trkpt><trkpt lat="40.01567292106715" lon="18.173361365841917"><ele>135.0</ele><time>2026-04-21T16:01:54.994Z</time></trkpt><trkpt lat="40.015791197894" lon="18.17328912785877"><ele>135.25</ele><time>2026-04-21T16:01:55.994Z</time></trkpt><trkpt lat="40.01590757968053" lon="18.17321359298951"><ele>135.5</ele><time>2026-04-21T16:01:56.994Z</time></trkpt><trkpt lat="40.016025314303704" lon="18.173140730909786"><ele>135.75</ele><time>2026-04-21T16:01:57.994Z</time></trkpt><trkpt lat="40.01614082994072" lon="18.173066752931224"><ele>136.0</ele><time>2026-04-21T16:01:58.994Z</time></trkpt><trkpt lat="40.016259148956145" lon="18.17299591735579"><ele>136.0</ele><time>2026-04-21T16:01:59.994Z</time></trkpt><trkpt lat="40.01636674230567" lon="18.1729277818055"><ele>136.0</ele><time>2026-04-21T16:02:00.994Z</time></trkpt><trkpt lat="40.016467707004566" lon="18.172866939288532"><ele>136.0</ele><time>2026-04-21T16:02:01.994Z</time></trkpt><trkpt lat="40.016562766642004" lon="18.17280645480397"><ele>136.0</ele><time>2026-04-21T16:02:02.994Z</time></trkpt><trkpt lat="40.01664981932975" lon="18.17274292564049"><ele>136.0</ele><time>2026-04-21T16:02:03.994Z</time></trkpt><trkpt lat="40.0167405367139" lon="18.172676008667192"><ele>136.5</ele><time>2026-04-21T16:02:04.994Z</time></trkpt><trkpt lat="40.016831541597966" lon="18.172610357538556"><ele>137.0</ele><time>2026-04-21T16:02:05.994Z</time></trkpt><trkpt lat="40.016934699593605" lon="18.17254357847105"><ele>137.5</ele><time>2026-04-21T16:02:06.994Z</time></trkpt><trkpt lat="40.017046245913114" lon="18.17247396877709"><ele>138.0</ele><time>2026-04-21T16:02:07.994Z</time></trkpt><trkpt lat="40.01715724822116" lon="18.172408184209747"><ele>137.5</ele><time>2026-04-21T16:02:08.994Z</time></trkpt><trkpt lat="40.017268039056894" lon="18.172335327006973"><ele>137.0</ele><time>2026-04-21T16:02:09.994Z</time></trkpt><trkpt lat="40.01738629706363" lon="18.17225703342117"><ele>136.5</ele><time>2026-04-21T16:02:10.994Z</time></trkpt><trkpt lat="40.017503299537516" lon="18.172176421950905"><ele>136.0</ele><time>2026-04-21T16:02:11.994Z</time></trkpt><trkpt lat="40.01763285614003" lon="18.172094448322934"><ele>136.0</ele><time>2026-04-21T16:02:12.994Z</time></trkpt><trkpt lat="40.017765699804045" lon="18.172017058509287"><ele>136.0</ele><time>2026-04-21T16:02:13.994Z</time></trkpt><trkpt lat="40.01790302706919" lon="18.171948220616443"><ele>136.0</ele><time>2026-04-21T16:02:14.994Z</time></trkpt><trkpt lat="40.018037101873446" lon="18.17187690154002"><ele>136.0</ele><time>2026-04-21T16:02:15.994Z</time></trkpt><trkpt lat="40.018163716753335" lon="18.17179227649233"><ele>136.0</ele><time>2026-04-21T16:02:16.994Z</time></trkpt><trkpt lat="40.0182974504519" lon="18.17171462518743"><ele>136.0</ele><time>2026-04-21T16:02:17.994Z</time></trkpt><trkpt lat="40.01843988072819" lon="18.17164243961463"><ele>136.0</ele><time>2026-04-21T16:02:18.994Z</time></trkpt><trkpt lat="40.018580980674734" lon="18.17156324831319"><ele>135.25</ele><time>2026-04-21T16:02:19.994Z</time></trkpt><trkpt lat="40.01872223408795" lon="18.17149259890728"><ele>134.5</ele><time>2026-04-21T16:02:20.994Z</time></trkpt><trkpt lat="40.018861350952434" lon="18.17142864973047"><ele>133.75</ele><time>2026-04-21T16:02:21.994Z</time></trkpt><trkpt lat="40.019002556767276" lon="18.171374423521378"><ele>133.0</ele><time>2026-04-21T16:02:22.994Z</time></trkpt><trkpt lat="40.019142815157736" lon="18.17132673446076"><ele>133.4</ele><time>2026-04-21T16:02:23.993Z</time></trkpt><trkpt lat="40.01927187170206" lon="18.171308263338876"><ele>133.8</ele><time>2026-04-21T16:02:24.993Z</time></trkpt><trkpt lat="40.01938113872817" lon="18.171302162789424"><ele>134.2</ele><time>2026-04-21T16:02:25.993Z</time></trkpt><trkpt lat="40.01946383322462" lon="18.171296827537255"><ele>134.6</ele><time>2026-04-21T16:02:26.993Z</time></trkpt><trkpt lat="40.01953835327242" lon="18.17129246846453"><ele>135.0</ele><time>2026-04-21T16:02:27.993Z</time></trkpt><trkpt lat="40.0196162427709" lon="18.17130258986076"><ele>135.0</ele><time>2026-04-21T16:02:28.993Z</time></trkpt><trkpt lat="40.0196968374679" lon="18.171314935325924"><ele>135.0</ele><time>2026-04-21T16:02:29.993Z</time></trkpt><trkpt lat="40.01979296908884" lon="18.171335465313838"><ele>135.0</ele><time>2026-04-21T16:02:30.993Z</time></trkpt><trkpt lat="40.0198878763284" lon="18.17134992936225"><ele>135.0</ele><time>2026-04-21T16:02:31.993Z</time></trkpt><trkpt lat="40.019983777801535" lon="18.171363274737427"><ele>135.0</ele><time>2026-04-21T16:02:32.993Z</time></trkpt><trkpt lat="40.02007457458426" lon="18.17138853156091"><ele>135.5</ele><time>2026-04-21T16:02:33.993Z</time></trkpt><trkpt lat="40.02013632097791" lon="18.171413828236467"><ele>136.0</ele><time>2026-04-21T16:02:34.993Z</time></trkpt><trkpt lat="40.020200846194044" lon="18.17142949535431"><ele>136.5</ele><time>2026-04-21T16:02:35.993Z</time></trkpt><trkpt lat="40.02032991618202" lon="18.17136757119149"><ele>137.0</ele><time>2026-04-21T16:02:37.993Z</time></trkpt><trkpt lat="40.02040723086194" lon="18.17130423316987"><ele>137.5</ele><time>2026-04-21T16:02:38.993Z</time></trkpt><trkpt lat="40.02048683980713" lon="18.17125853554031"><ele>138.0</ele><time>2026-04-21T16:02:39.993Z</time></trkpt><trkpt lat="40.02058891922693" lon="18.1712202261868"><ele>138.0</ele><time>2026-04-21T16:02:40.993Z</time></trkpt><trkpt lat="40.020699695917976" lon="18.171181106830684"><ele>138.0</ele><time>2026-04-21T16:02:41.993Z</time></trkpt><trkpt lat="40.02080282394487" lon="18.171138239391503"><ele>138.0</ele><time>2026-04-21T16:02:42.993Z</time></trkpt><trkpt lat="40.02090926131697" lon="18.171082246697406"><ele>138.0</ele><time>2026-04-21T16:02:43.993Z</time></trkpt><trkpt lat="40.02103620835945" lon="18.171041353320128"><ele>138.5</ele><time>2026-04-21T16:02:44.993Z</time></trkpt><trkpt lat="40.02117480820131" lon="18.17099509640571"><ele>139.0</ele><time>2026-04-21T16:02:45.993Z</time></trkpt><trkpt lat="40.02131825440885" lon="18.170948937949355"><ele>139.5</ele><time>2026-04-21T16:02:46.993Z</time></trkpt><trkpt lat="40.02146591125031" lon="18.170890117203527"><ele>140.0</ele><time>2026-04-21T16:02:47.993Z</time></trkpt><trkpt lat="40.021616968316124" lon="18.17082651667417"><ele>140.66666666666666</ele><time>2026-04-21T16:02:48.993Z</time></trkpt><trkpt lat="40.02176804774637" lon="18.170761301131055"><ele>141.33333333333334</ele><time>2026-04-21T16:02:49.993Z</time></trkpt><trkpt lat="40.021914253630165" lon="18.17070079973173"><ele>142.0</ele><time>2026-04-21T16:02:50.993Z</time></trkpt><trkpt lat="40.02206553446367" lon="18.1706438507013"><ele>141.33333333333334</ele><time>2026-04-21T16:02:51.993Z</time></trkpt><trkpt lat="40.022215256193626" lon="18.17059130101176"><ele>140.66666666666666</ele><time>2026-04-21T16:02:52.993Z</time></trkpt><trkpt lat="40.02236723768153" lon="18.170533806379435"><ele>140.0</ele><time>2026-04-21T16:02:53.993Z</time></trkpt><trkpt lat="40.02252538467948" lon="18.170473552530375"><ele>140.0</ele><time>2026-04-21T16:02:54.993Z</time></trkpt><trkpt lat="40.02267438031776" lon="18.170382997511133"><ele>140.0</ele><time>2026-04-21T16:02:55.993Z</time></trkpt><trkpt lat="40.02282218519868" lon="18.170271474660016"><ele>140.0</ele><time>2026-04-21T16:02:56.993Z</time></trkpt><trkpt lat="40.02297412978344" lon="18.17015261258568"><ele>140.0</ele><time>2026-04-21T16:02:57.993Z</time></trkpt><trkpt lat="40.023126480747194" lon="18.170039449122218"><ele>140.0</ele><time>2026-04-21T16:02:58.993Z</time></trkpt><trkpt lat="40.023278303873454" lon="18.169930989120495"><ele>140.0</ele><time>2026-04-21T16:02:59.993Z</time></trkpt><trkpt lat="40.02343521958269" lon="18.169837025281897"><ele>140.0</ele><time>2026-04-21T16:03:00.993Z</time></trkpt><trkpt lat="40.02359271453169" lon="18.169751190508084"><ele>140.0</ele><time>2026-04-21T16:03:01.993Z</time></trkpt><trkpt lat="40.02374573419878" lon="18.169676854707355"><ele>140.0</ele><time>2026-04-21T16:03:02.993Z</time></trkpt><trkpt lat="40.023910921735876" lon="18.169609946969153"><ele>140.0</ele><time>2026-04-21T16:03:03.993Z</time></trkpt><trkpt lat="40.02407232754744" lon="18.169547930798817"><ele>140.0</ele><time>2026-04-21T16:03:04.993Z</time></trkpt><trkpt lat="40.02423331097842" lon="18.169485229400962"><ele>140.0</ele><time>2026-04-21T16:03:05.993Z</time></trkpt><trkpt lat="40.02439993423325" lon="18.16942168911797"><ele>141.0</ele><time>2026-04-21T16:03:06.993Z</time></trkpt><trkpt lat="40.02455283673626" lon="18.169358258966465"><ele>142.0</ele><time>2026-04-21T16:03:07.993Z</time></trkpt><trkpt lat="40.024687512576854" lon="18.169302589973167"><ele>143.0</ele><time>2026-04-21T16:03:08.993Z</time></trkpt><trkpt lat="40.02479347517811" lon="18.169260066331695"><ele>144.0</ele><time>2026-04-21T16:03:09.993Z</time></trkpt><trkpt lat="40.02488101997756" lon="18.169225432910718"><ele>144.0</ele><time>2026-04-21T16:03:10.993Z</time></trkpt><trkpt lat="40.024945628600584" lon="18.169199190795247"><ele>144.0</ele><time>2026-04-21T16:03:11.993Z</time></trkpt><trkpt lat="40.02503925120184" lon="18.169162597809255"><ele>144.0</ele><time>2026-04-21T16:03:13.993Z</time></trkpt><trkpt lat="40.025106571311696" lon="18.169167622342187"><ele>144.0</ele><time>2026-04-21T16:03:37.993Z</time></trkpt><trkpt lat="40.02519839125777" lon="18.169130872149427"><ele>144.0</ele><time>2026-04-21T16:03:39.993Z</time></trkpt><trkpt lat="40.02525640576267" lon="18.16908142747138"><ele>144.0</ele><time>2026-04-21T16:03:40.993Z</time></trkpt><trkpt lat="40.02532196319811" lon="18.16901528823983"><ele>144.5</ele><time>2026-04-21T16:03:41.993Z</time></trkpt><trkpt lat="40.02540178616399" lon="18.16892767041716"><ele>145.0</ele><time>2026-04-21T16:03:42.993Z</time></trkpt><trkpt lat="40.025481617347566" lon="18.168829719661836"><ele>145.5</ele><time>2026-04-21T16:03:43.993Z</time></trkpt><trkpt lat="40.0255694774232" lon="18.168730232670743"><ele>146.0</ele><time>2026-04-21T16:03:44.993Z</time></trkpt><trkpt lat="40.025665271307204" lon="18.168624327313243"><ele>146.0</ele><time>2026-04-21T16:03:45.993Z</time></trkpt><trkpt lat="40.025770589890236" lon="18.16850781887144"><ele>146.0</ele><time>2026-04-21T16:03:46.993Z</time></trkpt><trkpt lat="40.02586965830527" lon="18.16837624878531"><ele>146.0</ele><time>2026-04-21T16:03:47.993Z</time></trkpt><trkpt lat="40.02596476414428" lon="18.168241272531482"><ele>146.0</ele><time>2026-04-21T16:03:48.993Z</time></trkpt><trkpt lat="40.02606854656215" lon="18.16810821673769"><ele>146.0</ele><time>2026-04-21T16:03:49.993Z</time></trkpt><trkpt lat="40.026183449875724" lon="18.167958114366037"><ele>146.0</ele><time>2026-04-21T16:03:50.993Z</time></trkpt><trkpt lat="40.02629347647152" lon="18.167801887642327"><ele>146.0</ele><time>2026-04-21T16:03:51.993Z</time></trkpt><trkpt lat="40.026395727353616" lon="18.167637741036575"><ele>146.0</ele><time>2026-04-21T16:03:52.993Z</time></trkpt><trkpt lat="40.02647248481871" lon="18.167459899388533"><ele>146.0</ele><time>2026-04-21T16:03:53.993Z</time></trkpt><trkpt lat="40.02653266797523" lon="18.16732043721904"><ele>146.0</ele><time>2026-04-21T16:03:54.993Z</time></trkpt><trkpt lat="40.026576040417076" lon="18.167191712749617"><ele>146.0</ele><time>2026-04-21T16:03:55.993Z</time></trkpt><trkpt lat="40.02694811883718" lon="18.167197042284222"><ele>146.0</ele><time>2026-04-21T16:03:56.993Z</time></trkpt><trkpt lat="40.02705035110296" lon="18.167086644980547"><ele>146.0</ele><time>2026-04-21T16:03:57.993Z</time></trkpt><trkpt lat="40.02714072547084" lon="18.16699473280145"><ele>146.0</ele><time>2026-04-21T16:03:58.993Z</time></trkpt><trkpt lat="40.02722419995724" lon="18.1669207193347"><ele>146.0</ele><time>2026-04-21T16:03:59.993Z</time></trkpt><trkpt lat="40.02731011794872" lon="18.16686917802983"><ele>146.0</ele><time>2026-04-21T16:04:00.993Z</time></trkpt><trkpt lat="40.02739296411538" lon="18.16681610913601"><ele>146.0</ele><time>2026-04-21T16:04:01.993Z</time></trkpt><trkpt lat="40.027469875320435" lon="18.16671930832677"><ele>146.0</ele><time>2026-04-21T16:04:02.993Z</time></trkpt><trkpt lat="40.027540174758336" lon="18.166583617106184"><ele>146.0</ele><time>2026-04-21T16:04:03.993Z</time></trkpt><trkpt lat="40.02762400780601" lon="18.166436971285464"><ele>146.0</ele><time>2026-04-21T16:04:04.993Z</time></trkpt><trkpt lat="40.02773709637177" lon="18.166289383365278"><ele>145.66666666666666</ele><time>2026-04-21T16:04:05.993Z</time></trkpt><trkpt lat="40.02786971970029" lon="18.166136699097443"><ele>145.33333333333334</ele><time>2026-04-21T16:04:06.993Z</time></trkpt><trkpt lat="40.02801621048702" lon="18.165973808536872"><ele>145.0</ele><time>2026-04-21T16:04:07.993Z</time></trkpt><trkpt lat="40.028168662453794" lon="18.16580296657336"><ele>145.33333333333334</ele><time>2026-04-21T16:04:08.993Z</time></trkpt><trkpt lat="40.028321378138976" lon="18.16562951139685"><ele>145.66666666666666</ele><time>2026-04-21T16:04:09.993Z</time></trkpt><trkpt lat="40.02847704432569" lon="18.16545329264109"><ele>146.0</ele><time>2026-04-21T16:04:10.993Z</time></trkpt><trkpt lat="40.02863679534589" lon="18.165275296285458"><ele>146.0</ele><time>2026-04-21T16:04:11.993Z</time></trkpt><trkpt lat="40.02879305832653" lon="18.165101169023146"><ele>146.0</ele><time>2026-04-21T16:04:12.993Z</time></trkpt><trkpt lat="40.028935881044816" lon="18.16493907649658"><ele>146.0</ele><time>2026-04-21T16:04:13.993Z</time></trkpt><trkpt lat="40.02907412555021" lon="18.164780393123497"><ele>146.33333333333331</ele><time>2026-04-21T16:04:14.993Z</time></trkpt><trkpt lat="40.02920737919677" lon="18.16462435147504"><ele>146.66666666666666</ele><time>2026-04-21T16:04:15.993Z</time></trkpt><trkpt lat="40.02934359092452" lon="18.164475948399517"><ele>147.0</ele><time>2026-04-21T16:04:16.993Z</time></trkpt><trkpt lat="40.029474369606255" lon="18.164338396592857"><ele>147.0</ele><time>2026-04-21T16:04:17.993Z</time></trkpt><trkpt lat="40.029590719421556" lon="18.16420541599844"><ele>147.0</ele><time>2026-04-21T16:04:18.993Z</time></trkpt><trkpt lat="40.02968697035202" lon="18.164097570071522"><ele>147.0</ele><time>2026-04-21T16:04:19.993Z</time></trkpt><trkpt lat="40.029777965738376" lon="18.163993925270006"><ele>147.0</ele><time>2026-04-21T16:04:20.993Z</time></trkpt><trkpt lat="40.02986202824672" lon="18.163902435937594"><ele>146.66666666666666</ele><time>2026-04-21T16:04:21.993Z</time></trkpt><trkpt lat="40.02993549119056" lon="18.16382081127667"><ele>146.33333333333334</ele><time>2026-04-21T16:04:22.993Z</time></trkpt><trkpt lat="40.03000447154356" lon="18.163743896142293"><ele>146.0</ele><time>2026-04-21T16:04:23.993Z</time></trkpt><trkpt lat="40.03007251220803" lon="18.163676403771163"><ele>145.66666666666669</ele><time>2026-04-21T16:04:24.993Z</time></trkpt><trkpt lat="40.030133375665514" lon="18.163614520344"><ele>145.33333333333334</ele><time>2026-04-21T16:04:25.993Z</time></trkpt><trkpt lat="40.03019061145321" lon="18.163563716895148"><ele>145.0</ele><time>2026-04-21T16:04:26.993Z</time></trkpt><trkpt lat="40.03027253767377" lon="18.16351421557987"><ele>145.0</ele><time>2026-04-21T16:04:28.993Z</time></trkpt><trkpt lat="40.03033767862763" lon="18.163511806689367"><ele>145.0</ele><time>2026-04-21T16:04:31.992Z</time></trkpt><trkpt lat="40.03045064650873" lon="18.163483193051214"><ele>145.0</ele><time>2026-04-21T16:04:33.992Z</time></trkpt><trkpt lat="40.03051453372938" lon="18.16343027939997"><ele>145.0</ele><time>2026-04-21T16:04:34.992Z</time></trkpt><trkpt lat="40.030564119411395" lon="18.16334581461551"><ele>145.0</ele><time>2026-04-21T16:04:35.992Z</time></trkpt><trkpt lat="40.03060769447334" lon="18.163235273857495"><ele>145.0</ele><time>2026-04-21T16:04:36.992Z</time></trkpt><trkpt lat="40.030649886726174" lon="18.16309622204432"><ele>145.0</ele><time>2026-04-21T16:04:37.992Z</time></trkpt><trkpt lat="40.03072074618376" lon="18.16295166299168"><ele>145.0</ele><time>2026-04-21T16:04:38.992Z</time></trkpt><trkpt lat="40.03081552152266" lon="18.16281497505275"><ele>145.0</ele><time>2026-04-21T16:04:39.992Z</time></trkpt><trkpt lat="40.03093365982021" lon="18.162675022318403"><ele>145.0</ele><time>2026-04-21T16:04:40.992Z</time></trkpt><trkpt lat="40.031062723097925" lon="18.162528423055374"><ele>145.0</ele><time>2026-04-21T16:04:41.992Z</time></trkpt><trkpt lat="40.03120319704666" lon="18.162376035163714"><ele>145.0</ele><time>2026-04-21T16:04:42.992Z</time></trkpt><trkpt lat="40.0313580220836" lon="18.162207052710837"><ele>145.0</ele><time>2026-04-21T16:04:43.992Z</time></trkpt><trkpt lat="40.031520898414335" lon="18.16202622355232"><ele>144.66666666666669</ele><time>2026-04-21T16:04:44.992Z</time></trkpt><trkpt lat="40.0316811884617" lon="18.161842790161437"><ele>144.33333333333334</ele><time>2026-04-21T16:04:45.992Z</time></trkpt><trkpt lat="40.03184296369305" lon="18.16165921341624"><ele>144.0</ele><time>2026-04-21T16:04:46.992Z</time></trkpt><trkpt lat="40.03200343084069" lon="18.161475785667466"><ele>144.0</ele><time>2026-04-21T16:04:47.992Z</time></trkpt><trkpt lat="40.032160480801586" lon="18.16129520500258"><ele>144.0</ele><time>2026-04-21T16:04:48.992Z</time></trkpt><trkpt lat="40.0323236422253" lon="18.16111389738724"><ele>144.0</ele><time>2026-04-21T16:04:49.992Z</time></trkpt><trkpt lat="40.032484013698465" lon="18.160938818377822"><ele>144.33333333333334</ele><time>2026-04-21T16:04:50.992Z</time></trkpt><trkpt lat="40.03263746597116" lon="18.16077206885058"><ele>144.66666666666669</ele><time>2026-04-21T16:04:51.992Z</time></trkpt><trkpt lat="40.032788053155635" lon="18.160607937023595"><ele>145.0</ele><time>2026-04-21T16:04:52.992Z</time></trkpt><trkpt lat="40.032939080906985" lon="18.160443122360917"><ele>145.0</ele><time>2026-04-21T16:04:53.992Z</time></trkpt><trkpt lat="40.03308699674262" lon="18.160284208101523"><ele>145.0</ele><time>2026-04-21T16:04:54.992Z</time></trkpt><trkpt lat="40.03322885823569" lon="18.16012327576996"><ele>145.0</ele><time>2026-04-21T16:04:55.992Z</time></trkpt><trkpt lat="40.03336590985068" lon="18.159978884312103"><ele>144.0</ele><time>2026-04-21T16:04:56.992Z</time></trkpt><trkpt lat="40.03350511522633" lon="18.159839177499823"><ele>143.0</ele><time>2026-04-21T16:04:57.992Z</time></trkpt><trkpt lat="40.03364358444139" lon="18.15970444052221"><ele>142.0</ele><time>2026-04-21T16:04:58.992Z</time></trkpt><trkpt lat="40.03378405476211" lon="18.159578743804943"><ele>142.0</ele><time>2026-04-21T16:04:59.992Z</time></trkpt><trkpt lat="40.03391790372486" lon="18.1594550358048"><ele>142.0</ele><time>2026-04-21T16:05:00.992Z</time></trkpt><trkpt lat="40.034043895305786" lon="18.159334488793338"><ele>142.0</ele><time>2026-04-21T16:05:01.992Z</time></trkpt><trkpt lat="40.03416304690013" lon="18.159216281567637"><ele>142.0</ele><time>2026-04-21T16:05:02.992Z</time></trkpt><trkpt lat="40.03427879515088" lon="18.159103442846163"><ele>142.0</ele><time>2026-04-21T16:05:03.992Z</time></trkpt><trkpt lat="40.03439442810915" lon="18.158984388420418"><ele>142.0</ele><time>2026-04-21T16:05:04.992Z</time></trkpt><trkpt lat="40.03451276791332" lon="18.158864875322674"><ele>142.0</ele><time>2026-04-21T16:05:05.992Z</time></trkpt><trkpt lat="40.03462598378762" lon="18.158757721379057"><ele>142.0</ele><time>2026-04-21T16:05:06.992Z</time></trkpt><trkpt lat="40.03473093190357" lon="18.15864885982375"><ele>142.0</ele><time>2026-04-21T16:05:07.992Z</time></trkpt><trkpt lat="40.0348397622866" lon="18.158548125470823"><ele>142.0</ele><time>2026-04-21T16:05:08.992Z</time></trkpt><trkpt lat="40.03494604586497" lon="18.158443826506044"><ele>142.0</ele><time>2026-04-21T16:05:09.992Z</time></trkpt><trkpt lat="40.035049879924664" lon="18.158341680685883"><ele>141.75</ele><time>2026-04-21T16:05:10.992Z</time></trkpt><trkpt lat="40.03515036451198" lon="18.15824756925597"><ele>141.5</ele><time>2026-04-21T16:05:11.992Z</time></trkpt><trkpt lat="40.03524251528989" lon="18.158160168531413"><ele>141.25</ele><time>2026-04-21T16:05:12.992Z</time></trkpt><trkpt lat="40.03533193605485" lon="18.1580746767839"><ele>141.0</ele><time>2026-04-21T16:05:13.992Z</time></trkpt><trkpt lat="40.03541756006902" lon="18.15799314327213"><ele>141.0</ele><time>2026-04-21T16:05:14.992Z</time></trkpt><trkpt lat="40.03549825385946" lon="18.15791600595683"><ele>141.0</ele><time>2026-04-21T16:05:15.992Z</time></trkpt><trkpt lat="40.03557551666077" lon="18.157842018797496"><ele>141.0</ele><time>2026-04-21T16:05:16.992Z</time></trkpt><trkpt lat="40.0356496698347" lon="18.157769207024195"><ele>141.0</ele><time>2026-04-21T16:05:17.992Z</time></trkpt><trkpt lat="40.03573087935674" lon="18.15768938556342"><ele>141.0</ele><time>2026-04-21T16:05:18.992Z</time></trkpt><trkpt lat="40.03582073493023" lon="18.157599523331925"><ele>141.4</ele><time>2026-04-21T16:05:19.992Z</time></trkpt><trkpt lat="40.035915194401056" lon="18.157508639621504"><ele>141.8</ele><time>2026-04-21T16:05:20.992Z</time></trkpt><trkpt lat="40.036008882700095" lon="18.15741400702938"><ele>142.20000000000002</ele><time>2026-04-21T16:05:21.992Z</time></trkpt><trkpt lat="40.036094167419094" lon="18.157333677290445"><ele>142.6</ele><time>2026-04-21T16:05:22.992Z</time></trkpt><trkpt lat="40.03616266541301" lon="18.157261696015365"><ele>143.0</ele><time>2026-04-21T16:05:23.992Z</time></trkpt><trkpt lat="40.036222803482445" lon="18.157191194764646"><ele>143.0</ele><time>2026-04-21T16:05:24.992Z</time></trkpt><trkpt lat="40.036270902620416" lon="18.15713584151802"><ele>143.0</ele><time>2026-04-21T16:05:25.992Z</time></trkpt><trkpt lat="40.03634415720053" lon="18.15706530426908"><ele>143.0</ele><time>2026-04-21T16:05:27.992Z</time></trkpt><trkpt lat="40.036421975271814" lon="18.15698051978996"><ele>143.0</ele><time>2026-04-21T16:05:29.992Z</time></trkpt><trkpt lat="40.036478155877255" lon="18.156921698092955"><ele>143.0</ele><time>2026-04-21T16:05:30.992Z</time></trkpt><trkpt lat="40.036545711914336" lon="18.15685687014811"><ele>143.0</ele><time>2026-04-21T16:05:31.992Z</time></trkpt><trkpt lat="40.0366216124259" lon="18.156785973670956"><ele>143.25</ele><time>2026-04-21T16:05:32.992Z</time></trkpt><trkpt lat="40.03671148865638" lon="18.156699824872483"><ele>143.5</ele><time>2026-04-21T16:05:33.992Z</time></trkpt><trkpt lat="40.03682049768962" lon="18.15660147375555"><ele>143.75</ele><time>2026-04-21T16:05:34.992Z</time></trkpt><trkpt lat="40.03692582801727" lon="18.15648144822596"><ele>144.0</ele><time>2026-04-21T16:05:35.992Z</time></trkpt><trkpt lat="40.03704844882859" lon="18.15635894861038"><ele>144.33333333333334</ele><time>2026-04-21T16:05:36.992Z</time></trkpt><trkpt lat="40.037174783348675" lon="18.156241233782"><ele>144.66666666666669</ele><time>2026-04-21T16:05:37.992Z</time></trkpt><trkpt lat="40.03730293946855" lon="18.15612669418088"><ele>145.0</ele><time>2026-04-21T16:05:38.992Z</time></trkpt><trkpt lat="40.03742395383522" lon="18.15601068751388"><ele>145.75</ele><time>2026-04-21T16:05:39.992Z</time></trkpt><trkpt lat="40.037547421761815" lon="18.15589374898227"><ele>146.5</ele><time>2026-04-21T16:05:40.992Z</time></trkpt><trkpt lat="40.0376666442971" lon="18.155781736656635"><ele>147.25</ele><time>2026-04-21T16:05:41.992Z</time></trkpt><trkpt lat="40.03778636902109" lon="18.155667534326135"><ele>148.0</ele><time>2026-04-21T16:05:42.992Z</time></trkpt><trkpt lat="40.037901539543086" lon="18.155553833464907"><ele>148.75</ele><time>2026-04-21T16:05:43.992Z</time></trkpt><trkpt lat="40.03800973678401" lon="18.155446177950523"><ele>149.5</ele><time>2026-04-21T16:05:44.992Z</time></trkpt><trkpt lat="40.038116764338035" lon="18.15533944014528"><ele>150.25</ele><time>2026-04-21T16:05:45.992Z</time></trkpt><trkpt lat="40.03822759043066" lon="18.155234482406367"><ele>151.0</ele><time>2026-04-21T16:05:46.992Z</time></trkpt><trkpt lat="40.038338497612976" lon="18.155133057473822"><ele>151.25</ele><time>2026-04-21T16:05:47.992Z</time></trkpt><trkpt lat="40.03845316003358" lon="18.15502998937206"><ele>151.5</ele><time>2026-04-21T16:05:48.992Z</time></trkpt><trkpt lat="40.03855035073155" lon="18.15493235297984"><ele>151.75</ele><time>2026-04-21T16:05:49.992Z</time></trkpt><trkpt lat="40.03864271656249" lon="18.154838179252557"><ele>152.0</ele><time>2026-04-21T16:05:50.992Z</time></trkpt><trkpt lat="40.03872829258754" lon="18.154752601632516"><ele>152.16666666666666</ele><time>2026-04-21T16:05:51.992Z</time></trkpt><trkpt lat="40.038802050340784" lon="18.154682305230597"><ele>152.33333333333331</ele><time>2026-04-21T16:05:52.992Z</time></trkpt><trkpt lat="40.03887212735303" lon="18.154612492555106"><ele>152.5</ele><time>2026-04-21T16:05:53.992Z</time></trkpt><trkpt lat="40.03893786936406" lon="18.15455262893835"><ele>152.66666666666666</ele><time>2026-04-21T16:05:54.992Z</time></trkpt><trkpt lat="40.03900087594521" lon="18.154490020055327"><ele>152.83333333333334</ele><time>2026-04-21T16:05:55.992Z</time></trkpt><trkpt lat="40.03906203764252" lon="18.154425188143215"><ele>153.0</ele><time>2026-04-21T16:05:56.992Z</time></trkpt><trkpt lat="40.03911642056782" lon="18.154358911598393"><ele>153.0</ele><time>2026-04-21T16:05:57.992Z</time></trkpt><trkpt lat="40.03917059549808" lon="18.154291868428807"><ele>153.0</ele><time>2026-04-21T16:05:58.992Z</time></trkpt><trkpt lat="40.039225833776236" lon="18.154226358759047"><ele>153.0</ele><time>2026-04-21T16:05:59.992Z</time></trkpt><trkpt lat="40.03927337059721" lon="18.15417167650709"><ele>153.0</ele><time>2026-04-21T16:06:00.992Z</time></trkpt><trkpt lat="40.03937898599172" lon="18.1540901576201"><ele>153.0</ele><time>2026-04-21T16:06:02.992Z</time></trkpt><trkpt lat="40.039447831164566" lon="18.15406400582516"><ele>153.0</ele><time>2026-04-21T16:06:03.992Z</time></trkpt><trkpt lat="40.03951852661941" lon="18.15404287282239"><ele>152.83333333333334</ele><time>2026-04-21T16:06:04.992Z</time></trkpt><trkpt lat="40.03957855801084" lon="18.15399906968715"><ele>152.66666666666666</ele><time>2026-04-21T16:06:05.992Z</time></trkpt><trkpt lat="40.0396300210822" lon="18.153933586483927"><ele>152.5</ele><time>2026-04-21T16:06:06.992Z</time></trkpt><trkpt lat="40.039670770865385" lon="18.153846456093838"><ele>152.33333333333331</ele><time>2026-04-21T16:06:07.992Z</time></trkpt><trkpt lat="40.03971854426312" lon="18.153755686346194"><ele>152.16666666666666</ele><time>2026-04-21T16:06:08.992Z</time></trkpt><trkpt lat="40.03978180843198" lon="18.153679521911215"><ele>152.0</ele><time>2026-04-21T16:06:09.992Z</time></trkpt><trkpt lat="40.03986145129096" lon="18.15361164483258"><ele>152.0</ele><time>2026-04-21T16:06:10.992Z</time></trkpt><trkpt lat="40.03995516046445" lon="18.15354193812239"><ele>152.0</ele><time>2026-04-21T16:06:11.992Z</time></trkpt><trkpt lat="40.04005058140019" lon="18.15346832610764"><ele>152.0</ele><time>2026-04-21T16:06:12.992Z</time></trkpt><trkpt lat="40.04015189297145" lon="18.15338071987656"><ele>152.0</ele><time>2026-04-21T16:06:13.992Z</time></trkpt><trkpt lat="40.04025226246875" lon="18.15328176722529"><ele>152.75</ele><time>2026-04-21T16:06:14.992Z</time></trkpt><trkpt lat="40.04035964557873" lon="18.153175326160966"><ele>153.5</ele><time>2026-04-21T16:06:15.992Z</time></trkpt><trkpt lat="40.040470760639735" lon="18.153069114275365"><ele>154.25</ele><time>2026-04-21T16:06:16.992Z</time></trkpt><trkpt lat="40.04058467257202" lon="18.152959646518926"><ele>155.0</ele><time>2026-04-21T16:06:17.992Z</time></trkpt><trkpt lat="40.04069752570179" lon="18.15284791661237"><ele>155.0</ele><time>2026-04-21T16:06:18.992Z</time></trkpt><trkpt lat="40.040811814637436" lon="18.152739055104867"><ele>155.0</ele><time>2026-04-21T16:06:19.992Z</time></trkpt><trkpt lat="40.04092551991458" lon="18.15262984914106"><ele>155.0</ele><time>2026-04-21T16:06:20.992Z</time></trkpt><trkpt lat="40.04104154530575" lon="18.152518456810924"><ele>155.0</ele><time>2026-04-21T16:06:21.992Z</time></trkpt><trkpt lat="40.04115825602465" lon="18.152403085108276"><ele>155.5</ele><time>2026-04-21T16:06:22.992Z</time></trkpt><trkpt lat="40.041275632977445" lon="18.152284244724097"><ele>156.0</ele><time>2026-04-21T16:06:23.992Z</time></trkpt><trkpt lat="40.0413975111041" lon="18.15216905034635"><ele>156.5</ele><time>2026-04-21T16:06:24.992Z</time></trkpt><trkpt lat="40.041513373177786" lon="18.152051020124606"><ele>157.0</ele><time>2026-04-21T16:06:25.992Z</time></trkpt><trkpt lat="40.04163988850539" lon="18.15193056236772"><ele>157.33333333333334</ele><time>2026-04-21T16:06:26.992Z</time></trkpt><trkpt lat="40.041768514007515" lon="18.15180564075435"><ele>157.66666666666666</ele><time>2026-04-21T16:06:27.992Z</time></trkpt><trkpt lat="40.04189975959745" lon="18.15167963031589"><ele>158.0</ele><time>2026-04-21T16:06:28.992Z</time></trkpt><trkpt lat="40.042028601559444" lon="18.151558391160968"><ele>157.66666666666666</ele><time>2026-04-21T16:06:29.992Z</time></trkpt><trkpt lat="40.04215399509633" lon="18.15143635361235"><ele>157.33333333333334</ele><time>2026-04-21T16:06:30.992Z</time></trkpt><trkpt lat="40.042279582063784" lon="18.15131220325813"><ele>157.0</ele><time>2026-04-21T16:06:31.992Z</time></trkpt><trkpt lat="40.04240286107618" lon="18.151187844744374"><ele>157.0</ele><time>2026-04-21T16:06:32.992Z</time></trkpt><trkpt lat="40.04253442459576" lon="18.15106369887058"><ele>157.0</ele><time>2026-04-21T16:06:33.992Z</time></trkpt><trkpt lat="40.04266804786416" lon="18.15093793414075"><ele>157.0</ele><time>2026-04-21T16:06:34.992Z</time></trkpt><trkpt lat="40.04280081152713" lon="18.150809821265312"><ele>157.0</ele><time>2026-04-21T16:06:35.992Z</time></trkpt><trkpt lat="40.04293319867057" lon="18.150679155532046"><ele>157.0</ele><time>2026-04-21T16:06:36.991Z</time></trkpt><trkpt lat="40.0430646439239" lon="18.150546260295428"><ele>157.0</ele><time>2026-04-21T16:06:37.991Z</time></trkpt><trkpt lat="40.043196039134855" lon="18.150412401753954"><ele>157.33333333333334</ele><time>2026-04-21T16:06:38.991Z</time></trkpt><trkpt lat="40.043331699799275" lon="18.150283541553627"><ele>157.66666666666666</ele><time>2026-04-21T16:06:39.991Z</time></trkpt><trkpt lat="40.04346756387656" lon="18.15014852599263"><ele>158.0</ele><time>2026-04-21T16:06:40.991Z</time></trkpt><trkpt lat="40.04360255611889" lon="18.15001649048455"><ele>158.0</ele><time>2026-04-21T16:06:41.991Z</time></trkpt><trkpt lat="40.043740553413954" lon="18.149875804166268"><ele>158.0</ele><time>2026-04-21T16:06:42.991Z</time></trkpt><trkpt lat="40.04388160522733" lon="18.149732977342257"><ele>158.0</ele><time>2026-04-21T16:06:43.991Z</time></trkpt><trkpt lat="40.04402677170683" lon="18.149585380618397"><ele>158.0</ele><time>2026-04-21T16:06:44.991Z</time></trkpt><trkpt lat="40.044173386495586" lon="18.14942859264868"><ele>158.0</ele><time>2026-04-21T16:06:45.991Z</time></trkpt><trkpt lat="40.04431558570941" lon="18.149251612163454"><ele>158.0</ele><time>2026-04-21T16:06:46.991Z</time></trkpt><trkpt lat="40.04443147257018" lon="18.14905028960861"><ele>157.33333333333331</ele><time>2026-04-21T16:06:47.991Z</time></trkpt><trkpt lat="40.04453563658672" lon="18.14884480398603"><ele>156.66666666666666</ele><time>2026-04-21T16:06:48.991Z</time></trkpt><trkpt lat="40.044612421058964" lon="18.148608378516435"><ele>156.0</ele><time>2026-04-21T16:06:49.991Z</time></trkpt><trkpt lat="40.04467489729447" lon="18.148367852727485"><ele>155.0</ele><time>2026-04-21T16:06:50.991Z</time></trkpt><trkpt lat="40.04472482328142" lon="18.148120272593708"><ele>154.0</ele><time>2026-04-21T16:06:51.991Z</time></trkpt><trkpt lat="40.04477040809313" lon="18.14787130579922"><ele>153.0</ele><time>2026-04-21T16:06:52.991Z</time></trkpt><trkpt lat="40.04481513799063" lon="18.147616499222572"><ele>152.33333333333334</ele><time>2026-04-21T16:06:53.991Z</time></trkpt><trkpt lat="40.04485947349259" lon="18.147362349329793"><ele>151.66666666666669</ele><time>2026-04-21T16:06:54.991Z</time></trkpt><trkpt lat="40.04490431065589" lon="18.14710141128502"><ele>151.0</ele><time>2026-04-21T16:06:55.991Z</time></trkpt><trkpt lat="40.04495421681548" lon="18.146837533033985"><ele>157.0</ele><time>2026-04-21T16:06:56.991Z</time></trkpt><trkpt lat="40.045950039686005" lon="18.147497527745504"><ele>155.33333333333334</ele><time>2026-04-21T16:06:57.991Z</time></trkpt><trkpt lat="40.046097516212065" lon="18.14734503725857"><ele>153.66666666666666</ele><time>2026-04-21T16:06:58.991Z</time></trkpt><trkpt lat="40.04624198756704" lon="18.14719037504122"><ele>152.0</ele><time>2026-04-21T16:06:59.991Z</time></trkpt><trkpt lat="40.04638257288173" lon="18.14703590107703"><ele>152.0</ele><time>2026-04-21T16:07:00.991Z</time></trkpt><trkpt lat="40.04652221527336" lon="18.14688468088242"><ele>152.0</ele><time>2026-04-21T16:07:01.991Z</time></trkpt><trkpt lat="40.04666393724307" lon="18.146728319026632"><ele>152.0</ele><time>2026-04-21T16:07:02.991Z</time></trkpt><trkpt lat="40.046804299457584" lon="18.146571993985575"><ele>150.66666666666666</ele><time>2026-04-21T16:07:03.991Z</time></trkpt><trkpt lat="40.04694333775584" lon="18.146422100095986"><ele>149.33333333333334</ele><time>2026-04-21T16:07:04.991Z</time></trkpt><trkpt lat="40.04707796763597" lon="18.14628120774905"><ele>148.0</ele><time>2026-04-21T16:07:05.991Z</time></trkpt><trkpt lat="40.04720482609059" lon="18.146141652512874"><ele>148.0</ele><time>2026-04-21T16:07:06.991Z</time></trkpt><trkpt lat="40.0473308551015" lon="18.146007125549538"><ele>148.0</ele><time>2026-04-21T16:07:07.991Z</time></trkpt><trkpt lat="40.04745309537605" lon="18.145874847154296"><ele>148.0</ele><time>2026-04-21T16:07:08.991Z</time></trkpt><trkpt lat="40.047572960484864" lon="18.1457443194789"><ele>148.25</ele><time>2026-04-21T16:07:09.991Z</time></trkpt><trkpt lat="40.047693404091774" lon="18.145623875682343"><ele>148.5</ele><time>2026-04-21T16:07:10.991Z</time></trkpt><trkpt lat="40.047803706742926" lon="18.145496962118067"><ele>148.75</ele><time>2026-04-21T16:07:11.991Z</time></trkpt><trkpt lat="40.04791853467988" lon="18.145379369645752"><ele>149.0</ele><time>2026-04-21T16:07:12.991Z</time></trkpt><trkpt lat="40.04802661245557" lon="18.145261990134614"><ele>149.0</ele><time>2026-04-21T16:07:13.991Z</time></trkpt><trkpt lat="40.04812831607157" lon="18.145143559666842"><ele>149.0</ele><time>2026-04-21T16:07:14.991Z</time></trkpt><trkpt lat="40.04822605892311" lon="18.14502160861748"><ele>149.0</ele><time>2026-04-21T16:07:15.991Z</time></trkpt><trkpt lat="40.04832626483074" lon="18.144901971999495"><ele>149.0</ele><time>2026-04-21T16:07:16.991Z</time></trkpt><trkpt lat="40.04843662321166" lon="18.144778879273645"><ele>148.66666666666666</ele><time>2026-04-21T16:07:17.991Z</time></trkpt><trkpt lat="40.04856046638424" lon="18.144656859777953"><ele>148.33333333333334</ele><time>2026-04-21T16:07:18.991Z</time></trkpt><trkpt lat="40.048694137479494" lon="18.144526173638262"><ele>148.0</ele><time>2026-04-21T16:07:19.991Z</time></trkpt><trkpt lat="40.04884905067139" lon="18.14437835012217"><ele>148.0</ele><time>2026-04-21T16:07:20.991Z</time></trkpt><trkpt lat="40.04899901891448" lon="18.144218237089902"><ele>148.0</ele><time>2026-04-21T16:07:21.991Z</time></trkpt><trkpt lat="40.049145787496705" lon="18.14403929767308"><ele>148.0</ele><time>2026-04-21T16:07:22.991Z</time></trkpt><trkpt lat="40.04929570551045" lon="18.143879005076247"><ele>147.66666666666669</ele><time>2026-04-21T16:07:23.991Z</time></trkpt><trkpt lat="40.049437791098676" lon="18.143736344671716"><ele>147.33333333333334</ele><time>2026-04-21T16:07:24.991Z</time></trkpt><trkpt lat="40.04956631610292" lon="18.143597508996308"><ele>147.0</ele><time>2026-04-21T16:07:25.991Z</time></trkpt><trkpt lat="40.04969560784275" lon="18.143457848569096"><ele>147.0</ele><time>2026-04-21T16:07:26.991Z</time></trkpt><trkpt lat="40.04982056824038" lon="18.143319714170254"><ele>147.0</ele><time>2026-04-21T16:07:27.991Z</time></trkpt><trkpt lat="40.049941270530184" lon="18.143180824499943"><ele>147.0</ele><time>2026-04-21T16:07:28.991Z</time></trkpt><trkpt lat="40.050067963205684" lon="18.143042590790937"><ele>147.66666666666666</ele><time>2026-04-21T16:07:29.991Z</time></trkpt><trkpt lat="40.05019206771304" lon="18.14290763188148"><ele>148.33333333333331</ele><time>2026-04-21T16:07:30.991Z</time></trkpt><trkpt lat="40.050312732641366" lon="18.142780985022895"><ele>149.0</ele><time>2026-04-21T16:07:31.991Z</time></trkpt><trkpt lat="40.05042777635905" lon="18.142657127309434"><ele>149.0</ele><time>2026-04-21T16:07:32.991Z</time></trkpt><trkpt lat="40.050534486713424" lon="18.142536573836008"><ele>149.0</ele><time>2026-04-21T16:07:33.991Z</time></trkpt><trkpt lat="40.050643539626655" lon="18.14241979012587"><ele>149.0</ele><time>2026-04-21T16:07:34.991Z</time></trkpt><trkpt lat="40.05075089955624" lon="18.142304414659574"><ele>149.0</ele><time>2026-04-21T16:07:35.991Z</time></trkpt><trkpt lat="40.05085901389108" lon="18.14218207041238"><ele>148.75</ele><time>2026-04-21T16:07:36.991Z</time></trkpt><trkpt lat="40.05097371846314" lon="18.14206078260449"><ele>148.5</ele><time>2026-04-21T16:07:37.991Z</time></trkpt><trkpt lat="40.05108583583956" lon="18.141937465787258"><ele>148.25</ele><time>2026-04-21T16:07:38.991Z</time></trkpt><trkpt lat="40.05119540181754" lon="18.14181099808458"><ele>148.0</ele><time>2026-04-21T16:07:39.991Z</time></trkpt><trkpt lat="40.05130376685737" lon="18.141681105463636"><ele>148.0</ele><time>2026-04-21T16:07:40.991Z</time></trkpt><trkpt lat="40.051416499229575" lon="18.141555782048435"><ele>148.0</ele><time>2026-04-21T16:07:41.991Z</time></trkpt><trkpt lat="40.051529130276485" lon="18.14143634231392"><ele>148.0</ele><time>2026-04-21T16:07:42.991Z</time></trkpt><trkpt lat="40.0516399374284" lon="18.141321442246337"><ele>148.0</ele><time>2026-04-21T16:07:43.991Z</time></trkpt><trkpt lat="40.05174353860795" lon="18.14120132695618"><ele>147.25</ele><time>2026-04-21T16:07:44.991Z</time></trkpt><trkpt lat="40.05185602754035" lon="18.141086334784756"><ele>146.5</ele><time>2026-04-21T16:07:45.991Z</time></trkpt><trkpt lat="40.05196208597229" lon="18.140971277994787"><ele>145.75</ele><time>2026-04-21T16:07:46.991Z</time></trkpt><trkpt lat="40.05207252641883" lon="18.140845341533414"><ele>145.0</ele><time>2026-04-21T16:07:47.991Z</time></trkpt><trkpt lat="40.05218370789102" lon="18.140723801571582"><ele>145.0</ele><time>2026-04-21T16:07:48.991Z</time></trkpt><trkpt lat="40.05230089074951" lon="18.140596694759342"><ele>145.0</ele><time>2026-04-21T16:07:49.991Z</time></trkpt><trkpt lat="40.05242250716999" lon="18.140470869155532"><ele>145.0</ele><time>2026-04-21T16:07:50.991Z</time></trkpt><trkpt lat="40.052544684935675" lon="18.140338179161162"><ele>145.0</ele><time>2026-04-21T16:07:51.991Z</time></trkpt><trkpt lat="40.0526712397319" lon="18.140204297292264"><ele>145.0</ele><time>2026-04-21T16:07:52.991Z</time></trkpt><trkpt lat="40.05281110700842" lon="18.14007364737902"><ele>145.0</ele><time>2026-04-21T16:07:53.991Z</time></trkpt><trkpt lat="40.05296256897561" lon="18.139947535533135"><ele>145.0</ele><time>2026-04-21T16:07:54.991Z</time></trkpt><trkpt lat="40.05312710605992" lon="18.139830749564663"><ele>145.0</ele><time>2026-04-21T16:07:55.991Z</time></trkpt><trkpt lat="40.05330160385332" lon="18.13972382093192"><ele>145.0</ele><time>2026-04-21T16:07:56.991Z</time></trkpt><trkpt lat="40.053477119473975" lon="18.139616798753956"><ele>145.0</ele><time>2026-04-21T16:07:57.991Z</time></trkpt><trkpt lat="40.05366181339311" lon="18.139515201049836"><ele>145.0</ele><time>2026-04-21T16:07:58.991Z</time></trkpt><trkpt lat="40.053838550997504" lon="18.139425162068058"><ele>145.0</ele><time>2026-04-21T16:07:59.991Z</time></trkpt><trkpt lat="40.054013004451576" lon="18.13933330724976"><ele>145.66666666666669</ele><time>2026-04-21T16:08:00.991Z</time></trkpt><trkpt lat="40.05420493793565" lon="18.139255569154347"><ele>146.33333333333334</ele><time>2026-04-21T16:08:01.991Z</time></trkpt><trkpt lat="40.05440304492441" lon="18.13917444001512"><ele>147.0</ele><time>2026-04-21T16:08:02.991Z</time></trkpt><trkpt lat="40.05460136403232" lon="18.139089560421866"><ele>146.66666666666666</ele><time>2026-04-21T16:08:03.991Z</time></trkpt><trkpt lat="40.054795639120876" lon="18.139004305582958"><ele>146.33333333333331</ele><time>2026-04-21T16:08:04.991Z</time></trkpt><trkpt lat="40.054988479159945" lon="18.13892427324702"><ele>146.0</ele><time>2026-04-21T16:08:05.991Z</time></trkpt><trkpt lat="40.05517591800045" lon="18.138836681391272"><ele>146.0</ele><time>2026-04-21T16:08:06.991Z</time></trkpt><trkpt lat="40.0553630543139" lon="18.13874426344014"><ele>146.0</ele><time>2026-04-21T16:08:07.991Z</time></trkpt><trkpt lat="40.05556392021011" lon="18.138663870058934"><ele>146.0</ele><time>2026-04-21T16:08:08.991Z</time></trkpt><trkpt lat="40.05575729754831" lon="18.138578525615227"><ele>147.33333333333331</ele><time>2026-04-21T16:08:09.991Z</time></trkpt><trkpt lat="40.05592534972223" lon="18.138501085266874"><ele>148.66666666666666</ele><time>2026-04-21T16:08:10.991Z</time></trkpt><trkpt lat="40.05607424382093" lon="18.138428043180653"><ele>150.0</ele><time>2026-04-21T16:08:11.991Z</time></trkpt><trkpt lat="40.05622046614642" lon="18.138359412742414"><ele>150.0</ele><time>2026-04-21T16:08:12.991Z</time></trkpt><trkpt lat="40.05637102217026" lon="18.13827716019938"><ele>150.0</ele><time>2026-04-21T16:08:13.991Z</time></trkpt><trkpt lat="40.05648053079666" lon="18.13814517427691"><ele>150.0</ele><time>2026-04-21T16:08:14.991Z</time></trkpt><trkpt lat="40.056584602590625" lon="18.137985810311402"><ele>150.0</ele><time>2026-04-21T16:08:15.991Z</time></trkpt><trkpt lat="40.056677009755205" lon="18.137833558305154"><ele>150.0</ele><time>2026-04-21T16:08:16.991Z</time></trkpt><trkpt lat="40.05675521551385" lon="18.137686803656507"><ele>150.0</ele><time>2026-04-21T16:08:17.991Z</time></trkpt><trkpt lat="40.05684472748994" lon="18.13751973227617"><ele>150.0</ele><time>2026-04-21T16:08:18.991Z</time></trkpt><trkpt lat="40.056895318648984" lon="18.137338762938004"><ele>147.33333333333334</ele><time>2026-04-21T16:08:19.991Z</time></trkpt><trkpt lat="40.056849743640804" lon="18.137076796665415"><ele>144.66666666666669</ele><time>2026-04-21T16:08:20.991Z</time></trkpt><trkpt lat="40.05680969151748" lon="18.13683805970279"><ele>142.0</ele><time>2026-04-21T16:08:21.991Z</time></trkpt><trkpt lat="40.056766776308336" lon="18.136660283073144"><ele>141.25</ele><time>2026-04-21T16:08:22.991Z</time></trkpt><trkpt lat="40.05674747807731" lon="18.136499725378897"><ele>140.5</ele><time>2026-04-21T16:08:23.991Z</time></trkpt><trkpt lat="40.056756517151726" lon="18.136352703530306"><ele>139.75</ele><time>2026-04-21T16:08:24.991Z</time></trkpt><trkpt lat="40.056788746665454" lon="18.136205558625463"><ele>139.0</ele><time>2026-04-21T16:08:25.991Z</time></trkpt><trkpt lat="40.056860577005125" lon="18.136063609758132"><ele>139.0</ele><time>2026-04-21T16:08:26.991Z</time></trkpt><trkpt lat="40.056926901880594" lon="18.13591258001996"><ele>139.0</ele><time>2026-04-21T16:08:27.991Z</time></trkpt><trkpt lat="40.05697688342982" lon="18.135771709536424"><ele>139.0</ele><time>2026-04-21T16:08:28.991Z</time></trkpt><trkpt lat="40.05700648456944" lon="18.135647213564795"><ele>139.0</ele><time>2026-04-21T16:08:29.991Z</time></trkpt><trkpt lat="40.05701582421176" lon="18.13550381461554"><ele>138.5</ele><time>2026-04-21T16:08:30.991Z</time></trkpt><trkpt lat="40.05698214923704" lon="18.135363803291984"><ele>138.0</ele><time>2026-04-21T16:08:31.991Z</time></trkpt><trkpt lat="40.05691032264123" lon="18.135240533270093"><ele>137.5</ele><time>2026-04-21T16:08:32.991Z</time></trkpt><trkpt lat="40.05682576530004" lon="18.135106595320867"><ele>137.0</ele><time>2026-04-21T16:08:33.991Z</time></trkpt><trkpt lat="40.05671398659598" lon="18.134999326781898"><ele>136.25</ele><time>2026-04-21T16:08:34.991Z</time></trkpt><trkpt lat="40.05660088770617" lon="18.134893838794802"><ele>135.5</ele><time>2026-04-21T16:08:35.991Z</time></trkpt><trkpt lat="40.0565084665529" lon="18.13473807717199"><ele>134.75</ele><time>2026-04-21T16:08:36.991Z</time></trkpt><trkpt lat="40.05643865492287" lon="18.13457394750946"><ele>134.0</ele><time>2026-04-21T16:08:37.991Z</time></trkpt><trkpt lat="40.05639991296852" lon="18.13441757259324"><ele>133.8</ele><time>2026-04-21T16:08:38.991Z</time></trkpt><trkpt lat="40.05636464752256" lon="18.13428008024513"><ele>133.60000000000002</ele><time>2026-04-21T16:08:39.991Z</time></trkpt><trkpt lat="40.05634988106513" lon="18.1341436871976"><ele>133.4</ele><time>2026-04-21T16:08:41.991Z</time></trkpt><trkpt lat="40.05634395313082" lon="18.13405991934801"><ele>133.20000000000002</ele><time>2026-04-21T16:08:44.99Z</time></trkpt><trkpt lat="40.05634627860316" lon="18.133937496640257"><ele>133.0</ele><time>2026-04-21T16:08:47.99Z</time></trkpt><trkpt lat="40.056353640690624" lon="18.133834776096048"><ele>132.5</ele><time>2026-04-21T16:08:48.99Z</time></trkpt><trkpt lat="40.05637018860907" lon="18.13369846072784"><ele>132.0</ele><time>2026-04-21T16:08:49.99Z</time></trkpt><trkpt lat="40.05639900302051" lon="18.13354326915569"><ele>131.5</ele><time>2026-04-21T16:08:50.99Z</time></trkpt><trkpt lat="40.05642973722321" lon="18.133360062631535"><ele>131.0</ele><time>2026-04-21T16:08:51.99Z</time></trkpt><trkpt lat="40.05646658403409" lon="18.133146152055726"><ele>130.33333333333331</ele><time>2026-04-21T16:08:52.99Z</time></trkpt><trkpt lat="40.05650874232221" lon="18.132911806752983"><ele>129.66666666666666</ele><time>2026-04-21T16:08:53.99Z</time></trkpt><trkpt lat="40.056559125271406" lon="18.13267032890879"><ele>129.0</ele><time>2026-04-21T16:08:54.99Z</time></trkpt><trkpt lat="40.05661390813277" lon="18.1324162884011"><ele>129.33333333333334</ele><time>2026-04-21T16:08:55.99Z</time></trkpt><trkpt lat="40.05667259167461" lon="18.132154268435713"><ele>129.66666666666669</ele><time>2026-04-21T16:08:56.99Z</time></trkpt><trkpt lat="40.056727815190264" lon="18.131884947814775"><ele>130.0</ele><time>2026-04-21T16:08:57.99Z</time></trkpt><trkpt lat="40.05678029537632" lon="18.13161898391026"><ele>129.0</ele><time>2026-04-21T16:08:58.99Z</time></trkpt><trkpt lat="40.05683289766686" lon="18.131331710309414"><ele>128.0</ele><time>2026-04-21T16:08:59.99Z</time></trkpt><trkpt lat="40.05688504693312" lon="18.131052924191806"><ele>127.0</ele><time>2026-04-21T16:09:00.99Z</time></trkpt><trkpt lat="40.056944920908506" lon="18.13077489320272"><ele>126.66666666666667</ele><time>2026-04-21T16:09:01.99Z</time></trkpt><trkpt lat="40.057004016494126" lon="18.130489950180475"><ele>126.33333333333334</ele><time>2026-04-21T16:09:02.99Z</time></trkpt><trkpt lat="40.05705977698631" lon="18.13020994784106"><ele>126.0</ele><time>2026-04-21T16:09:03.99Z</time></trkpt><trkpt lat="40.05711900471547" lon="18.12993669354187"><ele>125.66666666666666</ele><time>2026-04-21T16:09:04.99Z</time></trkpt><trkpt lat="40.05717572774992" lon="18.12966671359194"><ele>125.33333333333333</ele><time>2026-04-21T16:09:05.99Z</time></trkpt><trkpt lat="40.05723455636303" lon="18.1294036273395"><ele>125.0</ele><time>2026-04-21T16:09:06.99Z</time></trkpt><trkpt lat="40.057278399079586" lon="18.129161789867336"><ele>125.0</ele><time>2026-04-21T16:09:07.99Z</time></trkpt><trkpt lat="40.05732074706608" lon="18.128934492899603"><ele>125.0</ele><time>2026-04-21T16:09:08.99Z</time></trkpt><trkpt lat="40.057362929217916" lon="18.12871011045199"><ele>125.0</ele><time>2026-04-21T16:09:09.99Z</time></trkpt><trkpt lat="40.05740820958701" lon="18.1284950842107"><ele>125.0</ele><time>2026-04-21T16:09:10.99Z</time></trkpt><trkpt lat="40.05745288223471" lon="18.128284821348814"><ele>125.0</ele><time>2026-04-21T16:09:11.99Z</time></trkpt><trkpt lat="40.05749736614767" lon="18.128080637539632"><ele>125.0</ele><time>2026-04-21T16:09:12.99Z</time></trkpt><trkpt lat="40.05753916410606" lon="18.127880041330066"><ele>124.33333333333333</ele><time>2026-04-21T16:09:13.99Z</time></trkpt><trkpt lat="40.05758138686852" lon="18.12767286653511"><ele>123.66666666666666</ele><time>2026-04-21T16:09:14.99Z</time></trkpt><trkpt lat="40.057621631888786" lon="18.127462683528194"><ele>123.0</ele><time>2026-04-21T16:09:15.99Z</time></trkpt><trkpt lat="40.05766596904062" lon="18.127241406740044"><ele>122.0</ele><time>2026-04-21T16:09:16.99Z</time></trkpt><trkpt lat="40.057710827128545" lon="18.12701312927006"><ele>121.0</ele><time>2026-04-21T16:09:17.99Z</time></trkpt><trkpt lat="40.05775670931897" lon="18.12677785022608"><ele>120.0</ele><time>2026-04-21T16:09:18.99Z</time></trkpt><trkpt lat="40.05780488205788" lon="18.126526350697546"><ele>118.66666666666666</ele><time>2026-04-21T16:09:19.99Z</time></trkpt><trkpt lat="40.05785595520622" lon="18.126264962223942"><ele>117.33333333333333</ele><time>2026-04-21T16:09:20.99Z</time></trkpt><trkpt lat="40.057904030116994" lon="18.125999230335573"><ele>116.0</ele><time>2026-04-21T16:09:21.99Z</time></trkpt><trkpt lat="40.05796480789526" lon="18.12573128350469"><ele>114.66666666666666</ele><time>2026-04-21T16:09:22.99Z</time></trkpt><trkpt lat="40.05802155106835" lon="18.12544932910479"><ele>113.33333333333334</ele><time>2026-04-21T16:09:23.99Z</time></trkpt><trkpt lat="40.0580785568318" lon="18.12516611305839"><ele>112.0</ele><time>2026-04-21T16:09:24.99Z</time></trkpt><trkpt lat="40.05813851186847" lon="18.12487273894911"><ele>111.0</ele><time>2026-04-21T16:09:25.99Z</time></trkpt><trkpt lat="40.0581944256517" lon="18.12458445026664"><ele>110.0</ele><time>2026-04-21T16:09:26.99Z</time></trkpt><trkpt lat="40.05825589879953" lon="18.12429009957634"><ele>109.5</ele><time>2026-04-21T16:09:27.99Z</time></trkpt><trkpt lat="40.05832193729347" lon="18.123986145724665"><ele>109.0</ele><time>2026-04-21T16:09:28.99Z</time></trkpt><trkpt lat="40.058381308902796" lon="18.1236886522814"><ele>109.0</ele><time>2026-04-21T16:09:29.99Z</time></trkpt><trkpt lat="40.05844515365085" lon="18.123391530111913"><ele>109.0</ele><time>2026-04-21T16:09:30.99Z</time></trkpt><trkpt lat="40.05850053518302" lon="18.123112465471003"><ele>108.0</ele><time>2026-04-21T16:09:31.99Z</time></trkpt><trkpt lat="40.0585406736412" lon="18.122837214445227"><ele>107.0</ele><time>2026-04-21T16:09:32.99Z</time></trkpt><trkpt lat="40.05858100125968" lon="18.122573131405858"><ele>106.0</ele><time>2026-04-21T16:09:33.99Z</time></trkpt><trkpt lat="40.0585984477617" lon="18.12230854730313"><ele>103.33333333333334</ele><time>2026-04-21T16:09:34.99Z</time></trkpt><trkpt lat="40.058617314741326" lon="18.122028265995368"><ele>100.66666666666666</ele><time>2026-04-21T16:09:35.99Z</time></trkpt><trkpt lat="40.05863312473103" lon="18.121740242056628"><ele>98.0</ele><time>2026-04-21T16:09:36.99Z</time></trkpt><trkpt lat="40.058611298576736" lon="18.121444429547317"><ele>96.0</ele><time>2026-04-21T16:09:37.99Z</time></trkpt><trkpt lat="40.05867920759869" lon="18.121183074608034"><ele>94.0</ele><time>2026-04-21T16:09:38.99Z</time></trkpt><trkpt lat="40.0586571663172" lon="18.120889860924454"><ele>92.0</ele><time>2026-04-21T16:09:39.99Z</time></trkpt><trkpt lat="40.05861831306686" lon="18.12059508346619"><ele>89.0</ele><time>2026-04-21T16:09:40.99Z</time></trkpt><trkpt lat="40.05857092546402" lon="18.120300159885662"><ele>86.0</ele><time>2026-04-21T16:09:41.99Z</time></trkpt><trkpt lat="40.05851501973247" lon="18.120004722210563"><ele>83.66666666666667</ele><time>2026-04-21T16:09:42.99Z</time></trkpt><trkpt lat="40.05844863788118" lon="18.11971841893224"><ele>81.33333333333333</ele><time>2026-04-21T16:09:43.99Z</time></trkpt><trkpt lat="40.058383260230855" lon="18.119449139041333"><ele>79.0</ele><time>2026-04-21T16:09:44.993Z</time></trkpt><trkpt lat="40.05830521209938" lon="18.11919858967955"><ele>76.66666666666666</ele><time>2026-04-21T16:09:45.993Z</time></trkpt><trkpt lat="40.0582272369383" lon="18.11896153529296"><ele>74.33333333333333</ele><time>2026-04-21T16:09:46.993Z</time></trkpt><trkpt lat="40.058149728353996" lon="18.118728769694552"><ele>72.0</ele><time>2026-04-21T16:09:47.993Z</time></trkpt><trkpt lat="40.058061010561296" lon="18.118514658764727"><ele>72.0</ele><time>2026-04-21T16:09:48.993Z</time></trkpt><trkpt lat="40.057971613827995" lon="18.118310543099284"><ele>72.0</ele><time>2026-04-21T16:09:49.993Z</time></trkpt><trkpt lat="40.05787981884626" lon="18.118115889443754"><ele>72.0</ele><time>2026-04-21T16:09:50.993Z</time></trkpt><trkpt lat="40.057779215883166" lon="18.11792653089019"><ele>71.66666666666667</ele><time>2026-04-21T16:09:51.993Z</time></trkpt><trkpt lat="40.05766787586396" lon="18.117737106148954"><ele>71.33333333333334</ele><time>2026-04-21T16:09:52.993Z</time></trkpt><trkpt lat="40.05754690179326" lon="18.117550729670725"><ele>71.0</ele><time>2026-04-21T16:09:53.993Z</time></trkpt><trkpt lat="40.057425187008995" lon="18.11737261460136"><ele>69.33333333333334</ele><time>2026-04-21T16:09:54.993Z</time></trkpt><trkpt lat="40.05730041275032" lon="18.117211200460655"><ele>67.66666666666667</ele><time>2026-04-21T16:09:55.993Z</time></trkpt><trkpt lat="40.05717632105073" lon="18.117064350012626"><ele>66.0</ele><time>2026-04-21T16:09:56.993Z</time></trkpt><trkpt lat="40.057059622905506" lon="18.11693230344343"><ele>66.0</ele><time>2026-04-21T16:09:57.993Z</time></trkpt><trkpt lat="40.05695396282021" lon="18.116828690118613"><ele>66.0</ele><time>2026-04-21T16:09:58.993Z</time></trkpt><trkpt lat="40.05686170425888" lon="18.116725394273807"><ele>66.0</ele><time>2026-04-21T16:09:59.993Z</time></trkpt><trkpt lat="40.05677933268536" lon="18.116668702387376"><ele>66.0</ele><time>2026-04-21T16:10:00.993Z</time></trkpt><trkpt lat="40.05670614635202" lon="18.11658613398531"><ele>66.0</ele><time>2026-04-21T16:10:01.993Z</time></trkpt><trkpt lat="40.0566408265292" lon="18.116515662392747"><ele>65.83333333333333</ele><time>2026-04-21T16:10:02.993Z</time></trkpt><trkpt lat="40.05659501576819" lon="18.116446671506196"><ele>65.66666666666667</ele><time>2026-04-21T16:10:03.993Z</time></trkpt><trkpt lat="40.05657138019985" lon="18.116301260852296"><ele>65.5</ele><time>2026-04-21T16:10:05.993Z</time></trkpt><trkpt lat="40.056629772309456" lon="18.11617648310207"><ele>65.33333333333334</ele><time>2026-04-21T16:10:07.993Z</time></trkpt><trkpt lat="40.056683530693306" lon="18.116123236585338"><ele>65.16666666666667</ele><time>2026-04-21T16:10:08.993Z</time></trkpt><trkpt lat="40.05675047314295" lon="18.11607537861003"><ele>65.0</ele><time>2026-04-21T16:10:09.993Z</time></trkpt><trkpt lat="40.05681932666252" lon="18.116045467977724"><ele>65.0</ele><time>2026-04-21T16:10:10.993Z</time></trkpt><trkpt lat="40.056889815698135" lon="18.116043487999047"><ele>65.0</ele><time>2026-04-21T16:10:11.993Z</time></trkpt><trkpt lat="40.05696234267308" lon="18.11605747688801"><ele>65.0</ele><time>2026-04-21T16:10:12.993Z</time></trkpt><trkpt lat="40.05703968176846" lon="18.116080627371474"><ele>65.0</ele><time>2026-04-21T16:10:13.993Z</time></trkpt><trkpt lat="40.05711637717946" lon="18.116135943969553"><ele>65.0</ele><time>2026-04-21T16:10:14.993Z</time></trkpt><trkpt lat="40.05717880447167" lon="18.116187231332816"><ele>65.0</ele><time>2026-04-21T16:10:15.993Z</time></trkpt><trkpt lat="40.057243501144576" lon="18.11623229666209"><ele>65.0</ele><time>2026-04-21T16:10:16.993Z</time></trkpt><trkpt lat="40.05730519149628" lon="18.11633331466496"><ele>65.0</ele><time>2026-04-21T16:10:18.993Z</time></trkpt><trkpt lat="40.05734748252048" lon="18.116415844749117"><ele>65.0</ele><time>2026-04-21T16:10:20.993Z</time></trkpt><trkpt lat="40.05740476475678" lon="18.11648705751296"><ele>65.0</ele><time>2026-04-21T16:10:35.992Z</time></trkpt><trkpt lat="40.05750618902939" lon="18.116498862459984"><ele>65.0</ele><time>2026-04-21T16:10:38.992Z</time></trkpt><trkpt lat="40.05758085834719" lon="18.11645614390372"><ele>65.0</ele><time>2026-04-21T16:10:39.992Z</time></trkpt><trkpt lat="40.05766658717809" lon="18.116392133823858"><ele>65.2</ele><time>2026-04-21T16:10:40.993Z</time></trkpt><trkpt lat="40.05775871138108" lon="18.11633870633462"><ele>65.4</ele><time>2026-04-21T16:10:41.992Z</time></trkpt><trkpt lat="40.057854868612694" lon="18.116286589025645"><ele>65.6</ele><time>2026-04-21T16:10:42.992Z</time></trkpt><trkpt lat="40.057953756687006" lon="18.116233209832597"><ele>65.8</ele><time>2026-04-21T16:10:43.992Z</time></trkpt><trkpt lat="40.05804074929354" lon="18.116177708084816"><ele>66.0</ele><time>2026-04-21T16:10:44.992Z</time></trkpt><trkpt lat="40.05812603831136" lon="18.116125231734998"><ele>66.0</ele><time>2026-04-21T16:10:45.992Z</time></trkpt><trkpt lat="40.058211803717505" lon="18.116071064292687"><ele>66.0</ele><time>2026-04-21T16:10:46.992Z</time></trkpt><trkpt lat="40.05830583435896" lon="18.116019452298886"><ele>66.0</ele><time>2026-04-21T16:10:47.992Z</time></trkpt><trkpt lat="40.05840572312857" lon="18.11596024662292"><ele>66.0</ele><time>2026-04-21T16:10:48.992Z</time></trkpt><trkpt lat="40.058511240155724" lon="18.11589529318039"><ele>66.0</ele><time>2026-04-21T16:10:49.992Z</time></trkpt><trkpt lat="40.05861612106524" lon="18.115831040530473"><ele>66.0</ele><time>2026-04-21T16:10:50.992Z</time></trkpt><trkpt lat="40.05871068224174" lon="18.11575949160354"><ele>66.0</ele><time>2026-04-21T16:10:51.992Z</time></trkpt><trkpt lat="40.05880743345039" lon="18.11567525034134"><ele>66.0</ele><time>2026-04-21T16:10:52.992Z</time></trkpt><trkpt lat="40.05890247687128" lon="18.115559037545598"><ele>66.0</ele><time>2026-04-21T16:10:53.992Z</time></trkpt><trkpt lat="40.05899055692593" lon="18.11541934605799"><ele>66.0</ele><time>2026-04-21T16:10:54.992Z</time></trkpt><trkpt lat="40.05908727458064" lon="18.115219637099006"><ele>66.0</ele><time>2026-04-21T16:10:55.992Z</time></trkpt><trkpt lat="40.05919595520227" lon="18.115009485022107"><ele>66.0</ele><time>2026-04-21T16:10:56.992Z</time></trkpt><trkpt lat="40.05932527550428" lon="18.114793031665926"><ele>67.5</ele><time>2026-04-21T16:10:57.992Z</time></trkpt><trkpt lat="40.05946233962728" lon="18.11456199852572"><ele>69.0</ele><time>2026-04-21T16:10:58.992Z</time></trkpt><trkpt lat="40.05960376695069" lon="18.114321278540487"><ele>69.0</ele><time>2026-04-21T16:10:59.992Z</time></trkpt><trkpt lat="40.059755910983306" lon="18.114073559216674"><ele>69.0</ele><time>2026-04-21T16:11:00.992Z</time></trkpt><trkpt lat="40.059912332171166" lon="18.11382298722297"><ele>68.5</ele><time>2026-04-21T16:11:01.992Z</time></trkpt><trkpt lat="40.0600722944558" lon="18.11357086113237"><ele>68.0</ele><time>2026-04-21T16:11:02.992Z</time></trkpt><trkpt lat="40.06023109004309" lon="18.113317974935313"><ele>66.5</ele><time>2026-04-21T16:11:03.992Z</time></trkpt><trkpt lat="40.06037805266527" lon="18.11306337585228"><ele>65.0</ele><time>2026-04-21T16:11:04.992Z</time></trkpt><trkpt lat="40.06051028031954" lon="18.112798969913083"><ele>65.0</ele><time>2026-04-21T16:11:05.992Z</time></trkpt><trkpt lat="40.06063287938273" lon="18.11252080368856"><ele>65.0</ele><time>2026-04-21T16:11:06.992Z</time></trkpt><trkpt lat="40.06074909760061" lon="18.112242973169323"><ele>67.0</ele><time>2026-04-21T16:11:07.992Z</time></trkpt><trkpt lat="40.06087125354957" lon="18.11197785128835"><ele>69.0</ele><time>2026-04-21T16:11:08.992Z</time></trkpt><trkpt lat="40.06099386729953" lon="18.111722181526225"><ele>67.0</ele><time>2026-04-21T16:11:09.992Z</time></trkpt><trkpt lat="40.06111610806139" lon="18.111488275153985"><ele>65.0</ele><time>2026-04-21T16:11:10.992Z</time></trkpt><trkpt lat="40.06125140204663" lon="18.111272626813893"><ele>63.0</ele><time>2026-04-21T16:11:11.992Z</time></trkpt><trkpt lat="40.061405773870455" lon="18.111069742506174"><ele>63.0</ele><time>2026-04-21T16:11:12.992Z</time></trkpt><trkpt lat="40.06157075396272" lon="18.11088325742952"><ele>63.0</ele><time>2026-04-21T16:11:13.992Z</time></trkpt><trkpt lat="40.06174395477441" lon="18.11070860171882"><ele>63.0</ele><time>2026-04-21T16:11:14.992Z</time></trkpt><trkpt lat="40.06191741941603" lon="18.110554335504244"><ele>63.66666666666667</ele><time>2026-04-21T16:11:15.992Z</time></trkpt><trkpt lat="40.06208814668382" lon="18.11041731650182"><ele>64.33333333333334</ele><time>2026-04-21T16:11:16.992Z</time></trkpt><trkpt lat="40.06225867064093" lon="18.11030418328614"><ele>65.0</ele><time>2026-04-21T16:11:17.992Z</time></trkpt><trkpt lat="40.06243655120534" lon="18.11019246908475"><ele>65.33333333333334</ele><time>2026-04-21T16:11:18.992Z</time></trkpt><trkpt lat="40.06261736600648" lon="18.11009854076339"><ele>65.66666666666667</ele><time>2026-04-21T16:11:19.992Z</time></trkpt><trkpt lat="40.062803351307416" lon="18.1100192129459"><ele>66.0</ele><time>2026-04-21T16:11:20.992Z</time></trkpt><trkpt lat="40.06298170887871" lon="18.109951701157524"><ele>66.0</ele><time>2026-04-21T16:11:21.992Z</time></trkpt><trkpt lat="40.063156117886145" lon="18.109884178286393"><ele>66.0</ele><time>2026-04-21T16:11:22.992Z</time></trkpt><trkpt lat="40.06333086865768" lon="18.109801600132855"><ele>66.0</ele><time>2026-04-21T16:11:23.992Z</time></trkpt><trkpt lat="40.06350635143886" lon="18.109716856815513"><ele>66.33333333333333</ele><time>2026-04-21T16:11:24.992Z</time></trkpt><trkpt lat="40.06367145910399" lon="18.109649865019048"><ele>66.66666666666666</ele><time>2026-04-21T16:11:25.992Z</time></trkpt><trkpt lat="40.063832013073686" lon="18.109597542754294"><ele>67.0</ele><time>2026-04-21T16:11:26.992Z</time></trkpt><trkpt lat="40.063992829592735" lon="18.109531181310718"><ele>67.0</ele><time>2026-04-21T16:11:27.992Z</time></trkpt><trkpt lat="40.0641347081882" lon="18.10946595701103"><ele>67.0</ele><time>2026-04-21T16:11:28.992Z</time></trkpt><trkpt lat="40.06426083627744" lon="18.109410357362375"><ele>67.0</ele><time>2026-04-21T16:11:29.992Z</time></trkpt><trkpt lat="40.06438379127535" lon="18.109355950968045"><ele>67.0</ele><time>2026-04-21T16:11:30.992Z</time></trkpt><trkpt lat="40.06450496039811" lon="18.109306997336102"><ele>67.0</ele><time>2026-04-21T16:11:31.992Z</time></trkpt><trkpt lat="40.06462541960479" lon="18.109256053151704"><ele>67.0</ele><time>2026-04-21T16:11:32.992Z</time></trkpt><trkpt lat="40.064741518563004" lon="18.10920556496458"><ele>67.0</ele><time>2026-04-21T16:11:33.991Z</time></trkpt><trkpt lat="40.06485389981111" lon="18.10914613800825"><ele>67.0</ele><time>2026-04-21T16:11:34.991Z</time></trkpt><trkpt lat="40.06497398323936" lon="18.109090809298497"><ele>67.75</ele><time>2026-04-21T16:11:35.991Z</time></trkpt><trkpt lat="40.06510307172277" lon="18.109032346953043"><ele>68.5</ele><time>2026-04-21T16:11:36.991Z</time></trkpt><trkpt lat="40.065240043667494" lon="18.108982437210056"><ele>69.25</ele><time>2026-04-21T16:11:37.991Z</time></trkpt><trkpt lat="40.06536915424489" lon="18.108915200221478"><ele>70.0</ele><time>2026-04-21T16:11:38.991Z</time></trkpt><trkpt lat="40.06548707402713" lon="18.108822036067227"><ele>70.0</ele><time>2026-04-21T16:11:39.991Z</time></trkpt><trkpt lat="40.06559971567609" lon="18.108729956534226"><ele>70.0</ele><time>2026-04-21T16:11:40.991Z</time></trkpt><trkpt lat="40.065714632198656" lon="18.10864334180488"><ele>70.0</ele><time>2026-04-21T16:11:41.991Z</time></trkpt><trkpt lat="40.06582006407385" lon="18.108558942251612"><ele>70.0</ele><time>2026-04-21T16:11:42.991Z</time></trkpt><trkpt lat="40.06592460402741" lon="18.108477648085024"><ele>70.0</ele><time>2026-04-21T16:11:43.991Z</time></trkpt><trkpt lat="40.06602665354504" lon="18.108402561540974"><ele>70.0</ele><time>2026-04-21T16:11:44.991Z</time></trkpt><trkpt lat="40.06612836847862" lon="18.108328431291884"><ele>70.0</ele><time>2026-04-21T16:11:45.991Z</time></trkpt><trkpt lat="40.06622418454999" lon="18.108251796329608"><ele>70.0</ele><time>2026-04-21T16:11:46.991Z</time></trkpt><trkpt lat="40.06631524181949" lon="18.10818500104608"><ele>70.2</ele><time>2026-04-21T16:11:47.991Z</time></trkpt><trkpt lat="40.066400456876146" lon="18.10812173681462"><ele>70.4</ele><time>2026-04-21T16:11:48.991Z</time></trkpt><trkpt lat="40.066483421750924" lon="18.10805935082487"><ele>70.6</ele><time>2026-04-21T16:11:49.991Z</time></trkpt><trkpt lat="40.06655807656274" lon="18.10799039909149"><ele>70.8</ele><time>2026-04-21T16:11:50.991Z</time></trkpt><trkpt lat="40.066626803127164" lon="18.107921971922117"><ele>71.0</ele><time>2026-04-21T16:11:51.991Z</time></trkpt><trkpt lat="40.06668198017763" lon="18.107835738299602"><ele>71.16666666666667</ele><time>2026-04-21T16:11:52.991Z</time></trkpt><trkpt lat="40.06673589819102" lon="18.107746102026525"><ele>71.33333333333334</ele><time>2026-04-21T16:11:53.991Z</time></trkpt><trkpt lat="40.06678146483895" lon="18.10765821285045"><ele>71.5</ele><time>2026-04-21T16:11:54.991Z</time></trkpt><trkpt lat="40.06682670005133" lon="18.10756266946255"><ele>71.66666666666667</ele><time>2026-04-21T16:11:55.991Z</time></trkpt><trkpt lat="40.06687601098385" lon="18.107464714051407"><ele>71.83333333333333</ele><time>2026-04-21T16:11:56.991Z</time></trkpt><trkpt lat="40.06692751098624" lon="18.10736440462629"><ele>72.0</ele><time>2026-04-21T16:11:57.991Z</time></trkpt><trkpt lat="40.06699459088097" lon="18.107273035265152"><ele>72.0</ele><time>2026-04-21T16:11:58.991Z</time></trkpt><trkpt lat="40.067055153866285" lon="18.107174369610167"><ele>72.0</ele><time>2026-04-21T16:11:59.991Z</time></trkpt><trkpt lat="40.06711589629649" lon="18.107070607370847"><ele>72.0</ele><time>2026-04-21T16:12:00.991Z</time></trkpt><trkpt lat="40.067171389262796" lon="18.10696750807945"><ele>72.0</ele><time>2026-04-21T16:12:01.991Z</time></trkpt><trkpt lat="40.06721760406523" lon="18.106868218998518"><ele>72.0</ele><time>2026-04-21T16:12:02.991Z</time></trkpt><trkpt lat="40.06726023211396" lon="18.106765880398235"><ele>72.0</ele><time>2026-04-21T16:12:03.991Z</time></trkpt><trkpt lat="40.06730070290089" lon="18.10668103176039"><ele>72.0</ele><time>2026-04-21T16:12:04.991Z</time></trkpt><trkpt lat="40.06734098293596" lon="18.10660422522645"><ele>72.0</ele><time>2026-04-21T16:12:05.991Z</time></trkpt><trkpt lat="40.06736336031087" lon="18.106524509141316"><ele>72.0</ele><time>2026-04-21T16:12:06.991Z</time></trkpt><trkpt lat="40.06738853091066" lon="18.10642767745073"><ele>72.0</ele><time>2026-04-21T16:12:08.991Z</time></trkpt><trkpt lat="40.067445197947386" lon="18.10634348023394"><ele>72.0</ele><time>2026-04-21T16:12:10.991Z</time></trkpt><trkpt lat="40.06750971578955" lon="18.106221308080244"><ele>72.0</ele><time>2026-04-21T16:12:12.991Z</time></trkpt><trkpt lat="40.06751391545128" lon="18.106138551226984"><ele>72.0</ele><time>2026-04-21T16:12:13.991Z</time></trkpt><trkpt lat="40.06744883889249" lon="18.105992909119585"><ele>72.0</ele><time>2026-04-21T16:12:15.991Z</time></trkpt><trkpt lat="40.06738573983846" lon="18.10590794987042"><ele>72.0</ele><time>2026-04-21T16:12:16.991Z</time></trkpt><trkpt lat="40.06731326565221" lon="18.105785466904173"><ele>72.0</ele><time>2026-04-21T16:12:17.991Z</time></trkpt><trkpt lat="40.06724908737157" lon="18.105650803309203"><ele>72.0</ele><time>2026-04-21T16:12:18.991Z</time></trkpt><trkpt lat="40.06719013496132" lon="18.105468321635716"><ele>72.0</ele><time>2026-04-21T16:12:19.991Z</time></trkpt><trkpt lat="40.06713249361255" lon="18.105251366511595"><ele>72.0</ele><time>2026-04-21T16:12:20.991Z</time></trkpt><trkpt lat="40.06707052225217" lon="18.105027680477562"><ele>71.33333333333333</ele><time>2026-04-21T16:12:21.991Z</time></trkpt><trkpt lat="40.0670049076092" lon="18.104797468234047"><ele>70.66666666666666</ele><time>2026-04-21T16:12:22.991Z</time></trkpt><trkpt lat="40.06693473617272" lon="18.104570532964875"><ele>70.0</ele><time>2026-04-21T16:12:23.991Z</time></trkpt><trkpt lat="40.06685463133614" lon="18.104335777105"><ele>70.0</ele><time>2026-04-21T16:12:24.991Z</time></trkpt><trkpt lat="40.066784094711736" lon="18.10409326205415"><ele>70.0</ele><time>2026-04-21T16:12:25.991Z</time></trkpt><trkpt lat="40.06670563297535" lon="18.103851713245287"><ele>70.0</ele><time>2026-04-21T16:12:26.991Z</time></trkpt><trkpt lat="40.0666252092069" lon="18.10360877808457"><ele>69.33333333333333</ele><time>2026-04-21T16:12:27.991Z</time></trkpt><trkpt lat="40.066547232238456" lon="18.103355736427144"><ele>68.66666666666667</ele><time>2026-04-21T16:12:28.991Z</time></trkpt><trkpt lat="40.06647002571163" lon="18.10310972280463"><ele>68.0</ele><time>2026-04-21T16:12:29.991Z</time></trkpt><trkpt lat="40.066390994444205" lon="18.102863612169397"><ele>68.0</ele><time>2026-04-21T16:12:30.991Z</time></trkpt><trkpt lat="40.06631215532214" lon="18.10261724082461"><ele>68.0</ele><time>2026-04-21T16:12:31.991Z</time></trkpt><trkpt lat="40.06623385107403" lon="18.102367713690434"><ele>68.0</ele><time>2026-04-21T16:12:32.991Z</time></trkpt><trkpt lat="40.06615568202218" lon="18.102116910924625"><ele>67.0</ele><time>2026-04-21T16:12:33.991Z</time></trkpt><trkpt lat="40.06608471686439" lon="18.101865231686357"><ele>66.0</ele><time>2026-04-21T16:12:34.991Z</time></trkpt><trkpt lat="40.06600750754714" lon="18.101616269654823"><ele>65.0</ele><time>2026-04-21T16:12:35.991Z</time></trkpt><trkpt lat="40.06592591756514" lon="18.10136728794509"><ele>63.66666666666667</ele><time>2026-04-21T16:12:36.991Z</time></trkpt><trkpt lat="40.06584052237671" lon="18.101116761546578"><ele>62.33333333333333</ele><time>2026-04-21T16:12:37.991Z</time></trkpt><trkpt lat="40.065754855528766" lon="18.100872496171057"><ele>61.0</ele><time>2026-04-21T16:12:38.99Z</time></trkpt><trkpt lat="40.06567671539082" lon="18.10062937686986"><ele>60.33333333333333</ele><time>2026-04-21T16:12:39.99Z</time></trkpt><trkpt lat="40.06560192435509" lon="18.10039219525073"><ele>59.66666666666667</ele><time>2026-04-21T16:12:40.991Z</time></trkpt><trkpt lat="40.065548226004196" lon="18.100160477041353"><ele>59.0</ele><time>2026-04-21T16:12:41.991Z</time></trkpt><trkpt lat="40.06551689979831" lon="18.099900476801984"><ele>59.0</ele><time>2026-04-21T16:12:42.991Z</time></trkpt><trkpt lat="40.06549079603943" lon="18.09962694526066"><ele>59.0</ele><time>2026-04-21T16:12:43.99Z</time></trkpt><trkpt lat="40.065483372340445" lon="18.09936023220139"><ele>59.0</ele><time>2026-04-21T16:12:44.991Z</time></trkpt><trkpt lat="40.065479805218416" lon="18.099098106710425"><ele>59.0</ele><time>2026-04-21T16:12:45.991Z</time></trkpt><trkpt lat="40.06548978344694" lon="18.09885808688605"><ele>59.0</ele><time>2026-04-21T16:12:46.991Z</time></trkpt><trkpt lat="40.065513153873134" lon="18.09863162824955"><ele>59.0</ele><time>2026-04-21T16:12:47.991Z</time></trkpt><trkpt lat="40.06554818403936" lon="18.09843434285802"><ele>59.2</ele><time>2026-04-21T16:12:48.991Z</time></trkpt><trkpt lat="40.06557306633976" lon="18.09824674560016"><ele>59.400000000000006</ele><time>2026-04-21T16:12:49.99Z</time></trkpt><trkpt lat="40.06557055465316" lon="18.09809692896583"><ele>59.6</ele><time>2026-04-21T16:12:50.99Z</time></trkpt><trkpt lat="40.06557973759089" lon="18.09797633286137"><ele>59.8</ele><time>2026-04-21T16:12:51.99Z</time></trkpt><trkpt lat="40.06552793776395" lon="18.097894553498392"><ele>60.0</ele><time>2026-04-21T16:12:52.99Z</time></trkpt><trkpt lat="40.0652250049106" lon="18.0979087363275"><ele>60.0</ele><time>2026-04-21T16:12:53.99Z</time></trkpt><trkpt lat="40.0652668324907" lon="18.097749032718855"><ele>60.0</ele><time>2026-04-21T16:12:54.99Z</time></trkpt><trkpt lat="40.065310817425946" lon="18.097603257040554"><ele>60.0</ele><time>2026-04-21T16:12:55.99Z</time></trkpt><trkpt lat="40.06537242351577" lon="18.097438823933995"><ele>60.0</ele><time>2026-04-21T16:12:56.99Z</time></trkpt><trkpt lat="40.06544850019937" lon="18.097262349044648"><ele>60.0</ele><time>2026-04-21T16:12:57.99Z</time></trkpt><trkpt lat="40.065543570020985" lon="18.097058567678133"><ele>60.0</ele><time>2026-04-21T16:12:58.99Z</time></trkpt><trkpt lat="40.06565780563674" lon="18.09683465810381"><ele>60.0</ele><time>2026-04-21T16:12:59.99Z</time></trkpt><trkpt lat="40.06579495870923" lon="18.096602308780795"><ele>60.0</ele><time>2026-04-21T16:13:00.99Z</time></trkpt><trkpt lat="40.065934018498204" lon="18.096357644205433"><ele>60.0</ele><time>2026-04-21T16:13:01.99Z</time></trkpt><trkpt lat="40.06606879821504" lon="18.09609932636996"><ele>60.0</ele><time>2026-04-21T16:13:02.99Z</time></trkpt><trkpt lat="40.066202635637836" lon="18.095840616329088"><ele>60.0</ele><time>2026-04-21T16:13:03.99Z</time></trkpt><trkpt lat="40.06633704434489" lon="18.095582573001906"><ele>60.0</ele><time>2026-04-21T16:13:04.99Z</time></trkpt><trkpt lat="40.066468579881324" lon="18.095325502755934"><ele>60.0</ele><time>2026-04-21T16:13:05.99Z</time></trkpt><trkpt lat="40.066598443568765" lon="18.095069396800397"><ele>60.5</ele><time>2026-04-21T16:13:06.99Z</time></trkpt><trkpt lat="40.06672619405379" lon="18.09481028054837"><ele>61.0</ele><time>2026-04-21T16:13:07.99Z</time></trkpt><trkpt lat="40.06685515971599" lon="18.094553101684998"><ele>61.0</ele><time>2026-04-21T16:13:08.99Z</time></trkpt><trkpt lat="40.066981858681146" lon="18.094297985756313"><ele>61.0</ele><time>2026-04-21T16:13:09.99Z</time></trkpt><trkpt lat="40.06710604198903" lon="18.094053336279966"><ele>60.666666666666664</ele><time>2026-04-21T16:13:10.99Z</time></trkpt><trkpt lat="40.06722482246322" lon="18.093828436851894"><ele>60.33333333333333</ele><time>2026-04-21T16:13:11.99Z</time></trkpt><trkpt lat="40.0673451823207" lon="18.093616949964314"><ele>60.0</ele><time>2026-04-21T16:13:12.99Z</time></trkpt><trkpt lat="40.06748413154665" lon="18.093421748398278"><ele>61.0</ele><time>2026-04-21T16:13:13.99Z</time></trkpt><trkpt lat="40.06763557969107" lon="18.093241505979602"><ele>62.0</ele><time>2026-04-21T16:13:14.99Z</time></trkpt><trkpt lat="40.067796200360085" lon="18.09307242930113"><ele>63.0</ele><time>2026-04-21T16:13:15.99Z</time></trkpt><trkpt lat="40.06797173169469" lon="18.092931589534253"><ele>63.0</ele><time>2026-04-21T16:13:16.99Z</time></trkpt><trkpt lat="40.06813281614625" lon="18.092761368777143"><ele>63.0</ele><time>2026-04-21T16:13:17.99Z</time></trkpt><trkpt lat="40.06828829924517" lon="18.092586251742016"><ele>63.0</ele><time>2026-04-21T16:13:18.99Z</time></trkpt><trkpt lat="40.06844112845194" lon="18.092411769056003"><ele>63.66666666666667</ele><time>2026-04-21T16:13:19.99Z</time></trkpt><trkpt lat="40.06859775207888" lon="18.092243976761957"><ele>64.33333333333334</ele><time>2026-04-21T16:13:20.99Z</time></trkpt><trkpt lat="40.06875194369364" lon="18.092072685583926"><ele>65.0</ele><time>2026-04-21T16:13:21.99Z</time></trkpt><trkpt lat="40.06891075494483" lon="18.09190269334508"><ele>65.0</ele><time>2026-04-21T16:13:22.99Z</time></trkpt><trkpt lat="40.06906128531947" lon="18.091734698861472"><ele>65.0</ele><time>2026-04-21T16:13:23.99Z</time></trkpt><trkpt lat="40.06920165659758" lon="18.091578489845073"><ele>65.0</ele><time>2026-04-21T16:13:24.99Z</time></trkpt><trkpt lat="40.069341003905635" lon="18.091429389053587"><ele>65.0</ele><time>2026-04-21T16:13:25.99Z</time></trkpt><trkpt lat="40.06948068754657" lon="18.091279117598237"><ele>65.0</ele><time>2026-04-21T16:13:26.99Z</time></trkpt><trkpt lat="40.069627391100106" lon="18.09113069922191"><ele>65.0</ele><time>2026-04-21T16:13:27.99Z</time></trkpt><trkpt lat="40.06977257965936" lon="18.090975186302455"><ele>65.0</ele><time>2026-04-21T16:13:28.99Z</time></trkpt><trkpt lat="40.06991559504225" lon="18.09081826128379"><ele>65.0</ele><time>2026-04-21T16:13:29.99Z</time></trkpt><trkpt lat="40.07006107415887" lon="18.090656305682547"><ele>65.0</ele><time>2026-04-21T16:13:30.99Z</time></trkpt><trkpt lat="40.07020813315995" lon="18.090498222786128"><ele>65.33333333333334</ele><time>2026-04-21T16:13:31.99Z</time></trkpt><trkpt lat="40.070353409180555" lon="18.090339809279634"><ele>65.66666666666667</ele><time>2026-04-21T16:13:32.99Z</time></trkpt><trkpt lat="40.07050068238389" lon="18.090179927207032"><ele>66.0</ele><time>2026-04-21T16:13:33.99Z</time></trkpt><trkpt lat="40.070651880494005" lon="18.090018305751286"><ele>66.0</ele><time>2026-04-21T16:13:34.99Z</time></trkpt><trkpt lat="40.07079869705923" lon="18.089854891314253"><ele>66.0</ele><time>2026-04-21T16:13:35.99Z</time></trkpt><trkpt lat="40.07094936518803" lon="18.089697727885575"><ele>66.0</ele><time>2026-04-21T16:13:36.99Z</time></trkpt><trkpt lat="40.071087307287065" lon="18.089544831551123"><ele>66.0</ele><time>2026-04-21T16:13:37.99Z</time></trkpt><trkpt lat="40.07121705669169" lon="18.089420405274847"><ele>66.0</ele><time>2026-04-21T16:13:38.99Z</time></trkpt><trkpt lat="40.07132932733527" lon="18.089309201935222"><ele>66.0</ele><time>2026-04-21T16:13:39.99Z</time></trkpt><trkpt lat="40.071420466431576" lon="18.08921990871845"><ele>66.0</ele><time>2026-04-21T16:13:40.99Z</time></trkpt><trkpt lat="40.071503487444765" lon="18.089153355028106"><ele>66.0</ele><time>2026-04-21T16:13:41.99Z</time></trkpt><trkpt lat="40.071583074810135" lon="18.08911719021347"><ele>66.0</ele><time>2026-04-21T16:13:42.99Z</time></trkpt><trkpt lat="40.07165470455423" lon="18.08909153026163"><ele>66.0</ele><time>2026-04-21T16:13:43.99Z</time></trkpt><trkpt lat="40.07172203315663" lon="18.08905867047659"><ele>66.0</ele><time>2026-04-21T16:13:44.99Z</time></trkpt><trkpt lat="40.071774348394506" lon="18.08900510790922"><ele>66.0</ele><time>2026-04-21T16:13:45.99Z</time></trkpt><trkpt lat="40.07181761742013" lon="18.088931656692832"><ele>66.0</ele><time>2026-04-21T16:13:46.99Z</time></trkpt><trkpt lat="40.071853024104435" lon="18.08882434857672"><ele>66.25</ele><time>2026-04-21T16:13:47.99Z</time></trkpt><trkpt lat="40.07189671063848" lon="18.08869385300289"><ele>66.5</ele><time>2026-04-21T16:13:48.99Z</time></trkpt><trkpt lat="40.071982581284374" lon="18.08855918246552"><ele>66.75</ele><time>2026-04-21T16:13:49.99Z</time></trkpt><trkpt lat="40.07210132027448" lon="18.088412981713105"><ele>67.0</ele><time>2026-04-21T16:13:50.99Z</time></trkpt><trkpt lat="40.072241538436195" lon="18.088271321504536"><ele>67.33333333333333</ele><time>2026-04-21T16:13:51.99Z</time></trkpt><trkpt lat="40.07239359936045" lon="18.088125504580805"><ele>67.66666666666667</ele><time>2026-04-21T16:13:52.99Z</time></trkpt><trkpt lat="40.07254764419699" lon="18.087988060187374"><ele>68.0</ele><time>2026-04-21T16:13:53.99Z</time></trkpt><trkpt lat="40.07270837494843" lon="18.087882211185683"><ele>68.33333333333334</ele><time>2026-04-21T16:13:54.99Z</time></trkpt><trkpt lat="40.07287784375584" lon="18.08779954585765"><ele>68.66666666666667</ele><time>2026-04-21T16:13:55.99Z</time></trkpt><trkpt lat="40.0730518236364" lon="18.087730341998682"><ele>69.0</ele><time>2026-04-21T16:13:56.99Z</time></trkpt><trkpt lat="40.07322460669441" lon="18.087679271126085"><ele>69.0</ele><time>2026-04-21T16:13:57.99Z</time></trkpt><trkpt lat="40.0734084928706" lon="18.08764226571314"><ele>69.0</ele><time>2026-04-21T16:13:58.99Z</time></trkpt><trkpt lat="40.073601395878846" lon="18.08763117766746"><ele>69.0</ele><time>2026-04-21T16:13:59.99Z</time></trkpt><trkpt lat="40.07379906596872" lon="18.08764523287612"><ele>69.0</ele><time>2026-04-21T16:14:00.99Z</time></trkpt><trkpt lat="40.07400065590757" lon="18.087656026413022"><ele>69.0</ele><time>2026-04-21T16:14:01.99Z</time></trkpt><trkpt lat="40.07418387854064" lon="18.08766475680116"><ele>69.0</ele><time>2026-04-21T16:14:02.99Z</time></trkpt><trkpt lat="40.07434872347665" lon="18.087674493422494"><ele>69.75</ele><time>2026-04-21T16:14:03.99Z</time></trkpt><trkpt lat="40.07449729822833" lon="18.08768563536316"><ele>70.5</ele><time>2026-04-21T16:14:04.99Z</time></trkpt><trkpt lat="40.07462890269031" lon="18.087693065189516"><ele>71.25</ele><time>2026-04-21T16:14:05.99Z</time></trkpt><trkpt lat="40.074750811444034" lon="18.087702118004525"><ele>72.0</ele><time>2026-04-21T16:14:06.99Z</time></trkpt><trkpt lat="40.07485903322652" lon="18.087703272623433"><ele>72.4</ele><time>2026-04-21T16:14:07.99Z</time></trkpt><trkpt lat="40.07496377581221" lon="18.087707196036984"><ele>72.80000000000001</ele><time>2026-04-21T16:14:08.99Z</time></trkpt><trkpt lat="40.07505977263296" lon="18.087711816038727"><ele>73.2</ele><time>2026-04-21T16:14:09.99Z</time></trkpt><trkpt lat="40.07514787214195" lon="18.087718191994174"><ele>73.60000000000001</ele><time>2026-04-21T16:14:10.99Z</time></trkpt><trkpt lat="40.07523914838155" lon="18.087722589808177"><ele>74.0</ele><time>2026-04-21T16:14:11.99Z</time></trkpt><trkpt lat="40.075332465104445" lon="18.08772476032376"><ele>74.0</ele><time>2026-04-21T16:14:12.99Z</time></trkpt><trkpt lat="40.075429976651165" lon="18.087730562863328"><ele>74.0</ele><time>2026-04-21T16:14:13.99Z</time></trkpt><trkpt lat="40.075509276950676" lon="18.087739173179987"><ele>74.0</ele><time>2026-04-21T16:14:14.99Z</time></trkpt><trkpt lat="40.07557510341127" lon="18.087741897018102"><ele>74.0</ele><time>2026-04-21T16:14:15.99Z</time></trkpt><trkpt lat="40.07566847273861" lon="18.08775151777801"><ele>74.0</ele><time>2026-04-21T16:14:17.99Z</time></trkpt><trkpt lat="40.07576002660814" lon="18.087760930993"><ele>74.0</ele><time>2026-04-21T16:14:19.99Z</time></trkpt><trkpt lat="40.07585877143698" lon="18.087806695602218"><ele>74.4</ele><time>2026-04-21T16:14:21.989Z</time></trkpt><trkpt lat="40.075943343363654" lon="18.087908470507152"><ele>74.80000000000001</ele><time>2026-04-21T16:14:23.989Z</time></trkpt><trkpt lat="40.07602114418915" lon="18.08799098854871"><ele>75.19999999999999</ele><time>2026-04-21T16:14:25.989Z</time></trkpt><trkpt lat="40.07612449548746" lon="18.087952709876298"><ele>75.6</ele><time>2026-04-21T16:14:27.989Z</time></trkpt><trkpt lat="40.07618206265098" lon="18.087894142530907"><ele>76.0</ele><time>2026-04-21T16:14:28.989Z</time></trkpt><trkpt lat="40.076237524468404" lon="18.087818251322187"><ele>76.0</ele><time>2026-04-21T16:14:29.989Z</time></trkpt><trkpt lat="40.076286597569485" lon="18.087726276902103"><ele>76.0</ele><time>2026-04-21T16:14:30.989Z</time></trkpt><trkpt lat="40.07634644230709" lon="18.087635878404495"><ele>76.0</ele><time>2026-04-21T16:14:31.989Z</time></trkpt><trkpt lat="40.07643305408722" lon="18.087530437365448"><ele>76.0</ele><time>2026-04-21T16:14:32.989Z</time></trkpt><trkpt lat="40.076499004809726" lon="18.087422865443173"><ele>76.0</ele><time>2026-04-21T16:14:33.989Z</time></trkpt><trkpt lat="40.07657528336445" lon="18.08730132125051"><ele>76.5</ele><time>2026-04-21T16:14:34.989Z</time></trkpt><trkpt lat="40.076657244310375" lon="18.087169031198812"><ele>77.0</ele><time>2026-04-21T16:14:35.989Z</time></trkpt><trkpt lat="40.07674622923782" lon="18.08703556742179"><ele>77.5</ele><time>2026-04-21T16:14:36.989Z</time></trkpt><trkpt lat="40.07684159414299" lon="18.086901426265978"><ele>78.0</ele><time>2026-04-21T16:14:37.989Z</time></trkpt><trkpt lat="40.07693280091119" lon="18.086749404772643"><ele>78.0</ele><time>2026-04-21T16:14:38.989Z</time></trkpt><trkpt lat="40.07702787058858" lon="18.086598936932198"><ele>78.0</ele><time>2026-04-21T16:14:39.989Z</time></trkpt><trkpt lat="40.077125148957116" lon="18.086450723601235"><ele>78.0</ele><time>2026-04-21T16:14:40.989Z</time></trkpt><trkpt lat="40.077219696413046" lon="18.086308868948795"><ele>78.0</ele><time>2026-04-21T16:14:41.989Z</time></trkpt><trkpt lat="40.0773017134975" lon="18.08617786117921"><ele>77.75</ele><time>2026-04-21T16:14:42.989Z</time></trkpt><trkpt lat="40.077378929995156" lon="18.08605690348518"><ele>77.5</ele><time>2026-04-21T16:14:43.99Z</time></trkpt><trkpt lat="40.07745237251441" lon="18.085947183141098"><ele>77.25</ele><time>2026-04-21T16:14:44.99Z</time></trkpt><trkpt lat="40.07752650120499" lon="18.085835406940557"><ele>77.0</ele><time>2026-04-21T16:14:45.99Z</time></trkpt><trkpt lat="40.0776065498184" lon="18.085712355602347"><ele>76.33333333333334</ele><time>2026-04-21T16:14:46.99Z</time></trkpt><trkpt lat="40.07770721246476" lon="18.085559671526358"><ele>75.66666666666667</ele><time>2026-04-21T16:14:47.989Z</time></trkpt><trkpt lat="40.07781673671718" lon="18.085388702724064"><ele>75.0</ele><time>2026-04-21T16:14:48.989Z</time></trkpt><trkpt lat="40.07793533546317" lon="18.085183076304293"><ele>75.0</ele><time>2026-04-21T16:14:49.989Z</time></trkpt><trkpt lat="40.07807140916966" lon="18.084954412282034"><ele>75.0</ele><time>2026-04-21T16:14:50.989Z</time></trkpt><trkpt lat="40.07823380582906" lon="18.084694361403038"><ele>75.0</ele><time>2026-04-21T16:14:51.989Z</time></trkpt><trkpt lat="40.078423178685256" lon="18.08442499213006"><ele>75.0</ele><time>2026-04-21T16:14:52.989Z</time></trkpt><trkpt lat="40.07861062464975" lon="18.08415747068322"><ele>74.0</ele><time>2026-04-21T16:14:53.989Z</time></trkpt><trkpt lat="40.078781210684745" lon="18.083918594137256"><ele>73.0</ele><time>2026-04-21T16:14:54.989Z</time></trkpt><trkpt lat="40.078946887812975" lon="18.08371868124808"><ele>73.5</ele><time>2026-04-21T16:14:55.989Z</time></trkpt><trkpt lat="40.079129697574004" lon="18.083530013737114"><ele>74.0</ele><time>2026-04-21T16:14:56.989Z</time></trkpt><trkpt lat="40.07931910757561" lon="18.083387267088693"><ele>74.0</ele><time>2026-04-21T16:14:57.989Z</time></trkpt><trkpt lat="40.07950320595347" lon="18.08326490815332"><ele>74.0</ele><time>2026-04-21T16:14:58.989Z</time></trkpt><trkpt lat="40.07969363922382" lon="18.083164051777683"><ele>74.0</ele><time>2026-04-21T16:14:59.989Z</time></trkpt><trkpt lat="40.079879914076244" lon="18.08305441548145"><ele>73.66666666666667</ele><time>2026-04-21T16:15:00.989Z</time></trkpt><trkpt lat="40.08005513292693" lon="18.0829442139619"><ele>73.33333333333333</ele><time>2026-04-21T16:15:01.989Z</time></trkpt><trkpt lat="40.08021580645816" lon="18.082835231592572"><ele>73.0</ele><time>2026-04-21T16:15:02.989Z</time></trkpt><trkpt lat="40.080364453461705" lon="18.082750837988833"><ele>73.0</ele><time>2026-04-21T16:15:03.989Z</time></trkpt><trkpt lat="40.080498175312705" lon="18.082667356138913"><ele>73.0</ele><time>2026-04-21T16:15:04.989Z</time></trkpt><trkpt lat="40.08061740843231" lon="18.082595519619275"><ele>73.0</ele><time>2026-04-21T16:15:05.989Z</time></trkpt><trkpt lat="40.080736685172766" lon="18.082518381237968"><ele>73.0</ele><time>2026-04-21T16:15:06.989Z</time></trkpt><trkpt lat="40.08084575606185" lon="18.082455126615503"><ele>73.2</ele><time>2026-04-21T16:15:07.989Z</time></trkpt><trkpt lat="40.08093764838638" lon="18.082404120603854"><ele>73.4</ele><time>2026-04-21T16:15:08.989Z</time></trkpt><trkpt lat="40.081018172358334" lon="18.082357894870032"><ele>73.60000000000001</ele><time>2026-04-21T16:15:09.989Z</time></trkpt><trkpt lat="40.081088380424326" lon="18.08232822235384"><ele>73.8</ele><time>2026-04-21T16:15:10.989Z</time></trkpt><trkpt lat="40.08118832252958" lon="18.082257124713625"><ele>74.0</ele><time>2026-04-21T16:15:12.989Z</time></trkpt><trkpt lat="40.08130363472584" lon="18.082149424732524"><ele>74.0</ele><time>2026-04-21T16:15:14.989Z</time></trkpt><trkpt lat="40.08139241677015" lon="18.08209538984747"><ele>74.0</ele><time>2026-04-21T16:15:15.989Z</time></trkpt><trkpt lat="40.081516984506656" lon="18.082020688288665"><ele>74.0</ele><time>2026-04-21T16:15:16.989Z</time></trkpt><trkpt lat="40.08165472456771" lon="18.081946435588023"><ele>74.0</ele><time>2026-04-21T16:15:17.989Z</time></trkpt><trkpt lat="40.08175253352288" lon="18.081896416111064"><ele>73.83333333333334</ele><time>2026-04-21T16:15:18.989Z</time></trkpt><trkpt lat="40.08181315383786" lon="18.081845140908154"><ele>73.66666666666667</ele><time>2026-04-21T16:15:19.989Z</time></trkpt><trkpt lat="40.08187726457445" lon="18.081791973892017"><ele>73.5</ele><time>2026-04-21T16:15:20.989Z</time></trkpt><trkpt lat="40.081955282941294" lon="18.081739136087165"><ele>73.33333333333333</ele><time>2026-04-21T16:15:21.989Z</time></trkpt><trkpt lat="40.08203436066487" lon="18.081675799325357"><ele>73.16666666666666</ele><time>2026-04-21T16:15:22.989Z</time></trkpt><trkpt lat="40.08212524078316" lon="18.08161233691768"><ele>73.0</ele><time>2026-04-21T16:15:23.989Z</time></trkpt><trkpt lat="40.0822183543937" lon="18.08155417168523"><ele>73.0</ele><time>2026-04-21T16:15:24.989Z</time></trkpt><trkpt lat="40.082312040367846" lon="18.081503962077953"><ele>73.0</ele><time>2026-04-21T16:15:25.989Z</time></trkpt><trkpt lat="40.08239793082996" lon="18.081452601571346"><ele>73.0</ele><time>2026-04-21T16:15:26.989Z</time></trkpt><trkpt lat="40.082475070906774" lon="18.081399822069525"><ele>73.0</ele><time>2026-04-21T16:15:27.989Z</time></trkpt><trkpt lat="40.08254698083217" lon="18.08133653350597"><ele>73.0</ele><time>2026-04-21T16:15:28.989Z</time></trkpt><trkpt lat="40.08263143552188" lon="18.081253558819117"><ele>73.75</ele><time>2026-04-21T16:15:29.989Z</time></trkpt><trkpt lat="40.08272915831564" lon="18.08113652892427"><ele>74.5</ele><time>2026-04-21T16:15:30.989Z</time></trkpt><trkpt lat="40.08283445719296" lon="18.081002914621035"><ele>75.25</ele><time>2026-04-21T16:15:31.989Z</time></trkpt><trkpt lat="40.082907983901826" lon="18.08088037745355"><ele>76.0</ele><time>2026-04-21T16:15:32.989Z</time></trkpt><trkpt lat="40.082970704260774" lon="18.080774555208947"><ele>75.75</ele><time>2026-04-21T16:15:33.989Z</time></trkpt><trkpt lat="40.083033237142" lon="18.080656823728496"><ele>75.5</ele><time>2026-04-21T16:15:34.989Z</time></trkpt><trkpt lat="40.08309559010883" lon="18.080526207004493"><ele>75.25</ele><time>2026-04-21T16:15:35.989Z</time></trkpt><trkpt lat="40.08317840426228" lon="18.080384369224042"><ele>75.0</ele><time>2026-04-21T16:15:36.989Z</time></trkpt><trkpt lat="40.08326347249171" lon="18.08022797176938"><ele>75.25</ele><time>2026-04-21T16:15:37.989Z</time></trkpt><trkpt lat="40.08334110158447" lon="18.080067252397367"><ele>75.5</ele><time>2026-04-21T16:15:38.989Z</time></trkpt><trkpt lat="40.08342067784121" lon="18.079942910503135"><ele>75.75</ele><time>2026-04-21T16:15:39.989Z</time></trkpt><trkpt lat="40.083475599440156" lon="18.079831557241224"><ele>76.0</ele><time>2026-04-21T16:15:40.989Z</time></trkpt><trkpt lat="40.08352872019101" lon="18.0797546013728"><ele>75.2</ele><time>2026-04-21T16:15:41.989Z</time></trkpt><trkpt lat="40.08357543951865" lon="18.07968129042999"><ele>74.39999999999999</ele><time>2026-04-21T16:15:42.989Z</time></trkpt><trkpt lat="40.08361996706235" lon="18.07960979091789"><ele>73.6</ele><time>2026-04-21T16:15:43.989Z</time></trkpt><trkpt lat="40.08367469813007" lon="18.0795304171201"><ele>72.8</ele><time>2026-04-21T16:15:44.989Z</time></trkpt><trkpt lat="40.08373573163517" lon="18.079421400942994"><ele>72.0</ele><time>2026-04-21T16:15:45.989Z</time></trkpt><trkpt lat="40.08381462815203" lon="18.07928532129432"><ele>72.0</ele><time>2026-04-21T16:15:46.989Z</time></trkpt><trkpt lat="40.08389178842753" lon="18.079133191707477"><ele>72.0</ele><time>2026-04-21T16:15:47.989Z</time></trkpt><trkpt lat="40.08400836662513" lon="18.079051728059955"><ele>72.0</ele><time>2026-04-21T16:15:48.989Z</time></trkpt><trkpt lat="40.0841113015167" lon="18.07887626318427"><ele>72.0</ele><time>2026-04-21T16:15:49.989Z</time></trkpt><trkpt lat="40.08423021006264" lon="18.078669166933103"><ele>71.66666666666667</ele><time>2026-04-21T16:15:50.989Z</time></trkpt><trkpt lat="40.08436958027066" lon="18.07845587008103"><ele>71.33333333333334</ele><time>2026-04-21T16:15:51.989Z</time></trkpt><trkpt lat="40.08448366485708" lon="18.078263773225842"><ele>71.0</ele><time>2026-04-21T16:15:52.989Z</time></trkpt><trkpt lat="40.08458252503082" lon="18.078096864366426"><ele>70.25</ele><time>2026-04-21T16:15:53.989Z</time></trkpt><trkpt lat="40.0846676247321" lon="18.077958421626445"><ele>69.5</ele><time>2026-04-21T16:15:54.989Z</time></trkpt><trkpt lat="40.08474327355181" lon="18.07783218521004"><ele>68.75</ele><time>2026-04-21T16:15:55.989Z</time></trkpt><trkpt lat="40.08481094355293" lon="18.077721696921394"><ele>68.0</ele><time>2026-04-21T16:15:56.989Z</time></trkpt><trkpt lat="40.084871998818684" lon="18.07762629133562"><ele>68.0</ele><time>2026-04-21T16:15:57.989Z</time></trkpt><trkpt lat="40.08491859596492" lon="18.077546272884835"><ele>68.0</ele><time>2026-04-21T16:15:58.989Z</time></trkpt><trkpt lat="40.08495895921271" lon="18.077480918454587"><ele>68.0</ele><time>2026-04-21T16:15:59.989Z</time></trkpt><trkpt lat="40.08499647794071" lon="18.077414133304668"><ele>68.0</ele><time>2026-04-21T16:16:00.989Z</time></trkpt><trkpt lat="40.085008834321016" lon="18.07727989726901"><ele>68.0</ele><time>2026-04-21T16:16:02.989Z</time></trkpt><trkpt lat="40.0849785349949" lon="18.07719284227923"><ele>68.0</ele><time>2026-04-21T16:16:03.989Z</time></trkpt><trkpt lat="40.08492685626151" lon="18.07709585614096"><ele>68.0</ele><time>2026-04-21T16:16:04.989Z</time></trkpt><trkpt lat="40.084876999183706" lon="18.076977088506055"><ele>68.0</ele><time>2026-04-21T16:16:05.989Z</time></trkpt><trkpt lat="40.08484204283239" lon="18.07684869253319"><ele>68.0</ele><time>2026-04-21T16:16:06.989Z</time></trkpt><trkpt lat="40.08480500460641" lon="18.076721259971325"><ele>68.0</ele><time>2026-04-21T16:16:07.989Z</time></trkpt><trkpt lat="40.08476388508167" lon="18.076577559591563"><ele>68.0</ele><time>2026-04-21T16:16:08.989Z</time></trkpt><trkpt lat="40.08471614883223" lon="18.076429304683455"><ele>68.0</ele><time>2026-04-21T16:16:09.989Z</time></trkpt><trkpt lat="40.08463507047663" lon="18.076264932027556"><ele>68.0</ele><time>2026-04-21T16:16:10.989Z</time></trkpt><trkpt lat="40.08458399746475" lon="18.076101772005316"><ele>68.0</ele><time>2026-04-21T16:16:11.989Z</time></trkpt><trkpt lat="40.08452734394451" lon="18.075948492551053"><ele>68.0</ele><time>2026-04-21T16:16:12.989Z</time></trkpt><trkpt lat="40.084484997343566" lon="18.075800698289783"><ele>67.4</ele><time>2026-04-21T16:16:13.989Z</time></trkpt><trkpt lat="40.08444207858923" lon="18.075663617947402"><ele>66.8</ele><time>2026-04-21T16:16:14.989Z</time></trkpt><trkpt lat="40.084400266839175" lon="18.0755184479568"><ele>66.2</ele><time>2026-04-21T16:16:15.989Z</time></trkpt><trkpt lat="40.08437591025689" lon="18.075393650103294"><ele>65.6</ele><time>2026-04-21T16:16:16.989Z</time></trkpt><trkpt lat="40.0843611529573" lon="18.075264318144114"><ele>65.0</ele><time>2026-04-21T16:16:17.989Z</time></trkpt><trkpt lat="40.08436368351023" lon="18.075124450879912"><ele>65.0</ele><time>2026-04-21T16:16:18.989Z</time></trkpt><trkpt lat="40.08437347883775" lon="18.0749758697701"><ele>65.0</ele><time>2026-04-21T16:16:19.989Z</time></trkpt><trkpt lat="40.08440592540081" lon="18.074831443597702"><ele>65.0</ele><time>2026-04-21T16:16:20.989Z</time></trkpt><trkpt lat="40.084449513902" lon="18.074689280480552"><ele>65.0</ele><time>2026-04-21T16:16:21.989Z</time></trkpt><trkpt lat="40.084510953073696" lon="18.074547157327878"><ele>64.75</ele><time>2026-04-21T16:16:22.989Z</time></trkpt><trkpt lat="40.08458568159817" lon="18.0744206212852"><ele>64.5</ele><time>2026-04-21T16:16:23.989Z</time></trkpt><trkpt lat="40.084671247855184" lon="18.07429844349281"><ele>64.25</ele><time>2026-04-21T16:16:24.989Z</time></trkpt><trkpt lat="40.08477583273248" lon="18.074186717288452"><ele>64.0</ele><time>2026-04-21T16:16:25.989Z</time></trkpt><trkpt lat="40.08487698676631" lon="18.074090971428422"><ele>63.75</ele><time>2026-04-21T16:16:26.989Z</time></trkpt><trkpt lat="40.08497124597318" lon="18.07398663368068"><ele>63.5</ele><time>2026-04-21T16:16:27.989Z</time></trkpt><trkpt lat="40.08506170866057" lon="18.073876727928454"><ele>63.25</ele><time>2026-04-21T16:16:28.989Z</time></trkpt><trkpt lat="40.08515281520519" lon="18.073774116106588"><ele>63.0</ele><time>2026-04-21T16:16:29.989Z</time></trkpt><trkpt lat="40.085237700195975" lon="18.07367263227542"><ele>63.0</ele><time>2026-04-21T16:16:30.989Z</time></trkpt><trkpt lat="40.085318408659894" lon="18.07357585764259"><ele>63.0</ele><time>2026-04-21T16:16:31.989Z</time></trkpt><trkpt lat="40.08539268540453" lon="18.07347404196706"><ele>63.0</ele><time>2026-04-21T16:16:32.989Z</time></trkpt><trkpt lat="40.0854582394982" lon="18.07336793663373"><ele>63.0</ele><time>2026-04-21T16:16:33.989Z</time></trkpt><trkpt lat="40.085510638709415" lon="18.07325738232561"><ele>63.0</ele><time>2026-04-21T16:16:34.989Z</time></trkpt><trkpt lat="40.08556045725858" lon="18.07315415678468"><ele>62.599999999999994</ele><time>2026-04-21T16:16:35.989Z</time></trkpt><trkpt lat="40.08560175215764" lon="18.073067637565902"><ele>62.199999999999996</ele><time>2026-04-21T16:16:36.989Z</time></trkpt><trkpt lat="40.085685046413886" lon="18.072975243565416"><ele>61.8</ele><time>2026-04-21T16:16:38.989Z</time></trkpt><trkpt lat="40.08575669286519" lon="18.072863556761654"><ele>61.4</ele><time>2026-04-21T16:16:40.989Z</time></trkpt><trkpt lat="40.08575762851097" lon="18.072773651248436"><ele>61.0</ele><time>2026-04-21T16:16:41.989Z</time></trkpt><trkpt lat="40.08573715040967" lon="18.072661799064754"><ele>61.0</ele><time>2026-04-21T16:16:42.989Z</time></trkpt><trkpt lat="40.08571938077045" lon="18.07254357160299"><ele>61.0</ele><time>2026-04-21T16:16:43.989Z</time></trkpt><trkpt lat="40.085730409009614" lon="18.072392648916292"><ele>61.0</ele><time>2026-04-21T16:16:44.989Z</time></trkpt><trkpt lat="40.085756987247564" lon="18.0722339394844"><ele>61.0</ele><time>2026-04-21T16:16:45.989Z</time></trkpt><trkpt lat="40.08580893551062" lon="18.072043912322357"><ele>62.0</ele><time>2026-04-21T16:16:46.989Z</time></trkpt><trkpt lat="40.08585275515477" lon="18.071843896898606"><ele>63.0</ele><time>2026-04-21T16:16:47.989Z</time></trkpt><trkpt lat="40.08589346916146" lon="18.071621637637065"><ele>64.0</ele><time>2026-04-21T16:16:48.989Z</time></trkpt><trkpt lat="40.08594603909948" lon="18.071398684598822"><ele>64.0</ele><time>2026-04-21T16:16:49.989Z</time></trkpt><trkpt lat="40.085986232204405" lon="18.071164807297322"><ele>64.0</ele><time>2026-04-21T16:16:50.988Z</time></trkpt><trkpt lat="40.08600678115434" lon="18.07092480392579"><ele>64.0</ele><time>2026-04-21T16:16:51.988Z</time></trkpt><trkpt lat="40.08600157217607" lon="18.070672191442615"><ele>63.33333333333333</ele><time>2026-04-21T16:16:52.989Z</time></trkpt><trkpt lat="40.085975518749606" lon="18.070422056317174"><ele>62.66666666666667</ele><time>2026-04-21T16:16:53.988Z</time></trkpt><trkpt lat="40.085946133134556" lon="18.070174072231804"><ele>62.0</ele><time>2026-04-21T16:16:54.988Z</time></trkpt><trkpt lat="40.0859257237488" lon="18.069918887177646"><ele>62.0</ele><time>2026-04-21T16:16:55.989Z</time></trkpt><trkpt lat="40.08591341812524" lon="18.069665548462314"><ele>62.0</ele><time>2026-04-21T16:16:56.988Z</time></trkpt><trkpt lat="40.08588642658989" lon="18.069403219440595"><ele>62.0</ele><time>2026-04-21T16:16:57.988Z</time></trkpt><trkpt lat="40.08586444915678" lon="18.069135437374584"><ele>61.66666666666667</ele><time>2026-04-21T16:16:58.989Z</time></trkpt><trkpt lat="40.08584606022688" lon="18.06888100814393"><ele>61.33333333333333</ele><time>2026-04-21T16:16:59.988Z</time></trkpt><trkpt lat="40.085824901401125" lon="18.06862238705824"><ele>61.0</ele><time>2026-04-21T16:17:00.988Z</time></trkpt><trkpt lat="40.085805202829164" lon="18.068361973455342"><ele>61.0</ele><time>2026-04-21T16:17:01.988Z</time></trkpt><trkpt lat="40.085785693763675" lon="18.068099715179677"><ele>61.0</ele><time>2026-04-21T16:17:02.988Z</time></trkpt><trkpt lat="40.085758466967015" lon="18.067846375773033"><ele>61.0</ele><time>2026-04-21T16:17:03.988Z</time></trkpt><trkpt lat="40.085744375058376" lon="18.06762447858701"><ele>60.599999999999994</ele><time>2026-04-21T16:17:04.988Z</time></trkpt><trkpt lat="40.085732493946196" lon="18.067434323031698"><ele>60.199999999999996</ele><time>2026-04-21T16:17:05.988Z</time></trkpt><trkpt lat="40.08572592366585" lon="18.0672677976892"><ele>59.800000000000004</ele><time>2026-04-21T16:17:06.988Z</time></trkpt><trkpt lat="40.085712161269264" lon="18.067141122551963"><ele>59.400000000000006</ele><time>2026-04-21T16:17:07.988Z</time></trkpt><trkpt lat="40.08571092893636" lon="18.067041168424197"><ele>59.0</ele><time>2026-04-21T16:17:08.988Z</time></trkpt><trkpt lat="40.08571417773381" lon="18.066956758347214"><ele>59.00000000000001</ele><time>2026-04-21T16:17:09.988Z</time></trkpt><trkpt lat="40.08575335714451" lon="18.06686886352798"><ele>59.0</ele><time>2026-04-21T16:17:11.988Z</time></trkpt><trkpt lat="40.085792940880054" lon="18.066803160758898"><ele>59.0</ele><time>2026-04-21T16:17:12.988Z</time></trkpt><trkpt lat="40.08584608691786" lon="18.066735976283493"><ele>59.0</ele><time>2026-04-21T16:17:13.988Z</time></trkpt><trkpt lat="40.08592216310534" lon="18.06667457958517"><ele>59.00000000000001</ele><time>2026-04-21T16:17:14.988Z</time></trkpt><trkpt lat="40.086017298026135" lon="18.06662829345643"><ele>59.0</ele><time>2026-04-21T16:17:15.988Z</time></trkpt><trkpt lat="40.086137262638026" lon="18.066599322143663"><ele>58.66666666666667</ele><time>2026-04-21T16:17:16.988Z</time></trkpt><trkpt lat="40.086277038270026" lon="18.06658630354048"><ele>58.33333333333333</ele><time>2026-04-21T16:17:17.988Z</time></trkpt><trkpt lat="40.086431281173674" lon="18.066587756231563"><ele>58.0</ele><time>2026-04-21T16:17:18.988Z</time></trkpt><trkpt lat="40.08659445482206" lon="18.066589422437243"><ele>58.666666666666664</ele><time>2026-04-21T16:17:19.988Z</time></trkpt><trkpt lat="40.08677016031274" lon="18.066585790860554"><ele>59.33333333333333</ele><time>2026-04-21T16:17:20.988Z</time></trkpt><trkpt lat="40.086952354399884" lon="18.06658469735616"><ele>60.0</ele><time>2026-04-21T16:17:21.988Z</time></trkpt><trkpt lat="40.087135840680666" lon="18.066564990167873"><ele>60.0</ele><time>2026-04-21T16:17:22.988Z</time></trkpt><trkpt lat="40.08729788332732" lon="18.066537678649205"><ele>60.0</ele><time>2026-04-21T16:17:23.988Z</time></trkpt><trkpt lat="40.08744892469357" lon="18.06652345904323"><ele>60.0</ele><time>2026-04-21T16:17:24.988Z</time></trkpt><trkpt lat="40.08759040190333" lon="18.06651747119317"><ele>59.75</ele><time>2026-04-21T16:17:25.988Z</time></trkpt><trkpt lat="40.08773594082433" lon="18.066514274209627"><ele>59.5</ele><time>2026-04-21T16:17:26.988Z</time></trkpt><trkpt lat="40.08788158235635" lon="18.066506883352783"><ele>59.25</ele><time>2026-04-21T16:17:27.988Z</time></trkpt><trkpt lat="40.08801708494291" lon="18.066496896450182"><ele>59.0</ele><time>2026-04-21T16:17:28.988Z</time></trkpt><trkpt lat="40.08814240514336" lon="18.066480149401574"><ele>59.5</ele><time>2026-04-21T16:17:29.988Z</time></trkpt><trkpt lat="40.088264150465726" lon="18.066471779526797"><ele>60.0</ele><time>2026-04-21T16:17:30.988Z</time></trkpt><trkpt lat="40.0883812297314" lon="18.06645949352717"><ele>60.5</ele><time>2026-04-21T16:17:31.988Z</time></trkpt><trkpt lat="40.088496276391176" lon="18.06644431760591"><ele>61.0</ele><time>2026-04-21T16:17:32.988Z</time></trkpt><trkpt lat="40.08861005433997" lon="18.06640840193098"><ele>61.0</ele><time>2026-04-21T16:17:33.988Z</time></trkpt><trkpt lat="40.08872847232933" lon="18.066352116689888"><ele>61.0</ele><time>2026-04-21T16:17:34.988Z</time></trkpt><trkpt lat="40.088841633637784" lon="18.066291324714737"><ele>61.0</ele><time>2026-04-21T16:17:35.988Z</time></trkpt><trkpt lat="40.088943452445726" lon="18.066236187378617"><ele>61.0</ele><time>2026-04-21T16:17:36.988Z</time></trkpt><trkpt lat="40.08903481218459" lon="18.06620141903902"><ele>61.166666666666664</ele><time>2026-04-21T16:17:37.988Z</time></trkpt><trkpt lat="40.089103895527074" lon="18.066160133204296"><ele>61.33333333333333</ele><time>2026-04-21T16:17:38.988Z</time></trkpt><trkpt lat="40.08917041560657" lon="18.066122526388096"><ele>61.5</ele><time>2026-04-21T16:17:39.988Z</time></trkpt><trkpt lat="40.08924473038656" lon="18.06608554638379"><ele>61.66666666666667</ele><time>2026-04-21T16:17:40.988Z</time></trkpt><trkpt lat="40.089323020781336" lon="18.066044421188117"><ele>61.833333333333336</ele><time>2026-04-21T16:17:41.988Z</time></trkpt><trkpt lat="40.08940932930641" lon="18.06600427768075"><ele>62.0</ele><time>2026-04-21T16:17:42.988Z</time></trkpt><trkpt lat="40.08949727370824" lon="18.065961252908576"><ele>62.0</ele><time>2026-04-21T16:17:43.988Z</time></trkpt><trkpt lat="40.08958807536506" lon="18.065907213749714"><ele>62.0</ele><time>2026-04-21T16:17:44.988Z</time></trkpt><trkpt lat="40.08968081608081" lon="18.065866154999085"><ele>62.0</ele><time>2026-04-21T16:17:45.988Z</time></trkpt><trkpt lat="40.089775558769304" lon="18.065814248643747"><ele>62.0</ele><time>2026-04-21T16:17:46.988Z</time></trkpt><trkpt lat="40.089873023926" lon="18.065764944849253"><ele>62.0</ele><time>2026-04-21T16:17:47.988Z</time></trkpt><trkpt lat="40.08997612954587" lon="18.065705384466646"><ele>62.75</ele><time>2026-04-21T16:17:48.988Z</time></trkpt><trkpt lat="40.09008571639809" lon="18.065651308964103"><ele>63.5</ele><time>2026-04-21T16:17:49.988Z</time></trkpt><trkpt lat="40.0901934271277" lon="18.06559333626838"><ele>64.25</ele><time>2026-04-21T16:17:50.988Z</time></trkpt><trkpt lat="40.09030168140366" lon="18.065539626547512"><ele>65.0</ele><time>2026-04-21T16:17:51.988Z</time></trkpt><trkpt lat="40.09040653485314" lon="18.06548308605968"><ele>65.0</ele><time>2026-04-21T16:17:52.988Z</time></trkpt><trkpt lat="40.0905085015839" lon="18.065434518574886"><ele>65.0</ele><time>2026-04-21T16:17:53.988Z</time></trkpt><trkpt lat="40.09060799519866" lon="18.065376783792022"><ele>65.0</ele><time>2026-04-21T16:17:54.988Z</time></trkpt><trkpt lat="40.090691215137625" lon="18.065341352154952"><ele>65.0</ele><time>2026-04-21T16:17:55.987Z</time></trkpt><trkpt lat="40.09076408672186" lon="18.065301298473806"><ele>65.0</ele><time>2026-04-21T16:17:57.987Z</time></trkpt><trkpt lat="40.09082589158262" lon="18.065255955361565"><ele>65.0</ele><time>2026-04-21T16:18:00.987Z</time></trkpt><trkpt lat="40.090917315648234" lon="18.065200066852487"><ele>65.0</ele><time>2026-04-21T16:18:02.987Z</time></trkpt><trkpt lat="40.09097993634396" lon="18.06516453193276"><ele>65.0</ele><time>2026-04-21T16:18:03.987Z</time></trkpt><trkpt lat="40.09104951803181" lon="18.06512870244706"><ele>65.0</ele><time>2026-04-21T16:18:04.987Z</time></trkpt><trkpt lat="40.09111923600458" lon="18.065086776604332"><ele>65.0</ele><time>2026-04-21T16:18:05.987Z</time></trkpt><trkpt lat="40.09119406402246" lon="18.065054999965025"><ele>65.0</ele><time>2026-04-21T16:18:06.987Z</time></trkpt><trkpt lat="40.09126542113065" lon="18.065021479103315"><ele>65.0</ele><time>2026-04-21T16:18:07.987Z</time></trkpt><trkpt lat="40.09132906089503" lon="18.06498942760716"><ele>65.0</ele><time>2026-04-21T16:18:08.987Z</time></trkpt><trkpt lat="40.09143691020432" lon="18.06493268702778"><ele>65.0</ele><time>2026-04-21T16:18:10.987Z</time></trkpt><trkpt lat="40.091555781962384" lon="18.064869360360834"><ele>65.0</ele><time>2026-04-21T16:18:12.987Z</time></trkpt><trkpt lat="40.09163098875073" lon="18.064823932169038"><ele>65.0</ele><time>2026-04-21T16:18:13.987Z</time></trkpt><trkpt lat="40.091727482197186" lon="18.06479040364834"><ele>64.8</ele><time>2026-04-21T16:18:14.987Z</time></trkpt><trkpt lat="40.09182661638741" lon="18.064746043758674"><ele>64.6</ele><time>2026-04-21T16:18:15.987Z</time></trkpt><trkpt lat="40.091918480460436" lon="18.06470319818368"><ele>64.4</ele><time>2026-04-21T16:18:16.987Z</time></trkpt><trkpt lat="40.091999549259135" lon="18.06467423169786"><ele>64.2</ele><time>2026-04-21T16:18:17.987Z</time></trkpt><trkpt lat="40.09208067673324" lon="18.064640335027565"><ele>64.0</ele><time>2026-04-21T16:18:18.987Z</time></trkpt><trkpt lat="40.092155388767196" lon="18.064596552633333"><ele>64.0</ele><time>2026-04-21T16:18:19.987Z</time></trkpt><trkpt lat="40.092241671727024" lon="18.064539790520055"><ele>64.0</ele><time>2026-04-21T16:18:20.987Z</time></trkpt><trkpt lat="40.09231880185704" lon="18.064490197942447"><ele>64.0</ele><time>2026-04-21T16:18:21.987Z</time></trkpt><trkpt lat="40.09238886619512" lon="18.06445614085274"><ele>64.0</ele><time>2026-04-21T16:18:22.987Z</time></trkpt><trkpt lat="40.09245292352393" lon="18.064427462782948"><ele>64.0</ele><time>2026-04-21T16:18:23.987Z</time></trkpt><trkpt lat="40.092575813623064" lon="18.064383389157143"><ele>64.5</ele><time>2026-04-21T16:18:25.987Z</time></trkpt><trkpt lat="40.09264148976597" lon="18.064342908284516"><ele>65.0</ele><time>2026-04-21T16:18:26.987Z</time></trkpt><trkpt lat="40.09272151501484" lon="18.06429257942762"><ele>65.5</ele><time>2026-04-21T16:18:27.987Z</time></trkpt><trkpt lat="40.09281136001112" lon="18.06421812498762"><ele>66.0</ele><time>2026-04-21T16:18:28.987Z</time></trkpt><trkpt lat="40.09289088377529" lon="18.06415213792155"><ele>66.5</ele><time>2026-04-21T16:18:29.987Z</time></trkpt><trkpt lat="40.09296108461847" lon="18.064093346354106"><ele>67.0</ele><time>2026-04-21T16:18:30.987Z</time></trkpt><trkpt lat="40.093022983071776" lon="18.06403323728077"><ele>67.0</ele><time>2026-04-21T16:18:31.987Z</time></trkpt><trkpt lat="40.09307978749686" lon="18.063974841367763"><ele>67.0</ele><time>2026-04-21T16:18:32.987Z</time></trkpt><trkpt lat="40.09313382848604" lon="18.063929103252804"><ele>67.0</ele><time>2026-04-21T16:18:33.987Z</time></trkpt><trkpt lat="40.09321577389305" lon="18.06384794684626"><ele>67.0</ele><time>2026-04-21T16:18:35.987Z</time></trkpt><trkpt lat="40.09327772939426" lon="18.063790295267093"><ele>67.0</ele><time>2026-04-21T16:18:38.987Z</time></trkpt><trkpt lat="40.09333323887862" lon="18.06374879828079"><ele>67.0</ele><time>2026-04-21T16:18:47.987Z</time></trkpt><trkpt lat="40.09341044030357" lon="18.063695407025115"><ele>67.16666666666666</ele><time>2026-04-21T16:18:51.987Z</time></trkpt><trkpt lat="40.09347252818506" lon="18.06363674489529"><ele>67.33333333333333</ele><time>2026-04-21T16:18:56.987Z</time></trkpt><trkpt lat="40.09344805442272" lon="18.063506822462006"><ele>67.5</ele><time>2026-04-21T16:18:59.987Z</time></trkpt><trkpt lat="40.093412103398194" lon="18.063438537576207"><ele>67.66666666666667</ele><time>2026-04-21T16:19:00.987Z</time></trkpt><trkpt lat="40.09337509840322" lon="18.063338121485927"><ele>67.83333333333334</ele><time>2026-04-21T16:19:01.987Z</time></trkpt><trkpt lat="40.093332304704035" lon="18.063243807047428"><ele>68.0</ele><time>2026-04-21T16:19:02.987Z</time></trkpt><trkpt lat="40.09328951725321" lon="18.063173033016735"><ele>67.2</ele><time>2026-04-21T16:19:03.987Z</time></trkpt><trkpt lat="40.093233634143814" lon="18.063036692722505"><ele>66.4</ele><time>2026-04-21T16:19:05.988Z</time></trkpt><trkpt lat="40.09318856839536" lon="18.062952506590996"><ele>65.60000000000001</ele><time>2026-04-21T16:19:06.988Z</time></trkpt><trkpt lat="40.093129313246585" lon="18.062866058210762"><ele>64.8</ele><time>2026-04-21T16:19:07.988Z</time></trkpt><trkpt lat="40.09307991559672" lon="18.062753814110543"><ele>64.0</ele><time>2026-04-21T16:19:08.987Z</time></trkpt><trkpt lat="40.0930292412635" lon="18.062653517322644"><ele>64.0</ele><time>2026-04-21T16:19:09.987Z</time></trkpt><trkpt lat="40.0929882606474" lon="18.062538736121237"><ele>64.0</ele><time>2026-04-21T16:19:10.987Z</time></trkpt><trkpt lat="40.09295909534448" lon="18.062409844094685"><ele>64.0</ele><time>2026-04-21T16:19:11.987Z</time></trkpt><trkpt lat="40.09292186554095" lon="18.062290036903388"><ele>64.0</ele><time>2026-04-21T16:19:12.987Z</time></trkpt><trkpt lat="40.09288786742934" lon="18.06217038205508"><ele>64.0</ele><time>2026-04-21T16:19:13.987Z</time></trkpt><trkpt lat="40.09284591259812" lon="18.06207067182143"><ele>63.666666666666664</ele><time>2026-04-21T16:19:14.987Z</time></trkpt><trkpt lat="40.09280845506479" lon="18.061965084363177"><ele>63.33333333333333</ele><time>2026-04-21T16:19:15.987Z</time></trkpt><trkpt lat="40.09276750970934" lon="18.061860730711565"><ele>63.0</ele><time>2026-04-21T16:19:16.987Z</time></trkpt><trkpt lat="40.09273192403118" lon="18.061771741213448"><ele>62.66666666666667</ele><time>2026-04-21T16:19:17.987Z</time></trkpt><trkpt lat="40.09270105314461" lon="18.06169879513206"><ele>62.333333333333336</ele><time>2026-04-21T16:19:18.987Z</time></trkpt><trkpt lat="40.092664313462905" lon="18.061607910918923"><ele>62.0</ele><time>2026-04-21T16:19:20.987Z</time></trkpt><trkpt lat="40.09264141566551" lon="18.061519689908533"><ele>61.8</ele><time>2026-04-21T16:19:23.987Z</time></trkpt><trkpt lat="40.09260087080817" lon="18.061425433388493"><ele>61.6</ele><time>2026-04-21T16:19:25.987Z</time></trkpt><trkpt lat="40.09254476440968" lon="18.061280591981365"><ele>61.39999999999999</ele><time>2026-04-21T16:19:27.987Z</time></trkpt><trkpt lat="40.092511569418015" lon="18.061200193105087"><ele>61.199999999999996</ele><time>2026-04-21T16:19:28.987Z</time></trkpt><trkpt lat="40.09247093358722" lon="18.06110851149984"><ele>61.0</ele><time>2026-04-21T16:19:29.987Z</time></trkpt><trkpt lat="40.092425593849214" lon="18.061003173270144"><ele>60.599999999999994</ele><time>2026-04-21T16:19:30.987Z</time></trkpt><trkpt lat="40.092376046945915" lon="18.060881940306093"><ele>60.199999999999996</ele><time>2026-04-21T16:19:31.987Z</time></trkpt><trkpt lat="40.092319252065295" lon="18.06075982697524"><ele>59.800000000000004</ele><time>2026-04-21T16:19:32.987Z</time></trkpt><trkpt lat="40.09226762600965" lon="18.060657883403323"><ele>59.400000000000006</ele><time>2026-04-21T16:19:33.987Z</time></trkpt><trkpt lat="40.09221997481174" lon="18.06056650062152"><ele>59.0</ele><time>2026-04-21T16:19:34.987Z</time></trkpt><trkpt lat="40.09217817150764" lon="18.060485282933424"><ele>59.00000000000001</ele><time>2026-04-21T16:19:35.987Z</time></trkpt><trkpt lat="40.092147283521896" lon="18.06040643555392"><ele>59.0</ele><time>2026-04-21T16:19:36.987Z</time></trkpt><trkpt lat="40.09210388965402" lon="18.06028363376113"><ele>59.0</ele><time>2026-04-21T16:19:38.987Z</time></trkpt><trkpt lat="40.09214502097549" lon="18.06019435892002"><ele>59.0</ele><time>2026-04-21T16:19:40.987Z</time></trkpt><trkpt lat="40.09216378806266" lon="18.06010779954815"><ele>59.00000000000001</ele><time>2026-04-21T16:19:43.987Z</time></trkpt><trkpt lat="40.092230901103164" lon="18.059987083642365"><ele>59.0</ele><time>2026-04-21T16:19:45.987Z</time></trkpt><trkpt lat="40.09235750437145" lon="18.05992414108304"><ele>59.400000000000006</ele><time>2026-04-21T16:19:47.987Z</time></trkpt><trkpt lat="40.092443598366174" lon="18.05991911800904"><ele>59.800000000000004</ele><time>2026-04-21T16:19:48.987Z</time></trkpt><trkpt lat="40.09253800398975" lon="18.0599424353271"><ele>60.199999999999996</ele><time>2026-04-21T16:19:49.987Z</time></trkpt><trkpt lat="40.092634416999154" lon="18.05998166785342"><ele>60.599999999999994</ele><time>2026-04-21T16:19:50.987Z</time></trkpt><trkpt lat="40.09274158699614" lon="18.06003515748361"><ele>61.0</ele><time>2026-04-21T16:19:51.987Z</time></trkpt><trkpt lat="40.09284573375346" lon="18.060101789963355"><ele>61.33333333333333</ele><time>2026-04-21T16:19:52.987Z</time></trkpt><trkpt lat="40.09296708112019" lon="18.060197184488292"><ele>61.66666666666667</ele><time>2026-04-21T16:19:53.987Z</time></trkpt><trkpt lat="40.09309714884544" lon="18.060305850669575"><ele>62.0</ele><time>2026-04-21T16:19:54.987Z</time></trkpt><trkpt lat="40.09323122290359" lon="18.060416807449926"><ele>63.0</ele><time>2026-04-21T16:19:55.987Z</time></trkpt><trkpt lat="40.09338012893978" lon="18.0605252067618"><ele>64.0</ele><time>2026-04-21T16:19:56.987Z</time></trkpt><trkpt lat="40.09354168304577" lon="18.060626349161858"><ele>65.0</ele><time>2026-04-21T16:19:57.987Z</time></trkpt><trkpt lat="40.093691931492856" lon="18.060705864260353"><ele>65.0</ele><time>2026-04-21T16:19:58.987Z</time></trkpt><trkpt lat="40.09383403261561" lon="18.06077502608424"><ele>65.0</ele><time>2026-04-21T16:19:59.987Z</time></trkpt><trkpt lat="40.0939687539023" lon="18.060832111080984"><ele>65.0</ele><time>2026-04-21T16:20:00.987Z</time></trkpt><trkpt lat="40.09410267039772" lon="18.06087665651189"><ele>65.0</ele><time>2026-04-21T16:20:01.987Z</time></trkpt><trkpt lat="40.09423201646257" lon="18.060904739534266"><ele>65.0</ele><time>2026-04-21T16:20:02.987Z</time></trkpt><trkpt lat="40.09436737952337" lon="18.06092642432117"><ele>65.0</ele><time>2026-04-21T16:20:03.987Z</time></trkpt><trkpt lat="40.0945106084176" lon="18.060927628939773"><ele>65.0</ele><time>2026-04-21T16:20:04.987Z</time></trkpt><trkpt lat="40.09465442907642" lon="18.06090430371832"><ele>65.0</ele><time>2026-04-21T16:20:05.987Z</time></trkpt><trkpt lat="40.09479987787158" lon="18.06087474338517"><ele>64.75</ele><time>2026-04-21T16:20:06.987Z</time></trkpt><trkpt lat="40.09494431313781" lon="18.060840085841964"><ele>64.5</ele><time>2026-04-21T16:20:07.987Z</time></trkpt><trkpt lat="40.09507825347105" lon="18.060795900419482"><ele>64.25</ele><time>2026-04-21T16:20:08.987Z</time></trkpt><trkpt lat="40.09520463714206" lon="18.06074876799874"><ele>64.0</ele><time>2026-04-21T16:20:09.987Z</time></trkpt><trkpt lat="40.09532457177324" lon="18.06070043591863"><ele>64.0</ele><time>2026-04-21T16:20:10.987Z</time></trkpt><trkpt lat="40.09543944004825" lon="18.060645590422535"><ele>64.0</ele><time>2026-04-21T16:20:11.987Z</time></trkpt><trkpt lat="40.09555455832651" lon="18.060582493899876"><ele>64.0</ele><time>2026-04-21T16:20:12.987Z</time></trkpt><trkpt lat="40.095669490713135" lon="18.06050968896728"><ele>64.0</ele><time>2026-04-21T16:20:13.987Z</time></trkpt><trkpt lat="40.09577413084337" lon="18.060431140344797"><ele>64.2</ele><time>2026-04-21T16:20:14.987Z</time></trkpt><trkpt lat="40.095869879697815" lon="18.060359205231745"><ele>64.4</ele><time>2026-04-21T16:20:15.987Z</time></trkpt><trkpt lat="40.095953751061266" lon="18.06029149506219"><ele>64.6</ele><time>2026-04-21T16:20:16.987Z</time></trkpt><trkpt lat="40.09603866879811" lon="18.06021104155845"><ele>64.8</ele><time>2026-04-21T16:20:17.987Z</time></trkpt><trkpt lat="40.096130164925995" lon="18.06010378637705"><ele>65.0</ele><time>2026-04-21T16:20:18.987Z</time></trkpt><trkpt lat="40.09622175797653" lon="18.05998455537121"><ele>65.0</ele><time>2026-04-21T16:20:19.987Z</time></trkpt><trkpt lat="40.09629628277029" lon="18.05984841446269"><ele>65.0</ele><time>2026-04-21T16:20:20.987Z</time></trkpt><trkpt lat="40.09637052798227" lon="18.05972725656239"><ele>65.0</ele><time>2026-04-21T16:20:21.987Z</time></trkpt><trkpt lat="40.09643882008851" lon="18.059622109744446"><ele>65.0</ele><time>2026-04-21T16:20:22.987Z</time></trkpt><trkpt lat="40.09649680829349" lon="18.05951630183334"><ele>65.0</ele><time>2026-04-21T16:20:23.987Z</time></trkpt><trkpt lat="40.09655590928477" lon="18.059412396171332"><ele>65.0</ele><time>2026-04-21T16:20:24.987Z</time></trkpt><trkpt lat="40.096609698354314" lon="18.05930775884558"><ele>65.0</ele><time>2026-04-21T16:20:25.987Z</time></trkpt><trkpt lat="40.09665574110603" lon="18.059218008080492"><ele>65.0</ele><time>2026-04-21T16:20:26.987Z</time></trkpt><trkpt lat="40.09669635230617" lon="18.059135634118267"><ele>65.0</ele><time>2026-04-21T16:20:27.987Z</time></trkpt><trkpt lat="40.096730526268544" lon="18.059050396360995"><ele>65.0</ele><time>2026-04-21T16:20:28.987Z</time></trkpt><trkpt lat="40.0967782144811" lon="18.058934202920074"><ele>65.5</ele><time>2026-04-21T16:20:29.987Z</time></trkpt><trkpt lat="40.09682429486845" lon="18.058806966934604"><ele>66.0</ele><time>2026-04-21T16:20:30.987Z</time></trkpt><trkpt lat="40.09688377010966" lon="18.058678025924593"><ele>66.5</ele><time>2026-04-21T16:20:31.987Z</time></trkpt><trkpt lat="40.096956276926555" lon="18.058549986366348"><ele>67.0</ele><time>2026-04-21T16:20:32.987Z</time></trkpt><trkpt lat="40.097028203646374" lon="18.058424531953516"><ele>67.0</ele><time>2026-04-21T16:20:33.987Z</time></trkpt><trkpt lat="40.097072559434935" lon="18.058343930824616"><ele>67.0</ele><time>2026-04-21T16:20:34.987Z</time></trkpt><trkpt lat="40.0971359068145" lon="18.058305546725048"><ele>67.0</ele><time>2026-04-21T16:20:35.987Z</time></trkpt><trkpt lat="40.09720277323441" lon="18.05822659074802"><ele>67.0</ele><time>2026-04-21T16:20:38.987Z</time></trkpt><trkpt lat="40.0972933609634" lon="18.05812533820948"><ele>67.0</ele><time>2026-04-21T16:20:40.987Z</time></trkpt><trkpt lat="40.09738403809597" lon="18.058067335770733"><ele>67.25</ele><time>2026-04-21T16:20:44.987Z</time></trkpt><trkpt lat="40.09745948242492" lon="18.058007918661467"><ele>67.5</ele><time>2026-04-21T16:20:45.987Z</time></trkpt><trkpt lat="40.09755379365029" lon="18.057923629333988"><ele>67.75</ele><time>2026-04-21T16:20:46.987Z</time></trkpt><trkpt lat="40.09767229937936" lon="18.057835432805994"><ele>68.0</ele><time>2026-04-21T16:20:47.987Z</time></trkpt><trkpt lat="40.09780775494875" lon="18.057759132653256"><ele>68.0</ele><time>2026-04-21T16:20:48.987Z</time></trkpt><trkpt lat="40.09795488956109" lon="18.057665787051928"><ele>68.0</ele><time>2026-04-21T16:20:49.987Z</time></trkpt><trkpt lat="40.0981091588989" lon="18.057546965827857"><ele>68.0</ele><time>2026-04-21T16:20:50.987Z</time></trkpt><trkpt lat="40.09827420047678" lon="18.057424843627132"><ele>67.66666666666667</ele><time>2026-04-21T16:20:51.987Z</time></trkpt><trkpt lat="40.098447163579834" lon="18.057308846229766"><ele>67.33333333333333</ele><time>2026-04-21T16:20:52.987Z</time></trkpt><trkpt lat="40.09859099126225" lon="18.05719192675501"><ele>67.0</ele><time>2026-04-21T16:20:53.987Z</time></trkpt><trkpt lat="40.0987339587747" lon="18.057071508861405"><ele>67.0</ele><time>2026-04-21T16:20:54.987Z</time></trkpt><trkpt lat="40.098870006446916" lon="18.05697191064473"><ele>67.0</ele><time>2026-04-21T16:20:55.987Z</time></trkpt><trkpt lat="40.09904241299053" lon="18.056887150668476"><ele>67.0</ele><time>2026-04-21T16:20:56.987Z</time></trkpt><trkpt lat="40.099278267359516" lon="18.056893670949602"><ele>67.33333333333333</ele><time>2026-04-21T16:20:57.987Z</time></trkpt><trkpt lat="40.09946970402372" lon="18.05686317661782"><ele>67.66666666666667</ele><time>2026-04-21T16:20:58.987Z</time></trkpt><trkpt lat="40.09965189053426" lon="18.05684825676424"><ele>68.0</ele><time>2026-04-21T16:20:59.987Z</time></trkpt><trkpt lat="40.099829410233866" lon="18.056855926984042"><ele>68.33333333333334</ele><time>2026-04-21T16:21:00.987Z</time></trkpt><trkpt lat="40.10000879236365" lon="18.056887017293604"><ele>68.66666666666667</ele><time>2026-04-21T16:21:01.987Z</time></trkpt><trkpt lat="40.10019193936006" lon="18.056930018276887"><ele>69.0</ele><time>2026-04-21T16:21:02.986Z</time></trkpt><trkpt lat="40.10036576812346" lon="18.056988080948997"><ele>69.0</ele><time>2026-04-21T16:21:03.986Z</time></trkpt><trkpt lat="40.100530145640576" lon="18.057062187408025"><ele>69.0</ele><time>2026-04-21T16:21:04.986Z</time></trkpt><trkpt lat="40.10068972347973" lon="18.057153828373124"><ele>69.0</ele><time>2026-04-21T16:21:05.986Z</time></trkpt><trkpt lat="40.10085106655038" lon="18.057267770701642"><ele>70.0</ele><time>2026-04-21T16:21:06.986Z</time></trkpt><trkpt lat="40.101014652522274" lon="18.0573913418603"><ele>71.0</ele><time>2026-04-21T16:21:07.986Z</time></trkpt><trkpt lat="40.101179679540564" lon="18.057501659595374"><ele>72.0</ele><time>2026-04-21T16:21:08.986Z</time></trkpt><trkpt lat="40.10134929571481" lon="18.057626923292226"><ele>72.0</ele><time>2026-04-21T16:21:09.986Z</time></trkpt><trkpt lat="40.10150606545246" lon="18.057746786597797"><ele>72.0</ele><time>2026-04-21T16:21:10.986Z</time></trkpt><trkpt lat="40.10164989062439" lon="18.057851617252"><ele>72.0</ele><time>2026-04-21T16:21:11.986Z</time></trkpt><trkpt lat="40.101778282919796" lon="18.057935188508758"><ele>72.33333333333333</ele><time>2026-04-21T16:21:12.986Z</time></trkpt><trkpt lat="40.10189196441336" lon="18.05798490359983"><ele>72.66666666666666</ele><time>2026-04-21T16:21:13.986Z</time></trkpt><trkpt lat="40.10198435697318" lon="18.058010440667996"><ele>73.0</ele><time>2026-04-21T16:21:14.986Z</time></trkpt><trkpt lat="40.102213830264525" lon="18.05855723692719"><ele>73.6</ele><time>2026-04-21T16:21:15.986Z</time></trkpt><trkpt lat="40.102277054496994" lon="18.05865359728841"><ele>74.19999999999999</ele><time>2026-04-21T16:21:16.986Z</time></trkpt><trkpt lat="40.10231422476262" lon="18.058747546134686"><ele>74.8</ele><time>2026-04-21T16:21:17.986Z</time></trkpt><trkpt lat="40.10234655502099" lon="18.058852803387666"><ele>75.39999999999999</ele><time>2026-04-21T16:21:19.986Z</time></trkpt><trkpt lat="40.10240840401164" lon="18.058876165278303"><ele>76.0</ele><time>2026-04-21T16:21:21.986Z</time></trkpt><trkpt lat="40.10254304272633" lon="18.058808247905347"><ele>77.0</ele><time>2026-04-21T16:21:23.986Z</time></trkpt><trkpt lat="40.10263894406104" lon="18.058728698432276"><ele>78.0</ele><time>2026-04-21T16:21:24.986Z</time></trkpt><trkpt lat="40.102757357873266" lon="18.05863542496151"><ele>79.0</ele><time>2026-04-21T16:21:25.986Z</time></trkpt><trkpt lat="40.102884437446576" lon="18.05853265256561"><ele>80.0</ele><time>2026-04-21T16:21:26.986Z</time></trkpt><trkpt lat="40.10303098143204" lon="18.05841694284716"><ele>80.0</ele><time>2026-04-21T16:21:27.986Z</time></trkpt><trkpt lat="40.103185711464896" lon="18.058293736012473"><ele>80.0</ele><time>2026-04-21T16:21:28.986Z</time></trkpt><trkpt lat="40.1033531888014" lon="18.058162392328907"><ele>80.0</ele><time>2026-04-21T16:21:29.986Z</time></trkpt><trkpt lat="40.1035326395178" lon="18.05801898847352"><ele>79.66666666666667</ele><time>2026-04-21T16:21:30.986Z</time></trkpt><trkpt lat="40.10371402869064" lon="18.05787153323454"><ele>79.33333333333333</ele><time>2026-04-21T16:21:31.986Z</time></trkpt><trkpt lat="40.103905809517975" lon="18.057723618838946"><ele>79.0</ele><time>2026-04-21T16:21:32.986Z</time></trkpt><trkpt lat="40.104101871802214" lon="18.057572343529348"><ele>77.0</ele><time>2026-04-21T16:21:33.986Z</time></trkpt><trkpt lat="40.10430038312708" lon="18.0574212426002"><ele>75.0</ele><time>2026-04-21T16:21:34.986Z</time></trkpt><trkpt lat="40.10449831998891" lon="18.057264228507822"><ele>75.0</ele><time>2026-04-21T16:21:35.986Z</time></trkpt><trkpt lat="40.10470073456746" lon="18.05711678689921"><ele>75.0</ele><time>2026-04-21T16:21:36.986Z</time></trkpt><trkpt lat="40.1048986661822" lon="18.056965574616523"><ele>76.5</ele><time>2026-04-21T16:21:37.986Z</time></trkpt><trkpt lat="40.105116766910804" lon="18.056812687561475"><ele>78.0</ele><time>2026-04-21T16:21:38.986Z</time></trkpt><trkpt lat="40.10530884930033" lon="18.056668876672745"><ele>78.0</ele><time>2026-04-21T16:21:39.986Z</time></trkpt><trkpt lat="40.10548992649777" lon="18.056525977638664"><ele>78.0</ele><time>2026-04-21T16:21:40.986Z</time></trkpt><trkpt lat="40.10567011941501" lon="18.05638023540732"><ele>78.0</ele><time>2026-04-21T16:21:41.986Z</time></trkpt><trkpt lat="40.10585244949611" lon="18.056242577937528"><ele>79.33333333333333</ele><time>2026-04-21T16:21:42.986Z</time></trkpt><trkpt lat="40.10600836595449" lon="18.056116505717544"><ele>80.66666666666666</ele><time>2026-04-21T16:21:43.986Z</time></trkpt><trkpt lat="40.10616754553678" lon="18.055981976149216"><ele>82.0</ele><time>2026-04-21T16:21:44.986Z</time></trkpt><trkpt lat="40.10633768328561" lon="18.055845188848078"><ele>81.66666666666666</ele><time>2026-04-21T16:21:45.986Z</time></trkpt><trkpt lat="40.10651392133616" lon="18.055705729507892"><ele>81.33333333333333</ele><time>2026-04-21T16:21:46.986Z</time></trkpt><trkpt lat="40.10669046723262" lon="18.055570550020292"><ele>81.0</ele><time>2026-04-21T16:21:47.986Z</time></trkpt><trkpt lat="40.106873091683006" lon="18.055434084303112"><ele>81.0</ele><time>2026-04-21T16:21:48.986Z</time></trkpt><trkpt lat="40.10706202570817" lon="18.055302495810967"><ele>81.0</ele><time>2026-04-21T16:21:49.986Z</time></trkpt><trkpt lat="40.107247276961544" lon="18.055160993230263"><ele>81.0</ele><time>2026-04-21T16:21:50.986Z</time></trkpt><trkpt lat="40.1074406693122" lon="18.05501657690379"><ele>81.0</ele><time>2026-04-21T16:21:51.986Z</time></trkpt><trkpt lat="40.10763178814556" lon="18.054867924254157"><ele>81.0</ele><time>2026-04-21T16:21:52.986Z</time></trkpt><trkpt lat="40.10782503993073" lon="18.05471344884937"><ele>81.0</ele><time>2026-04-21T16:21:53.986Z</time></trkpt><trkpt lat="40.10802343658473" lon="18.054564899902775"><ele>81.0</ele><time>2026-04-21T16:21:54.986Z</time></trkpt><trkpt lat="40.108221490514744" lon="18.05440786002407"><ele>81.0</ele><time>2026-04-21T16:21:55.986Z</time></trkpt><trkpt lat="40.10841990271763" lon="18.05425834974681"><ele>81.5</ele><time>2026-04-21T16:21:56.986Z</time></trkpt><trkpt lat="40.10861870413972" lon="18.054105423351672"><ele>82.0</ele><time>2026-04-21T16:21:57.986Z</time></trkpt><trkpt lat="40.108822121046444" lon="18.05395476958005"><ele>82.0</ele><time>2026-04-21T16:21:58.986Z</time></trkpt><trkpt lat="40.109024921743035" lon="18.05379967960574"><ele>82.0</ele><time>2026-04-21T16:21:59.986Z</time></trkpt><trkpt lat="40.10922488671128" lon="18.05364724976737"><ele>82.0</ele><time>2026-04-21T16:22:00.986Z</time></trkpt><trkpt lat="40.10941656436093" lon="18.053492134155416"><ele>82.0</ele><time>2026-04-21T16:22:01.986Z</time></trkpt><trkpt lat="40.1096063029561" lon="18.053340416542383"><ele>82.0</ele><time>2026-04-21T16:22:02.986Z</time></trkpt><trkpt lat="40.109800710045185" lon="18.05319200532496"><ele>83.0</ele><time>2026-04-21T16:22:03.986Z</time></trkpt><trkpt lat="40.10999399789146" lon="18.053038522266366"><ele>84.0</ele><time>2026-04-21T16:22:04.986Z</time></trkpt><trkpt lat="40.11018623923782" lon="18.05288847620497"><ele>84.0</ele><time>2026-04-21T16:22:05.986Z</time></trkpt><trkpt lat="40.110378065807836" lon="18.052733695199798"><ele>84.0</ele><time>2026-04-21T16:22:06.986Z</time></trkpt><trkpt lat="40.11056743760153" lon="18.05257769782758"><ele>84.0</ele><time>2026-04-21T16:22:07.986Z</time></trkpt><trkpt lat="40.11076269186954" lon="18.05241849471489"><ele>83.5</ele><time>2026-04-21T16:22:08.986Z</time></trkpt><trkpt lat="40.11096496334581" lon="18.052265902189216"><ele>83.0</ele><time>2026-04-21T16:22:09.986Z</time></trkpt><trkpt lat="40.11116586268519" lon="18.052113519801342"><ele>83.0</ele><time>2026-04-21T16:22:10.986Z</time></trkpt><trkpt lat="40.11137078808497" lon="18.05196542908879"><ele>83.0</ele><time>2026-04-21T16:22:11.986Z</time></trkpt><trkpt lat="40.111574314367225" lon="18.051814918637895"><ele>83.0</ele><time>2026-04-21T16:22:12.986Z</time></trkpt><trkpt lat="40.11178188461385" lon="18.051659686728836"><ele>83.0</ele><time>2026-04-21T16:22:13.986Z</time></trkpt><trkpt lat="40.11198355254453" lon="18.05150686865415"><ele>83.0</ele><time>2026-04-21T16:22:14.986Z</time></trkpt><trkpt lat="40.11218870589281" lon="18.051352261152616"><ele>83.0</ele><time>2026-04-21T16:22:15.986Z</time></trkpt><trkpt lat="40.112392077744616" lon="18.0511915854918"><ele>84.0</ele><time>2026-04-21T16:22:16.986Z</time></trkpt><trkpt lat="40.11259953952455" lon="18.05102942884043"><ele>85.0</ele><time>2026-04-21T16:22:17.986Z</time></trkpt><trkpt lat="40.112806986779" lon="18.050871679146496"><ele>84.0</ele><time>2026-04-21T16:22:18.986Z</time></trkpt><trkpt lat="40.113013691438645" lon="18.050711449101307"><ele>83.0</ele><time>2026-04-21T16:22:19.986Z</time></trkpt><trkpt lat="40.11322214303381" lon="18.0505508616154"><ele>83.0</ele><time>2026-04-21T16:22:20.986Z</time></trkpt><trkpt lat="40.1134293732175" lon="18.050393814824574"><ele>83.0</ele><time>2026-04-21T16:22:21.985Z</time></trkpt><trkpt lat="40.11362668731301" lon="18.050245231661773"><ele>83.0</ele><time>2026-04-21T16:22:22.985Z</time></trkpt><trkpt lat="40.11381109240236" lon="18.050106579122136"><ele>83.0</ele><time>2026-04-21T16:22:23.985Z</time></trkpt><trkpt lat="40.113987677697565" lon="18.049973341949045"><ele>83.0</ele><time>2026-04-21T16:22:24.985Z</time></trkpt><trkpt lat="40.11417186344554" lon="18.049841730483763"><ele>82.66666666666667</ele><time>2026-04-21T16:22:25.985Z</time></trkpt><trkpt lat="40.114346314469614" lon="18.04969590715427"><ele>82.33333333333333</ele><time>2026-04-21T16:22:26.985Z</time></trkpt><trkpt lat="40.11453322378247" lon="18.049557345225963"><ele>82.0</ele><time>2026-04-21T16:22:27.985Z</time></trkpt><trkpt lat="40.11471621962866" lon="18.04942151868018"><ele>82.0</ele><time>2026-04-21T16:22:28.985Z</time></trkpt><trkpt lat="40.114886837734716" lon="18.04929145170127"><ele>82.0</ele><time>2026-04-21T16:22:29.985Z</time></trkpt><trkpt lat="40.115040457765275" lon="18.04916255562014"><ele>82.0</ele><time>2026-04-21T16:22:30.985Z</time></trkpt><trkpt lat="40.11519315436126" lon="18.049030417549442"><ele>81.33333333333333</ele><time>2026-04-21T16:22:31.985Z</time></trkpt><trkpt lat="40.115351531238446" lon="18.04889657814675"><ele>80.66666666666667</ele><time>2026-04-21T16:22:32.985Z</time></trkpt><trkpt lat="40.115519153958985" lon="18.048774859613015"><ele>80.0</ele><time>2026-04-21T16:22:33.985Z</time></trkpt><trkpt lat="40.1156903434726" lon="18.04865235657413"><ele>80.0</ele><time>2026-04-21T16:22:34.985Z</time></trkpt><trkpt lat="40.11586627535369" lon="18.048536621659334"><ele>80.0</ele><time>2026-04-21T16:22:35.985Z</time></trkpt><trkpt lat="40.11603296205909" lon="18.048431093745748"><ele>80.0</ele><time>2026-04-21T16:22:36.985Z</time></trkpt><trkpt lat="40.11618093244552" lon="18.048336623974198"><ele>80.0</ele><time>2026-04-21T16:22:37.985Z</time></trkpt><trkpt lat="40.11630884689568" lon="18.048256928732414"><ele>80.0</ele><time>2026-04-21T16:22:38.985Z</time></trkpt><trkpt lat="40.116439382587025" lon="18.04819059579943"><ele>80.0</ele><time>2026-04-21T16:22:39.985Z</time></trkpt><trkpt lat="40.11656737030357" lon="18.048153235562495"><ele>80.0</ele><time>2026-04-21T16:22:40.985Z</time></trkpt><trkpt lat="40.11669147234098" lon="18.04813600954233"><ele>80.2</ele><time>2026-04-21T16:22:41.985Z</time></trkpt><trkpt lat="40.11679987656775" lon="18.04813791558472"><ele>80.4</ele><time>2026-04-21T16:22:42.985Z</time></trkpt><trkpt lat="40.11690309453154" lon="18.048127428695107"><ele>80.6</ele><time>2026-04-21T16:22:43.985Z</time></trkpt><trkpt lat="40.11697457275748" lon="18.048072278829697"><ele>80.8</ele><time>2026-04-21T16:22:44.985Z</time></trkpt><trkpt lat="40.11705284628355" lon="18.04797610352127"><ele>81.0</ele><time>2026-04-21T16:22:45.985Z</time></trkpt><trkpt lat="40.117136613269366" lon="18.04783905079818"><ele>81.0</ele><time>2026-04-21T16:22:46.985Z</time></trkpt><trkpt lat="40.11723003241818" lon="18.047707362910103"><ele>81.0</ele><time>2026-04-21T16:22:47.985Z</time></trkpt><trkpt lat="40.11735006868523" lon="18.047604738691632"><ele>81.0</ele><time>2026-04-21T16:22:48.985Z</time></trkpt><trkpt lat="40.11749629818431" lon="18.04751751772274"><ele>81.0</ele><time>2026-04-21T16:22:49.985Z</time></trkpt><trkpt lat="40.11767132475485" lon="18.047433599193845"><ele>81.0</ele><time>2026-04-21T16:22:50.985Z</time></trkpt><trkpt lat="40.11786039081764" lon="18.04734974210855"><ele>81.0</ele><time>2026-04-21T16:22:51.985Z</time></trkpt><trkpt lat="40.11807098063433" lon="18.047261168300057"><ele>81.0</ele><time>2026-04-21T16:22:52.985Z</time></trkpt><trkpt lat="40.118273304174025" lon="18.047181744977213"><ele>81.0</ele><time>2026-04-21T16:22:53.985Z</time></trkpt><trkpt lat="40.11844939184738" lon="18.047106807940054"><ele>81.0</ele><time>2026-04-21T16:22:54.985Z</time></trkpt><trkpt lat="40.11860255942207" lon="18.047040955485816"><ele>81.0</ele><time>2026-04-21T16:22:55.985Z</time></trkpt><trkpt lat="40.11873699139837" lon="18.04698402999788"><ele>81.0</ele><time>2026-04-21T16:22:56.985Z</time></trkpt><trkpt lat="40.11885745657945" lon="18.046945314861464"><ele>81.0</ele><time>2026-04-21T16:22:57.985Z</time></trkpt><trkpt lat="40.11896826732003" lon="18.046935624897277"><ele>81.0</ele><time>2026-04-21T16:22:58.985Z</time></trkpt><trkpt lat="40.11909455135076" lon="18.04696071104558"><ele>81.0</ele><time>2026-04-21T16:22:59.985Z</time></trkpt><trkpt lat="40.119222202222396" lon="18.047032945856742"><ele>80.66666666666667</ele><time>2026-04-21T16:23:00.985Z</time></trkpt><trkpt lat="40.11935331695923" lon="18.047149651800503"><ele>80.33333333333334</ele><time>2026-04-21T16:23:01.985Z</time></trkpt><trkpt lat="40.11949644920514" lon="18.047288223840678"><ele>80.0</ele><time>2026-04-21T16:23:02.985Z</time></trkpt><trkpt lat="40.119646853649364" lon="18.04741558752246"><ele>80.0</ele><time>2026-04-21T16:23:03.985Z</time></trkpt><trkpt lat="40.11980563186317" lon="18.0475466409863"><ele>80.0</ele><time>2026-04-21T16:23:04.985Z</time></trkpt><trkpt lat="40.11997028193894" lon="18.047682682793138"><ele>80.0</ele><time>2026-04-21T16:23:05.985Z</time></trkpt><trkpt lat="40.12013650145676" lon="18.04783000204233"><ele>80.0</ele><time>2026-04-21T16:23:06.985Z</time></trkpt><trkpt lat="40.120310256540215" lon="18.047987137910244"><ele>80.0</ele><time>2026-04-21T16:23:07.985Z</time></trkpt><trkpt lat="40.12048946004418" lon="18.04814712061751"><ele>80.0</ele><time>2026-04-21T16:23:08.985Z</time></trkpt><trkpt lat="40.120676208379926" lon="18.0483126721878"><ele>81.0</ele><time>2026-04-21T16:23:09.985Z</time></trkpt><trkpt lat="40.120863190539" lon="18.04848032053663"><ele>82.0</ele><time>2026-04-21T16:23:10.985Z</time></trkpt><trkpt lat="40.121053827374766" lon="18.04864638718918"><ele>82.0</ele><time>2026-04-21T16:23:11.985Z</time></trkpt><trkpt lat="40.12124246703839" lon="18.04881017710315"><ele>82.0</ele><time>2026-04-21T16:23:12.985Z</time></trkpt><trkpt lat="40.121431357323445" lon="18.048978250490116"><ele>83.5</ele><time>2026-04-21T16:23:13.985Z</time></trkpt><trkpt lat="40.12162084877046" lon="18.049142079880635"><ele>85.0</ele><time>2026-04-21T16:23:14.985Z</time></trkpt><trkpt lat="40.12180968421817" lon="18.049310661533227"><ele>85.0</ele><time>2026-04-21T16:23:15.985Z</time></trkpt><trkpt lat="40.1219966672813" lon="18.04947594336217"><ele>85.0</ele><time>2026-04-21T16:23:16.985Z</time></trkpt><trkpt lat="40.122183973870904" lon="18.04963896495881"><ele>85.0</ele><time>2026-04-21T16:23:17.985Z</time></trkpt><trkpt lat="40.12237104845629" lon="18.04980745496501"><ele>85.0</ele><time>2026-04-21T16:23:18.985Z</time></trkpt><trkpt lat="40.12255868220298" lon="18.04997234023005"><ele>84.66666666666666</ele><time>2026-04-21T16:23:19.985Z</time></trkpt><trkpt lat="40.122746774072844" lon="18.05013963647783"><ele>84.33333333333333</ele><time>2026-04-21T16:23:20.985Z</time></trkpt><trkpt lat="40.12293212027763" lon="18.05029847284808"><ele>84.0</ele><time>2026-04-21T16:23:21.985Z</time></trkpt><trkpt lat="40.12312218119751" lon="18.050469346472354"><ele>84.5</ele><time>2026-04-21T16:23:22.985Z</time></trkpt><trkpt lat="40.12331355756612" lon="18.050636967398738"><ele>85.0</ele><time>2026-04-21T16:23:23.985Z</time></trkpt><trkpt lat="40.12350544265675" lon="18.0508066054316"><ele>84.33333333333333</ele><time>2026-04-21T16:23:24.985Z</time></trkpt><trkpt lat="40.123689663775615" lon="18.050968207222954"><ele>83.66666666666667</ele><time>2026-04-21T16:23:25.985Z</time></trkpt><trkpt lat="40.12387612270735" lon="18.05113382168332"><ele>83.0</ele><time>2026-04-21T16:23:26.985Z</time></trkpt><trkpt lat="40.12406042260558" lon="18.051300267603843"><ele>83.66666666666667</ele><time>2026-04-21T16:23:27.985Z</time></trkpt><trkpt lat="40.124246465500704" lon="18.051462153650256"><ele>84.33333333333333</ele><time>2026-04-21T16:23:28.985Z</time></trkpt><trkpt lat="40.124433176594465" lon="18.05162057539524"><ele>85.0</ele><time>2026-04-21T16:23:29.985Z</time></trkpt><trkpt lat="40.124623032238425" lon="18.051775515051506"><ele>85.5</ele><time>2026-04-21T16:23:30.985Z</time></trkpt><trkpt lat="40.124821807673634" lon="18.05191368480992"><ele>86.0</ele><time>2026-04-21T16:23:31.985Z</time></trkpt><trkpt lat="40.12502182447114" lon="18.052047933562218"><ele>86.0</ele><time>2026-04-21T16:23:32.985Z</time></trkpt><trkpt lat="40.125225601661285" lon="18.05217239311031"><ele>86.0</ele><time>2026-04-21T16:23:33.985Z</time></trkpt><trkpt lat="40.125438823097014" lon="18.052288533780274"><ele>86.0</ele><time>2026-04-21T16:23:34.985Z</time></trkpt><trkpt lat="40.12564198144567" lon="18.052401761316638"><ele>86.0</ele><time>2026-04-21T16:23:35.985Z</time></trkpt><trkpt lat="40.125851439337474" lon="18.052510629386145"><ele>86.0</ele><time>2026-04-21T16:23:36.985Z</time></trkpt><trkpt lat="40.12606383402437" lon="18.052615922424522"><ele>87.5</ele><time>2026-04-21T16:23:37.985Z</time></trkpt><trkpt lat="40.12627674231034" lon="18.052713520869005"><ele>89.0</ele><time>2026-04-21T16:23:38.985Z</time></trkpt><trkpt lat="40.12649089383079" lon="18.052807268143237"><ele>88.5</ele><time>2026-04-21T16:23:39.985Z</time></trkpt><trkpt lat="40.126711505758564" lon="18.05289382542738"><ele>88.0</ele><time>2026-04-21T16:23:40.985Z</time></trkpt><trkpt lat="40.12692903758833" lon="18.05296630974181"><ele>88.0</ele><time>2026-04-21T16:23:41.985Z</time></trkpt><trkpt lat="40.12714817438375" lon="18.053035811034572"><ele>88.0</ele><time>2026-04-21T16:23:42.985Z</time></trkpt><trkpt lat="40.12737094842006" lon="18.0530937163312"><ele>86.0</ele><time>2026-04-21T16:23:43.985Z</time></trkpt><trkpt lat="40.12759413887446" lon="18.05314293206571"><ele>84.0</ele><time>2026-04-21T16:23:44.985Z</time></trkpt><trkpt lat="40.12781665915842" lon="18.053187326894378"><ele>84.0</ele><time>2026-04-21T16:23:45.985Z</time></trkpt><trkpt lat="40.128041129954056" lon="18.053226846374255"><ele>84.0</ele><time>2026-04-21T16:23:46.985Z</time></trkpt><trkpt lat="40.12826486856925" lon="18.053261073447064"><ele>84.5</ele><time>2026-04-21T16:23:47.985Z</time></trkpt><trkpt lat="40.12849281581771" lon="18.053279683823675"><ele>85.0</ele><time>2026-04-21T16:23:48.985Z</time></trkpt><trkpt lat="40.12872112098151" lon="18.053299863518813"><ele>85.0</ele><time>2026-04-21T16:23:49.985Z</time></trkpt><trkpt lat="40.12894377703843" lon="18.053312040236676"><ele>85.0</ele><time>2026-04-21T16:23:50.985Z</time></trkpt><trkpt lat="40.12917000701022" lon="18.05330703889942"><ele>85.0</ele><time>2026-04-21T16:23:51.984Z</time></trkpt><trkpt lat="40.1294008314572" lon="18.053305399053205"><ele>85.0</ele><time>2026-04-21T16:23:52.984Z</time></trkpt><trkpt lat="40.12962795352766" lon="18.053294031148244"><ele>85.0</ele><time>2026-04-21T16:23:53.984Z</time></trkpt><trkpt lat="40.12985591358048" lon="18.053274887533952"><ele>85.0</ele><time>2026-04-21T16:23:54.984Z</time></trkpt><trkpt lat="40.130078247387345" lon="18.05324664753759"><ele>85.0</ele><time>2026-04-21T16:23:55.984Z</time></trkpt><trkpt lat="40.130302384365415" lon="18.05321058208097"><ele>85.0</ele><time>2026-04-21T16:23:56.984Z</time></trkpt><trkpt lat="40.13052817417983" lon="18.053172127005627"><ele>84.0</ele><time>2026-04-21T16:23:57.984Z</time></trkpt><trkpt lat="40.130751376176896" lon="18.05312245506143"><ele>83.0</ele><time>2026-04-21T16:23:58.984Z</time></trkpt><trkpt lat="40.13097461033399" lon="18.053064194176812"><ele>83.0</ele><time>2026-04-21T16:23:59.984Z</time></trkpt><trkpt lat="40.13119843361517" lon="18.052998753691885"><ele>83.0</ele><time>2026-04-21T16:24:00.984Z</time></trkpt><trkpt lat="40.1314184254414" lon="18.052935436308616"><ele>82.66666666666667</ele><time>2026-04-21T16:24:01.984Z</time></trkpt><trkpt lat="40.13163340082657" lon="18.052870552384086"><ele>82.33333333333333</ele><time>2026-04-21T16:24:02.984Z</time></trkpt><trkpt lat="40.13185170610113" lon="18.052806470068703"><ele>82.0</ele><time>2026-04-21T16:24:03.984Z</time></trkpt><trkpt lat="40.13207375904004" lon="18.0527397562997"><ele>82.0</ele><time>2026-04-21T16:24:04.984Z</time></trkpt><trkpt lat="40.13229124085141" lon="18.052671764733663"><ele>82.0</ele><time>2026-04-21T16:24:05.984Z</time></trkpt><trkpt lat="40.13250809485939" lon="18.05260674201692"><ele>82.0</ele><time>2026-04-21T16:24:06.984Z</time></trkpt><trkpt lat="40.13272877604912" lon="18.052542475370153"><ele>81.66666666666666</ele><time>2026-04-21T16:24:07.984Z</time></trkpt><trkpt lat="40.132947394258274" lon="18.052476332819968"><ele>81.33333333333333</ele><time>2026-04-21T16:24:08.984Z</time></trkpt><trkpt lat="40.133165465477575" lon="18.052407661025114"><ele>81.0</ele><time>2026-04-21T16:24:09.984Z</time></trkpt><trkpt lat="40.1333831836965" lon="18.05233459722039"><ele>80.5</ele><time>2026-04-21T16:24:10.984Z</time></trkpt><trkpt lat="40.133602734016385" lon="18.052265667199244"><ele>80.0</ele><time>2026-04-21T16:24:11.984Z</time></trkpt><trkpt lat="40.13382313172829" lon="18.05219544769579"><ele>80.0</ele><time>2026-04-21T16:24:12.984Z</time></trkpt><trkpt lat="40.134043469301396" lon="18.052122206974865"><ele>80.0</ele><time>2026-04-21T16:24:13.984Z</time></trkpt><trkpt lat="40.134262355145125" lon="18.052048058779484"><ele>79.5</ele><time>2026-04-21T16:24:14.984Z</time></trkpt><trkpt lat="40.13448523054615" lon="18.051984865832452"><ele>79.0</ele><time>2026-04-21T16:24:15.984Z</time></trkpt><trkpt lat="40.1347045214554" lon="18.051922132837564"><ele>77.0</ele><time>2026-04-21T16:24:16.984Z</time></trkpt><trkpt lat="40.13492519118124" lon="18.051857748327667"><ele>75.0</ele><time>2026-04-21T16:24:17.984Z</time></trkpt><trkpt lat="40.13514306813525" lon="18.051791008796627"><ele>75.0</ele><time>2026-04-21T16:24:18.984Z</time></trkpt><trkpt lat="40.13536490309903" lon="18.05172610675226"><ele>75.0</ele><time>2026-04-21T16:24:19.984Z</time></trkpt><trkpt lat="40.135584869879885" lon="18.0516609643195"><ele>74.0</ele><time>2026-04-21T16:24:20.984Z</time></trkpt><trkpt lat="40.13580593741754" lon="18.05159533961275"><ele>73.0</ele><time>2026-04-21T16:24:21.984Z</time></trkpt><trkpt lat="40.13602682409167" lon="18.051528022232805"><ele>73.0</ele><time>2026-04-21T16:24:22.984Z</time></trkpt><trkpt lat="40.13624733233645" lon="18.051461600954447"><ele>73.0</ele><time>2026-04-21T16:24:23.984Z</time></trkpt><trkpt lat="40.13646601928394" lon="18.05139429614709"><ele>73.0</ele><time>2026-04-21T16:24:24.984Z</time></trkpt><trkpt lat="40.13668518725706" lon="18.051328925989495"><ele>73.0</ele><time>2026-04-21T16:24:25.984Z</time></trkpt><trkpt lat="40.136902707558455" lon="18.051261552601275"><ele>73.0</ele><time>2026-04-21T16:24:26.984Z</time></trkpt><trkpt lat="40.13712285371984" lon="18.05119324007544"><ele>73.0</ele><time>2026-04-21T16:24:27.984Z</time></trkpt><trkpt lat="40.13734013285041" lon="18.051124551964474"><ele>73.0</ele><time>2026-04-21T16:24:28.984Z</time></trkpt><trkpt lat="40.13755855310748" lon="18.05105641628801"><ele>73.0</ele><time>2026-04-21T16:24:29.984Z</time></trkpt><trkpt lat="40.137773278254706" lon="18.050990199550085"><ele>72.33333333333333</ele><time>2026-04-21T16:24:30.984Z</time></trkpt><trkpt lat="40.137993107687755" lon="18.050924362527407"><ele>71.66666666666667</ele><time>2026-04-21T16:24:31.984Z</time></trkpt><trkpt lat="40.138210874794666" lon="18.050857983029424"><ele>71.0</ele><time>2026-04-21T16:24:32.984Z</time></trkpt><trkpt lat="40.13843079544953" lon="18.050790170049723"><ele>70.0</ele><time>2026-04-21T16:24:33.984Z</time></trkpt><trkpt lat="40.1386521953821" lon="18.05072071608112"><ele>69.0</ele><time>2026-04-21T16:24:34.984Z</time></trkpt><trkpt lat="40.138875239611906" lon="18.05065485502352"><ele>69.0</ele><time>2026-04-21T16:24:35.984Z</time></trkpt><trkpt lat="40.13909568258295" lon="18.0505869884403"><ele>69.0</ele><time>2026-04-21T16:24:36.984Z</time></trkpt><trkpt lat="40.13931742911745" lon="18.050514926258614"><ele>69.0</ele><time>2026-04-21T16:24:37.984Z</time></trkpt><trkpt lat="40.13953864667784" lon="18.05044733416149"><ele>69.0</ele><time>2026-04-21T16:24:38.984Z</time></trkpt><trkpt lat="40.13975386909447" lon="18.050379449735846"><ele>69.0</ele><time>2026-04-21T16:24:39.984Z</time></trkpt><trkpt lat="40.1399705708441" lon="18.050311505101764"><ele>68.5</ele><time>2026-04-21T16:24:40.984Z</time></trkpt><trkpt lat="40.14018981909517" lon="18.050244888331793"><ele>68.0</ele><time>2026-04-21T16:24:41.984Z</time></trkpt><trkpt lat="40.14041278707959" lon="18.050176605291444"><ele>68.0</ele><time>2026-04-21T16:24:42.984Z</time></trkpt><trkpt lat="40.14063335898177" lon="18.05010558045277"><ele>68.0</ele><time>2026-04-21T16:24:43.984Z</time></trkpt><trkpt lat="40.140854117643485" lon="18.050043874537778"><ele>67.5</ele><time>2026-04-21T16:24:44.984Z</time></trkpt><trkpt lat="40.14107569768903" lon="18.049981704815178"><ele>67.0</ele><time>2026-04-21T16:24:45.984Z</time></trkpt><trkpt lat="40.141298017934716" lon="18.04991243100329"><ele>66.0</ele><time>2026-04-21T16:24:46.984Z</time></trkpt><trkpt lat="40.141516949407546" lon="18.049845466461527"><ele>65.0</ele><time>2026-04-21T16:24:47.984Z</time></trkpt><trkpt lat="40.14173636186088" lon="18.04977689384775"><ele>64.33333333333334</ele><time>2026-04-21T16:24:48.984Z</time></trkpt><trkpt lat="40.14195762928929" lon="18.049712723533016"><ele>63.66666666666667</ele><time>2026-04-21T16:24:49.984Z</time></trkpt><trkpt lat="40.14217247235102" lon="18.04964331238813"><ele>63.0</ele><time>2026-04-21T16:24:50.984Z</time></trkpt><trkpt lat="40.14239279859994" lon="18.049578919678353"><ele>63.0</ele><time>2026-04-21T16:24:51.984Z</time></trkpt><trkpt lat="40.1426124982135" lon="18.04951622328255"><ele>63.0</ele><time>2026-04-21T16:24:52.984Z</time></trkpt><trkpt lat="40.142834120405404" lon="18.04945832710951"><ele>63.0</ele><time>2026-04-21T16:24:53.984Z</time></trkpt><trkpt lat="40.14305741781415" lon="18.049406355439846"><ele>63.0</ele><time>2026-04-21T16:24:54.984Z</time></trkpt><trkpt lat="40.14328077378372" lon="18.049358641526805"><ele>63.0</ele><time>2026-04-21T16:24:55.984Z</time></trkpt><trkpt lat="40.1435026450862" lon="18.049318238070953"><ele>63.0</ele><time>2026-04-21T16:24:56.984Z</time></trkpt><trkpt lat="40.14372532339407" lon="18.049289975288424"><ele>63.0</ele><time>2026-04-21T16:24:57.984Z</time></trkpt><trkpt lat="40.143950334706425" lon="18.049274424511594"><ele>62.0</ele><time>2026-04-21T16:24:58.984Z</time></trkpt><trkpt lat="40.14417922919426" lon="18.049255480186122"><ele>61.0</ele><time>2026-04-21T16:24:59.984Z</time></trkpt><trkpt lat="40.144410744084226" lon="18.049237272015855"><ele>61.0</ele><time>2026-04-21T16:25:00.984Z</time></trkpt><trkpt lat="40.144636026165976" lon="18.04922354705635"><ele>61.0</ele><time>2026-04-21T16:25:01.984Z</time></trkpt><trkpt lat="40.14486352714016" lon="18.049213070234963"><ele>60.0</ele><time>2026-04-21T16:25:02.984Z</time></trkpt><trkpt lat="40.145089340578814" lon="18.049203177193206"><ele>59.0</ele><time>2026-04-21T16:25:03.984Z</time></trkpt><trkpt lat="40.145321699966146" lon="18.049198174965042"><ele>59.0</ele><time>2026-04-21T16:25:04.984Z</time></trkpt><trkpt lat="40.14554448196489" lon="18.04919863005687"><ele>59.0</ele><time>2026-04-21T16:25:05.984Z</time></trkpt><trkpt lat="40.14577249572586" lon="18.049203191047496"><ele>59.0</ele><time>2026-04-21T16:25:06.984Z</time></trkpt><trkpt lat="40.14599408138372" lon="18.0492051445166"><ele>59.0</ele><time>2026-04-21T16:25:07.984Z</time></trkpt><trkpt lat="40.14621156377659" lon="18.049213384492"><ele>59.0</ele><time>2026-04-21T16:25:08.984Z</time></trkpt><trkpt lat="40.14643288248463" lon="18.049232116456764"><ele>58.5</ele><time>2026-04-21T16:25:09.984Z</time></trkpt><trkpt lat="40.14665343084167" lon="18.049258306669977"><ele>58.0</ele><time>2026-04-21T16:25:10.984Z</time></trkpt><trkpt lat="40.14688219064192" lon="18.049286297832428"><ele>58.0</ele><time>2026-04-21T16:25:11.984Z</time></trkpt><trkpt lat="40.14710690119455" lon="18.04931578353045"><ele>58.0</ele><time>2026-04-21T16:25:12.984Z</time></trkpt><trkpt lat="40.147332865173446" lon="18.049348077336113"><ele>57.5</ele><time>2026-04-21T16:25:13.985Z</time></trkpt><trkpt lat="40.14755832157532" lon="18.04938315986639"><ele>57.0</ele><time>2026-04-21T16:25:14.984Z</time></trkpt><trkpt lat="40.14778168228767" lon="18.049423446199132"><ele>57.0</ele><time>2026-04-21T16:25:15.984Z</time></trkpt><trkpt lat="40.148003732702094" lon="18.049467460979344"><ele>57.0</ele><time>2026-04-21T16:25:16.985Z</time></trkpt><trkpt lat="40.14822548486283" lon="18.049517724363362"><ele>57.0</ele><time>2026-04-21T16:25:17.984Z</time></trkpt><trkpt lat="40.148450332521904" lon="18.049569526574714"><ele>57.0</ele><time>2026-04-21T16:25:18.984Z</time></trkpt><trkpt lat="40.148673830012186" lon="18.049625495222333"><ele>57.0</ele><time>2026-04-21T16:25:19.984Z</time></trkpt><trkpt lat="40.14890223036002" lon="18.04967972977835"><ele>57.0</ele><time>2026-04-21T16:25:20.985Z</time></trkpt><trkpt lat="40.149122816719725" lon="18.049733307733934"><ele>55.5</ele><time>2026-04-21T16:25:21.985Z</time></trkpt><trkpt lat="40.149343622155584" lon="18.049785485785744"><ele>54.0</ele><time>2026-04-21T16:25:22.984Z</time></trkpt><trkpt lat="40.1495660875614" lon="18.049836062896663"><ele>54.0</ele><time>2026-04-21T16:25:23.984Z</time></trkpt><trkpt lat="40.149789423152626" lon="18.049887266477835"><ele>54.0</ele><time>2026-04-21T16:25:24.984Z</time></trkpt><trkpt lat="40.150007217869344" lon="18.049930935382857"><ele>54.0</ele><time>2026-04-21T16:25:25.985Z</time></trkpt><trkpt lat="40.15021917680346" lon="18.04998068130139"><ele>53.33333333333333</ele><time>2026-04-21T16:25:26.984Z</time></trkpt><trkpt lat="40.15042878041597" lon="18.050031275522073"><ele>52.666666666666664</ele><time>2026-04-21T16:25:27.984Z</time></trkpt><trkpt lat="40.15063081250961" lon="18.05008274455929"><ele>52.0</ele><time>2026-04-21T16:25:28.984Z</time></trkpt><trkpt lat="40.15083154608525" lon="18.050139253986792"><ele>51.666666666666664</ele><time>2026-04-21T16:25:29.984Z</time></trkpt><trkpt lat="40.15103592010232" lon="18.050185323873375"><ele>51.33333333333333</ele><time>2026-04-21T16:25:30.984Z</time></trkpt><trkpt lat="40.15123781865611" lon="18.050234838267443"><ele>51.0</ele><time>2026-04-21T16:25:31.984Z</time></trkpt><trkpt lat="40.151436485753116" lon="18.05028143226546"><ele>50.33333333333333</ele><time>2026-04-21T16:25:32.984Z</time></trkpt><trkpt lat="40.151634599814514" lon="18.050325455822758"><ele>49.666666666666664</ele><time>2026-04-21T16:25:33.984Z</time></trkpt><trkpt lat="40.15183217267214" lon="18.05037280526269"><ele>49.0</ele><time>2026-04-21T16:25:34.984Z</time></trkpt><trkpt lat="40.152030352571195" lon="18.050418839326255"><ele>49.0</ele><time>2026-04-21T16:25:35.984Z</time></trkpt><trkpt lat="40.15222613910803" lon="18.050465057104258"><ele>49.0</ele><time>2026-04-21T16:25:36.984Z</time></trkpt><trkpt lat="40.152424384454115" lon="18.050513387149856"><ele>49.0</ele><time>2026-04-21T16:25:37.984Z</time></trkpt><trkpt lat="40.152624708500454" lon="18.050562954495508"><ele>48.666666666666664</ele><time>2026-04-21T16:25:38.984Z</time></trkpt><trkpt lat="40.152828747157855" lon="18.050613341855904"><ele>48.33333333333333</ele><time>2026-04-21T16:25:39.984Z</time></trkpt><trkpt lat="40.153034566356176" lon="18.050661853605465"><ele>48.0</ele><time>2026-04-21T16:25:40.984Z</time></trkpt><trkpt lat="40.15323834150841" lon="18.0507102320336"><ele>48.0</ele><time>2026-04-21T16:25:41.984Z</time></trkpt><trkpt lat="40.15344430793434" lon="18.050764642837905"><ele>48.0</ele><time>2026-04-21T16:25:42.984Z</time></trkpt><trkpt lat="40.15362680901268" lon="18.050851568204077"><ele>48.0</ele><time>2026-04-21T16:25:43.984Z</time></trkpt><trkpt lat="40.15377503107587" lon="18.05098898614699"><ele>48.0</ele><time>2026-04-21T16:25:44.984Z</time></trkpt><trkpt lat="40.15389735260999" lon="18.05114960639079"><ele>48.0</ele><time>2026-04-21T16:25:45.984Z</time></trkpt><trkpt lat="40.15397518343941" lon="18.051335968446804"><ele>48.0</ele><time>2026-04-21T16:25:46.984Z</time></trkpt><trkpt lat="40.154019752317566" lon="18.05155710812168"><ele>47.666666666666664</ele><time>2026-04-21T16:25:47.984Z</time></trkpt><trkpt lat="40.154026266711725" lon="18.051824214119907"><ele>47.33333333333333</ele><time>2026-04-21T16:25:48.984Z</time></trkpt><trkpt lat="40.15399851965129" lon="18.052135508274272"><ele>47.0</ele><time>2026-04-21T16:25:49.984Z</time></trkpt><trkpt lat="40.15512734719894" lon="18.05118909186151"><ele>47.0</ele><time>2026-04-21T16:25:50.984Z</time></trkpt><trkpt lat="40.155339404996155" lon="18.051259528286984"><ele>47.0</ele><time>2026-04-21T16:25:51.984Z</time></trkpt><trkpt lat="40.15554824566849" lon="18.051336860387217"><ele>47.0</ele><time>2026-04-21T16:25:52.984Z</time></trkpt><trkpt lat="40.155756088088424" lon="18.051425629134027"><ele>47.0</ele><time>2026-04-21T16:25:53.984Z</time></trkpt><trkpt lat="40.15595718233088" lon="18.051522432717423"><ele>47.0</ele><time>2026-04-21T16:25:54.984Z</time></trkpt><trkpt lat="40.15615690202198" lon="18.05163203586242"><ele>47.0</ele><time>2026-04-21T16:25:55.984Z</time></trkpt><trkpt lat="40.15634460606781" lon="18.051742410658793"><ele>47.0</ele><time>2026-04-21T16:25:56.984Z</time></trkpt><trkpt lat="40.15651265769286" lon="18.051856798415226"><ele>47.0</ele><time>2026-04-21T16:25:57.984Z</time></trkpt><trkpt lat="40.156667514409" lon="18.051972961084378"><ele>47.0</ele><time>2026-04-21T16:25:58.984Z</time></trkpt><trkpt lat="40.15680382166222" lon="18.05207428613037"><ele>47.0</ele><time>2026-04-21T16:25:59.984Z</time></trkpt><trkpt lat="40.15692592406389" lon="18.052161186580854"><ele>47.0</ele><time>2026-04-21T16:26:00.984Z</time></trkpt><trkpt lat="40.15703951419259" lon="18.052245962622127"><ele>47.0</ele><time>2026-04-21T16:26:01.984Z</time></trkpt><trkpt lat="40.15713465813083" lon="18.05233118490834"><ele>47.0</ele><time>2026-04-21T16:26:02.984Z</time></trkpt><trkpt lat="40.15722069544399" lon="18.05242393496553"><ele>46.8</ele><time>2026-04-21T16:26:03.983Z</time></trkpt><trkpt lat="40.15728888311974" lon="18.052524056692423"><ele>46.6</ele><time>2026-04-21T16:26:04.983Z</time></trkpt><trkpt lat="40.15734443395985" lon="18.052642758594313"><ele>46.4</ele><time>2026-04-21T16:26:05.983Z</time></trkpt><trkpt lat="40.15738651571611" lon="18.052780504336305"><ele>46.199999999999996</ele><time>2026-04-21T16:26:06.983Z</time></trkpt><trkpt lat="40.1574129158555" lon="18.052932031106927"><ele>46.0</ele><time>2026-04-21T16:26:07.983Z</time></trkpt><trkpt lat="40.15742030181697" lon="18.053083558499146"><ele>46.0</ele><time>2026-04-21T16:26:08.983Z</time></trkpt><trkpt lat="40.157413855774315" lon="18.053244922692404"><ele>46.0</ele><time>2026-04-21T16:26:09.983Z</time></trkpt><trkpt lat="40.15738386069329" lon="18.053418363462672"><ele>46.0</ele><time>2026-04-21T16:26:10.983Z</time></trkpt><trkpt lat="40.15733703387003" lon="18.053587428545132"><ele>46.0</ele><time>2026-04-21T16:26:11.983Z</time></trkpt><trkpt lat="40.157273094918466" lon="18.053739470636298"><ele>45.75</ele><time>2026-04-21T16:26:12.983Z</time></trkpt><trkpt lat="40.15721234365577" lon="18.05388452401648"><ele>45.5</ele><time>2026-04-21T16:26:13.983Z</time></trkpt><trkpt lat="40.157120508612564" lon="18.054018046963236"><ele>45.25</ele><time>2026-04-21T16:26:14.983Z</time></trkpt><trkpt lat="40.15714029296587" lon="18.054195058118264"><ele>45.0</ele><time>2026-04-21T16:26:15.983Z</time></trkpt><trkpt lat="40.15717649201364" lon="18.054389271416436"><ele>44.666666666666664</ele><time>2026-04-21T16:26:16.983Z</time></trkpt><trkpt lat="40.15723126935885" lon="18.05457338293391"><ele>44.33333333333333</ele><time>2026-04-21T16:26:17.983Z</time></trkpt><trkpt lat="40.15731059187508" lon="18.054754900079942"><ele>44.0</ele><time>2026-04-21T16:26:18.983Z</time></trkpt><trkpt lat="40.15743005222397" lon="18.05494232075716"><ele>43.5</ele><time>2026-04-21T16:26:19.983Z</time></trkpt><trkpt lat="40.15755718540791" lon="18.05508226776677"><ele>43.0</ele><time>2026-04-21T16:26:20.983Z</time></trkpt><trkpt lat="40.15764182410425" lon="18.055133375256464"><ele>42.5</ele><time>2026-04-21T16:26:21.983Z</time></trkpt><trkpt lat="40.157545374544675" lon="18.05514466066364"><ele>42.0</ele><time>2026-04-21T16:26:22.983Z</time></trkpt><trkpt lat="40.15756374651643" lon="18.055277813270163"><ele>42.0</ele><time>2026-04-21T16:26:24.983Z</time></trkpt><trkpt lat="40.15762445516514" lon="18.055373693425892"><ele>42.0</ele><time>2026-04-21T16:26:26.983Z</time></trkpt><trkpt lat="40.15769286387446" lon="18.055439352873123"><ele>42.0</ele><time>2026-04-21T16:26:28.983Z</time></trkpt><trkpt lat="40.157749890437714" lon="18.05548194850753"><ele>42.0</ele><time>2026-04-21T16:26:40.983Z</time></trkpt><trkpt lat="40.15788278687143" lon="18.055455223581436"><ele>42.0</ele><time>2026-04-21T16:27:12.983Z</time></trkpt><trkpt lat="40.157983763018336" lon="18.055385340591737"><ele>42.0</ele><time>2026-04-21T16:27:13.983Z</time></trkpt><trkpt lat="40.15806218405396" lon="18.055265534396376"><ele>42.0</ele><time>2026-04-21T16:27:14.983Z</time></trkpt><trkpt lat="40.15815161736249" lon="18.055155593050355"><ele>42.0</ele><time>2026-04-21T16:27:15.983Z</time></trkpt><trkpt lat="40.15825305329406" lon="18.055049878735936"><ele>42.0</ele><time>2026-04-21T16:27:16.983Z</time></trkpt><trkpt lat="40.15835476361034" lon="18.05495096985514"><ele>43.666666666666664</ele><time>2026-04-21T16:27:17.983Z</time></trkpt><trkpt lat="40.15847443196356" lon="18.054828457657763"><ele>45.33333333333333</ele><time>2026-04-21T16:27:18.983Z</time></trkpt><trkpt lat="40.15860921113249" lon="18.054692633881995"><ele>47.0</ele><time>2026-04-21T16:27:19.984Z</time></trkpt><trkpt lat="40.158752641556944" lon="18.05454280703927"><ele>47.0</ele><time>2026-04-21T16:27:20.984Z</time></trkpt><trkpt lat="40.15890052974136" lon="18.054391385044926"><ele>47.0</ele><time>2026-04-21T16:27:21.984Z</time></trkpt><trkpt lat="40.15906487761747" lon="18.05424200291759"><ele>47.0</ele><time>2026-04-21T16:27:22.984Z</time></trkpt><trkpt lat="40.15922798912114" lon="18.05409282715678"><ele>45.666666666666664</ele><time>2026-04-21T16:27:23.983Z</time></trkpt><trkpt lat="40.15939176936791" lon="18.053948219382697"><ele>44.333333333333336</ele><time>2026-04-21T16:27:24.983Z</time></trkpt><trkpt lat="40.15952184932393" lon="18.053827025122736"><ele>43.0</ele><time>2026-04-21T16:27:25.983Z</time></trkpt><trkpt lat="40.15962807137239" lon="18.05370706086544"><ele>43.0</ele><time>2026-04-21T16:27:26.983Z</time></trkpt><trkpt lat="40.15973136659027" lon="18.053611495354257"><ele>43.0</ele><time>2026-04-21T16:27:27.983Z</time></trkpt><trkpt lat="40.15979660660467" lon="18.053573277787624"><ele>43.0</ele><time>2026-04-21T16:27:28.983Z</time></trkpt><trkpt lat="40.15990263242087" lon="18.053558120076"><ele>43.0</ele><time>2026-04-21T16:27:30.984Z</time></trkpt><trkpt lat="40.15996661234899" lon="18.053582094319935"><ele>43.0</ele><time>2026-04-21T16:27:31.984Z</time></trkpt><trkpt lat="40.160065459840816" lon="18.05361620754516"><ele>43.25</ele><time>2026-04-21T16:27:32.983Z</time></trkpt><trkpt lat="40.16012615256935" lon="18.053645108491782"><ele>43.5</ele><time>2026-04-21T16:27:33.983Z</time></trkpt><trkpt lat="40.160294582949476" lon="18.05355279942865"><ele>43.75</ele><time>2026-04-21T16:27:34.983Z</time></trkpt><trkpt lat="40.16038520331631" lon="18.05348444230635"><ele>44.0</ele><time>2026-04-21T16:27:35.983Z</time></trkpt><trkpt lat="40.160461310577" lon="18.05338839307783"><ele>44.0</ele><time>2026-04-21T16:27:36.983Z</time></trkpt><trkpt lat="40.160510978546476" lon="18.053265440186046"><ele>44.0</ele><time>2026-04-21T16:27:37.983Z</time></trkpt><trkpt lat="40.160529023622615" lon="18.05312270303006"><ele>44.0</ele><time>2026-04-21T16:27:38.983Z</time></trkpt><trkpt lat="40.16051416279443" lon="18.05296015311131"><ele>44.0</ele><time>2026-04-21T16:27:39.983Z</time></trkpt><trkpt lat="40.16048356309568" lon="18.052799494580114"><ele>44.0</ele><time>2026-04-21T16:27:40.983Z</time></trkpt><trkpt lat="40.160480786539566" lon="18.052660245386026"><ele>44.0</ele><time>2026-04-21T16:27:41.983Z</time></trkpt><trkpt lat="40.16050628364579" lon="18.05255206172537"><ele>44.0</ele><time>2026-04-21T16:27:42.983Z</time></trkpt><trkpt lat="40.16056282000463" lon="18.05246207747322"><ele>44.0</ele><time>2026-04-21T16:27:43.983Z</time></trkpt><trkpt lat="40.16065403315345" lon="18.052368475929875"><ele>44.0</ele><time>2026-04-21T16:27:44.983Z</time></trkpt><trkpt lat="40.16076986264775" lon="18.05226604884551"><ele>44.666666666666664</ele><time>2026-04-21T16:27:45.983Z</time></trkpt><trkpt lat="40.16090617034632" lon="18.052147831205062"><ele>45.333333333333336</ele><time>2026-04-21T16:27:46.983Z</time></trkpt><trkpt lat="40.161055052328145" lon="18.052006816973623"><ele>46.0</ele><time>2026-04-21T16:27:47.983Z</time></trkpt><trkpt lat="40.16121530439867" lon="18.051856734558395"><ele>46.0</ele><time>2026-04-21T16:27:48.983Z</time></trkpt><trkpt lat="40.161384389423226" lon="18.051696357499264"><ele>46.0</ele><time>2026-04-21T16:27:49.983Z</time></trkpt><trkpt lat="40.1615592776516" lon="18.051531585508005"><ele>46.0</ele><time>2026-04-21T16:27:50.983Z</time></trkpt><trkpt lat="40.16173773671715" lon="18.05136360658204"><ele>46.0</ele><time>2026-04-21T16:27:51.983Z</time></trkpt><trkpt lat="40.161917796009426" lon="18.051192034915793"><ele>46.0</ele><time>2026-04-21T16:27:52.983Z</time></trkpt><trkpt lat="40.16209916541493" lon="18.051019016847125"><ele>46.0</ele><time>2026-04-21T16:27:53.983Z</time></trkpt><trkpt lat="40.16227580493173" lon="18.05085147118903"><ele>45.0</ele><time>2026-04-21T16:27:54.983Z</time></trkpt><trkpt lat="40.162450536822526" lon="18.05068763874"><ele>44.0</ele><time>2026-04-21T16:27:55.983Z</time></trkpt><trkpt lat="40.16263677975589" lon="18.050520390131297"><ele>43.0</ele><time>2026-04-21T16:27:56.983Z</time></trkpt><trkpt lat="40.162801717040104" lon="18.0503587929205"><ele>43.0</ele><time>2026-04-21T16:27:57.983Z</time></trkpt><trkpt lat="40.16296937465233" lon="18.050199956547086"><ele>43.0</ele><time>2026-04-21T16:27:58.983Z</time></trkpt><trkpt lat="40.163132757992045" lon="18.050033540334905"><ele>43.0</ele><time>2026-04-21T16:27:59.983Z</time></trkpt><trkpt lat="40.163299276453124" lon="18.0498688077001"><ele>42.66666666666667</ele><time>2026-04-21T16:28:00.983Z</time></trkpt><trkpt lat="40.16347133798174" lon="18.04970571980048"><ele>42.333333333333336</ele><time>2026-04-21T16:28:01.983Z</time></trkpt><trkpt lat="40.163648946146864" lon="18.049539140655217"><ele>42.0</ele><time>2026-04-21T16:28:02.983Z</time></trkpt><trkpt lat="40.16382922099907" lon="18.049371556114476"><ele>42.0</ele><time>2026-04-21T16:28:03.983Z</time></trkpt><trkpt lat="40.164007672246825" lon="18.049205591759854"><ele>42.0</ele><time>2026-04-21T16:28:04.983Z</time></trkpt><trkpt lat="40.16418589077619" lon="18.049036773227673"><ele>42.0</ele><time>2026-04-21T16:28:05.983Z</time></trkpt><trkpt lat="40.16436000875665" lon="18.04886328088345"><ele>42.0</ele><time>2026-04-21T16:28:06.983Z</time></trkpt><trkpt lat="40.164539911185166" lon="18.04869275570564"><ele>42.0</ele><time>2026-04-21T16:28:07.983Z</time></trkpt><trkpt lat="40.16471710413367" lon="18.0485203577165"><ele>42.0</ele><time>2026-04-21T16:28:08.983Z</time></trkpt><trkpt lat="40.1648963962953" lon="18.048343494157386"><ele>41.333333333333336</ele><time>2026-04-21T16:28:09.983Z</time></trkpt><trkpt lat="40.16507361046164" lon="18.04817200102916"><ele>40.66666666666667</ele><time>2026-04-21T16:28:10.983Z</time></trkpt><trkpt lat="40.16524874370881" lon="18.047999736112168"><ele>40.0</ele><time>2026-04-21T16:28:11.983Z</time></trkpt><trkpt lat="40.165418753175004" lon="18.04782586878415"><ele>40.0</ele><time>2026-04-21T16:28:12.983Z</time></trkpt><trkpt lat="40.16558605410128" lon="18.047641466270488"><ele>40.0</ele><time>2026-04-21T16:28:13.983Z</time></trkpt><trkpt lat="40.165746968956526" lon="18.047449718865465"><ele>40.0</ele><time>2026-04-21T16:28:14.983Z</time></trkpt><trkpt lat="40.16590432878267" lon="18.04724871127406"><ele>40.333333333333336</ele><time>2026-04-21T16:28:15.983Z</time></trkpt><trkpt lat="40.166059150208675" lon="18.04704629587892"><ele>40.666666666666664</ele><time>2026-04-21T16:28:16.983Z</time></trkpt><trkpt lat="40.166210533787854" lon="18.046837263232273"><ele>41.0</ele><time>2026-04-21T16:28:17.983Z</time></trkpt><trkpt lat="40.166357303256014" lon="18.046621539165063"><ele>40.33333333333333</ele><time>2026-04-21T16:28:18.983Z</time></trkpt><trkpt lat="40.16649939786464" lon="18.04640709927795"><ele>39.666666666666664</ele><time>2026-04-21T16:28:19.983Z</time></trkpt><trkpt lat="40.1666163833552" lon="18.04619361726784"><ele>39.0</ele><time>2026-04-21T16:28:20.983Z</time></trkpt><trkpt lat="40.166727976260745" lon="18.045995318807726"><ele>39.0</ele><time>2026-04-21T16:28:21.983Z</time></trkpt><trkpt lat="40.166836536863705" lon="18.045802332429737"><ele>39.0</ele><time>2026-04-21T16:28:22.983Z</time></trkpt><trkpt lat="40.16694179636694" lon="18.045601941951883"><ele>39.0</ele><time>2026-04-21T16:28:23.983Z</time></trkpt><trkpt lat="40.16704254256953" lon="18.045399768193132"><ele>39.0</ele><time>2026-04-21T16:28:24.983Z</time></trkpt><trkpt lat="40.1671343360565" lon="18.04520707802402"><ele>39.0</ele><time>2026-04-21T16:28:25.983Z</time></trkpt><trkpt lat="40.167213210390244" lon="18.045015156919664"><ele>39.0</ele><time>2026-04-21T16:28:26.983Z</time></trkpt><trkpt lat="40.167285631691584" lon="18.044828078048983"><ele>39.0</ele><time>2026-04-21T16:28:27.983Z</time></trkpt><trkpt lat="40.16735110639528" lon="18.044656728532658"><ele>39.0</ele><time>2026-04-21T16:28:28.983Z</time></trkpt><trkpt lat="40.167407485316126" lon="18.044498703467667"><ele>39.0</ele><time>2026-04-21T16:28:29.983Z</time></trkpt><trkpt lat="40.16745726305765" lon="18.0443586967015"><ele>39.0</ele><time>2026-04-21T16:28:30.983Z</time></trkpt><trkpt lat="40.167490215682854" lon="18.04425331665731"><ele>39.0</ele><time>2026-04-21T16:28:31.983Z</time></trkpt><trkpt lat="40.16751784844684" lon="18.044170072641997"><ele>39.0</ele><time>2026-04-21T16:28:32.983Z</time></trkpt><trkpt lat="40.16756865733023" lon="18.04406735580622"><ele>39.0</ele><time>2026-04-21T16:28:34.983Z</time></trkpt><trkpt lat="40.167651130178676" lon="18.044001281821203"><ele>39.0</ele><time>2026-04-21T16:28:36.983Z</time></trkpt><trkpt lat="40.16775656360241" lon="18.043905516995732"><ele>39.0</ele><time>2026-04-21T16:28:38.983Z</time></trkpt><trkpt lat="40.16779145333827" lon="18.04383341771885"><ele>39.285714285714285</ele><time>2026-04-21T16:28:39.983Z</time></trkpt><trkpt lat="40.16779947628064" lon="18.043750517025696"><ele>39.57142857142857</ele><time>2026-04-21T16:28:40.983Z</time></trkpt><trkpt lat="40.16779028884647" lon="18.043661144519767"><ele>39.857142857142854</ele><time>2026-04-21T16:28:41.983Z</time></trkpt><trkpt lat="40.1677777089161" lon="18.043573981259918"><ele>40.14285714285714</ele><time>2026-04-21T16:28:42.983Z</time></trkpt><trkpt lat="40.16777240140643" lon="18.0434915369204"><ele>40.42857142857143</ele><time>2026-04-21T16:28:43.983Z</time></trkpt><trkpt lat="40.16777657503922" lon="18.043404468999803"><ele>40.71428571428571</ele><time>2026-04-21T16:28:44.983Z</time></trkpt><trkpt lat="40.16779483391619" lon="18.043312129903104"><ele>41.0</ele><time>2026-04-21T16:28:45.983Z</time></trkpt><trkpt lat="40.16782949249282" lon="18.043198656189862"><ele>41.0</ele><time>2026-04-21T16:28:46.983Z</time></trkpt><trkpt lat="40.167871087521185" lon="18.04306197680794"><ele>41.0</ele><time>2026-04-21T16:28:47.983Z</time></trkpt><trkpt lat="40.167920244638104" lon="18.042908154112105"><ele>41.0</ele><time>2026-04-21T16:28:48.983Z</time></trkpt><trkpt lat="40.16796515325197" lon="18.04274463888882"><ele>41.0</ele><time>2026-04-21T16:28:49.983Z</time></trkpt><trkpt lat="40.16801377291776" lon="18.04257442825492"><ele>41.33333333333333</ele><time>2026-04-21T16:28:50.983Z</time></trkpt><trkpt lat="40.16806068367145" lon="18.04238915960687"><ele>41.666666666666664</ele><time>2026-04-21T16:28:51.983Z</time></trkpt><trkpt lat="40.168109436529456" lon="18.042183306632072"><ele>42.0</ele><time>2026-04-21T16:28:52.983Z</time></trkpt><trkpt lat="40.16815655707187" lon="18.042000251690723"><ele>42.0</ele><time>2026-04-21T16:28:53.983Z</time></trkpt><trkpt lat="40.16819675810682" lon="18.04184147524885"><ele>42.0</ele><time>2026-04-21T16:28:54.983Z</time></trkpt><trkpt lat="40.16823811856613" lon="18.0417003624691"><ele>42.0</ele><time>2026-04-21T16:28:55.983Z</time></trkpt><trkpt lat="40.16828180686945" lon="18.041567789178337"><ele>42.0</ele><time>2026-04-21T16:28:56.983Z</time></trkpt><trkpt lat="40.1683246877704" lon="18.041468631351044"><ele>42.0</ele><time>2026-04-21T16:28:57.983Z</time></trkpt><trkpt lat="40.16835907938648" lon="18.041386498017197"><ele>42.0</ele><time>2026-04-21T16:28:58.982Z</time></trkpt><trkpt lat="40.16844078327551" lon="18.041234581554328"><ele>42.0</ele><time>2026-04-21T16:29:00.982Z</time></trkpt><trkpt lat="40.168506163830045" lon="18.041133583955002"><ele>42.0</ele><time>2026-04-21T16:29:01.982Z</time></trkpt><trkpt lat="40.16857034550393" lon="18.04102072281549"><ele>42.0</ele><time>2026-04-21T16:29:02.982Z</time></trkpt><trkpt lat="40.16863160354039" lon="18.040889648642377"><ele>42.0</ele><time>2026-04-21T16:29:03.982Z</time></trkpt><trkpt lat="40.16870296521565" lon="18.040753201316324"><ele>42.0</ele><time>2026-04-21T16:29:04.982Z</time></trkpt><trkpt lat="40.16877712461299" lon="18.040611511082055"><ele>42.0</ele><time>2026-04-21T16:29:05.982Z</time></trkpt><trkpt lat="40.16885041112775" lon="18.040462011827383"><ele>42.0</ele><time>2026-04-21T16:29:06.982Z</time></trkpt><trkpt lat="40.16891691215354" lon="18.040318246046674"><ele>42.0</ele><time>2026-04-21T16:29:07.982Z</time></trkpt><trkpt lat="40.168988690989686" lon="18.040179761408847"><ele>42.0</ele><time>2026-04-21T16:29:08.982Z</time></trkpt><trkpt lat="40.1690647878596" lon="18.040048798980035"><ele>42.0</ele><time>2026-04-21T16:29:09.982Z</time></trkpt><trkpt lat="40.16913255122975" lon="18.03992134623503"><ele>42.0</ele><time>2026-04-21T16:29:10.982Z</time></trkpt><trkpt lat="40.16920459306896" lon="18.039808011669045"><ele>41.5</ele><time>2026-04-21T16:29:11.982Z</time></trkpt><trkpt lat="40.16927103430878" lon="18.0397135641138"><ele>41.0</ele><time>2026-04-21T16:29:12.982Z</time></trkpt><trkpt lat="40.16933851285162" lon="18.039633696798347"><ele>40.5</ele><time>2026-04-21T16:29:13.982Z</time></trkpt><trkpt lat="40.16940483503226" lon="18.039574584480413"><ele>40.0</ele><time>2026-04-21T16:29:14.982Z</time></trkpt><trkpt lat="40.16946865309556" lon="18.039526477619837"><ele>39.5</ele><time>2026-04-21T16:29:15.982Z</time></trkpt><trkpt lat="40.169521707260685" lon="18.039476023726124"><ele>39.0</ele><time>2026-04-21T16:29:16.982Z</time></trkpt><trkpt lat="40.16961588781009" lon="18.03940363326454"><ele>39.0</ele><time>2026-04-21T16:29:18.982Z</time></trkpt><trkpt lat="40.16970230580146" lon="18.039335871570497"><ele>39.0</ele><time>2026-04-21T16:29:20.982Z</time></trkpt><trkpt lat="40.16976534441234" lon="18.039252839532686"><ele>39.0</ele><time>2026-04-21T16:29:22.982Z</time></trkpt><trkpt lat="40.16982551510354" lon="18.03918339029023"><ele>39.0</ele><time>2026-04-21T16:29:24.982Z</time></trkpt><trkpt lat="40.16991004923441" lon="18.039114846576158"><ele>39.0</ele><time>2026-04-21T16:29:27.983Z</time></trkpt><trkpt lat="40.169967326962976" lon="18.039063647617947"><ele>39.0</ele><time>2026-04-21T16:29:29.983Z</time></trkpt><trkpt lat="40.170033013963526" lon="18.038982287440998"><ele>39.6</ele><time>2026-04-21T16:29:31.983Z</time></trkpt><trkpt lat="40.17013423925933" lon="18.03888425767096"><ele>40.2</ele><time>2026-04-21T16:29:33.983Z</time></trkpt><trkpt lat="40.170192346361155" lon="18.03881046311567"><ele>40.800000000000004</ele><time>2026-04-21T16:29:34.983Z</time></trkpt><trkpt lat="40.170259264733666" lon="18.038734307482788"><ele>41.4</ele><time>2026-04-21T16:29:35.983Z</time></trkpt><trkpt lat="40.17033245239201" lon="18.038664160898755"><ele>42.0</ele><time>2026-04-21T16:29:36.983Z</time></trkpt><trkpt lat="40.170415967044406" lon="18.038595941238025"><ele>42.0</ele><time>2026-04-21T16:29:37.982Z</time></trkpt><trkpt lat="40.170491622922405" lon="18.038511716631998"><ele>42.0</ele><time>2026-04-21T16:29:38.983Z</time></trkpt><trkpt lat="40.17057720370113" lon="18.038431355570566"><ele>42.0</ele><time>2026-04-21T16:29:39.983Z</time></trkpt><trkpt lat="40.17066171878577" lon="18.038350666268357"><ele>42.0</ele><time>2026-04-21T16:29:40.983Z</time></trkpt><trkpt lat="40.17074944683324" lon="18.03825900580188"><ele>42.0</ele><time>2026-04-21T16:29:41.983Z</time></trkpt><trkpt lat="40.1708385455095" lon="18.038170495466414"><ele>42.0</ele><time>2026-04-21T16:29:42.983Z</time></trkpt><trkpt lat="40.17092568478989" lon="18.03807625348675"><ele>42.0</ele><time>2026-04-21T16:29:43.983Z</time></trkpt><trkpt lat="40.170999802198665" lon="18.037988121167825"><ele>42.0</ele><time>2026-04-21T16:29:44.983Z</time></trkpt><trkpt lat="40.17104821253344" lon="18.037883714611933"><ele>42.0</ele><time>2026-04-21T16:29:45.983Z</time></trkpt><trkpt lat="40.17109998620324" lon="18.037769027867178"><ele>42.0</ele><time>2026-04-21T16:29:46.983Z</time></trkpt><trkpt lat="40.171162783945796" lon="18.037659236848835"><ele>42.0</ele><time>2026-04-21T16:29:47.983Z</time></trkpt><trkpt lat="40.171224103049084" lon="18.037559521898306"><ele>42.0</ele><time>2026-04-21T16:29:48.983Z</time></trkpt><trkpt lat="40.1712873687192" lon="18.03746666481588"><ele>42.0</ele><time>2026-04-21T16:29:49.983Z</time></trkpt><trkpt lat="40.17134045157884" lon="18.037382864719863"><ele>42.0</ele><time>2026-04-21T16:29:50.983Z</time></trkpt><trkpt lat="40.171382284534346" lon="18.03731165007477"><ele>42.0</ele><time>2026-04-21T16:29:51.983Z</time></trkpt><trkpt lat="40.17143918071942" lon="18.037214143700183"><ele>42.0</ele><time>2026-04-21T16:29:53.983Z</time></trkpt><trkpt lat="40.17149756976811" lon="18.037125239408105"><ele>42.0</ele><time>2026-04-21T16:30:33.983Z</time></trkpt><trkpt lat="40.171554452043914" lon="18.03702854261305"><ele>42.0</ele><time>2026-04-21T16:30:35.982Z</time></trkpt><trkpt lat="40.17161651999626" lon="18.036904733412324"><ele>42.0</ele><time>2026-04-21T16:30:37.982Z</time></trkpt><trkpt lat="40.17165203006648" lon="18.036823885331938"><ele>42.0</ele><time>2026-04-21T16:30:38.982Z</time></trkpt><trkpt lat="40.17169663245478" lon="18.036727260620466"><ele>42.0</ele><time>2026-04-21T16:30:39.982Z</time></trkpt><trkpt lat="40.17175493277421" lon="18.03663503678739"><ele>42.0</ele><time>2026-04-21T16:30:40.982Z</time></trkpt><trkpt lat="40.17180579756866" lon="18.03654576162194"><ele>42.0</ele><time>2026-04-21T16:30:41.982Z</time></trkpt><trkpt lat="40.171846889004954" lon="18.03644197705667"><ele>42.0</ele><time>2026-04-21T16:30:42.982Z</time></trkpt><trkpt lat="40.171888823761066" lon="18.03633138018364"><ele>42.0</ele><time>2026-04-21T16:30:43.982Z</time></trkpt><trkpt lat="40.17193407620932" lon="18.036230464797836"><ele>42.0</ele><time>2026-04-21T16:30:44.982Z</time></trkpt><trkpt lat="40.1719926796347" lon="18.036138143898565"><ele>42.0</ele><time>2026-04-21T16:30:45.982Z</time></trkpt><trkpt lat="40.17205584635642" lon="18.036039443361066"><ele>42.0</ele><time>2026-04-21T16:30:46.982Z</time></trkpt><trkpt lat="40.17211967907122" lon="18.035938259201213"><ele>42.0</ele><time>2026-04-21T16:30:47.982Z</time></trkpt><trkpt lat="40.17217467261569" lon="18.035830605736614"><ele>42.0</ele><time>2026-04-21T16:30:48.982Z</time></trkpt><trkpt lat="40.172210551364415" lon="18.035705612006744"><ele>42.0</ele><time>2026-04-21T16:30:49.982Z</time></trkpt><trkpt lat="40.17224379311141" lon="18.035568289741192"><ele>42.0</ele><time>2026-04-21T16:30:50.982Z</time></trkpt><trkpt lat="40.17228944496258" lon="18.03544688513919"><ele>42.0</ele><time>2026-04-21T16:30:51.982Z</time></trkpt><trkpt lat="40.17233470364102" lon="18.035333120564413"><ele>42.0</ele><time>2026-04-21T16:30:52.982Z</time></trkpt><trkpt lat="40.17238466698821" lon="18.035202908489392"><ele>42.0</ele><time>2026-04-21T16:30:53.982Z</time></trkpt><trkpt lat="40.17243216226914" lon="18.035077950214287"><ele>42.0</ele><time>2026-04-21T16:30:54.982Z</time></trkpt><trkpt lat="40.17246540897166" lon="18.034967076696304"><ele>42.0</ele><time>2026-04-21T16:30:55.982Z</time></trkpt><trkpt lat="40.17250299011648" lon="18.034859753293755"><ele>42.0</ele><time>2026-04-21T16:30:56.982Z</time></trkpt><trkpt lat="40.17253612546268" lon="18.034756367738055"><ele>42.0</ele><time>2026-04-21T16:30:57.982Z</time></trkpt><trkpt lat="40.17257275716094" lon="18.034662678585285"><ele>42.0</ele><time>2026-04-21T16:30:58.982Z</time></trkpt><trkpt lat="40.17260583123315" lon="18.03456449837239"><ele>42.0</ele><time>2026-04-21T16:30:59.982Z</time></trkpt><trkpt lat="40.17264266524822" lon="18.034467855770288"><ele>42.0</ele><time>2026-04-21T16:31:00.982Z</time></trkpt><trkpt lat="40.17268025828538" lon="18.034361938538776"><ele>42.0</ele><time>2026-04-21T16:31:01.982Z</time></trkpt><trkpt lat="40.17270959249748" lon="18.034256020674217"><ele>42.0</ele><time>2026-04-21T16:31:02.982Z</time></trkpt><trkpt lat="40.17273642175703" lon="18.034174226823577"><ele>42.0</ele><time>2026-04-21T16:31:03.982Z</time></trkpt><trkpt lat="40.17278734409989" lon="18.034067516612726"><ele>42.0</ele><time>2026-04-21T16:31:05.982Z</time></trkpt><trkpt lat="40.172851767677436" lon="18.033960091614052"><ele>42.0</ele><time>2026-04-21T16:31:07.982Z</time></trkpt><trkpt lat="40.17294097463549" lon="18.03382368457424"><ele>41.833333333333336</ele><time>2026-04-21T16:31:09.982Z</time></trkpt><trkpt lat="40.172988398705066" lon="18.033759238643835"><ele>41.666666666666664</ele><time>2026-04-21T16:31:10.982Z</time></trkpt><trkpt lat="40.17304559481333" lon="18.03371154083573"><ele>41.5</ele><time>2026-04-21T16:31:11.982Z</time></trkpt><trkpt lat="40.17309778443571" lon="18.033660393560798"><ele>41.33333333333333</ele><time>2026-04-21T16:31:12.982Z</time></trkpt><trkpt lat="40.173170684023894" lon="18.0336168027036"><ele>41.166666666666664</ele><time>2026-04-21T16:31:13.982Z</time></trkpt><trkpt lat="40.1732539318904" lon="18.03356669548807"><ele>41.0</ele><time>2026-04-21T16:31:14.982Z</time></trkpt><trkpt lat="40.173337034900705" lon="18.03349748281774"><ele>41.0</ele><time>2026-04-21T16:31:15.982Z</time></trkpt><trkpt lat="40.173428168325856" lon="18.033439458918128"><ele>41.0</ele><time>2026-04-21T16:31:16.982Z</time></trkpt><trkpt lat="40.173512057081524" lon="18.033373613061276"><ele>41.0</ele><time>2026-04-21T16:31:17.982Z</time></trkpt><trkpt lat="40.17360405477571" lon="18.033304383379228"><ele>41.0</ele><time>2026-04-21T16:31:18.982Z</time></trkpt><trkpt lat="40.173689094089355" lon="18.03324507625514"><ele>41.0</ele><time>2026-04-21T16:31:19.982Z</time></trkpt><trkpt lat="40.173770652946686" lon="18.03319490091059"><ele>41.166666666666664</ele><time>2026-04-21T16:31:20.982Z</time></trkpt><trkpt lat="40.173844111381065" lon="18.033145564671745"><ele>41.33333333333333</ele><time>2026-04-21T16:31:21.982Z</time></trkpt><trkpt lat="40.173923201103875" lon="18.033102811837495"><ele>41.5</ele><time>2026-04-21T16:31:22.982Z</time></trkpt><trkpt lat="40.17399831719502" lon="18.03305500550546"><ele>41.666666666666664</ele><time>2026-04-21T16:31:23.982Z</time></trkpt><trkpt lat="40.17406674260544" lon="18.033005199522993"><ele>41.833333333333336</ele><time>2026-04-21T16:31:24.982Z</time></trkpt><trkpt lat="40.17412725746587" lon="18.0329566741957"><ele>42.0</ele><time>2026-04-21T16:31:25.982Z</time></trkpt><trkpt lat="40.174199390620814" lon="18.0329138281862"><ele>42.166666666666664</ele><time>2026-04-21T16:31:26.982Z</time></trkpt><trkpt lat="40.17426683186067" lon="18.032867599873274"><ele>42.333333333333336</ele><time>2026-04-21T16:31:27.982Z</time></trkpt><trkpt lat="40.17433550161691" lon="18.032818553397533"><ele>42.5</ele><time>2026-04-21T16:31:28.982Z</time></trkpt><trkpt lat="40.174409965142914" lon="18.03275710270701"><ele>42.66666666666667</ele><time>2026-04-21T16:31:29.982Z</time></trkpt><trkpt lat="40.17448661657209" lon="18.03270102347398"><ele>42.833333333333336</ele><time>2026-04-21T16:31:30.982Z</time></trkpt><trkpt lat="40.17456343176662" lon="18.03265013002912"><ele>43.0</ele><time>2026-04-21T16:31:31.982Z</time></trkpt><trkpt lat="40.17463295018305" lon="18.03260016987979"><ele>43.0</ele><time>2026-04-21T16:31:32.982Z</time></trkpt><trkpt lat="40.17470825364878" lon="18.032541813794833"><ele>43.0</ele><time>2026-04-21T16:31:33.982Z</time></trkpt><trkpt lat="40.174783655133375" lon="18.032485715834607"><ele>43.0</ele><time>2026-04-21T16:31:34.982Z</time></trkpt><trkpt lat="40.174857848709394" lon="18.032431969387964"><ele>43.0</ele><time>2026-04-21T16:31:35.982Z</time></trkpt><trkpt lat="40.17493295686673" lon="18.032378026761407"><ele>43.0</ele><time>2026-04-21T16:31:36.982Z</time></trkpt><trkpt lat="40.175006312241976" lon="18.032326582630272"><ele>43.0</ele><time>2026-04-21T16:31:37.982Z</time></trkpt><trkpt lat="40.17507874057986" lon="18.03228323865172"><ele>43.333333333333336</ele><time>2026-04-21T16:31:38.982Z</time></trkpt><trkpt lat="40.17514856583806" lon="18.032244678661417"><ele>43.66666666666667</ele><time>2026-04-21T16:31:39.982Z</time></trkpt><trkpt lat="40.17522163553058" lon="18.03220054803925"><ele>44.0</ele><time>2026-04-21T16:31:40.982Z</time></trkpt><trkpt lat="40.17528933682658" lon="18.03215588795191"><ele>44.333333333333336</ele><time>2026-04-21T16:31:41.982Z</time></trkpt><trkpt lat="40.175353565847416" lon="18.032112850662966"><ele>44.666666666666664</ele><time>2026-04-21T16:31:42.982Z</time></trkpt><trkpt lat="40.17541073348433" lon="18.032071504256816"><ele>45.0</ele><time>2026-04-21T16:31:43.982Z</time></trkpt><trkpt lat="40.17549504028042" lon="18.032013392287148"><ele>45.0</ele><time>2026-04-21T16:31:45.982Z</time></trkpt><trkpt lat="40.17555927679161" lon="18.031971199617775"><ele>45.0</ele><time>2026-04-21T16:32:05.982Z</time></trkpt><trkpt lat="40.175624465417336" lon="18.031962903240743"><ele>45.0</ele><time>2026-04-21T16:32:08.982Z</time></trkpt><trkpt lat="40.17570081806483" lon="18.03196918111806"><ele>45.0</ele><time>2026-04-21T16:32:11.982Z</time></trkpt><trkpt lat="40.17574772082326" lon="18.031892096676557"><ele>45.0</ele><time>2026-04-21T16:32:13.982Z</time></trkpt><trkpt lat="40.175728523721816" lon="18.03179666598831"><ele>45.0</ele><time>2026-04-21T16:32:15.982Z</time></trkpt><trkpt lat="40.1756574136528" lon="18.031710672066605"><ele>45.0</ele><time>2026-04-21T16:32:17.982Z</time></trkpt><trkpt lat="40.17561422647864" lon="18.031617608354505"><ele>45.0</ele><time>2026-04-21T16:32:19.982Z</time></trkpt><trkpt lat="40.17561576879786" lon="18.031517666177283"><ele>45.0</ele><time>2026-04-21T16:32:21.982Z</time></trkpt><trkpt lat="40.17564904952216" lon="18.031380606727488"><ele>45.0</ele><time>2026-04-21T16:32:23.982Z</time></trkpt><trkpt lat="40.17567836157309" lon="18.031304761789933"><ele>45.0</ele><time>2026-04-21T16:32:24.982Z</time></trkpt><trkpt lat="40.17572064821116" lon="18.031206000328243"><ele>45.0</ele><time>2026-04-21T16:32:25.982Z</time></trkpt><trkpt lat="40.1757562910143" lon="18.031101455472665"><ele>45.0</ele><time>2026-04-21T16:32:26.982Z</time></trkpt><trkpt lat="40.17579935616159" lon="18.03098498115097"><ele>45.0</ele><time>2026-04-21T16:32:27.982Z</time></trkpt><trkpt lat="40.17584170032135" lon="18.0308586709297"><ele>45.0</ele><time>2026-04-21T16:32:28.982Z</time></trkpt><trkpt lat="40.17588044264145" lon="18.03074262853787"><ele>45.0</ele><time>2026-04-21T16:32:29.982Z</time></trkpt><trkpt lat="40.175920276610974" lon="18.03063095270833"><ele>45.0</ele><time>2026-04-21T16:32:30.982Z</time></trkpt><trkpt lat="40.17595845888399" lon="18.03052188187074"><ele>44.75</ele><time>2026-04-21T16:32:31.982Z</time></trkpt><trkpt lat="40.17600831463269" lon="18.030400063531765"><ele>44.5</ele><time>2026-04-21T16:32:32.982Z</time></trkpt><trkpt lat="40.1760603917339" lon="18.030277287387786"><ele>44.25</ele><time>2026-04-21T16:32:33.981Z</time></trkpt><trkpt lat="40.17611841938179" lon="18.030130999153474"><ele>44.0</ele><time>2026-04-21T16:32:34.981Z</time></trkpt><trkpt lat="40.17618318129013" lon="18.02997443811705"><ele>44.0</ele><time>2026-04-21T16:32:35.981Z</time></trkpt><trkpt lat="40.176253741173674" lon="18.029822738027775"><ele>44.0</ele><time>2026-04-21T16:32:36.981Z</time></trkpt><trkpt lat="40.17629779764704" lon="18.029698054076942"><ele>44.0</ele><time>2026-04-21T16:32:37.981Z</time></trkpt><trkpt lat="40.176330158420406" lon="18.02959437292683"><ele>44.0</ele><time>2026-04-21T16:32:38.981Z</time></trkpt><trkpt lat="40.17635700067364" lon="18.029510626612826"><ele>44.0</ele><time>2026-04-21T16:32:39.981Z</time></trkpt><trkpt lat="40.17641659902091" lon="18.02939603207647"><ele>44.0</ele><time>2026-04-21T16:32:41.981Z</time></trkpt><trkpt lat="40.176470556549205" lon="18.029307369462447"><ele>44.0</ele><time>2026-04-21T16:32:43.981Z</time></trkpt><trkpt lat="40.1765164428395" lon="18.029219857656148"><ele>44.0</ele><time>2026-04-21T16:32:45.981Z</time></trkpt><trkpt lat="40.176543453941356" lon="18.029126311913107"><ele>44.0</ele><time>2026-04-21T16:32:47.981Z</time></trkpt><trkpt lat="40.176595094618655" lon="18.029003507570273"><ele>44.0</ele><time>2026-04-21T16:32:49.981Z</time></trkpt><trkpt lat="40.17662197969641" lon="18.028926407157524"><ele>44.0</ele><time>2026-04-21T16:32:50.981Z</time></trkpt><trkpt lat="40.1766439301424" lon="18.028840106515535"><ele>44.33333333333333</ele><time>2026-04-21T16:32:51.981Z</time></trkpt><trkpt lat="40.17667844330025" lon="18.028764760778305"><ele>44.666666666666664</ele><time>2026-04-21T16:32:52.981Z</time></trkpt><trkpt lat="40.17674794826017" lon="18.028629399356134"><ele>45.0</ele><time>2026-04-21T16:32:54.981Z</time></trkpt><trkpt lat="40.17678944625025" lon="18.028557386765968"><ele>45.333333333333336</ele><time>2026-04-21T16:32:55.981Z</time></trkpt><trkpt lat="40.17682798867315" lon="18.028485141660877"><ele>45.66666666666667</ele><time>2026-04-21T16:32:56.981Z</time></trkpt><trkpt lat="40.17690398328677" lon="18.028365782671543"><ele>46.0</ele><time>2026-04-21T16:32:58.981Z</time></trkpt><trkpt lat="40.17696034210498" lon="18.02832080973405"><ele>45.8</ele><time>2026-04-21T16:32:59.981Z</time></trkpt><trkpt lat="40.17705794910062" lon="18.02824955880309"><ele>45.599999999999994</ele><time>2026-04-21T16:33:01.981Z</time></trkpt><trkpt lat="40.17714748895361" lon="18.02818551715418"><ele>45.4</ele><time>2026-04-21T16:33:03.981Z</time></trkpt><trkpt lat="40.17723160034507" lon="18.02809439787896"><ele>45.2</ele><time>2026-04-21T16:33:05.981Z</time></trkpt><trkpt lat="40.17732806611524" lon="18.02800379997433"><ele>45.0</ele><time>2026-04-21T16:33:07.981Z</time></trkpt><trkpt lat="40.17741328202695" lon="18.027917581709808"><ele>44.6</ele><time>2026-04-21T16:33:09.981Z</time></trkpt><trkpt lat="40.17749831720429" lon="18.02784627233811"><ele>44.2</ele><time>2026-04-21T16:33:11.981Z</time></trkpt><trkpt lat="40.177605347060656" lon="18.0277616767149"><ele>43.8</ele><time>2026-04-21T16:33:13.981Z</time></trkpt><trkpt lat="40.17770411543811" lon="18.02768018869334"><ele>43.4</ele><time>2026-04-21T16:33:15.981Z</time></trkpt><trkpt lat="40.17779110373378" lon="18.027609248830245"><ele>43.0</ele><time>2026-04-21T16:33:17.981Z</time></trkpt><trkpt lat="40.17785613528764" lon="18.027541902486735"><ele>43.0</ele><time>2026-04-21T16:33:19.981Z</time></trkpt><trkpt lat="40.17791354075526" lon="18.027475898746484"><ele>43.0</ele><time>2026-04-21T16:33:22.981Z</time></trkpt><trkpt lat="40.17793626119638" lon="18.027377955642486"><ele>43.0</ele><time>2026-04-21T16:33:48.981Z</time></trkpt><trkpt lat="40.17799879773836" lon="18.027320528317816"><ele>43.0</ele><time>2026-04-21T16:33:51.981Z</time></trkpt><trkpt lat="40.17806510153028" lon="18.027262863768843"><ele>43.0</ele><time>2026-04-21T16:33:53.981Z</time></trkpt><trkpt lat="40.17812222392722" lon="18.027215546659434"><ele>43.0</ele><time>2026-04-21T16:33:55.981Z</time></trkpt><trkpt lat="40.17821340481427" lon="18.027146365271275"><ele>43.0</ele><time>2026-04-21T16:33:58.981Z</time></trkpt><trkpt lat="40.17832518647203" lon="18.02705748900375"><ele>43.0</ele><time>2026-04-21T16:34:00.981Z</time></trkpt><trkpt lat="40.17840605530002" lon="18.02699577400029"><ele>43.0</ele><time>2026-04-21T16:34:01.981Z</time></trkpt><trkpt lat="40.17848251275603" lon="18.0269224647892"><ele>43.0</ele><time>2026-04-21T16:34:02.981Z</time></trkpt><trkpt lat="40.178554910922735" lon="18.026863592319895"><ele>43.0</ele><time>2026-04-21T16:34:03.981Z</time></trkpt><trkpt lat="40.17862056044185" lon="18.02681081435844"><ele>43.0</ele><time>2026-04-21T16:34:04.981Z</time></trkpt><trkpt lat="40.1786772581955" lon="18.026759276226763"><ele>43.0</ele><time>2026-04-21T16:34:05.981Z</time></trkpt><trkpt lat="40.178722466123446" lon="18.02669712115113"><ele>43.0</ele><time>2026-04-21T16:34:06.981Z</time></trkpt><trkpt lat="40.17879854241161" lon="18.026613285590724"><ele>43.0</ele><time>2026-04-21T16:34:08.981Z</time></trkpt><trkpt lat="40.17885638332581" lon="18.026553935042266"><ele>43.0</ele><time>2026-04-21T16:34:10.981Z</time></trkpt><trkpt lat="40.17892518377891" lon="18.026506431815644"><ele>43.0</ele><time>2026-04-21T16:34:18.98Z</time></trkpt><trkpt lat="40.17899044690674" lon="18.026454162845827"><ele>42.4</ele><time>2026-04-21T16:34:21.98Z</time></trkpt><trkpt lat="40.17906550668565" lon="18.02638106407239"><ele>41.8</ele><time>2026-04-21T16:34:24.98Z</time></trkpt><trkpt lat="40.17913969666653" lon="18.026324649914024"><ele>41.2</ele><time>2026-04-21T16:34:26.98Z</time></trkpt><trkpt lat="40.17921011374111" lon="18.026230753683034"><ele>40.6</ele><time>2026-04-21T16:34:28.98Z</time></trkpt><trkpt lat="40.17928572051243" lon="18.02619196956074"><ele>40.0</ele><time>2026-04-21T16:34:31.98Z</time></trkpt><trkpt lat="40.179375245732416" lon="18.02617108564748"><ele>40.0</ele><time>2026-04-21T16:34:34.98Z</time></trkpt><trkpt lat="40.17948469228299" lon="18.02614931398886"><ele>40.0</ele><time>2026-04-21T16:34:36.98Z</time></trkpt><trkpt lat="40.17955040773528" lon="18.026129664754475"><ele>40.0</ele><time>2026-04-21T16:34:37.98Z</time></trkpt><trkpt lat="40.17961751288218" lon="18.026104773691024"><ele>40.0</ele><time>2026-04-21T16:34:38.98Z</time></trkpt><trkpt lat="40.17968070687236" lon="18.026082361759602"><ele>40.0</ele><time>2026-04-21T16:34:39.98Z</time></trkpt><trkpt lat="40.179740046914844" lon="18.026048656953886"><ele>40.0</ele><time>2026-04-21T16:34:40.98Z</time></trkpt><trkpt lat="40.17980497017845" lon="18.02601004448722"><ele>40.0</ele><time>2026-04-21T16:34:41.98Z</time></trkpt><trkpt lat="40.17986308341406" lon="18.02597600933732"><ele>39.66666666666667</ele><time>2026-04-21T16:34:42.98Z</time></trkpt><trkpt lat="40.179915637232085" lon="18.02592171558309"><ele>39.333333333333336</ele><time>2026-04-21T16:34:43.98Z</time></trkpt><trkpt lat="40.17997637098715" lon="18.025869473850534"><ele>39.0</ele><time>2026-04-21T16:34:44.98Z</time></trkpt><trkpt lat="40.1800408622096" lon="18.025831886474062"><ele>38.666666666666664</ele><time>2026-04-21T16:34:45.98Z</time></trkpt><trkpt lat="40.18011053701183" lon="18.025816125065692"><ele>38.33333333333333</ele><time>2026-04-21T16:34:46.98Z</time></trkpt><trkpt lat="40.180214247244486" lon="18.02582216635913"><ele>38.0</ele><time>2026-04-21T16:34:48.98Z</time></trkpt><trkpt lat="40.180316439757" lon="18.025871386608213"><ele>38.0</ele><time>2026-04-21T16:34:50.98Z</time></trkpt><trkpt lat="40.1804325146231" lon="18.025905601874374"><ele>38.0</ele><time>2026-04-21T16:34:52.98Z</time></trkpt><trkpt lat="40.1805068117567" lon="18.025923887095026"><ele>38.0</ele><time>2026-04-21T16:34:54.98Z</time></trkpt><trkpt lat="40.180579952188275" lon="18.02598467747472"><ele>38.0</ele><time>2026-04-21T16:34:56.98Z</time></trkpt><trkpt lat="40.18064391302599" lon="18.02602493801469"><ele>38.0</ele><time>2026-04-21T16:34:58.98Z</time></trkpt><trkpt lat="40.18073064029182" lon="18.026079767513394"><ele>38.0</ele><time>2026-04-21T16:35:00.98Z</time></trkpt><trkpt lat="40.18079194208482" lon="18.02610324986708"><ele>38.599999999999994</ele><time>2026-04-21T16:35:01.98Z</time></trkpt><trkpt lat="40.18085921755235" lon="18.026110525527095"><ele>39.199999999999996</ele><time>2026-04-21T16:35:02.98Z</time></trkpt><trkpt lat="40.18096100379973" lon="18.02613048456503"><ele>39.8</ele><time>2026-04-21T16:35:04.98Z</time></trkpt><trkpt lat="40.18105041802228" lon="18.026175453725486"><ele>40.4</ele><time>2026-04-21T16:35:06.98Z</time></trkpt><trkpt lat="40.181153246068" lon="18.026204073576693"><ele>41.0</ele><time>2026-04-21T16:35:08.98Z</time></trkpt><trkpt lat="40.18127502508995" lon="18.026263296629825"><ele>41.0</ele><time>2026-04-21T16:35:10.98Z</time></trkpt><trkpt lat="40.181378415478285" lon="18.02630140485067"><ele>41.0</ele><time>2026-04-21T16:35:12.98Z</time></trkpt><trkpt lat="40.18146422606758" lon="18.026341442319634"><ele>41.0</ele><time>2026-04-21T16:35:14.98Z</time></trkpt><trkpt lat="40.1815443673927" lon="18.026367525512434"><ele>41.0</ele><time>2026-04-21T16:35:18.98Z</time></trkpt><trkpt lat="40.18159771229449" lon="18.026305776695008"><ele>41.0</ele><time>2026-04-21T16:35:40.98Z</time></trkpt><trkpt lat="40.18165811022949" lon="18.026331068553258"><ele>41.0</ele><time>2026-04-21T16:35:42.98Z</time></trkpt><trkpt lat="40.18174178359884" lon="18.02637919325505"><ele>41.166666666666664</ele><time>2026-04-21T16:35:44.979Z</time></trkpt><trkpt lat="40.18182024932757" lon="18.026394740186518"><ele>41.33333333333333</ele><time>2026-04-21T16:35:47.979Z</time></trkpt><trkpt lat="40.18189420293863" lon="18.026354675761564"><ele>41.5</ele><time>2026-04-21T16:35:54.98Z</time></trkpt><trkpt lat="40.18197167186741" lon="18.026253380885734"><ele>41.666666666666664</ele><time>2026-04-21T16:35:56.979Z</time></trkpt><trkpt lat="40.18201248162757" lon="18.026169947233747"><ele>41.833333333333336</ele><time>2026-04-21T16:35:57.979Z</time></trkpt><trkpt lat="40.182074020822476" lon="18.026072058230405"><ele>42.0</ele><time>2026-04-21T16:35:58.979Z</time></trkpt><trkpt lat="40.182156006818516" lon="18.025970504399936"><ele>42.0</ele><time>2026-04-21T16:35:59.979Z</time></trkpt><trkpt lat="40.182243888878325" lon="18.025839368435477"><ele>42.0</ele><time>2026-04-21T16:36:00.979Z</time></trkpt><trkpt lat="40.18235324471634" lon="18.025696049227435"><ele>42.0</ele><time>2026-04-21T16:36:01.979Z</time></trkpt><trkpt lat="40.18244752366192" lon="18.025580324680593"><ele>42.0</ele><time>2026-04-21T16:36:02.979Z</time></trkpt><trkpt lat="40.18252375501569" lon="18.025477593771278"><ele>41.2</ele><time>2026-04-21T16:36:03.979Z</time></trkpt><trkpt lat="40.18259604104352" lon="18.025380824176064"><ele>40.400000000000006</ele><time>2026-04-21T16:36:04.979Z</time></trkpt><trkpt lat="40.18267212620848" lon="18.025292807554422"><ele>39.599999999999994</ele><time>2026-04-21T16:36:05.979Z</time></trkpt><trkpt lat="40.18273930917386" lon="18.025190173225976"><ele>38.8</ele><time>2026-04-21T16:36:06.979Z</time></trkpt><trkpt lat="40.182820364342724" lon="18.025083738580573"><ele>38.0</ele><time>2026-04-21T16:36:07.979Z</time></trkpt><trkpt lat="40.18290557728767" lon="18.024970388382787"><ele>37.75</ele><time>2026-04-21T16:36:08.979Z</time></trkpt><trkpt lat="40.183009082178046" lon="18.024840466503765"><ele>37.5</ele><time>2026-04-21T16:36:09.979Z</time></trkpt><trkpt lat="40.18309797409244" lon="18.024724708304344"><ele>37.25</ele><time>2026-04-21T16:36:10.979Z</time></trkpt><trkpt lat="40.183177633185736" lon="18.024601507604295"><ele>37.0</ele><time>2026-04-21T16:36:11.979Z</time></trkpt><trkpt lat="40.18326386864711" lon="18.024484498657845"><ele>36.75</ele><time>2026-04-21T16:36:12.979Z</time></trkpt><trkpt lat="40.183352719147464" lon="18.024369349649422"><ele>36.5</ele><time>2026-04-21T16:36:13.979Z</time></trkpt><trkpt lat="40.18343787847505" lon="18.024266211533064"><ele>36.25</ele><time>2026-04-21T16:36:14.979Z</time></trkpt><trkpt lat="40.183516673105444" lon="18.02416894811197"><ele>36.0</ele><time>2026-04-21T16:36:15.979Z</time></trkpt><trkpt lat="40.1835875414364" lon="18.024076207311584"><ele>36.0</ele><time>2026-04-21T16:36:16.979Z</time></trkpt><trkpt lat="40.18364417846372" lon="18.02400095786749"><ele>36.0</ele><time>2026-04-21T16:36:17.979Z</time></trkpt><trkpt lat="40.18368637942672" lon="18.023933775573735"><ele>36.0</ele><time>2026-04-21T16:36:18.979Z</time></trkpt><trkpt lat="40.183739605123" lon="18.023857549454004"><ele>36.0</ele><time>2026-04-21T16:36:19.979Z</time></trkpt><trkpt lat="40.1838121260998" lon="18.023756311922973"><ele>36.0</ele><time>2026-04-21T16:36:20.979Z</time></trkpt><trkpt lat="40.18389526470618" lon="18.023639174508514"><ele>36.0</ele><time>2026-04-21T16:36:21.979Z</time></trkpt><trkpt lat="40.18398771937754" lon="18.02350652839473"><ele>36.0</ele><time>2026-04-21T16:36:22.979Z</time></trkpt><trkpt lat="40.18406710462714" lon="18.023362341480706"><ele>36.0</ele><time>2026-04-21T16:36:23.979Z</time></trkpt><trkpt lat="40.184166838141216" lon="18.023202703138136"><ele>36.0</ele><time>2026-04-21T16:36:24.979Z</time></trkpt><trkpt lat="40.18426344153467" lon="18.023049760614406"><ele>35.5</ele><time>2026-04-21T16:36:25.979Z</time></trkpt><trkpt lat="40.18435749608913" lon="18.022907942243453"><ele>35.0</ele><time>2026-04-21T16:36:26.979Z</time></trkpt><trkpt lat="40.184435408285616" lon="18.02277251891086"><ele>34.5</ele><time>2026-04-21T16:36:27.979Z</time></trkpt><trkpt lat="40.18452310136252" lon="18.022649535584165"><ele>34.0</ele><time>2026-04-21T16:36:28.979Z</time></trkpt><trkpt lat="40.18462390005458" lon="18.02253101639412"><ele>33.4</ele><time>2026-04-21T16:36:29.979Z</time></trkpt><trkpt lat="40.1846819178169" lon="18.022403798968273"><ele>32.8</ele><time>2026-04-21T16:36:30.979Z</time></trkpt><trkpt lat="40.18474149897028" lon="18.022295662783055"><ele>32.2</ele><time>2026-04-21T16:36:31.979Z</time></trkpt><trkpt lat="40.184815025362646" lon="18.02220619266275"><ele>31.6</ele><time>2026-04-21T16:36:32.979Z</time></trkpt><trkpt lat="40.18490914015042" lon="18.022166349326245"><ele>31.0</ele><time>2026-04-21T16:36:33.979Z</time></trkpt><trkpt lat="40.18502473673221" lon="18.0221384733561"><ele>31.0</ele><time>2026-04-21T16:36:34.979Z</time></trkpt><trkpt lat="40.18513731177656" lon="18.02212387682393"><ele>31.0</ele><time>2026-04-21T16:36:35.979Z</time></trkpt><trkpt lat="40.18523893584569" lon="18.022112080260584"><ele>31.0</ele><time>2026-04-21T16:36:36.979Z</time></trkpt><trkpt lat="40.18532776388167" lon="18.022083075687338"><ele>31.0</ele><time>2026-04-21T16:36:37.979Z</time></trkpt><trkpt lat="40.18540833830541" lon="18.022025693915136"><ele>31.0</ele><time>2026-04-21T16:36:38.979Z</time></trkpt><trkpt lat="40.185478274286154" lon="18.021937856257683"><ele>31.0</ele><time>2026-04-21T16:36:39.979Z</time></trkpt><trkpt lat="40.18553243626326" lon="18.021823061600156"><ele>31.0</ele><time>2026-04-21T16:36:40.979Z</time></trkpt><trkpt lat="40.1855664243111" lon="18.02167971931141"><ele>31.0</ele><time>2026-04-21T16:36:41.979Z</time></trkpt><trkpt lat="40.18560269043608" lon="18.021528145525323"><ele>31.0</ele><time>2026-04-21T16:36:42.979Z</time></trkpt><trkpt lat="40.18566211764998" lon="18.02136372086083"><ele>32.0</ele><time>2026-04-21T16:36:43.979Z</time></trkpt><trkpt lat="40.18573759783852" lon="18.02118590950098"><ele>33.0</ele><time>2026-04-21T16:36:44.979Z</time></trkpt><trkpt lat="40.18584209432518" lon="18.02100979101376"><ele>34.0</ele><time>2026-04-21T16:36:45.979Z</time></trkpt><trkpt lat="40.185954530182336" lon="18.02083592165107"><ele>34.0</ele><time>2026-04-21T16:36:46.979Z</time></trkpt><trkpt lat="40.186080337315296" lon="18.020662744712904"><ele>34.0</ele><time>2026-04-21T16:36:47.979Z</time></trkpt><trkpt lat="40.18622440300779" lon="18.02048352932956"><ele>34.0</ele><time>2026-04-21T16:36:48.979Z</time></trkpt><trkpt lat="40.18637416447299" lon="18.020298741835138"><ele>34.0</ele><time>2026-04-21T16:36:49.979Z</time></trkpt><trkpt lat="40.186524284550934" lon="18.020110827156255"><ele>34.0</ele><time>2026-04-21T16:36:50.979Z</time></trkpt><trkpt lat="40.18667671641058" lon="18.01990336047124"><ele>34.0</ele><time>2026-04-21T16:36:51.979Z</time></trkpt><trkpt lat="40.186838475660814" lon="18.01970378834358"><ele>34.0</ele><time>2026-04-21T16:36:52.979Z</time></trkpt><trkpt lat="40.187003418105284" lon="18.01950217437697"><ele>34.0</ele><time>2026-04-21T16:36:53.979Z</time></trkpt><trkpt lat="40.187166289828966" lon="18.019297801668454"><ele>33.0</ele><time>2026-04-21T16:36:54.979Z</time></trkpt><trkpt lat="40.18733109875239" lon="18.01908888267745"><ele>32.0</ele><time>2026-04-21T16:36:55.979Z</time></trkpt><trkpt lat="40.187495489686825" lon="18.018878520308395"><ele>31.5</ele><time>2026-04-21T16:36:56.979Z</time></trkpt><trkpt lat="40.18765842569545" lon="18.018663423764707"><ele>31.0</ele><time>2026-04-21T16:36:57.979Z</time></trkpt><trkpt lat="40.18781718230742" lon="18.018451057518217"><ele>31.5</ele><time>2026-04-21T16:36:58.979Z</time></trkpt><trkpt lat="40.18798000472114" lon="18.018242642762107"><ele>32.0</ele><time>2026-04-21T16:36:59.979Z</time></trkpt><trkpt lat="40.18813639502775" lon="18.01803452123391"><ele>32.0</ele><time>2026-04-21T16:37:00.979Z</time></trkpt><trkpt lat="40.188289696225105" lon="18.01782934967504"><ele>32.0</ele><time>2026-04-21T16:37:01.979Z</time></trkpt><trkpt lat="40.188449439294125" lon="18.017623561696595"><ele>32.0</ele><time>2026-04-21T16:37:02.979Z</time></trkpt><trkpt lat="40.188608270220776" lon="18.017420401270435"><ele>32.0</ele><time>2026-04-21T16:37:03.979Z</time></trkpt><trkpt lat="40.188765579108605" lon="18.0172176969953"><ele>32.0</ele><time>2026-04-21T16:37:04.979Z</time></trkpt><trkpt lat="40.188920930978355" lon="18.017017468079946"><ele>32.0</ele><time>2026-04-21T16:37:05.979Z</time></trkpt><trkpt lat="40.18907293329139" lon="18.01681703704676"><ele>32.666666666666664</ele><time>2026-04-21T16:37:06.979Z</time></trkpt><trkpt lat="40.18922649507289" lon="18.016615924314134"><ele>33.333333333333336</ele><time>2026-04-21T16:37:07.979Z</time></trkpt><trkpt lat="40.18938909103133" lon="18.016414459391136"><ele>34.0</ele><time>2026-04-21T16:37:08.979Z</time></trkpt><trkpt lat="40.18954591673822" lon="18.016213161736435"><ele>34.0</ele><time>2026-04-21T16:37:09.979Z</time></trkpt><trkpt lat="40.18969867200525" lon="18.016005827791197"><ele>34.0</ele><time>2026-04-21T16:37:10.979Z</time></trkpt><trkpt lat="40.18986049421401" lon="18.01580710607264"><ele>34.0</ele><time>2026-04-21T16:37:11.979Z</time></trkpt><trkpt lat="40.19000530669126" lon="18.015600649109746"><ele>34.0</ele><time>2026-04-21T16:37:12.979Z</time></trkpt><trkpt lat="40.190151762380744" lon="18.015400219150514"><ele>34.0</ele><time>2026-04-21T16:37:13.979Z</time></trkpt><trkpt lat="40.190299912438604" lon="18.01519929088227"><ele>34.0</ele><time>2026-04-21T16:37:14.979Z</time></trkpt><trkpt lat="40.190444440857824" lon="18.01499856750416"><ele>34.0</ele><time>2026-04-21T16:37:15.979Z</time></trkpt><trkpt lat="40.190591368292225" lon="18.014798190213085"><ele>34.0</ele><time>2026-04-21T16:37:16.979Z</time></trkpt><trkpt lat="40.190735389262265" lon="18.014594591723657"><ele>34.0</ele><time>2026-04-21T16:37:17.979Z</time></trkpt><trkpt lat="40.190883206609946" lon="18.014394995082597"><ele>34.0</ele><time>2026-04-21T16:37:18.979Z</time></trkpt><trkpt lat="40.19103136422842" lon="18.014194037439633"><ele>34.0</ele><time>2026-04-21T16:37:19.979Z</time></trkpt><trkpt lat="40.191180352960416" lon="18.01399221278366"><ele>34.0</ele><time>2026-04-21T16:37:20.979Z</time></trkpt><trkpt lat="40.191332833692634" lon="18.013792440342307"><ele>34.0</ele><time>2026-04-21T16:37:21.979Z</time></trkpt><trkpt lat="40.19148413689413" lon="18.0135933034688"><ele>34.0</ele><time>2026-04-21T16:37:22.979Z</time></trkpt><trkpt lat="40.19163550276768" lon="18.013393935364487"><ele>34.0</ele><time>2026-04-21T16:37:23.979Z</time></trkpt><trkpt lat="40.19178664304363" lon="18.0131918630966"><ele>34.0</ele><time>2026-04-21T16:37:24.978Z</time></trkpt><trkpt lat="40.19193731864791" lon="18.0129883356302"><ele>34.0</ele><time>2026-04-21T16:37:25.978Z</time></trkpt><trkpt lat="40.19208828792927" lon="18.012788389936027"><ele>34.0</ele><time>2026-04-21T16:37:26.978Z</time></trkpt><trkpt lat="40.19223927759799" lon="18.012582839278338"><ele>34.0</ele><time>2026-04-21T16:37:27.979Z</time></trkpt><trkpt lat="40.19239203720151" lon="18.01238448403356"><ele>34.0</ele><time>2026-04-21T16:37:28.979Z</time></trkpt><trkpt lat="40.19254466019129" lon="18.012180117462083"><ele>34.0</ele><time>2026-04-21T16:37:29.979Z</time></trkpt><trkpt lat="40.1926939661554" lon="18.011976994394775"><ele>34.0</ele><time>2026-04-21T16:37:30.979Z</time></trkpt><trkpt lat="40.19284454993649" lon="18.011775363625404"><ele>34.0</ele><time>2026-04-21T16:37:31.979Z</time></trkpt><trkpt lat="40.192994467434744" lon="18.011575395603998"><ele>34.0</ele><time>2026-04-21T16:37:32.979Z</time></trkpt><trkpt lat="40.1931471172301" lon="18.01137266111605"><ele>33.333333333333336</ele><time>2026-04-21T16:37:33.979Z</time></trkpt><trkpt lat="40.19329885181144" lon="18.011171789729428"><ele>32.666666666666664</ele><time>2026-04-21T16:37:34.979Z</time></trkpt><trkpt lat="40.19345120419122" lon="18.010969727041005"><ele>32.0</ele><time>2026-04-21T16:37:35.979Z</time></trkpt><trkpt lat="40.193604386949175" lon="18.010768037726077"><ele>31.666666666666664</ele><time>2026-04-21T16:37:36.979Z</time></trkpt><trkpt lat="40.19375898010732" lon="18.010565991297955"><ele>31.333333333333336</ele><time>2026-04-21T16:37:37.979Z</time></trkpt><trkpt lat="40.19391432843704" lon="18.010364783226493"><ele>31.0</ele><time>2026-04-21T16:37:38.979Z</time></trkpt><trkpt lat="40.19406703552599" lon="18.010162588870955"><ele>32.333333333333336</ele><time>2026-04-21T16:37:39.979Z</time></trkpt><trkpt lat="40.19422021266846" lon="18.009960019544497"><ele>33.666666666666664</ele><time>2026-04-21T16:37:40.979Z</time></trkpt><trkpt lat="40.19436738420172" lon="18.00976129991403"><ele>35.0</ele><time>2026-04-21T16:37:41.979Z</time></trkpt><trkpt lat="40.19451360058958" lon="18.00955996818767"><ele>35.0</ele><time>2026-04-21T16:37:42.979Z</time></trkpt><trkpt lat="40.194662721161585" lon="18.009359277795006"><ele>35.0</ele><time>2026-04-21T16:37:43.979Z</time></trkpt><trkpt lat="40.19481425298527" lon="18.009157652682607"><ele>35.0</ele><time>2026-04-21T16:37:44.979Z</time></trkpt><trkpt lat="40.19496721669196" lon="18.008957690744847"><ele>35.0</ele><time>2026-04-21T16:37:45.979Z</time></trkpt><trkpt lat="40.19512128674657" lon="18.00875817530359"><ele>35.0</ele><time>2026-04-21T16:37:46.979Z</time></trkpt><trkpt lat="40.195274143614014" lon="18.008561468733866"><ele>35.0</ele><time>2026-04-21T16:37:47.979Z</time></trkpt><trkpt lat="40.1954258498195" lon="18.00836335479042"><ele>35.0</ele><time>2026-04-21T16:37:48.979Z</time></trkpt><trkpt lat="40.19557592102374" lon="18.008163656920942"><ele>35.0</ele><time>2026-04-21T16:37:49.98Z</time></trkpt><trkpt lat="40.19572593657217" lon="18.007965800529856"><ele>35.0</ele><time>2026-04-21T16:37:50.979Z</time></trkpt><trkpt lat="40.19587738526412" lon="18.00776629837879"><ele>35.0</ele><time>2026-04-21T16:37:51.979Z</time></trkpt><trkpt lat="40.196027886366764" lon="18.007564352495315"><ele>35.0</ele><time>2026-04-21T16:37:52.979Z</time></trkpt><trkpt lat="40.19617853514986" lon="18.007361568644438"><ele>35.0</ele><time>2026-04-21T16:37:53.979Z</time></trkpt><trkpt lat="40.19632851441652" lon="18.007160001452093"><ele>35.33333333333333</ele><time>2026-04-21T16:37:54.979Z</time></trkpt><trkpt lat="40.19648057801739" lon="18.006958689430693"><ele>35.666666666666664</ele><time>2026-04-21T16:37:55.979Z</time></trkpt><trkpt lat="40.196633222637075" lon="18.00675666668707"><ele>36.0</ele><time>2026-04-21T16:37:56.979Z</time></trkpt><trkpt lat="40.19678525353755" lon="18.006555214989852"><ele>36.0</ele><time>2026-04-21T16:37:57.979Z</time></trkpt><trkpt lat="40.196935612543555" lon="18.006353586555324"><ele>36.0</ele><time>2026-04-21T16:37:58.979Z</time></trkpt><trkpt lat="40.19708587933529" lon="18.00614883116358"><ele>36.0</ele><time>2026-04-21T16:37:59.979Z</time></trkpt><trkpt lat="40.197229942368146" lon="18.005949241451933"><ele>35.666666666666664</ele><time>2026-04-21T16:38:00.979Z</time></trkpt><trkpt lat="40.19737354833497" lon="18.00574653431661"><ele>35.33333333333333</ele><time>2026-04-21T16:38:01.979Z</time></trkpt><trkpt lat="40.19752316580634" lon="18.005549559415858"><ele>35.0</ele><time>2026-04-21T16:38:02.979Z</time></trkpt><trkpt lat="40.1976785041481" lon="18.00535492825133"><ele>35.0</ele><time>2026-04-21T16:38:03.979Z</time></trkpt><trkpt lat="40.197832458424244" lon="18.005162483821525"><ele>35.0</ele><time>2026-04-21T16:38:04.979Z</time></trkpt><trkpt lat="40.19798651986318" lon="18.00496314086137"><ele>35.0</ele><time>2026-04-21T16:38:05.979Z</time></trkpt><trkpt lat="40.198135905369504" lon="18.004766824784614"><ele>35.33333333333333</ele><time>2026-04-21T16:38:06.979Z</time></trkpt><trkpt lat="40.198287713471316" lon="18.004567871065518"><ele>35.666666666666664</ele><time>2026-04-21T16:38:07.979Z</time></trkpt><trkpt lat="40.1984374074205" lon="18.004366679015707"><ele>36.0</ele><time>2026-04-21T16:38:08.979Z</time></trkpt><trkpt lat="40.198589653131314" lon="18.004164386872308"><ele>36.0</ele><time>2026-04-21T16:38:09.979Z</time></trkpt><trkpt lat="40.198741228915914" lon="18.00396129585226"><ele>36.0</ele><time>2026-04-21T16:38:10.979Z</time></trkpt><trkpt lat="40.19889467618384" lon="18.0037611638716"><ele>36.0</ele><time>2026-04-21T16:38:11.979Z</time></trkpt><trkpt lat="40.199048542627835" lon="18.003559470199843"><ele>36.333333333333336</ele><time>2026-04-21T16:38:12.979Z</time></trkpt><trkpt lat="40.199199828672654" lon="18.003359276591766"><ele>36.66666666666667</ele><time>2026-04-21T16:38:13.979Z</time></trkpt><trkpt lat="40.19935039125842" lon="18.00315851059864"><ele>37.0</ele><time>2026-04-21T16:38:14.979Z</time></trkpt><trkpt lat="40.199502672639774" lon="18.002957008675796"><ele>37.0</ele><time>2026-04-21T16:38:15.979Z</time></trkpt><trkpt lat="40.199654069080474" lon="18.002755628764334"><ele>37.0</ele><time>2026-04-21T16:38:16.979Z</time></trkpt><trkpt lat="40.19980334873433" lon="18.002554246389593"><ele>37.0</ele><time>2026-04-21T16:38:17.979Z</time></trkpt><trkpt lat="40.19995643839616" lon="18.002352964290047"><ele>37.0</ele><time>2026-04-21T16:38:18.979Z</time></trkpt><trkpt lat="40.20011263482721" lon="18.00215211043328"><ele>37.0</ele><time>2026-04-21T16:38:19.979Z</time></trkpt><trkpt lat="40.20026802446291" lon="18.001949218349708"><ele>37.0</ele><time>2026-04-21T16:38:20.979Z</time></trkpt><trkpt lat="40.20042320156273" lon="18.001748527043738"><ele>37.0</ele><time>2026-04-21T16:38:21.979Z</time></trkpt><trkpt lat="40.20057840168787" lon="18.001547262186754"><ele>37.0</ele><time>2026-04-21T16:38:22.979Z</time></trkpt><trkpt lat="40.20073273581444" lon="18.00134625851121"><ele>37.0</ele><time>2026-04-21T16:38:23.979Z</time></trkpt><trkpt lat="40.20088821268898" lon="18.001146175841885"><ele>36.66666666666667</ele><time>2026-04-21T16:38:24.979Z</time></trkpt><trkpt lat="40.20104240341594" lon="18.00094676109478"><ele>36.333333333333336</ele><time>2026-04-21T16:38:25.979Z</time></trkpt><trkpt lat="40.20119107776557" lon="18.00074600980023"><ele>36.0</ele><time>2026-04-21T16:38:26.979Z</time></trkpt><trkpt lat="40.20133877075608" lon="18.00054453827655"><ele>36.0</ele><time>2026-04-21T16:38:27.979Z</time></trkpt><trkpt lat="40.20148914792808" lon="18.000342895060076"><ele>36.0</ele><time>2026-04-21T16:38:28.979Z</time></trkpt><trkpt lat="40.20163891525496" lon="18.00014154939126"><ele>36.0</ele><time>2026-04-21T16:38:29.979Z</time></trkpt><trkpt lat="40.20179103178006" lon="17.999939490491155"><ele>36.0</ele><time>2026-04-21T16:38:30.979Z</time></trkpt><trkpt lat="40.20194068577452" lon="17.999738411759733"><ele>36.0</ele><time>2026-04-21T16:38:31.979Z</time></trkpt><trkpt lat="40.202092393433105" lon="17.999536172902257"><ele>36.0</ele><time>2026-04-21T16:38:32.979Z</time></trkpt><trkpt lat="40.202241900260745" lon="17.999336035902118"><ele>36.0</ele><time>2026-04-21T16:38:33.979Z</time></trkpt><trkpt lat="40.20239243686449" lon="17.99913367527508"><ele>36.0</ele><time>2026-04-21T16:38:34.979Z</time></trkpt><trkpt lat="40.20254321998589" lon="17.998933473542827"><ele>36.0</ele><time>2026-04-21T16:38:35.979Z</time></trkpt><trkpt lat="40.202693647904695" lon="17.998730978727313"><ele>36.0</ele><time>2026-04-21T16:38:36.979Z</time></trkpt><trkpt lat="40.20284397039251" lon="17.998527076202354"><ele>36.0</ele><time>2026-04-21T16:38:37.979Z</time></trkpt><trkpt lat="40.20299369986788" lon="17.99832782121341"><ele>36.0</ele><time>2026-04-21T16:38:38.979Z</time></trkpt><trkpt lat="40.20314744445621" lon="17.998125954722557"><ele>37.0</ele><time>2026-04-21T16:38:39.979Z</time></trkpt><trkpt lat="40.20330026844442" lon="17.997924580773542"><ele>38.0</ele><time>2026-04-21T16:38:40.979Z</time></trkpt><trkpt lat="40.203454094860625" lon="17.99772797571875"><ele>39.0</ele><time>2026-04-21T16:38:41.979Z</time></trkpt><trkpt lat="40.2036086332241" lon="17.997531026527586"><ele>39.0</ele><time>2026-04-21T16:38:42.979Z</time></trkpt><trkpt lat="40.20376168587361" lon="17.997327398509977"><ele>39.0</ele><time>2026-04-21T16:38:43.978Z</time></trkpt><trkpt lat="40.203912492018766" lon="17.99712627233315"><ele>39.0</ele><time>2026-04-21T16:38:44.978Z</time></trkpt><trkpt lat="40.204064889874914" lon="17.996925159826805"><ele>38.666666666666664</ele><time>2026-04-21T16:38:45.978Z</time></trkpt><trkpt lat="40.20421613678638" lon="17.996725191699113"><ele>38.33333333333333</ele><time>2026-04-21T16:38:46.978Z</time></trkpt><trkpt lat="40.20436933141533" lon="17.99652500439564"><ele>38.0</ele><time>2026-04-21T16:38:47.978Z</time></trkpt><trkpt lat="40.204520935824355" lon="17.99632639303246"><ele>38.0</ele><time>2026-04-21T16:38:48.978Z</time></trkpt><trkpt lat="40.204671678807365" lon="17.996126543064058"><ele>38.0</ele><time>2026-04-21T16:38:49.978Z</time></trkpt><trkpt lat="40.20482295763446" lon="17.995927109744393"><ele>38.0</ele><time>2026-04-21T16:38:50.978Z</time></trkpt><trkpt lat="40.2049721430872" lon="17.995728127839495"><ele>38.0</ele><time>2026-04-21T16:38:51.978Z</time></trkpt><trkpt lat="40.205122330886304" lon="17.995529262021595"><ele>38.0</ele><time>2026-04-21T16:38:52.978Z</time></trkpt><trkpt lat="40.20527428204558" lon="17.99532768418235"><ele>38.0</ele><time>2026-04-21T16:38:53.978Z</time></trkpt><trkpt lat="40.205427271549226" lon="17.99512719425083"><ele>38.33333333333333</ele><time>2026-04-21T16:38:54.978Z</time></trkpt><trkpt lat="40.20558003433877" lon="17.994925355703394"><ele>38.666666666666664</ele><time>2026-04-21T16:38:55.978Z</time></trkpt><trkpt lat="40.20573095832653" lon="17.99472346106317"><ele>39.0</ele><time>2026-04-21T16:38:56.978Z</time></trkpt><trkpt lat="40.20588170682357" lon="17.99452361171669"><ele>38.666666666666664</ele><time>2026-04-21T16:38:57.978Z</time></trkpt><trkpt lat="40.20603168381333" lon="17.99432262896031"><ele>38.33333333333333</ele><time>2026-04-21T16:38:58.978Z</time></trkpt><trkpt lat="40.20618119804394" lon="17.9941228716234"><ele>38.0</ele><time>2026-04-21T16:38:59.978Z</time></trkpt><trkpt lat="40.20633130317944" lon="17.9939253068283"><ele>38.0</ele><time>2026-04-21T16:39:00.978Z</time></trkpt><trkpt lat="40.20648130179791" lon="17.993727379102094"><ele>38.0</ele><time>2026-04-21T16:39:01.978Z</time></trkpt><trkpt lat="40.20663142873195" lon="17.99352420304942"><ele>38.0</ele><time>2026-04-21T16:39:02.978Z</time></trkpt><trkpt lat="40.20678299215577" lon="17.99332266891061"><ele>37.666666666666664</ele><time>2026-04-21T16:39:03.978Z</time></trkpt><trkpt lat="40.20693470023594" lon="17.993121902167545"><ele>37.333333333333336</ele><time>2026-04-21T16:39:04.978Z</time></trkpt><trkpt lat="40.20708753483699" lon="17.992920206276533"><ele>37.0</ele><time>2026-04-21T16:39:05.978Z</time></trkpt><trkpt lat="40.20723896077751" lon="17.992718694103722"><ele>37.333333333333336</ele><time>2026-04-21T16:39:06.978Z</time></trkpt><trkpt lat="40.207393469893" lon="17.992519811846396"><ele>37.666666666666664</ele><time>2026-04-21T16:39:07.978Z</time></trkpt><trkpt lat="40.207545399574215" lon="17.992316755195514"><ele>38.0</ele><time>2026-04-21T16:39:08.978Z</time></trkpt><trkpt lat="40.207697283069564" lon="17.992115858112182"><ele>38.33333333333333</ele><time>2026-04-21T16:39:09.978Z</time></trkpt><trkpt lat="40.20784840447574" lon="17.99191562065537"><ele>38.666666666666664</ele><time>2026-04-21T16:39:10.978Z</time></trkpt><trkpt lat="40.20800001402655" lon="17.991715612220855"><ele>39.0</ele><time>2026-04-21T16:39:11.978Z</time></trkpt><trkpt lat="40.208153432526466" lon="17.991515571132318"><ele>39.333333333333336</ele><time>2026-04-21T16:39:12.978Z</time></trkpt><trkpt lat="40.20830798817643" lon="17.991316274782996"><ele>39.66666666666667</ele><time>2026-04-21T16:39:13.978Z</time></trkpt><trkpt lat="40.208462187428" lon="17.991115463747835"><ele>40.0</ele><time>2026-04-21T16:39:14.978Z</time></trkpt><trkpt lat="40.20861516249079" lon="17.990915340122495"><ele>40.0</ele><time>2026-04-21T16:39:15.978Z</time></trkpt><trkpt lat="40.20876842715357" lon="17.990714172734304"><ele>40.0</ele><time>2026-04-21T16:39:16.978Z</time></trkpt><trkpt lat="40.2089202253779" lon="17.990515894331978"><ele>40.0</ele><time>2026-04-21T16:39:17.978Z</time></trkpt><trkpt lat="40.20907212753302" lon="17.990313926338644"><ele>40.0</ele><time>2026-04-21T16:39:18.978Z</time></trkpt><trkpt lat="40.20922342169319" lon="17.990112563467214"><ele>40.0</ele><time>2026-04-21T16:39:19.978Z</time></trkpt><trkpt lat="40.20937362625861" lon="17.98991173088206"><ele>40.0</ele><time>2026-04-21T16:39:20.978Z</time></trkpt><trkpt lat="40.209524470281906" lon="17.9897150880622"><ele>40.333333333333336</ele><time>2026-04-21T16:39:21.978Z</time></trkpt><trkpt lat="40.2096744542787" lon="17.98951478496231"><ele>40.666666666666664</ele><time>2026-04-21T16:39:22.978Z</time></trkpt><trkpt lat="40.20982319390297" lon="17.989315669050544"><ele>41.0</ele><time>2026-04-21T16:39:23.978Z</time></trkpt><trkpt lat="40.209971912251156" lon="17.989112555173413"><ele>41.33333333333333</ele><time>2026-04-21T16:39:24.978Z</time></trkpt><trkpt lat="40.21012197919857" lon="17.9889082267249"><ele>41.666666666666664</ele><time>2026-04-21T16:39:25.978Z</time></trkpt><trkpt lat="40.21027151495738" lon="17.988712482627836"><ele>42.0</ele><time>2026-04-21T16:39:26.978Z</time></trkpt><trkpt lat="40.21042343632117" lon="17.988515697113947"><ele>42.0</ele><time>2026-04-21T16:39:27.978Z</time></trkpt><trkpt lat="40.21057486048" lon="17.988316371692882"><ele>42.0</ele><time>2026-04-21T16:39:28.978Z</time></trkpt><trkpt lat="40.21072619189206" lon="17.988116319049997"><ele>42.0</ele><time>2026-04-21T16:39:29.978Z</time></trkpt><trkpt lat="40.21087671230282" lon="17.987915645581413"><ele>42.0</ele><time>2026-04-21T16:39:30.978Z</time></trkpt><trkpt lat="40.21102578504808" lon="17.9877188382238"><ele>42.0</ele><time>2026-04-21T16:39:31.978Z</time></trkpt><trkpt lat="40.21117679085114" lon="17.9875195790168"><ele>42.0</ele><time>2026-04-21T16:39:32.978Z</time></trkpt><trkpt lat="40.21132534511579" lon="17.98731889363102"><ele>42.333333333333336</ele><time>2026-04-21T16:39:33.978Z</time></trkpt><trkpt lat="40.21147748806799" lon="17.98711640249326"><ele>42.66666666666667</ele><time>2026-04-21T16:39:34.978Z</time></trkpt><trkpt lat="40.21163253615302" lon="17.986909906742554"><ele>43.0</ele><time>2026-04-21T16:39:35.978Z</time></trkpt><trkpt lat="40.21178455367917" lon="17.986706263698785"><ele>43.66666666666667</ele><time>2026-04-21T16:39:36.978Z</time></trkpt><trkpt lat="40.21193970067677" lon="17.986504800500196"><ele>44.333333333333336</ele><time>2026-04-21T16:39:37.978Z</time></trkpt><trkpt lat="40.21209488837439" lon="17.986302724239064"><ele>45.0</ele><time>2026-04-21T16:39:38.978Z</time></trkpt><trkpt lat="40.21224428088896" lon="17.9861043706365"><ele>45.0</ele><time>2026-04-21T16:39:39.978Z</time></trkpt><trkpt lat="40.212395912646166" lon="17.985903909003497"><ele>45.0</ele><time>2026-04-21T16:39:40.978Z</time></trkpt><trkpt lat="40.21254760483797" lon="17.985700072627104"><ele>45.0</ele><time>2026-04-21T16:39:41.978Z</time></trkpt><trkpt lat="40.212700326636195" lon="17.98549654029907"><ele>45.0</ele><time>2026-04-21T16:39:42.978Z</time></trkpt><trkpt lat="40.21285340335669" lon="17.985294655306962"><ele>45.0</ele><time>2026-04-21T16:39:43.978Z</time></trkpt><trkpt lat="40.2130057801253" lon="17.985098978352557"><ele>45.0</ele><time>2026-04-21T16:39:44.978Z</time></trkpt><trkpt lat="40.21315829762663" lon="17.984899133103408"><ele>44.333333333333336</ele><time>2026-04-21T16:39:45.978Z</time></trkpt><trkpt lat="40.21331042666421" lon="17.984699433055106"><ele>43.66666666666667</ele><time>2026-04-21T16:39:46.978Z</time></trkpt><trkpt lat="40.2134634157535" lon="17.984500397740273"><ele>43.0</ele><time>2026-04-21T16:39:47.978Z</time></trkpt><trkpt lat="40.213615546176776" lon="17.98430158548966"><ele>42.66666666666667</ele><time>2026-04-21T16:39:48.978Z</time></trkpt><trkpt lat="40.21377075883346" lon="17.984105094701665"><ele>42.333333333333336</ele><time>2026-04-21T16:39:49.978Z</time></trkpt><trkpt lat="40.21392426536311" lon="17.9839037516422"><ele>42.0</ele><time>2026-04-21T16:39:50.978Z</time></trkpt><trkpt lat="40.214076573113005" lon="17.983706073144297"><ele>42.0</ele><time>2026-04-21T16:39:51.978Z</time></trkpt><trkpt lat="40.2142283608451" lon="17.983502345308253"><ele>42.0</ele><time>2026-04-21T16:39:52.978Z</time></trkpt><trkpt lat="40.21437924761902" lon="17.98330004625753"><ele>42.0</ele><time>2026-04-21T16:39:53.978Z</time></trkpt><trkpt lat="40.21453099399077" lon="17.98309489879971"><ele>42.333333333333336</ele><time>2026-04-21T16:39:54.978Z</time></trkpt><trkpt lat="40.21468182213879" lon="17.982892006226464"><ele>42.66666666666667</ele><time>2026-04-21T16:39:55.978Z</time></trkpt><trkpt lat="40.21483501289238" lon="17.982688439348177"><ele>43.0</ele><time>2026-04-21T16:39:56.978Z</time></trkpt><trkpt lat="40.214987451024385" lon="17.982484469757612"><ele>43.333333333333336</ele><time>2026-04-21T16:39:57.978Z</time></trkpt><trkpt lat="40.21514052037207" lon="17.982282022961826"><ele>43.666666666666664</ele><time>2026-04-21T16:39:58.979Z</time></trkpt><trkpt lat="40.21529348907526" lon="17.9820816124169"><ele>44.0</ele><time>2026-04-21T16:39:59.979Z</time></trkpt><trkpt lat="40.215445054581" lon="17.981878768130787"><ele>44.0</ele><time>2026-04-21T16:40:00.979Z</time></trkpt><trkpt lat="40.215595546933315" lon="17.98167623475706"><ele>44.0</ele><time>2026-04-21T16:40:01.978Z</time></trkpt><trkpt lat="40.2157474305011" lon="17.981471788552685"><ele>44.0</ele><time>2026-04-21T16:40:02.978Z</time></trkpt><trkpt lat="40.215900274658246" lon="17.98126905119929"><ele>43.666666666666664</ele><time>2026-04-21T16:40:03.978Z</time></trkpt><trkpt lat="40.216053031060305" lon="17.98107008460936"><ele>43.333333333333336</ele><time>2026-04-21T16:40:04.978Z</time></trkpt><trkpt lat="40.21620868644632" lon="17.98086776681529"><ele>43.0</ele><time>2026-04-21T16:40:05.978Z</time></trkpt><trkpt lat="40.21635764145649" lon="17.98067240347722"><ele>43.333333333333336</ele><time>2026-04-21T16:40:06.978Z</time></trkpt><trkpt lat="40.216510394505846" lon="17.980473530855278"><ele>43.666666666666664</ele><time>2026-04-21T16:40:07.978Z</time></trkpt><trkpt lat="40.2166641776492" lon="17.980271783916194"><ele>44.0</ele><time>2026-04-21T16:40:08.978Z</time></trkpt><trkpt lat="40.21681767688747" lon="17.98006927575007"><ele>43.666666666666664</ele><time>2026-04-21T16:40:09.978Z</time></trkpt><trkpt lat="40.21696805002338" lon="17.979870336019268"><ele>43.333333333333336</ele><time>2026-04-21T16:40:10.978Z</time></trkpt><trkpt lat="40.21711841604473" lon="17.979669363345458"><ele>43.0</ele><time>2026-04-21T16:40:11.978Z</time></trkpt><trkpt lat="40.217270919884726" lon="17.979471464927855"><ele>42.66666666666667</ele><time>2026-04-21T16:40:12.978Z</time></trkpt><trkpt lat="40.21742202060849" lon="17.97927223860607"><ele>42.333333333333336</ele><time>2026-04-21T16:40:13.978Z</time></trkpt><trkpt lat="40.217573692853435" lon="17.979070385483404"><ele>42.0</ele><time>2026-04-21T16:40:14.978Z</time></trkpt><trkpt lat="40.21772590089822" lon="17.97887253806532"><ele>42.0</ele><time>2026-04-21T16:40:15.978Z</time></trkpt><trkpt lat="40.21787834502065" lon="17.97867421371119"><ele>42.0</ele><time>2026-04-21T16:40:16.978Z</time></trkpt><trkpt lat="40.218031083724284" lon="17.978475126826694"><ele>42.0</ele><time>2026-04-21T16:40:17.978Z</time></trkpt><trkpt lat="40.218182846268135" lon="17.978271090813635"><ele>42.0</ele><time>2026-04-21T16:40:18.978Z</time></trkpt><trkpt lat="40.218334832181846" lon="17.978067935000958"><ele>42.0</ele><time>2026-04-21T16:40:19.978Z</time></trkpt><trkpt lat="40.21848759171372" lon="17.977866675854614"><ele>42.0</ele><time>2026-04-21T16:40:20.978Z</time></trkpt><trkpt lat="40.218639698369245" lon="17.977665882506507"><ele>42.0</ele><time>2026-04-21T16:40:21.978Z</time></trkpt><trkpt lat="40.2187904420531" lon="17.977463842124596"><ele>42.0</ele><time>2026-04-21T16:40:22.978Z</time></trkpt><trkpt lat="40.21894133547062" lon="17.977263918091033"><ele>42.0</ele><time>2026-04-21T16:40:23.978Z</time></trkpt><trkpt lat="40.219094541930716" lon="17.977062208338346"><ele>41.333333333333336</ele><time>2026-04-21T16:40:24.978Z</time></trkpt><trkpt lat="40.21924845717316" lon="17.976862106233877"><ele>40.66666666666667</ele><time>2026-04-21T16:40:25.978Z</time></trkpt><trkpt lat="40.21939771257265" lon="17.97666298132214"><ele>40.0</ele><time>2026-04-21T16:40:26.978Z</time></trkpt><trkpt lat="40.21954930264262" lon="17.976464185024"><ele>40.0</ele><time>2026-04-21T16:40:27.978Z</time></trkpt><trkpt lat="40.21970271295636" lon="17.976265164809366"><ele>40.0</ele><time>2026-04-21T16:40:28.978Z</time></trkpt><trkpt lat="40.21985436582462" lon="17.97606899618312"><ele>40.0</ele><time>2026-04-21T16:40:29.978Z</time></trkpt><trkpt lat="40.22000489763932" lon="17.97587440829807"><ele>40.66666666666667</ele><time>2026-04-21T16:40:30.978Z</time></trkpt><trkpt lat="40.22015228130414" lon="17.975674128848176"><ele>41.333333333333336</ele><time>2026-04-21T16:40:31.978Z</time></trkpt><trkpt lat="40.220302615881245" lon="17.975470758805862"><ele>42.0</ele><time>2026-04-21T16:40:32.978Z</time></trkpt><trkpt lat="40.22045042183325" lon="17.975271219600923"><ele>42.0</ele><time>2026-04-21T16:40:33.978Z</time></trkpt><trkpt lat="40.22060164630205" lon="17.975072642626778"><ele>42.0</ele><time>2026-04-21T16:40:34.978Z</time></trkpt><trkpt lat="40.22075316546285" lon="17.974869688862004"><ele>42.0</ele><time>2026-04-21T16:40:35.978Z</time></trkpt><trkpt lat="40.22090479434636" lon="17.97466713556097"><ele>42.0</ele><time>2026-04-21T16:40:36.978Z</time></trkpt><trkpt lat="40.221056373391605" lon="17.974460321315654"><ele>42.0</ele><time>2026-04-21T16:40:37.978Z</time></trkpt><trkpt lat="40.2212079729465" lon="17.974256674621863"><ele>42.0</ele><time>2026-04-21T16:40:38.978Z</time></trkpt><trkpt lat="40.22136222214443" lon="17.9740589317527"><ele>42.666666666666664</ele><time>2026-04-21T16:40:39.978Z</time></trkpt><trkpt lat="40.221515580012344" lon="17.973862530502345"><ele>43.33333333333333</ele><time>2026-04-21T16:40:40.978Z</time></trkpt><trkpt lat="40.2216658392043" lon="17.973660693079097"><ele>44.0</ele><time>2026-04-21T16:40:41.978Z</time></trkpt><trkpt lat="40.22181558068356" lon="17.97345587809133"><ele>44.0</ele><time>2026-04-21T16:40:42.978Z</time></trkpt><trkpt lat="40.22196446684713" lon="17.973251431274264"><ele>44.0</ele><time>2026-04-21T16:40:43.978Z</time></trkpt><trkpt lat="40.2221102397637" lon="17.97304723558542"><ele>44.0</ele><time>2026-04-21T16:40:44.978Z</time></trkpt><trkpt lat="40.22226523971681" lon="17.972846131267964"><ele>44.0</ele><time>2026-04-21T16:40:45.978Z</time></trkpt><trkpt lat="40.222419108193044" lon="17.972649491575645"><ele>44.0</ele><time>2026-04-21T16:40:46.978Z</time></trkpt><trkpt lat="40.22257988514808" lon="17.972455669332547"><ele>44.0</ele><time>2026-04-21T16:40:47.978Z</time></trkpt><trkpt lat="40.22273333341471" lon="17.972253017226613"><ele>44.0</ele><time>2026-04-21T16:40:48.978Z</time></trkpt><trkpt lat="40.222887910783605" lon="17.972050401616222"><ele>44.0</ele><time>2026-04-21T16:40:49.978Z</time></trkpt><trkpt lat="40.22304156077585" lon="17.97185050132914"><ele>44.0</ele><time>2026-04-21T16:40:50.978Z</time></trkpt><trkpt lat="40.2231943525694" lon="17.97164664172907"><ele>43.666666666666664</ele><time>2026-04-21T16:40:51.978Z</time></trkpt><trkpt lat="40.22334414376418" lon="17.971445427309536"><ele>43.333333333333336</ele><time>2026-04-21T16:40:52.977Z</time></trkpt><trkpt lat="40.22349985935795" lon="17.971245275219722"><ele>43.0</ele><time>2026-04-21T16:40:53.977Z</time></trkpt><trkpt lat="40.22365518046722" lon="17.971046926382424"><ele>43.0</ele><time>2026-04-21T16:40:54.977Z</time></trkpt><trkpt lat="40.22380828105367" lon="17.97084516135638"><ele>43.0</ele><time>2026-04-21T16:40:55.977Z</time></trkpt><trkpt lat="40.2239653799596" lon="17.970642545602885"><ele>43.0</ele><time>2026-04-21T16:40:56.977Z</time></trkpt><trkpt lat="40.22412188563186" lon="17.970438116230188"><ele>43.0</ele><time>2026-04-21T16:40:57.977Z</time></trkpt><trkpt lat="40.22427866951957" lon="17.9702372793842"><ele>43.0</ele><time>2026-04-21T16:40:58.977Z</time></trkpt><trkpt lat="40.224435949646065" lon="17.97003909516565"><ele>43.0</ele><time>2026-04-21T16:40:59.977Z</time></trkpt><trkpt lat="40.22459118475038" lon="17.969839222075034"><ele>43.333333333333336</ele><time>2026-04-21T16:41:00.977Z</time></trkpt><trkpt lat="40.22474067381844" lon="17.969638639641836"><ele>43.666666666666664</ele><time>2026-04-21T16:41:01.977Z</time></trkpt><trkpt lat="40.22488582731808" lon="17.969433713675006"><ele>44.0</ele><time>2026-04-21T16:41:02.977Z</time></trkpt><trkpt lat="40.22503160244275" lon="17.969233802482798"><ele>43.666666666666664</ele><time>2026-04-21T16:41:03.977Z</time></trkpt><trkpt lat="40.22517676443021" lon="17.96903678095718"><ele>43.333333333333336</ele><time>2026-04-21T16:41:04.977Z</time></trkpt><trkpt lat="40.22532490818537" lon="17.96883715920945"><ele>43.0</ele><time>2026-04-21T16:41:05.977Z</time></trkpt><trkpt lat="40.22547021523093" lon="17.968638442477737"><ele>43.0</ele><time>2026-04-21T16:41:06.977Z</time></trkpt><trkpt lat="40.225619990954655" lon="17.968439568816564"><ele>43.0</ele><time>2026-04-21T16:41:07.977Z</time></trkpt><trkpt lat="40.22576757613277" lon="17.96824222926415"><ele>43.0</ele><time>2026-04-21T16:41:08.977Z</time></trkpt><trkpt lat="40.22591643366057" lon="17.968046350172017"><ele>43.0</ele><time>2026-04-21T16:41:09.977Z</time></trkpt><trkpt lat="40.22606551407437" lon="17.967850243194153"><ele>43.0</ele><time>2026-04-21T16:41:10.977Z</time></trkpt><trkpt lat="40.226213455224595" lon="17.967653665169138"><ele>43.0</ele><time>2026-04-21T16:41:11.977Z</time></trkpt><trkpt lat="40.226366825090935" lon="17.967455417217476"><ele>43.0</ele><time>2026-04-21T16:41:12.977Z</time></trkpt><trkpt lat="40.22651845241383" lon="17.967255250372098"><ele>43.0</ele><time>2026-04-21T16:41:13.977Z</time></trkpt><trkpt lat="40.226667289842545" lon="17.967051148167712"><ele>43.0</ele><time>2026-04-21T16:41:14.977Z</time></trkpt><trkpt lat="40.226820099782174" lon="17.966849659836562"><ele>43.333333333333336</ele><time>2026-04-21T16:41:15.977Z</time></trkpt><trkpt lat="40.226973674655255" lon="17.966643940826206"><ele>43.666666666666664</ele><time>2026-04-21T16:41:16.977Z</time></trkpt><trkpt lat="40.22712950223928" lon="17.966435971906954"><ele>44.0</ele><time>2026-04-21T16:41:17.977Z</time></trkpt><trkpt lat="40.227285000649914" lon="17.966231156946794"><ele>44.0</ele><time>2026-04-21T16:41:18.977Z</time></trkpt><trkpt lat="40.22743971286576" lon="17.96602657363864"><ele>44.0</ele><time>2026-04-21T16:41:19.977Z</time></trkpt><trkpt lat="40.227592341389595" lon="17.965823962016913"><ele>44.0</ele><time>2026-04-21T16:41:20.977Z</time></trkpt><trkpt lat="40.22774560586362" lon="17.96562383549625"><ele>43.666666666666664</ele><time>2026-04-21T16:41:21.977Z</time></trkpt><trkpt lat="40.22789779682496" lon="17.96542333571327"><ele>43.333333333333336</ele><time>2026-04-21T16:41:22.977Z</time></trkpt><trkpt lat="40.228050021373036" lon="17.96522185816153"><ele>43.0</ele><time>2026-04-21T16:41:23.977Z</time></trkpt><trkpt lat="40.2282002128356" lon="17.965022390501858"><ele>42.66666666666667</ele><time>2026-04-21T16:41:24.977Z</time></trkpt><trkpt lat="40.22835353506575" lon="17.96482065111413"><ele>42.333333333333336</ele><time>2026-04-21T16:41:25.977Z</time></trkpt><trkpt lat="40.22850544802031" lon="17.964615917908148"><ele>42.0</ele><time>2026-04-21T16:41:26.977Z</time></trkpt><trkpt lat="40.228656820336255" lon="17.964415434022506"><ele>42.0</ele><time>2026-04-21T16:41:27.977Z</time></trkpt><trkpt lat="40.22880895514233" lon="17.964213991170663"><ele>42.0</ele><time>2026-04-21T16:41:28.977Z</time></trkpt><trkpt lat="40.22896095142609" lon="17.96401166336031"><ele>42.0</ele><time>2026-04-21T16:41:29.977Z</time></trkpt><trkpt lat="40.22911200661028" lon="17.963807709378408"><ele>42.333333333333336</ele><time>2026-04-21T16:41:30.977Z</time></trkpt><trkpt lat="40.229264757368966" lon="17.96360911927102"><ele>42.66666666666667</ele><time>2026-04-21T16:41:31.977Z</time></trkpt><trkpt lat="40.22941685596451" lon="17.963412106488526"><ele>43.0</ele><time>2026-04-21T16:41:32.977Z</time></trkpt><trkpt lat="40.22956815619806" lon="17.963212764197596"><ele>43.333333333333336</ele><time>2026-04-21T16:41:33.977Z</time></trkpt><trkpt lat="40.22971919950227" lon="17.963009590456952"><ele>43.666666666666664</ele><time>2026-04-21T16:41:34.977Z</time></trkpt><trkpt lat="40.229869876338576" lon="17.96280709751885"><ele>44.0</ele><time>2026-04-21T16:41:35.977Z</time></trkpt><trkpt lat="40.23002181106021" lon="17.962608938643758"><ele>44.33333333333333</ele><time>2026-04-21T16:41:36.977Z</time></trkpt><trkpt lat="40.230171362165414" lon="17.962404785291053"><ele>44.666666666666664</ele><time>2026-04-21T16:41:37.977Z</time></trkpt><trkpt lat="40.2303234819679" lon="17.96220299265918"><ele>45.0</ele><time>2026-04-21T16:41:38.977Z</time></trkpt><trkpt lat="40.230477713694434" lon="17.962005404329837"><ele>45.0</ele><time>2026-04-21T16:41:39.977Z</time></trkpt><trkpt lat="40.230629301139714" lon="17.96180822227671"><ele>45.0</ele><time>2026-04-21T16:41:40.977Z</time></trkpt><trkpt lat="40.230782259877934" lon="17.96160889766153"><ele>45.0</ele><time>2026-04-21T16:41:41.977Z</time></trkpt><trkpt lat="40.230934346800204" lon="17.961406614653374"><ele>44.333333333333336</ele><time>2026-04-21T16:41:42.977Z</time></trkpt><trkpt lat="40.23109224866568" lon="17.96120503669217"><ele>43.66666666666667</ele><time>2026-04-21T16:41:43.977Z</time></trkpt><trkpt lat="40.231246853387276" lon="17.961005760850288"><ele>43.0</ele><time>2026-04-21T16:41:44.977Z</time></trkpt><trkpt lat="40.23140284932156" lon="17.9607999323981"><ele>43.0</ele><time>2026-04-21T16:41:45.977Z</time></trkpt><trkpt lat="40.231556741629774" lon="17.96059944177858"><ele>43.0</ele><time>2026-04-21T16:41:46.977Z</time></trkpt><trkpt lat="40.231711628301944" lon="17.960399525060907"><ele>43.0</ele><time>2026-04-21T16:41:47.977Z</time></trkpt><trkpt lat="40.23186436572148" lon="17.960201982437518"><ele>42.66666666666667</ele><time>2026-04-21T16:41:48.977Z</time></trkpt><trkpt lat="40.23201634835169" lon="17.9600024576224"><ele>42.333333333333336</ele><time>2026-04-21T16:41:49.977Z</time></trkpt><trkpt lat="40.2321656682576" lon="17.95980244617683"><ele>42.0</ele><time>2026-04-21T16:41:50.977Z</time></trkpt><trkpt lat="40.23231573323783" lon="17.95960086250561"><ele>42.0</ele><time>2026-04-21T16:41:51.977Z</time></trkpt><trkpt lat="40.23246772470933" lon="17.95939946710293"><ele>42.0</ele><time>2026-04-21T16:41:52.977Z</time></trkpt><trkpt lat="40.23262049355374" lon="17.959200046812885"><ele>42.0</ele><time>2026-04-21T16:41:53.977Z</time></trkpt><trkpt lat="40.23277059904404" lon="17.958995895886797"><ele>41.666666666666664</ele><time>2026-04-21T16:41:54.977Z</time></trkpt><trkpt lat="40.232914433278076" lon="17.958802644371918"><ele>41.33333333333333</ele><time>2026-04-21T16:41:55.977Z</time></trkpt><trkpt lat="40.233037358422244" lon="17.95861243762565"><ele>41.0</ele><time>2026-04-21T16:41:56.977Z</time></trkpt><trkpt lat="40.2331553152237" lon="17.95843888167638"><ele>40.666666666666664</ele><time>2026-04-21T16:41:57.977Z</time></trkpt><trkpt lat="40.23327264485859" lon="17.958279288146695"><ele>40.333333333333336</ele><time>2026-04-21T16:41:58.977Z</time></trkpt><trkpt lat="40.233381803906454" lon="17.958126380239836"><ele>40.0</ele><time>2026-04-21T16:41:59.977Z</time></trkpt><trkpt lat="40.233463798845406" lon="17.957976560579056"><ele>40.0</ele><time>2026-04-21T16:42:00.977Z</time></trkpt><trkpt lat="40.233515385884594" lon="17.957830571916944"><ele>40.0</ele><time>2026-04-21T16:42:01.977Z</time></trkpt><trkpt lat="40.23355039565801" lon="17.957686733516073"><ele>40.0</ele><time>2026-04-21T16:42:02.977Z</time></trkpt><trkpt lat="40.23353946386773" lon="17.957542613632388"><ele>40.0</ele><time>2026-04-21T16:42:03.978Z</time></trkpt><trkpt lat="40.23351219977783" lon="17.95742518519067"><ele>40.0</ele><time>2026-04-21T16:42:04.978Z</time></trkpt><trkpt lat="40.23341168555534" lon="17.957310097149342"><ele>41.0</ele><time>2026-04-21T16:42:05.978Z</time></trkpt><trkpt lat="40.23403408327089" lon="17.95734134795582"><ele>41.0</ele><time>2026-04-21T16:42:06.978Z</time></trkpt><trkpt lat="40.234141033917005" lon="17.95732072152552"><ele>41.0</ele><time>2026-04-21T16:42:08.977Z</time></trkpt><trkpt lat="40.23421372512146" lon="17.9573425885704"><ele>41.0</ele><time>2026-04-21T16:42:09.977Z</time></trkpt><trkpt lat="40.23429615736663" lon="17.957378575113488"><ele>41.0</ele><time>2026-04-21T16:42:10.977Z</time></trkpt><trkpt lat="40.23438641118984" lon="17.957396422674677"><ele>41.0</ele><time>2026-04-21T16:42:11.977Z</time></trkpt><trkpt lat="40.23448826423707" lon="17.95738402865604"><ele>41.0</ele><time>2026-04-21T16:42:12.978Z</time></trkpt><trkpt lat="40.23456901382426" lon="17.957334360634814"><ele>41.0</ele><time>2026-04-21T16:42:13.977Z</time></trkpt><trkpt lat="40.23463700883558" lon="17.957258688058893"><ele>41.0</ele><time>2026-04-21T16:42:14.977Z</time></trkpt><trkpt lat="40.23468562237758" lon="17.95715780984549"><ele>41.0</ele><time>2026-04-21T16:42:15.977Z</time></trkpt><trkpt lat="40.23470956649278" lon="17.95703278256728"><ele>41.0</ele><time>2026-04-21T16:42:16.977Z</time></trkpt><trkpt lat="40.234706617106355" lon="17.9568834788004"><ele>41.0</ele><time>2026-04-21T16:42:17.977Z</time></trkpt><trkpt lat="40.23468836224289" lon="17.956728095232886"><ele>41.0</ele><time>2026-04-21T16:42:18.977Z</time></trkpt><trkpt lat="40.23467721000366" lon="17.95657510371105"><ele>41.0</ele><time>2026-04-21T16:42:19.977Z</time></trkpt><trkpt lat="40.23469584761136" lon="17.956438761764787"><ele>41.0</ele><time>2026-04-21T16:42:20.977Z</time></trkpt><trkpt lat="40.23473621215644" lon="17.956319991622536"><ele>41.0</ele><time>2026-04-21T16:42:21.977Z</time></trkpt><trkpt lat="40.23480531177581" lon="17.95621112113866"><ele>40.75</ele><time>2026-04-21T16:42:22.977Z</time></trkpt><trkpt lat="40.23489633382148" lon="17.95611206084793"><ele>40.5</ele><time>2026-04-21T16:42:23.977Z</time></trkpt><trkpt lat="40.2349972652187" lon="17.955983124771656"><ele>40.25</ele><time>2026-04-21T16:42:24.977Z</time></trkpt><trkpt lat="40.235109013026026" lon="17.95583175211006"><ele>40.0</ele><time>2026-04-21T16:42:25.977Z</time></trkpt><trkpt lat="40.2352319415222" lon="17.955666887650807"><ele>40.0</ele><time>2026-04-21T16:42:26.977Z</time></trkpt><trkpt lat="40.235365763267374" lon="17.955490917342278"><ele>40.0</ele><time>2026-04-21T16:42:27.977Z</time></trkpt><trkpt lat="40.23554182610902" lon="17.955265110747487"><ele>40.0</ele><time>2026-04-21T16:42:28.977Z</time></trkpt><trkpt lat="40.23568545959794" lon="17.955075000272615"><ele>39.66666666666667</ele><time>2026-04-21T16:42:29.977Z</time></trkpt><trkpt lat="40.23583395902933" lon="17.95488044354987"><ele>39.333333333333336</ele><time>2026-04-21T16:42:30.977Z</time></trkpt><trkpt lat="40.235989479985854" lon="17.954676487970424"><ele>39.0</ele><time>2026-04-21T16:42:31.977Z</time></trkpt><trkpt lat="40.23614384062358" lon="17.954465845405622"><ele>39.0</ele><time>2026-04-21T16:42:32.977Z</time></trkpt><trkpt lat="40.23629591006317" lon="17.95425803022114"><ele>39.0</ele><time>2026-04-21T16:42:33.977Z</time></trkpt><trkpt lat="40.23644131343791" lon="17.954058162011734"><ele>39.0</ele><time>2026-04-21T16:42:34.977Z</time></trkpt><trkpt lat="40.23658752333324" lon="17.953857938234222"><ele>39.333333333333336</ele><time>2026-04-21T16:42:35.977Z</time></trkpt><trkpt lat="40.23673558228764" lon="17.953652831171325"><ele>39.66666666666667</ele><time>2026-04-21T16:42:36.977Z</time></trkpt><trkpt lat="40.23688712494989" lon="17.953452104327493"><ele>40.0</ele><time>2026-04-21T16:42:37.977Z</time></trkpt><trkpt lat="40.23703710040957" lon="17.953248764301556"><ele>40.333333333333336</ele><time>2026-04-21T16:42:38.977Z</time></trkpt><trkpt lat="40.23719313522919" lon="17.953045019396278"><ele>40.666666666666664</ele><time>2026-04-21T16:42:39.977Z</time></trkpt><trkpt lat="40.23734384988605" lon="17.952840945696284"><ele>41.0</ele><time>2026-04-21T16:42:40.977Z</time></trkpt><trkpt lat="40.23749474892513" lon="17.952632786388588"><ele>40.33333333333333</ele><time>2026-04-21T16:42:41.977Z</time></trkpt><trkpt lat="40.23764643648312" lon="17.95242687689599"><ele>39.666666666666664</ele><time>2026-04-21T16:42:42.977Z</time></trkpt><trkpt lat="40.23779795653163" lon="17.95222192987415"><ele>39.0</ele><time>2026-04-21T16:42:43.977Z</time></trkpt><trkpt lat="40.23794899767501" lon="17.952016038630838"><ele>39.0</ele><time>2026-04-21T16:42:44.977Z</time></trkpt><trkpt lat="40.238099440632595" lon="17.95181271572114"><ele>39.0</ele><time>2026-04-21T16:42:45.977Z</time></trkpt><trkpt lat="40.23824961515732" lon="17.951607016117254"><ele>39.0</ele><time>2026-04-21T16:42:46.977Z</time></trkpt><trkpt lat="40.23839896418737" lon="17.951400213843275"><ele>38.666666666666664</ele><time>2026-04-21T16:42:47.977Z</time></trkpt><trkpt lat="40.23855318204083" lon="17.95119239928106"><ele>38.33333333333333</ele><time>2026-04-21T16:42:48.977Z</time></trkpt><trkpt lat="40.238703684182006" lon="17.950985328719618"><ele>38.0</ele><time>2026-04-21T16:42:49.977Z</time></trkpt><trkpt lat="40.23885348430742" lon="17.950780730005295"><ele>37.666666666666664</ele><time>2026-04-21T16:42:50.977Z</time></trkpt><trkpt lat="40.2390073094275" lon="17.950577057946404"><ele>37.333333333333336</ele><time>2026-04-21T16:42:51.977Z</time></trkpt><trkpt lat="40.23915976543407" lon="17.95036970973566"><ele>37.0</ele><time>2026-04-21T16:42:52.977Z</time></trkpt><trkpt lat="40.23930594535337" lon="17.950162666996548"><ele>37.0</ele><time>2026-04-21T16:42:53.977Z</time></trkpt><trkpt lat="40.23945989228065" lon="17.949958269743977"><ele>37.0</ele><time>2026-04-21T16:42:54.977Z</time></trkpt><trkpt lat="40.23960607012042" lon="17.9497474357483"><ele>37.0</ele><time>2026-04-21T16:42:55.977Z</time></trkpt><trkpt lat="40.239760428462496" lon="17.94954324326555"><ele>36.333333333333336</ele><time>2026-04-21T16:42:56.977Z</time></trkpt><trkpt lat="40.23991384529365" lon="17.9493402197554"><ele>35.666666666666664</ele><time>2026-04-21T16:42:57.977Z</time></trkpt><trkpt lat="40.24006643440844" lon="17.949136095597673"><ele>35.0</ele><time>2026-04-21T16:42:58.977Z</time></trkpt><trkpt lat="40.240218715695676" lon="17.948930451908574"><ele>35.0</ele><time>2026-04-21T16:42:59.977Z</time></trkpt><trkpt lat="40.24036991914708" lon="17.948724526053596"><ele>35.0</ele><time>2026-04-21T16:43:00.977Z</time></trkpt><trkpt lat="40.240521309963476" lon="17.94851847854361"><ele>35.0</ele><time>2026-04-21T16:43:01.977Z</time></trkpt><trkpt lat="40.24067273405727" lon="17.948314153466967"><ele>34.0</ele><time>2026-04-21T16:43:02.977Z</time></trkpt><trkpt lat="40.24082314720396" lon="17.948106563231985"><ele>33.0</ele><time>2026-04-21T16:43:03.977Z</time></trkpt><trkpt lat="40.24097323502979" lon="17.94790068240339"><ele>32.0</ele><time>2026-04-21T16:43:04.977Z</time></trkpt><trkpt lat="40.241124317176286" lon="17.947692957027563"><ele>32.33333333333333</ele><time>2026-04-21T16:43:05.977Z</time></trkpt><trkpt lat="40.24127716058559" lon="17.947486956902786"><ele>32.666666666666664</ele><time>2026-04-21T16:43:06.977Z</time></trkpt><trkpt lat="40.24142812296893" lon="17.947284638220893"><ele>33.0</ele><time>2026-04-21T16:43:07.977Z</time></trkpt><trkpt lat="40.24157967816867" lon="17.947078005974795"><ele>33.0</ele><time>2026-04-21T16:43:08.977Z</time></trkpt><trkpt lat="40.24173189200884" lon="17.9468715605836"><ele>33.0</ele><time>2026-04-21T16:43:09.977Z</time></trkpt><trkpt lat="40.24188348547225" lon="17.94666818969259"><ele>33.0</ele><time>2026-04-21T16:43:10.977Z</time></trkpt><trkpt lat="40.24203732357468" lon="17.946463631087436"><ele>33.0</ele><time>2026-04-21T16:43:11.977Z</time></trkpt><trkpt lat="40.24219147113501" lon="17.94626159190484"><ele>33.0</ele><time>2026-04-21T16:43:12.977Z</time></trkpt><trkpt lat="40.242343243749445" lon="17.946054607291664"><ele>33.0</ele><time>2026-04-21T16:43:13.977Z</time></trkpt><trkpt lat="40.242495795103835" lon="17.945847090034714"><ele>33.0</ele><time>2026-04-21T16:43:14.977Z</time></trkpt><trkpt lat="40.24264564376992" lon="17.945646509192112"><ele>33.0</ele><time>2026-04-21T16:43:15.977Z</time></trkpt><trkpt lat="40.24279689975713" lon="17.945441067307875"><ele>33.0</ele><time>2026-04-21T16:43:16.977Z</time></trkpt><trkpt lat="40.2429507835916" lon="17.945232083154384"><ele>33.0</ele><time>2026-04-21T16:43:17.977Z</time></trkpt><trkpt lat="40.24310122697787" lon="17.945026357537735"><ele>33.0</ele><time>2026-04-21T16:43:18.977Z</time></trkpt><trkpt lat="40.2432525276532" lon="17.944820430819796"><ele>33.0</ele><time>2026-04-21T16:43:19.977Z</time></trkpt><trkpt lat="40.24340128083171" lon="17.944612660675254"><ele>32.666666666666664</ele><time>2026-04-21T16:43:20.977Z</time></trkpt><trkpt lat="40.24355109862608" lon="17.944410575693723"><ele>32.33333333333333</ele><time>2026-04-21T16:43:21.977Z</time></trkpt><trkpt lat="40.243701048296344" lon="17.94420388994325"><ele>32.0</ele><time>2026-04-21T16:43:22.977Z</time></trkpt><trkpt lat="40.243851466676944" lon="17.943998185250475"><ele>32.0</ele><time>2026-04-21T16:43:23.977Z</time></trkpt><trkpt lat="40.24400316244987" lon="17.943792279721553"><ele>32.0</ele><time>2026-04-21T16:43:24.977Z</time></trkpt><trkpt lat="40.24415385888965" lon="17.943585119085153"><ele>32.0</ele><time>2026-04-21T16:43:25.977Z</time></trkpt><trkpt lat="40.24430765024332" lon="17.94337927190191"><ele>31.666666666666664</ele><time>2026-04-21T16:43:26.977Z</time></trkpt><trkpt lat="40.2444585675535" lon="17.943171111010773"><ele>31.333333333333336</ele><time>2026-04-21T16:43:27.977Z</time></trkpt><trkpt lat="40.24460902882597" lon="17.942963256483047"><ele>31.0</ele><time>2026-04-21T16:43:28.977Z</time></trkpt><trkpt lat="40.24476370941826" lon="17.94275879909444"><ele>31.0</ele><time>2026-04-21T16:43:29.977Z</time></trkpt><trkpt lat="40.244917007473965" lon="17.942557589498282"><ele>31.0</ele><time>2026-04-21T16:43:30.977Z</time></trkpt><trkpt lat="40.24507019668628" lon="17.94235402779453"><ele>31.0</ele><time>2026-04-21T16:43:31.977Z</time></trkpt><trkpt lat="40.245221703605445" lon="17.942148893461653"><ele>31.0</ele><time>2026-04-21T16:43:32.977Z</time></trkpt><trkpt lat="40.245372222178275" lon="17.941941633030126"><ele>31.0</ele><time>2026-04-21T16:43:33.977Z</time></trkpt><trkpt lat="40.245521224693015" lon="17.94173279570357"><ele>31.0</ele><time>2026-04-21T16:43:34.977Z</time></trkpt><trkpt lat="40.24566880526362" lon="17.941528349985116"><ele>30.666666666666668</ele><time>2026-04-21T16:43:35.977Z</time></trkpt><trkpt lat="40.24581786740178" lon="17.941323256943594"><ele>30.333333333333336</ele><time>2026-04-21T16:43:36.977Z</time></trkpt><trkpt lat="40.24597092593255" lon="17.941114080623706"><ele>30.0</ele><time>2026-04-21T16:43:37.977Z</time></trkpt><trkpt lat="40.24612398349851" lon="17.94091640875595"><ele>30.0</ele><time>2026-04-21T16:43:38.977Z</time></trkpt><trkpt lat="40.246280295784814" lon="17.940713213565147"><ele>30.0</ele><time>2026-04-21T16:43:39.977Z</time></trkpt><trkpt lat="40.24643463209954" lon="17.940508211887376"><ele>30.0</ele><time>2026-04-21T16:43:40.977Z</time></trkpt><trkpt lat="40.246589102455516" lon="17.940302141784525"><ele>30.0</ele><time>2026-04-21T16:43:41.977Z</time></trkpt><trkpt lat="40.246746602848" lon="17.940101641582526"><ele>30.0</ele><time>2026-04-21T16:43:42.977Z</time></trkpt><trkpt lat="40.24690150451385" lon="17.93989964014711"><ele>30.0</ele><time>2026-04-21T16:43:43.977Z</time></trkpt><trkpt lat="40.24705439782909" lon="17.939693949111437"><ele>29.666666666666664</ele><time>2026-04-21T16:43:44.977Z</time></trkpt><trkpt lat="40.24720631660963" lon="17.939489068901175"><ele>29.333333333333332</ele><time>2026-04-21T16:43:45.977Z</time></trkpt><trkpt lat="40.247358005017524" lon="17.939283252272467"><ele>29.0</ele><time>2026-04-21T16:43:46.977Z</time></trkpt><trkpt lat="40.247505901752575" lon="17.939076857969113"><ele>28.333333333333332</ele><time>2026-04-21T16:43:47.977Z</time></trkpt><trkpt lat="40.2476572591325" lon="17.9388729216813"><ele>27.666666666666664</ele><time>2026-04-21T16:43:48.977Z</time></trkpt><trkpt lat="40.24781053922168" lon="17.9386703173125"><ele>27.0</ele><time>2026-04-21T16:43:49.977Z</time></trkpt><trkpt lat="40.247962222533644" lon="17.938466142983266"><ele>27.0</ele><time>2026-04-21T16:43:50.977Z</time></trkpt><trkpt lat="40.24811543165571" lon="17.93825923079688"><ele>27.0</ele><time>2026-04-21T16:43:51.977Z</time></trkpt><trkpt lat="40.24826496232189" lon="17.938055459508977"><ele>27.0</ele><time>2026-04-21T16:43:52.977Z</time></trkpt><trkpt lat="40.248415182441164" lon="17.937849805547938"><ele>27.0</ele><time>2026-04-21T16:43:53.977Z</time></trkpt><trkpt lat="40.2485701053863" lon="17.93764840795927"><ele>27.0</ele><time>2026-04-21T16:43:54.977Z</time></trkpt><trkpt lat="40.24872190657103" lon="17.937446545434373"><ele>27.0</ele><time>2026-04-21T16:43:55.977Z</time></trkpt><trkpt lat="40.24887579885085" lon="17.937242422583804"><ele>26.333333333333336</ele><time>2026-04-21T16:43:56.977Z</time></trkpt><trkpt lat="40.24902874799507" lon="17.93703556272387"><ele>25.666666666666668</ele><time>2026-04-21T16:43:57.977Z</time></trkpt><trkpt lat="40.249180195191805" lon="17.9368305505271"><ele>25.0</ele><time>2026-04-21T16:43:58.977Z</time></trkpt><trkpt lat="40.249334746028545" lon="17.93662227861537"><ele>25.0</ele><time>2026-04-21T16:43:59.977Z</time></trkpt><trkpt lat="40.24948433132476" lon="17.936421184852705"><ele>25.0</ele><time>2026-04-21T16:44:00.977Z</time></trkpt><trkpt lat="40.249635440979254" lon="17.936216221184264"><ele>25.0</ele><time>2026-04-21T16:44:01.977Z</time></trkpt><trkpt lat="40.24978847726435" lon="17.93601113750872"><ele>24.666666666666668</ele><time>2026-04-21T16:44:02.977Z</time></trkpt><trkpt lat="40.24994205414822" lon="17.935808491767897"><ele>24.333333333333336</ele><time>2026-04-21T16:44:03.977Z</time></trkpt><trkpt lat="40.250091494540285" lon="17.935604880592994"><ele>24.0</ele><time>2026-04-21T16:44:04.977Z</time></trkpt><trkpt lat="40.250242775178506" lon="17.935398136917758"><ele>24.0</ele><time>2026-04-21T16:44:05.977Z</time></trkpt><trkpt lat="40.250394404721646" lon="17.93519571721856"><ele>24.0</ele><time>2026-04-21T16:44:06.977Z</time></trkpt><trkpt lat="40.25054798279605" lon="17.93499365043175"><ele>24.0</ele><time>2026-04-21T16:44:07.977Z</time></trkpt><trkpt lat="40.25069806225348" lon="17.93478619906984"><ele>24.333333333333336</ele><time>2026-04-21T16:44:08.977Z</time></trkpt><trkpt lat="40.25084532284623" lon="17.934578448830557"><ele>24.666666666666668</ele><time>2026-04-21T16:44:09.977Z</time></trkpt><trkpt lat="40.25099704205824" lon="17.934368241261783"><ele>25.0</ele><time>2026-04-21T16:44:10.976Z</time></trkpt><trkpt lat="40.251152489690014" lon="17.93416784990332"><ele>25.333333333333336</ele><time>2026-04-21T16:44:11.976Z</time></trkpt><trkpt lat="40.25130913291147" lon="17.933966573912613"><ele>25.666666666666664</ele><time>2026-04-21T16:44:12.978Z</time></trkpt><trkpt lat="40.251457526547824" lon="17.933755037863207"><ele>26.0</ele><time>2026-04-21T16:44:13.976Z</time></trkpt><trkpt lat="40.251606836415014" lon="17.933551439746857"><ele>26.0</ele><time>2026-04-21T16:44:14.976Z</time></trkpt><trkpt lat="40.2517568916539" lon="17.93334553052012"><ele>26.0</ele><time>2026-04-21T16:44:15.977Z</time></trkpt><trkpt lat="40.25190891565292" lon="17.933140387679494"><ele>26.0</ele><time>2026-04-21T16:44:16.977Z</time></trkpt><trkpt lat="40.252064668333965" lon="17.93293720014606"><ele>26.0</ele><time>2026-04-21T16:44:17.977Z</time></trkpt><trkpt lat="40.252216867796974" lon="17.93273292131236"><ele>26.0</ele><time>2026-04-21T16:44:18.977Z</time></trkpt><trkpt lat="40.25236744040835" lon="17.93253372590776"><ele>26.0</ele><time>2026-04-21T16:44:19.976Z</time></trkpt><trkpt lat="40.25251703931111" lon="17.932326947865295"><ele>26.0</ele><time>2026-04-21T16:44:20.976Z</time></trkpt><trkpt lat="40.25267444715048" lon="17.932121769140252"><ele>26.0</ele><time>2026-04-21T16:44:21.976Z</time></trkpt><trkpt lat="40.25282758395251" lon="17.931921636398073"><ele>26.0</ele><time>2026-04-21T16:44:22.976Z</time></trkpt><trkpt lat="40.25297935749267" lon="17.93171805811161"><ele>25.333333333333332</ele><time>2026-04-21T16:44:23.976Z</time></trkpt><trkpt lat="40.25312991862071" lon="17.93151525199253"><ele>24.666666666666664</ele><time>2026-04-21T16:44:24.976Z</time></trkpt><trkpt lat="40.25328089716797" lon="17.931311314623706"><ele>24.0</ele><time>2026-04-21T16:44:25.976Z</time></trkpt><trkpt lat="40.253437994013254" lon="17.931107854593353"><ele>24.0</ele><time>2026-04-21T16:44:26.976Z</time></trkpt><trkpt lat="40.2535954392563" lon="17.93090971685418"><ele>24.0</ele><time>2026-04-21T16:44:27.976Z</time></trkpt><trkpt lat="40.25374610458455" lon="17.930705533550185"><ele>24.0</ele><time>2026-04-21T16:44:28.976Z</time></trkpt><trkpt lat="40.25389596360996" lon="17.93050137847835"><ele>24.666666666666664</ele><time>2026-04-21T16:44:29.976Z</time></trkpt><trkpt lat="40.254046178254946" lon="17.930295783970934"><ele>25.333333333333332</ele><time>2026-04-21T16:44:30.976Z</time></trkpt><trkpt lat="40.25419842893425" lon="17.930086505904605"><ele>26.0</ele><time>2026-04-21T16:44:31.976Z</time></trkpt><trkpt lat="40.25434920131139" lon="17.929884264886475"><ele>26.0</ele><time>2026-04-21T16:44:32.976Z</time></trkpt><trkpt lat="40.25449759085811" lon="17.9296806129706"><ele>26.0</ele><time>2026-04-21T16:44:33.976Z</time></trkpt><trkpt lat="40.2546503797263" lon="17.929473418190696"><ele>26.0</ele><time>2026-04-21T16:44:34.976Z</time></trkpt><trkpt lat="40.25480523072358" lon="17.92926924141314"><ele>25.0</ele><time>2026-04-21T16:44:35.976Z</time></trkpt><trkpt lat="40.25495898034453" lon="17.929061833264228"><ele>24.0</ele><time>2026-04-21T16:44:36.976Z</time></trkpt><trkpt lat="40.25511041286869" lon="17.928859597300395"><ele>23.0</ele><time>2026-04-21T16:44:37.976Z</time></trkpt><trkpt lat="40.25525869859495" lon="17.92865565382616"><ele>23.0</ele><time>2026-04-21T16:44:38.976Z</time></trkpt><trkpt lat="40.25540917590711" lon="17.92844813157595"><ele>23.0</ele><time>2026-04-21T16:44:39.976Z</time></trkpt><trkpt lat="40.2555617743044" lon="17.928242585724703"><ele>23.0</ele><time>2026-04-21T16:44:40.976Z</time></trkpt><trkpt lat="40.25571460745882" lon="17.92803918757388"><ele>22.666666666666668</ele><time>2026-04-21T16:44:41.976Z</time></trkpt><trkpt lat="40.2558698857067" lon="17.927835997215933"><ele>22.333333333333332</ele><time>2026-04-21T16:44:42.976Z</time></trkpt><trkpt lat="40.25602122860236" lon="17.927628415960417"><ele>22.0</ele><time>2026-04-21T16:44:43.976Z</time></trkpt><trkpt lat="40.25617408113265" lon="17.927424802898667"><ele>22.0</ele><time>2026-04-21T16:44:44.976Z</time></trkpt><trkpt lat="40.25632707666342" lon="17.927222633640174"><ele>22.0</ele><time>2026-04-21T16:44:45.976Z</time></trkpt><trkpt lat="40.256477065776366" lon="17.92701660277904"><ele>22.0</ele><time>2026-04-21T16:44:46.976Z</time></trkpt><trkpt lat="40.25662790255395" lon="17.926811995193678"><ele>23.0</ele><time>2026-04-21T16:44:47.976Z</time></trkpt><trkpt lat="40.25678154259041" lon="17.926606819205407"><ele>24.0</ele><time>2026-04-21T16:44:48.976Z</time></trkpt><trkpt lat="40.256934569349475" lon="17.926402787237254"><ele>25.0</ele><time>2026-04-21T16:44:49.976Z</time></trkpt><trkpt lat="40.25708836577815" lon="17.926198263061625"><ele>25.0</ele><time>2026-04-21T16:44:50.976Z</time></trkpt><trkpt lat="40.257240717192666" lon="17.92599459419426"><ele>25.0</ele><time>2026-04-21T16:44:51.976Z</time></trkpt><trkpt lat="40.25739304104335" lon="17.925789366438945"><ele>25.0</ele><time>2026-04-21T16:44:52.976Z</time></trkpt><trkpt lat="40.25754795946901" lon="17.925588527659986"><ele>24.666666666666668</ele><time>2026-04-21T16:44:53.976Z</time></trkpt><trkpt lat="40.25770483691679" lon="17.9253900561395"><ele>24.333333333333336</ele><time>2026-04-21T16:44:54.976Z</time></trkpt><trkpt lat="40.25785593998703" lon="17.925188868892914"><ele>24.0</ele><time>2026-04-21T16:44:55.976Z</time></trkpt><trkpt lat="40.25800882564017" lon="17.92498645545417"><ele>24.0</ele><time>2026-04-21T16:44:56.976Z</time></trkpt><trkpt lat="40.258162097659365" lon="17.924775561816563"><ele>24.0</ele><time>2026-04-21T16:44:57.976Z</time></trkpt><trkpt lat="40.25831579311853" lon="17.92456782671918"><ele>24.0</ele><time>2026-04-21T16:44:58.976Z</time></trkpt><trkpt lat="40.2584692755292" lon="17.924358945977588"><ele>24.666666666666664</ele><time>2026-04-21T16:44:59.976Z</time></trkpt><trkpt lat="40.258620902749925" lon="17.924151749584535"><ele>25.333333333333332</ele><time>2026-04-21T16:45:00.976Z</time></trkpt><trkpt lat="40.25877378277322" lon="17.923944296953774"><ele>26.0</ele><time>2026-04-21T16:45:01.976Z</time></trkpt><trkpt lat="40.25892562157902" lon="17.923740439786624"><ele>25.666666666666664</ele><time>2026-04-21T16:45:02.976Z</time></trkpt><trkpt lat="40.25908044177092" lon="17.923538375663842"><ele>25.333333333333336</ele><time>2026-04-21T16:45:03.976Z</time></trkpt><trkpt lat="40.25923351879294" lon="17.92333335718431"><ele>25.0</ele><time>2026-04-21T16:45:04.976Z</time></trkpt><trkpt lat="40.25938865238716" lon="17.92312973997438"><ele>24.666666666666668</ele><time>2026-04-21T16:45:05.976Z</time></trkpt><trkpt lat="40.25954309649775" lon="17.922927629353364"><ele>24.333333333333336</ele><time>2026-04-21T16:45:06.976Z</time></trkpt><trkpt lat="40.25969663553989" lon="17.922728065879028"><ele>24.0</ele><time>2026-04-21T16:45:07.976Z</time></trkpt><trkpt lat="40.25984728463535" lon="17.922524498821346"><ele>24.0</ele><time>2026-04-21T16:45:08.976Z</time></trkpt><trkpt lat="40.25999691754204" lon="17.922321815068678"><ele>24.0</ele><time>2026-04-21T16:45:09.976Z</time></trkpt><trkpt lat="40.26014710679086" lon="17.92211734133701"><ele>24.0</ele><time>2026-04-21T16:45:10.976Z</time></trkpt><trkpt lat="40.26029533081837" lon="17.921914874647943"><ele>24.333333333333336</ele><time>2026-04-21T16:45:11.976Z</time></trkpt><trkpt lat="40.26044614481939" lon="17.92170671455086"><ele>24.666666666666668</ele><time>2026-04-21T16:45:12.976Z</time></trkpt><trkpt lat="40.260595675010556" lon="17.921507128552157"><ele>25.0</ele><time>2026-04-21T16:45:13.976Z</time></trkpt><trkpt lat="40.26074391419558" lon="17.92130434558519"><ele>25.333333333333336</ele><time>2026-04-21T16:45:14.976Z</time></trkpt><trkpt lat="40.26089101394931" lon="17.92109563677132"><ele>25.666666666666664</ele><time>2026-04-21T16:45:15.976Z</time></trkpt><trkpt lat="40.261034076501524" lon="17.9208890610932"><ele>26.0</ele><time>2026-04-21T16:45:16.976Z</time></trkpt><trkpt lat="40.26118602724111" lon="17.920680221710896"><ele>26.0</ele><time>2026-04-21T16:45:17.976Z</time></trkpt><trkpt lat="40.26134891803086" lon="17.92047316352506"><ele>26.0</ele><time>2026-04-21T16:45:18.976Z</time></trkpt><trkpt lat="40.26150666210617" lon="17.920270976478683"><ele>26.0</ele><time>2026-04-21T16:45:19.976Z</time></trkpt><trkpt lat="40.261660609193555" lon="17.92006389732259"><ele>26.333333333333332</ele><time>2026-04-21T16:45:20.976Z</time></trkpt><trkpt lat="40.26181432348704" lon="17.91985988309864"><ele>26.666666666666664</ele><time>2026-04-21T16:45:21.976Z</time></trkpt><trkpt lat="40.26196986744268" lon="17.919659532869023"><ele>27.0</ele><time>2026-04-21T16:45:22.976Z</time></trkpt><trkpt lat="40.262121600696034" lon="17.91945741775903"><ele>27.0</ele><time>2026-04-21T16:45:23.976Z</time></trkpt><trkpt lat="40.26227488365057" lon="17.919251116908793"><ele>27.0</ele><time>2026-04-21T16:45:24.976Z</time></trkpt><trkpt lat="40.26242665549454" lon="17.91904998725873"><ele>27.0</ele><time>2026-04-21T16:45:25.976Z</time></trkpt><trkpt lat="40.26257679183823" lon="17.91884469110244"><ele>26.666666666666664</ele><time>2026-04-21T16:45:26.976Z</time></trkpt><trkpt lat="40.26273011390919" lon="17.918639114553493"><ele>26.333333333333332</ele><time>2026-04-21T16:45:27.976Z</time></trkpt><trkpt lat="40.262879236711655" lon="17.918432677986278"><ele>26.0</ele><time>2026-04-21T16:45:28.976Z</time></trkpt><trkpt lat="40.263027821393585" lon="17.91822698787175"><ele>26.333333333333332</ele><time>2026-04-21T16:45:29.976Z</time></trkpt><trkpt lat="40.263175822789535" lon="17.918023363334218"><ele>26.666666666666664</ele><time>2026-04-21T16:45:30.976Z</time></trkpt><trkpt lat="40.26332503100018" lon="17.91781654116109"><ele>27.0</ele><time>2026-04-21T16:45:31.976Z</time></trkpt><trkpt lat="40.263478052974044" lon="17.917612966313936"><ele>26.333333333333336</ele><time>2026-04-21T16:45:32.976Z</time></trkpt><trkpt lat="40.263634990503284" lon="17.917413169261923"><ele>25.666666666666668</ele><time>2026-04-21T16:45:33.976Z</time></trkpt><trkpt lat="40.26379308262345" lon="17.917208935835394"><ele>25.0</ele><time>2026-04-21T16:45:34.976Z</time></trkpt><trkpt lat="40.26395459302457" lon="17.917004833782055"><ele>25.0</ele><time>2026-04-21T16:45:35.976Z</time></trkpt><trkpt lat="40.26411217054784" lon="17.916798949753186"><ele>25.0</ele><time>2026-04-21T16:45:36.976Z</time></trkpt><trkpt lat="40.26426659097997" lon="17.916596724718573"><ele>25.0</ele><time>2026-04-21T16:45:37.976Z</time></trkpt><trkpt lat="40.26441733436638" lon="17.91638742898999"><ele>25.0</ele><time>2026-04-21T16:45:38.976Z</time></trkpt><trkpt lat="40.26456918122677" lon="17.91617481003384"><ele>25.0</ele><time>2026-04-21T16:45:39.976Z</time></trkpt><trkpt lat="40.264711592411054" lon="17.915953532236664"><ele>25.0</ele><time>2026-04-21T16:45:40.976Z</time></trkpt><trkpt lat="40.26485178592456" lon="17.915727271035884"><ele>24.666666666666668</ele><time>2026-04-21T16:45:41.976Z</time></trkpt><trkpt lat="40.264985015877635" lon="17.915503645989403"><ele>24.333333333333336</ele><time>2026-04-21T16:45:42.976Z</time></trkpt><trkpt lat="40.26511544115593" lon="17.915281055335708"><ele>24.0</ele><time>2026-04-21T16:45:43.976Z</time></trkpt><trkpt lat="40.2652469268315" lon="17.91505740806726"><ele>24.0</ele><time>2026-04-21T16:45:44.976Z</time></trkpt><trkpt lat="40.265379911593875" lon="17.91483217991912"><ele>24.0</ele><time>2026-04-21T16:45:45.976Z</time></trkpt><trkpt lat="40.26551226697673" lon="17.914606165057183"><ele>24.0</ele><time>2026-04-21T16:45:46.976Z</time></trkpt><trkpt lat="40.265645790382" lon="17.914380842373028"><ele>23.666666666666668</ele><time>2026-04-21T16:45:47.976Z</time></trkpt><trkpt lat="40.265778725958135" lon="17.91415563210043"><ele>23.333333333333336</ele><time>2026-04-21T16:45:48.976Z</time></trkpt><trkpt lat="40.265912431099174" lon="17.913930030602394"><ele>23.0</ele><time>2026-04-21T16:45:49.976Z</time></trkpt><trkpt lat="40.266043509610725" lon="17.913704021820664"><ele>23.0</ele><time>2026-04-21T16:45:50.976Z</time></trkpt><trkpt lat="40.26617563529037" lon="17.913476540758513"><ele>23.0</ele><time>2026-04-21T16:45:51.976Z</time></trkpt><trkpt lat="40.26630565828672" lon="17.913251311172555"><ele>23.0</ele><time>2026-04-21T16:45:52.976Z</time></trkpt><trkpt lat="40.26643358307103" lon="17.913025283245624"><ele>22.666666666666668</ele><time>2026-04-21T16:45:53.976Z</time></trkpt><trkpt lat="40.26656355528593" lon="17.912798311287602"><ele>22.333333333333332</ele><time>2026-04-21T16:45:54.976Z</time></trkpt><trkpt lat="40.26669309786589" lon="17.912570883028415"><ele>22.0</ele><time>2026-04-21T16:45:55.976Z</time></trkpt><trkpt lat="40.266824336040926" lon="17.912346858495926"><ele>22.0</ele><time>2026-04-21T16:45:56.976Z</time></trkpt><trkpt lat="40.26695576625965" lon="17.91211994981333"><ele>22.0</ele><time>2026-04-21T16:45:57.976Z</time></trkpt><trkpt lat="40.267087281684304" lon="17.911891167285383"><ele>22.0</ele><time>2026-04-21T16:45:58.976Z</time></trkpt><trkpt lat="40.26721925815614" lon="17.911665255558365"><ele>23.0</ele><time>2026-04-21T16:45:59.976Z</time></trkpt><trkpt lat="40.26735392564694" lon="17.91143636480761"><ele>24.0</ele><time>2026-04-21T16:46:00.976Z</time></trkpt><trkpt lat="40.26748861982104" lon="17.911208268573645"><ele>25.0</ele><time>2026-04-21T16:46:01.976Z</time></trkpt><trkpt lat="40.267621506921806" lon="17.9109820350701"><ele>24.0</ele><time>2026-04-21T16:46:02.976Z</time></trkpt><trkpt lat="40.26775370826822" lon="17.910755831234738"><ele>23.0</ele><time>2026-04-21T16:46:03.976Z</time></trkpt><trkpt lat="40.26788692937511" lon="17.91052895673911"><ele>22.0</ele><time>2026-04-21T16:46:04.976Z</time></trkpt><trkpt lat="40.26801920442428" lon="17.910299141186805"><ele>23.333333333333332</ele><time>2026-04-21T16:46:05.976Z</time></trkpt><trkpt lat="40.268151723163285" lon="17.910068186820684"><ele>24.666666666666664</ele><time>2026-04-21T16:46:06.976Z</time></trkpt><trkpt lat="40.26828245564033" lon="17.909839106966526"><ele>26.0</ele><time>2026-04-21T16:46:07.976Z</time></trkpt><trkpt lat="40.268413002472094" lon="17.90960965623909"><ele>26.0</ele><time>2026-04-21T16:46:08.975Z</time></trkpt><trkpt lat="40.268542348560324" lon="17.909384270197158"><ele>26.0</ele><time>2026-04-21T16:46:09.975Z</time></trkpt><trkpt lat="40.26867195440191" lon="17.909159577553805"><ele>26.0</ele><time>2026-04-21T16:46:10.975Z</time></trkpt><trkpt lat="40.268803095361214" lon="17.908933215220582"><ele>26.0</ele><time>2026-04-21T16:46:11.975Z</time></trkpt><trkpt lat="40.26893314065121" lon="17.908705803422215"><ele>26.0</ele><time>2026-04-21T16:46:12.976Z</time></trkpt><trkpt lat="40.26906440813632" lon="17.908479995280537"><ele>26.0</ele><time>2026-04-21T16:46:13.976Z</time></trkpt><trkpt lat="40.26919589592421" lon="17.908255385397943"><ele>25.666666666666664</ele><time>2026-04-21T16:46:14.976Z</time></trkpt><trkpt lat="40.269328686332265" lon="17.90803240509349"><ele>25.333333333333336</ele><time>2026-04-21T16:46:15.976Z</time></trkpt><trkpt lat="40.26946061366833" lon="17.907811275822297"><ele>25.0</ele><time>2026-04-21T16:46:16.976Z</time></trkpt><trkpt lat="40.269593673269846" lon="17.907584717380324"><ele>25.0</ele><time>2026-04-21T16:46:17.976Z</time></trkpt><trkpt lat="40.269730013221775" lon="17.907356544862996"><ele>25.0</ele><time>2026-04-21T16:46:18.977Z</time></trkpt><trkpt lat="40.26986544208102" lon="17.907129006217684"><ele>25.0</ele><time>2026-04-21T16:46:19.976Z</time></trkpt><trkpt lat="40.27000111915895" lon="17.90690155026861"><ele>25.333333333333336</ele><time>2026-04-21T16:46:20.976Z</time></trkpt><trkpt lat="40.27013257817683" lon="17.906672048947545"><ele>25.666666666666664</ele><time>2026-04-21T16:46:21.976Z</time></trkpt><trkpt lat="40.27026810472586" lon="17.906444743251324"><ele>26.0</ele><time>2026-04-21T16:46:22.977Z</time></trkpt><trkpt lat="40.27040078625038" lon="17.906222384403865"><ele>26.0</ele><time>2026-04-21T16:46:23.977Z</time></trkpt><trkpt lat="40.270537209996704" lon="17.905997273297416"><ele>26.0</ele><time>2026-04-21T16:46:24.976Z</time></trkpt><trkpt lat="40.2706721990207" lon="17.90577113829311"><ele>26.0</ele><time>2026-04-21T16:46:25.977Z</time></trkpt><trkpt lat="40.27080998437208" lon="17.905544374576387"><ele>26.0</ele><time>2026-04-21T16:46:26.977Z</time></trkpt><trkpt lat="40.27094620353175" lon="17.905324050476928"><ele>26.0</ele><time>2026-04-21T16:46:27.977Z</time></trkpt><trkpt lat="40.27108089728855" lon="17.90509527821799"><ele>26.0</ele><time>2026-04-21T16:46:28.977Z</time></trkpt><trkpt lat="40.271207579709" lon="17.90486588624624"><ele>26.0</ele><time>2026-04-21T16:46:29.977Z</time></trkpt><trkpt lat="40.27133567977492" lon="17.904633791732092"><ele>26.0</ele><time>2026-04-21T16:46:30.977Z</time></trkpt><trkpt lat="40.2714621481634" lon="17.904405184007082"><ele>26.0</ele><time>2026-04-21T16:46:31.977Z</time></trkpt><trkpt lat="40.271593146394615" lon="17.9041754695363"><ele>25.333333333333332</ele><time>2026-04-21T16:46:32.977Z</time></trkpt><trkpt lat="40.271724899332725" lon="17.903945821221807"><ele>24.666666666666664</ele><time>2026-04-21T16:46:33.977Z</time></trkpt><trkpt lat="40.27185491929402" lon="17.903720444708902"><ele>24.0</ele><time>2026-04-21T16:46:34.976Z</time></trkpt><trkpt lat="40.271985434703765" lon="17.90349079697888"><ele>24.0</ele><time>2026-04-21T16:46:35.976Z</time></trkpt><trkpt lat="40.27211327345239" lon="17.903261436064167"><ele>24.0</ele><time>2026-04-21T16:46:36.976Z</time></trkpt><trkpt lat="40.272242539400665" lon="17.903032409686528"><ele>24.0</ele><time>2026-04-21T16:46:37.976Z</time></trkpt><trkpt lat="40.27236771108304" lon="17.902802235190002"><ele>24.0</ele><time>2026-04-21T16:46:38.976Z</time></trkpt><trkpt lat="40.27249168503148" lon="17.90258890586436"><ele>24.0</ele><time>2026-04-21T16:46:39.976Z</time></trkpt><trkpt lat="40.272612607190226" lon="17.902403534270583"><ele>24.0</ele><time>2026-04-21T16:46:40.976Z</time></trkpt><trkpt lat="40.272723606276216" lon="17.90223379956745"><ele>23.5</ele><time>2026-04-21T16:46:41.976Z</time></trkpt><trkpt lat="40.27282208092323" lon="17.902075869999738"><ele>23.0</ele><time>2026-04-21T16:46:42.976Z</time></trkpt><trkpt lat="40.27290940259561" lon="17.901933246006053"><ele>22.5</ele><time>2026-04-21T16:46:43.976Z</time></trkpt><trkpt lat="40.27298676631822" lon="17.90180348985773"><ele>22.0</ele><time>2026-04-21T16:46:44.976Z</time></trkpt><trkpt lat="40.2730536502553" lon="17.901691990366626"><ele>22.166666666666664</ele><time>2026-04-21T16:46:45.976Z</time></trkpt><trkpt lat="40.27311457680997" lon="17.90159415323537"><ele>22.333333333333332</ele><time>2026-04-21T16:46:46.976Z</time></trkpt><trkpt lat="40.27317425068665" lon="17.901513323873655"><ele>22.5</ele><time>2026-04-21T16:46:47.976Z</time></trkpt><trkpt lat="40.27323309781076" lon="17.90145426138097"><ele>22.666666666666668</ele><time>2026-04-21T16:46:48.976Z</time></trkpt><trkpt lat="40.27330636123595" lon="17.90141869545353"><ele>22.833333333333336</ele><time>2026-04-21T16:46:49.976Z</time></trkpt><trkpt lat="40.273395970152194" lon="17.9014167194923"><ele>23.0</ele><time>2026-04-21T16:46:50.976Z</time></trkpt><trkpt lat="40.27349407923057" lon="17.90138900782831"><ele>23.0</ele><time>2026-04-21T16:46:51.976Z</time></trkpt><trkpt lat="40.27357666253447" lon="17.90131830952118"><ele>23.0</ele><time>2026-04-21T16:46:52.976Z</time></trkpt><trkpt lat="40.27365279568706" lon="17.901231666208723"><ele>23.0</ele><time>2026-04-21T16:46:53.976Z</time></trkpt><trkpt lat="40.273709353662035" lon="17.901120424633884"><ele>23.0</ele><time>2026-04-21T16:46:54.976Z</time></trkpt><trkpt lat="40.273727165893916" lon="17.900966164155133"><ele>23.0</ele><time>2026-04-21T16:46:55.976Z</time></trkpt><trkpt lat="40.27371891604822" lon="17.90080755810742"><ele>22.75</ele><time>2026-04-21T16:46:56.976Z</time></trkpt><trkpt lat="40.27371043136488" lon="17.90070084921599"><ele>22.5</ele><time>2026-04-21T16:46:57.976Z</time></trkpt><trkpt lat="40.27374469088332" lon="17.900522880388202"><ele>22.25</ele><time>2026-04-21T16:46:59.976Z</time></trkpt><trkpt lat="40.27380886235804" lon="17.900398548880833"><ele>22.0</ele><time>2026-04-21T16:47:00.976Z</time></trkpt><trkpt lat="40.27390116162378" lon="17.900247584130458"><ele>22.333333333333332</ele><time>2026-04-21T16:47:01.976Z</time></trkpt><trkpt lat="40.274012672406684" lon="17.900074382345338"><ele>22.666666666666668</ele><time>2026-04-21T16:47:02.976Z</time></trkpt><trkpt lat="40.274145653704295" lon="17.899882352448515"><ele>23.0</ele><time>2026-04-21T16:47:03.976Z</time></trkpt><trkpt lat="40.27429180489424" lon="17.899672451835446"><ele>23.0</ele><time>2026-04-21T16:47:04.976Z</time></trkpt><trkpt lat="40.27444071561311" lon="17.89944761853783"><ele>23.0</ele><time>2026-04-21T16:47:05.976Z</time></trkpt><trkpt lat="40.2745921523381" lon="17.899192412691747"><ele>23.0</ele><time>2026-04-21T16:47:06.976Z</time></trkpt><trkpt lat="40.27474440153548" lon="17.898940153529203"><ele>23.0</ele><time>2026-04-21T16:47:07.976Z</time></trkpt><trkpt lat="40.27490644075752" lon="17.898668313903148"><ele>23.0</ele><time>2026-04-21T16:47:08.976Z</time></trkpt><trkpt lat="40.27505337992369" lon="17.898408915802857"><ele>23.0</ele><time>2026-04-21T16:47:09.976Z</time></trkpt><trkpt lat="40.27515619046576" lon="17.898189292561167"><ele>23.0</ele><time>2026-04-21T16:47:10.976Z</time></trkpt><trkpt lat="40.27525726196307" lon="17.897982277530303"><ele>23.0</ele><time>2026-04-21T16:47:11.976Z</time></trkpt><trkpt lat="40.27537737118613" lon="17.897782607248654"><ele>23.0</ele><time>2026-04-21T16:47:12.976Z</time></trkpt><trkpt lat="40.27550101392956" lon="17.89758324758243"><ele>23.0</ele><time>2026-04-21T16:47:13.976Z</time></trkpt><trkpt lat="40.27562471992027" lon="17.897372397602336"><ele>23.0</ele><time>2026-04-21T16:47:14.976Z</time></trkpt><trkpt lat="40.27575232768286" lon="17.897161102824974"><ele>23.0</ele><time>2026-04-21T16:47:15.976Z</time></trkpt><trkpt lat="40.275877968373486" lon="17.896945687886898"><ele>23.0</ele><time>2026-04-21T16:47:16.976Z</time></trkpt><trkpt lat="40.27600700344934" lon="17.896734344453385"><ele>22.666666666666668</ele><time>2026-04-21T16:47:17.976Z</time></trkpt><trkpt lat="40.27613480212497" lon="17.89652257428324"><ele>22.333333333333332</ele><time>2026-04-21T16:47:18.976Z</time></trkpt><trkpt lat="40.276267539904254" lon="17.896306828219213"><ele>22.0</ele><time>2026-04-21T16:47:19.976Z</time></trkpt><trkpt lat="40.27642381368166" lon="17.896098455805554"><ele>23.5</ele><time>2026-04-21T16:47:20.976Z</time></trkpt><trkpt lat="40.27660208693021" lon="17.895886374595552"><ele>25.0</ele><time>2026-04-21T16:47:21.976Z</time></trkpt><trkpt lat="40.276807513627006" lon="17.895672290227225"><ele>25.0</ele><time>2026-04-21T16:47:22.976Z</time></trkpt><trkpt lat="40.27702736616305" lon="17.895458961582477"><ele>25.0</ele><time>2026-04-21T16:47:23.976Z</time></trkpt><trkpt lat="40.277259174695175" lon="17.895252373721544"><ele>25.0</ele><time>2026-04-21T16:47:24.976Z</time></trkpt><trkpt lat="40.27749146450168" lon="17.8950635294456"><ele>25.0</ele><time>2026-04-21T16:47:25.976Z</time></trkpt><trkpt lat="40.27719480991758" lon="17.894777954443192"><ele>25.0</ele><time>2026-04-21T16:47:26.976Z</time></trkpt><trkpt lat="40.27733223716197" lon="17.894550662276544"><ele>25.0</ele><time>2026-04-21T16:47:27.976Z</time></trkpt><trkpt lat="40.27746789315632" lon="17.894325202222696"><ele>25.0</ele><time>2026-04-21T16:47:28.976Z</time></trkpt><trkpt lat="40.27760659369167" lon="17.894098315860006"><ele>24.666666666666668</ele><time>2026-04-21T16:47:29.976Z</time></trkpt><trkpt lat="40.27774331657628" lon="17.893871287089862"><ele>24.333333333333336</ele><time>2026-04-21T16:47:30.976Z</time></trkpt><trkpt lat="40.27787850111947" lon="17.893647543415117"><ele>24.0</ele><time>2026-04-21T16:47:31.976Z</time></trkpt><trkpt lat="40.27801677950571" lon="17.89342092777519"><ele>24.666666666666664</ele><time>2026-04-21T16:47:32.976Z</time></trkpt><trkpt lat="40.27815648657652" lon="17.893194800720966"><ele>25.333333333333332</ele><time>2026-04-21T16:47:33.976Z</time></trkpt><trkpt lat="40.278291435127215" lon="17.892974870497095"><ele>26.0</ele><time>2026-04-21T16:47:34.976Z</time></trkpt><trkpt lat="40.27843376440658" lon="17.892744313436648"><ele>25.666666666666664</ele><time>2026-04-21T16:47:35.976Z</time></trkpt><trkpt lat="40.27857232150096" lon="17.89251520592061"><ele>25.333333333333336</ele><time>2026-04-21T16:47:36.976Z</time></trkpt><trkpt lat="40.27870889209945" lon="17.89228466240336"><ele>25.0</ele><time>2026-04-21T16:47:37.976Z</time></trkpt><trkpt lat="40.278845859123486" lon="17.89205636016625"><ele>24.666666666666668</ele><time>2026-04-21T16:47:38.976Z</time></trkpt><trkpt lat="40.27898426905282" lon="17.891828603815796"><ele>24.333333333333336</ele><time>2026-04-21T16:47:39.976Z</time></trkpt><trkpt lat="40.27912232870007" lon="17.891602636825702"><ele>24.0</ele><time>2026-04-21T16:47:40.976Z</time></trkpt><trkpt lat="40.279258057922306" lon="17.89137519715816"><ele>24.0</ele><time>2026-04-21T16:47:41.976Z</time></trkpt><trkpt lat="40.27939374142796" lon="17.891147379614498"><ele>24.0</ele><time>2026-04-21T16:47:42.976Z</time></trkpt><trkpt lat="40.27952845610525" lon="17.890921096479893"><ele>24.0</ele><time>2026-04-21T16:47:43.976Z</time></trkpt><trkpt lat="40.27966603509156" lon="17.89069949175706"><ele>24.0</ele><time>2026-04-21T16:47:44.976Z</time></trkpt><trkpt lat="40.27980216452357" lon="17.890472094740264"><ele>24.0</ele><time>2026-04-21T16:47:45.976Z</time></trkpt><trkpt lat="40.27993623114945" lon="17.890247617391154"><ele>24.0</ele><time>2026-04-21T16:47:46.976Z</time></trkpt><trkpt lat="40.2800727332863" lon="17.890020827504184"><ele>24.0</ele><time>2026-04-21T16:47:47.976Z</time></trkpt><trkpt lat="40.28020949396043" lon="17.88979358909942"><ele>24.0</ele><time>2026-04-21T16:47:48.976Z</time></trkpt><trkpt lat="40.28034501015701" lon="17.88956473197735"><ele>24.0</ele><time>2026-04-21T16:47:49.976Z</time></trkpt><trkpt lat="40.2804843740135" lon="17.889341484739592"><ele>24.666666666666664</ele><time>2026-04-21T16:47:50.976Z</time></trkpt><trkpt lat="40.28062108217936" lon="17.889113411645194"><ele>25.333333333333332</ele><time>2026-04-21T16:47:51.976Z</time></trkpt><trkpt lat="40.280758453703605" lon="17.88889064093709"><ele>26.0</ele><time>2026-04-21T16:47:52.976Z</time></trkpt><trkpt lat="40.280895293765404" lon="17.888660619533972"><ele>27.0</ele><time>2026-04-21T16:47:53.976Z</time></trkpt><trkpt lat="40.281033873613815" lon="17.88842637089671"><ele>28.0</ele><time>2026-04-21T16:47:54.976Z</time></trkpt><trkpt lat="40.2811681492672" lon="17.88820139784372"><ele>29.0</ele><time>2026-04-21T16:47:55.976Z</time></trkpt><trkpt lat="40.2813062028086" lon="17.887976011900886"><ele>29.0</ele><time>2026-04-21T16:47:56.976Z</time></trkpt><trkpt lat="40.28144415017626" lon="17.88774977829389"><ele>29.0</ele><time>2026-04-21T16:47:57.976Z</time></trkpt><trkpt lat="40.28157886851937" lon="17.887523165789982"><ele>29.0</ele><time>2026-04-21T16:47:58.976Z</time></trkpt><trkpt lat="40.28171200525565" lon="17.88729881919533"><ele>29.0</ele><time>2026-04-21T16:47:59.976Z</time></trkpt><trkpt lat="40.281844978393764" lon="17.887075015200136"><ele>29.0</ele><time>2026-04-21T16:48:00.976Z</time></trkpt><trkpt lat="40.281981377155766" lon="17.886845625928622"><ele>29.0</ele><time>2026-04-21T16:48:01.976Z</time></trkpt><trkpt lat="40.28211659026851" lon="17.886617118607262"><ele>29.0</ele><time>2026-04-21T16:48:02.976Z</time></trkpt><trkpt lat="40.28224929182511" lon="17.88638792326684"><ele>29.0</ele><time>2026-04-21T16:48:03.976Z</time></trkpt><trkpt lat="40.28238803199516" lon="17.886161673664375"><ele>29.0</ele><time>2026-04-21T16:48:04.976Z</time></trkpt><trkpt lat="40.28252307264364" lon="17.885932391895444"><ele>28.333333333333332</ele><time>2026-04-21T16:48:05.976Z</time></trkpt><trkpt lat="40.28266274209311" lon="17.885707338712002"><ele>27.666666666666664</ele><time>2026-04-21T16:48:06.976Z</time></trkpt><trkpt lat="40.28280089882921" lon="17.885482996759052"><ele>27.0</ele><time>2026-04-21T16:48:07.976Z</time></trkpt><trkpt lat="40.282938035278605" lon="17.885255659112868"><ele>27.0</ele><time>2026-04-21T16:48:08.976Z</time></trkpt><trkpt lat="40.283075813396756" lon="17.88502819875509"><ele>27.0</ele><time>2026-04-21T16:48:09.976Z</time></trkpt><trkpt lat="40.28321287298065" lon="17.884801463253186"><ele>27.0</ele><time>2026-04-21T16:48:10.976Z</time></trkpt><trkpt lat="40.283348365326276" lon="17.884571828758407"><ele>27.666666666666664</ele><time>2026-04-21T16:48:11.976Z</time></trkpt><trkpt lat="40.283482196708285" lon="17.88434301182678"><ele>28.333333333333332</ele><time>2026-04-21T16:48:12.976Z</time></trkpt><trkpt lat="40.28361263168752" lon="17.884112946182412"><ele>29.0</ele><time>2026-04-21T16:48:13.976Z</time></trkpt><trkpt lat="40.28374822585601" lon="17.8838903974786"><ele>29.0</ele><time>2026-04-21T16:48:14.976Z</time></trkpt><trkpt lat="40.283882955392016" lon="17.8836648195753"><ele>29.0</ele><time>2026-04-21T16:48:15.976Z</time></trkpt><trkpt lat="40.28402309507514" lon="17.883441438212945"><ele>29.0</ele><time>2026-04-21T16:48:16.976Z</time></trkpt><trkpt lat="40.28416001360587" lon="17.883214066818322"><ele>29.0</ele><time>2026-04-21T16:48:17.976Z</time></trkpt><trkpt lat="40.28429586577092" lon="17.882989495188237"><ele>29.0</ele><time>2026-04-21T16:48:18.976Z</time></trkpt><trkpt lat="40.28443172138591" lon="17.882756851581856"><ele>29.0</ele><time>2026-04-21T16:48:19.976Z</time></trkpt><trkpt lat="40.284568124077694" lon="17.882524253584748"><ele>29.333333333333332</ele><time>2026-04-21T16:48:20.976Z</time></trkpt><trkpt lat="40.28470650644519" lon="17.882302812570444"><ele>29.666666666666664</ele><time>2026-04-21T16:48:21.976Z</time></trkpt><trkpt lat="40.2848425952009" lon="17.88208122367657"><ele>30.0</ele><time>2026-04-21T16:48:22.976Z</time></trkpt><trkpt lat="40.284978918579284" lon="17.8818546581814"><ele>30.0</ele><time>2026-04-21T16:48:23.976Z</time></trkpt><trkpt lat="40.285117708033745" lon="17.881627109549058"><ele>30.0</ele><time>2026-04-21T16:48:24.976Z</time></trkpt><trkpt lat="40.28525558595837" lon="17.88140227971011"><ele>30.0</ele><time>2026-04-21T16:48:25.976Z</time></trkpt><trkpt lat="40.28539297965682" lon="17.881177885713054"><ele>30.0</ele><time>2026-04-21T16:48:26.976Z</time></trkpt><trkpt lat="40.28552872730118" lon="17.88094996144808"><ele>30.0</ele><time>2026-04-21T16:48:27.975Z</time></trkpt><trkpt lat="40.28566358385233" lon="17.880721939485404"><ele>30.0</ele><time>2026-04-21T16:48:28.976Z</time></trkpt><trkpt lat="40.285800249303755" lon="17.880493945588025"><ele>30.333333333333336</ele><time>2026-04-21T16:48:29.976Z</time></trkpt><trkpt lat="40.28593806408675" lon="17.880268334157847"><ele>30.666666666666668</ele><time>2026-04-21T16:48:30.976Z</time></trkpt><trkpt lat="40.28607317314338" lon="17.880040253432924"><ele>31.0</ele><time>2026-04-21T16:48:31.975Z</time></trkpt><trkpt lat="40.28620961820658" lon="17.8798120680163"><ele>30.666666666666668</ele><time>2026-04-21T16:48:32.975Z</time></trkpt><trkpt lat="40.28634364867277" lon="17.879584564585688"><ele>30.333333333333336</ele><time>2026-04-21T16:48:33.975Z</time></trkpt><trkpt lat="40.286476451136984" lon="17.879359518224465"><ele>30.0</ele><time>2026-04-21T16:48:34.975Z</time></trkpt><trkpt lat="40.28661303271816" lon="17.87913257500314"><ele>29.666666666666664</ele><time>2026-04-21T16:48:35.975Z</time></trkpt><trkpt lat="40.28674873431764" lon="17.878903045885874"><ele>29.333333333333332</ele><time>2026-04-21T16:48:36.975Z</time></trkpt><trkpt lat="40.28688562613875" lon="17.878678515014492"><ele>29.0</ele><time>2026-04-21T16:48:37.975Z</time></trkpt><trkpt lat="40.28702416786489" lon="17.878451059399897"><ele>29.5</ele><time>2026-04-21T16:48:38.975Z</time></trkpt><trkpt lat="40.28716117274736" lon="17.87821110066992"><ele>30.0</ele><time>2026-04-21T16:48:39.975Z</time></trkpt><trkpt lat="40.287282841151146" lon="17.877966981407802"><ele>30.0</ele><time>2026-04-21T16:48:40.975Z</time></trkpt><trkpt lat="40.28737001505253" lon="17.877713579651317"><ele>30.0</ele><time>2026-04-21T16:48:41.975Z</time></trkpt><trkpt lat="40.287449822861106" lon="17.87746525859489"><ele>30.0</ele><time>2026-04-21T16:48:42.975Z</time></trkpt><trkpt lat="40.28753960129265" lon="17.87720096054648"><ele>30.0</ele><time>2026-04-21T16:48:43.975Z</time></trkpt><trkpt lat="40.287629804103425" lon="17.876931909248164"><ele>30.0</ele><time>2026-04-21T16:48:44.975Z</time></trkpt><trkpt lat="40.28772845094606" lon="17.876661650847492"><ele>29.666666666666664</ele><time>2026-04-21T16:48:45.975Z</time></trkpt><trkpt lat="40.28782951937297" lon="17.87639508690555"><ele>29.333333333333332</ele><time>2026-04-21T16:48:46.975Z</time></trkpt><trkpt lat="40.28792891442154" lon="17.87613645647752"><ele>29.0</ele><time>2026-04-21T16:48:47.975Z</time></trkpt><trkpt lat="40.28802101269937" lon="17.875873942299904"><ele>28.0</ele><time>2026-04-21T16:48:48.975Z</time></trkpt><trkpt lat="40.28811040825108" lon="17.875609774844737"><ele>27.0</ele><time>2026-04-21T16:48:49.975Z</time></trkpt><trkpt lat="40.28819613929346" lon="17.875350224607057"><ele>26.0</ele><time>2026-04-21T16:48:50.975Z</time></trkpt><trkpt lat="40.288281388474644" lon="17.875118700284006"><ele>26.0</ele><time>2026-04-21T16:48:51.975Z</time></trkpt><trkpt lat="40.288363224831585" lon="17.874899301137024"><ele>26.0</ele><time>2026-04-21T16:48:52.975Z</time></trkpt><trkpt lat="40.288441463221524" lon="17.8746851255074"><ele>26.0</ele><time>2026-04-21T16:48:53.975Z</time></trkpt><trkpt lat="40.28851560590767" lon="17.87447693646298"><ele>26.0</ele><time>2026-04-21T16:48:54.975Z</time></trkpt><trkpt lat="40.2885866801861" lon="17.874283855871713"><ele>26.0</ele><time>2026-04-21T16:48:55.975Z</time></trkpt><trkpt lat="40.288648815617194" lon="17.87410042762633"><ele>26.0</ele><time>2026-04-21T16:48:56.975Z</time></trkpt><trkpt lat="40.288716076974396" lon="17.87392380995383"><ele>25.8</ele><time>2026-04-21T16:48:57.975Z</time></trkpt><trkpt lat="40.28876721540087" lon="17.873750657750858"><ele>25.6</ele><time>2026-04-21T16:48:58.975Z</time></trkpt><trkpt lat="40.28881603951673" lon="17.873607314718974"><ele>25.4</ele><time>2026-04-21T16:48:59.975Z</time></trkpt><trkpt lat="40.28886475274522" lon="17.873505064116628"><ele>25.2</ele><time>2026-04-21T16:49:00.975Z</time></trkpt><trkpt lat="40.28890596405444" lon="17.87343126724298"><ele>25.0</ele><time>2026-04-21T16:49:01.975Z</time></trkpt><trkpt lat="40.288957955106675" lon="17.873378245106615"><ele>24.4</ele><time>2026-04-21T16:49:02.975Z</time></trkpt><trkpt lat="40.28907860504016" lon="17.873328531228864"><ele>23.8</ele><time>2026-04-21T16:49:04.975Z</time></trkpt><trkpt lat="40.289163781368444" lon="17.873303835512925"><ele>23.200000000000003</ele><time>2026-04-21T16:49:05.975Z</time></trkpt><trkpt lat="40.28925058366448" lon="17.873270571181212"><ele>22.6</ele><time>2026-04-21T16:49:06.975Z</time></trkpt><trkpt lat="40.28931484326681" lon="17.873204591497398"><ele>22.0</ele><time>2026-04-21T16:49:07.975Z</time></trkpt><trkpt lat="40.28936633959867" lon="17.87312432567874"><ele>22.0</ele><time>2026-04-21T16:49:08.975Z</time></trkpt><trkpt lat="40.289397494386485" lon="17.873030255530107"><ele>22.0</ele><time>2026-04-21T16:49:09.975Z</time></trkpt><trkpt lat="40.289412889714676" lon="17.87292340781636"><ele>22.0</ele><time>2026-04-21T16:49:10.975Z</time></trkpt><trkpt lat="40.2894112619193" lon="17.872812498099915"><ele>22.0</ele><time>2026-04-21T16:49:11.975Z</time></trkpt><trkpt lat="40.28939081581421" lon="17.872698233205302"><ele>22.0</ele><time>2026-04-21T16:49:12.975Z</time></trkpt><trkpt lat="40.289352119245024" lon="17.8725922542766"><ele>22.0</ele><time>2026-04-21T16:49:13.975Z</time></trkpt><trkpt lat="40.289317422758415" lon="17.872486569426457"><ele>22.0</ele><time>2026-04-21T16:49:14.975Z</time></trkpt><trkpt lat="40.28929813170728" lon="17.87238775105446"><ele>22.0</ele><time>2026-04-21T16:49:15.975Z</time></trkpt><trkpt lat="40.28930150992047" lon="17.872290633368298"><ele>22.0</ele><time>2026-04-21T16:49:16.975Z</time></trkpt><trkpt lat="40.28932235994988" lon="17.872202167750945"><ele>22.0</ele><time>2026-04-21T16:49:17.975Z</time></trkpt><trkpt lat="40.28935723790486" lon="17.872086228429293"><ele>22.0</ele><time>2026-04-21T16:49:18.975Z</time></trkpt><trkpt lat="40.289407361096" lon="17.87195809901706"><ele>22.0</ele><time>2026-04-21T16:49:19.975Z</time></trkpt><trkpt lat="40.289463606394875" lon="17.871802127498647"><ele>21.666666666666664</ele><time>2026-04-21T16:49:20.975Z</time></trkpt><trkpt lat="40.28953239366937" lon="17.87162594526674"><ele>21.333333333333332</ele><time>2026-04-21T16:49:21.975Z</time></trkpt><trkpt lat="40.28960241059612" lon="17.87143918965135"><ele>21.0</ele><time>2026-04-21T16:49:22.975Z</time></trkpt><trkpt lat="40.289669630896604" lon="17.87123827937584"><ele>21.0</ele><time>2026-04-21T16:49:23.975Z</time></trkpt><trkpt lat="40.28974222559389" lon="17.87102068505999"><ele>21.0</ele><time>2026-04-21T16:49:24.975Z</time></trkpt><trkpt lat="40.289821089846434" lon="17.87080498875695"><ele>21.0</ele><time>2026-04-21T16:49:25.975Z</time></trkpt><trkpt lat="40.28990243913601" lon="17.870592725710875"><ele>21.0</ele><time>2026-04-21T16:49:26.975Z</time></trkpt><trkpt lat="40.28997576044977" lon="17.870364969342894"><ele>21.0</ele><time>2026-04-21T16:49:27.975Z</time></trkpt><trkpt lat="40.29004911260545" lon="17.87015123035205"><ele>21.0</ele><time>2026-04-21T16:49:28.975Z</time></trkpt><trkpt lat="40.29012253523878" lon="17.86995361397114"><ele>20.666666666666668</ele><time>2026-04-21T16:49:29.975Z</time></trkpt><trkpt lat="40.29019053844389" lon="17.869756422398996"><ele>20.333333333333336</ele><time>2026-04-21T16:49:30.975Z</time></trkpt><trkpt lat="40.29026355832349" lon="17.869558044957603"><ele>20.0</ele><time>2026-04-21T16:49:31.975Z</time></trkpt><trkpt lat="40.290333616272186" lon="17.869361128597674"><ele>20.666666666666668</ele><time>2026-04-21T16:49:32.975Z</time></trkpt><trkpt lat="40.290401421088156" lon="17.86916686031269"><ele>21.333333333333332</ele><time>2026-04-21T16:49:33.975Z</time></trkpt><trkpt lat="40.29046922447905" lon="17.868967086529555"><ele>22.0</ele><time>2026-04-21T16:49:34.975Z</time></trkpt><trkpt lat="40.290543083338534" lon="17.868765009308497"><ele>21.666666666666664</ele><time>2026-04-21T16:49:35.975Z</time></trkpt><trkpt lat="40.29060981676199" lon="17.868555607048535"><ele>21.333333333333332</ele><time>2026-04-21T16:49:36.975Z</time></trkpt><trkpt lat="40.29068178253305" lon="17.868351941554746"><ele>21.0</ele><time>2026-04-21T16:49:37.975Z</time></trkpt><trkpt lat="40.290754667869635" lon="17.86815393758907"><ele>20.666666666666668</ele><time>2026-04-21T16:49:38.975Z</time></trkpt><trkpt lat="40.29082765211715" lon="17.86794917832065"><ele>20.333333333333336</ele><time>2026-04-21T16:49:39.975Z</time></trkpt><trkpt lat="40.29090328685624" lon="17.867739037322252"><ele>20.0</ele><time>2026-04-21T16:49:40.975Z</time></trkpt><trkpt lat="40.29098247332582" lon="17.867509992433877"><ele>19.333333333333336</ele><time>2026-04-21T16:49:41.975Z</time></trkpt><trkpt lat="40.29106894729199" lon="17.86727171412879"><ele>18.666666666666668</ele><time>2026-04-21T16:49:42.975Z</time></trkpt><trkpt lat="40.29115522760271" lon="17.86702841835593"><ele>18.0</ele><time>2026-04-21T16:49:43.975Z</time></trkpt><trkpt lat="40.29124519845725" lon="17.866790161290105"><ele>18.333333333333332</ele><time>2026-04-21T16:49:44.975Z</time></trkpt><trkpt lat="40.29133235953769" lon="17.866547480568777"><ele>18.666666666666664</ele><time>2026-04-21T16:49:45.975Z</time></trkpt><trkpt lat="40.291413679051175" lon="17.866308355155077"><ele>19.0</ele><time>2026-04-21T16:49:46.975Z</time></trkpt><trkpt lat="40.29149895739702" lon="17.86607352816736"><ele>20.0</ele><time>2026-04-21T16:49:47.975Z</time></trkpt><trkpt lat="40.291581361120855" lon="17.865838132713087"><ele>21.0</ele><time>2026-04-21T16:49:48.975Z</time></trkpt><trkpt lat="40.29166294562935" lon="17.865601573337685"><ele>22.0</ele><time>2026-04-21T16:49:49.975Z</time></trkpt><trkpt lat="40.29174558453658" lon="17.865371217638728"><ele>22.0</ele><time>2026-04-21T16:49:50.975Z</time></trkpt><trkpt lat="40.29190481059546" lon="17.864935223812722"><ele>22.0</ele><time>2026-04-21T16:49:52.975Z</time></trkpt><trkpt lat="40.29198626042009" lon="17.864712360035035"><ele>22.0</ele><time>2026-04-21T16:49:53.975Z</time></trkpt><trkpt lat="40.29206450583461" lon="17.864493091496037"><ele>22.0</ele><time>2026-04-21T16:49:54.975Z</time></trkpt><trkpt lat="40.29214280379549" lon="17.864275829322384"><ele>22.0</ele><time>2026-04-21T16:49:55.975Z</time></trkpt><trkpt lat="40.292221724463865" lon="17.86405509124809"><ele>21.666666666666664</ele><time>2026-04-21T16:49:56.975Z</time></trkpt><trkpt lat="40.29230100242197" lon="17.863831193548283"><ele>21.333333333333332</ele><time>2026-04-21T16:49:57.975Z</time></trkpt><trkpt lat="40.292384162442225" lon="17.8636022695876"><ele>21.0</ele><time>2026-04-21T16:49:58.975Z</time></trkpt><trkpt lat="40.292461127411585" lon="17.863380483108436"><ele>21.0</ele><time>2026-04-21T16:49:59.975Z</time></trkpt><trkpt lat="40.29254986606173" lon="17.86315531914283"><ele>21.0</ele><time>2026-04-21T16:50:00.975Z</time></trkpt><trkpt lat="40.292632710271015" lon="17.86291855026085"><ele>21.0</ele><time>2026-04-21T16:50:01.975Z</time></trkpt><trkpt lat="40.29271411377351" lon="17.862677742317345"><ele>21.0</ele><time>2026-04-21T16:50:02.975Z</time></trkpt><trkpt lat="40.29279155272466" lon="17.862439896133115"><ele>21.0</ele><time>2026-04-21T16:50:03.975Z</time></trkpt><trkpt lat="40.292856605379015" lon="17.86222924673752"><ele>21.0</ele><time>2026-04-21T16:50:04.975Z</time></trkpt><trkpt lat="40.29292326608799" lon="17.86202709631498"><ele>21.0</ele><time>2026-04-21T16:50:05.975Z</time></trkpt><trkpt lat="40.29298966487724" lon="17.861824347662292"><ele>21.0</ele><time>2026-04-21T16:50:06.975Z</time></trkpt><trkpt lat="40.293082746625046" lon="17.861618050888094"><ele>21.0</ele><time>2026-04-21T16:50:07.975Z</time></trkpt><trkpt lat="40.29315749747697" lon="17.86142561694128"><ele>20.333333333333332</ele><time>2026-04-21T16:50:08.975Z</time></trkpt><trkpt lat="40.293234729000226" lon="17.86122639900982"><ele>19.666666666666664</ele><time>2026-04-21T16:50:09.975Z</time></trkpt><trkpt lat="40.293306941128336" lon="17.86102489898408"><ele>19.0</ele><time>2026-04-21T16:50:10.975Z</time></trkpt><trkpt lat="40.2933811762915" lon="17.860818267961804"><ele>18.666666666666664</ele><time>2026-04-21T16:50:11.975Z</time></trkpt><trkpt lat="40.29345390836505" lon="17.86060481176525"><ele>18.333333333333332</ele><time>2026-04-21T16:50:12.975Z</time></trkpt><trkpt lat="40.29352970780051" lon="17.860386323258084"><ele>18.0</ele><time>2026-04-21T16:50:13.975Z</time></trkpt><trkpt lat="40.29360659449279" lon="17.86016572544867"><ele>17.666666666666668</ele><time>2026-04-21T16:50:14.975Z</time></trkpt><trkpt lat="40.293689388370815" lon="17.859937350411585"><ele>17.333333333333336</ele><time>2026-04-21T16:50:15.975Z</time></trkpt><trkpt lat="40.29377380851429" lon="17.85970699999152"><ele>17.0</ele><time>2026-04-21T16:50:16.975Z</time></trkpt><trkpt lat="40.293858242176675" lon="17.85947514169604"><ele>17.333333333333336</ele><time>2026-04-21T16:50:17.975Z</time></trkpt><trkpt lat="40.29394055495461" lon="17.859241292041823"><ele>17.666666666666668</ele><time>2026-04-21T16:50:18.975Z</time></trkpt><trkpt lat="40.29402856945195" lon="17.859006764494477"><ele>18.0</ele><time>2026-04-21T16:50:19.975Z</time></trkpt><trkpt lat="40.29411160709908" lon="17.858766242210105"><ele>18.0</ele><time>2026-04-21T16:50:20.975Z</time></trkpt><trkpt lat="40.29419605060559" lon="17.85852896429212"><ele>18.0</ele><time>2026-04-21T16:50:21.975Z</time></trkpt><trkpt lat="40.29428142375147" lon="17.858290796662285"><ele>18.0</ele><time>2026-04-21T16:50:22.975Z</time></trkpt><trkpt lat="40.29436118336296" lon="17.858073052992356"><ele>17.666666666666668</ele><time>2026-04-21T16:50:23.975Z</time></trkpt><trkpt lat="40.29443425352285" lon="17.857869563580948"><ele>17.333333333333336</ele><time>2026-04-21T16:50:24.975Z</time></trkpt><trkpt lat="40.294501838223695" lon="17.85767814580347"><ele>17.0</ele><time>2026-04-21T16:50:25.976Z</time></trkpt><trkpt lat="40.294566358269435" lon="17.85748882547005"><ele>16.75</ele><time>2026-04-21T16:50:26.976Z</time></trkpt><trkpt lat="40.29462685625264" lon="17.85730937080168"><ele>16.5</ele><time>2026-04-21T16:50:27.975Z</time></trkpt><trkpt lat="40.29468782895934" lon="17.857138674986263"><ele>16.25</ele><time>2026-04-21T16:50:28.975Z</time></trkpt><trkpt lat="40.2947456516035" lon="17.856975630679013"><ele>16.0</ele><time>2026-04-21T16:50:29.975Z</time></trkpt><trkpt lat="40.294795373332924" lon="17.85683577984859"><ele>16.75</ele><time>2026-04-21T16:50:30.975Z</time></trkpt><trkpt lat="40.294849179205336" lon="17.856692367041454"><ele>17.5</ele><time>2026-04-21T16:50:31.975Z</time></trkpt><trkpt lat="40.29490074462833" lon="17.85656146253407"><ele>18.25</ele><time>2026-04-21T16:50:32.975Z</time></trkpt><trkpt lat="40.294949189932694" lon="17.85643213644128"><ele>19.0</ele><time>2026-04-21T16:50:33.975Z</time></trkpt><trkpt lat="40.294991655496524" lon="17.85630518844647"><ele>19.0</ele><time>2026-04-21T16:50:34.975Z</time></trkpt><trkpt lat="40.29505038698466" lon="17.856186327687343"><ele>19.0</ele><time>2026-04-21T16:50:35.975Z</time></trkpt><trkpt lat="40.29511735041571" lon="17.85609763254971"><ele>19.0</ele><time>2026-04-21T16:50:36.975Z</time></trkpt><trkpt lat="40.29518980828117" lon="17.856027207986713"><ele>19.0</ele><time>2026-04-21T16:50:37.975Z</time></trkpt><trkpt lat="40.29526948776894" lon="17.85595469884997"><ele>19.0</ele><time>2026-04-21T16:50:38.975Z</time></trkpt><trkpt lat="40.295365491584576" lon="17.855881416172537"><ele>18.833333333333332</ele><time>2026-04-21T16:50:39.975Z</time></trkpt><trkpt lat="40.29544203688055" lon="17.855818887442783"><ele>18.666666666666664</ele><time>2026-04-21T16:50:40.975Z</time></trkpt><trkpt lat="40.29547578833031" lon="17.85573437360018"><ele>18.5</ele><time>2026-04-21T16:50:41.975Z</time></trkpt><trkpt lat="40.29550514858967" lon="17.855630439143532"><ele>18.333333333333332</ele><time>2026-04-21T16:50:42.975Z</time></trkpt><trkpt lat="40.2955240086467" lon="17.85550807611364"><ele>18.166666666666668</ele><time>2026-04-21T16:50:43.975Z</time></trkpt><trkpt lat="40.29552955615493" lon="17.855372609993687"><ele>18.0</ele><time>2026-04-21T16:50:44.975Z</time></trkpt><trkpt lat="40.29551132448622" lon="17.85524078114975"><ele>18.25</ele><time>2026-04-21T16:50:45.975Z</time></trkpt><trkpt lat="40.2954853469677" lon="17.85507968601593"><ele>18.5</ele><time>2026-04-21T16:50:46.975Z</time></trkpt><trkpt lat="40.29546002481009" lon="17.854897515120296"><ele>18.75</ele><time>2026-04-21T16:50:47.975Z</time></trkpt><trkpt lat="40.2954307963933" lon="17.854720432949662"><ele>19.0</ele><time>2026-04-21T16:50:48.975Z</time></trkpt><trkpt lat="40.29546374662165" lon="17.854627540214473"><ele>19.0</ele><time>2026-04-21T16:50:49.975Z</time></trkpt><trkpt lat="40.29555304666942" lon="17.85450076723582"><ele>19.0</ele><time>2026-04-21T16:50:50.975Z</time></trkpt><trkpt lat="40.295643216153856" lon="17.854326760708695"><ele>19.0</ele><time>2026-04-21T16:50:51.975Z</time></trkpt><trkpt lat="40.29573313089608" lon="17.854133354258995"><ele>19.0</ele><time>2026-04-21T16:50:52.975Z</time></trkpt><trkpt lat="40.2958289317929" lon="17.853897574462483"><ele>19.0</ele><time>2026-04-21T16:50:53.975Z</time></trkpt><trkpt lat="40.29590741692912" lon="17.8536262862042"><ele>19.0</ele><time>2026-04-21T16:50:54.975Z</time></trkpt><trkpt lat="40.29600084078464" lon="17.853376388455775"><ele>18.333333333333332</ele><time>2026-04-21T16:50:55.975Z</time></trkpt><trkpt lat="40.29609764230015" lon="17.853127459741593"><ele>17.666666666666668</ele><time>2026-04-21T16:50:56.975Z</time></trkpt><trkpt lat="40.29618987052273" lon="17.852872054536803"><ele>17.0</ele><time>2026-04-21T16:50:57.975Z</time></trkpt><trkpt lat="40.29627560014656" lon="17.852615489152655"><ele>17.0</ele><time>2026-04-21T16:50:58.975Z</time></trkpt><trkpt lat="40.29636760222639" lon="17.852359643741195"><ele>17.0</ele><time>2026-04-21T16:50:59.975Z</time></trkpt><trkpt lat="40.29645931785597" lon="17.85210405489845"><ele>17.0</ele><time>2026-04-21T16:51:00.975Z</time></trkpt><trkpt lat="40.29655339595401" lon="17.85184392239894"><ele>17.0</ele><time>2026-04-21T16:51:01.975Z</time></trkpt><trkpt lat="40.29665023550907" lon="17.851586237868258"><ele>17.0</ele><time>2026-04-21T16:51:02.975Z</time></trkpt><trkpt lat="40.29674583228357" lon="17.851329777202288"><ele>17.0</ele><time>2026-04-21T16:51:03.975Z</time></trkpt><trkpt lat="40.29683841657999" lon="17.85106841275841"><ele>17.0</ele><time>2026-04-21T16:51:04.975Z</time></trkpt><trkpt lat="40.29693231675927" lon="17.850808459167474"><ele>17.0</ele><time>2026-04-21T16:51:05.975Z</time></trkpt><trkpt lat="40.297024342853895" lon="17.850544952154337"><ele>17.0</ele><time>2026-04-21T16:51:06.975Z</time></trkpt><trkpt lat="40.297119705117794" lon="17.850278999466088"><ele>16.666666666666668</ele><time>2026-04-21T16:51:07.975Z</time></trkpt><trkpt lat="40.29721576477404" lon="17.850024602534013"><ele>16.333333333333332</ele><time>2026-04-21T16:51:08.975Z</time></trkpt><trkpt lat="40.297309272561215" lon="17.849761182641586"><ele>16.0</ele><time>2026-04-21T16:51:09.975Z</time></trkpt><trkpt lat="40.29740116085784" lon="17.849499383505748"><ele>16.333333333333332</ele><time>2026-04-21T16:51:10.975Z</time></trkpt><trkpt lat="40.29749518304355" lon="17.849239031244213"><ele>16.666666666666668</ele><time>2026-04-21T16:51:11.975Z</time></trkpt><trkpt lat="40.297591058364084" lon="17.848979231668135"><ele>17.0</ele><time>2026-04-21T16:51:12.975Z</time></trkpt><trkpt lat="40.29768314908515" lon="17.84871636802805"><ele>16.666666666666668</ele><time>2026-04-21T16:51:13.975Z</time></trkpt><trkpt lat="40.29777757772203" lon="17.848457895443413"><ele>16.333333333333332</ele><time>2026-04-21T16:51:14.975Z</time></trkpt><trkpt lat="40.29787010719391" lon="17.84819798877223"><ele>16.0</ele><time>2026-04-21T16:51:15.975Z</time></trkpt><trkpt lat="40.297955337658486" lon="17.84794953412157"><ele>16.0</ele><time>2026-04-21T16:51:16.975Z</time></trkpt><trkpt lat="40.29804377136308" lon="17.84769948947661"><ele>16.0</ele><time>2026-04-21T16:51:17.975Z</time></trkpt><trkpt lat="40.29813353261797" lon="17.847448840808354"><ele>16.0</ele><time>2026-04-21T16:51:18.975Z</time></trkpt><trkpt lat="40.298227082666806" lon="17.847194666402856"><ele>16.0</ele><time>2026-04-21T16:51:19.975Z</time></trkpt><trkpt lat="40.29832166770763" lon="17.84694120227332"><ele>16.0</ele><time>2026-04-21T16:51:20.975Z</time></trkpt><trkpt lat="40.29840895341932" lon="17.84668310289076"><ele>16.0</ele><time>2026-04-21T16:51:21.975Z</time></trkpt><trkpt lat="40.29850013656723" lon="17.84642152306204"><ele>16.0</ele><time>2026-04-21T16:51:22.975Z</time></trkpt><trkpt lat="40.29859052451272" lon="17.846162803672385"><ele>16.0</ele><time>2026-04-21T16:51:23.975Z</time></trkpt><trkpt lat="40.29868211579129" lon="17.845904491554354"><ele>16.0</ele><time>2026-04-21T16:51:24.975Z</time></trkpt><trkpt lat="40.29877994750618" lon="17.84564623744825"><ele>15.666666666666666</ele><time>2026-04-21T16:51:25.975Z</time></trkpt><trkpt lat="40.29887185128898" lon="17.845385063278815"><ele>15.333333333333332</ele><time>2026-04-21T16:51:26.975Z</time></trkpt><trkpt lat="40.29896156266027" lon="17.845125786994135"><ele>15.0</ele><time>2026-04-21T16:51:27.975Z</time></trkpt><trkpt lat="40.299052604447446" lon="17.844864262863354"><ele>15.0</ele><time>2026-04-21T16:51:28.975Z</time></trkpt><trkpt lat="40.29914419952647" lon="17.844608506289116"><ele>15.0</ele><time>2026-04-21T16:51:29.974Z</time></trkpt><trkpt lat="40.299241594699616" lon="17.844355680119577"><ele>15.0</ele><time>2026-04-21T16:51:30.974Z</time></trkpt><trkpt lat="40.299328426126564" lon="17.84409629141648"><ele>15.333333333333332</ele><time>2026-04-21T16:51:31.974Z</time></trkpt><trkpt lat="40.29942383689437" lon="17.843838749848675"><ele>15.666666666666666</ele><time>2026-04-21T16:51:32.974Z</time></trkpt><trkpt lat="40.29951387000069" lon="17.843577750224146"><ele>16.0</ele><time>2026-04-21T16:51:33.974Z</time></trkpt><trkpt lat="40.29960485312045" lon="17.843320934243938"><ele>16.0</ele><time>2026-04-21T16:51:34.974Z</time></trkpt><trkpt lat="40.299694866071455" lon="17.843061888828128"><ele>16.0</ele><time>2026-04-21T16:51:35.974Z</time></trkpt><trkpt lat="40.299787745792116" lon="17.842804482300732"><ele>16.0</ele><time>2026-04-21T16:51:36.974Z</time></trkpt><trkpt lat="40.29988124180707" lon="17.842544514672042"><ele>16.0</ele><time>2026-04-21T16:51:37.974Z</time></trkpt><trkpt lat="40.299974403341736" lon="17.8422838628336"><ele>16.0</ele><time>2026-04-21T16:51:38.974Z</time></trkpt><trkpt lat="40.30007080100001" lon="17.84202607084126"><ele>16.0</ele><time>2026-04-21T16:51:39.974Z</time></trkpt><trkpt lat="40.30016445670875" lon="17.84176967818333"><ele>16.0</ele><time>2026-04-21T16:51:40.974Z</time></trkpt><trkpt lat="40.30025464543063" lon="17.841509770667443"><ele>16.0</ele><time>2026-04-21T16:51:41.974Z</time></trkpt><trkpt lat="40.30035087116026" lon="17.841257737283986"><ele>16.0</ele><time>2026-04-21T16:51:42.974Z</time></trkpt><trkpt lat="40.30043689555139" lon="17.84099338038731"><ele>16.0</ele><time>2026-04-21T16:51:43.974Z</time></trkpt><trkpt lat="40.30052926838766" lon="17.840732816425234"><ele>16.0</ele><time>2026-04-21T16:51:44.974Z</time></trkpt><trkpt lat="40.30062542806705" lon="17.840472202875297"><ele>16.0</ele><time>2026-04-21T16:51:45.974Z</time></trkpt><trkpt lat="40.30071923727833" lon="17.840213507203995"><ele>16.333333333333332</ele><time>2026-04-21T16:51:46.974Z</time></trkpt><trkpt lat="40.30080954939838" lon="17.83995457197974"><ele>16.666666666666668</ele><time>2026-04-21T16:51:47.974Z</time></trkpt><trkpt lat="40.30090063506209" lon="17.839698075459605"><ele>17.0</ele><time>2026-04-21T16:51:48.974Z</time></trkpt><trkpt lat="40.300992748827234" lon="17.839437494877973"><ele>17.0</ele><time>2026-04-21T16:51:49.974Z</time></trkpt><trkpt lat="40.30108434375196" lon="17.839178760361"><ele>17.0</ele><time>2026-04-21T16:51:50.974Z</time></trkpt><trkpt lat="40.30117526730668" lon="17.838919182358815"><ele>17.0</ele><time>2026-04-21T16:51:51.974Z</time></trkpt><trkpt lat="40.301267302536196" lon="17.838662166762628"><ele>16.666666666666668</ele><time>2026-04-21T16:51:52.974Z</time></trkpt><trkpt lat="40.301359845602875" lon="17.83840397637927"><ele>16.333333333333332</ele><time>2026-04-21T16:51:53.974Z</time></trkpt><trkpt lat="40.30145246997269" lon="17.838138902711982"><ele>16.0</ele><time>2026-04-21T16:51:54.974Z</time></trkpt><trkpt lat="40.30154482287898" lon="17.83788053505568"><ele>16.666666666666664</ele><time>2026-04-21T16:51:55.974Z</time></trkpt><trkpt lat="40.30163701965625" lon="17.837622032744147"><ele>17.333333333333332</ele><time>2026-04-21T16:51:56.974Z</time></trkpt><trkpt lat="40.301728278848564" lon="17.837363881514047"><ele>18.0</ele><time>2026-04-21T16:51:57.974Z</time></trkpt><trkpt lat="40.30181921600819" lon="17.837104917319895"><ele>18.0</ele><time>2026-04-21T16:51:58.974Z</time></trkpt><trkpt lat="40.30191199154695" lon="17.836849471533046"><ele>18.0</ele><time>2026-04-21T16:51:59.974Z</time></trkpt><trkpt lat="40.3020019869976" lon="17.83659339059839"><ele>18.0</ele><time>2026-04-21T16:52:00.974Z</time></trkpt><trkpt lat="40.30209020927354" lon="17.836332423127473"><ele>17.666666666666668</ele><time>2026-04-21T16:52:01.974Z</time></trkpt><trkpt lat="40.30218092894083" lon="17.836069961009805"><ele>17.333333333333336</ele><time>2026-04-21T16:52:02.974Z</time></trkpt><trkpt lat="40.302273931591394" lon="17.835811717012046"><ele>17.0</ele><time>2026-04-21T16:52:03.974Z</time></trkpt><trkpt lat="40.30236706712067" lon="17.835552994547058"><ele>18.333333333333336</ele><time>2026-04-21T16:52:04.974Z</time></trkpt><trkpt lat="40.302456675098334" lon="17.835292721263144"><ele>19.666666666666668</ele><time>2026-04-21T16:52:05.974Z</time></trkpt><trkpt lat="40.30254897873566" lon="17.835034756772156"><ele>21.0</ele><time>2026-04-21T16:52:06.974Z</time></trkpt><trkpt lat="40.302640160107906" lon="17.834773722981176"><ele>21.0</ele><time>2026-04-21T16:52:07.974Z</time></trkpt><trkpt lat="40.30273290530218" lon="17.834514073788142"><ele>21.0</ele><time>2026-04-21T16:52:08.974Z</time></trkpt><trkpt lat="40.30282525103774" lon="17.834256225167266"><ele>21.0</ele><time>2026-04-21T16:52:09.974Z</time></trkpt><trkpt lat="40.302916923374276" lon="17.833997819115382"><ele>21.0</ele><time>2026-04-21T16:52:10.974Z</time></trkpt><trkpt lat="40.30300799776776" lon="17.833741120068588"><ele>21.0</ele><time>2026-04-21T16:52:11.974Z</time></trkpt><trkpt lat="40.303101819687186" lon="17.83348383521735"><ele>21.0</ele><time>2026-04-21T16:52:12.974Z</time></trkpt><trkpt lat="40.303195984605516" lon="17.833223363338885"><ele>20.666666666666668</ele><time>2026-04-21T16:52:13.974Z</time></trkpt><trkpt lat="40.30328782148059" lon="17.832964119120998"><ele>20.333333333333336</ele><time>2026-04-21T16:52:14.974Z</time></trkpt><trkpt lat="40.3033774698222" lon="17.832703586707822"><ele>20.0</ele><time>2026-04-21T16:52:15.974Z</time></trkpt><trkpt lat="40.303467224485345" lon="17.832443734318968"><ele>19.666666666666668</ele><time>2026-04-21T16:52:16.974Z</time></trkpt><trkpt lat="40.30355787331519" lon="17.83218674618217"><ele>19.333333333333332</ele><time>2026-04-21T16:52:17.974Z</time></trkpt><trkpt lat="40.30365000597027" lon="17.83192676302461"><ele>19.0</ele><time>2026-04-21T16:52:18.974Z</time></trkpt><trkpt lat="40.30374382684766" lon="17.83166890923649"><ele>18.666666666666664</ele><time>2026-04-21T16:52:19.974Z</time></trkpt><trkpt lat="40.30383636623088" lon="17.831414164358076"><ele>18.333333333333332</ele><time>2026-04-21T16:52:20.974Z</time></trkpt><trkpt lat="40.30392847632047" lon="17.831155048354677"><ele>18.0</ele><time>2026-04-21T16:52:21.974Z</time></trkpt><trkpt lat="40.30401873889251" lon="17.83089512593627"><ele>17.666666666666668</ele><time>2026-04-21T16:52:22.974Z</time></trkpt><trkpt lat="40.3041137589444" lon="17.830638697391382"><ele>17.333333333333336</ele><time>2026-04-21T16:52:23.974Z</time></trkpt><trkpt lat="40.30420548484784" lon="17.830377326033656"><ele>17.0</ele><time>2026-04-21T16:52:24.974Z</time></trkpt><trkpt lat="40.30429644153991" lon="17.830118586494358"><ele>16.666666666666668</ele><time>2026-04-21T16:52:25.974Z</time></trkpt><trkpt lat="40.304383676346895" lon="17.82985833969365"><ele>16.333333333333332</ele><time>2026-04-21T16:52:26.974Z</time></trkpt><trkpt lat="40.304472857082736" lon="17.82960076010897"><ele>16.0</ele><time>2026-04-21T16:52:27.974Z</time></trkpt><trkpt lat="40.30455974136715" lon="17.82934280785746"><ele>16.0</ele><time>2026-04-21T16:52:28.974Z</time></trkpt><trkpt lat="40.30464786607953" lon="17.829087412462346"><ele>16.0</ele><time>2026-04-21T16:52:29.974Z</time></trkpt><trkpt lat="40.304741054658415" lon="17.82883347672433"><ele>16.0</ele><time>2026-04-21T16:52:30.975Z</time></trkpt><trkpt lat="40.30483726564809" lon="17.828575309840886"><ele>16.666666666666664</ele><time>2026-04-21T16:52:31.974Z</time></trkpt><trkpt lat="40.30493053101138" lon="17.828311021183843"><ele>17.333333333333332</ele><time>2026-04-21T16:52:32.974Z</time></trkpt><trkpt lat="40.305026230791995" lon="17.828049960965544"><ele>18.0</ele><time>2026-04-21T16:52:33.975Z</time></trkpt><trkpt lat="40.305120517455386" lon="17.82778776448416"><ele>17.666666666666668</ele><time>2026-04-21T16:52:34.975Z</time></trkpt><trkpt lat="40.305210251692486" lon="17.827525052254007"><ele>17.333333333333336</ele><time>2026-04-21T16:52:35.975Z</time></trkpt><trkpt lat="40.305298657272424" lon="17.827266948293065"><ele>17.0</ele><time>2026-04-21T16:52:36.975Z</time></trkpt><trkpt lat="40.30538818786702" lon="17.82700674485879"><ele>16.666666666666668</ele><time>2026-04-21T16:52:37.975Z</time></trkpt><trkpt lat="40.30548273932484" lon="17.82675002380855"><ele>16.333333333333332</ele><time>2026-04-21T16:52:38.975Z</time></trkpt><trkpt lat="40.30557562511005" lon="17.826490768784115"><ele>16.0</ele><time>2026-04-21T16:52:39.975Z</time></trkpt><trkpt lat="40.305669783244724" lon="17.826235023487776"><ele>16.666666666666664</ele><time>2026-04-21T16:52:40.974Z</time></trkpt><trkpt lat="40.30576657144264" lon="17.8259725157091"><ele>17.333333333333332</ele><time>2026-04-21T16:52:41.974Z</time></trkpt><trkpt lat="40.30585831196373" lon="17.82571649047201"><ele>18.0</ele><time>2026-04-21T16:52:42.974Z</time></trkpt><trkpt lat="40.305950260033946" lon="17.82545618158961"><ele>18.0</ele><time>2026-04-21T16:52:43.975Z</time></trkpt><trkpt lat="40.30604493371418" lon="17.825196763423172"><ele>18.0</ele><time>2026-04-21T16:52:44.975Z</time></trkpt><trkpt lat="40.306135355049975" lon="17.82493695871178"><ele>18.0</ele><time>2026-04-21T16:52:45.975Z</time></trkpt><trkpt lat="40.30623039268975" lon="17.82468129018625"><ele>18.333333333333332</ele><time>2026-04-21T16:52:46.975Z</time></trkpt><trkpt lat="40.30632143337338" lon="17.82442333945984"><ele>18.666666666666664</ele><time>2026-04-21T16:52:47.975Z</time></trkpt><trkpt lat="40.306411981259245" lon="17.824166522329556"><ele>19.0</ele><time>2026-04-21T16:52:48.975Z</time></trkpt><trkpt lat="40.30650163906263" lon="17.823908298982932"><ele>19.333333333333332</ele><time>2026-04-21T16:52:49.975Z</time></trkpt><trkpt lat="40.306592743776875" lon="17.82365123202841"><ele>19.666666666666668</ele><time>2026-04-21T16:52:50.975Z</time></trkpt><trkpt lat="40.30668743881003" lon="17.823393208848955"><ele>20.0</ele><time>2026-04-21T16:52:51.975Z</time></trkpt><trkpt lat="40.306780063853" lon="17.823135420558852"><ele>20.0</ele><time>2026-04-21T16:52:52.975Z</time></trkpt><trkpt lat="40.30687214307236" lon="17.822881039957373"><ele>20.0</ele><time>2026-04-21T16:52:53.975Z</time></trkpt><trkpt lat="40.30696277786385" lon="17.822624429050663"><ele>20.0</ele><time>2026-04-21T16:52:54.975Z</time></trkpt><trkpt lat="40.30705188268306" lon="17.82236589924734"><ele>20.0</ele><time>2026-04-21T16:52:55.975Z</time></trkpt><trkpt lat="40.30714468976432" lon="17.822105793991625"><ele>20.0</ele><time>2026-04-21T16:52:56.975Z</time></trkpt><trkpt lat="40.307237710397196" lon="17.821847976199095"><ele>20.0</ele><time>2026-04-21T16:52:57.975Z</time></trkpt><trkpt lat="40.3073289844852" lon="17.821589219282075"><ele>21.0</ele><time>2026-04-21T16:52:58.975Z</time></trkpt><trkpt lat="40.307424233006515" lon="17.821327380226876"><ele>22.0</ele><time>2026-04-21T16:52:59.975Z</time></trkpt><trkpt lat="40.30751434673809" lon="17.821067273049934"><ele>23.0</ele><time>2026-04-21T16:53:00.975Z</time></trkpt><trkpt lat="40.307605009095504" lon="17.82080831438012"><ele>23.0</ele><time>2026-04-21T16:53:01.975Z</time></trkpt><trkpt lat="40.307698372577555" lon="17.8205487804631"><ele>23.0</ele><time>2026-04-21T16:53:02.975Z</time></trkpt><trkpt lat="40.307792207951664" lon="17.82028922485608"><ele>23.0</ele><time>2026-04-21T16:53:03.975Z</time></trkpt><trkpt lat="40.30788466425588" lon="17.820028844024023"><ele>22.666666666666668</ele><time>2026-04-21T16:53:04.975Z</time></trkpt><trkpt lat="40.307977008100416" lon="17.819772234307628"><ele>22.333333333333332</ele><time>2026-04-21T16:53:05.975Z</time></trkpt><trkpt lat="40.308057677805174" lon="17.819523604184955"><ele>22.0</ele><time>2026-04-21T16:53:06.975Z</time></trkpt><trkpt lat="40.308122900086886" lon="17.81928509420338"><ele>22.0</ele><time>2026-04-21T16:53:07.975Z</time></trkpt><trkpt lat="40.30818618556436" lon="17.819069511124344"><ele>22.0</ele><time>2026-04-21T16:53:08.975Z</time></trkpt><trkpt lat="40.308239295697284" lon="17.818855320328915"><ele>22.0</ele><time>2026-04-21T16:53:09.975Z</time></trkpt><trkpt lat="40.30829114277167" lon="17.818647389142395"><ele>21.666666666666664</ele><time>2026-04-21T16:53:10.975Z</time></trkpt><trkpt lat="40.30834449600333" lon="17.818439543241965"><ele>21.333333333333332</ele><time>2026-04-21T16:53:11.975Z</time></trkpt><trkpt lat="40.308411131588755" lon="17.8182324189741"><ele>21.0</ele><time>2026-04-21T16:53:12.975Z</time></trkpt><trkpt lat="40.30859960486072" lon="17.818023836627738"><ele>21.0</ele><time>2026-04-21T16:53:13.975Z</time></trkpt><trkpt lat="40.30866866289" lon="17.817829016175207"><ele>21.0</ele><time>2026-04-21T16:53:14.975Z</time></trkpt><trkpt lat="40.30873322582622" lon="17.81764075804181"><ele>21.0</ele><time>2026-04-21T16:53:15.975Z</time></trkpt><trkpt lat="40.30879961990841" lon="17.81745759830479"><ele>21.0</ele><time>2026-04-21T16:53:16.975Z</time></trkpt><trkpt lat="40.30886179949499" lon="17.817286102574734"><ele>21.0</ele><time>2026-04-21T16:53:17.975Z</time></trkpt><trkpt lat="40.30891943526823" lon="17.817123069678118"><ele>21.0</ele><time>2026-04-21T16:53:18.975Z</time></trkpt><trkpt lat="40.30897583940479" lon="17.81696313943845"><ele>21.0</ele><time>2026-04-21T16:53:19.975Z</time></trkpt><trkpt lat="40.30903482933042" lon="17.816801550148664"><ele>22.0</ele><time>2026-04-21T16:53:20.975Z</time></trkpt><trkpt lat="40.30909383965292" lon="17.816639483133944"><ele>23.0</ele><time>2026-04-21T16:53:21.975Z</time></trkpt><trkpt lat="40.30915322495578" lon="17.81647379053391"><ele>24.0</ele><time>2026-04-21T16:53:22.975Z</time></trkpt><trkpt lat="40.30921124157725" lon="17.81630205794501"><ele>25.0</ele><time>2026-04-21T16:53:23.975Z</time></trkpt><trkpt lat="40.30927343394655" lon="17.816124445804935"><ele>24.666666666666668</ele><time>2026-04-21T16:53:24.975Z</time></trkpt><trkpt lat="40.30934198077828" lon="17.815929255530826"><ele>24.333333333333336</ele><time>2026-04-21T16:53:25.975Z</time></trkpt><trkpt lat="40.30941522739066" lon="17.815733077115656"><ele>24.0</ele><time>2026-04-21T16:53:26.975Z</time></trkpt><trkpt lat="40.309488096998486" lon="17.815527209892206"><ele>24.0</ele><time>2026-04-21T16:53:27.975Z</time></trkpt><trkpt lat="40.3095625309278" lon="17.815316384598184"><ele>24.0</ele><time>2026-04-21T16:53:28.975Z</time></trkpt><trkpt lat="40.30963976710619" lon="17.8150957900766"><ele>24.0</ele><time>2026-04-21T16:53:29.975Z</time></trkpt><trkpt lat="40.30972074632085" lon="17.814867323749958"><ele>24.333333333333336</ele><time>2026-04-21T16:53:30.975Z</time></trkpt><trkpt lat="40.30980007566222" lon="17.81463756986233"><ele>24.666666666666668</ele><time>2026-04-21T16:53:31.975Z</time></trkpt><trkpt lat="40.30988045280818" lon="17.81441299035176"><ele>25.0</ele><time>2026-04-21T16:53:32.975Z</time></trkpt><trkpt lat="40.30996364403243" lon="17.814189917255263"><ele>25.0</ele><time>2026-04-21T16:53:33.975Z</time></trkpt><trkpt lat="40.31004454508294" lon="17.81396270130779"><ele>25.0</ele><time>2026-04-21T16:53:34.975Z</time></trkpt><trkpt lat="40.310127288160665" lon="17.813737639876084"><ele>25.0</ele><time>2026-04-21T16:53:35.975Z</time></trkpt><trkpt lat="40.310209371232226" lon="17.813506608068998"><ele>24.666666666666668</ele><time>2026-04-21T16:53:36.974Z</time></trkpt><trkpt lat="40.3102889562969" lon="17.81328015913686"><ele>24.333333333333336</ele><time>2026-04-21T16:53:37.974Z</time></trkpt><trkpt lat="40.31037097557086" lon="17.813055876303356"><ele>24.0</ele><time>2026-04-21T16:53:38.974Z</time></trkpt><trkpt lat="40.31045319135034" lon="17.81282465982695"><ele>23.666666666666668</ele><time>2026-04-21T16:53:39.974Z</time></trkpt><trkpt lat="40.310535781045644" lon="17.81259481139993"><ele>23.333333333333336</ele><time>2026-04-21T16:53:40.974Z</time></trkpt><trkpt lat="40.310616675102025" lon="17.812366580126728"><ele>23.0</ele><time>2026-04-21T16:53:41.974Z</time></trkpt><trkpt lat="40.31069510361942" lon="17.81213419953808"><ele>22.666666666666668</ele><time>2026-04-21T16:53:42.974Z</time></trkpt><trkpt lat="40.31077145475386" lon="17.811905467156116"><ele>22.333333333333332</ele><time>2026-04-21T16:53:43.974Z</time></trkpt><trkpt lat="40.31085149353719" lon="17.81167897088732"><ele>22.0</ele><time>2026-04-21T16:53:44.974Z</time></trkpt><trkpt lat="40.310932440205924" lon="17.811456177598064"><ele>22.0</ele><time>2026-04-21T16:53:45.974Z</time></trkpt><trkpt lat="40.31101292692955" lon="17.811226414065597"><ele>22.0</ele><time>2026-04-21T16:53:46.974Z</time></trkpt><trkpt lat="40.311097012737754" lon="17.810995562011144"><ele>22.0</ele><time>2026-04-21T16:53:47.974Z</time></trkpt><trkpt lat="40.3111826163574" lon="17.810763598764446"><ele>22.0</ele><time>2026-04-21T16:53:48.974Z</time></trkpt><trkpt lat="40.311262630927104" lon="17.810534858374673"><ele>22.0</ele><time>2026-04-21T16:53:49.974Z</time></trkpt><trkpt lat="40.311341533817796" lon="17.810299842650053"><ele>22.0</ele><time>2026-04-21T16:53:50.974Z</time></trkpt><trkpt lat="40.311421577021875" lon="17.81006904056959"><ele>23.0</ele><time>2026-04-21T16:53:51.974Z</time></trkpt><trkpt lat="40.31150299902091" lon="17.80983966248634"><ele>24.0</ele><time>2026-04-21T16:53:52.974Z</time></trkpt><trkpt lat="40.31158324720166" lon="17.809608630540634"><ele>25.0</ele><time>2026-04-21T16:53:53.974Z</time></trkpt><trkpt lat="40.31166476685823" lon="17.80937941649364"><ele>25.0</ele><time>2026-04-21T16:53:54.974Z</time></trkpt><trkpt lat="40.311748168926606" lon="17.809148632396337"><ele>25.0</ele><time>2026-04-21T16:53:55.974Z</time></trkpt><trkpt lat="40.31183464094468" lon="17.808918819024424"><ele>25.0</ele><time>2026-04-21T16:53:56.974Z</time></trkpt><trkpt lat="40.31191514966177" lon="17.808687763944736"><ele>25.666666666666668</ele><time>2026-04-21T16:53:57.974Z</time></trkpt><trkpt lat="40.311998809554154" lon="17.808454863949056"><ele>26.333333333333336</ele><time>2026-04-21T16:53:58.974Z</time></trkpt><trkpt lat="40.312080020051084" lon="17.808222215699917"><ele>27.0</ele><time>2026-04-21T16:53:59.974Z</time></trkpt><trkpt lat="40.3121624701095" lon="17.80798990782258"><ele>27.0</ele><time>2026-04-21T16:54:00.974Z</time></trkpt><trkpt lat="40.312247319697" lon="17.807756819773424"><ele>27.0</ele><time>2026-04-21T16:54:01.974Z</time></trkpt><trkpt lat="40.31232970740223" lon="17.807522009590095"><ele>27.0</ele><time>2026-04-21T16:54:02.974Z</time></trkpt><trkpt lat="40.31241200812231" lon="17.80729090679492"><ele>27.0</ele><time>2026-04-21T16:54:03.974Z</time></trkpt><trkpt lat="40.31249422123318" lon="17.807062252706"><ele>27.0</ele><time>2026-04-21T16:54:04.974Z</time></trkpt><trkpt lat="40.312573440147176" lon="17.80682847664918"><ele>27.0</ele><time>2026-04-21T16:54:05.974Z</time></trkpt><trkpt lat="40.312654080543396" lon="17.806595218267127"><ele>26.0</ele><time>2026-04-21T16:54:06.974Z</time></trkpt><trkpt lat="40.31274000280508" lon="17.806364943238716"><ele>25.0</ele><time>2026-04-21T16:54:07.974Z</time></trkpt><trkpt lat="40.31282145413374" lon="17.80613841756564"><ele>24.0</ele><time>2026-04-21T16:54:08.974Z</time></trkpt><trkpt lat="40.31290217932533" lon="17.805908753896116"><ele>24.0</ele><time>2026-04-21T16:54:09.974Z</time></trkpt><trkpt lat="40.31298477473184" lon="17.805674775694257"><ele>24.0</ele><time>2026-04-21T16:54:10.974Z</time></trkpt><trkpt lat="40.31306454383895" lon="17.80544145111651"><ele>24.0</ele><time>2026-04-21T16:54:11.974Z</time></trkpt><trkpt lat="40.31314556628786" lon="17.805213787745036"><ele>25.0</ele><time>2026-04-21T16:54:12.974Z</time></trkpt><trkpt lat="40.31322808093725" lon="17.804978963207233"><ele>26.0</ele><time>2026-04-21T16:54:13.974Z</time></trkpt><trkpt lat="40.3133117274597" lon="17.8047510560068"><ele>27.0</ele><time>2026-04-21T16:54:14.974Z</time></trkpt><trkpt lat="40.31338846852517" lon="17.804515491489866"><ele>26.666666666666664</ele><time>2026-04-21T16:54:15.974Z</time></trkpt><trkpt lat="40.31346595094494" lon="17.804282507702077"><ele>26.333333333333332</ele><time>2026-04-21T16:54:16.974Z</time></trkpt><trkpt lat="40.313550603867625" lon="17.80404976747359"><ele>26.0</ele><time>2026-04-21T16:54:17.974Z</time></trkpt><trkpt lat="40.31363504683022" lon="17.803821057993126"><ele>26.0</ele><time>2026-04-21T16:54:18.974Z</time></trkpt><trkpt lat="40.31371694932227" lon="17.80359080161125"><ele>26.0</ele><time>2026-04-21T16:54:19.974Z</time></trkpt><trkpt lat="40.31380021897224" lon="17.80336086226981"><ele>26.0</ele><time>2026-04-21T16:54:20.974Z</time></trkpt><trkpt lat="40.31388268694483" lon="17.803131018763743"><ele>26.0</ele><time>2026-04-21T16:54:21.974Z</time></trkpt><trkpt lat="40.313963979330616" lon="17.802898714891032"><ele>26.0</ele><time>2026-04-21T16:54:22.974Z</time></trkpt><trkpt lat="40.31404848000837" lon="17.80266592376984"><ele>26.0</ele><time>2026-04-21T16:54:23.974Z</time></trkpt><trkpt lat="40.31412810285583" lon="17.802434526298335"><ele>26.333333333333332</ele><time>2026-04-21T16:54:24.974Z</time></trkpt><trkpt lat="40.31421108555926" lon="17.80220339878603"><ele>26.666666666666664</ele><time>2026-04-21T16:54:25.974Z</time></trkpt><trkpt lat="40.31429262234403" lon="17.801972751456407"><ele>27.0</ele><time>2026-04-21T16:54:26.974Z</time></trkpt><trkpt lat="40.31437211574857" lon="17.80173958269087"><ele>27.0</ele><time>2026-04-21T16:54:27.974Z</time></trkpt><trkpt lat="40.31445390886571" lon="17.801504827311366"><ele>27.0</ele><time>2026-04-21T16:54:28.974Z</time></trkpt><trkpt lat="40.31453682207128" lon="17.801272323342854"><ele>27.0</ele><time>2026-04-21T16:54:29.974Z</time></trkpt><trkpt lat="40.31461926996623" lon="17.80104456020217"><ele>27.333333333333336</ele><time>2026-04-21T16:54:30.974Z</time></trkpt><trkpt lat="40.31469804066261" lon="17.80081667973215"><ele>27.666666666666668</ele><time>2026-04-21T16:54:31.974Z</time></trkpt><trkpt lat="40.31477895906417" lon="17.800581927459515"><ele>28.0</ele><time>2026-04-21T16:54:32.974Z</time></trkpt><trkpt lat="40.31485960084061" lon="17.800348629403313"><ele>27.0</ele><time>2026-04-21T16:54:33.974Z</time></trkpt><trkpt lat="40.31493767188239" lon="17.800116420651392"><ele>26.0</ele><time>2026-04-21T16:54:34.974Z</time></trkpt><trkpt lat="40.315019373285324" lon="17.7998878335692"><ele>25.0</ele><time>2026-04-21T16:54:35.974Z</time></trkpt><trkpt lat="40.3151021191247" lon="17.79965847518751"><ele>25.0</ele><time>2026-04-21T16:54:36.974Z</time></trkpt><trkpt lat="40.31518475497526" lon="17.799426678105505"><ele>25.0</ele><time>2026-04-21T16:54:37.974Z</time></trkpt><trkpt lat="40.315268988241165" lon="17.799197297670084"><ele>25.0</ele><time>2026-04-21T16:54:38.974Z</time></trkpt><trkpt lat="40.31535170899581" lon="17.798963505185263"><ele>25.0</ele><time>2026-04-21T16:54:39.975Z</time></trkpt><trkpt lat="40.315433259720535" lon="17.798732392311564"><ele>25.0</ele><time>2026-04-21T16:54:40.974Z</time></trkpt><trkpt lat="40.315513356907005" lon="17.798502305339728"><ele>25.0</ele><time>2026-04-21T16:54:41.974Z</time></trkpt><trkpt lat="40.31559924312033" lon="17.798267316448698"><ele>25.0</ele><time>2026-04-21T16:54:42.975Z</time></trkpt><trkpt lat="40.31568244273611" lon="17.79803871379162"><ele>25.0</ele><time>2026-04-21T16:54:43.974Z</time></trkpt><trkpt lat="40.315765622200644" lon="17.79780816191073"><ele>25.0</ele><time>2026-04-21T16:54:44.974Z</time></trkpt><trkpt lat="40.31585017688227" lon="17.797575397094146"><ele>25.0</ele><time>2026-04-21T16:54:45.974Z</time></trkpt><trkpt lat="40.315930634380244" lon="17.797346726671137"><ele>25.0</ele><time>2026-04-21T16:54:46.974Z</time></trkpt><trkpt lat="40.31601244632285" lon="17.797117949607472"><ele>25.0</ele><time>2026-04-21T16:54:47.974Z</time></trkpt><trkpt lat="40.31609562560019" lon="17.796884419882282"><ele>25.0</ele><time>2026-04-21T16:54:48.974Z</time></trkpt><trkpt lat="40.316177035176594" lon="17.79665293184897"><ele>25.0</ele><time>2026-04-21T16:54:49.974Z</time></trkpt><trkpt lat="40.3162589255975" lon="17.79642106025301"><ele>25.0</ele><time>2026-04-21T16:54:50.974Z</time></trkpt><trkpt lat="40.31633734980226" lon="17.79619276929549"><ele>25.666666666666668</ele><time>2026-04-21T16:54:51.974Z</time></trkpt><trkpt lat="40.316420671484906" lon="17.79596358173831"><ele>26.333333333333336</ele><time>2026-04-21T16:54:52.974Z</time></trkpt><trkpt lat="40.31650029811624" lon="17.795734336816952"><ele>27.0</ele><time>2026-04-21T16:54:53.974Z</time></trkpt><trkpt lat="40.316579243315374" lon="17.79549821630986"><ele>27.0</ele><time>2026-04-21T16:54:54.974Z</time></trkpt><trkpt lat="40.316662759470915" lon="17.79526841234251"><ele>27.0</ele><time>2026-04-21T16:54:55.974Z</time></trkpt><trkpt lat="40.316747633903525" lon="17.795032946387245"><ele>27.0</ele><time>2026-04-21T16:54:56.974Z</time></trkpt><trkpt lat="40.3168298279913" lon="17.794800775013247"><ele>27.0</ele><time>2026-04-21T16:54:57.974Z</time></trkpt><trkpt lat="40.31691281200576" lon="17.794572620540944"><ele>27.0</ele><time>2026-04-21T16:54:58.974Z</time></trkpt><trkpt lat="40.3169946023665" lon="17.79434227257746"><ele>27.0</ele><time>2026-04-21T16:54:59.974Z</time></trkpt><trkpt lat="40.31707450114954" lon="17.794111314564642"><ele>27.0</ele><time>2026-04-21T16:55:00.974Z</time></trkpt><trkpt lat="40.31715543863073" lon="17.793880548425033"><ele>27.0</ele><time>2026-04-21T16:55:01.974Z</time></trkpt><trkpt lat="40.317238141821626" lon="17.793650844765626"><ele>27.0</ele><time>2026-04-21T16:55:02.974Z</time></trkpt><trkpt lat="40.317320547929135" lon="17.79342003430354"><ele>27.666666666666664</ele><time>2026-04-21T16:55:03.974Z</time></trkpt><trkpt lat="40.31740369147857" lon="17.793196894637056"><ele>28.333333333333332</ele><time>2026-04-21T16:55:04.974Z</time></trkpt><trkpt lat="40.317486881945726" lon="17.79296550166232"><ele>29.0</ele><time>2026-04-21T16:55:05.974Z</time></trkpt><trkpt lat="40.31756978451944" lon="17.79273629884676"><ele>29.0</ele><time>2026-04-21T16:55:06.974Z</time></trkpt><trkpt lat="40.31765253206878" lon="17.79250254360624"><ele>29.0</ele><time>2026-04-21T16:55:07.974Z</time></trkpt><trkpt lat="40.317734143087094" lon="17.79227261907881"><ele>29.0</ele><time>2026-04-21T16:55:08.974Z</time></trkpt><trkpt lat="40.317815672814554" lon="17.792043203951465"><ele>29.333333333333332</ele><time>2026-04-21T16:55:09.974Z</time></trkpt><trkpt lat="40.31789819197488" lon="17.79180673850871"><ele>29.666666666666664</ele><time>2026-04-21T16:55:10.974Z</time></trkpt><trkpt lat="40.317978234008216" lon="17.791580149615648"><ele>30.0</ele><time>2026-04-21T16:55:11.974Z</time></trkpt><trkpt lat="40.31806139338543" lon="17.79135015950233"><ele>30.666666666666664</ele><time>2026-04-21T16:55:12.974Z</time></trkpt><trkpt lat="40.31814337203037" lon="17.791119361892477"><ele>31.333333333333332</ele><time>2026-04-21T16:55:13.974Z</time></trkpt><trkpt lat="40.31822436824498" lon="17.79088879279699"><ele>32.0</ele><time>2026-04-21T16:55:14.974Z</time></trkpt><trkpt lat="40.31830753833025" lon="17.79065571261787"><ele>32.666666666666664</ele><time>2026-04-21T16:55:15.974Z</time></trkpt><trkpt lat="40.3183904986839" lon="17.790421301428072"><ele>33.333333333333336</ele><time>2026-04-21T16:55:16.974Z</time></trkpt><trkpt lat="40.318474933511034" lon="17.790190357188166"><ele>34.0</ele><time>2026-04-21T16:55:17.974Z</time></trkpt><trkpt lat="40.31856000960298" lon="17.789962958833787"><ele>34.333333333333336</ele><time>2026-04-21T16:55:18.974Z</time></trkpt><trkpt lat="40.3186403139868" lon="17.789731540225148"><ele>34.666666666666664</ele><time>2026-04-21T16:55:19.974Z</time></trkpt><trkpt lat="40.31872176227824" lon="17.78949898733393"><ele>35.0</ele><time>2026-04-21T16:55:20.974Z</time></trkpt><trkpt lat="40.31880304966055" lon="17.789265464436472"><ele>35.33333333333333</ele><time>2026-04-21T16:55:21.974Z</time></trkpt><trkpt lat="40.31888462536639" lon="17.78903761023643"><ele>35.666666666666664</ele><time>2026-04-21T16:55:22.974Z</time></trkpt><trkpt lat="40.31896658947873" lon="17.78880576897896"><ele>36.0</ele><time>2026-04-21T16:55:23.974Z</time></trkpt><trkpt lat="40.319048211507415" lon="17.788572872955076"><ele>36.333333333333336</ele><time>2026-04-21T16:55:24.974Z</time></trkpt><trkpt lat="40.319128682811396" lon="17.788342661996495"><ele>36.66666666666667</ele><time>2026-04-21T16:55:25.974Z</time></trkpt><trkpt lat="40.31921174773619" lon="17.788110749872068"><ele>37.0</ele><time>2026-04-21T16:55:26.974Z</time></trkpt><trkpt lat="40.319294670685665" lon="17.787882343858044"><ele>37.333333333333336</ele><time>2026-04-21T16:55:27.974Z</time></trkpt><trkpt lat="40.3193768704408" lon="17.787649551490674"><ele>37.666666666666664</ele><time>2026-04-21T16:55:28.974Z</time></trkpt><trkpt lat="40.319458992376354" lon="17.787417598158804"><ele>38.0</ele><time>2026-04-21T16:55:29.974Z</time></trkpt><trkpt lat="40.31954133801384" lon="17.787186741961587"><ele>38.0</ele><time>2026-04-21T16:55:30.974Z</time></trkpt><trkpt lat="40.31962454780809" lon="17.786950695232605"><ele>38.0</ele><time>2026-04-21T16:55:31.974Z</time></trkpt><trkpt lat="40.319707685297125" lon="17.78672172721749"><ele>38.0</ele><time>2026-04-21T16:55:32.974Z</time></trkpt><trkpt lat="40.319789111416775" lon="17.78649195797801"><ele>38.0</ele><time>2026-04-21T16:55:33.974Z</time></trkpt><trkpt lat="40.31987194818335" lon="17.786256779493414"><ele>38.0</ele><time>2026-04-21T16:55:34.974Z</time></trkpt><trkpt lat="40.31995371634206" lon="17.786024616423976"><ele>38.0</ele><time>2026-04-21T16:55:35.974Z</time></trkpt><trkpt lat="40.320035922331044" lon="17.78579519166468"><ele>38.0</ele><time>2026-04-21T16:55:36.974Z</time></trkpt><trkpt lat="40.32011724244862" lon="17.78556172634716"><ele>38.0</ele><time>2026-04-21T16:55:37.974Z</time></trkpt><trkpt lat="40.32019914451317" lon="17.785329241063465"><ele>38.0</ele><time>2026-04-21T16:55:38.974Z</time></trkpt><trkpt lat="40.32028274426191" lon="17.78510079903985"><ele>38.0</ele><time>2026-04-21T16:55:39.974Z</time></trkpt><trkpt lat="40.32036436887982" lon="17.78486829129551"><ele>38.0</ele><time>2026-04-21T16:55:40.974Z</time></trkpt><trkpt lat="40.32044627997169" lon="17.784635710630756"><ele>38.0</ele><time>2026-04-21T16:55:41.974Z</time></trkpt><trkpt lat="40.32053018913111" lon="17.784403631959293"><ele>38.33333333333333</ele><time>2026-04-21T16:55:42.974Z</time></trkpt><trkpt lat="40.32060907775597" lon="17.784171659111948"><ele>38.666666666666664</ele><time>2026-04-21T16:55:43.974Z</time></trkpt><trkpt lat="40.32069562096898" lon="17.783941620707452"><ele>39.0</ele><time>2026-04-21T16:55:44.974Z</time></trkpt><trkpt lat="40.32078355194216" lon="17.78371124268584"><ele>40.0</ele><time>2026-04-21T16:55:45.974Z</time></trkpt><trkpt lat="40.32087575203424" lon="17.78348763646196"><ele>41.0</ele><time>2026-04-21T16:55:46.974Z</time></trkpt><trkpt lat="40.32097290003657" lon="17.78326057787011"><ele>42.0</ele><time>2026-04-21T16:55:47.974Z</time></trkpt><trkpt lat="40.321069784940555" lon="17.78304397832767"><ele>42.0</ele><time>2026-04-21T16:55:48.974Z</time></trkpt><trkpt lat="40.32116923139496" lon="17.78282924164878"><ele>42.0</ele><time>2026-04-21T16:55:49.974Z</time></trkpt><trkpt lat="40.321276759104" lon="17.782611226562835"><ele>42.0</ele><time>2026-04-21T16:55:50.974Z</time></trkpt><trkpt lat="40.321379258384106" lon="17.7823991684054"><ele>41.666666666666664</ele><time>2026-04-21T16:55:51.974Z</time></trkpt><trkpt lat="40.321488247343964" lon="17.782189643460903"><ele>41.33333333333333</ele><time>2026-04-21T16:55:52.974Z</time></trkpt><trkpt lat="40.321594857790366" lon="17.78197451135681"><ele>41.0</ele><time>2026-04-21T16:55:53.974Z</time></trkpt><trkpt lat="40.32170239788059" lon="17.781758176317922"><ele>41.0</ele><time>2026-04-21T16:55:54.974Z</time></trkpt><trkpt lat="40.321808221088574" lon="17.781543462819613"><ele>41.0</ele><time>2026-04-21T16:55:55.974Z</time></trkpt><trkpt lat="40.32191530437272" lon="17.78132678447036"><ele>41.0</ele><time>2026-04-21T16:55:56.974Z</time></trkpt><trkpt lat="40.32202373679266" lon="17.781108579417857"><ele>40.666666666666664</ele><time>2026-04-21T16:55:57.974Z</time></trkpt><trkpt lat="40.3221287863118" lon="17.780891611239678"><ele>40.333333333333336</ele><time>2026-04-21T16:55:58.974Z</time></trkpt><trkpt lat="40.32223421297664" lon="17.780677238754624"><ele>40.0</ele><time>2026-04-21T16:55:59.974Z</time></trkpt><trkpt lat="40.32233982841081" lon="17.780465744948142"><ele>40.333333333333336</ele><time>2026-04-21T16:56:00.974Z</time></trkpt><trkpt lat="40.32244462130884" lon="17.78025216617353"><ele>40.666666666666664</ele><time>2026-04-21T16:56:01.974Z</time></trkpt><trkpt lat="40.32254866086191" lon="17.78003899802337"><ele>41.0</ele><time>2026-04-21T16:56:02.974Z</time></trkpt><trkpt lat="40.32265406658615" lon="17.779823158654057"><ele>41.0</ele><time>2026-04-21T16:56:03.974Z</time></trkpt><trkpt lat="40.32276343777545" lon="17.779612433600338"><ele>41.0</ele><time>2026-04-21T16:56:04.974Z</time></trkpt><trkpt lat="40.32287158741956" lon="17.77939811044369"><ele>41.0</ele><time>2026-04-21T16:56:05.974Z</time></trkpt><trkpt lat="40.32297865286995" lon="17.77918724403204"><ele>41.666666666666664</ele><time>2026-04-21T16:56:06.974Z</time></trkpt><trkpt lat="40.32308270296543" lon="17.778972021830363"><ele>42.333333333333336</ele><time>2026-04-21T16:56:07.974Z</time></trkpt><trkpt lat="40.32318772838183" lon="17.7787589783239"><ele>43.0</ele><time>2026-04-21T16:56:08.974Z</time></trkpt><trkpt lat="40.32329350428278" lon="17.778548930490075"><ele>42.0</ele><time>2026-04-21T16:56:09.974Z</time></trkpt><trkpt lat="40.323399401829576" lon="17.778335495966445"><ele>41.0</ele><time>2026-04-21T16:56:10.974Z</time></trkpt><trkpt lat="40.32350897466794" lon="17.778120117222652"><ele>40.0</ele><time>2026-04-21T16:56:11.974Z</time></trkpt><trkpt lat="40.32361993111166" lon="17.77790475423313"><ele>40.0</ele><time>2026-04-21T16:56:12.974Z</time></trkpt><trkpt lat="40.3237272452793" lon="17.77768614277263"><ele>40.0</ele><time>2026-04-21T16:56:13.974Z</time></trkpt><trkpt lat="40.3238341563466" lon="17.77747068196347"><ele>40.0</ele><time>2026-04-21T16:56:14.974Z</time></trkpt><trkpt lat="40.32394225977933" lon="17.777254882393315"><ele>40.0</ele><time>2026-04-21T16:56:15.974Z</time></trkpt><trkpt lat="40.32405061197934" lon="17.77703935422007"><ele>40.0</ele><time>2026-04-21T16:56:16.974Z</time></trkpt><trkpt lat="40.32415613665549" lon="17.776826614935796"><ele>40.0</ele><time>2026-04-21T16:56:17.973Z</time></trkpt><trkpt lat="40.32425846445514" lon="17.776607650496764"><ele>40.0</ele><time>2026-04-21T16:56:18.973Z</time></trkpt><trkpt lat="40.32435863985042" lon="17.776393400087024"><ele>40.0</ele><time>2026-04-21T16:56:19.973Z</time></trkpt><trkpt lat="40.32445985673209" lon="17.776181711899223"><ele>40.0</ele><time>2026-04-21T16:56:20.973Z</time></trkpt><trkpt lat="40.32456619729747" lon="17.775966148363885"><ele>39.66666666666667</ele><time>2026-04-21T16:56:21.973Z</time></trkpt><trkpt lat="40.32467538053125" lon="17.77575557438574"><ele>39.333333333333336</ele><time>2026-04-21T16:56:22.973Z</time></trkpt><trkpt lat="40.32478256323435" lon="17.775545021854086"><ele>39.0</ele><time>2026-04-21T16:56:23.973Z</time></trkpt><trkpt lat="40.32489001727907" lon="17.775329350237207"><ele>39.0</ele><time>2026-04-21T16:56:24.973Z</time></trkpt><trkpt lat="40.324994556903036" lon="17.775115470645687"><ele>39.0</ele><time>2026-04-21T16:56:25.973Z</time></trkpt><trkpt lat="40.32510231592192" lon="17.774898939607812"><ele>39.0</ele><time>2026-04-21T16:56:26.973Z</time></trkpt><trkpt lat="40.32520531174622" lon="17.774684233785894"><ele>39.0</ele><time>2026-04-21T16:56:27.973Z</time></trkpt><trkpt lat="40.32531150865303" lon="17.7744685384208"><ele>39.0</ele><time>2026-04-21T16:56:28.973Z</time></trkpt><trkpt lat="40.32541750822149" lon="17.77425340391051"><ele>39.0</ele><time>2026-04-21T16:56:29.973Z</time></trkpt><trkpt lat="40.32552598205056" lon="17.774040290187035"><ele>39.0</ele><time>2026-04-21T16:56:30.973Z</time></trkpt><trkpt lat="40.32562968587359" lon="17.773829166786285"><ele>39.0</ele><time>2026-04-21T16:56:31.973Z</time></trkpt><trkpt lat="40.32573851802005" lon="17.77361798740819"><ele>39.0</ele><time>2026-04-21T16:56:32.973Z</time></trkpt><trkpt lat="40.32584433929123" lon="17.773401695145523"><ele>38.666666666666664</ele><time>2026-04-21T16:56:33.973Z</time></trkpt><trkpt lat="40.32595102620389" lon="17.773185125596584"><ele>38.33333333333333</ele><time>2026-04-21T16:56:34.973Z</time></trkpt><trkpt lat="40.326058295634155" lon="17.772967976396885"><ele>38.0</ele><time>2026-04-21T16:56:35.973Z</time></trkpt><trkpt lat="40.32616620343249" lon="17.77275493383375"><ele>38.0</ele><time>2026-04-21T16:56:36.973Z</time></trkpt><trkpt lat="40.32627735605376" lon="17.772530078819436"><ele>38.0</ele><time>2026-04-21T16:56:37.973Z</time></trkpt><trkpt lat="40.326388337987346" lon="17.772304514919743"><ele>38.0</ele><time>2026-04-21T16:56:38.973Z</time></trkpt><trkpt lat="40.326500789849376" lon="17.772072405829963"><ele>38.0</ele><time>2026-04-21T16:56:39.973Z</time></trkpt><trkpt lat="40.326614508024086" lon="17.771845889480723"><ele>38.0</ele><time>2026-04-21T16:56:40.973Z</time></trkpt><trkpt lat="40.32672705867865" lon="17.77161877772155"><ele>38.0</ele><time>2026-04-21T16:56:41.973Z</time></trkpt><trkpt lat="40.3268365467244" lon="17.771393148795596"><ele>38.0</ele><time>2026-04-21T16:56:42.974Z</time></trkpt><trkpt lat="40.32694731994294" lon="17.771165110815126"><ele>38.0</ele><time>2026-04-21T16:56:43.974Z</time></trkpt><trkpt lat="40.327059086219485" lon="17.770943762072985"><ele>38.0</ele><time>2026-04-21T16:56:44.974Z</time></trkpt><trkpt lat="40.32717023184265" lon="17.770720667060157"><ele>38.0</ele><time>2026-04-21T16:56:45.974Z</time></trkpt><trkpt lat="40.32728323522785" lon="17.77049403508807"><ele>38.0</ele><time>2026-04-21T16:56:46.974Z</time></trkpt><trkpt lat="40.32739741315258" lon="17.770269849592747"><ele>38.0</ele><time>2026-04-21T16:56:47.974Z</time></trkpt><trkpt lat="40.32750797217535" lon="17.770042775157794"><ele>38.0</ele><time>2026-04-21T16:56:48.974Z</time></trkpt><trkpt lat="40.32761810761264" lon="17.769815441182377"><ele>38.0</ele><time>2026-04-21T16:56:49.974Z</time></trkpt><trkpt lat="40.327729344444045" lon="17.769586286146207"><ele>38.0</ele><time>2026-04-21T16:56:50.974Z</time></trkpt><trkpt lat="40.32784074617363" lon="17.76935764859557"><ele>38.666666666666664</ele><time>2026-04-21T16:56:51.975Z</time></trkpt><trkpt lat="40.32795071063774" lon="17.76912935651475"><ele>39.333333333333336</ele><time>2026-04-21T16:56:52.974Z</time></trkpt><trkpt lat="40.32806248141608" lon="17.76889959536747"><ele>40.0</ele><time>2026-04-21T16:56:53.974Z</time></trkpt><trkpt lat="40.32817065876425" lon="17.76867315028293"><ele>40.66666666666667</ele><time>2026-04-21T16:56:54.974Z</time></trkpt><trkpt lat="40.32828126592857" lon="17.768443894004292"><ele>41.333333333333336</ele><time>2026-04-21T16:56:55.974Z</time></trkpt><trkpt lat="40.328393164098756" lon="17.76822020214746"><ele>42.0</ele><time>2026-04-21T16:56:56.974Z</time></trkpt><trkpt lat="40.328506453836404" lon="17.767993821989094"><ele>42.0</ele><time>2026-04-21T16:56:57.974Z</time></trkpt><trkpt lat="40.328618074330734" lon="17.767770346044685"><ele>42.0</ele><time>2026-04-21T16:56:58.974Z</time></trkpt><trkpt lat="40.32872770263586" lon="17.767546748403515"><ele>42.0</ele><time>2026-04-21T16:56:59.974Z</time></trkpt><trkpt lat="40.328837173275325" lon="17.767323016880052"><ele>42.0</ele><time>2026-04-21T16:57:00.974Z</time></trkpt><trkpt lat="40.32894683223781" lon="17.767096105390234"><ele>42.0</ele><time>2026-04-21T16:57:01.974Z</time></trkpt><trkpt lat="40.32905698302864" lon="17.766869624993337"><ele>42.0</ele><time>2026-04-21T16:57:02.974Z</time></trkpt><trkpt lat="40.3291685676329" lon="17.76664369583911"><ele>42.333333333333336</ele><time>2026-04-21T16:57:03.974Z</time></trkpt><trkpt lat="40.32928204449201" lon="17.766416409172475"><ele>42.66666666666667</ele><time>2026-04-21T16:57:04.974Z</time></trkpt><trkpt lat="40.32939376068855" lon="17.766192791699947"><ele>43.0</ele><time>2026-04-21T16:57:05.974Z</time></trkpt><trkpt lat="40.32950626089383" lon="17.765967652875226"><ele>43.0</ele><time>2026-04-21T16:57:06.974Z</time></trkpt><trkpt lat="40.32961728169765" lon="17.76574270575012"><ele>43.0</ele><time>2026-04-21T16:57:07.974Z</time></trkpt><trkpt lat="40.329728137510614" lon="17.765520522655027"><ele>43.0</ele><time>2026-04-21T16:57:08.974Z</time></trkpt><trkpt lat="40.329838975950274" lon="17.76529529502329"><ele>43.0</ele><time>2026-04-21T16:57:09.974Z</time></trkpt><trkpt lat="40.3299517840792" lon="17.765067687274126"><ele>43.0</ele><time>2026-04-21T16:57:10.974Z</time></trkpt><trkpt lat="40.33006639647548" lon="17.76484561899684"><ele>43.0</ele><time>2026-04-21T16:57:11.974Z</time></trkpt><trkpt lat="40.33017631564574" lon="17.764620201486537"><ele>43.0</ele><time>2026-04-21T16:57:12.974Z</time></trkpt><trkpt lat="40.33028748661475" lon="17.764395070126533"><ele>43.0</ele><time>2026-04-21T16:57:13.974Z</time></trkpt><trkpt lat="40.33039828155056" lon="17.764168820742295"><ele>43.0</ele><time>2026-04-21T16:57:14.974Z</time></trkpt><trkpt lat="40.3305104414352" lon="17.76394146038599"><ele>43.66666666666667</ele><time>2026-04-21T16:57:15.974Z</time></trkpt><trkpt lat="40.33062153773915" lon="17.763714402236175"><ele>44.333333333333336</ele><time>2026-04-21T16:57:16.974Z</time></trkpt><trkpt lat="40.33073969142742" lon="17.763483883096946"><ele>45.0</ele><time>2026-04-21T16:57:17.974Z</time></trkpt><trkpt lat="40.33085097551144" lon="17.763249995855052"><ele>45.333333333333336</ele><time>2026-04-21T16:57:18.974Z</time></trkpt><trkpt lat="40.330963251392504" lon="17.763015570915368"><ele>45.66666666666667</ele><time>2026-04-21T16:57:19.974Z</time></trkpt><trkpt lat="40.331076366600854" lon="17.762788544492278"><ele>46.0</ele><time>2026-04-21T16:57:20.974Z</time></trkpt><trkpt lat="40.331187704728016" lon="17.762559521932737"><ele>46.66666666666667</ele><time>2026-04-21T16:57:21.974Z</time></trkpt><trkpt lat="40.331300097564096" lon="17.76232941101506"><ele>47.333333333333336</ele><time>2026-04-21T16:57:22.974Z</time></trkpt><trkpt lat="40.33141301592615" lon="17.76210082871772"><ele>48.0</ele><time>2026-04-21T16:57:23.974Z</time></trkpt><trkpt lat="40.33152789702271" lon="17.76187270160484"><ele>49.0</ele><time>2026-04-21T16:57:24.974Z</time></trkpt><trkpt lat="40.33163894018154" lon="17.761646936845843"><ele>50.0</ele><time>2026-04-21T16:57:25.974Z</time></trkpt><trkpt lat="40.33174913309396" lon="17.761415550764855"><ele>51.0</ele><time>2026-04-21T16:57:26.974Z</time></trkpt><trkpt lat="40.331861380082636" lon="17.76118563396967"><ele>50.66666666666667</ele><time>2026-04-21T16:57:27.974Z</time></trkpt><trkpt lat="40.33197189970127" lon="17.7609579967991"><ele>50.333333333333336</ele><time>2026-04-21T16:57:28.974Z</time></trkpt><trkpt lat="40.332085779706745" lon="17.760729865142864"><ele>50.0</ele><time>2026-04-21T16:57:29.974Z</time></trkpt><trkpt lat="40.3321981280433" lon="17.760500043675485"><ele>49.66666666666667</ele><time>2026-04-21T16:57:30.974Z</time></trkpt><trkpt lat="40.33230910431472" lon="17.76026965150747"><ele>49.33333333333333</ele><time>2026-04-21T16:57:31.974Z</time></trkpt><trkpt lat="40.33242201589833" lon="17.760041010755"><ele>49.0</ele><time>2026-04-21T16:57:32.974Z</time></trkpt><trkpt lat="40.33253518309906" lon="17.75981160797795"><ele>48.666666666666664</ele><time>2026-04-21T16:57:33.974Z</time></trkpt><trkpt lat="40.33264842302286" lon="17.759581548762263"><ele>48.33333333333333</ele><time>2026-04-21T16:57:34.974Z</time></trkpt><trkpt lat="40.332759791678654" lon="17.75934934591544"><ele>48.0</ele><time>2026-04-21T16:57:35.974Z</time></trkpt><trkpt lat="40.33287125940343" lon="17.75911863156245"><ele>48.0</ele><time>2026-04-21T16:57:36.974Z</time></trkpt><trkpt lat="40.33298201276305" lon="17.758887248923006"><ele>48.0</ele><time>2026-04-21T16:57:37.974Z</time></trkpt><trkpt lat="40.33309546979895" lon="17.75866005017682"><ele>48.0</ele><time>2026-04-21T16:57:38.974Z</time></trkpt><trkpt lat="40.33320632562676" lon="17.758435546079067"><ele>47.666666666666664</ele><time>2026-04-21T16:57:39.974Z</time></trkpt><trkpt lat="40.33331774000064" lon="17.758208414880574"><ele>47.33333333333333</ele><time>2026-04-21T16:57:40.974Z</time></trkpt><trkpt lat="40.33342918684666" lon="17.757983025105897"><ele>47.0</ele><time>2026-04-21T16:57:41.973Z</time></trkpt><trkpt lat="40.33354066819669" lon="17.757755465589597"><ele>46.666666666666664</ele><time>2026-04-21T16:57:42.973Z</time></trkpt><trkpt lat="40.333652743559846" lon="17.75752727958394"><ele>46.333333333333336</ele><time>2026-04-21T16:57:43.973Z</time></trkpt><trkpt lat="40.33376769569801" lon="17.75730620791005"><ele>46.0</ele><time>2026-04-21T16:57:44.973Z</time></trkpt><trkpt lat="40.33388328205953" lon="17.757083102574743"><ele>46.333333333333336</ele><time>2026-04-21T16:57:45.973Z</time></trkpt><trkpt lat="40.33399465913513" lon="17.756857250113715"><ele>46.666666666666664</ele><time>2026-04-21T16:57:46.973Z</time></trkpt><trkpt lat="40.3341079157986" lon="17.7566322871507"><ele>47.0</ele><time>2026-04-21T16:57:47.973Z</time></trkpt><trkpt lat="40.334219743432925" lon="17.756404701130563"><ele>47.0</ele><time>2026-04-21T16:57:48.973Z</time></trkpt><trkpt lat="40.33432806349365" lon="17.75617667315799"><ele>47.0</ele><time>2026-04-21T16:57:49.973Z</time></trkpt><trkpt lat="40.33443800304807" lon="17.7559498528848"><ele>47.0</ele><time>2026-04-21T16:57:50.973Z</time></trkpt><trkpt lat="40.33454956019349" lon="17.755727157388453"><ele>47.0</ele><time>2026-04-21T16:57:51.973Z</time></trkpt><trkpt lat="40.3346615537322" lon="17.755499113645755"><ele>47.0</ele><time>2026-04-21T16:57:52.973Z</time></trkpt><trkpt lat="40.33477375421469" lon="17.755273418280424"><ele>47.0</ele><time>2026-04-21T16:57:53.973Z</time></trkpt><trkpt lat="40.33488507937839" lon="17.755049250095112"><ele>47.0</ele><time>2026-04-21T16:57:54.973Z</time></trkpt><trkpt lat="40.3349970772832" lon="17.754825218058993"><ele>47.0</ele><time>2026-04-21T16:57:55.973Z</time></trkpt><trkpt lat="40.33510868117882" lon="17.75459841695814"><ele>47.0</ele><time>2026-04-21T16:57:56.973Z</time></trkpt><trkpt lat="40.33522057557101" lon="17.754373756124128"><ele>47.0</ele><time>2026-04-21T16:57:57.973Z</time></trkpt><trkpt lat="40.33533156557323" lon="17.7541481794851"><ele>47.0</ele><time>2026-04-21T16:57:58.973Z</time></trkpt><trkpt lat="40.33544161396928" lon="17.753922277469098"><ele>47.0</ele><time>2026-04-21T16:57:59.973Z</time></trkpt><trkpt lat="40.335555838169356" lon="17.75368790455942"><ele>46.33333333333333</ele><time>2026-04-21T16:58:00.973Z</time></trkpt><trkpt lat="40.335670174658304" lon="17.753462001718184"><ele>45.666666666666664</ele><time>2026-04-21T16:58:01.973Z</time></trkpt><trkpt lat="40.3357842570641" lon="17.753239052463524"><ele>45.0</ele><time>2026-04-21T16:58:02.973Z</time></trkpt><trkpt lat="40.3358979837681" lon="17.753016458877703"><ele>45.0</ele><time>2026-04-21T16:58:03.973Z</time></trkpt><trkpt lat="40.33600732220499" lon="17.75278756660332"><ele>45.0</ele><time>2026-04-21T16:58:04.973Z</time></trkpt><trkpt lat="40.336118688580136" lon="17.752557478379092"><ele>45.0</ele><time>2026-04-21T16:58:05.973Z</time></trkpt><trkpt lat="40.33623088326507" lon="17.752325726073384"><ele>45.333333333333336</ele><time>2026-04-21T16:58:06.973Z</time></trkpt><trkpt lat="40.336340523256176" lon="17.752095116066236"><ele>45.66666666666667</ele><time>2026-04-21T16:58:07.973Z</time></trkpt><trkpt lat="40.3364475896239" lon="17.751867780232345"><ele>46.0</ele><time>2026-04-21T16:58:08.973Z</time></trkpt><trkpt lat="40.33655407074137" lon="17.75163254341761"><ele>46.0</ele><time>2026-04-21T16:58:09.973Z</time></trkpt><trkpt lat="40.33665952108758" lon="17.75139735332652"><ele>46.0</ele><time>2026-04-21T16:58:10.973Z</time></trkpt><trkpt lat="40.33677166774587" lon="17.751169686218294"><ele>46.0</ele><time>2026-04-21T16:58:11.973Z</time></trkpt><trkpt lat="40.336885824538264" lon="17.750943188502557"><ele>46.0</ele><time>2026-04-21T16:58:12.973Z</time></trkpt><trkpt lat="40.33700202555253" lon="17.75071755853414"><ele>46.0</ele><time>2026-04-21T16:58:13.973Z</time></trkpt><trkpt lat="40.337119577665106" lon="17.7504973068335"><ele>46.0</ele><time>2026-04-21T16:58:14.973Z</time></trkpt><trkpt lat="40.33723405905467" lon="17.75027862319159"><ele>46.333333333333336</ele><time>2026-04-21T16:58:15.973Z</time></trkpt><trkpt lat="40.33734838433527" lon="17.75005361072135"><ele>46.666666666666664</ele><time>2026-04-21T16:58:16.973Z</time></trkpt><trkpt lat="40.33746041150172" lon="17.7498291650422"><ele>47.0</ele><time>2026-04-21T16:58:17.973Z</time></trkpt><trkpt lat="40.33757255900154" lon="17.7496036900799"><ele>47.0</ele><time>2026-04-21T16:58:18.973Z</time></trkpt><trkpt lat="40.3376874111402" lon="17.749375959151077"><ele>47.0</ele><time>2026-04-21T16:58:19.973Z</time></trkpt><trkpt lat="40.3378009653863" lon="17.749147828571445"><ele>47.0</ele><time>2026-04-21T16:58:20.973Z</time></trkpt><trkpt lat="40.33791717919995" lon="17.748921675258433"><ele>46.666666666666664</ele><time>2026-04-21T16:58:21.973Z</time></trkpt><trkpt lat="40.338029879073" lon="17.748693781734122"><ele>46.333333333333336</ele><time>2026-04-21T16:58:22.973Z</time></trkpt><trkpt lat="40.33814094308244" lon="17.7484630249526"><ele>46.0</ele><time>2026-04-21T16:58:23.973Z</time></trkpt><trkpt lat="40.338254372061904" lon="17.74823538002411"><ele>46.0</ele><time>2026-04-21T16:58:24.973Z</time></trkpt><trkpt lat="40.33836689085134" lon="17.748005795513286"><ele>46.0</ele><time>2026-04-21T16:58:25.973Z</time></trkpt><trkpt lat="40.33847799215916" lon="17.74777691787829"><ele>46.0</ele><time>2026-04-21T16:58:26.973Z</time></trkpt><trkpt lat="40.33858881285394" lon="17.7475480113539"><ele>46.0</ele><time>2026-04-21T16:58:27.973Z</time></trkpt><trkpt lat="40.33869919694648" lon="17.74731736507174"><ele>46.0</ele><time>2026-04-21T16:58:28.973Z</time></trkpt><trkpt lat="40.33880735548591" lon="17.74708720411685"><ele>46.0</ele><time>2026-04-21T16:58:29.973Z</time></trkpt><trkpt lat="40.338917542666884" lon="17.746857451170065"><ele>46.333333333333336</ele><time>2026-04-21T16:58:30.973Z</time></trkpt><trkpt lat="40.339028892367985" lon="17.746629768223443"><ele>46.666666666666664</ele><time>2026-04-21T16:58:31.973Z</time></trkpt><trkpt lat="40.33914261109462" lon="17.746406389466156"><ele>47.0</ele><time>2026-04-21T16:58:32.973Z</time></trkpt><trkpt lat="40.33925331422386" lon="17.74618478445429"><ele>47.0</ele><time>2026-04-21T16:58:33.973Z</time></trkpt><trkpt lat="40.33936703628617" lon="17.745959976865485"><ele>47.0</ele><time>2026-04-21T16:58:34.973Z</time></trkpt><trkpt lat="40.339480980233574" lon="17.74573632971969"><ele>47.0</ele><time>2026-04-21T16:58:35.973Z</time></trkpt><trkpt lat="40.33959476881719" lon="17.74551317462142"><ele>47.0</ele><time>2026-04-21T16:58:36.973Z</time></trkpt><trkpt lat="40.33970867206372" lon="17.745289489756825"><ele>47.0</ele><time>2026-04-21T16:58:37.973Z</time></trkpt><trkpt lat="40.33982017802479" lon="17.74506491865466"><ele>47.0</ele><time>2026-04-21T16:58:38.973Z</time></trkpt><trkpt lat="40.33993549430925" lon="17.744837681929017"><ele>46.666666666666664</ele><time>2026-04-21T16:58:39.973Z</time></trkpt><trkpt lat="40.340046396741975" lon="17.744608923246997"><ele>46.333333333333336</ele><time>2026-04-21T16:58:40.973Z</time></trkpt><trkpt lat="40.34016097316731" lon="17.744380096830405"><ele>46.0</ele><time>2026-04-21T16:58:41.973Z</time></trkpt><trkpt lat="40.34027626122339" lon="17.744153137809217"><ele>46.0</ele><time>2026-04-21T16:58:42.973Z</time></trkpt><trkpt lat="40.34039142713683" lon="17.743926330165202"><ele>46.0</ele><time>2026-04-21T16:58:43.973Z</time></trkpt><trkpt lat="40.340504222758575" lon="17.743699584121952"><ele>46.0</ele><time>2026-04-21T16:58:44.973Z</time></trkpt><trkpt lat="40.34061510020457" lon="17.74347314196983"><ele>46.0</ele><time>2026-04-21T16:58:45.973Z</time></trkpt><trkpt lat="40.340729271265054" lon="17.743245821462438"><ele>46.0</ele><time>2026-04-21T16:58:46.973Z</time></trkpt><trkpt lat="40.34083987901329" lon="17.743016788407353"><ele>46.0</ele><time>2026-04-21T16:58:47.973Z</time></trkpt><trkpt lat="40.340947733863686" lon="17.742789409995545"><ele>46.333333333333336</ele><time>2026-04-21T16:58:48.974Z</time></trkpt><trkpt lat="40.34105551256745" lon="17.742562505562734"><ele>46.666666666666664</ele><time>2026-04-21T16:58:49.974Z</time></trkpt><trkpt lat="40.341166316790364" lon="17.7423356880879"><ele>47.0</ele><time>2026-04-21T16:58:50.974Z</time></trkpt><trkpt lat="40.34128007714108" lon="17.742115442519925"><ele>47.0</ele><time>2026-04-21T16:58:51.974Z</time></trkpt><trkpt lat="40.341389915077364" lon="17.74188691669031"><ele>47.0</ele><time>2026-04-21T16:58:52.974Z</time></trkpt><trkpt lat="40.34149849266399" lon="17.741655561427944"><ele>47.0</ele><time>2026-04-21T16:58:53.974Z</time></trkpt><trkpt lat="40.341608812130545" lon="17.741424888995617"><ele>47.0</ele><time>2026-04-21T16:58:54.974Z</time></trkpt><trkpt lat="40.341721319333956" lon="17.741195632747107"><ele>47.0</ele><time>2026-04-21T16:58:55.974Z</time></trkpt><trkpt lat="40.341831515206735" lon="17.740966564728357"><ele>47.0</ele><time>2026-04-21T16:58:56.974Z</time></trkpt><trkpt lat="40.3419412701149" lon="17.740735579770984"><ele>47.0</ele><time>2026-04-21T16:58:57.974Z</time></trkpt><trkpt lat="40.3420561940124" lon="17.740507979676845"><ele>47.0</ele><time>2026-04-21T16:58:58.974Z</time></trkpt><trkpt lat="40.34216741325232" lon="17.740280375799905"><ele>47.0</ele><time>2026-04-21T16:58:59.974Z</time></trkpt><trkpt lat="40.34227836034163" lon="17.740048133913852"><ele>47.0</ele><time>2026-04-21T16:59:00.974Z</time></trkpt><trkpt lat="40.34239112948843" lon="17.739819727818187"><ele>47.0</ele><time>2026-04-21T16:59:01.974Z</time></trkpt><trkpt lat="40.34250519825678" lon="17.73959203169522"><ele>47.0</ele><time>2026-04-21T16:59:02.974Z</time></trkpt><trkpt lat="40.342623874708984" lon="17.73936493148798"><ele>47.0</ele><time>2026-04-21T16:59:03.974Z</time></trkpt><trkpt lat="40.34274867608331" lon="17.73914410388455"><ele>47.0</ele><time>2026-04-21T16:59:04.974Z</time></trkpt><trkpt lat="40.342866411985014" lon="17.738930493378284"><ele>47.0</ele><time>2026-04-21T16:59:05.974Z</time></trkpt><trkpt lat="40.34297413617354" lon="17.738729116574508"><ele>47.666666666666664</ele><time>2026-04-21T16:59:06.974Z</time></trkpt><trkpt lat="40.34306345820944" lon="17.738549104860173"><ele>48.33333333333333</ele><time>2026-04-21T16:59:07.974Z</time></trkpt><trkpt lat="40.343130064466756" lon="17.738377896398188"><ele>49.0</ele><time>2026-04-21T16:59:08.974Z</time></trkpt><trkpt lat="40.3432103382039" lon="17.738199898700277"><ele>49.0</ele><time>2026-04-21T16:59:09.974Z</time></trkpt><trkpt lat="40.34329359625116" lon="17.73801800917404"><ele>49.0</ele><time>2026-04-21T16:59:10.974Z</time></trkpt><trkpt lat="40.34337842684939" lon="17.737835241075256"><ele>49.0</ele><time>2026-04-21T16:59:11.974Z</time></trkpt><trkpt lat="40.343466697678096" lon="17.73765998310974"><ele>50.33333333333333</ele><time>2026-04-21T16:59:12.974Z</time></trkpt><trkpt lat="40.343548721233674" lon="17.737482655834395"><ele>51.66666666666667</ele><time>2026-04-21T16:59:13.974Z</time></trkpt><trkpt lat="40.34363131507407" lon="17.737296265335154"><ele>53.0</ele><time>2026-04-21T16:59:14.974Z</time></trkpt><trkpt lat="40.34372522897177" lon="17.7371061075664"><ele>53.0</ele><time>2026-04-21T16:59:15.974Z</time></trkpt><trkpt lat="40.343810025508205" lon="17.736925660369828"><ele>53.0</ele><time>2026-04-21T16:59:16.974Z</time></trkpt><trkpt lat="40.3439000242723" lon="17.736744958029757"><ele>53.0</ele><time>2026-04-21T16:59:17.974Z</time></trkpt><trkpt lat="40.3439866105075" lon="17.73657432068107"><ele>53.0</ele><time>2026-04-21T16:59:18.974Z</time></trkpt><trkpt lat="40.344068556802775" lon="17.73640829418568"><ele>53.0</ele><time>2026-04-21T16:59:19.973Z</time></trkpt><trkpt lat="40.34414464008822" lon="17.73625522708171"><ele>53.0</ele><time>2026-04-21T16:59:20.973Z</time></trkpt><trkpt lat="40.34421876746219" lon="17.736104429808655"><ele>53.0</ele><time>2026-04-21T16:59:21.973Z</time></trkpt><trkpt lat="40.34429526596841" lon="17.735955939584585"><ele>53.0</ele><time>2026-04-21T16:59:22.973Z</time></trkpt><trkpt lat="40.34436818527569" lon="17.735806059522663"><ele>53.0</ele><time>2026-04-21T16:59:23.973Z</time></trkpt><trkpt lat="40.34444110762786" lon="17.73564942523777"><ele>53.0</ele><time>2026-04-21T16:59:24.973Z</time></trkpt><trkpt lat="40.344519914830435" lon="17.73548860240033"><ele>53.0</ele><time>2026-04-21T16:59:25.973Z</time></trkpt><trkpt lat="40.344607751839845" lon="17.73532733865677"><ele>52.5</ele><time>2026-04-21T16:59:26.973Z</time></trkpt><trkpt lat="40.34468382241327" lon="17.735177440695818"><ele>52.0</ele><time>2026-04-21T16:59:27.973Z</time></trkpt><trkpt lat="40.34475926410501" lon="17.735025946961223"><ele>51.5</ele><time>2026-04-21T16:59:28.973Z</time></trkpt><trkpt lat="40.3448341315655" lon="17.734878818712126"><ele>51.0</ele><time>2026-04-21T16:59:29.973Z</time></trkpt><trkpt lat="40.34491085392835" lon="17.734738463037615"><ele>52.0</ele><time>2026-04-21T16:59:30.973Z</time></trkpt><trkpt lat="40.34498361134431" lon="17.73460104712085"><ele>53.0</ele><time>2026-04-21T16:59:31.973Z</time></trkpt><trkpt lat="40.345050901401144" lon="17.734470065172196"><ele>54.0</ele><time>2026-04-21T16:59:32.973Z</time></trkpt><trkpt lat="40.345113879913505" lon="17.73433519662729"><ele>55.0</ele><time>2026-04-21T16:59:33.973Z</time></trkpt><trkpt lat="40.34517550284849" lon="17.734190138488852"><ele>55.25</ele><time>2026-04-21T16:59:34.973Z</time></trkpt><trkpt lat="40.34523813200268" lon="17.73404328233456"><ele>55.5</ele><time>2026-04-21T16:59:35.973Z</time></trkpt><trkpt lat="40.34530607226384" lon="17.73390400312342"><ele>55.75</ele><time>2026-04-21T16:59:36.973Z</time></trkpt><trkpt lat="40.345367773151544" lon="17.733762960535636"><ele>56.0</ele><time>2026-04-21T16:59:37.973Z</time></trkpt><trkpt lat="40.34543485807832" lon="17.733613618052736"><ele>55.75</ele><time>2026-04-21T16:59:38.973Z</time></trkpt><trkpt lat="40.34550689840955" lon="17.733457096825287"><ele>55.5</ele><time>2026-04-21T16:59:39.973Z</time></trkpt><trkpt lat="40.34558352094181" lon="17.733305429283906"><ele>55.25</ele><time>2026-04-21T16:59:40.973Z</time></trkpt><trkpt lat="40.345661644599566" lon="17.733153194818808"><ele>55.0</ele><time>2026-04-21T16:59:41.973Z</time></trkpt><trkpt lat="40.34574074851187" lon="17.733004163659402"><ele>55.5</ele><time>2026-04-21T16:59:42.973Z</time></trkpt><trkpt lat="40.345816764320844" lon="17.732863366155005"><ele>56.0</ele><time>2026-04-21T16:59:43.973Z</time></trkpt><trkpt lat="40.345884388226104" lon="17.732732992693744"><ele>56.5</ele><time>2026-04-21T16:59:44.973Z</time></trkpt><trkpt lat="40.345946189817646" lon="17.732603658531584"><ele>57.0</ele><time>2026-04-21T16:59:45.973Z</time></trkpt><trkpt lat="40.34599983818235" lon="17.73248954440619"><ele>57.166666666666664</ele><time>2026-04-21T16:59:46.973Z</time></trkpt><trkpt lat="40.34605541146039" lon="17.732387662308103"><ele>57.33333333333333</ele><time>2026-04-21T16:59:47.973Z</time></trkpt><trkpt lat="40.34611346190306" lon="17.732286951036283"><ele>57.5</ele><time>2026-04-21T16:59:48.973Z</time></trkpt><trkpt lat="40.34615565153973" lon="17.732203225303618"><ele>57.666666666666664</ele><time>2026-04-21T16:59:49.973Z</time></trkpt><trkpt lat="40.34619206120886" lon="17.732116808917908"><ele>57.83333333333333</ele><time>2026-04-21T16:59:50.973Z</time></trkpt><trkpt lat="40.346244271447254" lon="17.732026056062274"><ele>58.0</ele><time>2026-04-21T16:59:51.973Z</time></trkpt><trkpt lat="40.346292150139355" lon="17.73194424528366"><ele>57.99999999999999</ele><time>2026-04-21T16:59:52.973Z</time></trkpt><trkpt lat="40.34632017681714" lon="17.73187016860962"><ele>58.0</ele><time>2026-04-21T16:59:53.973Z</time></trkpt><trkpt lat="40.34636182152513" lon="17.73177942332934"><ele>58.0</ele><time>2026-04-21T16:59:54.973Z</time></trkpt><trkpt lat="40.346398367013094" lon="17.731686356177093"><ele>58.0</ele><time>2026-04-21T16:59:55.973Z</time></trkpt><trkpt lat="40.34644685892026" lon="17.731571829081116"><ele>57.99999999999999</ele><time>2026-04-21T16:59:56.973Z</time></trkpt><trkpt lat="40.346506500847035" lon="17.73146974195379"><ele>58.0</ele><time>2026-04-21T16:59:57.973Z</time></trkpt><trkpt lat="40.34656712653553" lon="17.731365859409188"><ele>58.0</ele><time>2026-04-21T16:59:58.973Z</time></trkpt><trkpt lat="40.346628951177834" lon="17.731262189644053"><ele>58.0</ele><time>2026-04-21T16:59:59.973Z</time></trkpt><trkpt lat="40.3466895648741" lon="17.73115148042116"><ele>58.0</ele><time>2026-04-21T17:00:00.973Z</time></trkpt><trkpt lat="40.3467474925203" lon="17.731038178108296"><ele>58.0</ele><time>2026-04-21T17:00:01.973Z</time></trkpt><trkpt lat="40.34679337424675" lon="17.730931218050767"><ele>58.0</ele><time>2026-04-21T17:00:02.973Z</time></trkpt><trkpt lat="40.34683584497311" lon="17.73082716877118"><ele>57.99999999999999</ele><time>2026-04-21T17:00:03.973Z</time></trkpt><trkpt lat="40.34688326898523" lon="17.730737151042025"><ele>58.0</ele><time>2026-04-21T17:00:04.973Z</time></trkpt><trkpt lat="40.34692606653993" lon="17.730643765686736"><ele>58.0</ele><time>2026-04-21T17:00:05.973Z</time></trkpt><trkpt lat="40.346968122151765" lon="17.730551878694513"><ele>58.0</ele><time>2026-04-21T17:00:06.973Z</time></trkpt><trkpt lat="40.34701214335482" lon="17.730476145597592"><ele>57.99999999999999</ele><time>2026-04-21T17:00:07.973Z</time></trkpt><trkpt lat="40.34704877465095" lon="17.730392186690807"><ele>58.0</ele><time>2026-04-21T17:00:09.973Z</time></trkpt><trkpt lat="40.34707987514797" lon="17.730299071340035"><ele>58.166666666666664</ele><time>2026-04-21T17:00:11.973Z</time></trkpt><trkpt lat="40.347107092861854" lon="17.73020134207113"><ele>58.33333333333333</ele><time>2026-04-21T17:00:13.973Z</time></trkpt><trkpt lat="40.3471476405719" lon="17.730084560389436"><ele>58.5</ele><time>2026-04-21T17:00:14.973Z</time></trkpt><trkpt lat="40.347215140604625" lon="17.729978207642997"><ele>58.66666666666667</ele><time>2026-04-21T17:00:15.973Z</time></trkpt><trkpt lat="40.347264302373496" lon="17.729900846430205"><ele>58.833333333333336</ele><time>2026-04-21T17:00:16.973Z</time></trkpt><trkpt lat="40.34730253776734" lon="17.729830179360413"><ele>59.0</ele><time>2026-04-21T17:00:17.973Z</time></trkpt><trkpt lat="40.347350274863224" lon="17.729748378683013"><ele>59.0</ele><time>2026-04-21T17:00:18.973Z</time></trkpt><trkpt lat="40.347394151214715" lon="17.729654433479364"><ele>59.00000000000001</ele><time>2026-04-21T17:00:19.973Z</time></trkpt><trkpt lat="40.34742575354489" lon="17.729551529221713"><ele>59.00000000000001</ele><time>2026-04-21T17:00:20.973Z</time></trkpt><trkpt lat="40.34745529253544" lon="17.72944784539383"><ele>59.0</ele><time>2026-04-21T17:00:21.973Z</time></trkpt><trkpt lat="40.34747371756783" lon="17.72934440331726"><ele>59.0</ele><time>2026-04-21T17:00:22.973Z</time></trkpt><trkpt lat="40.34746594630617" lon="17.72917742453835"><ele>59.5</ele><time>2026-04-21T17:00:24.973Z</time></trkpt><trkpt lat="40.34746390714768" lon="17.729087860817128"><ele>60.0</ele><time>2026-04-21T17:00:25.973Z</time></trkpt><trkpt lat="40.348193415493874" lon="17.729896404826867"><ele>60.0</ele><time>2026-04-21T17:00:27.973Z</time></trkpt><trkpt lat="40.348295017537865" lon="17.729915107852754"><ele>60.0</ele><time>2026-04-21T17:00:28.973Z</time></trkpt><trkpt lat="40.34838562419735" lon="17.729932351724525"><ele>60.0</ele><time>2026-04-21T17:00:29.973Z</time></trkpt><trkpt lat="40.34847243969582" lon="17.729951896087798"><ele>60.0</ele><time>2026-04-21T17:00:30.973Z</time></trkpt><trkpt lat="40.348554244289275" lon="17.72995721600688"><ele>60.0</ele><time>2026-04-21T17:00:31.973Z</time></trkpt><trkpt lat="40.34862170943891" lon="17.729980060314958"><ele>60.0</ele><time>2026-04-21T17:00:32.973Z</time></trkpt><trkpt lat="40.3486981197592" lon="17.72999026575588"><ele>60.0</ele><time>2026-04-21T17:00:33.973Z</time></trkpt><trkpt lat="40.34881365280875" lon="17.73001916262614"><ele>60.0</ele><time>2026-04-21T17:00:35.973Z</time></trkpt><trkpt lat="40.3489096725109" lon="17.730047122899617"><ele>60.0</ele><time>2026-04-21T17:00:37.973Z</time></trkpt><trkpt lat="40.34901070356575" lon="17.730064861123"><ele>60.0</ele><time>2026-04-21T17:00:39.973Z</time></trkpt><trkpt lat="40.34913486053379" lon="17.73009023333601"><ele>60.0</ele><time>2026-04-21T17:00:41.973Z</time></trkpt><trkpt lat="40.349249174969124" lon="17.730090093876612"><ele>60.0</ele><time>2026-04-21T17:00:43.973Z</time></trkpt><trkpt lat="40.34931824214556" lon="17.730106380782733"><ele>60.0</ele><time>2026-04-21T17:00:44.973Z</time></trkpt><trkpt lat="40.3493955904231" lon="17.730124183017676"><ele>60.0</ele><time>2026-04-21T17:00:45.973Z</time></trkpt><trkpt lat="40.349471221001714" lon="17.730137518214047"><ele>60.0</ele><time>2026-04-21T17:00:46.973Z</time></trkpt><trkpt lat="40.349585696864835" lon="17.73017693346373"><ele>60.0</ele><time>2026-04-21T17:00:48.973Z</time></trkpt><trkpt lat="40.349688888520085" lon="17.730198229029096"><ele>60.0</ele><time>2026-04-21T17:00:50.973Z</time></trkpt><trkpt lat="40.34981995497391" lon="17.730209278936776"><ele>60.0</ele><time>2026-04-21T17:00:52.973Z</time></trkpt><trkpt lat="40.34991400366386" lon="17.730219758663242"><ele>60.0</ele><time>2026-04-21T17:00:53.973Z</time></trkpt><trkpt lat="40.35001554027811" lon="17.730229635667964"><ele>60.0</ele><time>2026-04-21T17:00:54.973Z</time></trkpt><trkpt lat="40.350148874724006" lon="17.73025786785775"><ele>60.0</ele><time>2026-04-21T17:00:55.973Z</time></trkpt><trkpt lat="40.35028998365856" lon="17.730285527705938"><ele>59.6</ele><time>2026-04-21T17:00:56.973Z</time></trkpt><trkpt lat="40.35040231038322" lon="17.730310697230106"><ele>59.2</ele><time>2026-04-21T17:00:57.974Z</time></trkpt><trkpt lat="40.35049027940845" lon="17.730315325640664"><ele>58.8</ele><time>2026-04-21T17:00:58.973Z</time></trkpt><trkpt lat="40.35057673353181" lon="17.730330790439425"><ele>58.4</ele><time>2026-04-21T17:00:59.973Z</time></trkpt><trkpt lat="40.35066045734579" lon="17.730350849848495"><ele>58.0</ele><time>2026-04-21T17:01:00.974Z</time></trkpt><trkpt lat="40.3507475109745" lon="17.730368865058765"><ele>58.00000000000001</ele><time>2026-04-21T17:01:01.973Z</time></trkpt><trkpt lat="40.35082862287041" lon="17.730384746393174"><ele>58.0</ele><time>2026-04-21T17:01:02.973Z</time></trkpt><trkpt lat="40.350903550519455" lon="17.730398741103738"><ele>58.00000000000001</ele><time>2026-04-21T17:01:03.974Z</time></trkpt><trkpt lat="40.350966912857295" lon="17.73041690517012"><ele>58.00000000000001</ele><time>2026-04-21T17:01:04.973Z</time></trkpt><trkpt lat="40.35104111760979" lon="17.73042101383322"><ele>58.0</ele><time>2026-04-21T17:01:06.973Z</time></trkpt><trkpt lat="40.35110387780584" lon="17.730408817314544"><ele>58.00000000000001</ele><time>2026-04-21T17:01:10.973Z</time></trkpt><trkpt lat="40.351123709766426" lon="17.73032916263069"><ele>58.00000000000001</ele><time>2026-04-21T17:01:15.973Z</time></trkpt><trkpt lat="40.351084278709095" lon="17.73014582508293"><ele>58.0</ele><time>2026-04-21T17:01:17.973Z</time></trkpt><trkpt lat="40.35106128071676" lon="17.73003526708937"><ele>58.0</ele><time>2026-04-21T17:01:18.973Z</time></trkpt><trkpt lat="40.35103009543475" lon="17.729912921247088"><ele>58.0</ele><time>2026-04-21T17:01:19.973Z</time></trkpt><trkpt lat="40.35100046641081" lon="17.72979167228256"><ele>58.0</ele><time>2026-04-21T17:01:20.973Z</time></trkpt><trkpt lat="40.35097416608049" lon="17.7296677399183"><ele>58.0</ele><time>2026-04-21T17:01:21.973Z</time></trkpt><trkpt lat="40.35096780698892" lon="17.729545987202254"><ele>58.0</ele><time>2026-04-21T17:01:22.973Z</time></trkpt><trkpt lat="40.35095559412991" lon="17.72939443253793"><ele>58.0</ele><time>2026-04-21T17:01:23.973Z</time></trkpt><trkpt lat="40.3509439355867" lon="17.729202761256573"><ele>58.0</ele><time>2026-04-21T17:01:24.973Z</time></trkpt><trkpt lat="40.35094796212793" lon="17.728981294345502"><ele>58.0</ele><time>2026-04-21T17:01:25.973Z</time></trkpt><trkpt lat="40.35095584034891" lon="17.728790765851564"><ele>58.166666666666664</ele><time>2026-04-21T17:01:26.973Z</time></trkpt><trkpt lat="40.35095444130454" lon="17.728640497084864"><ele>58.33333333333333</ele><time>2026-04-21T17:01:27.973Z</time></trkpt><trkpt lat="40.35095737735156" lon="17.72852394435813"><ele>58.5</ele><time>2026-04-21T17:01:28.973Z</time></trkpt><trkpt lat="40.350952708974084" lon="17.728424647730677"><ele>58.66666666666667</ele><time>2026-04-21T17:01:29.973Z</time></trkpt><trkpt lat="40.350957287677204" lon="17.728320467927677"><ele>58.833333333333336</ele><time>2026-04-21T17:01:30.973Z</time></trkpt><trkpt lat="40.35095345343502" lon="17.728221095650163"><ele>59.0</ele><time>2026-04-21T17:01:31.973Z</time></trkpt><trkpt lat="40.3509520168123" lon="17.728123186878282"><ele>59.16666666666667</ele><time>2026-04-21T17:01:32.973Z</time></trkpt><trkpt lat="40.35095524765172" lon="17.728032200692827"><ele>59.333333333333336</ele><time>2026-04-21T17:01:33.973Z</time></trkpt><trkpt lat="40.35095512190662" lon="17.72792302783012"><ele>59.5</ele><time>2026-04-21T17:01:35.973Z</time></trkpt><trkpt lat="40.35094342556468" lon="17.72783219494556"><ele>59.66666666666667</ele><time>2026-04-21T17:01:47.973Z</time></trkpt><trkpt lat="40.3509353165096" lon="17.727740557115816"><ele>59.833333333333336</ele><time>2026-04-21T17:01:50.973Z</time></trkpt><trkpt lat="40.350924830999574" lon="17.727573675826275"><ele>60.0</ele><time>2026-04-21T17:01:53.973Z</time></trkpt><trkpt lat="40.35092752889039" lon="17.727486579380802"><ele>60.0</ele><time>2026-04-21T17:01:54.973Z</time></trkpt><trkpt lat="40.35092312088223" lon="17.72735870503935"><ele>60.0</ele><time>2026-04-21T17:01:56.973Z</time></trkpt><trkpt lat="40.350918690888705" lon="17.727208707180065"><ele>60.0</ele><time>2026-04-21T17:01:58.973Z</time></trkpt><trkpt lat="40.3509130340764" lon="17.727095256327214"><ele>60.0</ele><time>2026-04-21T17:01:59.973Z</time></trkpt><trkpt lat="40.350905566650994" lon="17.7269436483038"><ele>60.0</ele><time>2026-04-21T17:02:00.973Z</time></trkpt><trkpt lat="40.350906861348484" lon="17.726783627921918"><ele>60.2</ele><time>2026-04-21T17:02:01.973Z</time></trkpt><trkpt lat="40.350905776374205" lon="17.726682112712474"><ele>60.4</ele><time>2026-04-21T17:02:02.973Z</time></trkpt><trkpt lat="40.350911270282154" lon="17.72658100987058"><ele>60.599999999999994</ele><time>2026-04-21T17:02:04.973Z</time></trkpt><trkpt lat="40.35094688786341" lon="17.726497805705076"><ele>60.8</ele><time>2026-04-21T17:02:10.973Z</time></trkpt><trkpt lat="40.350931175522476" lon="17.726305259683432"><ele>61.0</ele><time>2026-04-21T17:02:12.973Z</time></trkpt><trkpt lat="40.35092312945558" lon="17.726185631426908"><ele>61.0</ele><time>2026-04-21T17:02:13.973Z</time></trkpt><trkpt lat="40.350919165782656" lon="17.726070980217404"><ele>61.0</ele><time>2026-04-21T17:02:14.973Z</time></trkpt><trkpt lat="40.35090842776729" lon="17.725932062911998"><ele>61.0</ele><time>2026-04-21T17:02:15.973Z</time></trkpt><trkpt lat="40.35089971859576" lon="17.72576550846726"><ele>61.0</ele><time>2026-04-21T17:02:16.973Z</time></trkpt><trkpt lat="40.35088735892394" lon="17.725578739761186"><ele>61.0</ele><time>2026-04-21T17:02:17.973Z</time></trkpt><trkpt lat="40.350881373403865" lon="17.72538004343252"><ele>61.0</ele><time>2026-04-21T17:02:18.973Z</time></trkpt><trkpt lat="40.35086873849645" lon="17.725203828654674"><ele>61.0</ele><time>2026-04-21T17:02:19.973Z</time></trkpt><trkpt lat="40.35085987323548" lon="17.72502854393793"><ele>61.0</ele><time>2026-04-21T17:02:20.973Z</time></trkpt><trkpt lat="40.35086901210708" lon="17.72485506909662"><ele>61.0</ele><time>2026-04-21T17:02:21.973Z</time></trkpt><trkpt lat="40.350869866128775" lon="17.72470208705308"><ele>61.0</ele><time>2026-04-21T17:02:22.973Z</time></trkpt><trkpt lat="40.350873627650984" lon="17.724547793560895"><ele>61.0</ele><time>2026-04-21T17:02:23.973Z</time></trkpt><trkpt lat="40.35088340779114" lon="17.724398984082843"><ele>61.0</ele><time>2026-04-21T17:02:24.973Z</time></trkpt><trkpt lat="40.35088742850621" lon="17.724263286542467"><ele>60.8</ele><time>2026-04-21T17:02:25.973Z</time></trkpt><trkpt lat="40.350905451507245" lon="17.724139321581795"><ele>60.599999999999994</ele><time>2026-04-21T17:02:26.973Z</time></trkpt><trkpt lat="40.350920006934885" lon="17.724011949005785"><ele>60.4</ele><time>2026-04-21T17:02:27.973Z</time></trkpt><trkpt lat="40.350931328727334" lon="17.72386292398615"><ele>60.2</ele><time>2026-04-21T17:02:28.973Z</time></trkpt><trkpt lat="40.350952930205395" lon="17.723689740400697"><ele>60.0</ele><time>2026-04-21T17:02:29.973Z</time></trkpt><trkpt lat="40.350981638657515" lon="17.723505917186266"><ele>59.66666666666667</ele><time>2026-04-21T17:02:30.973Z</time></trkpt><trkpt lat="40.35102763093542" lon="17.723302401520222"><ele>59.333333333333336</ele><time>2026-04-21T17:02:31.973Z</time></trkpt><trkpt lat="40.35108673705051" lon="17.723076563113104"><ele>59.0</ele><time>2026-04-21T17:02:32.973Z</time></trkpt><trkpt lat="40.35115622557004" lon="17.72283831639939"><ele>58.66666666666667</ele><time>2026-04-21T17:02:33.973Z</time></trkpt><trkpt lat="40.351239158066704" lon="17.722593815234447"><ele>58.33333333333333</ele><time>2026-04-21T17:02:34.973Z</time></trkpt><trkpt lat="40.3513405404471" lon="17.722348829094685"><ele>58.0</ele><time>2026-04-21T17:02:35.973Z</time></trkpt><trkpt lat="40.351464091235805" lon="17.722103933828222"><ele>57.5</ele><time>2026-04-21T17:02:36.973Z</time></trkpt><trkpt lat="40.351599926110126" lon="17.72185202858208"><ele>57.0</ele><time>2026-04-21T17:02:37.973Z</time></trkpt><trkpt lat="40.351745380415785" lon="17.721595154499358"><ele>57.0</ele><time>2026-04-21T17:02:38.973Z</time></trkpt><trkpt lat="40.351896226224156" lon="17.721323930646648"><ele>57.0</ele><time>2026-04-21T17:02:39.973Z</time></trkpt><trkpt lat="40.35204647239731" lon="17.721050728202798"><ele>57.5</ele><time>2026-04-21T17:02:40.973Z</time></trkpt><trkpt lat="40.35219760689875" lon="17.72078232437608"><ele>58.0</ele><time>2026-04-21T17:02:41.973Z</time></trkpt><trkpt lat="40.352344957192514" lon="17.72050787946779"><ele>58.0</ele><time>2026-04-21T17:02:42.973Z</time></trkpt><trkpt lat="40.35249628548604" lon="17.720237528255453"><ele>58.0</ele><time>2026-04-21T17:02:43.973Z</time></trkpt><trkpt lat="40.352642542813555" lon="17.719971577082916"><ele>59.5</ele><time>2026-04-21T17:02:44.973Z</time></trkpt><trkpt lat="40.35278275171912" lon="17.71970678210582"><ele>61.0</ele><time>2026-04-21T17:02:45.973Z</time></trkpt><trkpt lat="40.35292364557202" lon="17.719444920747673"><ele>60.5</ele><time>2026-04-21T17:02:46.972Z</time></trkpt><trkpt lat="40.353059857260874" lon="17.719189601934662"><ele>60.0</ele><time>2026-04-21T17:02:47.972Z</time></trkpt><trkpt lat="40.35318485258307" lon="17.718952889834235"><ele>60.0</ele><time>2026-04-21T17:02:48.972Z</time></trkpt><trkpt lat="40.35330817213233" lon="17.718723429402363"><ele>60.0</ele><time>2026-04-21T17:02:49.972Z</time></trkpt><trkpt lat="40.35343427487734" lon="17.71849803322551"><ele>60.0</ele><time>2026-04-21T17:02:50.972Z</time></trkpt><trkpt lat="40.35356376087183" lon="17.718275603852444"><ele>60.66666666666667</ele><time>2026-04-21T17:02:51.972Z</time></trkpt><trkpt lat="40.35370073810746" lon="17.718064884265186"><ele>61.333333333333336</ele><time>2026-04-21T17:02:52.972Z</time></trkpt><trkpt lat="40.353847867046376" lon="17.717867338331505"><ele>62.0</ele><time>2026-04-21T17:02:53.972Z</time></trkpt><trkpt lat="40.35400621152105" lon="17.7176819376218"><ele>62.333333333333336</ele><time>2026-04-21T17:02:54.972Z</time></trkpt><trkpt lat="40.35417072828353" lon="17.717507728801845"><ele>62.66666666666667</ele><time>2026-04-21T17:02:55.972Z</time></trkpt><trkpt lat="40.354344282742375" lon="17.717341995502636"><ele>63.0</ele><time>2026-04-21T17:02:56.972Z</time></trkpt><trkpt lat="40.354521167171" lon="17.717187382521942"><ele>63.0</ele><time>2026-04-21T17:02:57.972Z</time></trkpt><trkpt lat="40.35470148006212" lon="17.7170269281481"><ele>63.0</ele><time>2026-04-21T17:02:58.972Z</time></trkpt><trkpt lat="40.35487628834156" lon="17.71686632944122"><ele>63.0</ele><time>2026-04-21T17:02:59.972Z</time></trkpt><trkpt lat="40.35505519014329" lon="17.71671033866559"><ele>63.0</ele><time>2026-04-21T17:03:00.973Z</time></trkpt><trkpt lat="40.35522883706818" lon="17.716544040041164"><ele>63.0</ele><time>2026-04-21T17:03:01.973Z</time></trkpt><trkpt lat="40.35541121244639" lon="17.716380948910025"><ele>63.0</ele><time>2026-04-21T17:03:02.973Z</time></trkpt><trkpt lat="40.35558642100583" lon="17.71621857249884"><ele>63.0</ele><time>2026-04-21T17:03:03.973Z</time></trkpt><trkpt lat="40.35576306898796" lon="17.716055959406958"><ele>63.0</ele><time>2026-04-21T17:03:04.973Z</time></trkpt><trkpt lat="40.355938523882976" lon="17.715890016471153"><ele>63.0</ele><time>2026-04-21T17:03:05.973Z</time></trkpt><trkpt lat="40.356119061021886" lon="17.715727165410062"><ele>63.0</ele><time>2026-04-21T17:03:06.974Z</time></trkpt><trkpt lat="40.3562942678081" lon="17.715563641732246"><ele>63.0</ele><time>2026-04-21T17:03:07.973Z</time></trkpt><trkpt lat="40.356474148159705" lon="17.715406183731687"><ele>63.0</ele><time>2026-04-21T17:03:08.973Z</time></trkpt><trkpt lat="40.356653264670655" lon="17.715244344661944"><ele>63.0</ele><time>2026-04-21T17:03:09.973Z</time></trkpt><trkpt lat="40.3568298814385" lon="17.71508314592545"><ele>63.0</ele><time>2026-04-21T17:03:10.973Z</time></trkpt><trkpt lat="40.35700702600026" lon="17.714918675575717"><ele>63.0</ele><time>2026-04-21T17:03:11.973Z</time></trkpt><trkpt lat="40.3571769860585" lon="17.714764165935843"><ele>63.66666666666667</ele><time>2026-04-21T17:03:12.973Z</time></trkpt><trkpt lat="40.3573233752231" lon="17.714618447654132"><ele>64.33333333333334</ele><time>2026-04-21T17:03:13.973Z</time></trkpt><trkpt lat="40.35745651436577" lon="17.71447893044674"><ele>65.0</ele><time>2026-04-21T17:03:14.973Z</time></trkpt><trkpt lat="40.35757528853013" lon="17.71433353123924"><ele>65.0</ele><time>2026-04-21T17:03:15.973Z</time></trkpt><trkpt lat="40.35767624223585" lon="17.71420555390293"><ele>65.0</ele><time>2026-04-21T17:03:16.973Z</time></trkpt><trkpt lat="40.35778140320748" lon="17.714105705364908"><ele>65.0</ele><time>2026-04-21T17:03:17.973Z</time></trkpt><trkpt lat="40.357918887652296" lon="17.714021287345926"><ele>65.0</ele><time>2026-04-21T17:03:18.973Z</time></trkpt><trkpt lat="40.35807859727801" lon="17.71394883888513"><ele>64.66666666666667</ele><time>2026-04-21T17:03:19.973Z</time></trkpt><trkpt lat="40.358243973537725" lon="17.71384289032763"><ele>64.33333333333333</ele><time>2026-04-21T17:03:20.973Z</time></trkpt><trkpt lat="40.35840004966438" lon="17.713704392463956"><ele>64.0</ele><time>2026-04-21T17:03:21.973Z</time></trkpt><trkpt lat="40.3585704453039" lon="17.7135801116375"><ele>64.0</ele><time>2026-04-21T17:03:22.973Z</time></trkpt><trkpt lat="40.35874682654289" lon="17.71343819152458"><ele>64.0</ele><time>2026-04-21T17:03:23.973Z</time></trkpt><trkpt lat="40.35892062357517" lon="17.71327622686976"><ele>64.0</ele><time>2026-04-21T17:03:24.973Z</time></trkpt><trkpt lat="40.35909243147671" lon="17.713096262025275"><ele>64.0</ele><time>2026-04-21T17:03:25.973Z</time></trkpt><trkpt lat="40.35926179906135" lon="17.712908993335194"><ele>64.0</ele><time>2026-04-21T17:03:26.973Z</time></trkpt><trkpt lat="40.359428956880954" lon="17.71271772365386"><ele>64.0</ele><time>2026-04-21T17:03:27.973Z</time></trkpt><trkpt lat="40.35960909902033" lon="17.712561805469573"><ele>63.5</ele><time>2026-04-21T17:03:28.973Z</time></trkpt><trkpt lat="40.35978954649932" lon="17.712376756915283"><ele>63.0</ele><time>2026-04-21T17:03:29.973Z</time></trkpt><trkpt lat="40.35996918772226" lon="17.71218907511818"><ele>63.0</ele><time>2026-04-21T17:03:30.973Z</time></trkpt><trkpt lat="40.3601440857063" lon="17.712000772060065"><ele>63.0</ele><time>2026-04-21T17:03:31.973Z</time></trkpt><trkpt lat="40.36032215595801" lon="17.71181567524995"><ele>63.5</ele><time>2026-04-21T17:03:32.973Z</time></trkpt><trkpt lat="40.36050131747502" lon="17.711633694213273"><ele>64.0</ele><time>2026-04-21T17:03:33.973Z</time></trkpt><trkpt lat="40.36068461675317" lon="17.711456614773397"><ele>64.5</ele><time>2026-04-21T17:03:34.973Z</time></trkpt><trkpt lat="40.36087723497285" lon="17.71128413022842"><ele>65.0</ele><time>2026-04-21T17:03:35.973Z</time></trkpt><trkpt lat="40.36107881079395" lon="17.711121735563648"><ele>65.5</ele><time>2026-04-21T17:03:36.973Z</time></trkpt><trkpt lat="40.361281571738296" lon="17.710963191528418"><ele>66.0</ele><time>2026-04-21T17:03:37.973Z</time></trkpt><trkpt lat="40.36148618597124" lon="17.710805702315383"><ele>66.5</ele><time>2026-04-21T17:03:38.973Z</time></trkpt><trkpt lat="40.36168851136195" lon="17.710644069823534"><ele>67.0</ele><time>2026-04-21T17:03:39.973Z</time></trkpt><trkpt lat="40.36188745979275" lon="17.710477795439253"><ele>67.0</ele><time>2026-04-21T17:03:40.973Z</time></trkpt><trkpt lat="40.36208179884352" lon="17.710302154600974"><ele>67.0</ele><time>2026-04-21T17:03:41.973Z</time></trkpt><trkpt lat="40.36227169064134" lon="17.710115985314577"><ele>66.5</ele><time>2026-04-21T17:03:42.973Z</time></trkpt><trkpt lat="40.36245655275819" lon="17.709920064871454"><ele>66.0</ele><time>2026-04-21T17:03:43.973Z</time></trkpt><trkpt lat="40.362638157272656" lon="17.709723584866804"><ele>66.0</ele><time>2026-04-21T17:03:44.973Z</time></trkpt><trkpt lat="40.362818797101546" lon="17.70952786079778"><ele>66.0</ele><time>2026-04-21T17:03:45.973Z</time></trkpt><trkpt lat="40.36299559972721" lon="17.70932700610735"><ele>66.5</ele><time>2026-04-21T17:03:46.973Z</time></trkpt><trkpt lat="40.36316708361088" lon="17.70911609735312"><ele>67.0</ele><time>2026-04-21T17:03:47.973Z</time></trkpt><trkpt lat="40.36333246677471" lon="17.708897597635534"><ele>67.0</ele><time>2026-04-21T17:03:48.973Z</time></trkpt><trkpt lat="40.36349622244981" lon="17.708675685929123"><ele>67.0</ele><time>2026-04-21T17:03:49.973Z</time></trkpt><trkpt lat="40.363655329135256" lon="17.708452436034882"><ele>67.0</ele><time>2026-04-21T17:03:50.973Z</time></trkpt><trkpt lat="40.363805780556845" lon="17.708223618678858"><ele>67.0</ele><time>2026-04-21T17:03:51.973Z</time></trkpt><trkpt lat="40.363964819969" lon="17.708003527899592"><ele>67.33333333333333</ele><time>2026-04-21T17:03:52.973Z</time></trkpt><trkpt lat="40.36411874018492" lon="17.70780051517017"><ele>67.66666666666667</ele><time>2026-04-21T17:03:53.973Z</time></trkpt><trkpt lat="40.36426879198357" lon="17.707641312183323"><ele>68.0</ele><time>2026-04-21T17:03:54.973Z</time></trkpt><trkpt lat="40.364428884604244" lon="17.70750644242841"><ele>68.0</ele><time>2026-04-21T17:03:55.973Z</time></trkpt><trkpt lat="40.36461348167017" lon="17.707371072388842"><ele>68.0</ele><time>2026-04-21T17:03:56.973Z</time></trkpt><trkpt lat="40.36480631620503" lon="17.707246255822024"><ele>68.0</ele><time>2026-04-21T17:03:57.973Z</time></trkpt><trkpt lat="40.36500002347089" lon="17.707133374194385"><ele>68.0</ele><time>2026-04-21T17:03:58.973Z</time></trkpt><trkpt lat="40.365194041377684" lon="17.707013240020586"><ele>68.0</ele><time>2026-04-21T17:03:59.973Z</time></trkpt><trkpt lat="40.3653783693804" lon="17.706878804827983"><ele>68.0</ele><time>2026-04-21T17:04:00.973Z</time></trkpt><trkpt lat="40.365550883984305" lon="17.706721612123467"><ele>67.66666666666667</ele><time>2026-04-21T17:04:01.973Z</time></trkpt><trkpt lat="40.36571342587647" lon="17.70654114979023"><ele>67.33333333333333</ele><time>2026-04-21T17:04:02.973Z</time></trkpt><trkpt lat="40.36586994937669" lon="17.706348634201543"><ele>67.0</ele><time>2026-04-21T17:04:03.973Z</time></trkpt><trkpt lat="40.366025432832686" lon="17.70614266753493"><ele>67.33333333333333</ele><time>2026-04-21T17:04:04.973Z</time></trkpt><trkpt lat="40.36618213466396" lon="17.705942751138167"><ele>67.66666666666667</ele><time>2026-04-21T17:04:05.973Z</time></trkpt><trkpt lat="40.36633727904238" lon="17.705746596860756"><ele>68.0</ele><time>2026-04-21T17:04:06.973Z</time></trkpt><trkpt lat="40.366489772757554" lon="17.705544805083278"><ele>68.0</ele><time>2026-04-21T17:04:07.973Z</time></trkpt><trkpt lat="40.36664394280691" lon="17.705349578499856"><ele>68.0</ele><time>2026-04-21T17:04:08.973Z</time></trkpt><trkpt lat="40.366792455437604" lon="17.705163849340092"><ele>68.0</ele><time>2026-04-21T17:04:09.973Z</time></trkpt><trkpt lat="40.366929512540345" lon="17.704994268863857"><ele>68.33333333333334</ele><time>2026-04-21T17:04:10.973Z</time></trkpt><trkpt lat="40.36706738411977" lon="17.704833178770667"><ele>68.66666666666667</ele><time>2026-04-21T17:04:11.973Z</time></trkpt><trkpt lat="40.36722362498495" lon="17.704689266407236"><ele>69.0</ele><time>2026-04-21T17:04:12.973Z</time></trkpt><trkpt lat="40.3674009590206" lon="17.704568065827942"><ele>69.0</ele><time>2026-04-21T17:04:13.973Z</time></trkpt><trkpt lat="40.36758607507788" lon="17.704460357370298"><ele>69.0</ele><time>2026-04-21T17:04:14.973Z</time></trkpt><trkpt lat="40.36777493822484" lon="17.704357379868753"><ele>69.0</ele><time>2026-04-21T17:04:15.973Z</time></trkpt><trkpt lat="40.36796698292947" lon="17.704253555212738"><ele>69.33333333333333</ele><time>2026-04-21T17:04:16.973Z</time></trkpt><trkpt lat="40.368162299948125" lon="17.70414040640878"><ele>69.66666666666666</ele><time>2026-04-21T17:04:17.973Z</time></trkpt><trkpt lat="40.36835734136799" lon="17.704024526468473"><ele>70.0</ele><time>2026-04-21T17:04:18.972Z</time></trkpt><trkpt lat="40.36855288028936" lon="17.70390522431526"><ele>70.0</ele><time>2026-04-21T17:04:19.972Z</time></trkpt><trkpt lat="40.368748154081125" lon="17.703786267086844"><ele>70.0</ele><time>2026-04-21T17:04:20.972Z</time></trkpt><trkpt lat="40.36894402122237" lon="17.70367135177908"><ele>70.0</ele><time>2026-04-21T17:04:21.972Z</time></trkpt><trkpt lat="40.369138716354115" lon="17.70356710623697"><ele>70.0</ele><time>2026-04-21T17:04:22.972Z</time></trkpt><trkpt lat="40.36933133597861" lon="17.703481449137335"><ele>70.0</ele><time>2026-04-21T17:04:23.972Z</time></trkpt><trkpt lat="40.369531215930095" lon="17.703414081600684"><ele>70.0</ele><time>2026-04-21T17:04:24.972Z</time></trkpt><trkpt lat="40.36974501185731" lon="17.703362906460953"><ele>69.66666666666666</ele><time>2026-04-21T17:04:25.972Z</time></trkpt><trkpt lat="40.369958473147875" lon="17.70331861520793"><ele>69.33333333333333</ele><time>2026-04-21T17:04:26.972Z</time></trkpt><trkpt lat="40.370171263912674" lon="17.703276030170972"><ele>69.0</ele><time>2026-04-21T17:04:27.972Z</time></trkpt><trkpt lat="40.37038732152912" lon="17.70323891394805"><ele>69.5</ele><time>2026-04-21T17:04:28.972Z</time></trkpt><trkpt lat="40.37060624959355" lon="17.70319596752849"><ele>70.0</ele><time>2026-04-21T17:04:29.972Z</time></trkpt><trkpt lat="40.37083647320896" lon="17.703154307319043"><ele>70.0</ele><time>2026-04-21T17:04:30.972Z</time></trkpt><trkpt lat="40.37106925963837" lon="17.703109776835745"><ele>70.0</ele><time>2026-04-21T17:04:31.972Z</time></trkpt><trkpt lat="40.37129910916226" lon="17.703062253606376"><ele>69.5</ele><time>2026-04-21T17:04:32.972Z</time></trkpt><trkpt lat="40.371531482186505" lon="17.703018549441953"><ele>69.0</ele><time>2026-04-21T17:04:33.972Z</time></trkpt><trkpt lat="40.37176313025746" lon="17.70297549836956"><ele>69.0</ele><time>2026-04-21T17:04:34.972Z</time></trkpt><trkpt lat="40.37199678825784" lon="17.702930329256294"><ele>69.0</ele><time>2026-04-21T17:04:35.972Z</time></trkpt><trkpt lat="40.37222719931812" lon="17.70288746101999"><ele>69.0</ele><time>2026-04-21T17:04:36.972Z</time></trkpt><trkpt lat="40.372457678437506" lon="17.702842301076853"><ele>69.0</ele><time>2026-04-21T17:04:37.972Z</time></trkpt><trkpt lat="40.37268760502692" lon="17.70280012041562"><ele>69.0</ele><time>2026-04-21T17:04:38.972Z</time></trkpt><trkpt lat="40.37291572332075" lon="17.702760486741642"><ele>69.0</ele><time>2026-04-21T17:04:39.972Z</time></trkpt><trkpt lat="40.37314432877442" lon="17.702716676248194"><ele>70.5</ele><time>2026-04-21T17:04:40.972Z</time></trkpt><trkpt lat="40.37337380472281" lon="17.70267466550769"><ele>72.0</ele><time>2026-04-21T17:04:41.972Z</time></trkpt><trkpt lat="40.37360149330332" lon="17.702642810118505"><ele>72.0</ele><time>2026-04-21T17:04:42.972Z</time></trkpt><trkpt lat="40.37382653370377" lon="17.702623800516744"><ele>72.0</ele><time>2026-04-21T17:04:43.972Z</time></trkpt><trkpt lat="40.374038394493596" lon="17.702605910860278"><ele>72.0</ele><time>2026-04-21T17:04:44.972Z</time></trkpt><trkpt lat="40.374237524506306" lon="17.702576550331184"><ele>72.0</ele><time>2026-04-21T17:04:45.972Z</time></trkpt><trkpt lat="40.37442695167219" lon="17.702535570344665"><ele>72.0</ele><time>2026-04-21T17:04:46.972Z</time></trkpt><trkpt lat="40.374610753389405" lon="17.70246781129457"><ele>72.0</ele><time>2026-04-21T17:04:47.972Z</time></trkpt><trkpt lat="40.374789685778076" lon="17.70236587861896"><ele>72.0</ele><time>2026-04-21T17:04:48.972Z</time></trkpt><trkpt lat="40.37496220624738" lon="17.702240195658838"><ele>72.0</ele><time>2026-04-21T17:04:49.972Z</time></trkpt><trkpt lat="40.375128473814286" lon="17.70209532378423"><ele>72.0</ele><time>2026-04-21T17:04:50.972Z</time></trkpt><trkpt lat="40.37528078444076" lon="17.701925780360604"><ele>71.66666666666667</ele><time>2026-04-21T17:04:51.972Z</time></trkpt><trkpt lat="40.3754267870281" lon="17.70173580489153"><ele>71.33333333333334</ele><time>2026-04-21T17:04:52.972Z</time></trkpt><trkpt lat="40.37555885704229" lon="17.701536815105484"><ele>71.0</ele><time>2026-04-21T17:04:53.972Z</time></trkpt><trkpt lat="40.37569989737597" lon="17.701335783429563"><ele>71.0</ele><time>2026-04-21T17:04:54.972Z</time></trkpt><trkpt lat="40.37584143333836" lon="17.70113741736647"><ele>71.0</ele><time>2026-04-21T17:04:55.972Z</time></trkpt><trkpt lat="40.375989305656354" lon="17.700941965220675"><ele>71.0</ele><time>2026-04-21T17:04:56.972Z</time></trkpt><trkpt lat="40.37613128853695" lon="17.700747687450185"><ele>71.33333333333334</ele><time>2026-04-21T17:04:57.972Z</time></trkpt><trkpt lat="40.37627022784692" lon="17.70055030324138"><ele>71.66666666666667</ele><time>2026-04-21T17:04:58.972Z</time></trkpt><trkpt lat="40.376426250770734" lon="17.70034455357972"><ele>72.0</ele><time>2026-04-21T17:04:59.972Z</time></trkpt><trkpt lat="40.3765710111237" lon="17.700139112155206"><ele>72.0</ele><time>2026-04-21T17:05:00.972Z</time></trkpt><trkpt lat="40.37671011832842" lon="17.699923444386666"><ele>72.0</ele><time>2026-04-21T17:05:01.972Z</time></trkpt><trkpt lat="40.37684339974554" lon="17.699707305391225"><ele>72.0</ele><time>2026-04-21T17:05:02.972Z</time></trkpt><trkpt lat="40.37697709009665" lon="17.699490154260914"><ele>72.33333333333333</ele><time>2026-04-21T17:05:03.972Z</time></trkpt><trkpt lat="40.37711147971267" lon="17.699276715567756"><ele>72.66666666666666</ele><time>2026-04-21T17:05:04.972Z</time></trkpt><trkpt lat="40.37724884153334" lon="17.699063772173346"><ele>73.0</ele><time>2026-04-21T17:05:05.972Z</time></trkpt><trkpt lat="40.37738846774388" lon="17.698854918924877"><ele>73.0</ele><time>2026-04-21T17:05:06.973Z</time></trkpt><trkpt lat="40.37752934070879" lon="17.698644911698057"><ele>73.0</ele><time>2026-04-21T17:05:07.972Z</time></trkpt><trkpt lat="40.37766855335636" lon="17.698435977271824"><ele>73.0</ele><time>2026-04-21T17:05:08.972Z</time></trkpt><trkpt lat="40.3778084591282" lon="17.698223548561618"><ele>73.0</ele><time>2026-04-21T17:05:09.973Z</time></trkpt><trkpt lat="40.37795107028462" lon="17.69801803662418"><ele>73.0</ele><time>2026-04-21T17:05:10.973Z</time></trkpt><trkpt lat="40.3781030694948" lon="17.69782439567346"><ele>73.0</ele><time>2026-04-21T17:05:11.973Z</time></trkpt><trkpt lat="40.37826900847842" lon="17.697643583696966"><ele>73.66666666666666</ele><time>2026-04-21T17:05:12.973Z</time></trkpt><trkpt lat="40.37843772683565" lon="17.697466768621517"><ele>74.33333333333333</ele><time>2026-04-21T17:05:13.973Z</time></trkpt><trkpt lat="40.37860617926337" lon="17.697293608942317"><ele>75.0</ele><time>2026-04-21T17:05:14.973Z</time></trkpt><trkpt lat="40.37877299532968" lon="17.69711619389204"><ele>75.0</ele><time>2026-04-21T17:05:15.973Z</time></trkpt><trkpt lat="40.37893453525166" lon="17.69693377288822"><ele>75.0</ele><time>2026-04-21T17:05:16.973Z</time></trkpt><trkpt lat="40.379081661797905" lon="17.696725950228338"><ele>75.0</ele><time>2026-04-21T17:05:17.973Z</time></trkpt><trkpt lat="40.37921274736487" lon="17.696500345628632"><ele>75.0</ele><time>2026-04-21T17:05:18.972Z</time></trkpt><trkpt lat="40.37933050341693" lon="17.696261195505627"><ele>75.0</ele><time>2026-04-21T17:05:19.972Z</time></trkpt><trkpt lat="40.37945202926396" lon="17.696027414264137"><ele>75.0</ele><time>2026-04-21T17:05:20.972Z</time></trkpt><trkpt lat="40.37957833339245" lon="17.695794943332707"><ele>75.0</ele><time>2026-04-21T17:05:21.972Z</time></trkpt><trkpt lat="40.379713893708676" lon="17.6955681227502"><ele>75.0</ele><time>2026-04-21T17:05:22.972Z</time></trkpt><trkpt lat="40.379858913974665" lon="17.695345100015228"><ele>75.0</ele><time>2026-04-21T17:05:23.972Z</time></trkpt><trkpt lat="40.38000482445492" lon="17.69513314661497"><ele>75.0</ele><time>2026-04-21T17:05:24.972Z</time></trkpt><trkpt lat="40.38015811068242" lon="17.694919627836644"><ele>75.0</ele><time>2026-04-21T17:05:25.972Z</time></trkpt><trkpt lat="40.38031470221442" lon="17.69470839272911"><ele>75.0</ele><time>2026-04-21T17:05:26.972Z</time></trkpt><trkpt lat="40.380467922105204" lon="17.694498172453628"><ele>75.0</ele><time>2026-04-21T17:05:27.972Z</time></trkpt><trkpt lat="40.38061999822104" lon="17.694283853875998"><ele>75.0</ele><time>2026-04-21T17:05:28.972Z</time></trkpt><trkpt lat="40.38077016291929" lon="17.694071887473644"><ele>75.0</ele><time>2026-04-21T17:05:29.972Z</time></trkpt><trkpt lat="40.38091968626286" lon="17.69386015570091"><ele>75.0</ele><time>2026-04-21T17:05:30.972Z</time></trkpt><trkpt lat="40.38106894701804" lon="17.6936481854974"><ele>75.0</ele><time>2026-04-21T17:05:31.972Z</time></trkpt><trkpt lat="40.38121424818191" lon="17.69342431312524"><ele>75.0</ele><time>2026-04-21T17:05:32.972Z</time></trkpt><trkpt lat="40.38135413753073" lon="17.693196947090037"><ele>75.66666666666667</ele><time>2026-04-21T17:05:33.972Z</time></trkpt><trkpt lat="40.38148523074546" lon="17.69296151383146"><ele>76.33333333333334</ele><time>2026-04-21T17:05:34.972Z</time></trkpt><trkpt lat="40.38161021697984" lon="17.692717511961"><ele>77.0</ele><time>2026-04-21T17:05:35.972Z</time></trkpt><trkpt lat="40.38173095896685" lon="17.692476275268724"><ele>77.0</ele><time>2026-04-21T17:05:36.972Z</time></trkpt><trkpt lat="40.38185266564816" lon="17.692234414640396"><ele>77.0</ele><time>2026-04-21T17:05:37.972Z</time></trkpt><trkpt lat="40.38197520433574" lon="17.691999911080565"><ele>77.0</ele><time>2026-04-21T17:05:38.972Z</time></trkpt><trkpt lat="40.38209875979366" lon="17.69175515539906"><ele>77.0</ele><time>2026-04-21T17:05:39.972Z</time></trkpt><trkpt lat="40.3822195651417" lon="17.691516040114497"><ele>77.0</ele><time>2026-04-21T17:05:40.972Z</time></trkpt><trkpt lat="40.38234285272271" lon="17.691279643175292"><ele>77.0</ele><time>2026-04-21T17:05:41.972Z</time></trkpt><trkpt lat="40.38246504285606" lon="17.691039585864733"><ele>76.66666666666667</ele><time>2026-04-21T17:05:42.972Z</time></trkpt><trkpt lat="40.382589876459264" lon="17.690799509275784"><ele>76.33333333333333</ele><time>2026-04-21T17:05:43.972Z</time></trkpt><trkpt lat="40.38271111435327" lon="17.69056079625277"><ele>76.0</ele><time>2026-04-21T17:05:44.972Z</time></trkpt><trkpt lat="40.38283681060663" lon="17.690323402747627"><ele>76.66666666666666</ele><time>2026-04-21T17:05:45.972Z</time></trkpt><trkpt lat="40.38296140124279" lon="17.690081515956553"><ele>77.33333333333333</ele><time>2026-04-21T17:05:46.972Z</time></trkpt><trkpt lat="40.38308227618216" lon="17.689839804664754"><ele>78.0</ele><time>2026-04-21T17:05:47.972Z</time></trkpt><trkpt lat="40.38320656291272" lon="17.689598442711993"><ele>77.66666666666667</ele><time>2026-04-21T17:05:48.972Z</time></trkpt><trkpt lat="40.38333156675234" lon="17.689353870183783"><ele>77.33333333333334</ele><time>2026-04-21T17:05:49.972Z</time></trkpt><trkpt lat="40.38345558563663" lon="17.689116564577173"><ele>77.0</ele><time>2026-04-21T17:05:50.972Z</time></trkpt><trkpt lat="40.38358007071911" lon="17.688873266047676"><ele>77.0</ele><time>2026-04-21T17:05:51.972Z</time></trkpt><trkpt lat="40.38370447414273" lon="17.68862972648833"><ele>77.0</ele><time>2026-04-21T17:05:52.972Z</time></trkpt><trkpt lat="40.383828043546636" lon="17.688389335797087"><ele>77.0</ele><time>2026-04-21T17:05:53.972Z</time></trkpt><trkpt lat="40.383953013613336" lon="17.688149985788186"><ele>77.33333333333334</ele><time>2026-04-21T17:05:54.972Z</time></trkpt><trkpt lat="40.38407772058605" lon="17.687908888918038"><ele>77.66666666666667</ele><time>2026-04-21T17:05:55.972Z</time></trkpt><trkpt lat="40.384202508032935" lon="17.68766404166426"><ele>78.0</ele><time>2026-04-21T17:05:56.972Z</time></trkpt><trkpt lat="40.384324159605" lon="17.687426291146117"><ele>77.66666666666667</ele><time>2026-04-21T17:05:57.972Z</time></trkpt><trkpt lat="40.384446971887286" lon="17.687182282028267"><ele>77.33333333333334</ele><time>2026-04-21T17:05:58.972Z</time></trkpt><trkpt lat="40.384570879762286" lon="17.68693973864763"><ele>77.0</ele><time>2026-04-21T17:05:59.972Z</time></trkpt><trkpt lat="40.3846974058601" lon="17.686701176732704"><ele>77.0</ele><time>2026-04-21T17:06:00.972Z</time></trkpt><trkpt lat="40.38482743496561" lon="17.68646962972872"><ele>77.0</ele><time>2026-04-21T17:06:01.972Z</time></trkpt><trkpt lat="40.384962471793266" lon="17.686238736968967"><ele>77.0</ele><time>2026-04-21T17:06:02.972Z</time></trkpt><trkpt lat="40.385100322107725" lon="17.68600578023399"><ele>77.33333333333334</ele><time>2026-04-21T17:06:03.972Z</time></trkpt><trkpt lat="40.38523568221365" lon="17.685778352372225"><ele>77.66666666666667</ele><time>2026-04-21T17:06:04.972Z</time></trkpt><trkpt lat="40.38537206106283" lon="17.685555845855465"><ele>78.0</ele><time>2026-04-21T17:06:05.972Z</time></trkpt><trkpt lat="40.385505470266374" lon="17.685338917432624"><ele>78.0</ele><time>2026-04-21T17:06:06.972Z</time></trkpt><trkpt lat="40.38563461962556" lon="17.68512152103885"><ele>78.0</ele><time>2026-04-21T17:06:07.972Z</time></trkpt><trkpt lat="40.38577002330482" lon="17.684905047848936"><ele>78.0</ele><time>2026-04-21T17:06:08.972Z</time></trkpt><trkpt lat="40.385888333905" lon="17.684678003179723"><ele>78.0</ele><time>2026-04-21T17:06:09.972Z</time></trkpt><trkpt lat="40.38599782748367" lon="17.684465619393368"><ele>78.0</ele><time>2026-04-21T17:06:10.972Z</time></trkpt><trkpt lat="40.38610551080988" lon="17.684246388148466"><ele>78.0</ele><time>2026-04-21T17:06:11.972Z</time></trkpt><trkpt lat="40.38621453825988" lon="17.68403156056563"><ele>78.33333333333333</ele><time>2026-04-21T17:06:12.972Z</time></trkpt><trkpt lat="40.386329426499884" lon="17.683817963663593"><ele>78.66666666666666</ele><time>2026-04-21T17:06:13.972Z</time></trkpt><trkpt lat="40.38645564092701" lon="17.68361251530667"><ele>79.0</ele><time>2026-04-21T17:06:14.972Z</time></trkpt><trkpt lat="40.38659500352822" lon="17.683426384287976"><ele>79.33333333333333</ele><time>2026-04-21T17:06:15.972Z</time></trkpt><trkpt lat="40.3867426562608" lon="17.68325282366506"><ele>79.66666666666667</ele><time>2026-04-21T17:06:16.972Z</time></trkpt><trkpt lat="40.386890346344046" lon="17.683092092203772"><ele>80.0</ele><time>2026-04-21T17:06:17.972Z</time></trkpt><trkpt lat="40.38702636687785" lon="17.682932694973438"><ele>79.0</ele><time>2026-04-21T17:06:18.972Z</time></trkpt><trkpt lat="40.38714377506299" lon="17.682742987840818"><ele>78.0</ele><time>2026-04-21T17:06:19.972Z</time></trkpt><trkpt lat="40.387250319684995" lon="17.682544208795388"><ele>77.0</ele><time>2026-04-21T17:06:20.972Z</time></trkpt><trkpt lat="40.387408464863995" lon="17.682337885699308"><ele>76.66666666666667</ele><time>2026-04-21T17:06:21.972Z</time></trkpt><trkpt lat="40.387507081836205" lon="17.682123338822866"><ele>76.33333333333333</ele><time>2026-04-21T17:06:22.972Z</time></trkpt><trkpt lat="40.387603404467626" lon="17.68190512411228"><ele>76.0</ele><time>2026-04-21T17:06:23.972Z</time></trkpt><trkpt lat="40.38769903530628" lon="17.681681289287457"><ele>76.0</ele><time>2026-04-21T17:06:24.972Z</time></trkpt><trkpt lat="40.387795527090326" lon="17.68145220827948"><ele>76.0</ele><time>2026-04-21T17:06:25.972Z</time></trkpt><trkpt lat="40.38789617683043" lon="17.681225371047972"><ele>76.0</ele><time>2026-04-21T17:06:26.972Z</time></trkpt><trkpt lat="40.388001442145686" lon="17.68100090491998"><ele>75.33333333333333</ele><time>2026-04-21T17:06:27.972Z</time></trkpt><trkpt lat="40.388107880730175" lon="17.68077415345895"><ele>74.66666666666667</ele><time>2026-04-21T17:06:28.972Z</time></trkpt><trkpt lat="40.38821961478549" lon="17.68054822792282"><ele>74.0</ele><time>2026-04-21T17:06:29.972Z</time></trkpt><trkpt lat="40.388330632206014" lon="17.680320516661034"><ele>74.66666666666667</ele><time>2026-04-21T17:06:30.972Z</time></trkpt><trkpt lat="40.388441776149605" lon="17.68009056212527"><ele>75.33333333333333</ele><time>2026-04-21T17:06:31.972Z</time></trkpt><trkpt lat="40.3885517427373" lon="17.67985736618272"><ele>76.0</ele><time>2026-04-21T17:06:32.972Z</time></trkpt><trkpt lat="40.38866280092769" lon="17.679624525827204"><ele>75.66666666666666</ele><time>2026-04-21T17:06:33.972Z</time></trkpt><trkpt lat="40.388773390513734" lon="17.67939080385858"><ele>75.33333333333333</ele><time>2026-04-21T17:06:34.972Z</time></trkpt><trkpt lat="40.38888671605074" lon="17.679155947811044"><ele>75.0</ele><time>2026-04-21T17:06:35.972Z</time></trkpt><trkpt lat="40.38900050157959" lon="17.678922895594695"><ele>75.0</ele><time>2026-04-21T17:06:36.972Z</time></trkpt><trkpt lat="40.38911602130313" lon="17.67868844467201"><ele>75.0</ele><time>2026-04-21T17:06:37.972Z</time></trkpt><trkpt lat="40.3892317536677" lon="17.678453963927186"><ele>75.0</ele><time>2026-04-21T17:06:38.972Z</time></trkpt><trkpt lat="40.38934644614713" lon="17.678220234582238"><ele>75.0</ele><time>2026-04-21T17:06:39.972Z</time></trkpt><trkpt lat="40.38946239011058" lon="17.677985174236703"><ele>75.0</ele><time>2026-04-21T17:06:40.972Z</time></trkpt><trkpt lat="40.38957882357392" lon="17.677748930727493"><ele>75.0</ele><time>2026-04-21T17:06:41.972Z</time></trkpt><trkpt lat="40.38969379222148" lon="17.677512016017676"><ele>74.33333333333333</ele><time>2026-04-21T17:06:42.972Z</time></trkpt><trkpt lat="40.389807648185844" lon="17.677275454363855"><ele>73.66666666666666</ele><time>2026-04-21T17:06:43.972Z</time></trkpt><trkpt lat="40.38992618637751" lon="17.67703891455147"><ele>73.0</ele><time>2026-04-21T17:06:44.972Z</time></trkpt><trkpt lat="40.390039185146954" lon="17.676805155867385"><ele>73.0</ele><time>2026-04-21T17:06:45.972Z</time></trkpt><trkpt lat="40.39015108632984" lon="17.676573064043012"><ele>73.0</ele><time>2026-04-21T17:06:46.972Z</time></trkpt><trkpt lat="40.390266791595195" lon="17.676343705924413"><ele>73.0</ele><time>2026-04-21T17:06:47.972Z</time></trkpt><trkpt lat="40.39039487116473" lon="17.67612502278881"><ele>72.66666666666666</ele><time>2026-04-21T17:06:48.972Z</time></trkpt><trkpt lat="40.39052010176361" lon="17.67591352098655"><ele>72.33333333333333</ele><time>2026-04-21T17:06:49.972Z</time></trkpt><trkpt lat="40.39066290257765" lon="17.675719144270456"><ele>72.0</ele><time>2026-04-21T17:06:50.972Z</time></trkpt><trkpt lat="40.3908215034087" lon="17.675531115228566"><ele>72.0</ele><time>2026-04-21T17:06:51.972Z</time></trkpt><trkpt lat="40.39097444882742" lon="17.675336223166664"><ele>72.0</ele><time>2026-04-21T17:06:52.972Z</time></trkpt><trkpt lat="40.39112594122618" lon="17.675136369051533"><ele>72.0</ele><time>2026-04-21T17:06:53.972Z</time></trkpt><trkpt lat="40.39126919351218" lon="17.674939147967695"><ele>71.66666666666667</ele><time>2026-04-21T17:06:54.972Z</time></trkpt><trkpt lat="40.39141393348675" lon="17.674740360512963"><ele>71.33333333333334</ele><time>2026-04-21T17:06:55.972Z</time></trkpt><trkpt lat="40.39156207244482" lon="17.674537718217945"><ele>71.0</ele><time>2026-04-21T17:06:56.972Z</time></trkpt><trkpt lat="40.391708752099596" lon="17.674339620358186"><ele>71.0</ele><time>2026-04-21T17:06:57.972Z</time></trkpt><trkpt lat="40.39185947527329" lon="17.674149063042783"><ele>71.0</ele><time>2026-04-21T17:06:58.972Z</time></trkpt><trkpt lat="40.392008764612335" lon="17.67395299798435"><ele>71.0</ele><time>2026-04-21T17:06:59.972Z</time></trkpt><trkpt lat="40.392156256405144" lon="17.67374760069135"><ele>71.0</ele><time>2026-04-21T17:07:00.972Z</time></trkpt><trkpt lat="40.39230355222949" lon="17.673553327077805"><ele>71.0</ele><time>2026-04-21T17:07:01.972Z</time></trkpt><trkpt lat="40.39244729185406" lon="17.67335701560166"><ele>71.0</ele><time>2026-04-21T17:07:02.972Z</time></trkpt><trkpt lat="40.39258799513643" lon="17.673148873799363"><ele>71.0</ele><time>2026-04-21T17:07:03.972Z</time></trkpt><trkpt lat="40.39272265653248" lon="17.672925402138077"><ele>71.0</ele><time>2026-04-21T17:07:04.971Z</time></trkpt><trkpt lat="40.39284799841836" lon="17.672703246531697"><ele>71.0</ele><time>2026-04-21T17:07:05.971Z</time></trkpt><trkpt lat="40.39297374958733" lon="17.672472650995573"><ele>71.0</ele><time>2026-04-21T17:07:06.971Z</time></trkpt><trkpt lat="40.393099778513466" lon="17.67224620363082"><ele>71.0</ele><time>2026-04-21T17:07:07.971Z</time></trkpt><trkpt lat="40.39322405434157" lon="17.672021530849104"><ele>71.0</ele><time>2026-04-21T17:07:08.971Z</time></trkpt><trkpt lat="40.39335487447319" lon="17.671802398104834"><ele>71.0</ele><time>2026-04-21T17:07:09.971Z</time></trkpt><trkpt lat="40.39348539341791" lon="17.671578233590253"><ele>71.0</ele><time>2026-04-21T17:07:10.971Z</time></trkpt><trkpt lat="40.39361731483896" lon="17.67135529669197"><ele>71.0</ele><time>2026-04-21T17:07:11.971Z</time></trkpt><trkpt lat="40.39374753146802" lon="17.671129631561673"><ele>71.33333333333334</ele><time>2026-04-21T17:07:12.973Z</time></trkpt><trkpt lat="40.393866633544285" lon="17.670913528756092"><ele>71.66666666666667</ele><time>2026-04-21T17:07:13.973Z</time></trkpt><trkpt lat="40.39397297398288" lon="17.670685057347406"><ele>72.0</ele><time>2026-04-21T17:07:14.973Z</time></trkpt><trkpt lat="40.394069684675706" lon="17.670448162066887"><ele>72.33333333333333</ele><time>2026-04-21T17:07:15.973Z</time></trkpt><trkpt lat="40.394154887767215" lon="17.67020501771767"><ele>72.66666666666666</ele><time>2026-04-21T17:07:16.972Z</time></trkpt><trkpt lat="40.394231441858125" lon="17.669956359634934"><ele>73.0</ele><time>2026-04-21T17:07:17.972Z</time></trkpt><trkpt lat="40.39431249391459" lon="17.669702539113878"><ele>73.0</ele><time>2026-04-21T17:07:18.973Z</time></trkpt><trkpt lat="40.39440607311214" lon="17.669460588448327"><ele>73.0</ele><time>2026-04-21T17:07:19.972Z</time></trkpt><trkpt lat="40.39450835876863" lon="17.66923149790605"><ele>73.0</ele><time>2026-04-21T17:07:20.972Z</time></trkpt><trkpt lat="40.394621586958976" lon="17.669011868271554"><ele>72.33333333333333</ele><time>2026-04-21T17:07:21.972Z</time></trkpt><trkpt lat="40.394737744168545" lon="17.668790334486218"><ele>71.66666666666667</ele><time>2026-04-21T17:07:22.973Z</time></trkpt><trkpt lat="40.394853108461234" lon="17.668565802979774"><ele>71.0</ele><time>2026-04-21T17:07:23.973Z</time></trkpt><trkpt lat="40.39496494276801" lon="17.66834059707587"><ele>71.0</ele><time>2026-04-21T17:07:24.973Z</time></trkpt><trkpt lat="40.3950730611971" lon="17.668110104307832"><ele>71.0</ele><time>2026-04-21T17:07:25.972Z</time></trkpt><trkpt lat="40.39518855065352" lon="17.667884276373783"><ele>71.0</ele><time>2026-04-21T17:07:26.972Z</time></trkpt><trkpt lat="40.39530556856811" lon="17.667662593749196"><ele>71.0</ele><time>2026-04-21T17:07:27.972Z</time></trkpt><trkpt lat="40.39542171450414" lon="17.667436130899574"><ele>71.0</ele><time>2026-04-21T17:07:28.972Z</time></trkpt><trkpt lat="40.395537387204335" lon="17.667219698438288"><ele>71.0</ele><time>2026-04-21T17:07:29.972Z</time></trkpt><trkpt lat="40.395659304713945" lon="17.66700792763234"><ele>70.66666666666667</ele><time>2026-04-21T17:07:30.972Z</time></trkpt><trkpt lat="40.39579569140632" lon="17.666809433157848"><ele>70.33333333333333</ele><time>2026-04-21T17:07:31.972Z</time></trkpt><trkpt lat="40.395940886428264" lon="17.666620074812393"><ele>70.0</ele><time>2026-04-21T17:07:32.972Z</time></trkpt><trkpt lat="40.39609595130973" lon="17.666434670125874"><ele>70.0</ele><time>2026-04-21T17:07:33.972Z</time></trkpt><trkpt lat="40.39625051220933" lon="17.66625425241149"><ele>70.0</ele><time>2026-04-21T17:07:34.972Z</time></trkpt><trkpt lat="40.39640264821079" lon="17.666081446391317"><ele>70.0</ele><time>2026-04-21T17:07:35.972Z</time></trkpt><trkpt lat="40.3965520737309" lon="17.6658950369003"><ele>70.66666666666666</ele><time>2026-04-21T17:07:36.972Z</time></trkpt><trkpt lat="40.39670311162823" lon="17.66571443862767"><ele>71.33333333333333</ele><time>2026-04-21T17:07:37.972Z</time></trkpt><trkpt lat="40.39684416565743" lon="17.665532197705218"><ele>72.0</ele><time>2026-04-21T17:07:38.972Z</time></trkpt><trkpt lat="40.39697666385812" lon="17.66533172476755"><ele>72.0</ele><time>2026-04-21T17:07:39.972Z</time></trkpt><trkpt lat="40.39708730089541" lon="17.66510462146301"><ele>72.0</ele><time>2026-04-21T17:07:40.972Z</time></trkpt><trkpt lat="40.3971865341079" lon="17.66485410029283"><ele>72.0</ele><time>2026-04-21T17:07:41.972Z</time></trkpt><trkpt lat="40.39727663381221" lon="17.66459569078053"><ele>72.0</ele><time>2026-04-21T17:07:42.972Z</time></trkpt><trkpt lat="40.397354992053515" lon="17.6643392660617"><ele>72.0</ele><time>2026-04-21T17:07:43.972Z</time></trkpt><trkpt lat="40.397424634480146" lon="17.6640741529614"><ele>72.0</ele><time>2026-04-21T17:07:44.972Z</time></trkpt><trkpt lat="40.397493723914614" lon="17.663813794696225"><ele>71.66666666666667</ele><time>2026-04-21T17:07:45.972Z</time></trkpt><trkpt lat="40.39756175443368" lon="17.66355760605846"><ele>71.33333333333334</ele><time>2026-04-21T17:07:46.972Z</time></trkpt><trkpt lat="40.39762909089197" lon="17.66328547756475"><ele>71.0</ele><time>2026-04-21T17:07:47.972Z</time></trkpt><trkpt lat="40.39769125888589" lon="17.663016828604864"><ele>71.33333333333334</ele><time>2026-04-21T17:07:48.972Z</time></trkpt><trkpt lat="40.39775832679538" lon="17.66275646159831"><ele>71.66666666666667</ele><time>2026-04-21T17:07:49.972Z</time></trkpt><trkpt lat="40.397829267980896" lon="17.662494527573006"><ele>72.0</ele><time>2026-04-21T17:07:50.972Z</time></trkpt><trkpt lat="40.39791275645921" lon="17.662240438086855"><ele>72.0</ele><time>2026-04-21T17:07:51.972Z</time></trkpt><trkpt lat="40.3980024265459" lon="17.66198948420052"><ele>72.0</ele><time>2026-04-21T17:07:52.972Z</time></trkpt><trkpt lat="40.398094029430055" lon="17.661732984050786"><ele>72.0</ele><time>2026-04-21T17:07:53.972Z</time></trkpt><trkpt lat="40.39814455747999" lon="17.661500589955924"><ele>72.0</ele><time>2026-04-21T17:07:54.972Z</time></trkpt><trkpt lat="40.39821562740526" lon="17.66125089107783"><ele>72.0</ele><time>2026-04-21T17:07:55.972Z</time></trkpt><trkpt lat="40.39828873233191" lon="17.661004834073736"><ele>72.0</ele><time>2026-04-21T17:07:56.972Z</time></trkpt><trkpt lat="40.398371694172425" lon="17.660757662471745"><ele>71.33333333333333</ele><time>2026-04-21T17:07:57.972Z</time></trkpt><trkpt lat="40.39845897957202" lon="17.66051113887395"><ele>70.66666666666666</ele><time>2026-04-21T17:07:58.972Z</time></trkpt><trkpt lat="40.39854388048297" lon="17.660256764576992"><ele>70.0</ele><time>2026-04-21T17:07:59.972Z</time></trkpt><trkpt lat="40.398623264509176" lon="17.66000513629726"><ele>70.0</ele><time>2026-04-21T17:08:00.972Z</time></trkpt><trkpt lat="40.39870082407777" lon="17.65975213368674"><ele>70.0</ele><time>2026-04-21T17:08:01.972Z</time></trkpt><trkpt lat="40.39878396839818" lon="17.659496503307167"><ele>70.0</ele><time>2026-04-21T17:08:02.972Z</time></trkpt><trkpt lat="40.39886852454793" lon="17.65926260184764"><ele>70.33333333333333</ele><time>2026-04-21T17:08:03.972Z</time></trkpt><trkpt lat="40.398953655396" lon="17.659036621904423"><ele>70.66666666666667</ele><time>2026-04-21T17:08:04.972Z</time></trkpt><trkpt lat="40.39903143747684" lon="17.658830610042195"><ele>71.0</ele><time>2026-04-21T17:08:05.972Z</time></trkpt><trkpt lat="40.39911202727877" lon="17.65862860155169"><ele>71.0</ele><time>2026-04-21T17:08:06.972Z</time></trkpt><trkpt lat="40.39920827849045" lon="17.658433609851116"><ele>71.0</ele><time>2026-04-21T17:08:07.972Z</time></trkpt><trkpt lat="40.39931649523955" lon="17.658243997057795"><ele>71.0</ele><time>2026-04-21T17:08:08.972Z</time></trkpt><trkpt lat="40.399431790555425" lon="17.658058631946567"><ele>71.0</ele><time>2026-04-21T17:08:09.972Z</time></trkpt><trkpt lat="40.399551087812746" lon="17.657869691820927"><ele>71.0</ele><time>2026-04-21T17:08:10.972Z</time></trkpt><trkpt lat="40.399670848762504" lon="17.65768062992211"><ele>71.0</ele><time>2026-04-21T17:08:11.972Z</time></trkpt><trkpt lat="40.399790019333665" lon="17.65748830394276"><ele>71.33333333333334</ele><time>2026-04-21T17:08:12.972Z</time></trkpt><trkpt lat="40.3999064139022" lon="17.657291293470006"><ele>71.66666666666667</ele><time>2026-04-21T17:08:13.972Z</time></trkpt><trkpt lat="40.400026817014556" lon="17.65709881946037"><ele>72.0</ele><time>2026-04-21T17:08:14.972Z</time></trkpt><trkpt lat="40.400148387350654" lon="17.656908050237977"><ele>72.0</ele><time>2026-04-21T17:08:15.972Z</time></trkpt><trkpt lat="40.40027048525694" lon="17.656712200830825"><ele>72.0</ele><time>2026-04-21T17:08:16.972Z</time></trkpt><trkpt lat="40.40039197787624" lon="17.656518795683816"><ele>72.0</ele><time>2026-04-21T17:08:17.972Z</time></trkpt><trkpt lat="40.40051305037964" lon="17.656320488003225"><ele>72.0</ele><time>2026-04-21T17:08:18.972Z</time></trkpt><trkpt lat="40.4006351662519" lon="17.656125994525166"><ele>72.0</ele><time>2026-04-21T17:08:19.972Z</time></trkpt><trkpt lat="40.4007576493108" lon="17.655929113718262"><ele>72.0</ele><time>2026-04-21T17:08:20.972Z</time></trkpt><trkpt lat="40.400881786772125" lon="17.65573073301695"><ele>72.33333333333333</ele><time>2026-04-21T17:08:21.972Z</time></trkpt><trkpt lat="40.40100143636717" lon="17.65553059810405"><ele>72.66666666666666</ele><time>2026-04-21T17:08:22.972Z</time></trkpt><trkpt lat="40.40112088527589" lon="17.655339373482942"><ele>73.0</ele><time>2026-04-21T17:08:23.972Z</time></trkpt><trkpt lat="40.40123481340239" lon="17.65515588568762"><ele>72.66666666666666</ele><time>2026-04-21T17:08:24.972Z</time></trkpt><trkpt lat="40.40133957376393" lon="17.654983443626485"><ele>72.33333333333333</ele><time>2026-04-21T17:08:25.972Z</time></trkpt><trkpt lat="40.40144068042575" lon="17.65480943791791"><ele>72.0</ele><time>2026-04-21T17:08:26.972Z</time></trkpt><trkpt lat="40.40153683893951" lon="17.65465377571617"><ele>72.0</ele><time>2026-04-21T17:08:27.972Z</time></trkpt><trkpt lat="40.40162842564543" lon="17.65450770606346"><ele>72.0</ele><time>2026-04-21T17:08:28.972Z</time></trkpt><trkpt lat="40.401704058267065" lon="17.65437743825653"><ele>72.0</ele><time>2026-04-21T17:08:29.972Z</time></trkpt><trkpt lat="40.401779583042874" lon="17.654262182493273"><ele>72.0</ele><time>2026-04-21T17:08:30.972Z</time></trkpt><trkpt lat="40.4018431334984" lon="17.654159953188064"><ele>72.0</ele><time>2026-04-21T17:08:31.972Z</time></trkpt><trkpt lat="40.40189559056058" lon="17.654080353169544"><ele>72.0</ele><time>2026-04-21T17:08:32.972Z</time></trkpt><trkpt lat="40.40196414959354" lon="17.653975602561957"><ele>72.0</ele><time>2026-04-21T17:08:34.972Z</time></trkpt><trkpt lat="40.40200460750789" lon="17.65383616670098"><ele>72.0</ele><time>2026-04-21T17:08:39.972Z</time></trkpt><trkpt lat="40.402005546727146" lon="17.65370658478558"><ele>72.0</ele><time>2026-04-21T17:08:40.972Z</time></trkpt><trkpt lat="40.40199196809741" lon="17.65356266886122"><ele>72.33333333333333</ele><time>2026-04-21T17:08:41.972Z</time></trkpt><trkpt lat="40.40197392473327" lon="17.65338253440784"><ele>72.66666666666666</ele><time>2026-04-21T17:08:42.972Z</time></trkpt><trkpt lat="40.40194741423577" lon="17.653173569542265"><ele>73.0</ele><time>2026-04-21T17:08:43.972Z</time></trkpt><trkpt lat="40.40192632573013" lon="17.652940952607604"><ele>72.66666666666666</ele><time>2026-04-21T17:08:44.972Z</time></trkpt><trkpt lat="40.40190740527415" lon="17.65269999809407"><ele>72.33333333333333</ele><time>2026-04-21T17:08:45.972Z</time></trkpt><trkpt lat="40.401887711128644" lon="17.652450015216033"><ele>72.0</ele><time>2026-04-21T17:08:46.972Z</time></trkpt><trkpt lat="40.40187165694962" lon="17.652199425125175"><ele>72.0</ele><time>2026-04-21T17:08:47.972Z</time></trkpt><trkpt lat="40.40184715693671" lon="17.651964127086035"><ele>72.0</ele><time>2026-04-21T17:08:48.972Z</time></trkpt><trkpt lat="40.40182913575826" lon="17.651753754810727"><ele>72.0</ele><time>2026-04-21T17:08:49.972Z</time></trkpt><trkpt lat="40.401808311571216" lon="17.651565760612705"><ele>72.6</ele><time>2026-04-21T17:08:50.972Z</time></trkpt><trkpt lat="40.40179016402862" lon="17.651401609291337"><ele>73.2</ele><time>2026-04-21T17:08:51.972Z</time></trkpt><trkpt lat="40.40178192691995" lon="17.651270384989967"><ele>73.8</ele><time>2026-04-21T17:08:52.972Z</time></trkpt><trkpt lat="40.401774951126704" lon="17.65116249735915"><ele>74.4</ele><time>2026-04-21T17:08:53.972Z</time></trkpt><trkpt lat="40.401775070996045" lon="17.65107792456849"><ele>75.0</ele><time>2026-04-21T17:08:54.972Z</time></trkpt><trkpt lat="40.40180680664234" lon="17.650913685208426"><ele>75.75</ele><time>2026-04-21T17:08:56.972Z</time></trkpt><trkpt lat="40.401858190577315" lon="17.65082582519341"><ele>76.5</ele><time>2026-04-21T17:08:57.972Z</time></trkpt><trkpt lat="40.40193570180549" lon="17.650734583601448"><ele>77.25</ele><time>2026-04-21T17:08:58.972Z</time></trkpt><trkpt lat="40.40203037970308" lon="17.650636360687546"><ele>78.0</ele><time>2026-04-21T17:08:59.972Z</time></trkpt><trkpt lat="40.40215626486103" lon="17.650524492724696"><ele>77.66666666666667</ele><time>2026-04-21T17:09:00.972Z</time></trkpt><trkpt lat="40.40229443211134" lon="17.650399054288457"><ele>77.33333333333334</ele><time>2026-04-21T17:09:01.972Z</time></trkpt><trkpt lat="40.40244227050588" lon="17.650259506011"><ele>77.0</ele><time>2026-04-21T17:09:02.972Z</time></trkpt><trkpt lat="40.40259997388397" lon="17.65010727468859"><ele>77.0</ele><time>2026-04-21T17:09:03.972Z</time></trkpt><trkpt lat="40.402760556093014" lon="17.649942862379"><ele>77.0</ele><time>2026-04-21T17:09:04.972Z</time></trkpt><trkpt lat="40.40292441002361" lon="17.649778955428495"><ele>77.0</ele><time>2026-04-21T17:09:05.972Z</time></trkpt><trkpt lat="40.40308205643258" lon="17.649615418844185"><ele>77.0</ele><time>2026-04-21T17:09:06.972Z</time></trkpt><trkpt lat="40.40323191289349" lon="17.64947156154187"><ele>77.0</ele><time>2026-04-21T17:09:07.972Z</time></trkpt><trkpt lat="40.40336218283729" lon="17.64933709366203"><ele>77.0</ele><time>2026-04-21T17:09:08.972Z</time></trkpt><trkpt lat="40.4034901805439" lon="17.64920716861462"><ele>77.0</ele><time>2026-04-21T17:09:09.972Z</time></trkpt><trkpt lat="40.40361967534384" lon="17.64908018159345"><ele>77.0</ele><time>2026-04-21T17:09:10.972Z</time></trkpt><trkpt lat="40.403746503328776" lon="17.648960727813506"><ele>77.0</ele><time>2026-04-21T17:09:11.972Z</time></trkpt><trkpt lat="40.403871608144" lon="17.64884016996654"><ele>77.0</ele><time>2026-04-21T17:09:12.972Z</time></trkpt><trkpt lat="40.40399899919046" lon="17.64872142446769"><ele>77.0</ele><time>2026-04-21T17:09:13.972Z</time></trkpt><trkpt lat="40.40413159793732" lon="17.64859898300361"><ele>77.0</ele><time>2026-04-21T17:09:14.972Z</time></trkpt><trkpt lat="40.404266056709666" lon="17.64846925573666"><ele>77.0</ele><time>2026-04-21T17:09:15.972Z</time></trkpt><trkpt lat="40.404405381256346" lon="17.648339926927864"><ele>77.0</ele><time>2026-04-21T17:09:16.972Z</time></trkpt><trkpt lat="40.40454533669408" lon="17.64820771570404"><ele>77.0</ele><time>2026-04-21T17:09:17.972Z</time></trkpt><trkpt lat="40.40468639163345" lon="17.648069725955526"><ele>77.33333333333334</ele><time>2026-04-21T17:09:18.973Z</time></trkpt><trkpt lat="40.4048222716645" lon="17.647931998682612"><ele>77.66666666666667</ele><time>2026-04-21T17:09:19.972Z</time></trkpt><trkpt lat="40.404957785706905" lon="17.64778533029374"><ele>78.0</ele><time>2026-04-21T17:09:20.972Z</time></trkpt><trkpt lat="40.40509527808944" lon="17.647639569629668"><ele>78.0</ele><time>2026-04-21T17:09:21.973Z</time></trkpt><trkpt lat="40.40523017285303" lon="17.647492632665923"><ele>78.0</ele><time>2026-04-21T17:09:22.972Z</time></trkpt><trkpt lat="40.40536380073426" lon="17.647338501643688"><ele>78.0</ele><time>2026-04-21T17:09:23.972Z</time></trkpt><trkpt lat="40.4054984233955" lon="17.64717832811578"><ele>77.66666666666667</ele><time>2026-04-21T17:09:24.973Z</time></trkpt><trkpt lat="40.40563576184942" lon="17.64700876907799"><ele>77.33333333333334</ele><time>2026-04-21T17:09:25.972Z</time></trkpt><trkpt lat="40.40576866144789" lon="17.646840641516906"><ele>77.0</ele><time>2026-04-21T17:09:26.972Z</time></trkpt><trkpt lat="40.405897738685226" lon="17.646674855568705"><ele>77.0</ele><time>2026-04-21T17:09:27.972Z</time></trkpt><trkpt lat="40.40602874453441" lon="17.646514952838796"><ele>77.0</ele><time>2026-04-21T17:09:28.972Z</time></trkpt><trkpt lat="40.40613757868915" lon="17.646375359487262"><ele>77.0</ele><time>2026-04-21T17:09:29.972Z</time></trkpt><trkpt lat="40.40626579671199" lon="17.646214888289858"><ele>77.66666666666667</ele><time>2026-04-21T17:09:30.972Z</time></trkpt><trkpt lat="40.406388100252435" lon="17.646057422251424"><ele>78.33333333333333</ele><time>2026-04-21T17:09:31.972Z</time></trkpt><trkpt lat="40.4065155780968" lon="17.64589992114138"><ele>79.0</ele><time>2026-04-21T17:09:32.972Z</time></trkpt><trkpt lat="40.406643003819354" lon="17.645742818845832"><ele>79.0</ele><time>2026-04-21T17:09:33.972Z</time></trkpt><trkpt lat="40.4067708521032" lon="17.645594245322535"><ele>79.0</ele><time>2026-04-21T17:09:34.972Z</time></trkpt><trkpt lat="40.40689588630615" lon="17.64544357651225"><ele>79.0</ele><time>2026-04-21T17:09:35.972Z</time></trkpt><trkpt lat="40.40701903597997" lon="17.645292703430975"><ele>79.0</ele><time>2026-04-21T17:09:36.972Z</time></trkpt><trkpt lat="40.407139292526" lon="17.645141228908752"><ele>79.0</ele><time>2026-04-21T17:09:37.972Z</time></trkpt><trkpt lat="40.40725964939381" lon="17.64499565454267"><ele>79.0</ele><time>2026-04-21T17:09:38.972Z</time></trkpt><trkpt lat="40.40737816740587" lon="17.644848806469128"><ele>79.0</ele><time>2026-04-21T17:09:39.972Z</time></trkpt><trkpt lat="40.40749667314057" lon="17.64469917197892"><ele>79.0</ele><time>2026-04-21T17:09:40.972Z</time></trkpt><trkpt lat="40.40761058890089" lon="17.644546181980946"><ele>79.0</ele><time>2026-04-21T17:09:41.972Z</time></trkpt><trkpt lat="40.40772394585185" lon="17.644394241875315"><ele>79.0</ele><time>2026-04-21T17:09:42.972Z</time></trkpt><trkpt lat="40.40783235578177" lon="17.644236702858485"><ele>79.0</ele><time>2026-04-21T17:09:43.972Z</time></trkpt><trkpt lat="40.40793712358594" lon="17.644070872602374"><ele>79.0</ele><time>2026-04-21T17:09:44.972Z</time></trkpt><trkpt lat="40.40802914708651" lon="17.64390633524412"><ele>79.25</ele><time>2026-04-21T17:09:45.972Z</time></trkpt><trkpt lat="40.408107667179166" lon="17.64373581102385"><ele>79.5</ele><time>2026-04-21T17:09:46.972Z</time></trkpt><trkpt lat="40.4081696762923" lon="17.64356753864154"><ele>79.75</ele><time>2026-04-21T17:09:47.972Z</time></trkpt><trkpt lat="40.40822711126836" lon="17.64340112896513"><ele>80.0</ele><time>2026-04-21T17:09:48.972Z</time></trkpt><trkpt lat="40.40827085265547" lon="17.64324534948485"><ele>80.0</ele><time>2026-04-21T17:09:49.972Z</time></trkpt><trkpt lat="40.408302578924136" lon="17.643101533253127"><ele>80.0</ele><time>2026-04-21T17:09:50.972Z</time></trkpt><trkpt lat="40.408326404124445" lon="17.64297423514058"><ele>80.0</ele><time>2026-04-21T17:09:51.972Z</time></trkpt><trkpt lat="40.4083086400601" lon="17.64287420149592"><ele>80.0</ele><time>2026-04-21T17:09:52.972Z</time></trkpt><trkpt lat="40.40831999397331" lon="17.64278843146635"><ele>80.0</ele><time>2026-04-21T17:09:53.972Z</time></trkpt><trkpt lat="40.40832273843872" lon="17.642700080206012"><ele>80.0</ele><time>2026-04-21T17:09:54.972Z</time></trkpt><trkpt lat="40.40830886507229" lon="17.642613361052774"><ele>79.8</ele><time>2026-04-21T17:09:55.972Z</time></trkpt><trkpt lat="40.40833165746378" lon="17.642465442980413"><ele>79.6</ele><time>2026-04-21T17:09:57.972Z</time></trkpt><trkpt lat="40.408339733989145" lon="17.64235858917665"><ele>79.4</ele><time>2026-04-21T17:09:58.972Z</time></trkpt><trkpt lat="40.408326586907776" lon="17.64222021017215"><ele>79.2</ele><time>2026-04-21T17:09:59.972Z</time></trkpt><trkpt lat="40.40830730394969" lon="17.64206025606771"><ele>79.0</ele><time>2026-04-21T17:10:00.972Z</time></trkpt><trkpt lat="40.408300747505905" lon="17.64191339053055"><ele>78.8</ele><time>2026-04-21T17:10:01.972Z</time></trkpt><trkpt lat="40.40829478327456" lon="17.641794015847463"><ele>78.60000000000001</ele><time>2026-04-21T17:10:02.972Z</time></trkpt><trkpt lat="40.408281160808095" lon="17.641652961451598"><ele>78.4</ele><time>2026-04-21T17:10:03.972Z</time></trkpt><trkpt lat="40.40825226620461" lon="17.641496582917668"><ele>78.2</ele><time>2026-04-21T17:10:04.972Z</time></trkpt><trkpt lat="40.40821563789074" lon="17.641336546205476"><ele>78.0</ele><time>2026-04-21T17:10:05.972Z</time></trkpt><trkpt lat="40.40816772537183" lon="17.64117640583511"><ele>78.4</ele><time>2026-04-21T17:10:06.972Z</time></trkpt><trkpt lat="40.408117781508935" lon="17.641039575686076"><ele>78.8</ele><time>2026-04-21T17:10:07.972Z</time></trkpt><trkpt lat="40.40805972313969" lon="17.640918388830833"><ele>79.2</ele><time>2026-04-21T17:10:08.972Z</time></trkpt><trkpt lat="40.40800272513373" lon="17.640805508709974"><ele>79.6</ele><time>2026-04-21T17:10:09.972Z</time></trkpt><trkpt lat="40.40795073229823" lon="17.640705625625547"><ele>80.0</ele><time>2026-04-21T17:10:10.972Z</time></trkpt><trkpt lat="40.4078989791826" lon="17.640613086788793"><ele>80.0</ele><time>2026-04-21T17:10:11.972Z</time></trkpt><trkpt lat="40.407850856926395" lon="17.640523413801983"><ele>80.0</ele><time>2026-04-21T17:10:12.972Z</time></trkpt><trkpt lat="40.40779430235922" lon="17.64044576213405"><ele>80.0</ele><time>2026-04-21T17:10:13.972Z</time></trkpt><trkpt lat="40.40772300882176" lon="17.640355360389712"><ele>80.0</ele><time>2026-04-21T17:10:14.972Z</time></trkpt><trkpt lat="40.40763527717087" lon="17.64025461942589"><ele>80.0</ele><time>2026-04-21T17:10:15.972Z</time></trkpt><trkpt lat="40.407519109858434" lon="17.640135759185426"><ele>80.0</ele><time>2026-04-21T17:10:16.971Z</time></trkpt><trkpt lat="40.40738277577939" lon="17.639990871362766"><ele>80.0</ele><time>2026-04-21T17:10:17.971Z</time></trkpt><trkpt lat="40.40724391324397" lon="17.63984245588303"><ele>80.0</ele><time>2026-04-21T17:10:18.971Z</time></trkpt><trkpt lat="40.407126822212696" lon="17.639695068470605"><ele>80.0</ele><time>2026-04-21T17:10:19.971Z</time></trkpt><trkpt lat="40.40700912358193" lon="17.639581288245278"><ele>80.0</ele><time>2026-04-21T17:10:20.971Z</time></trkpt><trkpt lat="40.406897714837356" lon="17.639469405912653"><ele>80.0</ele><time>2026-04-21T17:10:21.971Z</time></trkpt><trkpt lat="40.40677795239285" lon="17.63936096963715"><ele>80.0</ele><time>2026-04-21T17:10:22.971Z</time></trkpt><trkpt lat="40.406663682720755" lon="17.63925304664449"><ele>80.0</ele><time>2026-04-21T17:10:23.971Z</time></trkpt><trkpt lat="40.40656161235082" lon="17.63914632981341"><ele>80.0</ele><time>2026-04-21T17:10:24.971Z</time></trkpt><trkpt lat="40.40646398561147" lon="17.63903558045321"><ele>80.0</ele><time>2026-04-21T17:10:25.971Z</time></trkpt><trkpt lat="40.40637251058595" lon="17.63893662644845"><ele>80.0</ele><time>2026-04-21T17:10:26.971Z</time></trkpt><trkpt lat="40.40628622183098" lon="17.638834764694767"><ele>80.0</ele><time>2026-04-21T17:10:27.971Z</time></trkpt><trkpt lat="40.40620338748567" lon="17.63872435059128"><ele>80.0</ele><time>2026-04-21T17:10:28.971Z</time></trkpt><trkpt lat="40.40612472480601" lon="17.638604719429868"><ele>80.0</ele><time>2026-04-21T17:10:29.971Z</time></trkpt><trkpt lat="40.40604130005579" lon="17.63850584639276"><ele>80.0</ele><time>2026-04-21T17:10:30.971Z</time></trkpt><trkpt lat="40.40597318834608" lon="17.63840932322411"><ele>80.33333333333334</ele><time>2026-04-21T17:10:31.971Z</time></trkpt><trkpt lat="40.40590369107231" lon="17.63831902336316"><ele>80.66666666666667</ele><time>2026-04-21T17:10:32.971Z</time></trkpt><trkpt lat="40.40583766027364" lon="17.63823442863002"><ele>81.0</ele><time>2026-04-21T17:10:33.971Z</time></trkpt><trkpt lat="40.40577889978609" lon="17.63816075734008"><ele>81.33333333333333</ele><time>2026-04-21T17:10:34.971Z</time></trkpt><trkpt lat="40.40571918047897" lon="17.638093761853998"><ele>81.66666666666666</ele><time>2026-04-21T17:10:35.971Z</time></trkpt><trkpt lat="40.40567552107881" lon="17.63801601886713"><ele>82.0</ele><time>2026-04-21T17:10:36.971Z</time></trkpt><trkpt lat="40.405636594490666" lon="17.637945598915056"><ele>82.0</ele><time>2026-04-21T17:10:37.971Z</time></trkpt><trkpt lat="40.40560444592785" lon="17.637867358787958"><ele>82.0</ele><time>2026-04-21T17:10:38.971Z</time></trkpt><trkpt lat="40.40558593773903" lon="17.63777537051091"><ele>82.0</ele><time>2026-04-21T17:10:39.971Z</time></trkpt><trkpt lat="40.40557252720999" lon="17.637663713967594"><ele>82.0</ele><time>2026-04-21T17:10:40.971Z</time></trkpt><trkpt lat="40.405571455845184" lon="17.637533421146205"><ele>82.0</ele><time>2026-04-21T17:10:41.971Z</time></trkpt><trkpt lat="40.40556503704643" lon="17.63738286715452"><ele>82.0</ele><time>2026-04-21T17:10:42.971Z</time></trkpt><trkpt lat="40.40555735772887" lon="17.637234244581872"><ele>82.39999999999999</ele><time>2026-04-21T17:10:43.971Z</time></trkpt><trkpt lat="40.40554816069629" lon="17.637096639165364"><ele>82.8</ele><time>2026-04-21T17:10:44.971Z</time></trkpt><trkpt lat="40.40554242878323" lon="17.636968561419323"><ele>83.2</ele><time>2026-04-21T17:10:45.971Z</time></trkpt><trkpt lat="40.405539830125136" lon="17.636836401611127"><ele>83.6</ele><time>2026-04-21T17:10:46.971Z</time></trkpt><trkpt lat="40.40554228786572" lon="17.63670385968789"><ele>84.0</ele><time>2026-04-21T17:10:47.971Z</time></trkpt><trkpt lat="40.405552868868654" lon="17.636574611359155"><ele>84.0</ele><time>2026-04-21T17:10:48.971Z</time></trkpt><trkpt lat="40.405565983795" lon="17.636458654469905"><ele>84.0</ele><time>2026-04-21T17:10:49.971Z</time></trkpt><trkpt lat="40.405590603315886" lon="17.63634764641467"><ele>84.0</ele><time>2026-04-21T17:10:50.971Z</time></trkpt><trkpt lat="40.405614748969114" lon="17.636244013956333"><ele>84.0</ele><time>2026-04-21T17:10:51.971Z</time></trkpt><trkpt lat="40.40563670810949" lon="17.63614539350793"><ele>84.0</ele><time>2026-04-21T17:10:52.971Z</time></trkpt><trkpt lat="40.405666970857894" lon="17.63605180702643"><ele>84.0</ele><time>2026-04-21T17:10:53.971Z</time></trkpt><trkpt lat="40.40569294509016" lon="17.6359545101983"><ele>83.66666666666667</ele><time>2026-04-21T17:10:54.971Z</time></trkpt><trkpt lat="40.40571898533476" lon="17.635866994265204"><ele>83.33333333333333</ele><time>2026-04-21T17:10:55.971Z</time></trkpt><trkpt lat="40.40574663300197" lon="17.63577685232464"><ele>83.0</ele><time>2026-04-21T17:10:56.971Z</time></trkpt><trkpt lat="40.40576804598156" lon="17.635697435122133"><ele>82.66666666666666</ele><time>2026-04-21T17:10:57.971Z</time></trkpt><trkpt lat="40.40580526038001" lon="17.635573477592125"><ele>82.33333333333333</ele><time>2026-04-21T17:10:59.971Z</time></trkpt><trkpt lat="40.405844960431416" lon="17.635483208227946"><ele>82.0</ele><time>2026-04-21T17:11:01.971Z</time></trkpt><trkpt lat="40.40588281552641" lon="17.635380849753492"><ele>82.19999999999999</ele><time>2026-04-21T17:11:08.971Z</time></trkpt><trkpt lat="40.40595192334706" lon="17.635275045587278"><ele>82.4</ele><time>2026-04-21T17:11:10.971Z</time></trkpt><trkpt lat="40.40602769984448" lon="17.63515545937641"><ele>82.6</ele><time>2026-04-21T17:11:12.971Z</time></trkpt><trkpt lat="40.40612553956353" lon="17.63503397385768"><ele>82.80000000000001</ele><time>2026-04-21T17:11:14.971Z</time></trkpt><trkpt lat="40.40618063948627" lon="17.63496450406201"><ele>83.0</ele><time>2026-04-21T17:11:15.971Z</time></trkpt><trkpt lat="40.40623873157214" lon="17.63489543689303"><ele>83.0</ele><time>2026-04-21T17:11:16.971Z</time></trkpt><trkpt lat="40.40630218950983" lon="17.634822340899635"><ele>83.0</ele><time>2026-04-21T17:11:17.971Z</time></trkpt><trkpt lat="40.40637118844344" lon="17.63472687881285"><ele>83.0</ele><time>2026-04-21T17:11:18.971Z</time></trkpt><trkpt lat="40.40644227555943" lon="17.634639402125583"><ele>83.0</ele><time>2026-04-21T17:11:19.971Z</time></trkpt><trkpt lat="40.406518666689145" lon="17.634575246665722"><ele>83.0</ele><time>2026-04-21T17:11:20.971Z</time></trkpt><trkpt lat="40.406588075193525" lon="17.634497814785203"><ele>83.2</ele><time>2026-04-21T17:11:21.971Z</time></trkpt><trkpt lat="40.40665484359124" lon="17.634415708496306"><ele>83.4</ele><time>2026-04-21T17:11:22.971Z</time></trkpt><trkpt lat="40.40673222893771" lon="17.634331571449373"><ele>83.60000000000001</ele><time>2026-04-21T17:11:23.971Z</time></trkpt><trkpt lat="40.40680280474328" lon="17.634253826458135"><ele>83.80000000000001</ele><time>2026-04-21T17:11:24.972Z</time></trkpt><trkpt lat="40.40687119893556" lon="17.6341730886698"><ele>84.0</ele><time>2026-04-21T17:11:25.972Z</time></trkpt><trkpt lat="40.4069442681894" lon="17.634087048581325"><ele>84.0</ele><time>2026-04-21T17:11:26.972Z</time></trkpt><trkpt lat="40.40701974806274" lon="17.63399611120311"><ele>84.0</ele><time>2026-04-21T17:11:27.972Z</time></trkpt><trkpt lat="40.40709903365356" lon="17.63390662561874"><ele>84.0</ele><time>2026-04-21T17:11:28.972Z</time></trkpt><trkpt lat="40.40718952145681" lon="17.633819739086615"><ele>84.0</ele><time>2026-04-21T17:11:29.972Z</time></trkpt><trkpt lat="40.40728000749642" lon="17.633731371561584"><ele>84.0</ele><time>2026-04-21T17:11:30.972Z</time></trkpt><trkpt lat="40.40735544510902" lon="17.633649557337762"><ele>84.0</ele><time>2026-04-21T17:11:31.972Z</time></trkpt><trkpt lat="40.4074231709662" lon="17.6335629739863"><ele>84.0</ele><time>2026-04-21T17:11:32.972Z</time></trkpt><trkpt lat="40.4075007604034" lon="17.63347709830832"><ele>84.0</ele><time>2026-04-21T17:11:33.972Z</time></trkpt><trkpt lat="40.40758328669435" lon="17.633390839587673"><ele>84.0</ele><time>2026-04-21T17:11:34.972Z</time></trkpt><trkpt lat="40.407654516498134" lon="17.6333094430784"><ele>84.0</ele><time>2026-04-21T17:11:35.972Z</time></trkpt><trkpt lat="40.40772580173303" lon="17.633228418466135"><ele>84.0</ele><time>2026-04-21T17:11:36.971Z</time></trkpt><trkpt lat="40.40779867458473" lon="17.633152871209393"><ele>84.0</ele><time>2026-04-21T17:11:37.972Z</time></trkpt><trkpt lat="40.407877437469004" lon="17.633064329788418"><ele>84.0</ele><time>2026-04-21T17:11:38.972Z</time></trkpt><trkpt lat="40.40795590269098" lon="17.632977040331046"><ele>84.0</ele><time>2026-04-21T17:11:39.972Z</time></trkpt><trkpt lat="40.40803071174473" lon="17.632886399559766"><ele>84.0</ele><time>2026-04-21T17:11:40.972Z</time></trkpt><trkpt lat="40.408105945958205" lon="17.63280715193644"><ele>83.80000000000001</ele><time>2026-04-21T17:11:41.972Z</time></trkpt><trkpt lat="40.408182268041955" lon="17.63272515229726"><ele>83.60000000000001</ele><time>2026-04-21T17:11:42.972Z</time></trkpt><trkpt lat="40.40826374206258" lon="17.632645818335604"><ele>83.4</ele><time>2026-04-21T17:11:43.972Z</time></trkpt><trkpt lat="40.408341151348836" lon="17.632562793309354"><ele>83.2</ele><time>2026-04-21T17:11:44.972Z</time></trkpt><trkpt lat="40.40841904308174" lon="17.632474962658716"><ele>83.0</ele><time>2026-04-21T17:11:45.972Z</time></trkpt><trkpt lat="40.40849849277952" lon="17.632383968743543"><ele>83.0</ele><time>2026-04-21T17:11:46.972Z</time></trkpt><trkpt lat="40.40858428609148" lon="17.632303877665674"><ele>83.0</ele><time>2026-04-21T17:11:47.972Z</time></trkpt><trkpt lat="40.40866969358008" lon="17.63221666038401"><ele>83.0</ele><time>2026-04-21T17:11:48.972Z</time></trkpt><trkpt lat="40.408758408207376" lon="17.632137218218013"><ele>83.0</ele><time>2026-04-21T17:11:49.972Z</time></trkpt><trkpt lat="40.40884476839931" lon="17.632047407869404"><ele>83.0</ele><time>2026-04-21T17:11:50.972Z</time></trkpt><trkpt lat="40.408937987177175" lon="17.631954147754186"><ele>83.0</ele><time>2026-04-21T17:11:51.972Z</time></trkpt><trkpt lat="40.40903512771655" lon="17.63185349394053"><ele>83.0</ele><time>2026-04-21T17:11:52.972Z</time></trkpt><trkpt lat="40.40913326414549" lon="17.63176083640488"><ele>83.0</ele><time>2026-04-21T17:11:53.972Z</time></trkpt><trkpt lat="40.40922055326022" lon="17.631681479008215"><ele>83.0</ele><time>2026-04-21T17:11:54.972Z</time></trkpt><trkpt lat="40.40930240947855" lon="17.631604757486773"><ele>83.0</ele><time>2026-04-21T17:11:55.972Z</time></trkpt><trkpt lat="40.40938071378462" lon="17.631532037160156"><ele>83.0</ele><time>2026-04-21T17:11:56.972Z</time></trkpt><trkpt lat="40.40945540212344" lon="17.63146354599902"><ele>83.0</ele><time>2026-04-21T17:11:57.972Z</time></trkpt><trkpt lat="40.4095256272289" lon="17.63140640906278"><ele>83.0</ele><time>2026-04-21T17:11:58.972Z</time></trkpt><trkpt lat="40.409593861920115" lon="17.63135234285714"><ele>83.0</ele><time>2026-04-21T17:11:59.972Z</time></trkpt><trkpt lat="40.40965172057243" lon="17.63130489748874"><ele>83.0</ele><time>2026-04-21T17:12:00.972Z</time></trkpt><trkpt lat="40.40972982130986" lon="17.631266521873847"><ele>83.0</ele><time>2026-04-21T17:12:02.972Z</time></trkpt><trkpt lat="40.40981545570036" lon="17.631241889837586"><ele>83.0</ele><time>2026-04-21T17:12:05.972Z</time></trkpt><trkpt lat="40.409907206146066" lon="17.631209731711053"><ele>83.0</ele><time>2026-04-21T17:12:07.972Z</time></trkpt><trkpt lat="40.409972032014764" lon="17.631191428902245"><ele>83.0</ele><time>2026-04-21T17:12:08.972Z</time></trkpt><trkpt lat="40.41004816731281" lon="17.631152916776323"><ele>83.0</ele><time>2026-04-21T17:12:09.972Z</time></trkpt><trkpt lat="40.410137965235975" lon="17.631125414194766"><ele>83.0</ele><time>2026-04-21T17:12:10.972Z</time></trkpt><trkpt lat="40.410239464009955" lon="17.631135280532952"><ele>83.25</ele><time>2026-04-21T17:12:11.972Z</time></trkpt><trkpt lat="40.41036676810657" lon="17.631151530138187"><ele>83.5</ele><time>2026-04-21T17:12:12.972Z</time></trkpt><trkpt lat="40.41049770380621" lon="17.631165391993576"><ele>83.75</ele><time>2026-04-21T17:12:13.972Z</time></trkpt><trkpt lat="40.41065148961728" lon="17.631184709659944"><ele>84.0</ele><time>2026-04-21T17:12:14.972Z</time></trkpt><trkpt lat="40.41082628715066" lon="17.631207063845675"><ele>84.0</ele><time>2026-04-21T17:12:15.972Z</time></trkpt><trkpt lat="40.41101330835156" lon="17.631240369466372"><ele>84.0</ele><time>2026-04-21T17:12:16.972Z</time></trkpt><trkpt lat="40.41120301473281" lon="17.631275109838786"><ele>84.0</ele><time>2026-04-21T17:12:17.972Z</time></trkpt><trkpt lat="40.411392899400546" lon="17.631305534179756"><ele>83.66666666666667</ele><time>2026-04-21T17:12:18.972Z</time></trkpt><trkpt lat="40.41156813428565" lon="17.6313340410495"><ele>83.33333333333334</ele><time>2026-04-21T17:12:19.972Z</time></trkpt><trkpt lat="40.41172535146727" lon="17.631358116436967"><ele>83.0</ele><time>2026-04-21T17:12:20.972Z</time></trkpt><trkpt lat="40.411864421129565" lon="17.631380083233804"><ele>83.0</ele><time>2026-04-21T17:12:21.972Z</time></trkpt><trkpt lat="40.41198889334228" lon="17.631403323456407"><ele>83.0</ele><time>2026-04-21T17:12:22.972Z</time></trkpt><trkpt lat="40.412117175161946" lon="17.63142556286707"><ele>83.0</ele><time>2026-04-21T17:12:23.972Z</time></trkpt><trkpt lat="40.41224691021341" lon="17.63145236289495"><ele>83.0</ele><time>2026-04-21T17:12:24.972Z</time></trkpt><trkpt lat="40.41238703951007" lon="17.631489057222492"><ele>83.0</ele><time>2026-04-21T17:12:25.972Z</time></trkpt><trkpt lat="40.412544430277165" lon="17.631526533744225"><ele>83.0</ele><time>2026-04-21T17:12:26.971Z</time></trkpt><trkpt lat="40.41271830199115" lon="17.631543741639874"><ele>83.0</ele><time>2026-04-21T17:12:27.971Z</time></trkpt><trkpt lat="40.41290549786953" lon="17.63155473517459"><ele>83.66666666666667</ele><time>2026-04-21T17:12:28.971Z</time></trkpt><trkpt lat="40.413101470319305" lon="17.631568485075714"><ele>84.33333333333333</ele><time>2026-04-21T17:12:29.971Z</time></trkpt><trkpt lat="40.413300390363666" lon="17.631583377322734"><ele>85.0</ele><time>2026-04-21T17:12:30.971Z</time></trkpt><trkpt lat="40.413506794057795" lon="17.63160179290865"><ele>85.0</ele><time>2026-04-21T17:12:31.971Z</time></trkpt><trkpt lat="40.41372322032961" lon="17.631628597060743"><ele>85.0</ele><time>2026-04-21T17:12:32.971Z</time></trkpt><trkpt lat="40.413938109008555" lon="17.6316413996742"><ele>85.0</ele><time>2026-04-21T17:12:33.971Z</time></trkpt><trkpt lat="40.41416400646352" lon="17.63166262359914"><ele>84.66666666666666</ele><time>2026-04-21T17:12:34.971Z</time></trkpt><trkpt lat="40.41438501898402" lon="17.63170198086497"><ele>84.33333333333333</ele><time>2026-04-21T17:12:35.971Z</time></trkpt><trkpt lat="40.41460303234309" lon="17.63175382117122"><ele>84.0</ele><time>2026-04-21T17:12:36.971Z</time></trkpt><trkpt lat="40.414818180187055" lon="17.631798246905046"><ele>83.66666666666667</ele><time>2026-04-21T17:12:37.971Z</time></trkpt><trkpt lat="40.415036677076905" lon="17.631845858109"><ele>83.33333333333334</ele><time>2026-04-21T17:12:38.971Z</time></trkpt><trkpt lat="40.41525744921971" lon="17.631889371420122"><ele>83.0</ele><time>2026-04-21T17:12:39.971Z</time></trkpt><trkpt lat="40.41548095527969" lon="17.63192763281018"><ele>83.0</ele><time>2026-04-21T17:12:40.971Z</time></trkpt><trkpt lat="40.41570194488859" lon="17.63196140514095"><ele>83.0</ele><time>2026-04-21T17:12:41.971Z</time></trkpt><trkpt lat="40.41592646365503" lon="17.631998865875907"><ele>83.0</ele><time>2026-04-21T17:12:42.971Z</time></trkpt><trkpt lat="40.41615356998803" lon="17.63203770893794"><ele>83.0</ele><time>2026-04-21T17:12:43.971Z</time></trkpt><trkpt lat="40.41638074658949" lon="17.63208042436803"><ele>83.0</ele><time>2026-04-21T17:12:44.971Z</time></trkpt><trkpt lat="40.41660490028158" lon="17.63211754682464"><ele>83.0</ele><time>2026-04-21T17:12:45.971Z</time></trkpt><trkpt lat="40.41682762249133" lon="17.632147270968137"><ele>83.0</ele><time>2026-04-21T17:12:46.971Z</time></trkpt><trkpt lat="40.41705524837365" lon="17.632180573923126"><ele>83.5</ele><time>2026-04-21T17:12:47.971Z</time></trkpt><trkpt lat="40.41728350561111" lon="17.632212361372968"><ele>84.0</ele><time>2026-04-21T17:12:48.971Z</time></trkpt><trkpt lat="40.417524210985654" lon="17.63225439167491"><ele>84.0</ele><time>2026-04-21T17:12:49.971Z</time></trkpt><trkpt lat="40.41774697708851" lon="17.632289616697584"><ele>84.0</ele><time>2026-04-21T17:12:50.971Z</time></trkpt><trkpt lat="40.41789371530998" lon="17.632276143129705"><ele>84.0</ele><time>2026-04-21T17:12:51.971Z</time></trkpt><trkpt lat="40.41806407224044" lon="17.63229823782905"><ele>84.5</ele><time>2026-04-21T17:12:52.971Z</time></trkpt><trkpt lat="40.418219281268996" lon="17.632318948130465"><ele>85.0</ele><time>2026-04-21T17:12:53.971Z</time></trkpt><trkpt lat="40.418356652178865" lon="17.632341448619613"><ele>85.5</ele><time>2026-04-21T17:12:54.971Z</time></trkpt><trkpt lat="40.41847448025518" lon="17.632360735687445"><ele>86.0</ele><time>2026-04-21T17:12:55.971Z</time></trkpt><trkpt lat="40.41858984435084" lon="17.63237807076516"><ele>86.0</ele><time>2026-04-21T17:12:56.971Z</time></trkpt><trkpt lat="40.41870345684878" lon="17.632394996267287"><ele>86.0</ele><time>2026-04-21T17:12:57.971Z</time></trkpt><trkpt lat="40.4188291339318" lon="17.632414307152303"><ele>86.0</ele><time>2026-04-21T17:12:58.971Z</time></trkpt><trkpt lat="40.418970366560046" lon="17.632434569732496"><ele>86.0</ele><time>2026-04-21T17:12:59.971Z</time></trkpt><trkpt lat="40.41911961089152" lon="17.63245969540323"><ele>85.0</ele><time>2026-04-21T17:13:00.971Z</time></trkpt><trkpt lat="40.419278809388" lon="17.632485792472167"><ele>84.0</ele><time>2026-04-21T17:13:01.971Z</time></trkpt><trkpt lat="40.419448575580546" lon="17.632512803392135"><ele>83.0</ele><time>2026-04-21T17:13:02.971Z</time></trkpt><trkpt lat="40.419626156364885" lon="17.63253769880459"><ele>83.0</ele><time>2026-04-21T17:13:03.971Z</time></trkpt><trkpt lat="40.41981284240564" lon="17.632566793947085"><ele>83.0</ele><time>2026-04-21T17:13:04.971Z</time></trkpt><trkpt lat="40.42000572315956" lon="17.63259383547014"><ele>83.0</ele><time>2026-04-21T17:13:05.971Z</time></trkpt><trkpt lat="40.42020700428905" lon="17.632625512850666"><ele>83.0</ele><time>2026-04-21T17:13:06.971Z</time></trkpt><trkpt lat="40.420411858201746" lon="17.632657146835374"><ele>83.0</ele><time>2026-04-21T17:13:07.971Z</time></trkpt><trkpt lat="40.420620449608215" lon="17.632686337642003"><ele>83.0</ele><time>2026-04-21T17:13:08.971Z</time></trkpt><trkpt lat="40.42083592452944" lon="17.632715841523655"><ele>83.33333333333334</ele><time>2026-04-21T17:13:09.971Z</time></trkpt><trkpt lat="40.42105261740157" lon="17.632748126011"><ele>83.66666666666667</ele><time>2026-04-21T17:13:10.971Z</time></trkpt><trkpt lat="40.421269633042826" lon="17.632782651586567"><ele>84.0</ele><time>2026-04-21T17:13:11.971Z</time></trkpt><trkpt lat="40.42148845087854" lon="17.632814806850284"><ele>84.0</ele><time>2026-04-21T17:13:12.971Z</time></trkpt><trkpt lat="40.4217199328509" lon="17.632847538057927"><ele>84.0</ele><time>2026-04-21T17:13:13.971Z</time></trkpt><trkpt lat="40.421939296386874" lon="17.63288308424582"><ele>83.66666666666667</ele><time>2026-04-21T17:13:14.971Z</time></trkpt><trkpt lat="40.42215957025631" lon="17.632916000254845"><ele>83.33333333333334</ele><time>2026-04-21T17:13:15.971Z</time></trkpt><trkpt lat="40.42237319377972" lon="17.632948703249735"><ele>83.0</ele><time>2026-04-21T17:13:16.971Z</time></trkpt><trkpt lat="40.42259025683636" lon="17.63297790853722"><ele>83.0</ele><time>2026-04-21T17:13:17.971Z</time></trkpt><trkpt lat="40.42280844926446" lon="17.633008796433412"><ele>83.0</ele><time>2026-04-21T17:13:18.971Z</time></trkpt><trkpt lat="40.42302344049132" lon="17.63304459677884"><ele>83.0</ele><time>2026-04-21T17:13:19.971Z</time></trkpt><trkpt lat="40.42323377137393" lon="17.633082214923885"><ele>83.33333333333334</ele><time>2026-04-21T17:13:20.971Z</time></trkpt><trkpt lat="40.423447935966465" lon="17.633113075985907"><ele>83.66666666666667</ele><time>2026-04-21T17:13:21.971Z</time></trkpt><trkpt lat="40.42366656946654" lon="17.633145863507128"><ele>84.0</ele><time>2026-04-21T17:13:22.971Z</time></trkpt><trkpt lat="40.42387888540652" lon="17.63318056455396"><ele>82.66666666666667</ele><time>2026-04-21T17:13:23.971Z</time></trkpt><trkpt lat="40.42408959209112" lon="17.63321437156414"><ele>81.33333333333334</ele><time>2026-04-21T17:13:24.971Z</time></trkpt><trkpt lat="40.424301917135" lon="17.633245947301564"><ele>80.0</ele><time>2026-04-21T17:13:25.971Z</time></trkpt><trkpt lat="40.42451607459376" lon="17.633278457916145"><ele>80.33333333333334</ele><time>2026-04-21T17:13:26.971Z</time></trkpt><trkpt lat="40.42472443847246" lon="17.633309874035664"><ele>80.66666666666667</ele><time>2026-04-21T17:13:27.971Z</time></trkpt><trkpt lat="40.424932403079325" lon="17.633339998017163"><ele>81.0</ele><time>2026-04-21T17:13:28.971Z</time></trkpt><trkpt lat="40.42514167337901" lon="17.63336552494784"><ele>81.0</ele><time>2026-04-21T17:13:29.971Z</time></trkpt><trkpt lat="40.425350387379275" lon="17.633400257634413"><ele>81.0</ele><time>2026-04-21T17:13:30.972Z</time></trkpt><trkpt lat="40.42556020570967" lon="17.633428544845195"><ele>81.0</ele><time>2026-04-21T17:13:31.971Z</time></trkpt><trkpt lat="40.42576765845756" lon="17.63345661820857"><ele>81.66666666666667</ele><time>2026-04-21T17:13:32.971Z</time></trkpt><trkpt lat="40.42598222752542" lon="17.633496131984312"><ele>82.33333333333334</ele><time>2026-04-21T17:13:33.972Z</time></trkpt><trkpt lat="40.42619729173406" lon="17.633540091603994"><ele>83.0</ele><time>2026-04-21T17:13:34.972Z</time></trkpt><trkpt lat="40.42640809996015" lon="17.633570650569876"><ele>83.0</ele><time>2026-04-21T17:13:35.972Z</time></trkpt><trkpt lat="40.426599538236886" lon="17.63357962540765"><ele>83.0</ele><time>2026-04-21T17:13:36.972Z</time></trkpt><trkpt lat="40.42679881864901" lon="17.633606853233704"><ele>83.0</ele><time>2026-04-21T17:13:37.972Z</time></trkpt><trkpt lat="40.42701076959521" lon="17.63364427937512"><ele>83.33333333333334</ele><time>2026-04-21T17:13:38.972Z</time></trkpt><trkpt lat="40.427218868352405" lon="17.633671210641772"><ele>83.66666666666667</ele><time>2026-04-21T17:13:39.971Z</time></trkpt><trkpt lat="40.42743324007154" lon="17.633699918768013"><ele>84.0</ele><time>2026-04-21T17:13:40.971Z</time></trkpt><trkpt lat="40.42764297166504" lon="17.633728882232397"><ele>84.0</ele><time>2026-04-21T17:13:41.971Z</time></trkpt><trkpt lat="40.42785703055109" lon="17.633764959161514"><ele>84.0</ele><time>2026-04-21T17:13:42.971Z</time></trkpt><trkpt lat="40.42807142228309" lon="17.633795944083836"><ele>84.0</ele><time>2026-04-21T17:13:43.972Z</time></trkpt><trkpt lat="40.42828369735596" lon="17.63382769061721"><ele>84.0</ele><time>2026-04-21T17:13:44.972Z</time></trkpt><trkpt lat="40.42850043753141" lon="17.633845889502698"><ele>84.0</ele><time>2026-04-21T17:13:45.972Z</time></trkpt><trkpt lat="40.42871406823513" lon="17.633880517613516"><ele>84.0</ele><time>2026-04-21T17:13:46.972Z</time></trkpt><trkpt lat="40.428926131308486" lon="17.633915897426117"><ele>83.66666666666667</ele><time>2026-04-21T17:13:47.972Z</time></trkpt><trkpt lat="40.429142705541445" lon="17.633949736157756"><ele>83.33333333333334</ele><time>2026-04-21T17:13:48.972Z</time></trkpt><trkpt lat="40.42936003460788" lon="17.6339835009799"><ele>83.0</ele><time>2026-04-21T17:13:49.972Z</time></trkpt><trkpt lat="40.42957789760438" lon="17.634014452212185"><ele>82.33333333333334</ele><time>2026-04-21T17:13:50.972Z</time></trkpt><trkpt lat="40.429795412176055" lon="17.634050309074198"><ele>81.66666666666667</ele><time>2026-04-21T17:13:51.972Z</time></trkpt><trkpt lat="40.43001297551038" lon="17.634082247034318"><ele>81.0</ele><time>2026-04-21T17:13:52.972Z</time></trkpt><trkpt lat="40.43022866446058" lon="17.634124239782754"><ele>81.0</ele><time>2026-04-21T17:13:53.972Z</time></trkpt><trkpt lat="40.430448256114104" lon="17.63415772462625"><ele>81.0</ele><time>2026-04-21T17:13:54.972Z</time></trkpt><trkpt lat="40.43066751841709" lon="17.63418815748367"><ele>81.0</ele><time>2026-04-21T17:13:55.972Z</time></trkpt><trkpt lat="40.43088821989205" lon="17.634219496502077"><ele>81.0</ele><time>2026-04-21T17:13:56.972Z</time></trkpt><trkpt lat="40.43110403943969" lon="17.634255008712763"><ele>81.0</ele><time>2026-04-21T17:13:57.972Z</time></trkpt><trkpt lat="40.43132204430684" lon="17.63428493811705"><ele>81.0</ele><time>2026-04-21T17:13:58.972Z</time></trkpt><trkpt lat="40.43154000226272" lon="17.634315968836386"><ele>81.0</ele><time>2026-04-21T17:13:59.972Z</time></trkpt><trkpt lat="40.43175574648682" lon="17.634347626232856"><ele>81.0</ele><time>2026-04-21T17:14:00.972Z</time></trkpt><trkpt lat="40.431970843432" lon="17.634379401232216"><ele>81.0</ele><time>2026-04-21T17:14:01.972Z</time></trkpt><trkpt lat="40.4321863076388" lon="17.634416038052397"><ele>81.0</ele><time>2026-04-21T17:14:02.971Z</time></trkpt><trkpt lat="40.43240272184902" lon="17.634444039223734"><ele>81.0</ele><time>2026-04-21T17:14:03.971Z</time></trkpt><trkpt lat="40.43262283190771" lon="17.634475426607988"><ele>81.0</ele><time>2026-04-21T17:14:04.971Z</time></trkpt><trkpt lat="40.432837712252216" lon="17.63450860496898"><ele>80.66666666666667</ele><time>2026-04-21T17:14:05.971Z</time></trkpt><trkpt lat="40.433051488103864" lon="17.634540537275157"><ele>80.33333333333334</ele><time>2026-04-21T17:14:06.971Z</time></trkpt><trkpt lat="40.433267441310896" lon="17.634570676305515"><ele>80.0</ele><time>2026-04-21T17:14:07.971Z</time></trkpt><trkpt lat="40.43348254177324" lon="17.63459982974371"><ele>80.0</ele><time>2026-04-21T17:14:08.971Z</time></trkpt><trkpt lat="40.433702503606874" lon="17.634630436311642"><ele>80.0</ele><time>2026-04-21T17:14:09.971Z</time></trkpt><trkpt lat="40.43391541782219" lon="17.634661251588483"><ele>80.0</ele><time>2026-04-21T17:14:10.971Z</time></trkpt><trkpt lat="40.43413001122518" lon="17.63469890501831"><ele>81.0</ele><time>2026-04-21T17:14:11.971Z</time></trkpt><trkpt lat="40.43434743961185" lon="17.63473325309329"><ele>82.0</ele><time>2026-04-21T17:14:12.971Z</time></trkpt><trkpt lat="40.434562007517684" lon="17.634766804649054"><ele>83.0</ele><time>2026-04-21T17:14:13.971Z</time></trkpt><trkpt lat="40.43477748658826" lon="17.634798487876843"><ele>83.0</ele><time>2026-04-21T17:14:14.971Z</time></trkpt><trkpt lat="40.43499502138438" lon="17.634831463058465"><ele>83.0</ele><time>2026-04-21T17:14:15.971Z</time></trkpt><trkpt lat="40.43521001219054" lon="17.634864323376892"><ele>83.0</ele><time>2026-04-21T17:14:16.971Z</time></trkpt><trkpt lat="40.435429651148006" lon="17.634899945246296"><ele>81.66666666666667</ele><time>2026-04-21T17:14:17.971Z</time></trkpt><trkpt lat="40.43565057914231" lon="17.634928671789442"><ele>80.33333333333333</ele><time>2026-04-21T17:14:18.971Z</time></trkpt><trkpt lat="40.43586746283276" lon="17.634959167096667"><ele>79.0</ele><time>2026-04-21T17:14:19.971Z</time></trkpt><trkpt lat="40.43608514322034" lon="17.634990915859717"><ele>79.0</ele><time>2026-04-21T17:14:20.971Z</time></trkpt><trkpt lat="40.43630241680066" lon="17.63502203782305"><ele>79.0</ele><time>2026-04-21T17:14:21.971Z</time></trkpt><trkpt lat="40.43651791004187" lon="17.635055889642985"><ele>79.0</ele><time>2026-04-21T17:14:22.971Z</time></trkpt><trkpt lat="40.43673401960056" lon="17.63509099900017"><ele>79.33333333333333</ele><time>2026-04-21T17:14:23.971Z</time></trkpt><trkpt lat="40.43695022689213" lon="17.63512875002501"><ele>79.66666666666667</ele><time>2026-04-21T17:14:24.971Z</time></trkpt><trkpt lat="40.43716546821149" lon="17.635161554047528"><ele>80.0</ele><time>2026-04-21T17:14:25.971Z</time></trkpt><trkpt lat="40.437379345798426" lon="17.635195612277123"><ele>80.33333333333334</ele><time>2026-04-21T17:14:26.971Z</time></trkpt><trkpt lat="40.437585932265925" lon="17.635224156630677"><ele>80.66666666666667</ele><time>2026-04-21T17:14:27.971Z</time></trkpt><trkpt lat="40.437794990335455" lon="17.63525604819054"><ele>81.0</ele><time>2026-04-21T17:14:28.971Z</time></trkpt><trkpt lat="40.43800726662599" lon="17.63529455430969"><ele>80.66666666666667</ele><time>2026-04-21T17:14:29.971Z</time></trkpt><trkpt lat="40.43821099290089" lon="17.635322954172246"><ele>80.33333333333334</ele><time>2026-04-21T17:14:30.971Z</time></trkpt><trkpt lat="40.43842043686517" lon="17.635353221986524"><ele>80.0</ele><time>2026-04-21T17:14:31.971Z</time></trkpt><trkpt lat="40.43862227757605" lon="17.635376106175894"><ele>80.66666666666667</ele><time>2026-04-21T17:14:32.971Z</time></trkpt><trkpt lat="40.43883095134902" lon="17.63539655901776"><ele>81.33333333333333</ele><time>2026-04-21T17:14:33.971Z</time></trkpt><trkpt lat="40.43904265090575" lon="17.63543622449891"><ele>82.0</ele><time>2026-04-21T17:14:34.971Z</time></trkpt><trkpt lat="40.43924790351001" lon="17.635470830832062"><ele>82.0</ele><time>2026-04-21T17:14:35.971Z</time></trkpt><trkpt lat="40.43945558622066" lon="17.63550555823596"><ele>82.0</ele><time>2026-04-21T17:14:36.971Z</time></trkpt><trkpt lat="40.43966208398836" lon="17.635536997625515"><ele>82.0</ele><time>2026-04-21T17:14:37.971Z</time></trkpt><trkpt lat="40.439868526796865" lon="17.635568804617456"><ele>82.0</ele><time>2026-04-21T17:14:38.971Z</time></trkpt><trkpt lat="40.44007163711365" lon="17.635602865495375"><ele>82.0</ele><time>2026-04-21T17:14:39.971Z</time></trkpt><trkpt lat="40.440274308785085" lon="17.63563040595665"><ele>82.0</ele><time>2026-04-21T17:14:40.971Z</time></trkpt><trkpt lat="40.440474588205106" lon="17.635662154733666"><ele>82.33333333333333</ele><time>2026-04-21T17:14:41.971Z</time></trkpt><trkpt lat="40.44067710505478" lon="17.63569022526854"><ele>82.66666666666667</ele><time>2026-04-21T17:14:42.971Z</time></trkpt><trkpt lat="40.440875325787886" lon="17.635716739845353"><ele>83.0</ele><time>2026-04-21T17:14:43.971Z</time></trkpt><trkpt lat="40.44107604113677" lon="17.63575366832753"><ele>83.0</ele><time>2026-04-21T17:14:44.971Z</time></trkpt><trkpt lat="40.441273150550344" lon="17.63578008995512"><ele>83.0</ele><time>2026-04-21T17:14:45.971Z</time></trkpt><trkpt lat="40.44147319899152" lon="17.63581000059755"><ele>83.0</ele><time>2026-04-21T17:14:46.971Z</time></trkpt><trkpt lat="40.441664590013836" lon="17.635846385687813"><ele>82.66666666666667</ele><time>2026-04-21T17:14:47.971Z</time></trkpt><trkpt lat="40.44186029093533" lon="17.635871696660228"><ele>82.33333333333333</ele><time>2026-04-21T17:14:48.971Z</time></trkpt><trkpt lat="40.442056670921374" lon="17.63589814279028"><ele>82.0</ele><time>2026-04-21T17:14:49.971Z</time></trkpt><trkpt lat="40.44225154633608" lon="17.635924426097734"><ele>82.0</ele><time>2026-04-21T17:14:50.971Z</time></trkpt><trkpt lat="40.44244652634539" lon="17.635948756206783"><ele>82.0</ele><time>2026-04-21T17:14:51.971Z</time></trkpt><trkpt lat="40.44264165860757" lon="17.63598132704165"><ele>82.0</ele><time>2026-04-21T17:14:52.971Z</time></trkpt><trkpt lat="40.44283642260008" lon="17.63600873288972"><ele>82.0</ele><time>2026-04-21T17:14:53.971Z</time></trkpt><trkpt lat="40.443031840562746" lon="17.636040236637943"><ele>82.0</ele><time>2026-04-21T17:14:54.971Z</time></trkpt><trkpt lat="40.443221178306146" lon="17.63607317760887"><ele>82.0</ele><time>2026-04-21T17:14:55.971Z</time></trkpt><trkpt lat="40.443414714412036" lon="17.636103012870734"><ele>82.0</ele><time>2026-04-21T17:14:56.971Z</time></trkpt><trkpt lat="40.44360247883714" lon="17.63613127378095"><ele>82.0</ele><time>2026-04-21T17:14:57.971Z</time></trkpt><trkpt lat="40.4437915641573" lon="17.636154492778466"><ele>82.0</ele><time>2026-04-21T17:14:58.971Z</time></trkpt><trkpt lat="40.44398054197542" lon="17.636181978977532"><ele>82.66666666666666</ele><time>2026-04-21T17:14:59.971Z</time></trkpt><trkpt lat="40.444170620543225" lon="17.63621356784885"><ele>83.33333333333333</ele><time>2026-04-21T17:15:00.971Z</time></trkpt><trkpt lat="40.44435749664602" lon="17.636238887802914"><ele>84.0</ele><time>2026-04-21T17:15:01.971Z</time></trkpt><trkpt lat="40.44455031706936" lon="17.636273050010864"><ele>84.0</ele><time>2026-04-21T17:15:02.971Z</time></trkpt><trkpt lat="40.44474533807924" lon="17.63630099041826"><ele>84.0</ele><time>2026-04-21T17:15:03.971Z</time></trkpt><trkpt lat="40.444941036944435" lon="17.636327542575778"><ele>84.0</ele><time>2026-04-21T17:15:04.971Z</time></trkpt><trkpt lat="40.44513322756183" lon="17.63635405005353"><ele>84.0</ele><time>2026-04-21T17:15:05.971Z</time></trkpt><trkpt lat="40.44532570391537" lon="17.63638113006305"><ele>84.0</ele><time>2026-04-21T17:15:06.971Z</time></trkpt><trkpt lat="40.44551970186285" lon="17.636411217163978"><ele>84.0</ele><time>2026-04-21T17:15:07.971Z</time></trkpt><trkpt lat="40.4457121679549" lon="17.636441914775297"><ele>84.0</ele><time>2026-04-21T17:15:08.971Z</time></trkpt><trkpt lat="40.44590586649109" lon="17.63646967580626"><ele>84.0</ele><time>2026-04-21T17:15:09.971Z</time></trkpt><trkpt lat="40.44610049912976" lon="17.636498498446414"><ele>84.0</ele><time>2026-04-21T17:15:10.971Z</time></trkpt><trkpt lat="40.44629643725676" lon="17.636533902271708"><ele>84.0</ele><time>2026-04-21T17:15:11.971Z</time></trkpt><trkpt lat="40.446488875111434" lon="17.636559517623777"><ele>84.0</ele><time>2026-04-21T17:15:12.971Z</time></trkpt><trkpt lat="40.446681633911375" lon="17.636589207442093"><ele>84.0</ele><time>2026-04-21T17:15:13.971Z</time></trkpt><trkpt lat="40.446875846952196" lon="17.636619309979846"><ele>84.0</ele><time>2026-04-21T17:15:14.971Z</time></trkpt><trkpt lat="40.44707130565873" lon="17.63664857262384"><ele>84.0</ele><time>2026-04-21T17:15:15.971Z</time></trkpt><trkpt lat="40.44726532605102" lon="17.636679612277906"><ele>84.0</ele><time>2026-04-21T17:15:16.971Z</time></trkpt><trkpt lat="40.44746384655188" lon="17.636710142116474"><ele>84.33333333333333</ele><time>2026-04-21T17:15:17.971Z</time></trkpt><trkpt lat="40.44765970667233" lon="17.636745063178758"><ele>84.66666666666666</ele><time>2026-04-21T17:15:18.971Z</time></trkpt><trkpt lat="40.44785526241965" lon="17.636773600113532"><ele>85.0</ele><time>2026-04-21T17:15:19.971Z</time></trkpt><trkpt lat="40.44804948241007" lon="17.63680010945757"><ele>85.33333333333333</ele><time>2026-04-21T17:15:20.971Z</time></trkpt><trkpt lat="40.44824651452188" lon="17.63682450503317"><ele>85.66666666666667</ele><time>2026-04-21T17:15:21.971Z</time></trkpt><trkpt lat="40.448444035973296" lon="17.63685694972736"><ele>86.0</ele><time>2026-04-21T17:15:22.971Z</time></trkpt><trkpt lat="40.44864144198739" lon="17.636892507782377"><ele>86.33333333333334</ele><time>2026-04-21T17:15:23.971Z</time></trkpt><trkpt lat="40.44884338902941" lon="17.636925299523806"><ele>86.66666666666667</ele><time>2026-04-21T17:15:24.971Z</time></trkpt><trkpt lat="40.449046778230624" lon="17.636958736743235"><ele>87.0</ele><time>2026-04-21T17:15:25.971Z</time></trkpt><trkpt lat="40.44924636401264" lon="17.636986042611426"><ele>87.0</ele><time>2026-04-21T17:15:26.971Z</time></trkpt><trkpt lat="40.449451434119005" lon="17.637022215305652"><ele>87.0</ele><time>2026-04-21T17:15:27.971Z</time></trkpt><trkpt lat="40.449657902334856" lon="17.63705041589258"><ele>87.0</ele><time>2026-04-21T17:15:28.971Z</time></trkpt><trkpt lat="40.44986187292852" lon="17.63707610649059"><ele>87.0</ele><time>2026-04-21T17:15:29.971Z</time></trkpt><trkpt lat="40.45006661094671" lon="17.63711034371864"><ele>87.0</ele><time>2026-04-21T17:15:30.971Z</time></trkpt><trkpt lat="40.45027522544833" lon="17.637143567468875"><ele>87.0</ele><time>2026-04-21T17:15:31.971Z</time></trkpt><trkpt lat="40.45048069404198" lon="17.637173804044256"><ele>86.66666666666667</ele><time>2026-04-21T17:15:32.971Z</time></trkpt><trkpt lat="40.45068795155136" lon="17.63720612513093"><ele>86.33333333333334</ele><time>2026-04-21T17:15:33.971Z</time></trkpt><trkpt lat="40.45089670824181" lon="17.637237960795133"><ele>86.0</ele><time>2026-04-21T17:15:34.971Z</time></trkpt><trkpt lat="40.45110490440353" lon="17.63726798646381"><ele>86.0</ele><time>2026-04-21T17:15:35.971Z</time></trkpt><trkpt lat="40.451310827580215" lon="17.637299859036517"><ele>86.0</ele><time>2026-04-21T17:15:36.971Z</time></trkpt><trkpt lat="40.45151872251757" lon="17.637330536319528"><ele>86.0</ele><time>2026-04-21T17:15:37.971Z</time></trkpt><trkpt lat="40.451734739934" lon="17.637373559015"><ele>86.0</ele><time>2026-04-21T17:15:38.971Z</time></trkpt><trkpt lat="40.451962457763905" lon="17.637435788364975"><ele>86.0</ele><time>2026-04-21T17:15:39.971Z</time></trkpt><trkpt lat="40.452202455625695" lon="17.637532817066347"><ele>85.66666666666667</ele><time>2026-04-21T17:15:40.971Z</time></trkpt><trkpt lat="40.45235056028097" lon="17.637454995664225"><ele>85.33333333333333</ele><time>2026-04-21T17:15:41.971Z</time></trkpt><trkpt lat="40.45256120040918" lon="17.637486536525863"><ele>85.0</ele><time>2026-04-21T17:15:42.971Z</time></trkpt><trkpt lat="40.45277227964932" lon="17.637518458848866"><ele>85.0</ele><time>2026-04-21T17:15:43.971Z</time></trkpt><trkpt lat="40.4529845733647" lon="17.637549279478215"><ele>85.0</ele><time>2026-04-21T17:15:44.971Z</time></trkpt><trkpt lat="40.453196088685324" lon="17.637582600816295"><ele>85.0</ele><time>2026-04-21T17:15:45.971Z</time></trkpt><trkpt lat="40.45341010243697" lon="17.637616903034736"><ele>85.0</ele><time>2026-04-21T17:15:46.971Z</time></trkpt><trkpt lat="40.453623687265456" lon="17.63764850195334"><ele>85.0</ele><time>2026-04-21T17:15:47.971Z</time></trkpt><trkpt lat="40.453839121713436" lon="17.637679740197605"><ele>85.0</ele><time>2026-04-21T17:15:48.972Z</time></trkpt><trkpt lat="40.45405270502528" lon="17.637711247227063"><ele>85.0</ele><time>2026-04-21T17:15:49.972Z</time></trkpt><trkpt lat="40.454268284163554" lon="17.63773993935641"><ele>85.0</ele><time>2026-04-21T17:15:50.972Z</time></trkpt><trkpt lat="40.45448388319278" lon="17.63777558043559"><ele>85.0</ele><time>2026-04-21T17:15:51.971Z</time></trkpt><trkpt lat="40.45470148027416" lon="17.63780298607854"><ele>85.0</ele><time>2026-04-21T17:15:52.971Z</time></trkpt><trkpt lat="40.45491631222779" lon="17.637831020696858"><ele>85.0</ele><time>2026-04-21T17:15:53.971Z</time></trkpt><trkpt lat="40.4551342110747" lon="17.6378606684869"><ele>85.0</ele><time>2026-04-21T17:15:54.971Z</time></trkpt><trkpt lat="40.45535208444521" lon="17.637896792195697"><ele>85.0</ele><time>2026-04-21T17:15:55.971Z</time></trkpt><trkpt lat="40.45557147746327" lon="17.637926962474694"><ele>85.0</ele><time>2026-04-21T17:15:56.971Z</time></trkpt><trkpt lat="40.45579432834706" lon="17.637967946481425"><ele>85.0</ele><time>2026-04-21T17:15:57.971Z</time></trkpt><trkpt lat="40.45601370604727" lon="17.638007487139443"><ele>85.0</ele><time>2026-04-21T17:15:58.971Z</time></trkpt><trkpt lat="40.456235129419696" lon="17.638042208279856"><ele>85.0</ele><time>2026-04-21T17:15:59.971Z</time></trkpt><trkpt lat="40.456456301590855" lon="17.638073607517043"><ele>85.0</ele><time>2026-04-21T17:16:00.971Z</time></trkpt><trkpt lat="40.456674125053624" lon="17.63810781971292"><ele>84.33333333333333</ele><time>2026-04-21T17:16:01.971Z</time></trkpt><trkpt lat="40.456889120413805" lon="17.638140896791686"><ele>83.66666666666667</ele><time>2026-04-21T17:16:02.971Z</time></trkpt><trkpt lat="40.457104184283175" lon="17.63817326214391"><ele>83.0</ele><time>2026-04-21T17:16:03.971Z</time></trkpt><trkpt lat="40.45731275756319" lon="17.63819823486917"><ele>84.33333333333334</ele><time>2026-04-21T17:16:04.971Z</time></trkpt><trkpt lat="40.457504228262046" lon="17.638224964825085"><ele>85.66666666666667</ele><time>2026-04-21T17:16:05.971Z</time></trkpt><trkpt lat="40.45768378214464" lon="17.63825738747901"><ele>87.0</ele><time>2026-04-21T17:16:06.971Z</time></trkpt><trkpt lat="40.45787054721175" lon="17.63828662521587"><ele>87.33333333333333</ele><time>2026-04-21T17:16:07.971Z</time></trkpt><trkpt lat="40.45806792433925" lon="17.638307145783042"><ele>87.66666666666666</ele><time>2026-04-21T17:16:08.971Z</time></trkpt><trkpt lat="40.45827591318973" lon="17.638337451497996"><ele>88.0</ele><time>2026-04-21T17:16:09.971Z</time></trkpt><trkpt lat="40.45848672249947" lon="17.638369343770837"><ele>88.0</ele><time>2026-04-21T17:16:10.971Z</time></trkpt><trkpt lat="40.45869148821697" lon="17.638403915945442"><ele>88.0</ele><time>2026-04-21T17:16:11.971Z</time></trkpt><trkpt lat="40.458897733904955" lon="17.63843050051718"><ele>88.0</ele><time>2026-04-21T17:16:12.971Z</time></trkpt><trkpt lat="40.45911262071653" lon="17.638464357043627"><ele>88.0</ele><time>2026-04-21T17:16:13.971Z</time></trkpt><trkpt lat="40.45931601619136" lon="17.638497300904376"><ele>88.0</ele><time>2026-04-21T17:16:14.971Z</time></trkpt><trkpt lat="40.459520795923844" lon="17.63852813003336"><ele>88.0</ele><time>2026-04-21T17:16:15.971Z</time></trkpt><trkpt lat="40.45973012836625" lon="17.638561908555477"><ele>88.0</ele><time>2026-04-21T17:16:16.971Z</time></trkpt><trkpt lat="40.45994419964489" lon="17.638594154129933"><ele>88.0</ele><time>2026-04-21T17:16:17.971Z</time></trkpt><trkpt lat="40.46015875913411" lon="17.63862709752612"><ele>88.0</ele><time>2026-04-21T17:16:18.971Z</time></trkpt><trkpt lat="40.46037462196432" lon="17.638663080825772"><ele>87.66666666666666</ele><time>2026-04-21T17:16:19.971Z</time></trkpt><trkpt lat="40.46058752198509" lon="17.638694990801117"><ele>87.33333333333333</ele><time>2026-04-21T17:16:20.971Z</time></trkpt><trkpt lat="40.46080566720453" lon="17.63872987622915"><ele>87.0</ele><time>2026-04-21T17:16:21.971Z</time></trkpt><trkpt lat="40.46102084608773" lon="17.638761090787906"><ele>87.0</ele><time>2026-04-21T17:16:22.971Z</time></trkpt><trkpt lat="40.461237583062044" lon="17.638794600468536"><ele>87.0</ele><time>2026-04-21T17:16:23.971Z</time></trkpt><trkpt lat="40.46145204888071" lon="17.63882932675402"><ele>87.0</ele><time>2026-04-21T17:16:24.971Z</time></trkpt><trkpt lat="40.46166665439352" lon="17.63886373419246"><ele>87.0</ele><time>2026-04-21T17:16:25.971Z</time></trkpt><trkpt lat="40.461883826662095" lon="17.638897852791885"><ele>87.0</ele><time>2026-04-21T17:16:26.971Z</time></trkpt><trkpt lat="40.462097993745786" lon="17.638929041838857"><ele>87.0</ele><time>2026-04-21T17:16:27.971Z</time></trkpt><trkpt lat="40.46231043028388" lon="17.638955171048387"><ele>87.0</ele><time>2026-04-21T17:16:28.971Z</time></trkpt><trkpt lat="40.46252191214158" lon="17.638986094242263"><ele>87.0</ele><time>2026-04-21T17:16:29.971Z</time></trkpt><trkpt lat="40.462735840170076" lon="17.63901853640651"><ele>87.0</ele><time>2026-04-21T17:16:30.971Z</time></trkpt><trkpt lat="40.46294574934885" lon="17.63905588806938"><ele>87.0</ele><time>2026-04-21T17:16:31.971Z</time></trkpt><trkpt lat="40.46315545398326" lon="17.639092502889195"><ele>87.0</ele><time>2026-04-21T17:16:32.971Z</time></trkpt><trkpt lat="40.46336648206199" lon="17.6391260266198"><ele>87.0</ele><time>2026-04-21T17:16:33.971Z</time></trkpt><trkpt lat="40.46357832456679" lon="17.639166173491923"><ele>87.33333333333333</ele><time>2026-04-21T17:16:34.971Z</time></trkpt><trkpt lat="40.46378770972959" lon="17.639200943437153"><ele>87.66666666666666</ele><time>2026-04-21T17:16:35.971Z</time></trkpt><trkpt lat="40.46399656244538" lon="17.639233209291756"><ele>88.0</ele><time>2026-04-21T17:16:36.971Z</time></trkpt><trkpt lat="40.46420268739468" lon="17.63927088370421"><ele>88.0</ele><time>2026-04-21T17:16:37.971Z</time></trkpt><trkpt lat="40.46440758677402" lon="17.639298492564908"><ele>88.0</ele><time>2026-04-21T17:16:38.971Z</time></trkpt><trkpt lat="40.46461017686343" lon="17.639330829035288"><ele>88.0</ele><time>2026-04-21T17:16:39.971Z</time></trkpt><trkpt lat="40.46481407560652" lon="17.63936040508053"><ele>88.33333333333333</ele><time>2026-04-21T17:16:40.971Z</time></trkpt><trkpt lat="40.46502336559107" lon="17.639387430411503"><ele>88.66666666666667</ele><time>2026-04-21T17:16:41.971Z</time></trkpt><trkpt lat="40.4652294963916" lon="17.63941167724846"><ele>89.0</ele><time>2026-04-21T17:16:42.971Z</time></trkpt><trkpt lat="40.46543669687591" lon="17.639442368195603"><ele>91.33333333333334</ele><time>2026-04-21T17:16:43.971Z</time></trkpt><trkpt lat="40.46563943397871" lon="17.639475034498293"><ele>93.66666666666667</ele><time>2026-04-21T17:16:44.971Z</time></trkpt><trkpt lat="40.465845773238904" lon="17.639502271491644"><ele>96.0</ele><time>2026-04-21T17:16:45.971Z</time></trkpt><trkpt lat="40.46605265575093" lon="17.639533462792315"><ele>96.0</ele><time>2026-04-21T17:16:46.971Z</time></trkpt><trkpt lat="40.46626021426517" lon="17.639563714497672"><ele>96.0</ele><time>2026-04-21T17:16:47.971Z</time></trkpt><trkpt lat="40.4664736993751" lon="17.639601408899463"><ele>96.0</ele><time>2026-04-21T17:16:48.971Z</time></trkpt><trkpt lat="40.46668677947186" lon="17.639642045280542"><ele>95.0</ele><time>2026-04-21T17:16:49.971Z</time></trkpt><trkpt lat="40.46689681479066" lon="17.63967646693338"><ele>94.0</ele><time>2026-04-21T17:16:50.971Z</time></trkpt><trkpt lat="40.467110077242424" lon="17.63971523771716"><ele>93.0</ele><time>2026-04-21T17:16:51.971Z</time></trkpt><trkpt lat="40.46730541419526" lon="17.639720942491167"><ele>92.66666666666667</ele><time>2026-04-21T17:16:52.971Z</time></trkpt><trkpt lat="40.46750651125539" lon="17.63974056349116"><ele>92.33333333333334</ele><time>2026-04-21T17:16:53.971Z</time></trkpt><trkpt lat="40.46771321463963" lon="17.639769092612454"><ele>92.0</ele><time>2026-04-21T17:16:54.971Z</time></trkpt><trkpt lat="40.46792513163505" lon="17.639804648158613"><ele>92.33333333333334</ele><time>2026-04-21T17:16:55.971Z</time></trkpt><trkpt lat="40.46814031015851" lon="17.63984106701002"><ele>92.66666666666667</ele><time>2026-04-21T17:16:56.971Z</time></trkpt><trkpt lat="40.46835817024458" lon="17.639881171990094"><ele>93.0</ele><time>2026-04-21T17:16:57.971Z</time></trkpt><trkpt lat="40.46857570571762" lon="17.639914716665572"><ele>92.66666666666667</ele><time>2026-04-21T17:16:58.971Z</time></trkpt><trkpt lat="40.46879341889077" lon="17.639946603689626"><ele>92.33333333333334</ele><time>2026-04-21T17:16:59.971Z</time></trkpt><trkpt lat="40.469009996663175" lon="17.639977575234326"><ele>92.0</ele><time>2026-04-21T17:17:00.971Z</time></trkpt><trkpt lat="40.46922950998119" lon="17.6400074064691"><ele>92.0</ele><time>2026-04-21T17:17:01.971Z</time></trkpt><trkpt lat="40.46944570554917" lon="17.640041695434196"><ele>92.0</ele><time>2026-04-21T17:17:02.971Z</time></trkpt><trkpt lat="40.4696614023697" lon="17.640077855102778"><ele>92.0</ele><time>2026-04-21T17:17:03.971Z</time></trkpt><trkpt lat="40.46987685629861" lon="17.640107419521804"><ele>91.33333333333334</ele><time>2026-04-21T17:17:04.971Z</time></trkpt><trkpt lat="40.4700960134624" lon="17.640146639246055"><ele>90.66666666666667</ele><time>2026-04-21T17:17:05.971Z</time></trkpt><trkpt lat="40.47030872176713" lon="17.640178878481308"><ele>90.0</ele><time>2026-04-21T17:17:06.971Z</time></trkpt><trkpt lat="40.470517485642375" lon="17.64019563065797"><ele>90.0</ele><time>2026-04-21T17:17:07.971Z</time></trkpt><trkpt lat="40.470733215100196" lon="17.640231077476717"><ele>90.0</ele><time>2026-04-21T17:17:08.971Z</time></trkpt><trkpt lat="40.47094215226618" lon="17.640265735704663"><ele>90.0</ele><time>2026-04-21T17:17:09.971Z</time></trkpt><trkpt lat="40.47115723352987" lon="17.640304119131926"><ele>90.33333333333333</ele><time>2026-04-21T17:17:10.971Z</time></trkpt><trkpt lat="40.471368060133685" lon="17.64033298010137"><ele>90.66666666666666</ele><time>2026-04-21T17:17:11.971Z</time></trkpt><trkpt lat="40.47158128538806" lon="17.640367458564512"><ele>91.0</ele><time>2026-04-21T17:17:12.971Z</time></trkpt><trkpt lat="40.47179303636006" lon="17.640406431863173"><ele>91.0</ele><time>2026-04-21T17:17:13.971Z</time></trkpt><trkpt lat="40.472001085947674" lon="17.64043899339134"><ele>91.0</ele><time>2026-04-21T17:17:14.971Z</time></trkpt><trkpt lat="40.47221649137882" lon="17.64046171566958"><ele>91.0</ele><time>2026-04-21T17:17:15.971Z</time></trkpt><trkpt lat="40.47242751272347" lon="17.640487954208343"><ele>92.0</ele><time>2026-04-21T17:17:16.971Z</time></trkpt><trkpt lat="40.4726341139269" lon="17.640515446192627"><ele>93.0</ele><time>2026-04-21T17:17:17.971Z</time></trkpt><trkpt lat="40.4728470502833" lon="17.64055537888049"><ele>94.0</ele><time>2026-04-21T17:17:18.971Z</time></trkpt><trkpt lat="40.47305349481768" lon="17.640587045635293"><ele>94.0</ele><time>2026-04-21T17:17:19.971Z</time></trkpt><trkpt lat="40.473260383462005" lon="17.640627072438374"><ele>94.0</ele><time>2026-04-21T17:17:20.971Z</time></trkpt><trkpt lat="40.473477812162415" lon="17.64065928346954"><ele>94.0</ele><time>2026-04-21T17:17:21.971Z</time></trkpt><trkpt lat="40.47369013454981" lon="17.640700665845582"><ele>94.0</ele><time>2026-04-21T17:17:22.971Z</time></trkpt><trkpt lat="40.47389782916257" lon="17.640725558131827"><ele>94.0</ele><time>2026-04-21T17:17:23.971Z</time></trkpt><trkpt lat="40.47409730253629" lon="17.640744691052873"><ele>94.0</ele><time>2026-04-21T17:17:24.971Z</time></trkpt><trkpt lat="40.47428910656463" lon="17.640767910752622"><ele>94.0</ele><time>2026-04-21T17:17:25.971Z</time></trkpt><trkpt lat="40.47448560276894" lon="17.640791133359443"><ele>94.0</ele><time>2026-04-21T17:17:26.971Z</time></trkpt><trkpt lat="40.47469857951133" lon="17.640831215567168"><ele>94.0</ele><time>2026-04-21T17:17:27.971Z</time></trkpt><trkpt lat="40.474917553401305" lon="17.640877735133753"><ele>94.33333333333333</ele><time>2026-04-21T17:17:28.971Z</time></trkpt><trkpt lat="40.475136194081784" lon="17.640920534399235"><ele>94.66666666666667</ele><time>2026-04-21T17:17:29.971Z</time></trkpt><trkpt lat="40.47535098897391" lon="17.64096267853467"><ele>95.0</ele><time>2026-04-21T17:17:30.971Z</time></trkpt><trkpt lat="40.47556274573861" lon="17.6409950065549"><ele>95.0</ele><time>2026-04-21T17:17:31.971Z</time></trkpt><trkpt lat="40.47577171492327" lon="17.641019856621526"><ele>95.0</ele><time>2026-04-21T17:17:32.971Z</time></trkpt><trkpt lat="40.47598170408132" lon="17.64104802399035"><ele>95.0</ele><time>2026-04-21T17:17:33.971Z</time></trkpt><trkpt lat="40.47619675853917" lon="17.64107962934181"><ele>95.0</ele><time>2026-04-21T17:17:34.971Z</time></trkpt><trkpt lat="40.47641562353684" lon="17.641110789351067"><ele>95.0</ele><time>2026-04-21T17:17:35.971Z</time></trkpt><trkpt lat="40.47662977434209" lon="17.64113959988961"><ele>95.0</ele><time>2026-04-21T17:17:36.971Z</time></trkpt><trkpt lat="40.47684334705771" lon="17.64116842074126"><ele>94.33333333333334</ele><time>2026-04-21T17:17:37.971Z</time></trkpt><trkpt lat="40.47705556147512" lon="17.64119722423951"><ele>93.66666666666667</ele><time>2026-04-21T17:17:38.971Z</time></trkpt><trkpt lat="40.477273892705874" lon="17.64122905418022"><ele>93.0</ele><time>2026-04-21T17:17:39.971Z</time></trkpt><trkpt lat="40.47749015548489" lon="17.6412620879283"><ele>93.0</ele><time>2026-04-21T17:17:40.971Z</time></trkpt><trkpt lat="40.47770412052076" lon="17.641296042554607"><ele>93.0</ele><time>2026-04-21T17:17:41.971Z</time></trkpt><trkpt lat="40.477923055787286" lon="17.64133522730369"><ele>93.0</ele><time>2026-04-21T17:17:42.971Z</time></trkpt><trkpt lat="40.47813841700505" lon="17.641370102828407"><ele>92.66666666666667</ele><time>2026-04-21T17:17:43.971Z</time></trkpt><trkpt lat="40.47835875715957" lon="17.641400465619537"><ele>92.33333333333334</ele><time>2026-04-21T17:17:44.971Z</time></trkpt><trkpt lat="40.47857411647574" lon="17.64143370141801"><ele>92.0</ele><time>2026-04-21T17:17:45.971Z</time></trkpt><trkpt lat="40.478787803304385" lon="17.64146425905638"><ele>92.0</ele><time>2026-04-21T17:17:46.971Z</time></trkpt><trkpt lat="40.479002139506065" lon="17.641495953858467"><ele>92.0</ele><time>2026-04-21T17:17:47.971Z</time></trkpt><trkpt lat="40.47921918972038" lon="17.641530857387366"><ele>92.0</ele><time>2026-04-21T17:17:48.972Z</time></trkpt><trkpt lat="40.479437593866336" lon="17.64155653210936"><ele>91.66666666666667</ele><time>2026-04-21T17:17:49.971Z</time></trkpt><trkpt lat="40.479651551019046" lon="17.641591592522627"><ele>91.33333333333333</ele><time>2026-04-21T17:17:50.971Z</time></trkpt><trkpt lat="40.47984512320687" lon="17.641623059134986"><ele>91.0</ele><time>2026-04-21T17:17:51.971Z</time></trkpt><trkpt lat="40.480026138781795" lon="17.641653028631275"><ele>91.0</ele><time>2026-04-21T17:17:52.971Z</time></trkpt><trkpt lat="40.48019390882588" lon="17.64167952950036"><ele>91.0</ele><time>2026-04-21T17:17:53.971Z</time></trkpt><trkpt lat="40.48037362441101" lon="17.641695340681302"><ele>91.0</ele><time>2026-04-21T17:17:54.971Z</time></trkpt><trkpt lat="40.48056118118163" lon="17.641716071358182"><ele>91.0</ele><time>2026-04-21T17:17:55.97Z</time></trkpt><trkpt lat="40.48075583463156" lon="17.641745684796756"><ele>91.0</ele><time>2026-04-21T17:17:56.97Z</time></trkpt><trkpt lat="40.480951872101905" lon="17.641781423004048"><ele>91.0</ele><time>2026-04-21T17:17:57.97Z</time></trkpt><trkpt lat="40.48114585147722" lon="17.641807007277656"><ele>91.0</ele><time>2026-04-21T17:17:58.97Z</time></trkpt><trkpt lat="40.48133824811989" lon="17.64183959855347"><ele>91.0</ele><time>2026-04-21T17:17:59.97Z</time></trkpt><trkpt lat="40.4815314318456" lon="17.64187244107129"><ele>91.0</ele><time>2026-04-21T17:18:00.97Z</time></trkpt><trkpt lat="40.48173024687769" lon="17.64190260941714"><ele>91.0</ele><time>2026-04-21T17:18:01.97Z</time></trkpt><trkpt lat="40.48192515421364" lon="17.641930390343067"><ele>91.0</ele><time>2026-04-21T17:18:02.97Z</time></trkpt><trkpt lat="40.482115830042176" lon="17.64195603376937"><ele>91.0</ele><time>2026-04-21T17:18:03.97Z</time></trkpt><trkpt lat="40.482312479379026" lon="17.641979555070094"><ele>91.0</ele><time>2026-04-21T17:18:04.97Z</time></trkpt><trkpt lat="40.482512289646436" lon="17.64200900650505"><ele>91.0</ele><time>2026-04-21T17:18:05.97Z</time></trkpt><trkpt lat="40.48270125520716" lon="17.642035937215862"><ele>91.0</ele><time>2026-04-21T17:18:06.97Z</time></trkpt><trkpt lat="40.4828882923808" lon="17.642063645465925"><ele>91.33333333333333</ele><time>2026-04-21T17:18:07.97Z</time></trkpt><trkpt lat="40.483080916849225" lon="17.642094127003574"><ele>91.66666666666667</ele><time>2026-04-21T17:18:08.97Z</time></trkpt><trkpt lat="40.48327607316264" lon="17.642104124269537"><ele>92.0</ele><time>2026-04-21T17:18:09.97Z</time></trkpt><trkpt lat="40.48347414149281" lon="17.642130396343855"><ele>92.0</ele><time>2026-04-21T17:18:10.97Z</time></trkpt><trkpt lat="40.483669586571104" lon="17.64216428629433"><ele>92.0</ele><time>2026-04-21T17:18:11.97Z</time></trkpt><trkpt lat="40.48386158102198" lon="17.64220979296956"><ele>92.0</ele><time>2026-04-21T17:18:12.97Z</time></trkpt><trkpt lat="40.48402533032002" lon="17.64224867421175"><ele>92.0</ele><time>2026-04-21T17:18:13.97Z</time></trkpt><trkpt lat="40.484182274400155" lon="17.64227847373965"><ele>92.0</ele><time>2026-04-21T17:18:14.97Z</time></trkpt><trkpt lat="40.484327746203185" lon="17.64230188803307"><ele>92.0</ele><time>2026-04-21T17:18:15.97Z</time></trkpt><trkpt lat="40.48447014280391" lon="17.64232118342984"><ele>92.0</ele><time>2026-04-21T17:18:16.97Z</time></trkpt><trkpt lat="40.484608659211894" lon="17.642341051894004"><ele>92.0</ele><time>2026-04-21T17:18:17.97Z</time></trkpt><trkpt lat="40.48474160184687" lon="17.642356848823074"><ele>92.0</ele><time>2026-04-21T17:18:18.97Z</time></trkpt><trkpt lat="40.48487071655196" lon="17.642381464197054"><ele>92.0</ele><time>2026-04-21T17:18:19.97Z</time></trkpt><trkpt lat="40.48501193383567" lon="17.64240880259523"><ele>92.0</ele><time>2026-04-21T17:18:20.97Z</time></trkpt><trkpt lat="40.485157674810964" lon="17.64242933826296"><ele>92.0</ele><time>2026-04-21T17:18:21.97Z</time></trkpt><trkpt lat="40.48531661345456" lon="17.64245101588364"><ele>92.0</ele><time>2026-04-21T17:18:22.97Z</time></trkpt><trkpt lat="40.48548578717975" lon="17.64248053225667"><ele>92.0</ele><time>2026-04-21T17:18:23.97Z</time></trkpt><trkpt lat="40.48565295450587" lon="17.642502486963856"><ele>92.66666666666667</ele><time>2026-04-21T17:18:24.97Z</time></trkpt><trkpt lat="40.48582985498224" lon="17.64252572927365"><ele>93.33333333333333</ele><time>2026-04-21T17:18:25.97Z</time></trkpt><trkpt lat="40.486017109193185" lon="17.642551094976035"><ele>94.0</ele><time>2026-04-21T17:18:26.97Z</time></trkpt><trkpt lat="40.48621657622064" lon="17.64257541234404"><ele>94.0</ele><time>2026-04-21T17:18:27.97Z</time></trkpt><trkpt lat="40.48643800847284" lon="17.642558541739486"><ele>94.0</ele><time>2026-04-21T17:18:28.97Z</time></trkpt><trkpt lat="40.486662962942994" lon="17.642544858579498"><ele>94.0</ele><time>2026-04-21T17:18:29.97Z</time></trkpt><trkpt lat="40.48665252388894" lon="17.6426562663271"><ele>94.0</ele><time>2026-04-21T17:18:30.97Z</time></trkpt><trkpt lat="40.48681483232719" lon="17.642678458692572"><ele>94.0</ele><time>2026-04-21T17:18:31.97Z</time></trkpt><trkpt lat="40.48696785963988" lon="17.64269966348298"><ele>94.0</ele><time>2026-04-21T17:18:32.97Z</time></trkpt><trkpt lat="40.48712011696187" lon="17.642718634436054"><ele>94.25</ele><time>2026-04-21T17:18:33.97Z</time></trkpt><trkpt lat="40.48726186913253" lon="17.64274454833733"><ele>94.5</ele><time>2026-04-21T17:18:34.97Z</time></trkpt><trkpt lat="40.48740366613983" lon="17.642768860784233"><ele>94.75</ele><time>2026-04-21T17:18:35.97Z</time></trkpt><trkpt lat="40.48754909085019" lon="17.642791772218303"><ele>95.0</ele><time>2026-04-21T17:18:36.97Z</time></trkpt><trkpt lat="40.48769346361682" lon="17.6428153014324"><ele>95.25</ele><time>2026-04-21T17:18:37.97Z</time></trkpt><trkpt lat="40.48783910383733" lon="17.642839581110778"><ele>95.5</ele><time>2026-04-21T17:18:38.97Z</time></trkpt><trkpt lat="40.487981920244046" lon="17.64286192407147"><ele>95.75</ele><time>2026-04-21T17:18:39.97Z</time></trkpt><trkpt lat="40.488121444051714" lon="17.642880670787747"><ele>96.0</ele><time>2026-04-21T17:18:40.97Z</time></trkpt><trkpt lat="40.48826054081394" lon="17.6428997145539"><ele>96.0</ele><time>2026-04-21T17:18:41.97Z</time></trkpt><trkpt lat="40.48839054358157" lon="17.642920225109446"><ele>96.0</ele><time>2026-04-21T17:18:42.97Z</time></trkpt><trkpt lat="40.48851163549034" lon="17.642938940918953"><ele>96.0</ele><time>2026-04-21T17:18:43.97Z</time></trkpt><trkpt lat="40.48862599676453" lon="17.642953104057526"><ele>96.0</ele><time>2026-04-21T17:18:44.97Z</time></trkpt><trkpt lat="40.48873601083194" lon="17.642968069251076"><ele>97.0</ele><time>2026-04-21T17:18:45.97Z</time></trkpt><trkpt lat="40.48883776492575" lon="17.64296440010226"><ele>98.0</ele><time>2026-04-21T17:18:46.97Z</time></trkpt><trkpt lat="40.488958286997864" lon="17.642978552366724"><ele>99.0</ele><time>2026-04-21T17:18:47.97Z</time></trkpt><trkpt lat="40.489102306683236" lon="17.643008390547106"><ele>100.0</ele><time>2026-04-21T17:18:48.97Z</time></trkpt><trkpt lat="40.48927796520965" lon="17.643048628934555"><ele>100.0</ele><time>2026-04-21T17:18:49.97Z</time></trkpt><trkpt lat="40.48946019347606" lon="17.64307926049344"><ele>100.0</ele><time>2026-04-21T17:18:50.97Z</time></trkpt><trkpt lat="40.489621521618886" lon="17.643104623434315"><ele>100.0</ele><time>2026-04-21T17:18:51.97Z</time></trkpt><trkpt lat="40.48975770305007" lon="17.643125053511792"><ele>100.16666666666667</ele><time>2026-04-21T17:18:52.97Z</time></trkpt><trkpt lat="40.489865416249984" lon="17.643143580772207"><ele>100.33333333333334</ele><time>2026-04-21T17:18:53.97Z</time></trkpt><trkpt lat="40.489984412067436" lon="17.643203647610267"><ele>100.5</ele><time>2026-04-21T17:18:55.97Z</time></trkpt><trkpt lat="40.49003295835432" lon="17.64326171253239"><ele>100.66666666666666</ele><time>2026-04-21T17:18:56.97Z</time></trkpt><trkpt lat="40.49008636093962" lon="17.643328679598593"><ele>100.83333333333333</ele><time>2026-04-21T17:18:57.97Z</time></trkpt><trkpt lat="40.490143628555906" lon="17.643380562986728"><ele>101.0</ele><time>2026-04-21T17:18:58.97Z</time></trkpt><trkpt lat="40.49020417902215" lon="17.6434046262705"><ele>100.99999999999999</ele><time>2026-04-21T17:18:59.97Z</time></trkpt><trkpt lat="40.490315202549866" lon="17.643326516965082"><ele>101.0</ele><time>2026-04-21T17:19:01.97Z</time></trkpt><trkpt lat="40.49033977762117" lon="17.643247557338356"><ele>101.0</ele><time>2026-04-21T17:19:02.97Z</time></trkpt><trkpt lat="40.490340509904314" lon="17.643147232882423"><ele>101.0</ele><time>2026-04-21T17:19:03.97Z</time></trkpt><trkpt lat="40.4903246634192" lon="17.64303786476281"><ele>100.99999999999999</ele><time>2026-04-21T17:19:04.97Z</time></trkpt><trkpt lat="40.4903023154696" lon="17.642913993683937"><ele>101.0</ele><time>2026-04-21T17:19:05.97Z</time></trkpt><trkpt lat="40.49029153039796" lon="17.64275538471049"><ele>101.33333333333333</ele><time>2026-04-21T17:19:06.97Z</time></trkpt><trkpt lat="40.4903039693775" lon="17.642573322746678"><ele>101.66666666666666</ele><time>2026-04-21T17:19:07.97Z</time></trkpt><trkpt lat="40.49033566362047" lon="17.6423695640192"><ele>102.0</ele><time>2026-04-21T17:19:08.97Z</time></trkpt><trkpt lat="40.490367797613516" lon="17.64216513386705"><ele>102.0</ele><time>2026-04-21T17:19:09.97Z</time></trkpt><trkpt lat="40.490403422976065" lon="17.641951620021075"><ele>102.0</ele><time>2026-04-21T17:19:10.97Z</time></trkpt><trkpt lat="40.49044182746043" lon="17.641731934396663"><ele>102.0</ele><time>2026-04-21T17:19:11.97Z</time></trkpt><trkpt lat="40.49047847927836" lon="17.64151831262384"><ele>102.66666666666666</ele><time>2026-04-21T17:19:12.97Z</time></trkpt><trkpt lat="40.49050599108867" lon="17.64129950810721"><ele>103.33333333333333</ele><time>2026-04-21T17:19:13.97Z</time></trkpt><trkpt lat="40.49053923924338" lon="17.641082647680864"><ele>104.0</ele><time>2026-04-21T17:19:14.97Z</time></trkpt><trkpt lat="40.490571818258736" lon="17.64086426066382"><ele>104.0</ele><time>2026-04-21T17:19:15.97Z</time></trkpt><trkpt lat="40.49061433160872" lon="17.64065335074873"><ele>104.0</ele><time>2026-04-21T17:19:16.97Z</time></trkpt><trkpt lat="40.490649846590486" lon="17.640456816254794"><ele>104.0</ele><time>2026-04-21T17:19:17.97Z</time></trkpt><trkpt lat="40.49068194479882" lon="17.64026680806401"><ele>104.0</ele><time>2026-04-21T17:19:18.97Z</time></trkpt><trkpt lat="40.49070782786925" lon="17.640079506745945"><ele>104.0</ele><time>2026-04-21T17:19:19.97Z</time></trkpt><trkpt lat="40.49073784870002" lon="17.639887532712155"><ele>104.0</ele><time>2026-04-21T17:19:20.97Z</time></trkpt><trkpt lat="40.490766748172284" lon="17.639693415073978"><ele>104.0</ele><time>2026-04-21T17:19:21.97Z</time></trkpt><trkpt lat="40.49080033283851" lon="17.639496556099587"><ele>104.66666666666666</ele><time>2026-04-21T17:19:22.97Z</time></trkpt><trkpt lat="40.49083772606717" lon="17.639300495101683"><ele>105.33333333333334</ele><time>2026-04-21T17:19:23.97Z</time></trkpt><trkpt lat="40.49086994499953" lon="17.639101958205064"><ele>106.0</ele><time>2026-04-21T17:19:24.97Z</time></trkpt><trkpt lat="40.49090811154548" lon="17.638908812846164"><ele>106.0</ele><time>2026-04-21T17:19:25.97Z</time></trkpt><trkpt lat="40.49093732792073" lon="17.638708961669852"><ele>106.0</ele><time>2026-04-21T17:19:26.97Z</time></trkpt><trkpt lat="40.49096269337096" lon="17.638504563946015"><ele>106.0</ele><time>2026-04-21T17:19:27.97Z</time></trkpt><trkpt lat="40.490997136542745" lon="17.638308834989225"><ele>106.0</ele><time>2026-04-21T17:19:28.97Z</time></trkpt><trkpt lat="40.49102890360408" lon="17.638109415184072"><ele>106.0</ele><time>2026-04-21T17:19:29.97Z</time></trkpt><trkpt lat="40.491059334794635" lon="17.637910834495155"><ele>106.0</ele><time>2026-04-21T17:19:30.97Z</time></trkpt><trkpt lat="40.49109273354498" lon="17.637703568848295"><ele>105.66666666666667</ele><time>2026-04-21T17:19:31.97Z</time></trkpt><trkpt lat="40.491134136392766" lon="17.637495608170628"><ele>105.33333333333334</ele><time>2026-04-21T17:19:32.97Z</time></trkpt><trkpt lat="40.49118123292917" lon="17.637288986006983"><ele>105.0</ele><time>2026-04-21T17:19:33.97Z</time></trkpt><trkpt lat="40.49124206590997" lon="17.637082095891785"><ele>105.33333333333334</ele><time>2026-04-21T17:19:34.97Z</time></trkpt><trkpt lat="40.49130885220419" lon="17.63687750745411"><ele>105.66666666666667</ele><time>2026-04-21T17:19:35.97Z</time></trkpt><trkpt lat="40.49138852443492" lon="17.63667195891185"><ele>106.0</ele><time>2026-04-21T17:19:36.97Z</time></trkpt><trkpt lat="40.49146741941366" lon="17.636468998763977"><ele>106.0</ele><time>2026-04-21T17:19:37.97Z</time></trkpt><trkpt lat="40.49154876052378" lon="17.636265978364975"><ele>106.0</ele><time>2026-04-21T17:19:38.97Z</time></trkpt><trkpt lat="40.491640808581394" lon="17.636060361464935"><ele>106.0</ele><time>2026-04-21T17:19:39.97Z</time></trkpt><trkpt lat="40.4917405678545" lon="17.635849743401657"><ele>106.33333333333334</ele><time>2026-04-21T17:19:40.97Z</time></trkpt><trkpt lat="40.491854100861296" lon="17.635640652132533"><ele>106.66666666666666</ele><time>2026-04-21T17:19:41.97Z</time></trkpt><trkpt lat="40.491977426738664" lon="17.635437565913325"><ele>107.0</ele><time>2026-04-21T17:19:42.97Z</time></trkpt><trkpt lat="40.49209982474272" lon="17.635237045138084"><ele>107.0</ele><time>2026-04-21T17:19:43.97Z</time></trkpt><trkpt lat="40.49223661062344" lon="17.63503840421839"><ele>107.0</ele><time>2026-04-21T17:19:44.97Z</time></trkpt><trkpt lat="40.492375243853644" lon="17.63485200044936"><ele>107.0</ele><time>2026-04-21T17:19:45.97Z</time></trkpt><trkpt lat="40.492527385621024" lon="17.63467458498364"><ele>107.0</ele><time>2026-04-21T17:19:46.97Z</time></trkpt><trkpt lat="40.49268783300217" lon="17.63450873359609"><ele>107.0</ele><time>2026-04-21T17:19:47.97Z</time></trkpt><trkpt lat="40.49285021757321" lon="17.634360793075544"><ele>107.0</ele><time>2026-04-21T17:19:48.971Z</time></trkpt><trkpt lat="40.49301708939446" lon="17.634220940983525"><ele>108.66666666666666</ele><time>2026-04-21T17:19:49.97Z</time></trkpt><trkpt lat="40.4931812788754" lon="17.63408652112779"><ele>110.33333333333334</ele><time>2026-04-21T17:19:50.97Z</time></trkpt><trkpt lat="40.49333446263657" lon="17.633975486038693"><ele>112.0</ele><time>2026-04-21T17:19:51.971Z</time></trkpt><trkpt lat="40.49347826238112" lon="17.63387762540391"><ele>112.0</ele><time>2026-04-21T17:19:52.97Z</time></trkpt><trkpt lat="40.49362304661174" lon="17.633779812252993"><ele>112.0</ele><time>2026-04-21T17:19:53.97Z</time></trkpt><trkpt lat="40.49377215717807" lon="17.633692237446144"><ele>112.0</ele><time>2026-04-21T17:19:54.971Z</time></trkpt><trkpt lat="40.49391697003302" lon="17.63360487593275"><ele>112.5</ele><time>2026-04-21T17:19:55.971Z</time></trkpt><trkpt lat="40.4940493029215" lon="17.633526646283432"><ele>113.0</ele><time>2026-04-21T17:19:56.971Z</time></trkpt><trkpt lat="40.494180286173396" lon="17.63345292624438"><ele>113.5</ele><time>2026-04-21T17:19:57.971Z</time></trkpt><trkpt lat="40.49431622906309" lon="17.633381888689645"><ele>114.0</ele><time>2026-04-21T17:19:58.971Z</time></trkpt><trkpt lat="40.494447522156115" lon="17.63330629254553"><ele>116.0</ele><time>2026-04-21T17:19:59.971Z</time></trkpt><trkpt lat="40.494590024098734" lon="17.633216457164576"><ele>118.0</ele><time>2026-04-21T17:20:00.97Z</time></trkpt><trkpt lat="40.49472298654998" lon="17.63313638260534"><ele>120.0</ele><time>2026-04-21T17:20:01.971Z</time></trkpt><trkpt lat="40.4948640373115" lon="17.63305564120951"><ele>120.0</ele><time>2026-04-21T17:20:02.971Z</time></trkpt><trkpt lat="40.49500680233356" lon="17.632973697655608"><ele>120.0</ele><time>2026-04-21T17:20:03.971Z</time></trkpt><trkpt lat="40.49514094380714" lon="17.632893756994374"><ele>120.0</ele><time>2026-04-21T17:20:04.971Z</time></trkpt><trkpt lat="40.49527022391724" lon="17.63281540846696"><ele>120.0</ele><time>2026-04-21T17:20:05.971Z</time></trkpt><trkpt lat="40.495395072040516" lon="17.632743188604593"><ele>122.0</ele><time>2026-04-21T17:20:06.971Z</time></trkpt><trkpt lat="40.49552086950665" lon="17.63267033539447"><ele>124.0</ele><time>2026-04-21T17:20:07.971Z</time></trkpt><trkpt lat="40.495646753661795" lon="17.632595024563372"><ele>126.0</ele><time>2026-04-21T17:20:08.971Z</time></trkpt><trkpt lat="40.49577348276659" lon="17.63252183508316"><ele>128.0</ele><time>2026-04-21T17:20:09.971Z</time></trkpt><trkpt lat="40.4959020419845" lon="17.63244820906978"><ele>128.0</ele><time>2026-04-21T17:20:10.971Z</time></trkpt><trkpt lat="40.496034178425994" lon="17.632371291854327"><ele>128.0</ele><time>2026-04-21T17:20:11.971Z</time></trkpt><trkpt lat="40.49616447089916" lon="17.632290797348034"><ele>128.0</ele><time>2026-04-21T17:20:12.971Z</time></trkpt><trkpt lat="40.49629005818302" lon="17.63221432667582"><ele>128.0</ele><time>2026-04-21T17:20:13.971Z</time></trkpt><trkpt lat="40.49641818037945" lon="17.632137921506803"><ele>129.5</ele><time>2026-04-21T17:20:14.971Z</time></trkpt><trkpt lat="40.496548689207785" lon="17.632065326867615"><ele>131.0</ele><time>2026-04-21T17:20:15.971Z</time></trkpt><trkpt lat="40.49667204562185" lon="17.63199262391496"><ele>132.5</ele><time>2026-04-21T17:20:16.971Z</time></trkpt><trkpt lat="40.49679115887368" lon="17.631925889895694"><ele>134.0</ele><time>2026-04-21T17:20:17.971Z</time></trkpt><trkpt lat="40.49691208200557" lon="17.631853854126835"><ele>134.0</ele><time>2026-04-21T17:20:18.971Z</time></trkpt><trkpt lat="40.497036836949654" lon="17.631779388847146"><ele>134.0</ele><time>2026-04-21T17:20:19.971Z</time></trkpt><trkpt lat="40.49715966231916" lon="17.63170629680959"><ele>134.0</ele><time>2026-04-21T17:20:20.971Z</time></trkpt><trkpt lat="40.49728242544406" lon="17.63163231040236"><ele>134.0</ele><time>2026-04-21T17:20:21.971Z</time></trkpt><trkpt lat="40.49740572249201" lon="17.63155527918229"><ele>134.5</ele><time>2026-04-21T17:20:22.971Z</time></trkpt><trkpt lat="40.49753287681638" lon="17.631478468748263"><ele>135.0</ele><time>2026-04-21T17:20:23.971Z</time></trkpt><trkpt lat="40.49766682777921" lon="17.631399845745328"><ele>135.5</ele><time>2026-04-21T17:20:24.971Z</time></trkpt><trkpt lat="40.497798855361545" lon="17.631323181033295"><ele>136.0</ele><time>2026-04-21T17:20:25.97Z</time></trkpt><trkpt lat="40.49792718335839" lon="17.63124500871286"><ele>136.75</ele><time>2026-04-21T17:20:26.97Z</time></trkpt><trkpt lat="40.4980577371941" lon="17.631176154886397"><ele>137.5</ele><time>2026-04-21T17:20:27.97Z</time></trkpt><trkpt lat="40.498194146243385" lon="17.631107462856967"><ele>138.25</ele><time>2026-04-21T17:20:28.97Z</time></trkpt><trkpt lat="40.49833772910411" lon="17.631051272217054"><ele>139.0</ele><time>2026-04-21T17:20:29.97Z</time></trkpt><trkpt lat="40.498485988284266" lon="17.630993719797868"><ele>137.25</ele><time>2026-04-21T17:20:30.97Z</time></trkpt><trkpt lat="40.498635743630956" lon="17.630958731162657"><ele>135.5</ele><time>2026-04-21T17:20:31.97Z</time></trkpt><trkpt lat="40.49878214428585" lon="17.630930027395078"><ele>133.75</ele><time>2026-04-21T17:20:32.97Z</time></trkpt><trkpt lat="40.49891909173752" lon="17.63091112253584"><ele>132.0</ele><time>2026-04-21T17:20:33.97Z</time></trkpt><trkpt lat="40.49905435469451" lon="17.630899951147693"><ele>132.0</ele><time>2026-04-21T17:20:34.97Z</time></trkpt><trkpt lat="40.49917881251955" lon="17.630891043746804"><ele>132.0</ele><time>2026-04-21T17:20:35.97Z</time></trkpt><trkpt lat="40.49930498024119" lon="17.630884656929236"><ele>132.0</ele><time>2026-04-21T17:20:36.97Z</time></trkpt><trkpt lat="40.49943009580212" lon="17.630869729493966"><ele>132.0</ele><time>2026-04-21T17:20:37.97Z</time></trkpt><trkpt lat="40.499562287045066" lon="17.630853927542297"><ele>132.0</ele><time>2026-04-21T17:20:38.97Z</time></trkpt><trkpt lat="40.49969388546097" lon="17.630839369386212"><ele>132.0</ele><time>2026-04-21T17:20:39.97Z</time></trkpt><trkpt lat="40.49982596161857" lon="17.630829116910647"><ele>132.0</ele><time>2026-04-21T17:20:40.97Z</time></trkpt><trkpt lat="40.49996009120591" lon="17.63082640384461"><ele>132.0</ele><time>2026-04-21T17:20:41.97Z</time></trkpt><trkpt lat="40.5000911940227" lon="17.630817076100666"><ele>132.0</ele><time>2026-04-21T17:20:42.97Z</time></trkpt><trkpt lat="40.50021311393689" lon="17.630804736311575"><ele>132.0</ele><time>2026-04-21T17:20:43.97Z</time></trkpt><trkpt lat="40.500324994157616" lon="17.63079646304594"><ele>132.0</ele><time>2026-04-21T17:20:44.97Z</time></trkpt><trkpt lat="40.50042052821591" lon="17.63079307176491"><ele>132.0</ele><time>2026-04-21T17:20:45.97Z</time></trkpt><trkpt lat="40.500528132272656" lon="17.630772216447273"><ele>132.0</ele><time>2026-04-21T17:20:46.97Z</time></trkpt><trkpt lat="40.50064960378073" lon="17.630770108710355"><ele>131.0</ele><time>2026-04-21T17:20:47.97Z</time></trkpt><trkpt lat="40.50079473349222" lon="17.630758465884334"><ele>130.0</ele><time>2026-04-21T17:20:48.97Z</time></trkpt><trkpt lat="40.500962533166515" lon="17.630747239649235"><ele>129.0</ele><time>2026-04-21T17:20:49.97Z</time></trkpt><trkpt lat="40.50114665658652" lon="17.630729910724302"><ele>128.33333333333334</ele><time>2026-04-21T17:20:50.97Z</time></trkpt><trkpt lat="40.50132597658335" lon="17.630703364493957"><ele>127.66666666666667</ele><time>2026-04-21T17:20:51.97Z</time></trkpt><trkpt lat="40.501482417524905" lon="17.63068565189744"><ele>127.0</ele><time>2026-04-21T17:20:52.97Z</time></trkpt><trkpt lat="40.5016208900421" lon="17.630670813813612"><ele>127.0</ele><time>2026-04-21T17:20:53.97Z</time></trkpt><trkpt lat="40.501739875191866" lon="17.63065583433944"><ele>126.99999999999999</ele><time>2026-04-21T17:20:54.97Z</time></trkpt><trkpt lat="40.501824190906554" lon="17.630656068065523"><ele>126.99999999999999</ele><time>2026-04-21T17:20:55.97Z</time></trkpt><trkpt lat="40.50191884324507" lon="17.63065866674714"><ele>127.0</ele><time>2026-04-21T17:20:57.97Z</time></trkpt><trkpt lat="40.50195304131907" lon="17.630777624343416"><ele>127.0</ele><time>2026-04-21T17:21:00.97Z</time></trkpt><trkpt lat="40.50202073099972" lon="17.630807675755417"><ele>126.5</ele><time>2026-04-21T17:21:02.97Z</time></trkpt><trkpt lat="40.50210153688447" lon="17.630866905434168"><ele>126.0</ele><time>2026-04-21T17:21:05.97Z</time></trkpt><trkpt lat="40.50210970469233" lon="17.630954238213725"><ele>125.5</ele><time>2026-04-21T17:21:07.97Z</time></trkpt><trkpt lat="40.502176592198495" lon="17.63066238488744"><ele>125.0</ele><time>2026-04-21T17:23:24.991Z</time></trkpt><trkpt lat="40.5021215206861" lon="17.63060151094476"><ele>125.5</ele><time>2026-04-21T17:23:44.998Z</time></trkpt><trkpt lat="40.501990720269326" lon="17.630600396133964"><ele>126.0</ele><time>2026-04-21T17:23:46.999Z</time></trkpt><trkpt lat="40.50188716005013" lon="17.630617831410177"><ele>126.5</ele><time>2026-04-21T17:23:47.999Z</time></trkpt><trkpt lat="40.50174922735607" lon="17.63063156674888"><ele>127.0</ele><time>2026-04-21T17:23:48.999Z</time></trkpt><trkpt lat="40.501591478719575" lon="17.630641681395396"><ele>127.0</ele><time>2026-04-21T17:23:49.999Z</time></trkpt><trkpt lat="40.50145467273139" lon="17.63064817412166"><ele>127.0</ele><time>2026-04-21T17:23:50.999Z</time></trkpt><trkpt lat="40.50132760499094" lon="17.630657255975926"><ele>127.0</ele><time>2026-04-21T17:23:51.999Z</time></trkpt><trkpt lat="40.50121440077313" lon="17.63067015954772"><ele>127.0</ele><time>2026-04-21T17:23:53Z</time></trkpt><trkpt lat="40.50110719912598" lon="17.630682914632455"><ele>127.39999999999999</ele><time>2026-04-21T17:23:54Z</time></trkpt><trkpt lat="40.50100663360697" lon="17.630695072004787"><ele>127.79999999999998</ele><time>2026-04-21T17:23:55Z</time></trkpt><trkpt lat="40.500905806596315" lon="17.630705367497555"><ele>128.2</ele><time>2026-04-21T17:23:56Z</time></trkpt><trkpt lat="40.50079416135867" lon="17.630711914055016"><ele>128.6</ele><time>2026-04-21T17:23:57Z</time></trkpt><trkpt lat="40.50067341933084" lon="17.630725394723168"><ele>129.0</ele><time>2026-04-21T17:23:58Z</time></trkpt><trkpt lat="40.500545336482354" lon="17.630740622120836"><ele>129.75</ele><time>2026-04-21T17:23:59Z</time></trkpt><trkpt lat="40.50040983363626" lon="17.630752424771526"><ele>130.5</ele><time>2026-04-21T17:24:00Z</time></trkpt><trkpt lat="40.500267178425545" lon="17.630760215064523"><ele>131.25</ele><time>2026-04-21T17:24:01Z</time></trkpt><trkpt lat="40.50012017131138" lon="17.630772938793065"><ele>132.0</ele><time>2026-04-21T17:24:02Z</time></trkpt><trkpt lat="40.49994759931263" lon="17.63078619436486"><ele>132.0</ele><time>2026-04-21T17:24:03Z</time></trkpt><trkpt lat="40.49975558065248" lon="17.6308031414983"><ele>132.0</ele><time>2026-04-21T17:24:04Z</time></trkpt><trkpt lat="40.49956137836751" lon="17.63082179551953"><ele>132.0</ele><time>2026-04-21T17:24:05Z</time></trkpt><trkpt lat="40.499368314763025" lon="17.630840920704173"><ele>132.0</ele><time>2026-04-21T17:24:06Z</time></trkpt><trkpt lat="40.49916790994696" lon="17.630855026576874"><ele>132.0</ele><time>2026-04-21T17:24:07.001Z</time></trkpt><trkpt lat="40.49900298387685" lon="17.63087044703074"><ele>132.0</ele><time>2026-04-21T17:24:08.001Z</time></trkpt><trkpt lat="40.498854728282076" lon="17.630887037863715"><ele>131.33333333333334</ele><time>2026-04-21T17:24:09.001Z</time></trkpt><trkpt lat="40.49870958338422" lon="17.630912160816344"><ele>130.66666666666669</ele><time>2026-04-21T17:24:10.001Z</time></trkpt><trkpt lat="40.49855777171113" lon="17.630946769549173"><ele>130.0</ele><time>2026-04-21T17:24:11.001Z</time></trkpt><trkpt lat="40.49840010329403" lon="17.630994325151946"><ele>130.0</ele><time>2026-04-21T17:24:12.001Z</time></trkpt><trkpt lat="40.4982354104664" lon="17.631056136751635"><ele>130.0</ele><time>2026-04-21T17:24:13.001Z</time></trkpt><trkpt lat="40.49806637003511" lon="17.631125691341644"><ele>130.0</ele><time>2026-04-21T17:24:14.001Z</time></trkpt><trkpt lat="40.49789911920627" lon="17.631203834777804"><ele>132.0</ele><time>2026-04-21T17:24:15.001Z</time></trkpt><trkpt lat="40.49772973320147" lon="17.63130223376117"><ele>134.0</ele><time>2026-04-21T17:24:16.001Z</time></trkpt><trkpt lat="40.4975585266608" lon="17.631417803067094"><ele>136.0</ele><time>2026-04-21T17:24:17.001Z</time></trkpt><trkpt lat="40.497383832203596" lon="17.631523369089347"><ele>136.0</ele><time>2026-04-21T17:24:18.001Z</time></trkpt><trkpt lat="40.497210358147974" lon="17.63163504154492"><ele>136.0</ele><time>2026-04-21T17:24:19.001Z</time></trkpt><trkpt lat="40.497033996105806" lon="17.63174360288237"><ele>136.0</ele><time>2026-04-21T17:24:20.001Z</time></trkpt><trkpt lat="40.496868714131345" lon="17.631840958016483"><ele>136.0</ele><time>2026-04-21T17:24:21.001Z</time></trkpt><trkpt lat="40.49671240313835" lon="17.631931187406835"><ele>136.0</ele><time>2026-04-21T17:24:22.001Z</time></trkpt><trkpt lat="40.49656255196306" lon="17.632017967478173"><ele>136.0</ele><time>2026-04-21T17:24:23.001Z</time></trkpt><trkpt lat="40.49640291466114" lon="17.632118026231165"><ele>133.33333333333334</ele><time>2026-04-21T17:24:24.001Z</time></trkpt><trkpt lat="40.49623425396222" lon="17.632218676217345"><ele>130.66666666666666</ele><time>2026-04-21T17:24:25.001Z</time></trkpt><trkpt lat="40.49605574599105" lon="17.63232186082016"><ele>128.0</ele><time>2026-04-21T17:24:26.001Z</time></trkpt><trkpt lat="40.495875228846344" lon="17.63243032645211"><ele>128.0</ele><time>2026-04-21T17:24:27.001Z</time></trkpt><trkpt lat="40.49569219848891" lon="17.632537554056267"><ele>128.0</ele><time>2026-04-21T17:24:28.001Z</time></trkpt><trkpt lat="40.49551146862985" lon="17.632647046045445"><ele>128.0</ele><time>2026-04-21T17:24:29.001Z</time></trkpt><trkpt lat="40.495329995334224" lon="17.632754837374534"><ele>125.33333333333333</ele><time>2026-04-21T17:24:30.001Z</time></trkpt><trkpt lat="40.49514775385038" lon="17.63286451152549"><ele>122.66666666666666</ele><time>2026-04-21T17:24:31.001Z</time></trkpt><trkpt lat="40.49496173184574" lon="17.63297614153433"><ele>120.0</ele><time>2026-04-21T17:24:32.001Z</time></trkpt><trkpt lat="40.494767737573746" lon="17.633088709212046"><ele>118.0</ele><time>2026-04-21T17:24:33.001Z</time></trkpt><trkpt lat="40.49458094332447" lon="17.63319922465986"><ele>116.0</ele><time>2026-04-21T17:24:34.001Z</time></trkpt><trkpt lat="40.494388906327" lon="17.633312766868162"><ele>114.0</ele><time>2026-04-21T17:24:35.001Z</time></trkpt><trkpt lat="40.494193852042386" lon="17.633426506614125"><ele>114.0</ele><time>2026-04-21T17:24:36.001Z</time></trkpt><trkpt lat="40.493995021932946" lon="17.633542731505536"><ele>114.0</ele><time>2026-04-21T17:24:37.001Z</time></trkpt><trkpt lat="40.4937949143881" lon="17.633662295870224"><ele>114.0</ele><time>2026-04-21T17:24:38.001Z</time></trkpt><trkpt lat="40.493595459518424" lon="17.63378219148961"><ele>113.33333333333334</ele><time>2026-04-21T17:24:39.001Z</time></trkpt><trkpt lat="40.49340080316503" lon="17.633903089462216"><ele>112.66666666666667</ele><time>2026-04-21T17:24:40.001Z</time></trkpt><trkpt lat="40.49320984955142" lon="17.63403487816791"><ele>112.0</ele><time>2026-04-21T17:24:41.001Z</time></trkpt><trkpt lat="40.493028808322755" lon="17.634179260527898"><ele>110.66666666666667</ele><time>2026-04-21T17:24:42.001Z</time></trkpt><trkpt lat="40.49284597653988" lon="17.634334139044633"><ele>109.33333333333334</ele><time>2026-04-21T17:24:43.001Z</time></trkpt><trkpt lat="40.49267402929867" lon="17.634493112939456"><ele>108.0</ele><time>2026-04-21T17:24:44.001Z</time></trkpt><trkpt lat="40.49250573684064" lon="17.63465579283863"><ele>108.0</ele><time>2026-04-21T17:24:45.001Z</time></trkpt><trkpt lat="40.49233910889693" lon="17.634835468557128"><ele>108.0</ele><time>2026-04-21T17:24:46.001Z</time></trkpt><trkpt lat="40.49218191931859" lon="17.63502755938178"><ele>108.0</ele><time>2026-04-21T17:24:47.001Z</time></trkpt><trkpt lat="40.49204982058979" lon="17.635216578842357"><ele>108.0</ele><time>2026-04-21T17:24:48.001Z</time></trkpt><trkpt lat="40.491932573606285" lon="17.635412885995834"><ele>108.0</ele><time>2026-04-21T17:24:49.001Z</time></trkpt><trkpt lat="40.491824598102575" lon="17.635615385485007"><ele>108.0</ele><time>2026-04-21T17:24:50.001Z</time></trkpt><trkpt lat="40.491714523560326" lon="17.635810955739817"><ele>108.0</ele><time>2026-04-21T17:24:51.001Z</time></trkpt><trkpt lat="40.49161110885191" lon="17.636005280039175"><ele>108.0</ele><time>2026-04-21T17:24:52.001Z</time></trkpt><trkpt lat="40.49151756732132" lon="17.636205483462728"><ele>108.0</ele><time>2026-04-21T17:24:53.001Z</time></trkpt><trkpt lat="40.49143599950524" lon="17.636406959415343"><ele>107.33333333333334</ele><time>2026-04-21T17:24:54.001Z</time></trkpt><trkpt lat="40.49135987617364" lon="17.636598612468436"><ele>106.66666666666667</ele><time>2026-04-21T17:24:55.001Z</time></trkpt><trkpt lat="40.491293458206805" lon="17.63678508370977"><ele>106.0</ele><time>2026-04-21T17:24:56.001Z</time></trkpt><trkpt lat="40.491236203329024" lon="17.63696607302348"><ele>105.75</ele><time>2026-04-21T17:24:57.001Z</time></trkpt><trkpt lat="40.49117973938755" lon="17.637143966800107"><ele>105.5</ele><time>2026-04-21T17:24:58.001Z</time></trkpt><trkpt lat="40.491126153935745" lon="17.637323668196753"><ele>105.25</ele><time>2026-04-21T17:24:59.001Z</time></trkpt><trkpt lat="40.49108497276718" lon="17.637504241530063"><ele>105.0</ele><time>2026-04-21T17:25:00.001Z</time></trkpt><trkpt lat="40.49104869282018" lon="17.637693845687824"><ele>105.25</ele><time>2026-04-21T17:25:01.001Z</time></trkpt><trkpt lat="40.4910218531729" lon="17.637879647463155"><ele>105.5</ele><time>2026-04-21T17:25:02.001Z</time></trkpt><trkpt lat="40.490997089368186" lon="17.638049815093005"><ele>105.75</ele><time>2026-04-21T17:25:03.001Z</time></trkpt><trkpt lat="40.490977810623626" lon="17.638203583148385"><ele>106.0</ele><time>2026-04-21T17:25:04.001Z</time></trkpt><trkpt lat="40.49095802428296" lon="17.63834730008439"><ele>106.0</ele><time>2026-04-21T17:25:05.001Z</time></trkpt><trkpt lat="40.49093453425758" lon="17.638485013904816"><ele>106.0</ele><time>2026-04-21T17:25:06.001Z</time></trkpt><trkpt lat="40.49091062675558" lon="17.63861948940025"><ele>106.0</ele><time>2026-04-21T17:25:07.001Z</time></trkpt><trkpt lat="40.49088922196636" lon="17.638746172733754"><ele>106.0</ele><time>2026-04-21T17:25:08.001Z</time></trkpt><trkpt lat="40.49087002489056" lon="17.63886925446149"><ele>106.0</ele><time>2026-04-21T17:25:09.001Z</time></trkpt><trkpt lat="40.49085157816377" lon="17.638988746821905"><ele>106.0</ele><time>2026-04-21T17:25:10.001Z</time></trkpt><trkpt lat="40.4908338166632" lon="17.639108020867372"><ele>106.0</ele><time>2026-04-21T17:25:11.001Z</time></trkpt><trkpt lat="40.49081627115057" lon="17.63922685435483"><ele>106.0</ele><time>2026-04-21T17:25:12.001Z</time></trkpt><trkpt lat="40.49079787352754" lon="17.639344532815038"><ele>106.0</ele><time>2026-04-21T17:25:13.001Z</time></trkpt><trkpt lat="40.490782358854325" lon="17.63946685686815"><ele>106.0</ele><time>2026-04-21T17:25:14.001Z</time></trkpt><trkpt lat="40.49076416219792" lon="17.63957662211483"><ele>105.66666666666667</ele><time>2026-04-21T17:25:15.001Z</time></trkpt><trkpt lat="40.49074551718473" lon="17.63968697666568"><ele>105.33333333333334</ele><time>2026-04-21T17:25:16.001Z</time></trkpt><trkpt lat="40.49072511167722" lon="17.63979574647519"><ele>105.0</ele><time>2026-04-21T17:25:17.001Z</time></trkpt><trkpt lat="40.49070647900514" lon="17.639899144095843"><ele>104.66666666666666</ele><time>2026-04-21T17:25:18.001Z</time></trkpt><trkpt lat="40.490687829817325" lon="17.640003845806675"><ele>104.33333333333333</ele><time>2026-04-21T17:25:19.001Z</time></trkpt><trkpt lat="40.49067210316213" lon="17.64012101727895"><ele>104.0</ele><time>2026-04-21T17:25:20.001Z</time></trkpt><trkpt lat="40.49065470485285" lon="17.64024245293299"><ele>104.2</ele><time>2026-04-21T17:25:21.001Z</time></trkpt><trkpt lat="40.490632885992184" lon="17.640367792803847"><ele>104.4</ele><time>2026-04-21T17:25:22.001Z</time></trkpt><trkpt lat="40.49061116076741" lon="17.640491566334372"><ele>104.6</ele><time>2026-04-21T17:25:23.001Z</time></trkpt><trkpt lat="40.49058811861749" lon="17.640627418950697"><ele>104.8</ele><time>2026-04-21T17:25:24.001Z</time></trkpt><trkpt lat="40.49056861864836" lon="17.64076573008107"><ele>105.0</ele><time>2026-04-21T17:25:25.001Z</time></trkpt><trkpt lat="40.49054736703882" lon="17.640905088985882"><ele>105.0</ele><time>2026-04-21T17:25:26.001Z</time></trkpt><trkpt lat="40.490525783603026" lon="17.6410608825962"><ele>105.0</ele><time>2026-04-21T17:25:27.001Z</time></trkpt><trkpt lat="40.49049942065409" lon="17.641227679904883"><ele>105.0</ele><time>2026-04-21T17:25:28.001Z</time></trkpt><trkpt lat="40.49046814309845" lon="17.64139693319498"><ele>105.0</ele><time>2026-04-21T17:25:29.001Z</time></trkpt><trkpt lat="40.49044020637485" lon="17.64155455729444"><ele>104.4</ele><time>2026-04-21T17:25:30.001Z</time></trkpt><trkpt lat="40.490413644965074" lon="17.641702358416634"><ele>103.8</ele><time>2026-04-21T17:25:31.001Z</time></trkpt><trkpt lat="40.490391171015936" lon="17.64183905194168"><ele>103.19999999999999</ele><time>2026-04-21T17:25:32.001Z</time></trkpt><trkpt lat="40.490368890546286" lon="17.64197290989582"><ele>102.6</ele><time>2026-04-21T17:25:33.001Z</time></trkpt><trkpt lat="40.49034914694278" lon="17.6421005424556"><ele>102.0</ele><time>2026-04-21T17:25:34.001Z</time></trkpt><trkpt lat="40.49032910535171" lon="17.642224001925314"><ele>102.0</ele><time>2026-04-21T17:25:35.001Z</time></trkpt><trkpt lat="40.49030917326248" lon="17.642343371957818"><ele>102.0</ele><time>2026-04-21T17:25:36.001Z</time></trkpt><trkpt lat="40.49029532373394" lon="17.64246057706481"><ele>102.0</ele><time>2026-04-21T17:25:37.001Z</time></trkpt><trkpt lat="40.49028061884555" lon="17.64256659049023"><ele>102.0</ele><time>2026-04-21T17:25:38.001Z</time></trkpt><trkpt lat="40.49025997640232" lon="17.642657164627895"><ele>102.0</ele><time>2026-04-21T17:25:39.001Z</time></trkpt><trkpt lat="40.490238196710926" lon="17.642739805977207"><ele>102.0</ele><time>2026-04-21T17:25:40.001Z</time></trkpt><trkpt lat="40.49018228224193" lon="17.642874632984995"><ele>101.83333333333333</ele><time>2026-04-21T17:25:42.001Z</time></trkpt><trkpt lat="40.49011217397397" lon="17.64296343653693"><ele>101.66666666666666</ele><time>2026-04-21T17:25:44.001Z</time></trkpt><trkpt lat="40.49006084741379" lon="17.64301800642032"><ele>101.5</ele><time>2026-04-21T17:25:45.001Z</time></trkpt><trkpt lat="40.489989344499904" lon="17.64306752384507"><ele>101.33333333333333</ele><time>2026-04-21T17:25:46.001Z</time></trkpt><trkpt lat="40.48990648678926" lon="17.643094814894525"><ele>101.16666666666666</ele><time>2026-04-21T17:25:47.001Z</time></trkpt><trkpt lat="40.48980788693917" lon="17.643112953625003"><ele>101.0</ele><time>2026-04-21T17:25:48.001Z</time></trkpt><trkpt lat="40.4897143433651" lon="17.643108806542262"><ele>101.0</ele><time>2026-04-21T17:25:49.001Z</time></trkpt><trkpt lat="40.48961512163902" lon="17.64308417871999"><ele>101.0</ele><time>2026-04-21T17:25:50.001Z</time></trkpt><trkpt lat="40.48951084512641" lon="17.643062135444545"><ele>101.0</ele><time>2026-04-21T17:25:51.001Z</time></trkpt><trkpt lat="40.48940261328726" lon="17.64304378569439"><ele>101.0</ele><time>2026-04-21T17:25:52.001Z</time></trkpt><trkpt lat="40.48929018752858" lon="17.64302810458144"><ele>101.0</ele><time>2026-04-21T17:25:53.001Z</time></trkpt><trkpt lat="40.48916973262134" lon="17.64301027346806"><ele>100.75</ele><time>2026-04-21T17:25:54.001Z</time></trkpt><trkpt lat="40.48905161501099" lon="17.642990084004953"><ele>100.5</ele><time>2026-04-21T17:25:55.001Z</time></trkpt><trkpt lat="40.488923348369255" lon="17.64297469454755"><ele>100.25</ele><time>2026-04-21T17:25:56.001Z</time></trkpt><trkpt lat="40.4887819659142" lon="17.642943267421316"><ele>100.0</ele><time>2026-04-21T17:25:57.001Z</time></trkpt><trkpt lat="40.48862497064689" lon="17.642921381286286"><ele>98.66666666666667</ele><time>2026-04-21T17:25:58.001Z</time></trkpt><trkpt lat="40.48845506709179" lon="17.642895013229502"><ele>97.33333333333334</ele><time>2026-04-21T17:25:59.001Z</time></trkpt><trkpt lat="40.48827701757387" lon="17.64286403357817"><ele>96.0</ele><time>2026-04-21T17:26:00.001Z</time></trkpt><trkpt lat="40.48810685712455" lon="17.642848508003656"><ele>96.0</ele><time>2026-04-21T17:26:01.001Z</time></trkpt><trkpt lat="40.487929841419636" lon="17.642828861770163"><ele>96.0</ele><time>2026-04-21T17:26:02.001Z</time></trkpt><trkpt lat="40.4877557855024" lon="17.642806595413465"><ele>96.0</ele><time>2026-04-21T17:26:03.001Z</time></trkpt><trkpt lat="40.48757901697657" lon="17.64278060412034"><ele>95.66666666666667</ele><time>2026-04-21T17:26:04.001Z</time></trkpt><trkpt lat="40.48740028062358" lon="17.64275279215297"><ele>95.33333333333334</ele><time>2026-04-21T17:26:05.001Z</time></trkpt><trkpt lat="40.48721538086169" lon="17.642722366700035"><ele>95.0</ele><time>2026-04-21T17:26:06.001Z</time></trkpt><trkpt lat="40.48702540810845" lon="17.642692729624763"><ele>94.66666666666667</ele><time>2026-04-21T17:26:07.001Z</time></trkpt><trkpt lat="40.48682780275256" lon="17.64265875299941"><ele>94.33333333333333</ele><time>2026-04-21T17:26:08.001Z</time></trkpt><trkpt lat="40.48662479939369" lon="17.642633399422813"><ele>94.0</ele><time>2026-04-21T17:26:09.001Z</time></trkpt><trkpt lat="40.48642693189483" lon="17.642605655201013"><ele>94.0</ele><time>2026-04-21T17:26:10.001Z</time></trkpt><trkpt lat="40.48623122705568" lon="17.642570586571832"><ele>94.0</ele><time>2026-04-21T17:26:11.001Z</time></trkpt><trkpt lat="40.486037845830865" lon="17.642539606743075"><ele>94.0</ele><time>2026-04-21T17:26:12.001Z</time></trkpt><trkpt lat="40.4858423025785" lon="17.642507315443957"><ele>94.0</ele><time>2026-04-21T17:26:13.001Z</time></trkpt><trkpt lat="40.48564798023739" lon="17.642479349468566"><ele>94.0</ele><time>2026-04-21T17:26:14.001Z</time></trkpt><trkpt lat="40.48545468521394" lon="17.642448686541282"><ele>94.0</ele><time>2026-04-21T17:26:15.001Z</time></trkpt><trkpt lat="40.485261963732945" lon="17.642419254420638"><ele>93.33333333333333</ele><time>2026-04-21T17:26:16.001Z</time></trkpt><trkpt lat="40.48506922822482" lon="17.64238572062451"><ele>92.66666666666667</ele><time>2026-04-21T17:26:17.001Z</time></trkpt><trkpt lat="40.48488241046709" lon="17.642361404008746"><ele>92.0</ele><time>2026-04-21T17:26:18.001Z</time></trkpt><trkpt lat="40.48469281437968" lon="17.642334072822234"><ele>92.33333333333334</ele><time>2026-04-21T17:26:19.001Z</time></trkpt><trkpt lat="40.48450298148041" lon="17.64230036319328"><ele>92.66666666666667</ele><time>2026-04-21T17:26:20.001Z</time></trkpt><trkpt lat="40.484319542221705" lon="17.64226655970164"><ele>93.0</ele><time>2026-04-21T17:26:21.001Z</time></trkpt><trkpt lat="40.48413786310132" lon="17.642238108019015"><ele>93.0</ele><time>2026-04-21T17:26:22.001Z</time></trkpt><trkpt lat="40.4839528969532" lon="17.642204245635615"><ele>93.0</ele><time>2026-04-21T17:26:23.001Z</time></trkpt><trkpt lat="40.483766162391625" lon="17.64217405260441"><ele>93.0</ele><time>2026-04-21T17:26:24.001Z</time></trkpt><trkpt lat="40.48357938523569" lon="17.642142426994294"><ele>92.66666666666667</ele><time>2026-04-21T17:26:25.001Z</time></trkpt><trkpt lat="40.48338940833377" lon="17.64211218337981"><ele>92.33333333333334</ele><time>2026-04-21T17:26:26.001Z</time></trkpt><trkpt lat="40.48320342208424" lon="17.642083061089636"><ele>92.0</ele><time>2026-04-21T17:26:27.001Z</time></trkpt><trkpt lat="40.48301932610428" lon="17.642055661070483"><ele>91.66666666666667</ele><time>2026-04-21T17:26:28.001Z</time></trkpt><trkpt lat="40.48283099718693" lon="17.642023084407498"><ele>91.33333333333333</ele><time>2026-04-21T17:26:29.001Z</time></trkpt><trkpt lat="40.48264574156928" lon="17.641993561233107"><ele>91.0</ele><time>2026-04-21T17:26:30.001Z</time></trkpt><trkpt lat="40.482456393983355" lon="17.641967274958475"><ele>91.0</ele><time>2026-04-21T17:26:31.001Z</time></trkpt><trkpt lat="40.48226884872295" lon="17.641941883707823"><ele>91.0</ele><time>2026-04-21T17:26:32.001Z</time></trkpt><trkpt lat="40.48209456043807" lon="17.641955857935205"><ele>91.0</ele><time>2026-04-21T17:26:33.001Z</time></trkpt><trkpt lat="40.48193533383344" lon="17.642042062082847"><ele>91.0</ele><time>2026-04-21T17:26:34.001Z</time></trkpt><trkpt lat="40.48179373640176" lon="17.642175572918006"><ele>91.0</ele><time>2026-04-21T17:26:35.001Z</time></trkpt><trkpt lat="40.481692099697725" lon="17.642388679550635"><ele>91.0</ele><time>2026-04-21T17:26:36.001Z</time></trkpt><trkpt lat="40.481611492581855" lon="17.642646921587776"><ele>91.0</ele><time>2026-04-21T17:26:37.001Z</time></trkpt><trkpt lat="40.481116377824435" lon="17.64176125833963"><ele>91.0</ele><time>2026-04-21T17:26:38.001Z</time></trkpt><trkpt lat="40.48092584928709" lon="17.64173347095125"><ele>91.0</ele><time>2026-04-21T17:26:39.001Z</time></trkpt><trkpt lat="40.48072887884038" lon="17.641706122295886"><ele>91.0</ele><time>2026-04-21T17:26:40.001Z</time></trkpt><trkpt lat="40.48053509908191" lon="17.641672509323868"><ele>91.0</ele><time>2026-04-21T17:26:41.001Z</time></trkpt><trkpt lat="40.48034371274057" lon="17.6416460231542"><ele>91.0</ele><time>2026-04-21T17:26:42.001Z</time></trkpt><trkpt lat="40.48015059350353" lon="17.641616506320823"><ele>91.0</ele><time>2026-04-21T17:26:43.001Z</time></trkpt><trkpt lat="40.479956069934595" lon="17.641587592609635"><ele>91.0</ele><time>2026-04-21T17:26:44.001Z</time></trkpt><trkpt lat="40.479762061237466" lon="17.641560436936427"><ele>91.0</ele><time>2026-04-21T17:26:45.001Z</time></trkpt><trkpt lat="40.479565083160665" lon="17.641528879985803"><ele>91.0</ele><time>2026-04-21T17:26:46.001Z</time></trkpt><trkpt lat="40.479366618882715" lon="17.641499743142422"><ele>91.33333333333333</ele><time>2026-04-21T17:26:47.001Z</time></trkpt><trkpt lat="40.479176188740524" lon="17.64147241110404"><ele>91.66666666666667</ele><time>2026-04-21T17:26:48.001Z</time></trkpt><trkpt lat="40.478980155766806" lon="17.641443185393154"><ele>92.0</ele><time>2026-04-21T17:26:49.001Z</time></trkpt><trkpt lat="40.478783365836776" lon="17.64141617688879"><ele>91.66666666666667</ele><time>2026-04-21T17:26:50.001Z</time></trkpt><trkpt lat="40.478587306390246" lon="17.64138755380775"><ele>91.33333333333333</ele><time>2026-04-21T17:26:51.001Z</time></trkpt><trkpt lat="40.478391470373616" lon="17.641356598172358"><ele>91.0</ele><time>2026-04-21T17:26:52.001Z</time></trkpt><trkpt lat="40.47819302710365" lon="17.641326170442067"><ele>91.0</ele><time>2026-04-21T17:26:53.001Z</time></trkpt><trkpt lat="40.47799591684341" lon="17.641301351542072"><ele>91.0</ele><time>2026-04-21T17:26:54.001Z</time></trkpt><trkpt lat="40.47779408794818" lon="17.641272874011808"><ele>91.0</ele><time>2026-04-21T17:26:55.001Z</time></trkpt><trkpt lat="40.47759631926944" lon="17.641241519574233"><ele>91.66666666666666</ele><time>2026-04-21T17:26:56.001Z</time></trkpt><trkpt lat="40.47739608708191" lon="17.641208568681296"><ele>92.33333333333333</ele><time>2026-04-21T17:26:57.001Z</time></trkpt><trkpt lat="40.47719423685469" lon="17.64117642069534"><ele>93.0</ele><time>2026-04-21T17:26:58.001Z</time></trkpt><trkpt lat="40.47699065343848" lon="17.641150240352204"><ele>93.66666666666667</ele><time>2026-04-21T17:26:59.001Z</time></trkpt><trkpt lat="40.47678963224502" lon="17.641122710081532"><ele>94.33333333333334</ele><time>2026-04-21T17:27:00.001Z</time></trkpt><trkpt lat="40.47658717721435" lon="17.64109638554429"><ele>95.0</ele><time>2026-04-21T17:27:01.001Z</time></trkpt><trkpt lat="40.476385174732776" lon="17.64106546358977"><ele>95.0</ele><time>2026-04-21T17:27:02.001Z</time></trkpt><trkpt lat="40.476184183386266" lon="17.64103129757942"><ele>95.0</ele><time>2026-04-21T17:27:03.001Z</time></trkpt><trkpt lat="40.47598213073429" lon="17.640994414809356"><ele>95.0</ele><time>2026-04-21T17:27:04.001Z</time></trkpt><trkpt lat="40.475780899228575" lon="17.640963268126857"><ele>95.0</ele><time>2026-04-21T17:27:05.001Z</time></trkpt><trkpt lat="40.47557885349999" lon="17.640933811046363"><ele>95.0</ele><time>2026-04-21T17:27:06.001Z</time></trkpt><trkpt lat="40.475379120558195" lon="17.64090403760863"><ele>95.0</ele><time>2026-04-21T17:27:07.001Z</time></trkpt><trkpt lat="40.47517866464802" lon="17.640874008537775"><ele>95.0</ele><time>2026-04-21T17:27:08.001Z</time></trkpt><trkpt lat="40.47497676171085" lon="17.640844537721843"><ele>95.0</ele><time>2026-04-21T17:27:09.001Z</time></trkpt><trkpt lat="40.474769044530845" lon="17.640812251363958"><ele>95.0</ele><time>2026-04-21T17:27:10.001Z</time></trkpt><trkpt lat="40.47456276677297" lon="17.640777748963384"><ele>94.66666666666667</ele><time>2026-04-21T17:27:11.001Z</time></trkpt><trkpt lat="40.47435011949617" lon="17.640747755984478"><ele>94.33333333333333</ele><time>2026-04-21T17:27:12.001Z</time></trkpt><trkpt lat="40.474137485174744" lon="17.640715458123513"><ele>94.0</ele><time>2026-04-21T17:27:13.001Z</time></trkpt><trkpt lat="40.473924729628656" lon="17.640682055361896"><ele>94.0</ele><time>2026-04-21T17:27:14.001Z</time></trkpt><trkpt lat="40.4737111286756" lon="17.640647264666846"><ele>94.0</ele><time>2026-04-21T17:27:15.001Z</time></trkpt><trkpt lat="40.47349794294071" lon="17.64061339958349"><ele>94.0</ele><time>2026-04-21T17:27:16.001Z</time></trkpt><trkpt lat="40.47328353946907" lon="17.640587682985394"><ele>94.0</ele><time>2026-04-21T17:27:17.001Z</time></trkpt><trkpt lat="40.47307123230664" lon="17.640556268032384"><ele>94.0</ele><time>2026-04-21T17:27:18.001Z</time></trkpt><trkpt lat="40.47285030286291" lon="17.64052888743903"><ele>94.0</ele><time>2026-04-21T17:27:19.001Z</time></trkpt><trkpt lat="40.47263426507877" lon="17.640496792822805"><ele>94.33333333333333</ele><time>2026-04-21T17:27:20.001Z</time></trkpt><trkpt lat="40.47241128261484" lon="17.64046434322473"><ele>94.66666666666667</ele><time>2026-04-21T17:27:21.001Z</time></trkpt><trkpt lat="40.47219073926317" lon="17.640421678013645"><ele>95.0</ele><time>2026-04-21T17:27:22.001Z</time></trkpt><trkpt lat="40.47197009639688" lon="17.640388076830394"><ele>93.66666666666667</ele><time>2026-04-21T17:27:23.001Z</time></trkpt><trkpt lat="40.471753094867516" lon="17.640351786063555"><ele>92.33333333333333</ele><time>2026-04-21T17:27:24.001Z</time></trkpt><trkpt lat="40.47153363479374" lon="17.64031575182425"><ele>91.0</ele><time>2026-04-21T17:27:25.001Z</time></trkpt><trkpt lat="40.471308771319045" lon="17.640289939503813"><ele>90.5</ele><time>2026-04-21T17:27:26.001Z</time></trkpt><trkpt lat="40.47108690531556" lon="17.64025610841449"><ele>90.0</ele><time>2026-04-21T17:27:27.001Z</time></trkpt><trkpt lat="40.4708597917711" lon="17.640218776147478"><ele>90.0</ele><time>2026-04-21T17:27:28.001Z</time></trkpt><trkpt lat="40.47064241919501" lon="17.640188503063357"><ele>90.0</ele><time>2026-04-21T17:27:29.001Z</time></trkpt><trkpt lat="40.470425556805736" lon="17.640154029322677"><ele>90.0</ele><time>2026-04-21T17:27:30.001Z</time></trkpt><trkpt lat="40.47020594713914" lon="17.640117952873087"><ele>90.0</ele><time>2026-04-21T17:27:31.001Z</time></trkpt><trkpt lat="40.46998690196873" lon="17.640082739961255"><ele>90.0</ele><time>2026-04-21T17:27:32.001Z</time></trkpt><trkpt lat="40.46976475116249" lon="17.640045464222414"><ele>90.0</ele><time>2026-04-21T17:27:33.001Z</time></trkpt><trkpt lat="40.46954267263161" lon="17.64001529920385"><ele>90.66666666666667</ele><time>2026-04-21T17:27:34.001Z</time></trkpt><trkpt lat="40.469326034981954" lon="17.639977202062827"><ele>91.33333333333334</ele><time>2026-04-21T17:27:35.001Z</time></trkpt><trkpt lat="40.46911580828084" lon="17.639946207936877"><ele>92.0</ele><time>2026-04-21T17:27:36.001Z</time></trkpt><trkpt lat="40.468905395696964" lon="17.639914532424392"><ele>92.33333333333334</ele><time>2026-04-21T17:27:37.001Z</time></trkpt><trkpt lat="40.46869537478035" lon="17.639884171811605"><ele>92.66666666666667</ele><time>2026-04-21T17:27:38.001Z</time></trkpt><trkpt lat="40.46848556944124" lon="17.6398540684175"><ele>93.0</ele><time>2026-04-21T17:27:39.001Z</time></trkpt><trkpt lat="40.468276253657756" lon="17.63982516641153"><ele>93.0</ele><time>2026-04-21T17:27:40.001Z</time></trkpt><trkpt lat="40.468069215834625" lon="17.639796431536812"><ele>93.0</ele><time>2026-04-21T17:27:41.001Z</time></trkpt><trkpt lat="40.467864769481004" lon="17.63976333984656"><ele>93.0</ele><time>2026-04-21T17:27:42.001Z</time></trkpt><trkpt lat="40.46765934521528" lon="17.63973079373997"><ele>93.0</ele><time>2026-04-21T17:27:43.001Z</time></trkpt><trkpt lat="40.46745246316907" lon="17.639695693716956"><ele>93.0</ele><time>2026-04-21T17:27:44.001Z</time></trkpt><trkpt lat="40.46724733864101" lon="17.63966317421843"><ele>93.0</ele><time>2026-04-21T17:27:45.001Z</time></trkpt><trkpt lat="40.46703967797367" lon="17.639636144881607"><ele>93.0</ele><time>2026-04-21T17:27:46.001Z</time></trkpt><trkpt lat="40.46684151653638" lon="17.63960782419217"><ele>93.0</ele><time>2026-04-21T17:27:47.001Z</time></trkpt><trkpt lat="40.46663695310176" lon="17.639582045755024"><ele>93.0</ele><time>2026-04-21T17:27:48.001Z</time></trkpt><trkpt lat="40.46643235497044" lon="17.639552430424654"><ele>94.0</ele><time>2026-04-21T17:27:49.001Z</time></trkpt><trkpt lat="40.46622283672327" lon="17.639522222404512"><ele>95.0</ele><time>2026-04-21T17:27:50.001Z</time></trkpt><trkpt lat="40.46601300686955" lon="17.639487605988776"><ele>96.0</ele><time>2026-04-21T17:27:51.001Z</time></trkpt><trkpt lat="40.46580509336162" lon="17.63945641084872"><ele>93.66666666666667</ele><time>2026-04-21T17:27:52.001Z</time></trkpt><trkpt lat="40.46559325608166" lon="17.639424896365256"><ele>91.33333333333334</ele><time>2026-04-21T17:27:53.001Z</time></trkpt><trkpt lat="40.465383207476435" lon="17.639399991558438"><ele>89.0</ele><time>2026-04-21T17:27:54.001Z</time></trkpt><trkpt lat="40.465175007485534" lon="17.639369238367244"><ele>89.0</ele><time>2026-04-21T17:27:55.001Z</time></trkpt><trkpt lat="40.464966027478575" lon="17.639337759066894"><ele>89.0</ele><time>2026-04-21T17:27:56.001Z</time></trkpt><trkpt lat="40.46475702808376" lon="17.639301923712445"><ele>89.0</ele><time>2026-04-21T17:27:57.001Z</time></trkpt><trkpt lat="40.46454794244506" lon="17.639270031591764"><ele>88.66666666666667</ele><time>2026-04-21T17:27:58.001Z</time></trkpt><trkpt lat="40.464341573797896" lon="17.639234941149066"><ele>88.33333333333333</ele><time>2026-04-21T17:27:59.001Z</time></trkpt><trkpt lat="40.46413371601829" lon="17.639205614384352"><ele>88.0</ele><time>2026-04-21T17:28:00.001Z</time></trkpt><trkpt lat="40.46392466845066" lon="17.639174016162706"><ele>87.66666666666666</ele><time>2026-04-21T17:28:01.001Z</time></trkpt><trkpt lat="40.46371346449307" lon="17.63914313002478"><ele>87.33333333333333</ele><time>2026-04-21T17:28:02.001Z</time></trkpt><trkpt lat="40.46350954738343" lon="17.639110790123084"><ele>87.0</ele><time>2026-04-21T17:28:03.001Z</time></trkpt><trkpt lat="40.46330064380716" lon="17.639078052865177"><ele>87.0</ele><time>2026-04-21T17:28:04.001Z</time></trkpt><trkpt lat="40.463094621947086" lon="17.639046842150222"><ele>87.0</ele><time>2026-04-21T17:28:05.001Z</time></trkpt><trkpt lat="40.46288424699768" lon="17.639010725640073"><ele>87.0</ele><time>2026-04-21T17:28:06.001Z</time></trkpt><trkpt lat="40.46267169340139" lon="17.638977321615176"><ele>87.0</ele><time>2026-04-21T17:28:07.001Z</time></trkpt><trkpt lat="40.46246717533695" lon="17.63894608638691"><ele>87.0</ele><time>2026-04-21T17:28:08.001Z</time></trkpt><trkpt lat="40.46226211807075" lon="17.638917099981548"><ele>87.0</ele><time>2026-04-21T17:28:09.001Z</time></trkpt><trkpt lat="40.462053498681435" lon="17.63888651108809"><ele>87.33333333333333</ele><time>2026-04-21T17:28:10.001Z</time></trkpt><trkpt lat="40.46184712514071" lon="17.63885401798169"><ele>87.66666666666666</ele><time>2026-04-21T17:28:11.001Z</time></trkpt><trkpt lat="40.46163823150956" lon="17.638817116299055"><ele>88.0</ele><time>2026-04-21T17:28:12.001Z</time></trkpt><trkpt lat="40.461430374293" lon="17.638786774045847"><ele>87.66666666666666</ele><time>2026-04-21T17:28:13.001Z</time></trkpt><trkpt lat="40.4612279673528" lon="17.638757035306565"><ele>87.33333333333333</ele><time>2026-04-21T17:28:14.001Z</time></trkpt><trkpt lat="40.46102277659457" lon="17.638728077767922"><ele>87.0</ele><time>2026-04-21T17:28:15.001Z</time></trkpt><trkpt lat="40.4608229744498" lon="17.638699189951538"><ele>87.0</ele><time>2026-04-21T17:28:16.001Z</time></trkpt><trkpt lat="40.46061499029168" lon="17.638675221678653"><ele>87.0</ele><time>2026-04-21T17:28:17.001Z</time></trkpt><trkpt lat="40.46041053421677" lon="17.638645425112525"><ele>87.0</ele><time>2026-04-21T17:28:18.001Z</time></trkpt><trkpt lat="40.46020494819048" lon="17.63861775649249"><ele>87.33333333333333</ele><time>2026-04-21T17:28:19.001Z</time></trkpt><trkpt lat="40.459998179899614" lon="17.638587878777226"><ele>87.66666666666666</ele><time>2026-04-21T17:28:20.001Z</time></trkpt><trkpt lat="40.459793355519096" lon="17.6385522728681"><ele>88.0</ele><time>2026-04-21T17:28:21.001Z</time></trkpt><trkpt lat="40.45958837756534" lon="17.6385172111942"><ele>88.0</ele><time>2026-04-21T17:28:22.001Z</time></trkpt><trkpt lat="40.4593805511722" lon="17.638485946795363"><ele>88.0</ele><time>2026-04-21T17:28:23.001Z</time></trkpt><trkpt lat="40.459177009083845" lon="17.638457260624257"><ele>88.0</ele><time>2026-04-21T17:28:24.001Z</time></trkpt><trkpt lat="40.45897166828061" lon="17.638427616770937"><ele>88.0</ele><time>2026-04-21T17:28:25.001Z</time></trkpt><trkpt lat="40.45876517368903" lon="17.638394297076935"><ele>88.0</ele><time>2026-04-21T17:28:26.001Z</time></trkpt><trkpt lat="40.45856123395858" lon="17.638362901245795"><ele>88.0</ele><time>2026-04-21T17:28:27.001Z</time></trkpt><trkpt lat="40.45835780029299" lon="17.638331636372914"><ele>88.0</ele><time>2026-04-21T17:28:28.001Z</time></trkpt><trkpt lat="40.458152548919465" lon="17.638301926046434"><ele>88.0</ele><time>2026-04-21T17:28:29.001Z</time></trkpt><trkpt lat="40.45794782765034" lon="17.638269647117166"><ele>88.0</ele><time>2026-04-21T17:28:30.001Z</time></trkpt><trkpt lat="40.457739804955125" lon="17.638237946682096"><ele>87.66666666666666</ele><time>2026-04-21T17:28:31.001Z</time></trkpt><trkpt lat="40.45753338179822" lon="17.63820301500407"><ele>87.33333333333333</ele><time>2026-04-21T17:28:32.001Z</time></trkpt><trkpt lat="40.457328309962016" lon="17.6381770145998"><ele>87.0</ele><time>2026-04-21T17:28:33.001Z</time></trkpt><trkpt lat="40.45712371427786" lon="17.638144121077197"><ele>85.66666666666667</ele><time>2026-04-21T17:28:34.001Z</time></trkpt><trkpt lat="40.45692022885728" lon="17.6381143556884"><ele>84.33333333333334</ele><time>2026-04-21T17:28:35.001Z</time></trkpt><trkpt lat="40.45671328745101" lon="17.638083056034752"><ele>83.0</ele><time>2026-04-21T17:28:36.001Z</time></trkpt><trkpt lat="40.45650632047597" lon="17.638043890998134"><ele>83.0</ele><time>2026-04-21T17:28:37.001Z</time></trkpt><trkpt lat="40.456303429145926" lon="17.638011198712555"><ele>83.0</ele><time>2026-04-21T17:28:38.001Z</time></trkpt><trkpt lat="40.456093758613974" lon="17.63798235546607"><ele>83.0</ele><time>2026-04-21T17:28:39.001Z</time></trkpt><trkpt lat="40.455890084620854" lon="17.637948531532405"><ele>83.66666666666667</ele><time>2026-04-21T17:28:40.001Z</time></trkpt><trkpt lat="40.455683164269736" lon="17.637915729527926"><ele>84.33333333333333</ele><time>2026-04-21T17:28:41.001Z</time></trkpt><trkpt lat="40.455480253173064" lon="17.637888039614605"><ele>85.0</ele><time>2026-04-21T17:28:42.001Z</time></trkpt><trkpt lat="40.45527764135877" lon="17.637855223622342"><ele>85.0</ele><time>2026-04-21T17:28:43.001Z</time></trkpt><trkpt lat="40.455074414591316" lon="17.637824732223603"><ele>85.0</ele><time>2026-04-21T17:28:44.001Z</time></trkpt><trkpt lat="40.454875694947695" lon="17.637794234982675"><ele>85.0</ele><time>2026-04-21T17:28:45.001Z</time></trkpt><trkpt lat="40.45466768347299" lon="17.63776746751396"><ele>85.66666666666666</ele><time>2026-04-21T17:28:46.001Z</time></trkpt><trkpt lat="40.45445886502586" lon="17.63773770385043"><ele>86.33333333333333</ele><time>2026-04-21T17:28:47.001Z</time></trkpt><trkpt lat="40.45425432658415" lon="17.637702796777752"><ele>87.0</ele><time>2026-04-21T17:28:48.001Z</time></trkpt><trkpt lat="40.45405065543097" lon="17.637681662605356"><ele>87.0</ele><time>2026-04-21T17:28:49.001Z</time></trkpt><trkpt lat="40.45384091674345" lon="17.63764772785392"><ele>87.0</ele><time>2026-04-21T17:28:50.001Z</time></trkpt><trkpt lat="40.45363533807675" lon="17.63761473985298"><ele>87.0</ele><time>2026-04-21T17:28:51.001Z</time></trkpt><trkpt lat="40.453429681196546" lon="17.637582965115897"><ele>86.33333333333333</ele><time>2026-04-21T17:28:52.001Z</time></trkpt><trkpt lat="40.453226268156016" lon="17.63755119307749"><ele>85.66666666666666</ele><time>2026-04-21T17:28:53.001Z</time></trkpt><trkpt lat="40.45302117364795" lon="17.637518930639303"><ele>85.0</ele><time>2026-04-21T17:28:54.001Z</time></trkpt><trkpt lat="40.45281749078776" lon="17.637487607112973"><ele>85.0</ele><time>2026-04-21T17:28:55.001Z</time></trkpt><trkpt lat="40.45261044346362" lon="17.63745436663221"><ele>85.0</ele><time>2026-04-21T17:28:56.001Z</time></trkpt><trkpt lat="40.45240802449743" lon="17.637426891315688"><ele>85.0</ele><time>2026-04-21T17:28:57.001Z</time></trkpt><trkpt lat="40.45220391600196" lon="17.637397445509194"><ele>85.33333333333333</ele><time>2026-04-21T17:28:58.001Z</time></trkpt><trkpt lat="40.451997183366196" lon="17.63736670882308"><ele>85.66666666666667</ele><time>2026-04-21T17:28:59.001Z</time></trkpt><trkpt lat="40.45179093748383" lon="17.637337027175164"><ele>86.0</ele><time>2026-04-21T17:29:00.001Z</time></trkpt><trkpt lat="40.45158477325232" lon="17.63730727175955"><ele>86.0</ele><time>2026-04-21T17:29:01.001Z</time></trkpt><trkpt lat="40.45138101914312" lon="17.63727436743549"><ele>86.0</ele><time>2026-04-21T17:29:02.001Z</time></trkpt><trkpt lat="40.451173061037" lon="17.637249318463535"><ele>86.0</ele><time>2026-04-21T17:29:03.001Z</time></trkpt><trkpt lat="40.450968509181024" lon="17.637218636751637"><ele>86.0</ele><time>2026-04-21T17:29:04.001Z</time></trkpt><trkpt lat="40.450763510555554" lon="17.637184165395805"><ele>86.0</ele><time>2026-04-21T17:29:05.001Z</time></trkpt><trkpt lat="40.45055845670161" lon="17.637151691120796"><ele>86.0</ele><time>2026-04-21T17:29:06.001Z</time></trkpt><trkpt lat="40.450353280093026" lon="17.63711693666932"><ele>86.33333333333334</ele><time>2026-04-21T17:29:07.001Z</time></trkpt><trkpt lat="40.45014587968391" lon="17.63708937957568"><ele>86.66666666666667</ele><time>2026-04-21T17:29:08.001Z</time></trkpt><trkpt lat="40.449947382419865" lon="17.637057002273483"><ele>87.0</ele><time>2026-04-21T17:29:09.001Z</time></trkpt><trkpt lat="40.449734055579306" lon="17.637023733316145"><ele>87.0</ele><time>2026-04-21T17:29:10.001Z</time></trkpt><trkpt lat="40.44952657760067" lon="17.63699488037244"><ele>87.0</ele><time>2026-04-21T17:29:11.001Z</time></trkpt><trkpt lat="40.449317972959854" lon="17.63695822612138"><ele>87.0</ele><time>2026-04-21T17:29:12.001Z</time></trkpt><trkpt lat="40.449119166997484" lon="17.63693381932562"><ele>87.0</ele><time>2026-04-21T17:29:13.001Z</time></trkpt><trkpt lat="40.448914069869154" lon="17.63690356649683"><ele>87.0</ele><time>2026-04-21T17:29:14.001Z</time></trkpt><trkpt lat="40.448710039422465" lon="17.63686892526867"><ele>87.0</ele><time>2026-04-21T17:29:15.001Z</time></trkpt><trkpt lat="40.44850048378629" lon="17.636839271573503"><ele>86.66666666666667</ele><time>2026-04-21T17:29:16.001Z</time></trkpt><trkpt lat="40.448291377774346" lon="17.63680583576626"><ele>86.33333333333334</ele><time>2026-04-21T17:29:17.001Z</time></trkpt><trkpt lat="40.44808870976362" lon="17.636779994073887"><ele>86.0</ele><time>2026-04-21T17:29:18.001Z</time></trkpt><trkpt lat="40.44788203180384" lon="17.636752809299363"><ele>85.66666666666667</ele><time>2026-04-21T17:29:19.001Z</time></trkpt><trkpt lat="40.447679197819554" lon="17.636722816544783"><ele>85.33333333333333</ele><time>2026-04-21T17:29:20.001Z</time></trkpt><trkpt lat="40.44747694856002" lon="17.6366885439651"><ele>85.0</ele><time>2026-04-21T17:29:21.001Z</time></trkpt><trkpt lat="40.44726946180171" lon="17.636654480400228"><ele>84.66666666666666</ele><time>2026-04-21T17:29:22.001Z</time></trkpt><trkpt lat="40.44706434231544" lon="17.636620688789517"><ele>84.33333333333333</ele><time>2026-04-21T17:29:23.001Z</time></trkpt><trkpt lat="40.44685801643953" lon="17.636589789923697"><ele>84.0</ele><time>2026-04-21T17:29:24.001Z</time></trkpt><trkpt lat="40.44665684020573" lon="17.636558995298"><ele>84.0</ele><time>2026-04-21T17:29:25.001Z</time></trkpt><trkpt lat="40.44645095937811" lon="17.63652614257617"><ele>84.0</ele><time>2026-04-21T17:29:26.001Z</time></trkpt><trkpt lat="40.44624685865507" lon="17.636497373563728"><ele>84.0</ele><time>2026-04-21T17:29:27.001Z</time></trkpt><trkpt lat="40.446040957112736" lon="17.636467904558035"><ele>84.0</ele><time>2026-04-21T17:29:28.001Z</time></trkpt><trkpt lat="40.44583350713362" lon="17.63643599675227"><ele>84.0</ele><time>2026-04-21T17:29:29.001Z</time></trkpt><trkpt lat="40.445626236632634" lon="17.636405975289353"><ele>84.0</ele><time>2026-04-21T17:29:30.001Z</time></trkpt><trkpt lat="40.445419950706366" lon="17.63637278984869"><ele>84.0</ele><time>2026-04-21T17:29:31.001Z</time></trkpt><trkpt lat="40.44521531428883" lon="17.636337935964896"><ele>84.0</ele><time>2026-04-21T17:29:32.001Z</time></trkpt><trkpt lat="40.44500885496585" lon="17.63630353746774"><ele>84.0</ele><time>2026-04-21T17:29:33.001Z</time></trkpt><trkpt lat="40.444803927351906" lon="17.63627054542328"><ele>84.0</ele><time>2026-04-21T17:29:34.001Z</time></trkpt><trkpt lat="40.444597128513806" lon="17.63624132606173"><ele>84.0</ele><time>2026-04-21T17:29:35.001Z</time></trkpt><trkpt lat="40.44439593830168" lon="17.6362138054488"><ele>84.0</ele><time>2026-04-21T17:29:36.001Z</time></trkpt><trkpt lat="40.444190772372465" lon="17.6361884869429"><ele>84.0</ele><time>2026-04-21T17:29:37.001Z</time></trkpt><trkpt lat="40.44398329353913" lon="17.63616014920626"><ele>84.0</ele><time>2026-04-21T17:29:38.001Z</time></trkpt><trkpt lat="40.44377928230979" lon="17.6361327957999"><ele>84.0</ele><time>2026-04-21T17:29:39.001Z</time></trkpt><trkpt lat="40.443576143653345" lon="17.636101807076006"><ele>83.33333333333333</ele><time>2026-04-21T17:29:40.001Z</time></trkpt><trkpt lat="40.44336959747643" lon="17.63606876604052"><ele>82.66666666666666</ele><time>2026-04-21T17:29:41.001Z</time></trkpt><trkpt lat="40.44316487707976" lon="17.63603722512416"><ele>82.0</ele><time>2026-04-21T17:29:42.001Z</time></trkpt><trkpt lat="40.44295986600684" lon="17.636006477185497"><ele>82.0</ele><time>2026-04-21T17:29:43.001Z</time></trkpt><trkpt lat="40.442755674620905" lon="17.635975006203445"><ele>82.0</ele><time>2026-04-21T17:29:44.001Z</time></trkpt><trkpt lat="40.44255134536327" lon="17.635944391392446"><ele>82.0</ele><time>2026-04-21T17:29:45.001Z</time></trkpt><trkpt lat="40.44234829773822" lon="17.63591426269202"><ele>82.0</ele><time>2026-04-21T17:29:46.001Z</time></trkpt><trkpt lat="40.44214301319378" lon="17.635886658159524"><ele>82.0</ele><time>2026-04-21T17:29:47.001Z</time></trkpt><trkpt lat="40.441938396105925" lon="17.635858821453258"><ele>82.0</ele><time>2026-04-21T17:29:48.001Z</time></trkpt><trkpt lat="40.441734083323674" lon="17.635828320796477"><ele>81.66666666666666</ele><time>2026-04-21T17:29:49.001Z</time></trkpt><trkpt lat="40.441528898537854" lon="17.63579736255417"><ele>81.33333333333333</ele><time>2026-04-21T17:29:50.001Z</time></trkpt><trkpt lat="40.44132228152957" lon="17.635766170337398"><ele>81.0</ele><time>2026-04-21T17:29:51.001Z</time></trkpt><trkpt lat="40.441116741559185" lon="17.635734714761373"><ele>81.66666666666667</ele><time>2026-04-21T17:29:52.001Z</time></trkpt><trkpt lat="40.440910562567446" lon="17.635703145978038"><ele>82.33333333333334</ele><time>2026-04-21T17:29:53.001Z</time></trkpt><trkpt lat="40.44070566600186" lon="17.635676852268354"><ele>83.0</ele><time>2026-04-21T17:29:54.001Z</time></trkpt><trkpt lat="40.44049843190998" lon="17.63565140796204"><ele>82.66666666666667</ele><time>2026-04-21T17:29:55.001Z</time></trkpt><trkpt lat="40.44029491296383" lon="17.635616858765566"><ele>82.33333333333333</ele><time>2026-04-21T17:29:56.001Z</time></trkpt><trkpt lat="40.44009039367267" lon="17.635578856991255"><ele>82.0</ele><time>2026-04-21T17:29:57.001Z</time></trkpt><trkpt lat="40.439885944496" lon="17.635543623520256"><ele>82.0</ele><time>2026-04-21T17:29:58.001Z</time></trkpt><trkpt lat="40.4396824763376" lon="17.635514463605872"><ele>82.0</ele><time>2026-04-21T17:29:59.001Z</time></trkpt><trkpt lat="40.439478404927186" lon="17.63548447577686"><ele>82.0</ele><time>2026-04-21T17:30:00.001Z</time></trkpt><trkpt lat="40.43927129915458" lon="17.635450343834226"><ele>82.0</ele><time>2026-04-21T17:30:01.001Z</time></trkpt><trkpt lat="40.439062393882466" lon="17.63541548039103"><ele>82.0</ele><time>2026-04-21T17:30:02.001Z</time></trkpt><trkpt lat="40.438855962431006" lon="17.635384692118308"><ele>82.0</ele><time>2026-04-21T17:30:03.001Z</time></trkpt><trkpt lat="40.43864790416583" lon="17.635353847403557"><ele>81.66666666666666</ele><time>2026-04-21T17:30:04.001Z</time></trkpt><trkpt lat="40.438441952473426" lon="17.63532409979114"><ele>81.33333333333333</ele><time>2026-04-21T17:30:05.001Z</time></trkpt><trkpt lat="40.4382352604118" lon="17.635293148406056"><ele>81.0</ele><time>2026-04-21T17:30:06.001Z</time></trkpt><trkpt lat="40.43802877656407" lon="17.63526360284511"><ele>81.0</ele><time>2026-04-21T17:30:07.001Z</time></trkpt><trkpt lat="40.437823254260664" lon="17.635233127069316"><ele>81.0</ele><time>2026-04-21T17:30:08.001Z</time></trkpt><trkpt lat="40.43761827460148" lon="17.63520248589926"><ele>81.0</ele><time>2026-04-21T17:30:09.001Z</time></trkpt><trkpt lat="40.43741210551406" lon="17.635172426993634"><ele>81.0</ele><time>2026-04-21T17:30:10.001Z</time></trkpt><trkpt lat="40.43720537423352" lon="17.635144566880463"><ele>81.0</ele><time>2026-04-21T17:30:11.001Z</time></trkpt><trkpt lat="40.43699606806136" lon="17.6351142887431"><ele>81.0</ele><time>2026-04-21T17:30:12.001Z</time></trkpt><trkpt lat="40.43678862873903" lon="17.635082104271866"><ele>80.66666666666667</ele><time>2026-04-21T17:30:13.001Z</time></trkpt><trkpt lat="40.43658164589884" lon="17.635047439713194"><ele>80.33333333333334</ele><time>2026-04-21T17:30:14.001Z</time></trkpt><trkpt lat="40.436377937746066" lon="17.63501315555114"><ele>80.0</ele><time>2026-04-21T17:30:15.001Z</time></trkpt><trkpt lat="40.436175539752035" lon="17.63498308490377"><ele>79.66666666666667</ele><time>2026-04-21T17:30:16.001Z</time></trkpt><trkpt lat="40.43597134680131" lon="17.634950604507583"><ele>79.33333333333333</ele><time>2026-04-21T17:30:17.001Z</time></trkpt><trkpt lat="40.43576776520953" lon="17.634917198220528"><ele>79.0</ele><time>2026-04-21T17:30:18.001Z</time></trkpt><trkpt lat="40.43556282897098" lon="17.634887707101743"><ele>80.33333333333333</ele><time>2026-04-21T17:30:19.001Z</time></trkpt><trkpt lat="40.43535711811157" lon="17.63485875114281"><ele>81.66666666666667</ele><time>2026-04-21T17:30:20.001Z</time></trkpt><trkpt lat="40.43515231447019" lon="17.634827500252186"><ele>83.0</ele><time>2026-04-21T17:30:21.001Z</time></trkpt><trkpt lat="40.434945196519315" lon="17.63479770783873"><ele>83.0</ele><time>2026-04-21T17:30:22.001Z</time></trkpt><trkpt lat="40.43473951389184" lon="17.634768819446553"><ele>83.0</ele><time>2026-04-21T17:30:23.001Z</time></trkpt><trkpt lat="40.43453491023542" lon="17.634738259059485"><ele>83.0</ele><time>2026-04-21T17:30:24.001Z</time></trkpt><trkpt lat="40.43432926926551" lon="17.6347089577679"><ele>83.0</ele><time>2026-04-21T17:30:25.001Z</time></trkpt><trkpt lat="40.43412357832796" lon="17.634680892121747"><ele>83.0</ele><time>2026-04-21T17:30:26.001Z</time></trkpt><trkpt lat="40.433919607255085" lon="17.634648016162444"><ele>83.0</ele><time>2026-04-21T17:30:27.001Z</time></trkpt><trkpt lat="40.43371399053895" lon="17.634612973501778"><ele>82.0</ele><time>2026-04-21T17:30:28.001Z</time></trkpt><trkpt lat="40.43351037138959" lon="17.634583386313512"><ele>81.0</ele><time>2026-04-21T17:30:29.001Z</time></trkpt><trkpt lat="40.43330238972691" lon="17.634553656097154"><ele>80.0</ele><time>2026-04-21T17:30:30.001Z</time></trkpt><trkpt lat="40.43309679548015" lon="17.634523807705108"><ele>80.33333333333334</ele><time>2026-04-21T17:30:31.001Z</time></trkpt><trkpt lat="40.43289156653306" lon="17.634493561420367"><ele>80.66666666666667</ele><time>2026-04-21T17:30:32.001Z</time></trkpt><trkpt lat="40.43268635171543" lon="17.634462169396116"><ele>81.0</ele><time>2026-04-21T17:30:33.001Z</time></trkpt><trkpt lat="40.43248039871938" lon="17.634430117765483"><ele>81.0</ele><time>2026-04-21T17:30:34.001Z</time></trkpt><trkpt lat="40.43227412866378" lon="17.634399386879867"><ele>81.0</ele><time>2026-04-21T17:30:35.001Z</time></trkpt><trkpt lat="40.432067092869474" lon="17.634370987493405"><ele>81.0</ele><time>2026-04-21T17:30:36.001Z</time></trkpt><trkpt lat="40.431860800566646" lon="17.63434147849213"><ele>81.0</ele><time>2026-04-21T17:30:37.001Z</time></trkpt><trkpt lat="40.43165381468825" lon="17.634313992026463"><ele>81.0</ele><time>2026-04-21T17:30:38.001Z</time></trkpt><trkpt lat="40.431448684733894" lon="17.63428359589437"><ele>81.0</ele><time>2026-04-21T17:30:39.001Z</time></trkpt><trkpt lat="40.431241635993025" lon="17.634252696972972"><ele>81.0</ele><time>2026-04-21T17:30:40.001Z</time></trkpt><trkpt lat="40.43103466650346" lon="17.634220974938877"><ele>81.0</ele><time>2026-04-21T17:30:41.001Z</time></trkpt><trkpt lat="40.43082812813195" lon="17.63418954309413"><ele>81.0</ele><time>2026-04-21T17:30:42.001Z</time></trkpt><trkpt lat="40.430620374951815" lon="17.634156114160415"><ele>81.0</ele><time>2026-04-21T17:30:43.001Z</time></trkpt><trkpt lat="40.43041526591201" lon="17.634122368157083"><ele>81.0</ele><time>2026-04-21T17:30:44.001Z</time></trkpt><trkpt lat="40.43021263046044" lon="17.63409304393092"><ele>81.0</ele><time>2026-04-21T17:30:45.001Z</time></trkpt><trkpt lat="40.43000803459982" lon="17.634066059745205"><ele>81.0</ele><time>2026-04-21T17:30:46.001Z</time></trkpt><trkpt lat="40.429802995451475" lon="17.634037322598065"><ele>81.0</ele><time>2026-04-21T17:30:47.001Z</time></trkpt><trkpt lat="40.42959881154048" lon="17.63400448017779"><ele>81.0</ele><time>2026-04-21T17:30:48.001Z</time></trkpt><trkpt lat="40.429390333783154" lon="17.63397168384227"><ele>81.66666666666667</ele><time>2026-04-21T17:30:49.001Z</time></trkpt><trkpt lat="40.42918980070963" lon="17.633938827792036"><ele>82.33333333333334</ele><time>2026-04-21T17:30:50.001Z</time></trkpt><trkpt lat="40.42898622355213" lon="17.633908410976545"><ele>83.0</ele><time>2026-04-21T17:30:51.001Z</time></trkpt><trkpt lat="40.42878383454692" lon="17.63387751468715"><ele>83.33333333333334</ele><time>2026-04-21T17:30:52.001Z</time></trkpt><trkpt lat="40.42857900464697" lon="17.633848217135395"><ele>83.66666666666667</ele><time>2026-04-21T17:30:53.001Z</time></trkpt><trkpt lat="40.42837419122631" lon="17.633818062992454"><ele>84.0</ele><time>2026-04-21T17:30:54.001Z</time></trkpt><trkpt lat="40.42816918960241" lon="17.633786580558848"><ele>84.0</ele><time>2026-04-21T17:30:55.001Z</time></trkpt><trkpt lat="40.42796258980677" lon="17.633756144362245"><ele>84.0</ele><time>2026-04-21T17:30:56.001Z</time></trkpt><trkpt lat="40.427754119866" lon="17.633723924428235"><ele>84.0</ele><time>2026-04-21T17:30:57.001Z</time></trkpt><trkpt lat="40.42754837834837" lon="17.633692100144344"><ele>84.0</ele><time>2026-04-21T17:30:58.001Z</time></trkpt><trkpt lat="40.427340452212135" lon="17.633660299617862"><ele>84.0</ele><time>2026-04-21T17:30:59.001Z</time></trkpt><trkpt lat="40.427136696747795" lon="17.633628962493635"><ele>84.0</ele><time>2026-04-21T17:31:00.001Z</time></trkpt><trkpt lat="40.42693383539547" lon="17.633599879370742"><ele>83.66666666666667</ele><time>2026-04-21T17:31:01.001Z</time></trkpt><trkpt lat="40.42672738695682" lon="17.633570030643845"><ele>83.33333333333334</ele><time>2026-04-21T17:31:02.001Z</time></trkpt><trkpt lat="40.42651915171546" lon="17.633542757823886"><ele>83.0</ele><time>2026-04-21T17:31:03.001Z</time></trkpt><trkpt lat="40.42631011558494" lon="17.63351074780314"><ele>83.0</ele><time>2026-04-21T17:31:04.001Z</time></trkpt><trkpt lat="40.426106438053175" lon="17.63348127275277"><ele>83.0</ele><time>2026-04-21T17:31:05.001Z</time></trkpt><trkpt lat="40.42590293268233" lon="17.633453287892834"><ele>83.0</ele><time>2026-04-21T17:31:06.001Z</time></trkpt><trkpt lat="40.425693495709325" lon="17.633421457742205"><ele>83.0</ele><time>2026-04-21T17:31:07.001Z</time></trkpt><trkpt lat="40.4254897574136" lon="17.633386952823972"><ele>83.0</ele><time>2026-04-21T17:31:08.001Z</time></trkpt><trkpt lat="40.42528528716724" lon="17.633350971437157"><ele>83.0</ele><time>2026-04-21T17:31:09.001Z</time></trkpt><trkpt lat="40.425082587236886" lon="17.633316148315235"><ele>82.33333333333334</ele><time>2026-04-21T17:31:10.001Z</time></trkpt><trkpt lat="40.42488027044487" lon="17.633281209093816"><ele>81.66666666666667</ele><time>2026-04-21T17:31:11.001Z</time></trkpt><trkpt lat="40.424676646609534" lon="17.63325167618664"><ele>81.0</ele><time>2026-04-21T17:31:12.001Z</time></trkpt><trkpt lat="40.42447250369621" lon="17.633221688821063"><ele>80.66666666666667</ele><time>2026-04-21T17:31:13.001Z</time></trkpt><trkpt lat="40.42426746136126" lon="17.63319316511249"><ele>80.33333333333334</ele><time>2026-04-21T17:31:14.001Z</time></trkpt><trkpt lat="40.42406103446398" lon="17.63316385747944"><ele>80.0</ele><time>2026-04-21T17:31:15.001Z</time></trkpt><trkpt lat="40.423855086044455" lon="17.633135372549283"><ele>81.33333333333334</ele><time>2026-04-21T17:31:16.001Z</time></trkpt><trkpt lat="40.42364865947122" lon="17.63310465036819"><ele>82.66666666666667</ele><time>2026-04-21T17:31:17.001Z</time></trkpt><trkpt lat="40.423443923749645" lon="17.63307115611028"><ele>84.0</ele><time>2026-04-21T17:31:18.001Z</time></trkpt><trkpt lat="40.4232404707471" lon="17.633038838542255"><ele>84.0</ele><time>2026-04-21T17:31:19.001Z</time></trkpt><trkpt lat="40.42303327987399" lon="17.633008576888816"><ele>84.0</ele><time>2026-04-21T17:31:20.001Z</time></trkpt><trkpt lat="40.42282739296264" lon="17.632976446338727"><ele>84.0</ele><time>2026-04-21T17:31:21.001Z</time></trkpt><trkpt lat="40.422622945438135" lon="17.632946184182554"><ele>84.0</ele><time>2026-04-21T17:31:22.001Z</time></trkpt><trkpt lat="40.42241951531137" lon="17.63291573780089"><ele>84.0</ele><time>2026-04-21T17:31:23.001Z</time></trkpt><trkpt lat="40.42221316488532" lon="17.632881228897514"><ele>84.0</ele><time>2026-04-21T17:31:24.001Z</time></trkpt><trkpt lat="40.42200683410282" lon="17.63284927599686"><ele>84.0</ele><time>2026-04-21T17:31:25.001Z</time></trkpt><trkpt lat="40.42180102158488" lon="17.63281881241449"><ele>84.0</ele><time>2026-04-21T17:31:26.001Z</time></trkpt><trkpt lat="40.42159476313736" lon="17.632789143163453"><ele>84.0</ele><time>2026-04-21T17:31:27.001Z</time></trkpt><trkpt lat="40.42138860952131" lon="17.632762669562528"><ele>84.0</ele><time>2026-04-21T17:31:28.001Z</time></trkpt><trkpt lat="40.42118294710331" lon="17.632735590271125"><ele>84.0</ele><time>2026-04-21T17:31:29.001Z</time></trkpt><trkpt lat="40.420978872132984" lon="17.632711672344417"><ele>84.0</ele><time>2026-04-21T17:31:30.001Z</time></trkpt><trkpt lat="40.4207724762938" lon="17.632685164476335"><ele>84.0</ele><time>2026-04-21T17:31:31.001Z</time></trkpt><trkpt lat="40.42056655126014" lon="17.632657110997844"><ele>84.0</ele><time>2026-04-21T17:31:32.001Z</time></trkpt><trkpt lat="40.42036216657028" lon="17.632625523696152"><ele>84.0</ele><time>2026-04-21T17:31:33.001Z</time></trkpt><trkpt lat="40.42015945803375" lon="17.632596961745634"><ele>83.66666666666667</ele><time>2026-04-21T17:31:34.001Z</time></trkpt><trkpt lat="40.41995364874655" lon="17.6325700447175"><ele>83.33333333333334</ele><time>2026-04-21T17:31:35.001Z</time></trkpt><trkpt lat="40.41974764355679" lon="17.632537362539086"><ele>83.0</ele><time>2026-04-21T17:31:36.001Z</time></trkpt><trkpt lat="40.41954611919628" lon="17.632501213497765"><ele>83.0</ele><time>2026-04-21T17:31:37.001Z</time></trkpt><trkpt lat="40.419338490376106" lon="17.632457069950544"><ele>83.0</ele><time>2026-04-21T17:31:38.001Z</time></trkpt><trkpt lat="40.419147240092016" lon="17.63242621143536"><ele>83.0</ele><time>2026-04-21T17:31:39.001Z</time></trkpt><trkpt lat="40.418966998107926" lon="17.632405402310415"><ele>84.0</ele><time>2026-04-21T17:31:40.001Z</time></trkpt><trkpt lat="40.4188025334026" lon="17.632378932471035"><ele>85.0</ele><time>2026-04-21T17:31:41.001Z</time></trkpt><trkpt lat="40.41864923054303" lon="17.632354901649457"><ele>86.0</ele><time>2026-04-21T17:31:42.001Z</time></trkpt><trkpt lat="40.41849970613622" lon="17.632339051080784"><ele>86.0</ele><time>2026-04-21T17:31:43.001Z</time></trkpt><trkpt lat="40.418354602993155" lon="17.632318936408435"><ele>86.0</ele><time>2026-04-21T17:31:44.001Z</time></trkpt><trkpt lat="40.418233305587435" lon="17.63228746854736"><ele>86.0</ele><time>2026-04-21T17:31:45.001Z</time></trkpt><trkpt lat="40.41811371445798" lon="17.632250114558357"><ele>86.0</ele><time>2026-04-21T17:31:46.001Z</time></trkpt><trkpt lat="40.41801574603376" lon="17.632255378195133"><ele>85.6</ele><time>2026-04-21T17:31:47.001Z</time></trkpt><trkpt lat="40.41790872025668" lon="17.632249288607973"><ele>85.19999999999999</ele><time>2026-04-21T17:31:48.001Z</time></trkpt><trkpt lat="40.41778912516337" lon="17.632239491712717"><ele>84.80000000000001</ele><time>2026-04-21T17:31:49.001Z</time></trkpt><trkpt lat="40.41768682454566" lon="17.632220283558247"><ele>84.4</ele><time>2026-04-21T17:31:50.001Z</time></trkpt><trkpt lat="40.417608505164885" lon="17.632217569824896"><ele>84.0</ele><time>2026-04-21T17:31:51.001Z</time></trkpt><trkpt lat="40.417281395675865" lon="17.632167776811304"><ele>83.66666666666667</ele><time>2026-04-21T17:31:52.001Z</time></trkpt><trkpt lat="40.41711611508861" lon="17.63214593886557"><ele>83.33333333333334</ele><time>2026-04-21T17:31:53.001Z</time></trkpt><trkpt lat="40.41694864308944" lon="17.632119977147134"><ele>83.0</ele><time>2026-04-21T17:31:54.001Z</time></trkpt><trkpt lat="40.41677941985648" lon="17.63208930937484"><ele>83.0</ele><time>2026-04-21T17:31:55.001Z</time></trkpt><trkpt lat="40.41660691603774" lon="17.632063860131282"><ele>83.0</ele><time>2026-04-21T17:31:56.001Z</time></trkpt><trkpt lat="40.41643276990495" lon="17.632036195357333"><ele>83.0</ele><time>2026-04-21T17:31:57.001Z</time></trkpt><trkpt lat="40.41625888650949" lon="17.63200973251011"><ele>83.0</ele><time>2026-04-21T17:31:58.001Z</time></trkpt><trkpt lat="40.41609396761279" lon="17.631984734715104"><ele>83.0</ele><time>2026-04-21T17:31:59.001Z</time></trkpt><trkpt lat="40.41593537314029" lon="17.631959664110997"><ele>83.0</ele><time>2026-04-21T17:32:00.001Z</time></trkpt><trkpt lat="40.415774449660155" lon="17.63193691978908"><ele>83.0</ele><time>2026-04-21T17:32:01.001Z</time></trkpt><trkpt lat="40.415613408120215" lon="17.631915000854757"><ele>83.0</ele><time>2026-04-21T17:32:02.001Z</time></trkpt><trkpt lat="40.415453127043314" lon="17.63188707812461"><ele>83.0</ele><time>2026-04-21T17:32:03.001Z</time></trkpt><trkpt lat="40.41529069665399" lon="17.631864288387515"><ele>83.0</ele><time>2026-04-21T17:32:04.001Z</time></trkpt><trkpt lat="40.41512755878407" lon="17.631838667190554"><ele>83.0</ele><time>2026-04-21T17:32:05.001Z</time></trkpt><trkpt lat="40.41496523757702" lon="17.631812801033888"><ele>83.0</ele><time>2026-04-21T17:32:06.001Z</time></trkpt><trkpt lat="40.414801424300855" lon="17.63178607102994"><ele>83.33333333333334</ele><time>2026-04-21T17:32:07.001Z</time></trkpt><trkpt lat="40.41463941330347" lon="17.631759881440182"><ele>83.66666666666667</ele><time>2026-04-21T17:32:08.001Z</time></trkpt><trkpt lat="40.41447573823927" lon="17.631735153059683"><ele>84.0</ele><time>2026-04-21T17:32:09.001Z</time></trkpt><trkpt lat="40.414316187905214" lon="17.63171325199462"><ele>84.0</ele><time>2026-04-21T17:32:10.001Z</time></trkpt><trkpt lat="40.41416390949033" lon="17.631690892741755"><ele>84.0</ele><time>2026-04-21T17:32:11.001Z</time></trkpt><trkpt lat="40.414016884447854" lon="17.631673158968034"><ele>84.0</ele><time>2026-04-21T17:32:12.001Z</time></trkpt><trkpt lat="40.41387093100931" lon="17.631648264026648"><ele>84.0</ele><time>2026-04-21T17:32:13.001Z</time></trkpt><trkpt lat="40.4137280815204" lon="17.631627255204368"><ele>84.25</ele><time>2026-04-21T17:32:14.001Z</time></trkpt><trkpt lat="40.413591237185656" lon="17.631604358633396"><ele>84.5</ele><time>2026-04-21T17:32:15.001Z</time></trkpt><trkpt lat="40.413468746758774" lon="17.631583186337366"><ele>84.75</ele><time>2026-04-21T17:32:16.001Z</time></trkpt><trkpt lat="40.413348668894265" lon="17.631560322397263"><ele>85.0</ele><time>2026-04-21T17:32:17.001Z</time></trkpt><trkpt lat="40.413211426588326" lon="17.63154256728447"><ele>85.0</ele><time>2026-04-21T17:32:18.001Z</time></trkpt><trkpt lat="40.413072841048525" lon="17.631528387141476"><ele>85.0</ele><time>2026-04-21T17:32:19.001Z</time></trkpt><trkpt lat="40.412929898932425" lon="17.631512759583796"><ele>85.0</ele><time>2026-04-21T17:32:20.001Z</time></trkpt><trkpt lat="40.41278470414525" lon="17.631486709764157"><ele>85.0</ele><time>2026-04-21T17:32:21.001Z</time></trkpt><trkpt lat="40.41264687872443" lon="17.631459355346923"><ele>84.6</ele><time>2026-04-21T17:32:22.001Z</time></trkpt><trkpt lat="40.41252824387425" lon="17.631442222610097"><ele>84.2</ele><time>2026-04-21T17:32:23.001Z</time></trkpt><trkpt lat="40.412415314668465" lon="17.631426163510955"><ele>83.80000000000001</ele><time>2026-04-21T17:32:24.001Z</time></trkpt><trkpt lat="40.41231865460474" lon="17.631408864653167"><ele>83.4</ele><time>2026-04-21T17:32:25.001Z</time></trkpt><trkpt lat="40.41222892812289" lon="17.63139903970894"><ele>83.0</ele><time>2026-04-21T17:32:26.001Z</time></trkpt><trkpt lat="40.41214486075781" lon="17.631383958032007"><ele>83.0</ele><time>2026-04-21T17:32:27.001Z</time></trkpt><trkpt lat="40.41202731482482" lon="17.63134371058633"><ele>83.0</ele><time>2026-04-21T17:32:29.001Z</time></trkpt><trkpt lat="40.411919079429154" lon="17.63133611961056"><ele>83.0</ele><time>2026-04-21T17:32:31.001Z</time></trkpt><trkpt lat="40.41185651760513" lon="17.631316705459817"><ele>83.0</ele><time>2026-04-21T17:32:32.001Z</time></trkpt><trkpt lat="40.41178463212261" lon="17.631304505247407"><ele>83.0</ele><time>2026-04-21T17:32:33.001Z</time></trkpt><trkpt lat="40.4117051752195" lon="17.63129551286062"><ele>83.0</ele><time>2026-04-21T17:32:34.001Z</time></trkpt><trkpt lat="40.41161127697236" lon="17.63128572311542"><ele>83.0</ele><time>2026-04-21T17:32:35.001Z</time></trkpt><trkpt lat="40.4115079361445" lon="17.63127099065334"><ele>83.0</ele><time>2026-04-21T17:32:36.001Z</time></trkpt><trkpt lat="40.411397347549695" lon="17.6312532425865"><ele>83.0</ele><time>2026-04-21T17:32:37.001Z</time></trkpt><trkpt lat="40.41129073165017" lon="17.63124076891181"><ele>83.0</ele><time>2026-04-21T17:32:38.001Z</time></trkpt><trkpt lat="40.41117550958525" lon="17.631228198701443"><ele>83.0</ele><time>2026-04-21T17:32:39.001Z</time></trkpt><trkpt lat="40.41106850932532" lon="17.631213713501072"><ele>83.2</ele><time>2026-04-21T17:32:40.001Z</time></trkpt><trkpt lat="40.41097366382123" lon="17.631199024230703"><ele>83.4</ele><time>2026-04-21T17:32:41.001Z</time></trkpt><trkpt lat="40.41088663373951" lon="17.63118637086946"><ele>83.60000000000001</ele><time>2026-04-21T17:32:42.001Z</time></trkpt><trkpt lat="40.410806153291816" lon="17.63117479385555"><ele>83.80000000000001</ele><time>2026-04-21T17:32:43.001Z</time></trkpt><trkpt lat="40.41070691635559" lon="17.63116200224656"><ele>84.0</ele><time>2026-04-21T17:32:44.001Z</time></trkpt><trkpt lat="40.41059162714375" lon="17.631146862738124"><ele>83.83333333333333</ele><time>2026-04-21T17:32:45.001Z</time></trkpt><trkpt lat="40.41048012429872" lon="17.631125989388504"><ele>83.66666666666667</ele><time>2026-04-21T17:32:46.001Z</time></trkpt><trkpt lat="40.410391172140464" lon="17.631119407492527"><ele>83.5</ele><time>2026-04-21T17:32:47.001Z</time></trkpt><trkpt lat="40.41032490184747" lon="17.631113192369625"><ele>83.33333333333334</ele><time>2026-04-21T17:32:48.001Z</time></trkpt><trkpt lat="40.4102588205954" lon="17.63110746159901"><ele>83.16666666666667</ele><time>2026-04-21T17:32:49.001Z</time></trkpt><trkpt lat="40.410145910520015" lon="17.631083446399494"><ele>83.0</ele><time>2026-04-21T17:32:51.001Z</time></trkpt><trkpt lat="40.41006996942406" lon="17.631079889219965"><ele>83.0</ele><time>2026-04-21T17:32:53.001Z</time></trkpt><trkpt lat="40.40999687533176" lon="17.631067511747208"><ele>83.0</ele><time>2026-04-21T17:33:00.001Z</time></trkpt><trkpt lat="40.409880681257164" lon="17.630999110455306"><ele>83.0</ele><time>2026-04-21T17:33:06.001Z</time></trkpt><trkpt lat="40.40979410339028" lon="17.63102993778919"><ele>83.0</ele><time>2026-04-21T17:33:08.001Z</time></trkpt><trkpt lat="40.409763009050614" lon="17.63110765648218"><ele>83.0</ele><time>2026-04-21T17:33:09.001Z</time></trkpt><trkpt lat="40.40970594216693" lon="17.631201121257796"><ele>83.0</ele><time>2026-04-21T17:33:10.001Z</time></trkpt><trkpt lat="40.40963358356184" lon="17.63129098344915"><ele>83.0</ele><time>2026-04-21T17:33:11.001Z</time></trkpt><trkpt lat="40.40955807428641" lon="17.631434756791"><ele>83.0</ele><time>2026-04-21T17:33:12.001Z</time></trkpt><trkpt lat="40.409436873776315" lon="17.631400970534973"><ele>83.0</ele><time>2026-04-21T17:33:13.001Z</time></trkpt><trkpt lat="40.40934756405843" lon="17.631487137856343"><ele>83.0</ele><time>2026-04-21T17:33:14.001Z</time></trkpt><trkpt lat="40.409260240061435" lon="17.631576010358355"><ele>83.0</ele><time>2026-04-21T17:33:15.001Z</time></trkpt><trkpt lat="40.409182087356776" lon="17.63165770835939"><ele>83.0</ele><time>2026-04-21T17:33:16.001Z</time></trkpt><trkpt lat="40.40910762048471" lon="17.63173454171163"><ele>83.0</ele><time>2026-04-21T17:33:17.001Z</time></trkpt><trkpt lat="40.40903465152673" lon="17.631805832342646"><ele>83.0</ele><time>2026-04-21T17:33:18.001Z</time></trkpt><trkpt lat="40.408964837667625" lon="17.631876967080622"><ele>83.0</ele><time>2026-04-21T17:33:19.001Z</time></trkpt><trkpt lat="40.408897234669105" lon="17.63194638308387"><ele>83.0</ele><time>2026-04-21T17:33:20.001Z</time></trkpt><trkpt lat="40.40881973815444" lon="17.632025893487626"><ele>83.0</ele><time>2026-04-21T17:33:21.001Z</time></trkpt><trkpt lat="40.40874912251901" lon="17.63210535092249"><ele>83.0</ele><time>2026-04-21T17:33:22.001Z</time></trkpt><trkpt lat="40.408676133168015" lon="17.632176871732522"><ele>83.0</ele><time>2026-04-21T17:33:23.001Z</time></trkpt><trkpt lat="40.4086050939725" lon="17.632246326195254"><ele>83.0</ele><time>2026-04-21T17:33:24.001Z</time></trkpt><trkpt lat="40.40853987742986" lon="17.632307063440226"><ele>83.0</ele><time>2026-04-21T17:33:25.001Z</time></trkpt><trkpt lat="40.40847336006563" lon="17.632364669479546"><ele>83.0</ele><time>2026-04-21T17:33:26.001Z</time></trkpt><trkpt lat="40.408404274046866" lon="17.632431272343194"><ele>83.0</ele><time>2026-04-21T17:33:27.001Z</time></trkpt><trkpt lat="40.408331306266234" lon="17.632502031604872"><ele>83.0</ele><time>2026-04-21T17:33:28.001Z</time></trkpt><trkpt lat="40.40826150491138" lon="17.63256599476374"><ele>83.0</ele><time>2026-04-21T17:33:29.001Z</time></trkpt><trkpt lat="40.40819750336019" lon="17.63262856084127"><ele>83.0</ele><time>2026-04-21T17:33:30.001Z</time></trkpt><trkpt lat="40.40813367943611" lon="17.632687495009137"><ele>83.0</ele><time>2026-04-21T17:33:31.001Z</time></trkpt><trkpt lat="40.40806859755124" lon="17.632748137703715"><ele>83.0</ele><time>2026-04-21T17:33:32.001Z</time></trkpt><trkpt lat="40.40799946883491" lon="17.632822456215276"><ele>83.0</ele><time>2026-04-21T17:33:33.001Z</time></trkpt><trkpt lat="40.407926177612325" lon="17.63290126602154"><ele>83.0</ele><time>2026-04-21T17:33:34.001Z</time></trkpt><trkpt lat="40.40785253713029" lon="17.632974258956835"><ele>83.0</ele><time>2026-04-21T17:33:35.001Z</time></trkpt><trkpt lat="40.407778912710484" lon="17.633057345289803"><ele>83.16666666666667</ele><time>2026-04-21T17:33:36.001Z</time></trkpt><trkpt lat="40.40771133915291" lon="17.633121090511608"><ele>83.33333333333334</ele><time>2026-04-21T17:33:37.001Z</time></trkpt><trkpt lat="40.40765239060621" lon="17.6331907347872"><ele>83.5</ele><time>2026-04-21T17:33:38.001Z</time></trkpt><trkpt lat="40.407590572798604" lon="17.63325310704923"><ele>83.66666666666667</ele><time>2026-04-21T17:33:39.001Z</time></trkpt><trkpt lat="40.4075294328359" lon="17.633314035289068"><ele>83.83333333333333</ele><time>2026-04-21T17:33:40.001Z</time></trkpt><trkpt lat="40.40747499045317" lon="17.633383727895826"><ele>84.0</ele><time>2026-04-21T17:33:41.001Z</time></trkpt><trkpt lat="40.40740419427074" lon="17.633448676427637"><ele>84.0</ele><time>2026-04-21T17:33:42.001Z</time></trkpt><trkpt lat="40.407337705924306" lon="17.633518928949098"><ele>84.0</ele><time>2026-04-21T17:33:43.001Z</time></trkpt><trkpt lat="40.40726878985696" lon="17.633584512165406"><ele>84.0</ele><time>2026-04-21T17:33:44.001Z</time></trkpt><trkpt lat="40.407207113691115" lon="17.633695727086213"><ele>84.0</ele><time>2026-04-21T17:33:45.001Z</time></trkpt><trkpt lat="40.40713628509083" lon="17.633791871077605"><ele>84.0</ele><time>2026-04-21T17:33:46.001Z</time></trkpt><trkpt lat="40.40706570898645" lon="17.633870753043947"><ele>84.0</ele><time>2026-04-21T17:33:47.001Z</time></trkpt><trkpt lat="40.407002835576236" lon="17.63393563913292"><ele>84.0</ele><time>2026-04-21T17:33:48.001Z</time></trkpt><trkpt lat="40.4069367487807" lon="17.63400234138633"><ele>84.0</ele><time>2026-04-21T17:33:49.001Z</time></trkpt><trkpt lat="40.40686070222288" lon="17.634085456381495"><ele>84.0</ele><time>2026-04-21T17:33:50.001Z</time></trkpt><trkpt lat="40.406792736087475" lon="17.634164921305445"><ele>84.0</ele><time>2026-04-21T17:33:51.001Z</time></trkpt><trkpt lat="40.40672728900117" lon="17.634232540267668"><ele>84.0</ele><time>2026-04-21T17:33:52.001Z</time></trkpt><trkpt lat="40.4066504443232" lon="17.63431524228266"><ele>84.0</ele><time>2026-04-21T17:33:53.001Z</time></trkpt><trkpt lat="40.40656600892255" lon="17.6344097472577"><ele>84.0</ele><time>2026-04-21T17:33:54.001Z</time></trkpt><trkpt lat="40.4064809948404" lon="17.63451166987699"><ele>84.0</ele><time>2026-04-21T17:33:55.001Z</time></trkpt><trkpt lat="40.40641682508296" lon="17.634601446169203"><ele>84.0</ele><time>2026-04-21T17:33:56.001Z</time></trkpt><trkpt lat="40.40634600434178" lon="17.63467973718196"><ele>84.0</ele><time>2026-04-21T17:33:57.001Z</time></trkpt><trkpt lat="40.406280222405435" lon="17.634753385530683"><ele>83.85714285714286</ele><time>2026-04-21T17:33:58.001Z</time></trkpt><trkpt lat="40.406218667883536" lon="17.634821596325764"><ele>83.71428571428572</ele><time>2026-04-21T17:33:59.001Z</time></trkpt><trkpt lat="40.406162154039954" lon="17.634884012484928"><ele>83.57142857142857</ele><time>2026-04-21T17:34:00.001Z</time></trkpt><trkpt lat="40.40610745381714" lon="17.63495126269954"><ele>83.42857142857143</ele><time>2026-04-21T17:34:01.001Z</time></trkpt><trkpt lat="40.40605787862924" lon="17.635026264995393"><ele>83.28571428571429</ele><time>2026-04-21T17:34:02.001Z</time></trkpt><trkpt lat="40.40601308352681" lon="17.635086602331743"><ele>83.14285714285714</ele><time>2026-04-21T17:34:03.001Z</time></trkpt><trkpt lat="40.40595431967226" lon="17.635145544093803"><ele>83.0</ele><time>2026-04-21T17:34:04.001Z</time></trkpt><trkpt lat="40.405895973135465" lon="17.63520059396596"><ele>82.80000000000001</ele><time>2026-04-21T17:34:05.001Z</time></trkpt><trkpt lat="40.40580632291846" lon="17.63532467259105"><ele>82.6</ele><time>2026-04-21T17:34:07.001Z</time></trkpt><trkpt lat="40.40577432524987" lon="17.635400464189505"><ele>82.4</ele><time>2026-04-21T17:34:08.001Z</time></trkpt><trkpt lat="40.40574765142103" lon="17.635493870608563"><ele>82.19999999999999</ele><time>2026-04-21T17:34:09.001Z</time></trkpt><trkpt lat="40.40572548955003" lon="17.635614700706082"><ele>82.0</ele><time>2026-04-21T17:34:10.001Z</time></trkpt><trkpt lat="40.40569538981089" lon="17.63574068562989"><ele>82.0</ele><time>2026-04-21T17:34:11.001Z</time></trkpt><trkpt lat="40.40566175831494" lon="17.635860014120798"><ele>82.0</ele><time>2026-04-21T17:34:12.001Z</time></trkpt><trkpt lat="40.4056258233993" lon="17.635973563682068"><ele>82.0</ele><time>2026-04-21T17:34:13.001Z</time></trkpt><trkpt lat="40.405601167770584" lon="17.636071661508996"><ele>82.0</ele><time>2026-04-21T17:34:14.001Z</time></trkpt><trkpt lat="40.40557309029569" lon="17.636182051306438"><ele>82.0</ele><time>2026-04-21T17:34:15.001Z</time></trkpt><trkpt lat="40.405544280517326" lon="17.63631705525866"><ele>82.5</ele><time>2026-04-21T17:34:16.001Z</time></trkpt><trkpt lat="40.40551249372896" lon="17.63646498360105"><ele>83.0</ele><time>2026-04-21T17:34:17.001Z</time></trkpt><trkpt lat="40.40547579947931" lon="17.63662061207514"><ele>83.5</ele><time>2026-04-21T17:34:18.001Z</time></trkpt><trkpt lat="40.405444000814256" lon="17.636771214314063"><ele>84.0</ele><time>2026-04-21T17:34:19.001Z</time></trkpt><trkpt lat="40.40541364670755" lon="17.63691017459269"><ele>83.6</ele><time>2026-04-21T17:34:20.001Z</time></trkpt><trkpt lat="40.40538280234326" lon="17.637058217463945"><ele>83.2</ele><time>2026-04-21T17:34:21.001Z</time></trkpt><trkpt lat="40.40535988393089" lon="17.63719799282789"><ele>82.8</ele><time>2026-04-21T17:34:22.001Z</time></trkpt><trkpt lat="40.405342877325786" lon="17.637325637793012"><ele>82.39999999999999</ele><time>2026-04-21T17:34:23.001Z</time></trkpt><trkpt lat="40.405338443688734" lon="17.637439379263938"><ele>82.0</ele><time>2026-04-21T17:34:24.001Z</time></trkpt><trkpt lat="40.40535835486436" lon="17.637553690505815"><ele>82.0</ele><time>2026-04-21T17:34:25.001Z</time></trkpt><trkpt lat="40.40540325484425" lon="17.637672490187743"><ele>82.0</ele><time>2026-04-21T17:34:26.001Z</time></trkpt><trkpt lat="40.40546547063411" lon="17.637802028590645"><ele>82.0</ele><time>2026-04-21T17:34:27.001Z</time></trkpt><trkpt lat="40.4055437573689" lon="17.637920019943202"><ele>82.0</ele><time>2026-04-21T17:34:28.001Z</time></trkpt><trkpt lat="40.40563196256227" lon="17.638027781466835"><ele>82.0</ele><time>2026-04-21T17:34:29.001Z</time></trkpt><trkpt lat="40.405716124247085" lon="17.638141002799173"><ele>82.0</ele><time>2026-04-21T17:34:30.001Z</time></trkpt><trkpt lat="40.40579511937658" lon="17.63827411585759"><ele>82.0</ele><time>2026-04-21T17:34:31.001Z</time></trkpt><trkpt lat="40.405885978906966" lon="17.638399166191277"><ele>82.0</ele><time>2026-04-21T17:34:32.001Z</time></trkpt><trkpt lat="40.40598858856577" lon="17.638529500405973"><ele>82.0</ele><time>2026-04-21T17:34:33.001Z</time></trkpt><trkpt lat="40.40609688609537" lon="17.638656982661047"><ele>82.0</ele><time>2026-04-21T17:34:34.001Z</time></trkpt><trkpt lat="40.40620145649826" lon="17.638788555353816"><ele>82.0</ele><time>2026-04-21T17:34:35.001Z</time></trkpt><trkpt lat="40.40629652446522" lon="17.638915406276507"><ele>82.0</ele><time>2026-04-21T17:34:36.001Z</time></trkpt><trkpt lat="40.40639592723965" lon="17.63904231274445"><ele>82.0</ele><time>2026-04-21T17:34:37.001Z</time></trkpt><trkpt lat="40.40650440162251" lon="17.63916599074056"><ele>82.0</ele><time>2026-04-21T17:34:38.001Z</time></trkpt><trkpt lat="40.40661663595685" lon="17.639285144116204"><ele>82.0</ele><time>2026-04-21T17:34:39.001Z</time></trkpt><trkpt lat="40.40673343984468" lon="17.639405117361093"><ele>82.0</ele><time>2026-04-21T17:34:40.001Z</time></trkpt><trkpt lat="40.40685584257686" lon="17.639525602781205"><ele>81.5</ele><time>2026-04-21T17:34:41.001Z</time></trkpt><trkpt lat="40.406979353638704" lon="17.639640031902857"><ele>81.0</ele><time>2026-04-21T17:34:42.001Z</time></trkpt><trkpt lat="40.407095375997855" lon="17.639752103006778"><ele>80.5</ele><time>2026-04-21T17:34:43.001Z</time></trkpt><trkpt lat="40.40720492650093" lon="17.639854696517695"><ele>80.0</ele><time>2026-04-21T17:34:44.001Z</time></trkpt><trkpt lat="40.40730943191968" lon="17.639959019492295"><ele>80.0</ele><time>2026-04-21T17:34:45.001Z</time></trkpt><trkpt lat="40.407418328815254" lon="17.640075641871892"><ele>80.0</ele><time>2026-04-21T17:34:46.001Z</time></trkpt><trkpt lat="40.40752808421646" lon="17.6401908121773"><ele>80.0</ele><time>2026-04-21T17:34:47.001Z</time></trkpt><trkpt lat="40.407629058232175" lon="17.640298360887265"><ele>80.0</ele><time>2026-04-21T17:34:48.001Z</time></trkpt><trkpt lat="40.40770678123668" lon="17.640396625747638"><ele>80.0</ele><time>2026-04-21T17:34:49.001Z</time></trkpt><trkpt lat="40.40776625036831" lon="17.640480924779506"><ele>80.0</ele><time>2026-04-21T17:34:50.001Z</time></trkpt><trkpt lat="40.40781304908959" lon="17.64055006123462"><ele>80.0</ele><time>2026-04-21T17:34:51.001Z</time></trkpt><trkpt lat="40.40785895257462" lon="17.640625891044415"><ele>80.0</ele><time>2026-04-21T17:34:52.001Z</time></trkpt><trkpt lat="40.40790548830698" lon="17.640702263348132"><ele>80.0</ele><time>2026-04-21T17:34:53.001Z</time></trkpt><trkpt lat="40.407955827832474" lon="17.640801299551143"><ele>80.0</ele><time>2026-04-21T17:34:54.001Z</time></trkpt><trkpt lat="40.4080149125864" lon="17.640916917609218"><ele>80.2</ele><time>2026-04-21T17:34:55.001Z</time></trkpt><trkpt lat="40.40806934129902" lon="17.641041531650174"><ele>80.4</ele><time>2026-04-21T17:34:56.001Z</time></trkpt><trkpt lat="40.40811493642925" lon="17.641160456641085"><ele>80.6</ele><time>2026-04-21T17:34:57.001Z</time></trkpt><trkpt lat="40.40815925403784" lon="17.641289087924953"><ele>80.8</ele><time>2026-04-21T17:34:58.001Z</time></trkpt><trkpt lat="40.40819264129718" lon="17.641421993564368"><ele>81.0</ele><time>2026-04-21T17:34:59.001Z</time></trkpt><trkpt lat="40.40821918010369" lon="17.641553801244903"><ele>80.6</ele><time>2026-04-21T17:35:00.001Z</time></trkpt><trkpt lat="40.40824350772588" lon="17.64168329829551"><ele>80.19999999999999</ele><time>2026-04-21T17:35:01.001Z</time></trkpt><trkpt lat="40.408262242728995" lon="17.641818769318075"><ele>79.80000000000001</ele><time>2026-04-21T17:35:02.001Z</time></trkpt><trkpt lat="40.40827737385019" lon="17.641949557663143"><ele>79.4</ele><time>2026-04-21T17:35:03.001Z</time></trkpt><trkpt lat="40.408286981923844" lon="17.642062701319077"><ele>79.0</ele><time>2026-04-21T17:35:04.001Z</time></trkpt><trkpt lat="40.40828277445041" lon="17.64215292685482"><ele>79.0</ele><time>2026-04-21T17:35:05.001Z</time></trkpt><trkpt lat="40.40826992333556" lon="17.642275331821704"><ele>79.0</ele><time>2026-04-21T17:35:07.001Z</time></trkpt><trkpt lat="40.40822003439286" lon="17.642385996731864"><ele>79.0</ele><time>2026-04-21T17:35:09.001Z</time></trkpt><trkpt lat="40.408207516786135" lon="17.642499465100414"><ele>79.0</ele><time>2026-04-21T17:35:11.001Z</time></trkpt><trkpt lat="40.408251743639546" lon="17.64264065352637"><ele>79.0</ele><time>2026-04-21T17:35:13.001Z</time></trkpt><trkpt lat="40.408284398787984" lon="17.64279511123604"><ele>79.2</ele><time>2026-04-21T17:35:15.001Z</time></trkpt><trkpt lat="40.40828157972567" lon="17.642888949384208"><ele>79.4</ele><time>2026-04-21T17:35:16.001Z</time></trkpt><trkpt lat="40.40825979483315" lon="17.642997475821026"><ele>79.6</ele><time>2026-04-21T17:35:17.001Z</time></trkpt><trkpt lat="40.408237327806134" lon="17.643112207850745"><ele>79.8</ele><time>2026-04-21T17:35:18.001Z</time></trkpt><trkpt lat="40.40820787881755" lon="17.643239944039593"><ele>80.0</ele><time>2026-04-21T17:35:19.001Z</time></trkpt><trkpt lat="40.40816711091846" lon="17.643374962399076"><ele>80.0</ele><time>2026-04-21T17:35:20.001Z</time></trkpt><trkpt lat="40.40811938416303" lon="17.643515539263262"><ele>80.0</ele><time>2026-04-21T17:35:21.001Z</time></trkpt><trkpt lat="40.408075428649816" lon="17.643654079644374"><ele>80.0</ele><time>2026-04-21T17:35:22.001Z</time></trkpt><trkpt lat="40.408021571834354" lon="17.643796732001604"><ele>80.0</ele><time>2026-04-21T17:35:23.001Z</time></trkpt><trkpt lat="40.40796044607617" lon="17.64394138227264"><ele>79.75</ele><time>2026-04-21T17:35:24.001Z</time></trkpt><trkpt lat="40.407882556007834" lon="17.644089645660365"><ele>79.5</ele><time>2026-04-21T17:35:25.001Z</time></trkpt><trkpt lat="40.40779838523778" lon="17.644236910181746"><ele>79.25</ele><time>2026-04-21T17:35:26.001Z</time></trkpt><trkpt lat="40.40770233837452" lon="17.644381939264186"><ele>79.0</ele><time>2026-04-21T17:35:27.001Z</time></trkpt><trkpt lat="40.40759346410902" lon="17.644534293290807"><ele>78.66666666666666</ele><time>2026-04-21T17:35:28.001Z</time></trkpt><trkpt lat="40.40747437452251" lon="17.64466900216106"><ele>78.33333333333333</ele><time>2026-04-21T17:35:29.001Z</time></trkpt><trkpt lat="40.40735559539692" lon="17.644806237582277"><ele>78.0</ele><time>2026-04-21T17:35:30.001Z</time></trkpt><trkpt lat="40.407244675359685" lon="17.644945048996053"><ele>78.33333333333333</ele><time>2026-04-21T17:35:31.001Z</time></trkpt><trkpt lat="40.40712891571126" lon="17.645091822311603"><ele>78.66666666666666</ele><time>2026-04-21T17:35:32.001Z</time></trkpt><trkpt lat="40.40700735466876" lon="17.64524378831236"><ele>79.0</ele><time>2026-04-21T17:35:33.001Z</time></trkpt><trkpt lat="40.40687979195071" lon="17.64540210111791"><ele>79.0</ele><time>2026-04-21T17:35:34.001Z</time></trkpt><trkpt lat="40.406750428576856" lon="17.645567855792343"><ele>79.0</ele><time>2026-04-21T17:35:35.001Z</time></trkpt><trkpt lat="40.40661524526157" lon="17.64574331765328"><ele>79.0</ele><time>2026-04-21T17:35:36.001Z</time></trkpt><trkpt lat="40.40647192880324" lon="17.645929945187444"><ele>78.66666666666666</ele><time>2026-04-21T17:35:37.001Z</time></trkpt><trkpt lat="40.4063171779945" lon="17.646121767016087"><ele>78.33333333333333</ele><time>2026-04-21T17:35:38.001Z</time></trkpt><trkpt lat="40.40616085311373" lon="17.646305697083235"><ele>78.0</ele><time>2026-04-21T17:35:39.001Z</time></trkpt><trkpt lat="40.40601817979658" lon="17.646480642979963"><ele>77.66666666666667</ele><time>2026-04-21T17:35:40.001Z</time></trkpt><trkpt lat="40.40588872981095" lon="17.64663946221535"><ele>77.33333333333334</ele><time>2026-04-21T17:35:41.001Z</time></trkpt><trkpt lat="40.40576664590851" lon="17.646786903403463"><ele>77.0</ele><time>2026-04-21T17:35:42.001Z</time></trkpt><trkpt lat="40.40563766716676" lon="17.646941615187384"><ele>77.33333333333334</ele><time>2026-04-21T17:35:43.001Z</time></trkpt><trkpt lat="40.405514224853796" lon="17.647095950096407"><ele>77.66666666666667</ele><time>2026-04-21T17:35:44.001Z</time></trkpt><trkpt lat="40.4053874811265" lon="17.647254076719694"><ele>78.0</ele><time>2026-04-21T17:35:45.001Z</time></trkpt><trkpt lat="40.40525777565055" lon="17.64741565143526"><ele>78.0</ele><time>2026-04-21T17:35:46.001Z</time></trkpt><trkpt lat="40.405123870959116" lon="17.64757264806668"><ele>78.0</ele><time>2026-04-21T17:35:47.001Z</time></trkpt><trkpt lat="40.4049868049524" lon="17.647727658126676"><ele>78.0</ele><time>2026-04-21T17:35:48.001Z</time></trkpt><trkpt lat="40.404846191798235" lon="17.647876020458778"><ele>78.0</ele><time>2026-04-21T17:35:49.001Z</time></trkpt><trkpt lat="40.40470269983485" lon="17.64802561492054"><ele>78.0</ele><time>2026-04-21T17:35:50.001Z</time></trkpt><trkpt lat="40.40455614431023" lon="17.648175207958516"><ele>78.0</ele><time>2026-04-21T17:35:51.001Z</time></trkpt><trkpt lat="40.40441103373345" lon="17.648316861065915"><ele>77.66666666666667</ele><time>2026-04-21T17:35:52.001Z</time></trkpt><trkpt lat="40.40426504702882" lon="17.648461497665846"><ele>77.33333333333334</ele><time>2026-04-21T17:35:53.001Z</time></trkpt><trkpt lat="40.404116769990246" lon="17.64860432887726"><ele>77.0</ele><time>2026-04-21T17:35:54.001Z</time></trkpt><trkpt lat="40.40397096310878" lon="17.648746792662244"><ele>77.33333333333334</ele><time>2026-04-21T17:35:55.001Z</time></trkpt><trkpt lat="40.40382073265156" lon="17.648887821547707"><ele>77.66666666666667</ele><time>2026-04-21T17:35:56.001Z</time></trkpt><trkpt lat="40.40366978622194" lon="17.64902996190293"><ele>78.0</ele><time>2026-04-21T17:35:57.001Z</time></trkpt><trkpt lat="40.40353022008353" lon="17.649156128913305"><ele>78.0</ele><time>2026-04-21T17:35:58.001Z</time></trkpt><trkpt lat="40.40340306490615" lon="17.649272926899407"><ele>78.0</ele><time>2026-04-21T17:35:59.001Z</time></trkpt><trkpt lat="40.403286779589706" lon="17.649380547717367"><ele>78.0</ele><time>2026-04-21T17:36:00.001Z</time></trkpt><trkpt lat="40.40317658505752" lon="17.64949121281485"><ele>78.0</ele><time>2026-04-21T17:36:01.001Z</time></trkpt><trkpt lat="40.403061962579585" lon="17.649603124806106"><ele>77.75</ele><time>2026-04-21T17:36:02.001Z</time></trkpt><trkpt lat="40.40294345389056" lon="17.649721558707242"><ele>77.5</ele><time>2026-04-21T17:36:03.001Z</time></trkpt><trkpt lat="40.402831128686955" lon="17.649836948571355"><ele>77.25</ele><time>2026-04-21T17:36:04.001Z</time></trkpt><trkpt lat="40.4027242513046" lon="17.64994063395535"><ele>77.0</ele><time>2026-04-21T17:36:05.001Z</time></trkpt><trkpt lat="40.402624561953715" lon="17.650038052822733"><ele>77.0</ele><time>2026-04-21T17:36:06.001Z</time></trkpt><trkpt lat="40.40253027896994" lon="17.650138957796077"><ele>77.0</ele><time>2026-04-21T17:36:07.001Z</time></trkpt><trkpt lat="40.4024361686762" lon="17.65023098301147"><ele>77.0</ele><time>2026-04-21T17:36:08.001Z</time></trkpt><trkpt lat="40.40234315870263" lon="17.650321803689273"><ele>77.0</ele><time>2026-04-21T17:36:09.001Z</time></trkpt><trkpt lat="40.4022537505706" lon="17.650402338296757"><ele>77.16666666666667</ele><time>2026-04-21T17:36:10.001Z</time></trkpt><trkpt lat="40.40218486887047" lon="17.6504675150057"><ele>77.33333333333334</ele><time>2026-04-21T17:36:11.001Z</time></trkpt><trkpt lat="40.402131428291916" lon="17.65052502343506"><ele>77.5</ele><time>2026-04-21T17:36:12.001Z</time></trkpt><trkpt lat="40.40204309345342" lon="17.65060646365098"><ele>77.66666666666667</ele><time>2026-04-21T17:36:14.001Z</time></trkpt><trkpt lat="40.40198610931664" lon="17.650651129287308"><ele>77.83333333333333</ele><time>2026-04-21T17:36:16.001Z</time></trkpt><trkpt lat="40.40192534017666" lon="17.650682638107753"><ele>78.0</ele><time>2026-04-21T17:36:24.001Z</time></trkpt><trkpt lat="40.40185848066539" lon="17.65071186572216"><ele>78.0</ele><time>2026-04-21T17:36:38.001Z</time></trkpt><trkpt lat="40.401790760017064" lon="17.650742933365375"><ele>78.0</ele><time>2026-04-21T17:36:49.001Z</time></trkpt><trkpt lat="40.40174582211498" lon="17.650816590530784"><ele>78.0</ele><time>2026-04-21T17:36:52.001Z</time></trkpt><trkpt lat="40.40173220031787" lon="17.650980958806787"><ele>78.0</ele><time>2026-04-21T17:36:54.001Z</time></trkpt><trkpt lat="40.40173677377951" lon="17.651083161629685"><ele>78.0</ele><time>2026-04-21T17:36:55.001Z</time></trkpt><trkpt lat="40.40174716564552" lon="17.651194323174675"><ele>78.0</ele><time>2026-04-21T17:36:56.001Z</time></trkpt><trkpt lat="40.401759490038586" lon="17.651318653672764"><ele>77.25</ele><time>2026-04-21T17:36:57.001Z</time></trkpt><trkpt lat="40.40177548385375" lon="17.65146160689099"><ele>76.5</ele><time>2026-04-21T17:36:58.001Z</time></trkpt><trkpt lat="40.401787139157754" lon="17.65160979569694"><ele>75.75</ele><time>2026-04-21T17:36:59.001Z</time></trkpt><trkpt lat="40.40179983398865" lon="17.651770594188683"><ele>75.0</ele><time>2026-04-21T17:37:00.001Z</time></trkpt><trkpt lat="40.401814808303726" lon="17.651925568755395"><ele>74.25</ele><time>2026-04-21T17:37:01.001Z</time></trkpt><trkpt lat="40.40182835727415" lon="17.652079904090357"><ele>73.5</ele><time>2026-04-21T17:37:02.001Z</time></trkpt><trkpt lat="40.40184279904559" lon="17.65223686924474"><ele>72.75</ele><time>2026-04-21T17:37:03.001Z</time></trkpt><trkpt lat="40.40185839481104" lon="17.652399384184353"><ele>72.0</ele><time>2026-04-21T17:37:04.001Z</time></trkpt><trkpt lat="40.401873956357875" lon="17.652565934794076"><ele>72.0</ele><time>2026-04-21T17:37:05.001Z</time></trkpt><trkpt lat="40.40188953798424" lon="17.652729825808787"><ele>72.0</ele><time>2026-04-21T17:37:06.001Z</time></trkpt><trkpt lat="40.40190455205621" lon="17.65288171780821"><ele>72.0</ele><time>2026-04-21T17:37:07.001Z</time></trkpt><trkpt lat="40.40191686173756" lon="17.65303472516785"><ele>72.0</ele><time>2026-04-21T17:37:08.001Z</time></trkpt><trkpt lat="40.40192871076658" lon="17.653189410444828"><ele>72.0</ele><time>2026-04-21T17:37:09.001Z</time></trkpt><trkpt lat="40.401939705867946" lon="17.65333491245396"><ele>72.0</ele><time>2026-04-21T17:37:10.001Z</time></trkpt><trkpt lat="40.401951899100375" lon="17.65347878437797"><ele>72.0</ele><time>2026-04-21T17:37:11.001Z</time></trkpt><trkpt lat="40.40196501158171" lon="17.653635744127566"><ele>72.0</ele><time>2026-04-21T17:37:12.001Z</time></trkpt><trkpt lat="40.40197622267434" lon="17.653809351734942"><ele>72.0</ele><time>2026-04-21T17:37:13.001Z</time></trkpt><trkpt lat="40.40198993606047" lon="17.65400554308764"><ele>72.0</ele><time>2026-04-21T17:37:14.001Z</time></trkpt><trkpt lat="40.40200186393503" lon="17.654222150161022"><ele>72.0</ele><time>2026-04-21T17:37:15.001Z</time></trkpt><trkpt lat="40.40201632264397" lon="17.65445810472666"><ele>72.0</ele><time>2026-04-21T17:37:16.001Z</time></trkpt><trkpt lat="40.4020245786582" lon="17.65470813672954"><ele>72.0</ele><time>2026-04-21T17:37:17.001Z</time></trkpt><trkpt lat="40.40203533672131" lon="17.65497893188887"><ele>72.0</ele><time>2026-04-21T17:37:18.001Z</time></trkpt><trkpt lat="40.402070809478154" lon="17.655233621879923"><ele>72.0</ele><time>2026-04-21T17:37:19.001Z</time></trkpt><trkpt lat="40.402105077036616" lon="17.655491621369787"><ele>72.0</ele><time>2026-04-21T17:37:20.001Z</time></trkpt><trkpt lat="40.402146296131455" lon="17.655753781855935"><ele>72.0</ele><time>2026-04-21T17:37:21.001Z</time></trkpt><trkpt lat="40.40218076207526" lon="17.656027891291277"><ele>73.33333333333333</ele><time>2026-04-21T17:37:22.001Z</time></trkpt><trkpt lat="40.40221054711208" lon="17.65630315350588"><ele>74.66666666666666</ele><time>2026-04-21T17:37:23.001Z</time></trkpt><trkpt lat="40.402238515501594" lon="17.656575363062586"><ele>76.0</ele><time>2026-04-21T17:37:24.001Z</time></trkpt><trkpt lat="40.402266190538185" lon="17.65682533531318"><ele>76.33333333333333</ele><time>2026-04-21T17:37:25.001Z</time></trkpt><trkpt lat="40.402290593371106" lon="17.657058935364482"><ele>76.66666666666667</ele><time>2026-04-21T17:37:26.001Z</time></trkpt><trkpt lat="40.40231085105205" lon="17.65727875537647"><ele>77.0</ele><time>2026-04-21T17:37:27.001Z</time></trkpt><trkpt lat="40.402327534584195" lon="17.657487585612053"><ele>77.0</ele><time>2026-04-21T17:37:28.001Z</time></trkpt><trkpt lat="40.40234578329603" lon="17.657674811967677"><ele>77.0</ele><time>2026-04-21T17:37:29.001Z</time></trkpt><trkpt lat="40.402361015263246" lon="17.657838223977432"><ele>77.0</ele><time>2026-04-21T17:37:30.001Z</time></trkpt><trkpt lat="40.40237616314073" lon="17.657969992110168"><ele>77.0</ele><time>2026-04-21T17:37:31.001Z</time></trkpt><trkpt lat="40.40238336750005" lon="17.658069449652743"><ele>77.0</ele><time>2026-04-21T17:37:32.001Z</time></trkpt><trkpt lat="40.40236725290739" lon="17.65820900693441"><ele>77.0</ele><time>2026-04-21T17:37:34.001Z</time></trkpt><trkpt lat="40.402316483621775" lon="17.65830906053415"><ele>77.0</ele><time>2026-04-21T17:37:36.001Z</time></trkpt><trkpt lat="40.40228172834605" lon="17.6583971739522"><ele>77.0</ele><time>2026-04-21T17:37:38.001Z</time></trkpt><trkpt lat="40.4022855521263" lon="17.658479788073382"><ele>77.0</ele><time>2026-04-21T17:37:41.001Z</time></trkpt><trkpt lat="40.40229086265683" lon="17.658574556520808"><ele>77.0</ele><time>2026-04-21T17:37:46.001Z</time></trkpt><trkpt lat="40.40229889330105" lon="17.658656645376038"><ele>77.0</ele><time>2026-04-21T17:39:51.001Z</time></trkpt><trkpt lat="40.40232674489743" lon="17.6587336819767"><ele>77.0</ele><time>2026-04-21T17:40:24.001Z</time></trkpt><trkpt lat="40.40236970185291" lon="17.658808953959987"><ele>76.4</ele><time>2026-04-21T17:40:31.001Z</time></trkpt><trkpt lat="40.40244402906958" lon="17.65886729406135"><ele>75.80000000000001</ele><time>2026-04-21T17:47:38.011Z</time></trkpt><trkpt lat="40.402469051767476" lon="17.659008269274647"><ele>75.2</ele><time>2026-04-21T17:47:40.011Z</time></trkpt><trkpt lat="40.40248294249244" lon="17.65910321772887"><ele>74.60000000000001</ele><time>2026-04-21T17:47:41.011Z</time></trkpt><trkpt lat="40.402495431647225" lon="17.65921423174323"><ele>74.0</ele><time>2026-04-21T17:47:42.011Z</time></trkpt><trkpt lat="40.40250765185592" lon="17.659342415827336"><ele>74.2</ele><time>2026-04-21T17:47:43.011Z</time></trkpt><trkpt lat="40.40252065491245" lon="17.65947918183275"><ele>74.4</ele><time>2026-04-21T17:47:44.011Z</time></trkpt><trkpt lat="40.40253790966878" lon="17.659616592489375"><ele>74.6</ele><time>2026-04-21T17:47:45.011Z</time></trkpt><trkpt lat="40.40255913411553" lon="17.659758706934838"><ele>74.8</ele><time>2026-04-21T17:47:46.011Z</time></trkpt><trkpt lat="40.40257450371614" lon="17.659917709780427"><ele>75.0</ele><time>2026-04-21T17:47:47.011Z</time></trkpt><trkpt lat="40.40259097212488" lon="17.660082935316517"><ele>75.0</ele><time>2026-04-21T17:47:48.011Z</time></trkpt><trkpt lat="40.4026060872515" lon="17.66025906292048"><ele>75.0</ele><time>2026-04-21T17:47:49.011Z</time></trkpt><trkpt lat="40.40262656179057" lon="17.660432564627445"><ele>75.0</ele><time>2026-04-21T17:47:50.011Z</time></trkpt><trkpt lat="40.40265016147448" lon="17.660613507485973"><ele>75.0</ele><time>2026-04-21T17:47:51.011Z</time></trkpt><trkpt lat="40.40267141658151" lon="17.660800414216435"><ele>75.0</ele><time>2026-04-21T17:47:52.011Z</time></trkpt><trkpt lat="40.40269324356707" lon="17.660993440153046"><ele>75.0</ele><time>2026-04-21T17:47:53.011Z</time></trkpt><trkpt lat="40.402716872280756" lon="17.661188434469583"><ele>75.0</ele><time>2026-04-21T17:47:54.011Z</time></trkpt><trkpt lat="40.40273650105169" lon="17.661391856916698"><ele>74.66666666666667</ele><time>2026-04-21T17:47:55.011Z</time></trkpt><trkpt lat="40.40275456656986" lon="17.661602336635557"><ele>74.33333333333334</ele><time>2026-04-21T17:47:56.011Z</time></trkpt><trkpt lat="40.402767721102286" lon="17.66182527184611"><ele>74.0</ele><time>2026-04-21T17:47:57.011Z</time></trkpt><trkpt lat="40.40277409440279" lon="17.662062826832674"><ele>74.0</ele><time>2026-04-21T17:47:58.011Z</time></trkpt><trkpt lat="40.40278304191887" lon="17.662301791274242"><ele>74.0</ele><time>2026-04-21T17:47:59.011Z</time></trkpt><trkpt lat="40.402789314690054" lon="17.66254528286413"><ele>74.0</ele><time>2026-04-21T17:48:00.011Z</time></trkpt><trkpt lat="40.402799562590694" lon="17.662793786390676"><ele>74.33333333333334</ele><time>2026-04-21T17:48:01.011Z</time></trkpt><trkpt lat="40.402803967249426" lon="17.66304577028942"><ele>74.66666666666667</ele><time>2026-04-21T17:48:02.011Z</time></trkpt><trkpt lat="40.40278939224895" lon="17.663325817496663"><ele>75.0</ele><time>2026-04-21T17:48:03.011Z</time></trkpt><trkpt lat="40.402752840653925" lon="17.663648304050223"><ele>75.0</ele><time>2026-04-21T17:48:04.011Z</time></trkpt><trkpt lat="40.402688457671694" lon="17.663983834756117"><ele>75.0</ele><time>2026-04-21T17:48:05.011Z</time></trkpt><trkpt lat="40.40296752346579" lon="17.66401378983638"><ele>75.0</ele><time>2026-04-21T17:48:06.011Z</time></trkpt><trkpt lat="40.40298965360905" lon="17.664276159558714"><ele>75.0</ele><time>2026-04-21T17:48:07.011Z</time></trkpt><trkpt lat="40.403015960926695" lon="17.66454281906577"><ele>75.0</ele><time>2026-04-21T17:48:08.011Z</time></trkpt><trkpt lat="40.40304250441807" lon="17.664811968450305"><ele>75.33333333333333</ele><time>2026-04-21T17:48:09.011Z</time></trkpt><trkpt lat="40.4030718570949" lon="17.665083234731352"><ele>75.66666666666666</ele><time>2026-04-21T17:48:10.011Z</time></trkpt><trkpt lat="40.40309430447948" lon="17.665359879187847"><ele>76.0</ele><time>2026-04-21T17:48:11.011Z</time></trkpt><trkpt lat="40.40312109957211" lon="17.665637812430628"><ele>76.0</ele><time>2026-04-21T17:48:12.011Z</time></trkpt><trkpt lat="40.403149112301286" lon="17.665913481856695"><ele>76.0</ele><time>2026-04-21T17:48:13.011Z</time></trkpt><trkpt lat="40.40317518951199" lon="17.66618927074075"><ele>76.0</ele><time>2026-04-21T17:48:14.011Z</time></trkpt><trkpt lat="40.40320230727591" lon="17.666465564621305"><ele>75.66666666666666</ele><time>2026-04-21T17:48:15.011Z</time></trkpt><trkpt lat="40.40322654178437" lon="17.666740714463803"><ele>75.33333333333333</ele><time>2026-04-21T17:48:16.011Z</time></trkpt><trkpt lat="40.40325277033209" lon="17.66701690122542"><ele>75.0</ele><time>2026-04-21T17:48:17.011Z</time></trkpt><trkpt lat="40.40327557940791" lon="17.66729358639986"><ele>75.0</ele><time>2026-04-21T17:48:18.011Z</time></trkpt><trkpt lat="40.40329630111572" lon="17.667569743416674"><ele>75.0</ele><time>2026-04-21T17:48:19.012Z</time></trkpt><trkpt lat="40.40331811034613" lon="17.66784650931913"><ele>75.0</ele><time>2026-04-21T17:48:20.011Z</time></trkpt><trkpt lat="40.40334008987461" lon="17.668121090833417"><ele>75.33333333333333</ele><time>2026-04-21T17:48:21.011Z</time></trkpt><trkpt lat="40.40336629352315" lon="17.66839630870418"><ele>75.66666666666666</ele><time>2026-04-21T17:48:22.012Z</time></trkpt><trkpt lat="40.403393706254185" lon="17.668672329573912"><ele>76.0</ele><time>2026-04-21T17:48:23.012Z</time></trkpt><trkpt lat="40.40342056032506" lon="17.66894487972426"><ele>76.0</ele><time>2026-04-21T17:48:24.012Z</time></trkpt><trkpt lat="40.40344455655185" lon="17.669220792246477"><ele>76.0</ele><time>2026-04-21T17:48:25.012Z</time></trkpt><trkpt lat="40.40347641520432" lon="17.669495663351224"><ele>76.0</ele><time>2026-04-21T17:48:26.012Z</time></trkpt><trkpt lat="40.40350936492216" lon="17.66976566547129"><ele>76.0</ele><time>2026-04-21T17:48:27.012Z</time></trkpt><trkpt lat="40.40353674302751" lon="17.670034658187777"><ele>76.0</ele><time>2026-04-21T17:48:28.012Z</time></trkpt><trkpt lat="40.4035610316954" lon="17.670311304693804"><ele>76.0</ele><time>2026-04-21T17:48:29.012Z</time></trkpt><trkpt lat="40.403596672500846" lon="17.67057838723435"><ele>76.33333333333333</ele><time>2026-04-21T17:48:30.012Z</time></trkpt><trkpt lat="40.403625612232055" lon="17.67083475190375"><ele>76.66666666666667</ele><time>2026-04-21T17:48:31.012Z</time></trkpt><trkpt lat="40.403657128394315" lon="17.671106033959248"><ele>77.0</ele><time>2026-04-21T17:48:32.012Z</time></trkpt><trkpt lat="40.40367809529495" lon="17.671376735462545"><ele>77.33333333333334</ele><time>2026-04-21T17:48:33.012Z</time></trkpt><trkpt lat="40.403695174832585" lon="17.671652632887373"><ele>77.66666666666667</ele><time>2026-04-21T17:48:34.012Z</time></trkpt><trkpt lat="40.40371364261716" lon="17.67193326568689"><ele>78.0</ele><time>2026-04-21T17:48:35.012Z</time></trkpt><trkpt lat="40.40373213087994" lon="17.6722053832217"><ele>78.0</ele><time>2026-04-21T17:48:36.012Z</time></trkpt><trkpt lat="40.40375901783309" lon="17.67247332129891"><ele>78.0</ele><time>2026-04-21T17:48:37.012Z</time></trkpt><trkpt lat="40.40378734411506" lon="17.67273811031217"><ele>78.0</ele><time>2026-04-21T17:48:38.012Z</time></trkpt><trkpt lat="40.403814022632055" lon="17.673000402004913"><ele>78.33333333333333</ele><time>2026-04-21T17:48:39.012Z</time></trkpt><trkpt lat="40.40383715672953" lon="17.6732640250302"><ele>78.66666666666666</ele><time>2026-04-21T17:48:40.012Z</time></trkpt><trkpt lat="40.40386398036838" lon="17.67353052137472"><ele>79.0</ele><time>2026-04-21T17:48:41.012Z</time></trkpt><trkpt lat="40.40388807722903" lon="17.673795316983014"><ele>79.0</ele><time>2026-04-21T17:48:42.012Z</time></trkpt><trkpt lat="40.403914828508185" lon="17.674059143034913"><ele>79.0</ele><time>2026-04-21T17:48:43.012Z</time></trkpt><trkpt lat="40.403944969153144" lon="17.67432452161494"><ele>79.0</ele><time>2026-04-21T17:48:44.012Z</time></trkpt><trkpt lat="40.40396578250055" lon="17.67459328472945"><ele>78.66666666666666</ele><time>2026-04-21T17:48:45.012Z</time></trkpt><trkpt lat="40.40398896060083" lon="17.674859139092398"><ele>78.33333333333333</ele><time>2026-04-21T17:48:46.012Z</time></trkpt><trkpt lat="40.40401110119367" lon="17.675126693696672"><ele>78.0</ele><time>2026-04-21T17:48:47.012Z</time></trkpt><trkpt lat="40.404039171159425" lon="17.67540104281448"><ele>77.66666666666667</ele><time>2026-04-21T17:48:48.012Z</time></trkpt><trkpt lat="40.404067502586386" lon="17.67567378051726"><ele>77.33333333333334</ele><time>2026-04-21T17:48:49.012Z</time></trkpt><trkpt lat="40.404091709360586" lon="17.67594513599064"><ele>77.0</ele><time>2026-04-21T17:48:50.012Z</time></trkpt><trkpt lat="40.404116768706885" lon="17.67621978791177"><ele>76.66666666666667</ele><time>2026-04-21T17:48:51.012Z</time></trkpt><trkpt lat="40.40414094631599" lon="17.676500331207627"><ele>76.33333333333333</ele><time>2026-04-21T17:48:52.012Z</time></trkpt><trkpt lat="40.404167532688476" lon="17.676764684183766"><ele>76.0</ele><time>2026-04-21T17:48:53.012Z</time></trkpt><trkpt lat="40.40419401765585" lon="17.677028956957635"><ele>76.0</ele><time>2026-04-21T17:48:54.012Z</time></trkpt><trkpt lat="40.404222915018934" lon="17.67729983849271"><ele>76.0</ele><time>2026-04-21T17:48:55.012Z</time></trkpt><trkpt lat="40.40424887432189" lon="17.6775689017507"><ele>76.0</ele><time>2026-04-21T17:48:56.012Z</time></trkpt><trkpt lat="40.40426908668915" lon="17.677838337759315"><ele>75.33333333333333</ele><time>2026-04-21T17:48:57.012Z</time></trkpt><trkpt lat="40.404291018639206" lon="17.678107887986936"><ele>74.66666666666667</ele><time>2026-04-21T17:48:58.012Z</time></trkpt><trkpt lat="40.40431640168225" lon="17.678376037494864"><ele>74.0</ele><time>2026-04-21T17:48:59.012Z</time></trkpt><trkpt lat="40.40434190720043" lon="17.678663642861284"><ele>74.0</ele><time>2026-04-21T17:49:00.012Z</time></trkpt><trkpt lat="40.40436840315058" lon="17.678951530042717"><ele>74.0</ele><time>2026-04-21T17:49:01.012Z</time></trkpt><trkpt lat="40.40439438721776" lon="17.6792238745953"><ele>74.0</ele><time>2026-04-21T17:49:02.012Z</time></trkpt><trkpt lat="40.40442402906999" lon="17.67948034927945"><ele>74.0</ele><time>2026-04-21T17:49:03.012Z</time></trkpt><trkpt lat="40.404457959532685" lon="17.679733752929693"><ele>74.0</ele><time>2026-04-21T17:49:04.012Z</time></trkpt><trkpt lat="40.40449001002689" lon="17.68000263271578"><ele>74.0</ele><time>2026-04-21T17:49:05.012Z</time></trkpt><trkpt lat="40.404509670781955" lon="17.680285288290264"><ele>74.33333333333334</ele><time>2026-04-21T17:49:06.012Z</time></trkpt><trkpt lat="40.40452848907182" lon="17.68056653412302"><ele>74.66666666666667</ele><time>2026-04-21T17:49:07.012Z</time></trkpt><trkpt lat="40.40455870892662" lon="17.680834442577336"><ele>75.0</ele><time>2026-04-21T17:49:08.012Z</time></trkpt><trkpt lat="40.40459000950294" lon="17.68109393789975"><ele>75.33333333333333</ele><time>2026-04-21T17:49:09.012Z</time></trkpt><trkpt lat="40.404616112671114" lon="17.681369689695895"><ele>75.66666666666666</ele><time>2026-04-21T17:49:10.012Z</time></trkpt><trkpt lat="40.40463768009521" lon="17.681649048226532"><ele>76.0</ele><time>2026-04-21T17:49:11.012Z</time></trkpt><trkpt lat="40.40466575933999" lon="17.681913097807833"><ele>77.0</ele><time>2026-04-21T17:49:12.012Z</time></trkpt><trkpt lat="40.40469747437882" lon="17.682171343224745"><ele>78.0</ele><time>2026-04-21T17:49:13.012Z</time></trkpt><trkpt lat="40.404722060400786" lon="17.682446873812477"><ele>79.0</ele><time>2026-04-21T17:49:14.012Z</time></trkpt><trkpt lat="40.40475390657724" lon="17.682715365707846"><ele>79.0</ele><time>2026-04-21T17:49:15.012Z</time></trkpt><trkpt lat="40.40477857360459" lon="17.682981988679362"><ele>79.0</ele><time>2026-04-21T17:49:16.012Z</time></trkpt><trkpt lat="40.40479991202607" lon="17.68325841495523"><ele>79.0</ele><time>2026-04-21T17:49:17.012Z</time></trkpt><trkpt lat="40.404818694666304" lon="17.68354834757095"><ele>79.0</ele><time>2026-04-21T17:49:18.012Z</time></trkpt><trkpt lat="40.40484276819833" lon="17.68382937337367"><ele>79.0</ele><time>2026-04-21T17:49:19.012Z</time></trkpt><trkpt lat="40.40487063789173" lon="17.6841307626005"><ele>79.0</ele><time>2026-04-21T17:49:20.012Z</time></trkpt><trkpt lat="40.40489988947674" lon="17.684369678807354"><ele>78.33333333333333</ele><time>2026-04-21T17:49:21.012Z</time></trkpt><trkpt lat="40.404930400872004" lon="17.684630116069602"><ele>77.66666666666667</ele><time>2026-04-21T17:49:22.012Z</time></trkpt><trkpt lat="40.40495797622103" lon="17.684898933949455"><ele>77.0</ele><time>2026-04-21T17:49:23.012Z</time></trkpt><trkpt lat="40.40498350896899" lon="17.685162174176625"><ele>76.33333333333334</ele><time>2026-04-21T17:49:24.012Z</time></trkpt><trkpt lat="40.405010738175804" lon="17.685426287136906"><ele>75.66666666666667</ele><time>2026-04-21T17:49:25.012Z</time></trkpt><trkpt lat="40.40503966080136" lon="17.68571047477386"><ele>75.0</ele><time>2026-04-21T17:49:26.012Z</time></trkpt><trkpt lat="40.40505526348621" lon="17.685999600983575"><ele>75.0</ele><time>2026-04-21T17:49:27.012Z</time></trkpt><trkpt lat="40.40507959258681" lon="17.68626944712086"><ele>75.0</ele><time>2026-04-21T17:49:28.012Z</time></trkpt><trkpt lat="40.405104541989544" lon="17.68653572261907"><ele>75.0</ele><time>2026-04-21T17:49:29.012Z</time></trkpt><trkpt lat="40.40512778642505" lon="17.68681058184607"><ele>75.33333333333333</ele><time>2026-04-21T17:49:30.012Z</time></trkpt><trkpt lat="40.40515438877647" lon="17.68707910270103"><ele>75.66666666666666</ele><time>2026-04-21T17:49:31.012Z</time></trkpt><trkpt lat="40.40518592900117" lon="17.687336242012215"><ele>76.0</ele><time>2026-04-21T17:49:32.012Z</time></trkpt><trkpt lat="40.40521019444233" lon="17.68760587897121"><ele>75.66666666666666</ele><time>2026-04-21T17:49:33.012Z</time></trkpt><trkpt lat="40.405224723277875" lon="17.68789036931029"><ele>75.33333333333333</ele><time>2026-04-21T17:49:34.012Z</time></trkpt><trkpt lat="40.40524720121923" lon="17.688162376017498"><ele>75.0</ele><time>2026-04-21T17:49:35.012Z</time></trkpt><trkpt lat="40.405269563396175" lon="17.68842462505888"><ele>74.66666666666667</ele><time>2026-04-21T17:49:36.012Z</time></trkpt><trkpt lat="40.40529218377496" lon="17.688681913635676"><ele>74.33333333333334</ele><time>2026-04-21T17:49:37.012Z</time></trkpt><trkpt lat="40.40531728222352" lon="17.68893703988299"><ele>74.0</ele><time>2026-04-21T17:49:38.012Z</time></trkpt><trkpt lat="40.40532698114758" lon="17.689232045508234"><ele>74.0</ele><time>2026-04-21T17:49:39.012Z</time></trkpt><trkpt lat="40.405343777658956" lon="17.68952366109088"><ele>74.0</ele><time>2026-04-21T17:49:40.012Z</time></trkpt><trkpt lat="40.40536441920078" lon="17.68982536735659"><ele>74.0</ele><time>2026-04-21T17:49:41.012Z</time></trkpt><trkpt lat="40.40539139268253" lon="17.690063468035902"><ele>74.0</ele><time>2026-04-21T17:49:42.012Z</time></trkpt><trkpt lat="40.405418436062966" lon="17.6903127575237"><ele>74.0</ele><time>2026-04-21T17:49:43.012Z</time></trkpt><trkpt lat="40.40544742186791" lon="17.69056725270335"><ele>73.33333333333334</ele><time>2026-04-21T17:49:44.012Z</time></trkpt><trkpt lat="40.40546491489234" lon="17.690856254780954"><ele>72.66666666666667</ele><time>2026-04-21T17:49:45.012Z</time></trkpt><trkpt lat="40.40547279566362" lon="17.691147461030685"><ele>72.0</ele><time>2026-04-21T17:49:46.012Z</time></trkpt><trkpt lat="40.40549312757822" lon="17.691425384753884"><ele>71.0</ele><time>2026-04-21T17:49:47.012Z</time></trkpt><trkpt lat="40.405513913084015" lon="17.691701664372438"><ele>70.0</ele><time>2026-04-21T17:49:48.012Z</time></trkpt><trkpt lat="40.40554133132075" lon="17.691967319976435"><ele>69.0</ele><time>2026-04-21T17:49:49.012Z</time></trkpt><trkpt lat="40.40557301749257" lon="17.692230875778854"><ele>68.66666666666667</ele><time>2026-04-21T17:49:50.012Z</time></trkpt><trkpt lat="40.40560126911732" lon="17.692501416591988"><ele>68.33333333333334</ele><time>2026-04-21T17:49:51.012Z</time></trkpt><trkpt lat="40.40562549374796" lon="17.69277356123063"><ele>68.0</ele><time>2026-04-21T17:49:52.012Z</time></trkpt><trkpt lat="40.40565272896136" lon="17.693044334096022"><ele>68.66666666666667</ele><time>2026-04-21T17:49:53.012Z</time></trkpt><trkpt lat="40.405681968048285" lon="17.693311880093486"><ele>69.33333333333333</ele><time>2026-04-21T17:49:54.012Z</time></trkpt><trkpt lat="40.40571017017096" lon="17.69357859578367"><ele>70.0</ele><time>2026-04-21T17:49:55.012Z</time></trkpt><trkpt lat="40.40573401483718" lon="17.693850665027966"><ele>70.0</ele><time>2026-04-21T17:49:56.012Z</time></trkpt><trkpt lat="40.40576138590937" lon="17.694121409318193"><ele>70.0</ele><time>2026-04-21T17:49:57.012Z</time></trkpt><trkpt lat="40.405787992092506" lon="17.69439552364032"><ele>70.0</ele><time>2026-04-21T17:49:58.012Z</time></trkpt><trkpt lat="40.40580241241172" lon="17.694673093060953"><ele>69.66666666666666</ele><time>2026-04-21T17:49:59.012Z</time></trkpt><trkpt lat="40.40582329846941" lon="17.694950403894467"><ele>69.33333333333333</ele><time>2026-04-21T17:50:00.012Z</time></trkpt><trkpt lat="40.40584593988668" lon="17.6952174236126"><ele>69.0</ele><time>2026-04-21T17:50:01.012Z</time></trkpt><trkpt lat="40.40586459483664" lon="17.69548636770283"><ele>68.66666666666667</ele><time>2026-04-21T17:50:02.012Z</time></trkpt><trkpt lat="40.40588125573343" lon="17.69576260446593"><ele>68.33333333333334</ele><time>2026-04-21T17:50:03.012Z</time></trkpt><trkpt lat="40.4058950196452" lon="17.696044752314048"><ele>68.0</ele><time>2026-04-21T17:50:04.012Z</time></trkpt><trkpt lat="40.40592606391684" lon="17.696312286653004"><ele>68.0</ele><time>2026-04-21T17:50:05.012Z</time></trkpt><trkpt lat="40.40594942324531" lon="17.696590101828058"><ele>68.0</ele><time>2026-04-21T17:50:06.012Z</time></trkpt><trkpt lat="40.40597281029829" lon="17.69686219416715"><ele>68.0</ele><time>2026-04-21T17:50:07.012Z</time></trkpt><trkpt lat="40.40599865330143" lon="17.697130095849925"><ele>68.0</ele><time>2026-04-21T17:50:08.012Z</time></trkpt><trkpt lat="40.40603374703233" lon="17.69738901868117"><ele>68.0</ele><time>2026-04-21T17:50:09.012Z</time></trkpt><trkpt lat="40.40606588409006" lon="17.69765298298113"><ele>68.0</ele><time>2026-04-21T17:50:10.012Z</time></trkpt><trkpt lat="40.406085832316684" lon="17.69793676128751"><ele>69.0</ele><time>2026-04-21T17:50:11.012Z</time></trkpt><trkpt lat="40.4061040057169" lon="17.698219940890667"><ele>70.0</ele><time>2026-04-21T17:50:12.012Z</time></trkpt><trkpt lat="40.406118351125535" lon="17.698496853687324"><ele>71.0</ele><time>2026-04-21T17:50:13.012Z</time></trkpt><trkpt lat="40.40615393214702" lon="17.698753974732234"><ele>71.0</ele><time>2026-04-21T17:50:14.012Z</time></trkpt><trkpt lat="40.40619007629154" lon="17.699012384731052"><ele>71.0</ele><time>2026-04-21T17:50:15.012Z</time></trkpt><trkpt lat="40.406236371980945" lon="17.699250255502804"><ele>71.0</ele><time>2026-04-21T17:50:16.012Z</time></trkpt><trkpt lat="40.406288020952" lon="17.69948080031312"><ele>71.0</ele><time>2026-04-21T17:50:17.012Z</time></trkpt><trkpt lat="40.40632876132719" lon="17.699726115707968"><ele>71.0</ele><time>2026-04-21T17:50:18.012Z</time></trkpt><trkpt lat="40.406352237542905" lon="17.700006217594584"><ele>71.0</ele><time>2026-04-21T17:50:19.012Z</time></trkpt><trkpt lat="40.40630747821908" lon="17.70037090208242"><ele>71.0</ele><time>2026-04-21T17:50:20.012Z</time></trkpt><trkpt lat="40.40632365315618" lon="17.700659089875746"><ele>71.0</ele><time>2026-04-21T17:50:21.012Z</time></trkpt><trkpt lat="40.406336383799605" lon="17.70095175043238"><ele>71.0</ele><time>2026-04-21T17:50:22.012Z</time></trkpt><trkpt lat="40.40638964009914" lon="17.701189766648863"><ele>71.66666666666667</ele><time>2026-04-21T17:50:23.012Z</time></trkpt><trkpt lat="40.4064163912567" lon="17.701462370652276"><ele>72.33333333333333</ele><time>2026-04-21T17:50:24.012Z</time></trkpt><trkpt lat="40.406436318595" lon="17.70173600170185"><ele>73.0</ele><time>2026-04-21T17:50:25.013Z</time></trkpt><trkpt lat="40.40645798912541" lon="17.70200647055689"><ele>73.33333333333333</ele><time>2026-04-21T17:50:26.013Z</time></trkpt><trkpt lat="40.4064831231615" lon="17.70227797596616"><ele>73.66666666666667</ele><time>2026-04-21T17:50:27.013Z</time></trkpt><trkpt lat="40.4065050807212" lon="17.702547458179588"><ele>74.0</ele><time>2026-04-21T17:50:28.013Z</time></trkpt><trkpt lat="40.406527475973135" lon="17.7028186474474"><ele>74.0</ele><time>2026-04-21T17:50:29.013Z</time></trkpt><trkpt lat="40.40655108573917" lon="17.70308977423546"><ele>74.0</ele><time>2026-04-21T17:50:30.013Z</time></trkpt><trkpt lat="40.406576649777016" lon="17.703359929324094"><ele>74.0</ele><time>2026-04-21T17:50:31.013Z</time></trkpt><trkpt lat="40.406601410347946" lon="17.7036306804762"><ele>74.0</ele><time>2026-04-21T17:50:32.012Z</time></trkpt><trkpt lat="40.406628788024705" lon="17.70390294512549"><ele>74.0</ele><time>2026-04-21T17:50:33.012Z</time></trkpt><trkpt lat="40.40665352600532" lon="17.704174848168954"><ele>74.0</ele><time>2026-04-21T17:50:34.013Z</time></trkpt><trkpt lat="40.40667686992232" lon="17.7044465443956"><ele>73.66666666666667</ele><time>2026-04-21T17:50:35.013Z</time></trkpt><trkpt lat="40.40669974597053" lon="17.704716060554635"><ele>73.33333333333333</ele><time>2026-04-21T17:50:36.013Z</time></trkpt><trkpt lat="40.40672661769809" lon="17.704988535200172"><ele>73.0</ele><time>2026-04-21T17:50:37.013Z</time></trkpt><trkpt lat="40.406754020145044" lon="17.70525924014928"><ele>73.0</ele><time>2026-04-21T17:50:38.013Z</time></trkpt><trkpt lat="40.406778778967144" lon="17.705529709001347"><ele>73.0</ele><time>2026-04-21T17:50:39.013Z</time></trkpt><trkpt lat="40.406802240721426" lon="17.70580138627976"><ele>73.0</ele><time>2026-04-21T17:50:40.013Z</time></trkpt><trkpt lat="40.406827031284216" lon="17.706072156093327"><ele>72.66666666666666</ele><time>2026-04-21T17:50:41.013Z</time></trkpt><trkpt lat="40.406852227154" lon="17.706344281954166"><ele>72.33333333333333</ele><time>2026-04-21T17:50:42.013Z</time></trkpt><trkpt lat="40.406878745139345" lon="17.70661760238416"><ele>72.0</ele><time>2026-04-21T17:50:43.013Z</time></trkpt><trkpt lat="40.40690507304741" lon="17.706890852602033"><ele>72.66666666666667</ele><time>2026-04-21T17:50:44.013Z</time></trkpt><trkpt lat="40.40692632263819" lon="17.70716279283968"><ele>73.33333333333334</ele><time>2026-04-21T17:50:45.013Z</time></trkpt><trkpt lat="40.40695316148928" lon="17.707434909771397"><ele>74.0</ele><time>2026-04-21T17:50:46.013Z</time></trkpt><trkpt lat="40.40697668180466" lon="17.707707732271206"><ele>74.0</ele><time>2026-04-21T17:50:47.013Z</time></trkpt><trkpt lat="40.407004672646686" lon="17.707979040187663"><ele>74.0</ele><time>2026-04-21T17:50:48.013Z</time></trkpt><trkpt lat="40.40702815733233" lon="17.708251592443787"><ele>74.0</ele><time>2026-04-21T17:50:49.013Z</time></trkpt><trkpt lat="40.40705033066399" lon="17.708525103450658"><ele>74.33333333333334</ele><time>2026-04-21T17:50:50.013Z</time></trkpt><trkpt lat="40.40707286819087" lon="17.708792617889472"><ele>74.66666666666667</ele><time>2026-04-21T17:50:51.013Z</time></trkpt><trkpt lat="40.40709449197209" lon="17.709063834478698"><ele>75.0</ele><time>2026-04-21T17:50:52.013Z</time></trkpt><trkpt lat="40.40711547261056" lon="17.709336333846274"><ele>75.0</ele><time>2026-04-21T17:50:53.013Z</time></trkpt><trkpt lat="40.4071370398031" lon="17.709609306748852"><ele>75.0</ele><time>2026-04-21T17:50:54.013Z</time></trkpt><trkpt lat="40.407164724367455" lon="17.709881108336237"><ele>75.0</ele><time>2026-04-21T17:50:55.013Z</time></trkpt><trkpt lat="40.407186144014084" lon="17.710157168175066"><ele>74.66666666666667</ele><time>2026-04-21T17:50:56.013Z</time></trkpt><trkpt lat="40.40721113945537" lon="17.710429874404273"><ele>74.33333333333334</ele><time>2026-04-21T17:50:57.013Z</time></trkpt><trkpt lat="40.40723381483771" lon="17.710704974329467"><ele>74.0</ele><time>2026-04-21T17:50:58.013Z</time></trkpt><trkpt lat="40.40725891382741" lon="17.710978422206303"><ele>73.66666666666667</ele><time>2026-04-21T17:50:59.013Z</time></trkpt><trkpt lat="40.4072851493644" lon="17.711247636693813"><ele>73.33333333333333</ele><time>2026-04-21T17:51:00.013Z</time></trkpt><trkpt lat="40.40731113814081" lon="17.711519759477547"><ele>73.0</ele><time>2026-04-21T17:51:01.013Z</time></trkpt><trkpt lat="40.40733525134443" lon="17.71179513793567"><ele>73.0</ele><time>2026-04-21T17:51:02.013Z</time></trkpt><trkpt lat="40.4073618457311" lon="17.71206490759294"><ele>73.0</ele><time>2026-04-21T17:51:03.013Z</time></trkpt><trkpt lat="40.407398111085584" lon="17.71231719541559"><ele>73.0</ele><time>2026-04-21T17:51:04.013Z</time></trkpt><trkpt lat="40.407434155585584" lon="17.71257340238332"><ele>73.0</ele><time>2026-04-21T17:51:05.013Z</time></trkpt><trkpt lat="40.407466322922325" lon="17.71282941893841"><ele>73.0</ele><time>2026-04-21T17:51:06.013Z</time></trkpt><trkpt lat="40.40750307325105" lon="17.71307880835158"><ele>73.0</ele><time>2026-04-21T17:51:07.013Z</time></trkpt><trkpt lat="40.40752577830609" lon="17.7133564305884"><ele>73.0</ele><time>2026-04-21T17:51:08.013Z</time></trkpt><trkpt lat="40.40751744581842" lon="17.713683876556466"><ele>73.0</ele><time>2026-04-21T17:51:09.013Z</time></trkpt><trkpt lat="40.40753397574625" lon="17.713968463367678"><ele>73.0</ele><time>2026-04-21T17:51:10.013Z</time></trkpt><trkpt lat="40.407561853694176" lon="17.714231476093264"><ele>73.0</ele><time>2026-04-21T17:51:11.013Z</time></trkpt><trkpt lat="40.407583958609976" lon="17.714505857988428"><ele>73.0</ele><time>2026-04-21T17:51:12.013Z</time></trkpt><trkpt lat="40.4076093774172" lon="17.71476724440214"><ele>73.0</ele><time>2026-04-21T17:51:13.013Z</time></trkpt><trkpt lat="40.407636883428175" lon="17.715037261144637"><ele>73.0</ele><time>2026-04-21T17:51:14.013Z</time></trkpt><trkpt lat="40.407653801548264" lon="17.71531831126382"><ele>73.0</ele><time>2026-04-21T17:51:15.013Z</time></trkpt><trkpt lat="40.40767625026614" lon="17.715593387690834"><ele>73.33333333333333</ele><time>2026-04-21T17:51:16.013Z</time></trkpt><trkpt lat="40.40770160341259" lon="17.71586176844639"><ele>73.66666666666667</ele><time>2026-04-21T17:51:17.013Z</time></trkpt><trkpt lat="40.407729392407006" lon="17.71612452185268"><ele>74.0</ele><time>2026-04-21T17:51:18.013Z</time></trkpt><trkpt lat="40.40776064479624" lon="17.716386925236502"><ele>74.0</ele><time>2026-04-21T17:51:19.013Z</time></trkpt><trkpt lat="40.40778668708725" lon="17.716653497101884"><ele>74.0</ele><time>2026-04-21T17:51:20.013Z</time></trkpt><trkpt lat="40.40781076388881" lon="17.716929020153756"><ele>74.0</ele><time>2026-04-21T17:51:21.013Z</time></trkpt><trkpt lat="40.40783066843811" lon="17.71720589892385"><ele>74.0</ele><time>2026-04-21T17:51:22.013Z</time></trkpt><trkpt lat="40.40785124309523" lon="17.717480912855716"><ele>74.0</ele><time>2026-04-21T17:51:23.013Z</time></trkpt><trkpt lat="40.40787447017442" lon="17.71775252862752"><ele>74.0</ele><time>2026-04-21T17:51:24.013Z</time></trkpt><trkpt lat="40.40789810452424" lon="17.71802643398495"><ele>73.66666666666667</ele><time>2026-04-21T17:51:25.013Z</time></trkpt><trkpt lat="40.40791938597221" lon="17.718304319266693"><ele>73.33333333333333</ele><time>2026-04-21T17:51:26.013Z</time></trkpt><trkpt lat="40.40793481822313" lon="17.718589965805222"><ele>73.0</ele><time>2026-04-21T17:51:27.013Z</time></trkpt><trkpt lat="40.40794437140133" lon="17.718892516734016"><ele>73.66666666666666</ele><time>2026-04-21T17:51:28.013Z</time></trkpt><trkpt lat="40.40796529415173" lon="17.719173526154144"><ele>74.33333333333333</ele><time>2026-04-21T17:51:29.013Z</time></trkpt><trkpt lat="40.40801623333577" lon="17.719387848852126"><ele>75.0</ele><time>2026-04-21T17:51:30.013Z</time></trkpt><trkpt lat="40.408057200229116" lon="17.719615752903188"><ele>75.0</ele><time>2026-04-21T17:51:31.013Z</time></trkpt><trkpt lat="40.408115692005396" lon="17.71983590132299"><ele>75.0</ele><time>2026-04-21T17:51:32.013Z</time></trkpt><trkpt lat="40.4081126990271" lon="17.720130074351907"><ele>75.0</ele><time>2026-04-21T17:51:33.013Z</time></trkpt><trkpt lat="40.408108198299736" lon="17.72046532880017"><ele>75.0</ele><time>2026-04-21T17:51:34.013Z</time></trkpt><trkpt lat="40.40811849211014" lon="17.72076148037309"><ele>75.0</ele><time>2026-04-21T17:51:35.013Z</time></trkpt><trkpt lat="40.408119707933956" lon="17.72106362150831"><ele>75.33333333333333</ele><time>2026-04-21T17:51:36.013Z</time></trkpt><trkpt lat="40.408132297205704" lon="17.72133690217278"><ele>75.66666666666666</ele><time>2026-04-21T17:51:37.013Z</time></trkpt><trkpt lat="40.4081942636761" lon="17.721574370072414"><ele>76.0</ele><time>2026-04-21T17:51:38.013Z</time></trkpt><trkpt lat="40.40822123368002" lon="17.721838647225823"><ele>75.33333333333333</ele><time>2026-04-21T17:51:39.013Z</time></trkpt><trkpt lat="40.40824439313238" lon="17.722110697631063"><ele>74.66666666666667</ele><time>2026-04-21T17:51:40.013Z</time></trkpt><trkpt lat="40.40826608551781" lon="17.72238773544076"><ele>74.0</ele><time>2026-04-21T17:51:41.013Z</time></trkpt><trkpt lat="40.40829215576929" lon="17.722658813045687"><ele>74.33333333333334</ele><time>2026-04-21T17:51:42.013Z</time></trkpt><trkpt lat="40.40831602468987" lon="17.722932589297358"><ele>74.66666666666667</ele><time>2026-04-21T17:51:43.013Z</time></trkpt><trkpt lat="40.40835116960519" lon="17.723188296678746"><ele>75.0</ele><time>2026-04-21T17:51:44.013Z</time></trkpt><trkpt lat="40.40838580240712" lon="17.723444089853306"><ele>74.66666666666667</ele><time>2026-04-21T17:51:45.013Z</time></trkpt><trkpt lat="40.40844838619484" lon="17.72366127091183"><ele>74.33333333333334</ele><time>2026-04-21T17:51:46.013Z</time></trkpt><trkpt lat="40.40851814838898" lon="17.723879719954905"><ele>74.0</ele><time>2026-04-21T17:51:47.013Z</time></trkpt><trkpt lat="40.40855552644313" lon="17.724121473937373"><ele>74.0</ele><time>2026-04-21T17:51:48.013Z</time></trkpt><trkpt lat="40.408566308438594" lon="17.724402831244834"><ele>74.0</ele><time>2026-04-21T17:51:49.013Z</time></trkpt><trkpt lat="40.40850551515716" lon="17.724817735687562"><ele>74.0</ele><time>2026-04-21T17:51:50.013Z</time></trkpt><trkpt lat="40.40852893739099" lon="17.72508884757149"><ele>74.0</ele><time>2026-04-21T17:51:51.013Z</time></trkpt><trkpt lat="40.408553133343105" lon="17.725359470586486"><ele>74.0</ele><time>2026-04-21T17:51:52.013Z</time></trkpt><trkpt lat="40.40857640119221" lon="17.725631408168507"><ele>74.33333333333334</ele><time>2026-04-21T17:51:53.013Z</time></trkpt><trkpt lat="40.408599429794656" lon="17.72589505732561"><ele>74.66666666666667</ele><time>2026-04-21T17:51:54.013Z</time></trkpt><trkpt lat="40.40861959716119" lon="17.726168961580257"><ele>75.0</ele><time>2026-04-21T17:51:55.013Z</time></trkpt><trkpt lat="40.40863960843063" lon="17.72644791531344"><ele>75.0</ele><time>2026-04-21T17:51:56.013Z</time></trkpt><trkpt lat="40.408658935347454" lon="17.726723617458056"><ele>75.0</ele><time>2026-04-21T17:51:57.013Z</time></trkpt><trkpt lat="40.40868120555638" lon="17.72699607019503"><ele>75.0</ele><time>2026-04-21T17:51:58.013Z</time></trkpt><trkpt lat="40.40870336424705" lon="17.727267212997475"><ele>75.0</ele><time>2026-04-21T17:51:59.013Z</time></trkpt><trkpt lat="40.408730440017756" lon="17.72753626209159"><ele>75.0</ele><time>2026-04-21T17:52:00.013Z</time></trkpt><trkpt lat="40.408756256514486" lon="17.727807543020553"><ele>75.0</ele><time>2026-04-21T17:52:01.013Z</time></trkpt><trkpt lat="40.408781407837566" lon="17.728079436041686"><ele>75.0</ele><time>2026-04-21T17:52:02.013Z</time></trkpt><trkpt lat="40.40880447171423" lon="17.728351984385363"><ele>75.0</ele><time>2026-04-21T17:52:03.013Z</time></trkpt><trkpt lat="40.4088292421519" lon="17.728624743717514"><ele>75.0</ele><time>2026-04-21T17:52:04.013Z</time></trkpt><trkpt lat="40.4088510989676" lon="17.72889728627111"><ele>75.0</ele><time>2026-04-21T17:52:05.013Z</time></trkpt><trkpt lat="40.408876172419916" lon="17.729170251294363"><ele>75.0</ele><time>2026-04-21T17:52:06.013Z</time></trkpt><trkpt lat="40.408900155639515" lon="17.72943927357069"><ele>75.0</ele><time>2026-04-21T17:52:07.013Z</time></trkpt><trkpt lat="40.40891914589375" lon="17.72971423853814"><ele>75.0</ele><time>2026-04-21T17:52:08.013Z</time></trkpt><trkpt lat="40.40894282212836" lon="17.729989119515913"><ele>75.0</ele><time>2026-04-21T17:52:09.013Z</time></trkpt><trkpt lat="40.4089680997024" lon="17.73025996698662"><ele>75.0</ele><time>2026-04-21T17:52:10.013Z</time></trkpt><trkpt lat="40.40899122912262" lon="17.730530856536905"><ele>75.0</ele><time>2026-04-21T17:52:11.013Z</time></trkpt><trkpt lat="40.409016911201014" lon="17.730803883577966"><ele>75.0</ele><time>2026-04-21T17:52:12.013Z</time></trkpt><trkpt lat="40.409061735274136" lon="17.731049293141993"><ele>75.0</ele><time>2026-04-21T17:52:13.013Z</time></trkpt><trkpt lat="40.4090973564227" lon="17.731309699261914"><ele>75.33333333333333</ele><time>2026-04-21T17:52:14.013Z</time></trkpt><trkpt lat="40.409123577826435" lon="17.731575221449862"><ele>75.66666666666666</ele><time>2026-04-21T17:52:15.013Z</time></trkpt><trkpt lat="40.409140378857444" lon="17.731839675465736"><ele>76.0</ele><time>2026-04-21T17:52:16.013Z</time></trkpt><trkpt lat="40.4091623806682" lon="17.73212344963854"><ele>75.33333333333333</ele><time>2026-04-21T17:52:17.013Z</time></trkpt><trkpt lat="40.40917690312479" lon="17.732409294888747"><ele>74.66666666666667</ele><time>2026-04-21T17:52:18.013Z</time></trkpt><trkpt lat="40.40918756576788" lon="17.732701565017358"><ele>74.0</ele><time>2026-04-21T17:52:19.013Z</time></trkpt><trkpt lat="40.40920862066076" lon="17.732972973737645"><ele>73.66666666666667</ele><time>2026-04-21T17:52:20.013Z</time></trkpt><trkpt lat="40.40922618376214" lon="17.73324672735746"><ele>73.33333333333333</ele><time>2026-04-21T17:52:21.013Z</time></trkpt><trkpt lat="40.40924694094301" lon="17.733518409816266"><ele>73.0</ele><time>2026-04-21T17:52:22.013Z</time></trkpt><trkpt lat="40.40927163089647" lon="17.733790359003873"><ele>72.0</ele><time>2026-04-21T17:52:23.013Z</time></trkpt><trkpt lat="40.409296407663504" lon="17.734064225378226"><ele>71.0</ele><time>2026-04-21T17:52:24.013Z</time></trkpt><trkpt lat="40.40932187193778" lon="17.734336723251577"><ele>70.0</ele><time>2026-04-21T17:52:25.013Z</time></trkpt><trkpt lat="40.4093456210721" lon="17.734608241732605"><ele>70.0</ele><time>2026-04-21T17:52:26.013Z</time></trkpt><trkpt lat="40.409365439792346" lon="17.734883033493077"><ele>70.0</ele><time>2026-04-21T17:52:27.013Z</time></trkpt><trkpt lat="40.409389233406415" lon="17.73515801211457"><ele>70.0</ele><time>2026-04-21T17:52:28.013Z</time></trkpt><trkpt lat="40.40941504703035" lon="17.735431164520524"><ele>70.0</ele><time>2026-04-21T17:52:29.013Z</time></trkpt><trkpt lat="40.4094435068965" lon="17.73570297513831"><ele>70.0</ele><time>2026-04-21T17:52:30.013Z</time></trkpt><trkpt lat="40.40946881637967" lon="17.73597381439911"><ele>70.0</ele><time>2026-04-21T17:52:31.014Z</time></trkpt><trkpt lat="40.409490460905204" lon="17.736242823871972"><ele>70.33333333333333</ele><time>2026-04-21T17:52:32.013Z</time></trkpt><trkpt lat="40.40951738029071" lon="17.73651102899805"><ele>70.66666666666667</ele><time>2026-04-21T17:52:33.013Z</time></trkpt><trkpt lat="40.40954218563957" lon="17.736781423940705"><ele>71.0</ele><time>2026-04-21T17:52:34.014Z</time></trkpt><trkpt lat="40.40956375495301" lon="17.737053436175312"><ele>71.33333333333334</ele><time>2026-04-21T17:52:35.013Z</time></trkpt><trkpt lat="40.40958573603671" lon="17.73732436846786"><ele>71.66666666666667</ele><time>2026-04-21T17:52:36.013Z</time></trkpt><trkpt lat="40.409611663663476" lon="17.737592343101984"><ele>72.0</ele><time>2026-04-21T17:52:37.014Z</time></trkpt><trkpt lat="40.40963467517547" lon="17.7378632853837"><ele>72.0</ele><time>2026-04-21T17:52:38.013Z</time></trkpt><trkpt lat="40.40965621304624" lon="17.738135310391648"><ele>72.0</ele><time>2026-04-21T17:52:39.013Z</time></trkpt><trkpt lat="40.40968069568201" lon="17.738404980861073"><ele>72.0</ele><time>2026-04-21T17:52:40.014Z</time></trkpt><trkpt lat="40.40970432769605" lon="17.73867788127618"><ele>71.66666666666667</ele><time>2026-04-21T17:52:41.013Z</time></trkpt><trkpt lat="40.40973476808368" lon="17.738948234366358"><ele>71.33333333333334</ele><time>2026-04-21T17:52:42.013Z</time></trkpt><trkpt lat="40.40975983475896" lon="17.739223551776817"><ele>71.0</ele><time>2026-04-21T17:52:43.014Z</time></trkpt><trkpt lat="40.40978123673862" lon="17.739498077054584"><ele>71.0</ele><time>2026-04-21T17:52:44.013Z</time></trkpt><trkpt lat="40.40980239136184" lon="17.739774504601456"><ele>71.0</ele><time>2026-04-21T17:52:45.013Z</time></trkpt><trkpt lat="40.40982144343089" lon="17.740050608292997"><ele>71.0</ele><time>2026-04-21T17:52:46.013Z</time></trkpt><trkpt lat="40.409875719025045" lon="17.740584131838318"><ele>70.33333333333334</ele><time>2026-04-21T17:52:48.013Z</time></trkpt><trkpt lat="40.4098996225743" lon="17.74085706674727"><ele>69.66666666666667</ele><time>2026-04-21T17:52:49.013Z</time></trkpt><trkpt lat="40.40992417955994" lon="17.74112786318307"><ele>69.0</ele><time>2026-04-21T17:52:50.013Z</time></trkpt><trkpt lat="40.409947675710804" lon="17.741403742458857"><ele>68.0</ele><time>2026-04-21T17:52:51.013Z</time></trkpt><trkpt lat="40.40996734353425" lon="17.74167425208042"><ele>67.0</ele><time>2026-04-21T17:52:52.013Z</time></trkpt><trkpt lat="40.40999466195547" lon="17.74194062551847"><ele>66.0</ele><time>2026-04-21T17:52:53.013Z</time></trkpt><trkpt lat="40.4100277635095" lon="17.742203658091313"><ele>66.0</ele><time>2026-04-21T17:52:54.013Z</time></trkpt><trkpt lat="40.41004952867993" lon="17.74248728378338"><ele>66.0</ele><time>2026-04-21T17:52:55.013Z</time></trkpt><trkpt lat="40.41007983046213" lon="17.742765791113765"><ele>66.0</ele><time>2026-04-21T17:52:56.013Z</time></trkpt><trkpt lat="40.4101097043908" lon="17.743039189221978"><ele>66.0</ele><time>2026-04-21T17:52:57.013Z</time></trkpt><trkpt lat="40.410125060303066" lon="17.74331196057062"><ele>66.0</ele><time>2026-04-21T17:52:58.013Z</time></trkpt><trkpt lat="40.41014821951824" lon="17.743580093738824"><ele>66.0</ele><time>2026-04-21T17:52:59.013Z</time></trkpt><trkpt lat="40.410173730259714" lon="17.74384645156082"><ele>65.66666666666667</ele><time>2026-04-21T17:53:00.013Z</time></trkpt><trkpt lat="40.410202394026136" lon="17.744109631855416"><ele>65.33333333333334</ele><time>2026-04-21T17:53:01.013Z</time></trkpt><trkpt lat="40.41021916773899" lon="17.74439129988728"><ele>65.0</ele><time>2026-04-21T17:53:02.013Z</time></trkpt><trkpt lat="40.410237922578396" lon="17.744676649933556"><ele>65.0</ele><time>2026-04-21T17:53:03.013Z</time></trkpt><trkpt lat="40.41026730750607" lon="17.744940495390896"><ele>65.0</ele><time>2026-04-21T17:53:04.013Z</time></trkpt><trkpt lat="40.41029902561312" lon="17.745208887791463"><ele>65.0</ele><time>2026-04-21T17:53:05.013Z</time></trkpt><trkpt lat="40.41032398948778" lon="17.745482426544573"><ele>64.66666666666667</ele><time>2026-04-21T17:53:06.013Z</time></trkpt><trkpt lat="40.41035806763093" lon="17.745739105501332"><ele>64.33333333333333</ele><time>2026-04-21T17:53:07.013Z</time></trkpt><trkpt lat="40.410388532923896" lon="17.74600658342606"><ele>64.0</ele><time>2026-04-21T17:53:08.013Z</time></trkpt><trkpt lat="40.41041710538911" lon="17.746271270877628"><ele>64.0</ele><time>2026-04-21T17:53:09.013Z</time></trkpt><trkpt lat="40.410433798871736" lon="17.746549164777516"><ele>64.0</ele><time>2026-04-21T17:53:10.013Z</time></trkpt><trkpt lat="40.410458597193546" lon="17.74683284740219"><ele>64.0</ele><time>2026-04-21T17:53:11.013Z</time></trkpt><trkpt lat="40.410477350250424" lon="17.74711962075774"><ele>64.0</ele><time>2026-04-21T17:53:12.013Z</time></trkpt><trkpt lat="40.41049452569974" lon="17.7474041130715"><ele>64.0</ele><time>2026-04-21T17:53:13.013Z</time></trkpt><trkpt lat="40.41050833146607" lon="17.74768998325298"><ele>64.0</ele><time>2026-04-21T17:53:14.013Z</time></trkpt><trkpt lat="40.41050716854521" lon="17.747983565117245"><ele>64.0</ele><time>2026-04-21T17:53:15.013Z</time></trkpt><trkpt lat="40.410510955169606" lon="17.748257779682124"><ele>64.0</ele><time>2026-04-21T17:53:16.013Z</time></trkpt><trkpt lat="40.4105997771992" lon="17.748473824349762"><ele>64.0</ele><time>2026-04-21T17:53:17.013Z</time></trkpt><trkpt lat="40.41063799703603" lon="17.748734282643085"><ele>64.33333333333333</ele><time>2026-04-21T17:53:18.013Z</time></trkpt><trkpt lat="40.41066470445517" lon="17.74900916783863"><ele>64.66666666666667</ele><time>2026-04-21T17:53:19.013Z</time></trkpt><trkpt lat="40.410690783121034" lon="17.749281240486404"><ele>65.0</ele><time>2026-04-21T17:53:20.013Z</time></trkpt><trkpt lat="40.41070942729318" lon="17.74955110274932"><ele>64.0</ele><time>2026-04-21T17:53:21.013Z</time></trkpt><trkpt lat="40.41074278553071" lon="17.749823065689416"><ele>63.0</ele><time>2026-04-21T17:53:22.013Z</time></trkpt><trkpt lat="40.41076898438753" lon="17.750093228445163"><ele>62.0</ele><time>2026-04-21T17:53:23.013Z</time></trkpt><trkpt lat="40.410810835374654" lon="17.75033748300268"><ele>62.0</ele><time>2026-04-21T17:53:24.013Z</time></trkpt><trkpt lat="40.41084444601501" lon="17.750586537765134"><ele>62.0</ele><time>2026-04-21T17:53:25.013Z</time></trkpt><trkpt lat="40.41082297435141" lon="17.7509091805905"><ele>62.0</ele><time>2026-04-21T17:53:26.013Z</time></trkpt><trkpt lat="40.4108349566656" lon="17.75119327814435"><ele>62.0</ele><time>2026-04-21T17:53:27.013Z</time></trkpt><trkpt lat="40.410851832945326" lon="17.751473635570672"><ele>62.0</ele><time>2026-04-21T17:53:28.013Z</time></trkpt><trkpt lat="40.410863517795" lon="17.751758947811254"><ele>62.0</ele><time>2026-04-21T17:53:29.013Z</time></trkpt><trkpt lat="40.41084719784487" lon="17.752051774054774"><ele>62.0</ele><time>2026-04-21T17:53:30.013Z</time></trkpt><trkpt lat="40.41084077072959" lon="17.752348644946725"><ele>62.0</ele><time>2026-04-21T17:53:31.013Z</time></trkpt><trkpt lat="40.41094842177264" lon="17.752555189145916"><ele>62.0</ele><time>2026-04-21T17:53:32.013Z</time></trkpt><trkpt lat="40.41098409643019" lon="17.752812828472948"><ele>62.333333333333336</ele><time>2026-04-21T17:53:33.013Z</time></trkpt><trkpt lat="40.41103530976942" lon="17.753049581207147"><ele>62.66666666666667</ele><time>2026-04-21T17:53:34.013Z</time></trkpt><trkpt lat="40.411079529232616" lon="17.75327964387388"><ele>63.0</ele><time>2026-04-21T17:53:35.013Z</time></trkpt><trkpt lat="40.41110290822491" lon="17.753548199485444"><ele>63.0</ele><time>2026-04-21T17:53:36.013Z</time></trkpt><trkpt lat="40.411082953354004" lon="17.75389064702008"><ele>63.0</ele><time>2026-04-21T17:53:37.013Z</time></trkpt><trkpt lat="40.411094861023365" lon="17.75417955135948"><ele>63.0</ele><time>2026-04-21T17:53:38.013Z</time></trkpt><trkpt lat="40.41110855656049" lon="17.754463459770996"><ele>63.0</ele><time>2026-04-21T17:53:39.013Z</time></trkpt><trkpt lat="40.411095967113724" lon="17.754753426144156"><ele>63.0</ele><time>2026-04-21T17:53:40.013Z</time></trkpt><trkpt lat="40.411117264107986" lon="17.755033767763848"><ele>63.0</ele><time>2026-04-21T17:53:41.013Z</time></trkpt><trkpt lat="40.41118918777267" lon="17.755269994128682"><ele>63.0</ele><time>2026-04-21T17:53:42.013Z</time></trkpt><trkpt lat="40.411221692015076" lon="17.75553196234947"><ele>63.0</ele><time>2026-04-21T17:53:43.013Z</time></trkpt><trkpt lat="40.411254784808314" lon="17.755795042223664"><ele>63.33333333333333</ele><time>2026-04-21T17:53:44.013Z</time></trkpt><trkpt lat="40.41127936654855" lon="17.756064398648444"><ele>63.666666666666664</ele><time>2026-04-21T17:53:45.013Z</time></trkpt><trkpt lat="40.41129715134207" lon="17.75634203038082"><ele>64.0</ele><time>2026-04-21T17:53:46.013Z</time></trkpt><trkpt lat="40.411316709580184" lon="17.756616604644904"><ele>64.0</ele><time>2026-04-21T17:53:47.013Z</time></trkpt><trkpt lat="40.411337370546875" lon="17.756887902493386"><ele>64.0</ele><time>2026-04-21T17:53:48.013Z</time></trkpt><trkpt lat="40.41135959172877" lon="17.757157547163203"><ele>64.0</ele><time>2026-04-21T17:53:49.013Z</time></trkpt><trkpt lat="40.41138622242665" lon="17.757428606448883"><ele>64.0</ele><time>2026-04-21T17:53:50.013Z</time></trkpt><trkpt lat="40.41141775175078" lon="17.757693270422084"><ele>64.0</ele><time>2026-04-21T17:53:51.013Z</time></trkpt><trkpt lat="40.411448673014185" lon="17.75796141541178"><ele>64.0</ele><time>2026-04-21T17:53:52.013Z</time></trkpt><trkpt lat="40.4114675108229" lon="17.758242242028988"><ele>64.0</ele><time>2026-04-21T17:53:53.013Z</time></trkpt><trkpt lat="40.41148374089197" lon="17.75852017192229"><ele>64.0</ele><time>2026-04-21T17:53:54.013Z</time></trkpt><trkpt lat="40.41150540029301" lon="17.758789549367442"><ele>64.0</ele><time>2026-04-21T17:53:55.013Z</time></trkpt><trkpt lat="40.41152960476882" lon="17.759060030622347"><ele>64.0</ele><time>2026-04-21T17:53:56.013Z</time></trkpt><trkpt lat="40.411554671162385" lon="17.759338423125875"><ele>64.0</ele><time>2026-04-21T17:53:57.013Z</time></trkpt><trkpt lat="40.411573570846876" lon="17.75962004007966"><ele>64.0</ele><time>2026-04-21T17:53:58.013Z</time></trkpt><trkpt lat="40.41159042628374" lon="17.75990100594045"><ele>64.33333333333333</ele><time>2026-04-21T17:53:59.013Z</time></trkpt><trkpt lat="40.411605068968804" lon="17.76017820350463"><ele>64.66666666666667</ele><time>2026-04-21T17:54:00.013Z</time></trkpt><trkpt lat="40.41161185481747" lon="17.760453100014225"><ele>65.0</ele><time>2026-04-21T17:54:01.013Z</time></trkpt><trkpt lat="40.41165909858471" lon="17.760722379791787"><ele>65.0</ele><time>2026-04-21T17:54:02.013Z</time></trkpt><trkpt lat="40.411692290424575" lon="17.760984443171107"><ele>65.0</ele><time>2026-04-21T17:54:03.013Z</time></trkpt><trkpt lat="40.41171876242354" lon="17.76125297985031"><ele>65.0</ele><time>2026-04-21T17:54:04.013Z</time></trkpt><trkpt lat="40.41174932994442" lon="17.76151698519996"><ele>64.33333333333334</ele><time>2026-04-21T17:54:05.013Z</time></trkpt><trkpt lat="40.411777626429" lon="17.76178327909674"><ele>63.66666666666667</ele><time>2026-04-21T17:54:06.013Z</time></trkpt><trkpt lat="40.4118080349229" lon="17.762050498040516"><ele>63.0</ele><time>2026-04-21T17:54:07.013Z</time></trkpt><trkpt lat="40.4118391113408" lon="17.762312875141873"><ele>63.0</ele><time>2026-04-21T17:54:08.013Z</time></trkpt><trkpt lat="40.411864475607366" lon="17.762580516084565"><ele>63.0</ele><time>2026-04-21T17:54:09.013Z</time></trkpt><trkpt lat="40.41188029562068" lon="17.762860584512882"><ele>63.0</ele><time>2026-04-21T17:54:10.013Z</time></trkpt><trkpt lat="40.4118956666618" lon="17.763144414235477"><ele>63.0</ele><time>2026-04-21T17:54:11.013Z</time></trkpt><trkpt lat="40.41191211986434" lon="17.763428073106443"><ele>63.0</ele><time>2026-04-21T17:54:12.013Z</time></trkpt><trkpt lat="40.41193045440676" lon="17.763704426494524"><ele>63.0</ele><time>2026-04-21T17:54:13.013Z</time></trkpt><trkpt lat="40.41193636017994" lon="17.763988263323007"><ele>63.0</ele><time>2026-04-21T17:54:14.013Z</time></trkpt><trkpt lat="40.41193485291609" lon="17.764272837464745"><ele>63.0</ele><time>2026-04-21T17:54:15.013Z</time></trkpt><trkpt lat="40.41200855131272" lon="17.764505251281143"><ele>63.0</ele><time>2026-04-21T17:54:16.013Z</time></trkpt><trkpt lat="40.41203542773396" lon="17.764777657841982"><ele>63.0</ele><time>2026-04-21T17:54:17.013Z</time></trkpt><trkpt lat="40.412061816309844" lon="17.765051455314747"><ele>63.0</ele><time>2026-04-21T17:54:18.013Z</time></trkpt><trkpt lat="40.412084880467205" lon="17.765324181070934"><ele>63.0</ele><time>2026-04-21T17:54:19.013Z</time></trkpt><trkpt lat="40.41210795855301" lon="17.765595039936034"><ele>63.0</ele><time>2026-04-21T17:54:20.013Z</time></trkpt><trkpt lat="40.41212947784024" lon="17.765865960481644"><ele>63.0</ele><time>2026-04-21T17:54:21.013Z</time></trkpt><trkpt lat="40.412151507763596" lon="17.766138219098153"><ele>63.0</ele><time>2026-04-21T17:54:22.013Z</time></trkpt><trkpt lat="40.41217416726019" lon="17.76640991596428"><ele>63.0</ele><time>2026-04-21T17:54:23.013Z</time></trkpt><trkpt lat="40.41219807779136" lon="17.766680948043202"><ele>63.0</ele><time>2026-04-21T17:54:24.013Z</time></trkpt><trkpt lat="40.412223974536694" lon="17.766950152002178"><ele>63.0</ele><time>2026-04-21T17:54:25.013Z</time></trkpt><trkpt lat="40.412248490194415" lon="17.767222954706277"><ele>63.0</ele><time>2026-04-21T17:54:26.013Z</time></trkpt><trkpt lat="40.41227241462851" lon="17.76749360375827"><ele>63.0</ele><time>2026-04-21T17:54:27.013Z</time></trkpt><trkpt lat="40.41229616060323" lon="17.767766032225428"><ele>63.0</ele><time>2026-04-21T17:54:28.013Z</time></trkpt><trkpt lat="40.412322069620096" lon="17.76803855292597"><ele>63.66666666666667</ele><time>2026-04-21T17:54:29.013Z</time></trkpt><trkpt lat="40.41234967282318" lon="17.76830710098634"><ele>64.33333333333334</ele><time>2026-04-21T17:54:30.013Z</time></trkpt><trkpt lat="40.41237245188051" lon="17.768580414250923"><ele>65.0</ele><time>2026-04-21T17:54:31.013Z</time></trkpt><trkpt lat="40.412394917529504" lon="17.768854557464216"><ele>65.0</ele><time>2026-04-21T17:54:32.013Z</time></trkpt><trkpt lat="40.412417161227744" lon="17.769124386525448"><ele>65.0</ele><time>2026-04-21T17:54:33.013Z</time></trkpt><trkpt lat="40.41244338064489" lon="17.769396791377062"><ele>65.0</ele><time>2026-04-21T17:54:34.013Z</time></trkpt><trkpt lat="40.41246813318648" lon="17.769670973300276"><ele>64.66666666666667</ele><time>2026-04-21T17:54:35.013Z</time></trkpt><trkpt lat="40.412492643897" lon="17.76994288952758"><ele>64.33333333333333</ele><time>2026-04-21T17:54:36.013Z</time></trkpt><trkpt lat="40.412513844063966" lon="17.770217530891667"><ele>64.0</ele><time>2026-04-21T17:54:37.015Z</time></trkpt><trkpt lat="40.412537062588335" lon="17.770487402678523"><ele>64.0</ele><time>2026-04-21T17:54:38.014Z</time></trkpt><trkpt lat="40.41256454689555" lon="17.770758755529044"><ele>64.0</ele><time>2026-04-21T17:54:39.014Z</time></trkpt><trkpt lat="40.412590468779506" lon="17.771029881815902"><ele>64.0</ele><time>2026-04-21T17:54:40.015Z</time></trkpt><trkpt lat="40.4126155364945" lon="17.771300858705523"><ele>64.0</ele><time>2026-04-21T17:54:41.015Z</time></trkpt><trkpt lat="40.412642526907085" lon="17.771572239783303"><ele>64.0</ele><time>2026-04-21T17:54:42.015Z</time></trkpt><trkpt lat="40.41266522481296" lon="17.771842876608826"><ele>64.0</ele><time>2026-04-21T17:54:43.015Z</time></trkpt><trkpt lat="40.41269235268408" lon="17.772113125963966"><ele>64.0</ele><time>2026-04-21T17:54:44.014Z</time></trkpt><trkpt lat="40.41271684253934" lon="17.77238549251574"><ele>64.0</ele><time>2026-04-21T17:54:45.014Z</time></trkpt><trkpt lat="40.41274026053555" lon="17.772658116231785"><ele>64.0</ele><time>2026-04-21T17:54:46.015Z</time></trkpt><trkpt lat="40.41276399783563" lon="17.772931061673606"><ele>63.666666666666664</ele><time>2026-04-21T17:54:47.014Z</time></trkpt><trkpt lat="40.412787376331586" lon="17.773200060811416"><ele>63.33333333333333</ele><time>2026-04-21T17:54:48.014Z</time></trkpt><trkpt lat="40.412812250120304" lon="17.773472766859594"><ele>63.0</ele><time>2026-04-21T17:54:49.015Z</time></trkpt><trkpt lat="40.41283494157588" lon="17.773745667591527"><ele>63.0</ele><time>2026-04-21T17:54:50.015Z</time></trkpt><trkpt lat="40.41285616208384" lon="17.774019103502752"><ele>63.0</ele><time>2026-04-21T17:54:51.015Z</time></trkpt><trkpt lat="40.41288028361886" lon="17.774290544404074"><ele>63.0</ele><time>2026-04-21T17:54:52.015Z</time></trkpt><trkpt lat="40.412906267460514" lon="17.77456211469573"><ele>62.66666666666667</ele><time>2026-04-21T17:54:53.015Z</time></trkpt><trkpt lat="40.412931219477166" lon="17.77483336658044"><ele>62.333333333333336</ele><time>2026-04-21T17:54:54.015Z</time></trkpt><trkpt lat="40.412956780926315" lon="17.77510283444807"><ele>62.0</ele><time>2026-04-21T17:54:55.015Z</time></trkpt><trkpt lat="40.412983131638136" lon="17.77537278447847"><ele>62.0</ele><time>2026-04-21T17:54:56.015Z</time></trkpt><trkpt lat="40.4130046330301" lon="17.775642766675727"><ele>62.0</ele><time>2026-04-21T17:54:57.015Z</time></trkpt><trkpt lat="40.41303691051944" lon="17.775919875496015"><ele>62.0</ele><time>2026-04-21T17:54:58.015Z</time></trkpt><trkpt lat="40.413049640000814" lon="17.77618946028092"><ele>63.0</ele><time>2026-04-21T17:54:59.015Z</time></trkpt><trkpt lat="40.41306674504762" lon="17.776456855299298"><ele>64.0</ele><time>2026-04-21T17:55:00.015Z</time></trkpt><trkpt lat="40.41306486056821" lon="17.77672046381543"><ele>65.0</ele><time>2026-04-21T17:55:01.015Z</time></trkpt><trkpt lat="40.41312112719669" lon="17.77699918266572"><ele>65.0</ele><time>2026-04-21T17:55:02.015Z</time></trkpt><trkpt lat="40.413164819241636" lon="17.77727007209124"><ele>65.0</ele><time>2026-04-21T17:55:03.015Z</time></trkpt><trkpt lat="40.41322210695654" lon="17.777544084350602"><ele>65.0</ele><time>2026-04-21T17:55:04.015Z</time></trkpt><trkpt lat="40.41325561797514" lon="17.777821373323345"><ele>64.66666666666667</ele><time>2026-04-21T17:55:05.015Z</time></trkpt><trkpt lat="40.413266346118924" lon="17.7780956715147"><ele>64.33333333333333</ele><time>2026-04-21T17:55:06.015Z</time></trkpt><trkpt lat="40.41325005387102" lon="17.77837423198014"><ele>64.0</ele><time>2026-04-21T17:55:07.015Z</time></trkpt><trkpt lat="40.41326262740441" lon="17.778639883510092"><ele>63.666666666666664</ele><time>2026-04-21T17:55:08.015Z</time></trkpt><trkpt lat="40.41329307408314" lon="17.778906138929997"><ele>63.33333333333333</ele><time>2026-04-21T17:55:09.015Z</time></trkpt><trkpt lat="40.41331391591133" lon="17.77917974328418"><ele>63.0</ele><time>2026-04-21T17:55:10.015Z</time></trkpt><trkpt lat="40.413337016097465" lon="17.779451079321408"><ele>62.66666666666667</ele><time>2026-04-21T17:55:11.015Z</time></trkpt><trkpt lat="40.41336011230531" lon="17.779720947272267"><ele>62.333333333333336</ele><time>2026-04-21T17:55:12.015Z</time></trkpt><trkpt lat="40.41338344447167" lon="17.779989021360773"><ele>62.0</ele><time>2026-04-21T17:55:13.015Z</time></trkpt><trkpt lat="40.41340765294305" lon="17.78025996052897"><ele>62.0</ele><time>2026-04-21T17:55:14.015Z</time></trkpt><trkpt lat="40.41343197566892" lon="17.78053372158827"><ele>62.0</ele><time>2026-04-21T17:55:15.015Z</time></trkpt><trkpt lat="40.413456721077026" lon="17.780803145454467"><ele>62.0</ele><time>2026-04-21T17:55:16.015Z</time></trkpt><trkpt lat="40.41348292972185" lon="17.78107511719383"><ele>61.66666666666667</ele><time>2026-04-21T17:55:17.015Z</time></trkpt><trkpt lat="40.41350328539634" lon="17.781350417813407"><ele>61.33333333333333</ele><time>2026-04-21T17:55:18.015Z</time></trkpt><trkpt lat="40.413527751093945" lon="17.78162237611573"><ele>61.0</ele><time>2026-04-21T17:55:19.015Z</time></trkpt><trkpt lat="40.41355388134785" lon="17.7818944293905"><ele>61.0</ele><time>2026-04-21T17:55:20.015Z</time></trkpt><trkpt lat="40.41358163608444" lon="17.782165554967264"><ele>61.0</ele><time>2026-04-21T17:55:21.015Z</time></trkpt><trkpt lat="40.41360828925091" lon="17.782439987062546"><ele>61.0</ele><time>2026-04-21T17:55:22.015Z</time></trkpt><trkpt lat="40.413628965181985" lon="17.7827097951282"><ele>61.0</ele><time>2026-04-21T17:55:23.015Z</time></trkpt><trkpt lat="40.413654465742106" lon="17.782980579258272"><ele>61.0</ele><time>2026-04-21T17:55:24.015Z</time></trkpt><trkpt lat="40.41367782572849" lon="17.783252755496772"><ele>61.0</ele><time>2026-04-21T17:55:25.015Z</time></trkpt><trkpt lat="40.413698703383325" lon="17.783528234256273"><ele>61.0</ele><time>2026-04-21T17:55:26.015Z</time></trkpt><trkpt lat="40.41372138324116" lon="17.783797522739512"><ele>61.0</ele><time>2026-04-21T17:55:27.015Z</time></trkpt><trkpt lat="40.4137436029104" lon="17.784068403748982"><ele>61.0</ele><time>2026-04-21T17:55:28.015Z</time></trkpt><trkpt lat="40.41376926207635" lon="17.78433889592639"><ele>61.33333333333333</ele><time>2026-04-21T17:55:29.015Z</time></trkpt><trkpt lat="40.413793542786856" lon="17.784610515495963"><ele>61.66666666666667</ele><time>2026-04-21T17:55:30.015Z</time></trkpt><trkpt lat="40.413813964732235" lon="17.78488168397197"><ele>62.0</ele><time>2026-04-21T17:55:31.015Z</time></trkpt><trkpt lat="40.4138353399652" lon="17.785155119699695"><ele>62.333333333333336</ele><time>2026-04-21T17:55:32.015Z</time></trkpt><trkpt lat="40.413857708709024" lon="17.785424110233627"><ele>62.66666666666667</ele><time>2026-04-21T17:55:33.015Z</time></trkpt><trkpt lat="40.413879517865965" lon="17.78569493062239"><ele>63.0</ele><time>2026-04-21T17:55:34.015Z</time></trkpt><trkpt lat="40.41390141822051" lon="17.785968901807145"><ele>62.33333333333333</ele><time>2026-04-21T17:55:35.015Z</time></trkpt><trkpt lat="40.41392470436799" lon="17.786240458757383"><ele>61.666666666666664</ele><time>2026-04-21T17:55:36.015Z</time></trkpt><trkpt lat="40.41394917713117" lon="17.7865108826832"><ele>61.0</ele><time>2026-04-21T17:55:37.015Z</time></trkpt><trkpt lat="40.41397093557475" lon="17.78678441162947"><ele>60.666666666666664</ele><time>2026-04-21T17:55:38.015Z</time></trkpt><trkpt lat="40.41399401159468" lon="17.787056437619444"><ele>60.33333333333333</ele><time>2026-04-21T17:55:39.015Z</time></trkpt><trkpt lat="40.41401998816745" lon="17.787327606595664"><ele>60.0</ele><time>2026-04-21T17:55:40.015Z</time></trkpt><trkpt lat="40.4140459268875" lon="17.78760251953235"><ele>60.33333333333333</ele><time>2026-04-21T17:55:41.015Z</time></trkpt><trkpt lat="40.41407476986057" lon="17.78787298449194"><ele>60.666666666666664</ele><time>2026-04-21T17:55:42.015Z</time></trkpt><trkpt lat="40.41409827022142" lon="17.78814482741403"><ele>61.0</ele><time>2026-04-21T17:55:43.015Z</time></trkpt><trkpt lat="40.41412104851612" lon="17.78841849258035"><ele>61.0</ele><time>2026-04-21T17:55:44.015Z</time></trkpt><trkpt lat="40.41414183807839" lon="17.788689602426594"><ele>61.0</ele><time>2026-04-21T17:55:45.015Z</time></trkpt><trkpt lat="40.41416462452791" lon="17.788961523955834"><ele>61.0</ele><time>2026-04-21T17:55:46.015Z</time></trkpt><trkpt lat="40.41418926685913" lon="17.78923447710857"><ele>60.666666666666664</ele><time>2026-04-21T17:55:47.015Z</time></trkpt><trkpt lat="40.4142119702794" lon="17.789507496724614"><ele>60.33333333333333</ele><time>2026-04-21T17:55:48.015Z</time></trkpt><trkpt lat="40.41423627194795" lon="17.78978071937632"><ele>60.0</ele><time>2026-04-21T17:55:49.015Z</time></trkpt><trkpt lat="40.414262290568054" lon="17.79005172015849"><ele>59.66666666666667</ele><time>2026-04-21T17:55:50.015Z</time></trkpt><trkpt lat="40.41428637579034" lon="17.790322014957454"><ele>59.333333333333336</ele><time>2026-04-21T17:55:51.015Z</time></trkpt><trkpt lat="40.41431200096478" lon="17.790593614787557"><ele>59.0</ele><time>2026-04-21T17:55:52.015Z</time></trkpt><trkpt lat="40.414333424007474" lon="17.790869931720145"><ele>59.0</ele><time>2026-04-21T17:55:53.015Z</time></trkpt><trkpt lat="40.41435748345332" lon="17.79114370959786"><ele>59.0</ele><time>2026-04-21T17:55:54.015Z</time></trkpt><trkpt lat="40.4143796109515" lon="17.791414579440016"><ele>59.0</ele><time>2026-04-21T17:55:55.015Z</time></trkpt><trkpt lat="40.414401775699616" lon="17.79168535645369"><ele>59.333333333333336</ele><time>2026-04-21T17:55:56.015Z</time></trkpt><trkpt lat="40.41442587482731" lon="17.791956115226697"><ele>59.66666666666667</ele><time>2026-04-21T17:55:57.015Z</time></trkpt><trkpt lat="40.414448589393494" lon="17.792227817159187"><ele>60.0</ele><time>2026-04-21T17:55:58.015Z</time></trkpt><trkpt lat="40.41446162331774" lon="17.792512375095345"><ele>59.33333333333333</ele><time>2026-04-21T17:55:59.015Z</time></trkpt><trkpt lat="40.41450480700807" lon="17.792769759418793"><ele>58.666666666666664</ele><time>2026-04-21T17:56:00.015Z</time></trkpt><trkpt lat="40.41454571823597" lon="17.793029695215896"><ele>58.0</ele><time>2026-04-21T17:56:01.015Z</time></trkpt><trkpt lat="40.414574158924204" lon="17.7932870312792"><ele>58.33333333333333</ele><time>2026-04-21T17:56:02.015Z</time></trkpt><trkpt lat="40.41457773807482" lon="17.793573591436544"><ele>58.66666666666667</ele><time>2026-04-21T17:56:03.015Z</time></trkpt><trkpt lat="40.41460357081933" lon="17.79384730608914"><ele>59.0</ele><time>2026-04-21T17:56:04.015Z</time></trkpt><trkpt lat="40.4146251825879" lon="17.794123091189"><ele>59.0</ele><time>2026-04-21T17:56:05.015Z</time></trkpt><trkpt lat="40.414643201899516" lon="17.79439952125272"><ele>59.0</ele><time>2026-04-21T17:56:06.015Z</time></trkpt><trkpt lat="40.41465003667494" lon="17.79468102451477"><ele>59.0</ele><time>2026-04-21T17:56:07.015Z</time></trkpt><trkpt lat="40.414663464536574" lon="17.794960321465105"><ele>59.0</ele><time>2026-04-21T17:56:08.015Z</time></trkpt><trkpt lat="40.41468084080416" lon="17.795253213374416"><ele>59.0</ele><time>2026-04-21T17:56:09.015Z</time></trkpt><trkpt lat="40.41473471406176" lon="17.795504496768555"><ele>59.0</ele><time>2026-04-21T17:56:10.015Z</time></trkpt><trkpt lat="40.414778549693" lon="17.79575126977245"><ele>59.0</ele><time>2026-04-21T17:56:11.015Z</time></trkpt><trkpt lat="40.41482636437712" lon="17.79599074290972"><ele>59.0</ele><time>2026-04-21T17:56:12.015Z</time></trkpt><trkpt lat="40.41484979789917" lon="17.79626987246589"><ele>59.0</ele><time>2026-04-21T17:56:13.015Z</time></trkpt><trkpt lat="40.414852117434975" lon="17.796559060931383"><ele>59.0</ele><time>2026-04-21T17:56:14.015Z</time></trkpt><trkpt lat="40.41486871093031" lon="17.796830974777695"><ele>59.0</ele><time>2026-04-21T17:56:15.015Z</time></trkpt><trkpt lat="40.41489976469975" lon="17.797098932576677"><ele>59.0</ele><time>2026-04-21T17:56:16.015Z</time></trkpt><trkpt lat="40.41494510142469" lon="17.797342586695855"><ele>58.333333333333336</ele><time>2026-04-21T17:56:17.015Z</time></trkpt><trkpt lat="40.41500439378996" lon="17.797567060606312"><ele>57.66666666666667</ele><time>2026-04-21T17:56:18.015Z</time></trkpt><trkpt lat="40.41504401288699" lon="17.79780647987886"><ele>57.0</ele><time>2026-04-21T17:56:19.015Z</time></trkpt><trkpt lat="40.415048350554386" lon="17.798088092708173"><ele>56.5</ele><time>2026-04-21T17:56:20.015Z</time></trkpt><trkpt lat="40.41497265686955" lon="17.798475759470975"><ele>56.0</ele><time>2026-04-21T17:56:21.015Z</time></trkpt><trkpt lat="40.41497637495815" lon="17.79874946700588"><ele>56.0</ele><time>2026-04-21T17:56:22.015Z</time></trkpt><trkpt lat="40.41497331609664" lon="17.79902127755301"><ele>56.0</ele><time>2026-04-21T17:56:23.015Z</time></trkpt><trkpt lat="40.41497045910716" lon="17.79929458332462"><ele>56.0</ele><time>2026-04-21T17:56:24.015Z</time></trkpt><trkpt lat="40.41495614276897" lon="17.79956965692543"><ele>55.333333333333336</ele><time>2026-04-21T17:56:25.015Z</time></trkpt><trkpt lat="40.41494172038829" lon="17.79983837997159"><ele>54.66666666666667</ele><time>2026-04-21T17:56:26.015Z</time></trkpt><trkpt lat="40.414920701423014" lon="17.80010891063626"><ele>54.0</ele><time>2026-04-21T17:56:27.015Z</time></trkpt><trkpt lat="40.41489619263853" lon="17.800378111692577"><ele>54.0</ele><time>2026-04-21T17:56:28.015Z</time></trkpt><trkpt lat="40.41486448238005" lon="17.800649965171754"><ele>54.0</ele><time>2026-04-21T17:56:29.015Z</time></trkpt><trkpt lat="40.41482742263371" lon="17.80091932114157"><ele>54.0</ele><time>2026-04-21T17:56:30.015Z</time></trkpt><trkpt lat="40.414791726209494" lon="17.801187533925944"><ele>54.33333333333333</ele><time>2026-04-21T17:56:31.015Z</time></trkpt><trkpt lat="40.41475663213882" lon="17.801459373054506"><ele>54.666666666666664</ele><time>2026-04-21T17:56:32.015Z</time></trkpt><trkpt lat="40.41472296934839" lon="17.80173081228531"><ele>55.0</ele><time>2026-04-21T17:56:33.015Z</time></trkpt><trkpt lat="40.41469002952245" lon="17.802001488447317"><ele>55.0</ele><time>2026-04-21T17:56:34.015Z</time></trkpt><trkpt lat="40.4146556002673" lon="17.802270973955867"><ele>55.0</ele><time>2026-04-21T17:56:35.015Z</time></trkpt><trkpt lat="40.41462063298433" lon="17.802542031736547"><ele>55.0</ele><time>2026-04-21T17:56:36.015Z</time></trkpt><trkpt lat="40.41458554460177" lon="17.802812469929332"><ele>55.0</ele><time>2026-04-21T17:56:37.015Z</time></trkpt><trkpt lat="40.41455205998639" lon="17.80308223677056"><ele>55.0</ele><time>2026-04-21T17:56:38.015Z</time></trkpt><trkpt lat="40.41451924982678" lon="17.803349643045035"><ele>55.0</ele><time>2026-04-21T17:56:39.015Z</time></trkpt><trkpt lat="40.414483957202485" lon="17.803619526862402"><ele>54.666666666666664</ele><time>2026-04-21T17:56:40.015Z</time></trkpt><trkpt lat="40.41445157098739" lon="17.803890701703804"><ele>54.33333333333333</ele><time>2026-04-21T17:56:41.015Z</time></trkpt><trkpt lat="40.41441866582987" lon="17.804160477178144"><ele>54.0</ele><time>2026-04-21T17:56:42.015Z</time></trkpt><trkpt lat="40.41438413391973" lon="17.804429080071706"><ele>54.0</ele><time>2026-04-21T17:56:43.016Z</time></trkpt><trkpt lat="40.414330148202666" lon="17.804727889113668"><ele>54.0</ele><time>2026-04-21T17:56:44.016Z</time></trkpt><trkpt lat="40.41431183652268" lon="17.80498557260678"><ele>54.0</ele><time>2026-04-21T17:56:45.016Z</time></trkpt><trkpt lat="40.414288833263505" lon="17.80523019820339"><ele>54.0</ele><time>2026-04-21T17:56:46.016Z</time></trkpt><trkpt lat="40.414271534878736" lon="17.805479734004997"><ele>54.0</ele><time>2026-04-21T17:56:47.015Z</time></trkpt><trkpt lat="40.41425125967667" lon="17.80572078366108"><ele>54.0</ele><time>2026-04-21T17:56:48.015Z</time></trkpt><trkpt lat="40.414234974206984" lon="17.805964566500833"><ele>54.5</ele><time>2026-04-21T17:56:49.015Z</time></trkpt><trkpt lat="40.41422571430638" lon="17.806213662541314"><ele>55.0</ele><time>2026-04-21T17:56:50.016Z</time></trkpt><trkpt lat="40.414121025196636" lon="17.80659595741545"><ele>54.666666666666664</ele><time>2026-04-21T17:56:51.016Z</time></trkpt><trkpt lat="40.414087691942214" lon="17.80686685508155"><ele>54.33333333333333</ele><time>2026-04-21T17:56:52.015Z</time></trkpt><trkpt lat="40.41405447546538" lon="17.80713676065024"><ele>54.0</ele><time>2026-04-21T17:56:53.016Z</time></trkpt><trkpt lat="40.41402328843442" lon="17.807406098382817"><ele>53.66666666666667</ele><time>2026-04-21T17:56:54.016Z</time></trkpt><trkpt lat="40.41399176936297" lon="17.807676806404007"><ele>53.333333333333336</ele><time>2026-04-21T17:56:55.016Z</time></trkpt><trkpt lat="40.413960671025905" lon="17.807950821869014"><ele>53.0</ele><time>2026-04-21T17:56:56.015Z</time></trkpt><trkpt lat="40.41392451209101" lon="17.80821876160024"><ele>53.0</ele><time>2026-04-21T17:56:57.015Z</time></trkpt><trkpt lat="40.413891082548226" lon="17.808485064546286"><ele>53.0</ele><time>2026-04-21T17:56:58.015Z</time></trkpt><trkpt lat="40.413858114066514" lon="17.808753075028207"><ele>53.0</ele><time>2026-04-21T17:56:59.015Z</time></trkpt><trkpt lat="40.41382197698177" lon="17.80902476835665"><ele>52.66666666666667</ele><time>2026-04-21T17:57:00.015Z</time></trkpt><trkpt lat="40.41378752976383" lon="17.80929615770523"><ele>52.33333333333333</ele><time>2026-04-21T17:57:01.015Z</time></trkpt><trkpt lat="40.41375706997161" lon="17.809571001481903"><ele>52.0</ele><time>2026-04-21T17:57:02.015Z</time></trkpt><trkpt lat="40.413727203102816" lon="17.809839718522777"><ele>52.0</ele><time>2026-04-21T17:57:03.015Z</time></trkpt><trkpt lat="40.413698700609444" lon="17.810110193481297"><ele>52.0</ele><time>2026-04-21T17:57:04.015Z</time></trkpt><trkpt lat="40.4136664611458" lon="17.81037970868274"><ele>52.0</ele><time>2026-04-21T17:57:05.015Z</time></trkpt><trkpt lat="40.413634374321596" lon="17.810648533850454"><ele>52.33333333333333</ele><time>2026-04-21T17:57:06.015Z</time></trkpt><trkpt lat="40.4136053625467" lon="17.810916138907423"><ele>52.66666666666667</ele><time>2026-04-21T17:57:07.015Z</time></trkpt><trkpt lat="40.41357630083099" lon="17.81118365217302"><ele>53.0</ele><time>2026-04-21T17:57:08.015Z</time></trkpt><trkpt lat="40.41354160702408" lon="17.81145476338628"><ele>53.0</ele><time>2026-04-21T17:57:09.015Z</time></trkpt><trkpt lat="40.413509899864785" lon="17.81172516003265"><ele>53.0</ele><time>2026-04-21T17:57:10.015Z</time></trkpt><trkpt lat="40.413475522041146" lon="17.811993253063125"><ele>53.0</ele><time>2026-04-21T17:57:11.015Z</time></trkpt><trkpt lat="40.4134404681167" lon="17.812266492012675"><ele>53.0</ele><time>2026-04-21T17:57:12.015Z</time></trkpt><trkpt lat="40.413409689665144" lon="17.81253572050831"><ele>53.0</ele><time>2026-04-21T17:57:13.015Z</time></trkpt><trkpt lat="40.4133761491171" lon="17.812803995185586"><ele>53.0</ele><time>2026-04-21T17:57:14.015Z</time></trkpt><trkpt lat="40.413353549858265" lon="17.813053598330722"><ele>52.66666666666667</ele><time>2026-04-21T17:57:15.015Z</time></trkpt><trkpt lat="40.413325126571245" lon="17.81331240835359"><ele>52.33333333333333</ele><time>2026-04-21T17:57:16.015Z</time></trkpt><trkpt lat="40.41329006751328" lon="17.813584343259226"><ele>52.0</ele><time>2026-04-21T17:57:17.015Z</time></trkpt><trkpt lat="40.41325355856509" lon="17.813861724031632"><ele>52.0</ele><time>2026-04-21T17:57:18.015Z</time></trkpt><trkpt lat="40.413221019819446" lon="17.81413533835411"><ele>52.0</ele><time>2026-04-21T17:57:19.015Z</time></trkpt><trkpt lat="40.41318587573257" lon="17.814409407391054"><ele>52.0</ele><time>2026-04-21T17:57:20.015Z</time></trkpt><trkpt lat="40.413136591690275" lon="17.814690178056324"><ele>52.0</ele><time>2026-04-21T17:57:21.015Z</time></trkpt><trkpt lat="40.41308838811362" lon="17.814966686194783"><ele>52.0</ele><time>2026-04-21T17:57:22.015Z</time></trkpt><trkpt lat="40.41303614777366" lon="17.81523864778112"><ele>52.0</ele><time>2026-04-21T17:57:23.015Z</time></trkpt><trkpt lat="40.412976296597094" lon="17.81551335962875"><ele>52.0</ele><time>2026-04-21T17:57:24.015Z</time></trkpt><trkpt lat="40.412908703147224" lon="17.815786276660432"><ele>52.0</ele><time>2026-04-21T17:57:25.015Z</time></trkpt><trkpt lat="40.41285002429833" lon="17.816052318556682"><ele>52.0</ele><time>2026-04-21T17:57:26.015Z</time></trkpt><trkpt lat="40.41281699670066" lon="17.81629499115497"><ele>52.33333333333333</ele><time>2026-04-21T17:57:27.015Z</time></trkpt><trkpt lat="40.412787844566395" lon="17.816529267283066"><ele>52.66666666666667</ele><time>2026-04-21T17:57:28.015Z</time></trkpt><trkpt lat="40.41274365228143" lon="17.816769806311054"><ele>53.0</ele><time>2026-04-21T17:57:29.015Z</time></trkpt><trkpt lat="40.41271125347572" lon="17.816997116376264"><ele>53.0</ele><time>2026-04-21T17:57:30.015Z</time></trkpt><trkpt lat="40.41261481000822" lon="17.817256658922826"><ele>53.0</ele><time>2026-04-21T17:57:31.015Z</time></trkpt><trkpt lat="40.41249735490109" lon="17.817580438734375"><ele>53.0</ele><time>2026-04-21T17:57:32.015Z</time></trkpt><trkpt lat="40.41241423856049" lon="17.817837111668776"><ele>53.0</ele><time>2026-04-21T17:57:33.015Z</time></trkpt><trkpt lat="40.41233417116722" lon="17.818086199207755"><ele>53.0</ele><time>2026-04-21T17:57:34.015Z</time></trkpt><trkpt lat="40.412257636235076" lon="17.818341929874496"><ele>53.0</ele><time>2026-04-21T17:57:35.015Z</time></trkpt><trkpt lat="40.412184309916924" lon="17.81859529065522"><ele>53.0</ele><time>2026-04-21T17:57:36.015Z</time></trkpt><trkpt lat="40.4120980955577" lon="17.818851666978823"><ele>53.0</ele><time>2026-04-21T17:57:37.015Z</time></trkpt><trkpt lat="40.41200211568109" lon="17.819104047909878"><ele>53.333333333333336</ele><time>2026-04-21T17:57:38.015Z</time></trkpt><trkpt lat="40.41190393788389" lon="17.819360939835505"><ele>53.66666666666667</ele><time>2026-04-21T17:57:39.015Z</time></trkpt><trkpt lat="40.41181616380834" lon="17.81961854224125"><ele>54.0</ele><time>2026-04-21T17:57:40.015Z</time></trkpt><trkpt lat="40.41171429165855" lon="17.81987581276979"><ele>54.0</ele><time>2026-04-21T17:57:41.015Z</time></trkpt><trkpt lat="40.41164793116868" lon="17.820133932229382"><ele>54.0</ele><time>2026-04-21T17:57:42.015Z</time></trkpt><trkpt lat="40.411514902416236" lon="17.820409445146144"><ele>54.33333333333333</ele><time>2026-04-21T17:57:43.015Z</time></trkpt><trkpt lat="40.41153944666943" lon="17.82063131907506"><ele>54.666666666666664</ele><time>2026-04-21T17:57:44.015Z</time></trkpt><trkpt lat="40.41146176507815" lon="17.82088288814396"><ele>55.0</ele><time>2026-04-21T17:57:45.015Z</time></trkpt><trkpt lat="40.41138344633005" lon="17.821136085054807"><ele>55.0</ele><time>2026-04-21T17:57:46.015Z</time></trkpt><trkpt lat="40.41130224952119" lon="17.82139358313245"><ele>55.0</ele><time>2026-04-21T17:57:47.015Z</time></trkpt><trkpt lat="40.41122561657096" lon="17.821645315863755"><ele>55.0</ele><time>2026-04-21T17:57:48.015Z</time></trkpt><trkpt lat="40.411146009677154" lon="17.82189494035648"><ele>55.0</ele><time>2026-04-21T17:57:49.015Z</time></trkpt><trkpt lat="40.41106619213616" lon="17.82214544954194"><ele>55.0</ele><time>2026-04-21T17:57:50.015Z</time></trkpt><trkpt lat="40.410986087280996" lon="17.82239679597775"><ele>55.0</ele><time>2026-04-21T17:57:51.015Z</time></trkpt><trkpt lat="40.41089762322286" lon="17.82264312975031"><ele>55.33333333333333</ele><time>2026-04-21T17:57:52.015Z</time></trkpt><trkpt lat="40.41081040140979" lon="17.822892998931003"><ele>55.66666666666667</ele><time>2026-04-21T17:57:53.015Z</time></trkpt><trkpt lat="40.410715468445225" lon="17.823137792672053"><ele>56.0</ele><time>2026-04-21T17:57:54.015Z</time></trkpt><trkpt lat="40.41061727646087" lon="17.823382177993984"><ele>55.66666666666667</ele><time>2026-04-21T17:57:55.015Z</time></trkpt><trkpt lat="40.4105184054202" lon="17.823624732617315"><ele>55.33333333333333</ele><time>2026-04-21T17:57:56.015Z</time></trkpt><trkpt lat="40.41041659834998" lon="17.823863092892754"><ele>55.0</ele><time>2026-04-21T17:57:57.015Z</time></trkpt><trkpt lat="40.410312208183036" lon="17.824100999548108"><ele>56.0</ele><time>2026-04-21T17:57:58.015Z</time></trkpt><trkpt lat="40.41020280199254" lon="17.8243336778517"><ele>57.0</ele><time>2026-04-21T17:57:59.015Z</time></trkpt><trkpt lat="40.41009353422043" lon="17.82456377333802"><ele>58.0</ele><time>2026-04-21T17:58:00.015Z</time></trkpt><trkpt lat="40.40998119118007" lon="17.82479560555861"><ele>58.0</ele><time>2026-04-21T17:58:01.015Z</time></trkpt><trkpt lat="40.409869003614794" lon="17.82502683257134"><ele>58.0</ele><time>2026-04-21T17:58:02.015Z</time></trkpt><trkpt lat="40.409759310370326" lon="17.825257728587033"><ele>58.0</ele><time>2026-04-21T17:58:03.015Z</time></trkpt><trkpt lat="40.4096483173139" lon="17.82549103885124"><ele>58.33333333333333</ele><time>2026-04-21T17:58:04.015Z</time></trkpt><trkpt lat="40.409537819185104" lon="17.825724717734772"><ele>58.66666666666667</ele><time>2026-04-21T17:58:05.015Z</time></trkpt><trkpt lat="40.40942133248085" lon="17.82595191630504"><ele>59.0</ele><time>2026-04-21T17:58:06.015Z</time></trkpt><trkpt lat="40.409297872728054" lon="17.826185895982288"><ele>59.0</ele><time>2026-04-21T17:58:07.015Z</time></trkpt><trkpt lat="40.40917808913648" lon="17.826424959713346"><ele>59.0</ele><time>2026-04-21T17:58:08.015Z</time></trkpt><trkpt lat="40.40907136779762" lon="17.82665876784519"><ele>59.0</ele><time>2026-04-21T17:58:09.015Z</time></trkpt><trkpt lat="40.40897322489954" lon="17.82688490278907"><ele>58.66666666666667</ele><time>2026-04-21T17:58:10.015Z</time></trkpt><trkpt lat="40.40887764482635" lon="17.82711199649938"><ele>58.33333333333333</ele><time>2026-04-21T17:58:11.015Z</time></trkpt><trkpt lat="40.40878518531946" lon="17.827355461316632"><ele>58.0</ele><time>2026-04-21T17:58:12.015Z</time></trkpt><trkpt lat="40.40869466312296" lon="17.827609985208564"><ele>57.666666666666664</ele><time>2026-04-21T17:58:13.015Z</time></trkpt><trkpt lat="40.408605508049426" lon="17.827866640186663"><ele>57.33333333333333</ele><time>2026-04-21T17:58:14.015Z</time></trkpt><trkpt lat="40.408519797327266" lon="17.828129117750354"><ele>57.0</ele><time>2026-04-21T17:58:15.015Z</time></trkpt><trkpt lat="40.40843638744914" lon="17.828391100517077"><ele>57.33333333333333</ele><time>2026-04-21T17:58:16.015Z</time></trkpt><trkpt lat="40.40837115450477" lon="17.828634810288612"><ele>57.666666666666664</ele><time>2026-04-21T17:58:17.015Z</time></trkpt><trkpt lat="40.40830730323847" lon="17.828882444068586"><ele>58.0</ele><time>2026-04-21T17:58:18.015Z</time></trkpt><trkpt lat="40.40824853422142" lon="17.829128089858543"><ele>58.0</ele><time>2026-04-21T17:58:19.015Z</time></trkpt><trkpt lat="40.408217554103935" lon="17.829347272859835"><ele>58.0</ele><time>2026-04-21T17:58:20.015Z</time></trkpt><trkpt lat="40.40820073221597" lon="17.829559674507248"><ele>58.0</ele><time>2026-04-21T17:58:21.015Z</time></trkpt><trkpt lat="40.408166672832444" lon="17.82978710390851"><ele>58.0</ele><time>2026-04-21T17:58:22.015Z</time></trkpt><trkpt lat="40.40813269830181" lon="17.830038278862336"><ele>58.0</ele><time>2026-04-21T17:58:23.015Z</time></trkpt><trkpt lat="40.40800101440075" lon="17.83042097641142"><ele>58.5</ele><time>2026-04-21T17:58:24.015Z</time></trkpt><trkpt lat="40.407940673113934" lon="17.830707516040157"><ele>59.0</ele><time>2026-04-21T17:58:25.015Z</time></trkpt><trkpt lat="40.40787426097041" lon="17.831013854036605"><ele>60.0</ele><time>2026-04-21T17:58:26.015Z</time></trkpt><trkpt lat="40.40781538801879" lon="17.831308931135837"><ele>61.0</ele><time>2026-04-21T17:58:27.015Z</time></trkpt><trkpt lat="40.40778690969722" lon="17.8315832304941"><ele>62.0</ele><time>2026-04-21T17:58:28.015Z</time></trkpt><trkpt lat="40.407786317351594" lon="17.83185926569863"><ele>62.0</ele><time>2026-04-21T17:58:29.015Z</time></trkpt><trkpt lat="40.40779361948923" lon="17.832126140875257"><ele>62.0</ele><time>2026-04-21T17:58:30.015Z</time></trkpt><trkpt lat="40.40782789277489" lon="17.83236693425599"><ele>62.0</ele><time>2026-04-21T17:58:31.015Z</time></trkpt><trkpt lat="40.40782532437006" lon="17.832635185626092"><ele>61.66666666666667</ele><time>2026-04-21T17:58:32.015Z</time></trkpt><trkpt lat="40.40782230963034" lon="17.832906217407796"><ele>61.33333333333333</ele><time>2026-04-21T17:58:33.015Z</time></trkpt><trkpt lat="40.407828765743766" lon="17.833177775492043"><ele>61.0</ele><time>2026-04-21T17:58:34.015Z</time></trkpt><trkpt lat="40.4078367939545" lon="17.833452050160826"><ele>61.0</ele><time>2026-04-21T17:58:35.015Z</time></trkpt><trkpt lat="40.407846847189276" lon="17.83372768690568"><ele>61.0</ele><time>2026-04-21T17:58:36.015Z</time></trkpt><trkpt lat="40.40785765806054" lon="17.833999580044157"><ele>61.0</ele><time>2026-04-21T17:58:37.015Z</time></trkpt><trkpt lat="40.4078723326629" lon="17.834270509694132"><ele>61.0</ele><time>2026-04-21T17:58:38.015Z</time></trkpt><trkpt lat="40.40789760867384" lon="17.834531173980483"><ele>61.0</ele><time>2026-04-21T17:58:39.015Z</time></trkpt><trkpt lat="40.40792139944915" lon="17.834792249125112"><ele>61.0</ele><time>2026-04-21T17:58:40.015Z</time></trkpt><trkpt lat="40.40792178478019" lon="17.83508153125506"><ele>60.666666666666664</ele><time>2026-04-21T17:58:41.015Z</time></trkpt><trkpt lat="40.407936585767274" lon="17.83535740208876"><ele>60.33333333333333</ele><time>2026-04-21T17:58:42.015Z</time></trkpt><trkpt lat="40.40795170955069" lon="17.835631938697215"><ele>60.0</ele><time>2026-04-21T17:58:43.015Z</time></trkpt><trkpt lat="40.40796266872614" lon="17.835905360589464"><ele>60.0</ele><time>2026-04-21T17:58:44.015Z</time></trkpt><trkpt lat="40.4079687788531" lon="17.836186024025892"><ele>60.0</ele><time>2026-04-21T17:58:45.015Z</time></trkpt><trkpt lat="40.407973244819644" lon="17.83646372529458"><ele>60.0</ele><time>2026-04-21T17:58:46.015Z</time></trkpt><trkpt lat="40.407994276092154" lon="17.83673300202307"><ele>60.0</ele><time>2026-04-21T17:58:47.015Z</time></trkpt><trkpt lat="40.40801035467645" lon="17.837003315278718"><ele>60.0</ele><time>2026-04-21T17:58:48.015Z</time></trkpt><trkpt lat="40.408035031140415" lon="17.837269127519562"><ele>60.0</ele><time>2026-04-21T17:58:49.017Z</time></trkpt><trkpt lat="40.40806085815451" lon="17.83753622530941"><ele>59.66666666666667</ele><time>2026-04-21T17:58:50.016Z</time></trkpt><trkpt lat="40.40809738232702" lon="17.83778515727668"><ele>59.333333333333336</ele><time>2026-04-21T17:58:51.016Z</time></trkpt><trkpt lat="40.40814491264043" lon="17.838002362870874"><ele>59.0</ele><time>2026-04-21T17:58:52.016Z</time></trkpt><trkpt lat="40.408211200059675" lon="17.838205781042163"><ele>59.0</ele><time>2026-04-21T17:58:53.016Z</time></trkpt><trkpt lat="40.40826130270436" lon="17.838450165718232"><ele>59.0</ele><time>2026-04-21T17:58:54.016Z</time></trkpt><trkpt lat="40.408281105081784" lon="17.8387369932886"><ele>59.0</ele><time>2026-04-21T17:58:55.016Z</time></trkpt><trkpt lat="40.408134690170655" lon="17.839173121798993"><ele>59.0</ele><time>2026-04-21T17:58:56.016Z</time></trkpt><trkpt lat="40.408149427916065" lon="17.83944494641624"><ele>59.0</ele><time>2026-04-21T17:58:57.016Z</time></trkpt><trkpt lat="40.40816472457714" lon="17.839719057017792"><ele>59.0</ele><time>2026-04-21T17:58:58.016Z</time></trkpt><trkpt lat="40.408181957011244" lon="17.839993805007058"><ele>59.333333333333336</ele><time>2026-04-21T17:58:59.016Z</time></trkpt><trkpt lat="40.408198910591864" lon="17.84026941046359"><ele>59.66666666666667</ele><time>2026-04-21T17:59:00.016Z</time></trkpt><trkpt lat="40.40821800997118" lon="17.840541174828424"><ele>60.0</ele><time>2026-04-21T17:59:01.016Z</time></trkpt><trkpt lat="40.40823680575377" lon="17.84081273249499"><ele>60.0</ele><time>2026-04-21T17:59:02.017Z</time></trkpt><trkpt lat="40.40826231648402" lon="17.841084918446246"><ele>60.0</ele><time>2026-04-21T17:59:03.017Z</time></trkpt><trkpt lat="40.408286779900585" lon="17.841356250934986"><ele>60.0</ele><time>2026-04-21T17:59:04.017Z</time></trkpt><trkpt lat="40.40831524798034" lon="17.84162853493027"><ele>60.33333333333333</ele><time>2026-04-21T17:59:05.017Z</time></trkpt><trkpt lat="40.4083485997594" lon="17.841899581295323"><ele>60.666666666666664</ele><time>2026-04-21T17:59:06.017Z</time></trkpt><trkpt lat="40.40838230567955" lon="17.842170305440952"><ele>61.0</ele><time>2026-04-21T17:59:07.017Z</time></trkpt><trkpt lat="40.40841741855583" lon="17.842438717208086"><ele>61.0</ele><time>2026-04-21T17:59:08.017Z</time></trkpt><trkpt lat="40.40845631345758" lon="17.84271108151419"><ele>61.0</ele><time>2026-04-21T17:59:09.017Z</time></trkpt><trkpt lat="40.40849766012035" lon="17.84297829421372"><ele>61.0</ele><time>2026-04-21T17:59:10.017Z</time></trkpt><trkpt lat="40.4085412508724" lon="17.84324503223148"><ele>60.666666666666664</ele><time>2026-04-21T17:59:11.017Z</time></trkpt><trkpt lat="40.40858977742253" lon="17.84351359348593"><ele>60.33333333333333</ele><time>2026-04-21T17:59:12.017Z</time></trkpt><trkpt lat="40.40863904580143" lon="17.843781438574492"><ele>60.0</ele><time>2026-04-21T17:59:13.017Z</time></trkpt><trkpt lat="40.408692590991414" lon="17.844047396656148"><ele>60.0</ele><time>2026-04-21T17:59:14.017Z</time></trkpt><trkpt lat="40.408749095235144" lon="17.84431413020666"><ele>60.0</ele><time>2026-04-21T17:59:15.017Z</time></trkpt><trkpt lat="40.408810635677185" lon="17.844579181079688"><ele>60.0</ele><time>2026-04-21T17:59:16.017Z</time></trkpt><trkpt lat="40.40887355836072" lon="17.844842325564777"><ele>60.0</ele><time>2026-04-21T17:59:17.017Z</time></trkpt><trkpt lat="40.408937987686556" lon="17.845106313874297"><ele>60.0</ele><time>2026-04-21T17:59:18.017Z</time></trkpt><trkpt lat="40.40901237898629" lon="17.845370065898692"><ele>60.0</ele><time>2026-04-21T17:59:19.017Z</time></trkpt><trkpt lat="40.40907877641105" lon="17.845634031535013"><ele>60.0</ele><time>2026-04-21T17:59:20.017Z</time></trkpt><trkpt lat="40.409157642286154" lon="17.84588661087854"><ele>60.0</ele><time>2026-04-21T17:59:21.017Z</time></trkpt><trkpt lat="40.40924076224628" lon="17.84614396031335"><ele>60.0</ele><time>2026-04-21T17:59:22.017Z</time></trkpt><trkpt lat="40.409319330012686" lon="17.846411688978932"><ele>60.0</ele><time>2026-04-21T17:59:23.017Z</time></trkpt><trkpt lat="40.409405237184515" lon="17.846676359821632"><ele>60.0</ele><time>2026-04-21T17:59:24.017Z</time></trkpt><trkpt lat="40.40949566680531" lon="17.846939804035703"><ele>60.0</ele><time>2026-04-21T17:59:25.017Z</time></trkpt><trkpt lat="40.409588105561085" lon="17.847202020428895"><ele>60.0</ele><time>2026-04-21T17:59:26.017Z</time></trkpt><trkpt lat="40.40968067051887" lon="17.84746574695594"><ele>60.0</ele><time>2026-04-21T17:59:27.017Z</time></trkpt><trkpt lat="40.409779523013924" lon="17.847729142775854"><ele>60.0</ele><time>2026-04-21T17:59:28.017Z</time></trkpt><trkpt lat="40.40988158064766" lon="17.847985754816477"><ele>60.0</ele><time>2026-04-21T17:59:29.017Z</time></trkpt><trkpt lat="40.409986946102" lon="17.84823424209017"><ele>60.0</ele><time>2026-04-21T17:59:30.017Z</time></trkpt><trkpt lat="40.41009172399157" lon="17.848488759001693"><ele>60.0</ele><time>2026-04-21T17:59:31.017Z</time></trkpt><trkpt lat="40.41019930161966" lon="17.848742439789422"><ele>59.66666666666667</ele><time>2026-04-21T17:59:32.017Z</time></trkpt><trkpt lat="40.41030949737537" lon="17.848988712067907"><ele>59.333333333333336</ele><time>2026-04-21T17:59:33.017Z</time></trkpt><trkpt lat="40.41041997716182" lon="17.849241690668077"><ele>59.0</ele><time>2026-04-21T17:59:34.017Z</time></trkpt><trkpt lat="40.41053177873368" lon="17.84949496749379"><ele>59.0</ele><time>2026-04-21T17:59:35.017Z</time></trkpt><trkpt lat="40.41064211087909" lon="17.84974541189076"><ele>59.0</ele><time>2026-04-21T17:59:36.017Z</time></trkpt><trkpt lat="40.41075645534848" lon="17.849990578859853"><ele>59.0</ele><time>2026-04-21T17:59:37.017Z</time></trkpt><trkpt lat="40.41087038003897" lon="17.85023397632826"><ele>59.0</ele><time>2026-04-21T17:59:38.017Z</time></trkpt><trkpt lat="40.410988563459554" lon="17.85047975318794"><ele>59.0</ele><time>2026-04-21T17:59:39.017Z</time></trkpt><trkpt lat="40.411099026885545" lon="17.850725392742294"><ele>59.0</ele><time>2026-04-21T17:59:40.017Z</time></trkpt><trkpt lat="40.41121408793882" lon="17.85097470787728"><ele>58.66666666666667</ele><time>2026-04-21T17:59:41.017Z</time></trkpt><trkpt lat="40.41132982810156" lon="17.851223113803933"><ele>58.33333333333333</ele><time>2026-04-21T17:59:42.017Z</time></trkpt><trkpt lat="40.41144628236195" lon="17.851470600860765"><ele>58.0</ele><time>2026-04-21T17:59:43.017Z</time></trkpt><trkpt lat="40.411562308538265" lon="17.851717223191287"><ele>57.666666666666664</ele><time>2026-04-21T17:59:44.017Z</time></trkpt><trkpt lat="40.411674995060885" lon="17.851968648924082"><ele>57.33333333333333</ele><time>2026-04-21T17:59:45.017Z</time></trkpt><trkpt lat="40.41178867821779" lon="17.85221803763095"><ele>57.0</ele><time>2026-04-21T17:59:46.017Z</time></trkpt><trkpt lat="40.411903710318526" lon="17.852464717360697"><ele>57.0</ele><time>2026-04-21T17:59:47.017Z</time></trkpt><trkpt lat="40.41201782398138" lon="17.852712758722284"><ele>57.0</ele><time>2026-04-21T17:59:48.017Z</time></trkpt><trkpt lat="40.41213547162232" lon="17.85295712234525"><ele>57.0</ele><time>2026-04-21T17:59:49.017Z</time></trkpt><trkpt lat="40.412249769329236" lon="17.853204905242823"><ele>57.33333333333333</ele><time>2026-04-21T17:59:50.017Z</time></trkpt><trkpt lat="40.41236585356747" lon="17.853451910167234"><ele>57.666666666666664</ele><time>2026-04-21T17:59:51.017Z</time></trkpt><trkpt lat="40.412477446576766" lon="17.85369837171169"><ele>58.0</ele><time>2026-04-21T17:59:52.017Z</time></trkpt><trkpt lat="40.41258454653482" lon="17.853915126535465"><ele>57.33333333333333</ele><time>2026-04-21T17:59:53.017Z</time></trkpt><trkpt lat="40.41268398056507" lon="17.8541165117071"><ele>56.66666666666667</ele><time>2026-04-21T17:59:54.017Z</time></trkpt><trkpt lat="40.412777104945626" lon="17.854314104242498"><ele>56.0</ele><time>2026-04-21T17:59:55.017Z</time></trkpt><trkpt lat="40.412864690798784" lon="17.854508450322733"><ele>56.0</ele><time>2026-04-21T17:59:56.017Z</time></trkpt><trkpt lat="40.412957230518906" lon="17.85470771907498"><ele>56.0</ele><time>2026-04-21T17:59:57.017Z</time></trkpt><trkpt lat="40.41304863094037" lon="17.854906558154795"><ele>56.0</ele><time>2026-04-21T17:59:58.017Z</time></trkpt><trkpt lat="40.413134273790966" lon="17.85509190274373"><ele>56.0</ele><time>2026-04-21T17:59:59.017Z</time></trkpt><trkpt lat="40.413227163387226" lon="17.85526286664376"><ele>56.0</ele><time>2026-04-21T18:00:00.017Z</time></trkpt><trkpt lat="40.4133166572798" lon="17.85540620496743"><ele>56.0</ele><time>2026-04-21T18:00:01.017Z</time></trkpt><trkpt lat="40.41341615398008" lon="17.855518951034025"><ele>56.0</ele><time>2026-04-21T18:00:02.017Z</time></trkpt><trkpt lat="40.41352000264627" lon="17.85561275975007"><ele>56.0</ele><time>2026-04-21T18:00:03.017Z</time></trkpt><trkpt lat="40.413619118511576" lon="17.855688617322706"><ele>55.99999999999999</ele><time>2026-04-21T18:00:04.017Z</time></trkpt><trkpt lat="40.413715627686216" lon="17.85574552946667"><ele>55.99999999999999</ele><time>2026-04-21T18:00:05.017Z</time></trkpt><trkpt lat="40.4138124677832" lon="17.855788213739054"><ele>56.0</ele><time>2026-04-21T18:00:06.017Z</time></trkpt><trkpt lat="40.41390088850986" lon="17.855826193320308"><ele>56.0</ele><time>2026-04-21T18:00:07.017Z</time></trkpt><trkpt lat="40.41396377140006" lon="17.85587458547486"><ele>56.00000000000001</ele><time>2026-04-21T18:00:08.017Z</time></trkpt><trkpt lat="40.41400618931186" lon="17.855950863175924"><ele>56.0</ele><time>2026-04-21T18:00:09.017Z</time></trkpt><trkpt lat="40.41403507882699" lon="17.85605566842851"><ele>56.0</ele><time>2026-04-21T18:00:10.017Z</time></trkpt><trkpt lat="40.41405583879636" lon="17.856161160156056"><ele>56.0</ele><time>2026-04-21T18:00:11.017Z</time></trkpt><trkpt lat="40.41405962257735" lon="17.856268205803758"><ele>56.00000000000001</ele><time>2026-04-21T18:00:12.017Z</time></trkpt><trkpt lat="40.41402205337976" lon="17.856414010890678"><ele>56.0</ele><time>2026-04-21T18:00:13.017Z</time></trkpt><trkpt lat="40.4139743162352" lon="17.856585172442433"><ele>56.0</ele><time>2026-04-21T18:00:14.017Z</time></trkpt><trkpt lat="40.41392339977187" lon="17.85678688851376"><ele>56.0</ele><time>2026-04-21T18:00:15.017Z</time></trkpt><trkpt lat="40.41386878554878" lon="17.85699819779366"><ele>56.0</ele><time>2026-04-21T18:00:16.017Z</time></trkpt><trkpt lat="40.41381667647241" lon="17.857221186806687"><ele>56.0</ele><time>2026-04-21T18:00:17.017Z</time></trkpt><trkpt lat="40.41376214563745" lon="17.85745228205772"><ele>56.0</ele><time>2026-04-21T18:00:18.017Z</time></trkpt><trkpt lat="40.41370126198084" lon="17.857706162021998"><ele>56.0</ele><time>2026-04-21T18:00:19.017Z</time></trkpt><trkpt lat="40.413636463913896" lon="17.857970383328766"><ele>56.5</ele><time>2026-04-21T18:00:20.017Z</time></trkpt><trkpt lat="40.41356991868656" lon="17.85825611620568"><ele>57.0</ele><time>2026-04-21T18:00:21.017Z</time></trkpt><trkpt lat="40.4134997731397" lon="17.858542580615392"><ele>57.0</ele><time>2026-04-21T18:00:22.017Z</time></trkpt><trkpt lat="40.41342829460637" lon="17.858837151605226"><ele>57.0</ele><time>2026-04-21T18:00:23.017Z</time></trkpt><trkpt lat="40.41335397533298" lon="17.85913324949552"><ele>57.5</ele><time>2026-04-21T18:00:24.017Z</time></trkpt><trkpt lat="40.41328458710707" lon="17.85942101117078"><ele>58.0</ele><time>2026-04-21T18:00:25.017Z</time></trkpt><trkpt lat="40.41321602740475" lon="17.8597049419793"><ele>58.0</ele><time>2026-04-21T18:00:26.017Z</time></trkpt><trkpt lat="40.413148367013434" lon="17.859987834499147"><ele>58.0</ele><time>2026-04-21T18:00:27.017Z</time></trkpt><trkpt lat="40.41308106438294" lon="17.860263502388097"><ele>58.0</ele><time>2026-04-21T18:00:28.017Z</time></trkpt><trkpt lat="40.41301557127815" lon="17.86053948417972"><ele>57.666666666666664</ele><time>2026-04-21T18:00:29.017Z</time></trkpt><trkpt lat="40.41295208951718" lon="17.86081387713809"><ele>57.33333333333333</ele><time>2026-04-21T18:00:30.017Z</time></trkpt><trkpt lat="40.412885525961535" lon="17.861088060253284"><ele>57.0</ele><time>2026-04-21T18:00:31.017Z</time></trkpt><trkpt lat="40.41281991497774" lon="17.86136291061483"><ele>57.0</ele><time>2026-04-21T18:00:32.017Z</time></trkpt><trkpt lat="40.41275524611615" lon="17.861636195151753"><ele>57.0</ele><time>2026-04-21T18:00:33.017Z</time></trkpt><trkpt lat="40.41269285457929" lon="17.861902571017264"><ele>57.0</ele><time>2026-04-21T18:00:34.017Z</time></trkpt><trkpt lat="40.41262985822105" lon="17.862168550587"><ele>57.0</ele><time>2026-04-21T18:00:35.017Z</time></trkpt><trkpt lat="40.412566031046104" lon="17.86243546169661"><ele>57.0</ele><time>2026-04-21T18:00:36.017Z</time></trkpt><trkpt lat="40.41250057186281" lon="17.862698331690446"><ele>57.0</ele><time>2026-04-21T18:00:37.017Z</time></trkpt><trkpt lat="40.41243631217854" lon="17.862964886892918"><ele>56.33333333333333</ele><time>2026-04-21T18:00:38.017Z</time></trkpt><trkpt lat="40.41237286748327" lon="17.863232786491"><ele>55.666666666666664</ele><time>2026-04-21T18:00:39.017Z</time></trkpt><trkpt lat="40.41230649774454" lon="17.863498119882227"><ele>55.0</ele><time>2026-04-21T18:00:40.017Z</time></trkpt><trkpt lat="40.412243371314474" lon="17.863766243505637"><ele>54.666666666666664</ele><time>2026-04-21T18:00:41.017Z</time></trkpt><trkpt lat="40.41218092580905" lon="17.864033584793546"><ele>54.33333333333333</ele><time>2026-04-21T18:00:42.017Z</time></trkpt><trkpt lat="40.412118201128955" lon="17.86430344730066"><ele>54.0</ele><time>2026-04-21T18:00:43.017Z</time></trkpt><trkpt lat="40.41205596390933" lon="17.86457306124505"><ele>54.33333333333333</ele><time>2026-04-21T18:00:44.017Z</time></trkpt><trkpt lat="40.41199560314027" lon="17.86483635896992"><ele>54.666666666666664</ele><time>2026-04-21T18:00:45.017Z</time></trkpt><trkpt lat="40.41193182681678" lon="17.865103679374467"><ele>55.0</ele><time>2026-04-21T18:00:46.017Z</time></trkpt><trkpt lat="40.41186503153615" lon="17.86536856266016"><ele>55.0</ele><time>2026-04-21T18:00:47.017Z</time></trkpt><trkpt lat="40.41180457151033" lon="17.86563659856474"><ele>55.0</ele><time>2026-04-21T18:00:48.017Z</time></trkpt><trkpt lat="40.411741701443624" lon="17.865901493487677"><ele>55.0</ele><time>2026-04-21T18:00:49.017Z</time></trkpt><trkpt lat="40.41168313708402" lon="17.866168305580455"><ele>54.666666666666664</ele><time>2026-04-21T18:00:50.017Z</time></trkpt><trkpt lat="40.41162130498122" lon="17.86643691307548"><ele>54.33333333333333</ele><time>2026-04-21T18:00:51.017Z</time></trkpt><trkpt lat="40.41155954179056" lon="17.866704413842022"><ele>54.0</ele><time>2026-04-21T18:00:52.017Z</time></trkpt><trkpt lat="40.41149415913721" lon="17.866973814023847"><ele>54.0</ele><time>2026-04-21T18:00:53.017Z</time></trkpt><trkpt lat="40.41143392487103" lon="17.86724263514492"><ele>54.0</ele><time>2026-04-21T18:00:54.017Z</time></trkpt><trkpt lat="40.411370114669644" lon="17.867507024680638"><ele>54.0</ele><time>2026-04-21T18:00:55.017Z</time></trkpt><trkpt lat="40.41130432148421" lon="17.867777451266367"><ele>54.0</ele><time>2026-04-21T18:00:56.017Z</time></trkpt><trkpt lat="40.41124034496499" lon="17.868042936523185"><ele>54.0</ele><time>2026-04-21T18:00:57.017Z</time></trkpt><trkpt lat="40.41117800567135" lon="17.868311824489606"><ele>54.0</ele><time>2026-04-21T18:00:58.017Z</time></trkpt><trkpt lat="40.411113904227285" lon="17.86857727911525"><ele>54.0</ele><time>2026-04-21T18:00:59.017Z</time></trkpt><trkpt lat="40.41105344824097" lon="17.86884457212772"><ele>54.0</ele><time>2026-04-21T18:01:00.017Z</time></trkpt><trkpt lat="40.41098965740684" lon="17.869107990022933"><ele>54.0</ele><time>2026-04-21T18:01:01.018Z</time></trkpt><trkpt lat="40.41092655575744" lon="17.869375659226677"><ele>54.0</ele><time>2026-04-21T18:01:02.017Z</time></trkpt><trkpt lat="40.41086305163282" lon="17.86964581657455"><ele>54.0</ele><time>2026-04-21T18:01:03.017Z</time></trkpt><trkpt lat="40.41080113384474" lon="17.869912273500393"><ele>54.0</ele><time>2026-04-21T18:01:04.017Z</time></trkpt><trkpt lat="40.41073990936311" lon="17.870177877967407"><ele>54.33333333333333</ele><time>2026-04-21T18:01:05.017Z</time></trkpt><trkpt lat="40.410675025948755" lon="17.870441959637063"><ele>54.666666666666664</ele><time>2026-04-21T18:01:06.017Z</time></trkpt><trkpt lat="40.41061283929057" lon="17.87070952394567"><ele>55.0</ele><time>2026-04-21T18:01:07.017Z</time></trkpt><trkpt lat="40.41055073410735" lon="17.870978555127692"><ele>55.0</ele><time>2026-04-21T18:01:08.017Z</time></trkpt><trkpt lat="40.41048718098167" lon="17.871245640574298"><ele>55.0</ele><time>2026-04-21T18:01:09.017Z</time></trkpt><trkpt lat="40.410422829633205" lon="17.871509365575292"><ele>55.0</ele><time>2026-04-21T18:01:10.017Z</time></trkpt><trkpt lat="40.41035956386206" lon="17.871775971738586"><ele>55.0</ele><time>2026-04-21T18:01:11.017Z</time></trkpt><trkpt lat="40.410292265531815" lon="17.872046294538585"><ele>55.0</ele><time>2026-04-21T18:01:12.017Z</time></trkpt><trkpt lat="40.41022747744229" lon="17.87230941703344"><ele>55.0</ele><time>2026-04-21T18:01:13.017Z</time></trkpt><trkpt lat="40.41016201568528" lon="17.87257634873947"><ele>55.0</ele><time>2026-04-21T18:01:14.017Z</time></trkpt><trkpt lat="40.41009831913099" lon="17.872845388056387"><ele>55.0</ele><time>2026-04-21T18:01:15.017Z</time></trkpt><trkpt lat="40.41003657101139" lon="17.873111851729632"><ele>55.0</ele><time>2026-04-21T18:01:16.017Z</time></trkpt><trkpt lat="40.40997402982849" lon="17.873383032215706"><ele>54.666666666666664</ele><time>2026-04-21T18:01:17.017Z</time></trkpt><trkpt lat="40.409909222010825" lon="17.873650324112"><ele>54.33333333333333</ele><time>2026-04-21T18:01:18.017Z</time></trkpt><trkpt lat="40.409843086075256" lon="17.873919009036644"><ele>54.0</ele><time>2026-04-21T18:01:19.017Z</time></trkpt><trkpt lat="40.409781058834525" lon="17.874186571061866"><ele>54.33333333333333</ele><time>2026-04-21T18:01:20.017Z</time></trkpt><trkpt lat="40.409718264486294" lon="17.874448348885227"><ele>54.666666666666664</ele><time>2026-04-21T18:01:21.017Z</time></trkpt><trkpt lat="40.40965298652035" lon="17.87471395226092"><ele>55.0</ele><time>2026-04-21T18:01:22.017Z</time></trkpt><trkpt lat="40.409591430124905" lon="17.87498401562623"><ele>55.0</ele><time>2026-04-21T18:01:23.017Z</time></trkpt><trkpt lat="40.4095279606562" lon="17.875251145889607"><ele>55.0</ele><time>2026-04-21T18:01:24.017Z</time></trkpt><trkpt lat="40.409463875721684" lon="17.87551845970886"><ele>55.0</ele><time>2026-04-21T18:01:25.017Z</time></trkpt><trkpt lat="40.40939948478662" lon="17.87578281110939"><ele>55.33333333333333</ele><time>2026-04-21T18:01:26.017Z</time></trkpt><trkpt lat="40.40933691201916" lon="17.876049372459125"><ele>55.66666666666667</ele><time>2026-04-21T18:01:27.017Z</time></trkpt><trkpt lat="40.40927099121328" lon="17.876321188297805"><ele>56.0</ele><time>2026-04-21T18:01:28.017Z</time></trkpt><trkpt lat="40.40920698705675" lon="17.876588957966078"><ele>55.333333333333336</ele><time>2026-04-21T18:01:29.017Z</time></trkpt><trkpt lat="40.40914648549172" lon="17.87685859206925"><ele>54.66666666666667</ele><time>2026-04-21T18:01:30.017Z</time></trkpt><trkpt lat="40.40907809159112" lon="17.8771251843194"><ele>54.0</ele><time>2026-04-21T18:01:31.017Z</time></trkpt><trkpt lat="40.409015840026576" lon="17.87739436825499"><ele>54.0</ele><time>2026-04-21T18:01:32.017Z</time></trkpt><trkpt lat="40.40895667393411" lon="17.8776643458312"><ele>54.0</ele><time>2026-04-21T18:01:33.017Z</time></trkpt><trkpt lat="40.40889366661828" lon="17.877929460736585"><ele>54.0</ele><time>2026-04-21T18:01:34.017Z</time></trkpt><trkpt lat="40.40883354414746" lon="17.8781960171749"><ele>53.66666666666667</ele><time>2026-04-21T18:01:35.017Z</time></trkpt><trkpt lat="40.40876853493197" lon="17.878456987982165"><ele>53.333333333333336</ele><time>2026-04-21T18:01:36.017Z</time></trkpt><trkpt lat="40.40870705880799" lon="17.87872581092298"><ele>53.0</ele><time>2026-04-21T18:01:37.017Z</time></trkpt><trkpt lat="40.408641821208846" lon="17.878993628877296"><ele>53.0</ele><time>2026-04-21T18:01:38.017Z</time></trkpt><trkpt lat="40.4085768432801" lon="17.879263936548316"><ele>53.0</ele><time>2026-04-21T18:01:39.017Z</time></trkpt><trkpt lat="40.408514203252224" lon="17.87953592411716"><ele>53.0</ele><time>2026-04-21T18:01:40.017Z</time></trkpt><trkpt lat="40.408450066607436" lon="17.87980472346195"><ele>53.0</ele><time>2026-04-21T18:01:41.017Z</time></trkpt><trkpt lat="40.40838611229124" lon="17.880072565898548"><ele>53.0</ele><time>2026-04-21T18:01:42.017Z</time></trkpt><trkpt lat="40.408324336061256" lon="17.88033673297632"><ele>53.0</ele><time>2026-04-21T18:01:43.017Z</time></trkpt><trkpt lat="40.40826223786217" lon="17.880600386788885"><ele>53.0</ele><time>2026-04-21T18:01:44.017Z</time></trkpt><trkpt lat="40.408199000112745" lon="17.880866234935706"><ele>53.0</ele><time>2026-04-21T18:01:45.017Z</time></trkpt><trkpt lat="40.4081363571558" lon="17.881137141686025"><ele>53.0</ele><time>2026-04-21T18:01:46.017Z</time></trkpt><trkpt lat="40.40807398325282" lon="17.88140386446177"><ele>53.0</ele><time>2026-04-21T18:01:47.017Z</time></trkpt><trkpt lat="40.40801525009389" lon="17.881666397637776"><ele>53.0</ele><time>2026-04-21T18:01:48.017Z</time></trkpt><trkpt lat="40.407954383212456" lon="17.881934320447538"><ele>53.0</ele><time>2026-04-21T18:01:49.017Z</time></trkpt><trkpt lat="40.40789473042065" lon="17.8822024734174"><ele>53.0</ele><time>2026-04-21T18:01:50.017Z</time></trkpt><trkpt lat="40.407832534418695" lon="17.88246917856873"><ele>53.0</ele><time>2026-04-21T18:01:51.017Z</time></trkpt><trkpt lat="40.40777252304909" lon="17.882732322805122"><ele>53.0</ele><time>2026-04-21T18:01:52.017Z</time></trkpt><trkpt lat="40.40771080814114" lon="17.882999249403923"><ele>52.66666666666667</ele><time>2026-04-21T18:01:53.017Z</time></trkpt><trkpt lat="40.40764862627215" lon="17.883266410310327"><ele>52.33333333333333</ele><time>2026-04-21T18:01:54.017Z</time></trkpt><trkpt lat="40.40758817025824" lon="17.88353312612903"><ele>52.0</ele><time>2026-04-21T18:01:55.017Z</time></trkpt><trkpt lat="40.407526672845094" lon="17.883799932315817"><ele>52.0</ele><time>2026-04-21T18:01:56.017Z</time></trkpt><trkpt lat="40.407463233528546" lon="17.88406914592768"><ele>52.0</ele><time>2026-04-21T18:01:57.017Z</time></trkpt><trkpt lat="40.40740433657049" lon="17.88433606795231"><ele>52.0</ele><time>2026-04-21T18:01:58.017Z</time></trkpt><trkpt lat="40.40734267293778" lon="17.884602682002047"><ele>52.0</ele><time>2026-04-21T18:01:59.017Z</time></trkpt><trkpt lat="40.40728151515388" lon="17.88487111385852"><ele>52.0</ele><time>2026-04-21T18:02:00.017Z</time></trkpt><trkpt lat="40.40721576607296" lon="17.88514371102246"><ele>52.0</ele><time>2026-04-21T18:02:01.017Z</time></trkpt><trkpt lat="40.407151481464304" lon="17.885413863077904"><ele>51.33333333333333</ele><time>2026-04-21T18:02:02.017Z</time></trkpt><trkpt lat="40.40708714733925" lon="17.885685401832976"><ele>50.66666666666667</ele><time>2026-04-21T18:02:03.017Z</time></trkpt><trkpt lat="40.40702258218769" lon="17.885959450521213"><ele>50.0</ele><time>2026-04-21T18:02:04.017Z</time></trkpt><trkpt lat="40.4069601966615" lon="17.886229380987604"><ele>50.0</ele><time>2026-04-21T18:02:05.017Z</time></trkpt><trkpt lat="40.40689455239964" lon="17.886500061281772"><ele>50.0</ele><time>2026-04-21T18:02:06.017Z</time></trkpt><trkpt lat="40.40682825347796" lon="17.886776775688435"><ele>50.0</ele><time>2026-04-21T18:02:07.017Z</time></trkpt><trkpt lat="40.40676332866835" lon="17.887045853214513"><ele>50.0</ele><time>2026-04-21T18:02:08.017Z</time></trkpt><trkpt lat="40.40669936584194" lon="17.887318469996114"><ele>50.0</ele><time>2026-04-21T18:02:09.017Z</time></trkpt><trkpt lat="40.40663403872549" lon="17.887591512911133"><ele>50.0</ele><time>2026-04-21T18:02:10.017Z</time></trkpt><trkpt lat="40.406569728212865" lon="17.88785986066345"><ele>50.0</ele><time>2026-04-21T18:02:11.017Z</time></trkpt><trkpt lat="40.40650587337943" lon="17.88812631771932"><ele>50.0</ele><time>2026-04-21T18:02:12.017Z</time></trkpt><trkpt lat="40.40644727349119" lon="17.88839330824892"><ele>50.0</ele><time>2026-04-21T18:02:13.017Z</time></trkpt><trkpt lat="40.406381971075554" lon="17.88865920473329"><ele>49.66666666666667</ele><time>2026-04-21T18:02:14.017Z</time></trkpt><trkpt lat="40.40631839425621" lon="17.888925778954288"><ele>49.33333333333333</ele><time>2026-04-21T18:02:15.017Z</time></trkpt><trkpt lat="40.40625234704128" lon="17.88918795608558"><ele>49.0</ele><time>2026-04-21T18:02:16.017Z</time></trkpt><trkpt lat="40.406187332869095" lon="17.88945595636603"><ele>49.0</ele><time>2026-04-21T18:02:17.017Z</time></trkpt><trkpt lat="40.40612121532272" lon="17.889724473528716"><ele>49.0</ele><time>2026-04-21T18:02:18.017Z</time></trkpt><trkpt lat="40.40605586633124" lon="17.88999132331057"><ele>49.0</ele><time>2026-04-21T18:02:19.017Z</time></trkpt><trkpt lat="40.40599314071381" lon="17.890259887343"><ele>48.666666666666664</ele><time>2026-04-21T18:02:20.017Z</time></trkpt><trkpt lat="40.40593551290487" lon="17.89052367532588"><ele>48.33333333333333</ele><time>2026-04-21T18:02:21.017Z</time></trkpt><trkpt lat="40.4058762513767" lon="17.89079526338053"><ele>48.0</ele><time>2026-04-21T18:02:22.017Z</time></trkpt><trkpt lat="40.40581591088198" lon="17.891064343608075"><ele>47.666666666666664</ele><time>2026-04-21T18:02:23.017Z</time></trkpt><trkpt lat="40.4057605094861" lon="17.89133031048281"><ele>47.33333333333333</ele><time>2026-04-21T18:02:24.017Z</time></trkpt><trkpt lat="40.40570651112578" lon="17.891598061685194"><ele>47.0</ele><time>2026-04-21T18:02:25.017Z</time></trkpt><trkpt lat="40.40565219508151" lon="17.891864050007865"><ele>47.0</ele><time>2026-04-21T18:02:26.017Z</time></trkpt><trkpt lat="40.4055947551091" lon="17.892125956457537"><ele>47.0</ele><time>2026-04-21T18:02:27.017Z</time></trkpt><trkpt lat="40.405531025017524" lon="17.892388902824944"><ele>47.0</ele><time>2026-04-21T18:02:28.017Z</time></trkpt><trkpt lat="40.40546832147791" lon="17.892654266522104"><ele>47.0</ele><time>2026-04-21T18:02:29.017Z</time></trkpt><trkpt lat="40.405408765346785" lon="17.892919864135646"><ele>47.0</ele><time>2026-04-21T18:02:30.017Z</time></trkpt><trkpt lat="40.405348675567446" lon="17.89318500949359"><ele>47.0</ele><time>2026-04-21T18:02:31.017Z</time></trkpt><trkpt lat="40.40528582820431" lon="17.893454865676187"><ele>46.666666666666664</ele><time>2026-04-21T18:02:32.017Z</time></trkpt><trkpt lat="40.405225139446756" lon="17.893722838981194"><ele>46.333333333333336</ele><time>2026-04-21T18:02:33.017Z</time></trkpt><trkpt lat="40.4051600595356" lon="17.89399182962616"><ele>46.0</ele><time>2026-04-21T18:02:34.017Z</time></trkpt><trkpt lat="40.4051013507765" lon="17.89426049331546"><ele>46.0</ele><time>2026-04-21T18:02:35.017Z</time></trkpt><trkpt lat="40.40504456412513" lon="17.89452698112376"><ele>46.0</ele><time>2026-04-21T18:02:36.017Z</time></trkpt><trkpt lat="40.404991993607695" lon="17.89479094353472"><ele>46.0</ele><time>2026-04-21T18:02:37.017Z</time></trkpt><trkpt lat="40.404940266664134" lon="17.895059020891836"><ele>46.66666666666667</ele><time>2026-04-21T18:02:38.017Z</time></trkpt><trkpt lat="40.404879324272876" lon="17.895326650857932"><ele>47.333333333333336</ele><time>2026-04-21T18:02:39.017Z</time></trkpt><trkpt lat="40.40481789911958" lon="17.89559343659143"><ele>48.0</ele><time>2026-04-21T18:02:40.017Z</time></trkpt><trkpt lat="40.404752443767016" lon="17.89586064598405"><ele>48.0</ele><time>2026-04-21T18:02:41.017Z</time></trkpt><trkpt lat="40.40468224281353" lon="17.89612486037439"><ele>48.0</ele><time>2026-04-21T18:02:42.017Z</time></trkpt><trkpt lat="40.40461557973525" lon="17.89639064134832"><ele>48.0</ele><time>2026-04-21T18:02:43.017Z</time></trkpt><trkpt lat="40.404548127922666" lon="17.896657633633094"><ele>47.333333333333336</ele><time>2026-04-21T18:02:44.017Z</time></trkpt><trkpt lat="40.40448149793306" lon="17.896924253675046"><ele>46.66666666666667</ele><time>2026-04-21T18:02:45.017Z</time></trkpt><trkpt lat="40.40441399820954" lon="17.89719196567701"><ele>46.0</ele><time>2026-04-21T18:02:46.017Z</time></trkpt><trkpt lat="40.40435158889646" lon="17.89745955640463"><ele>46.333333333333336</ele><time>2026-04-21T18:02:47.017Z</time></trkpt><trkpt lat="40.404283994170676" lon="17.89772467888841"><ele>46.666666666666664</ele><time>2026-04-21T18:02:48.017Z</time></trkpt><trkpt lat="40.40421976237846" lon="17.897991427900514"><ele>47.0</ele><time>2026-04-21T18:02:49.017Z</time></trkpt><trkpt lat="40.404150132212244" lon="17.898255985053783"><ele>47.0</ele><time>2026-04-21T18:02:50.017Z</time></trkpt><trkpt lat="40.4040865949485" lon="17.898521095316358"><ele>47.0</ele><time>2026-04-21T18:02:51.017Z</time></trkpt><trkpt lat="40.404021093981356" lon="17.89878470308732"><ele>47.0</ele><time>2026-04-21T18:02:52.017Z</time></trkpt><trkpt lat="40.403961939816845" lon="17.899051994750828"><ele>46.666666666666664</ele><time>2026-04-21T18:02:53.017Z</time></trkpt><trkpt lat="40.40390049465962" lon="17.899319182360127"><ele>46.333333333333336</ele><time>2026-04-21T18:02:54.017Z</time></trkpt><trkpt lat="40.40384280653578" lon="17.8995862359943"><ele>46.0</ele><time>2026-04-21T18:02:55.017Z</time></trkpt><trkpt lat="40.40378622639462" lon="17.899860044115787"><ele>46.0</ele><time>2026-04-21T18:02:56.017Z</time></trkpt><trkpt lat="40.40373324842333" lon="17.900128971792892"><ele>46.0</ele><time>2026-04-21T18:02:57.017Z</time></trkpt><trkpt lat="40.40367296009973" lon="17.900395904682117"><ele>46.0</ele><time>2026-04-21T18:02:58.017Z</time></trkpt><trkpt lat="40.40361552696227" lon="17.900667142250303"><ele>46.333333333333336</ele><time>2026-04-21T18:02:59.017Z</time></trkpt><trkpt lat="40.403555561536656" lon="17.900934662928368"><ele>46.666666666666664</ele><time>2026-04-21T18:03:00.017Z</time></trkpt><trkpt lat="40.40349789673938" lon="17.901204397523056"><ele>47.0</ele><time>2026-04-21T18:03:01.018Z</time></trkpt><trkpt lat="40.403436060571686" lon="17.901473615399787"><ele>47.0</ele><time>2026-04-21T18:03:02.018Z</time></trkpt><trkpt lat="40.40337036699489" lon="17.901744777911123"><ele>47.0</ele><time>2026-04-21T18:03:03.018Z</time></trkpt><trkpt lat="40.403311026518125" lon="17.902011980125373"><ele>47.0</ele><time>2026-04-21T18:03:04.018Z</time></trkpt><trkpt lat="40.40324976461027" lon="17.902277399168117"><ele>46.666666666666664</ele><time>2026-04-21T18:03:05.017Z</time></trkpt><trkpt lat="40.40319393287743" lon="17.90254388781897"><ele>46.333333333333336</ele><time>2026-04-21T18:03:06.017Z</time></trkpt><trkpt lat="40.4031327577635" lon="17.902812583217454"><ele>46.0</ele><time>2026-04-21T18:03:07.018Z</time></trkpt><trkpt lat="40.40307009113896" lon="17.90308435570465"><ele>45.66666666666667</ele><time>2026-04-21T18:03:08.018Z</time></trkpt><trkpt lat="40.40300378356966" lon="17.903350578948533"><ele>45.333333333333336</ele><time>2026-04-21T18:03:09.018Z</time></trkpt><trkpt lat="40.40294116969464" lon="17.903613422145824"><ele>45.0</ele><time>2026-04-21T18:03:10.018Z</time></trkpt><trkpt lat="40.40287770514123" lon="17.903882616889888"><ele>45.333333333333336</ele><time>2026-04-21T18:03:11.018Z</time></trkpt><trkpt lat="40.402814385710144" lon="17.90414778818737"><ele>45.66666666666667</ele><time>2026-04-21T18:03:12.018Z</time></trkpt><trkpt lat="40.40274842978088" lon="17.904413894616738"><ele>46.0</ele><time>2026-04-21T18:03:13.018Z</time></trkpt><trkpt lat="40.40268443806703" lon="17.90467795007409"><ele>46.0</ele><time>2026-04-21T18:03:14.018Z</time></trkpt><trkpt lat="40.40262078898772" lon="17.904944407190968"><ele>46.0</ele><time>2026-04-21T18:03:15.018Z</time></trkpt><trkpt lat="40.40255488009661" lon="17.90520890958847"><ele>46.0</ele><time>2026-04-21T18:03:16.018Z</time></trkpt><trkpt lat="40.4024909561929" lon="17.905477274369183"><ele>46.0</ele><time>2026-04-21T18:03:17.018Z</time></trkpt><trkpt lat="40.40242714737072" lon="17.905744162098035"><ele>46.0</ele><time>2026-04-21T18:03:18.018Z</time></trkpt><trkpt lat="40.40236527304439" lon="17.906012210288612"><ele>46.0</ele><time>2026-04-21T18:03:19.018Z</time></trkpt><trkpt lat="40.40230217494903" lon="17.906279320402845"><ele>46.0</ele><time>2026-04-21T18:03:20.018Z</time></trkpt><trkpt lat="40.402240691950986" lon="17.906545719196558"><ele>46.0</ele><time>2026-04-21T18:03:21.018Z</time></trkpt><trkpt lat="40.40217786729633" lon="17.906813518868894"><ele>46.0</ele><time>2026-04-21T18:03:22.018Z</time></trkpt><trkpt lat="40.40211584091703" lon="17.907085441769922"><ele>46.0</ele><time>2026-04-21T18:03:23.018Z</time></trkpt><trkpt lat="40.402058050511826" lon="17.907354585339508"><ele>46.0</ele><time>2026-04-21T18:03:24.018Z</time></trkpt><trkpt lat="40.4019976120889" lon="17.907622258348034"><ele>46.0</ele><time>2026-04-21T18:03:25.018Z</time></trkpt><trkpt lat="40.401935403522" lon="17.90789127244666"><ele>46.0</ele><time>2026-04-21T18:03:26.018Z</time></trkpt><trkpt lat="40.401873464754466" lon="17.90815996015582"><ele>46.0</ele><time>2026-04-21T18:03:27.018Z</time></trkpt><trkpt lat="40.40180828909194" lon="17.908426671628455"><ele>46.0</ele><time>2026-04-21T18:03:28.018Z</time></trkpt><trkpt lat="40.40174691096516" lon="17.908695022834856"><ele>46.0</ele><time>2026-04-21T18:03:29.018Z</time></trkpt><trkpt lat="40.40168482883845" lon="17.9089645077367"><ele>46.0</ele><time>2026-04-21T18:03:30.018Z</time></trkpt><trkpt lat="40.401625018912206" lon="17.909241202691625"><ele>46.0</ele><time>2026-04-21T18:03:31.018Z</time></trkpt><trkpt lat="40.401571770173604" lon="17.909511257388186"><ele>45.66666666666667</ele><time>2026-04-21T18:03:32.018Z</time></trkpt><trkpt lat="40.40151615506069" lon="17.909778128509345"><ele>45.333333333333336</ele><time>2026-04-21T18:03:33.018Z</time></trkpt><trkpt lat="40.40145310697919" lon="17.910044128841182"><ele>45.0</ele><time>2026-04-21T18:03:34.018Z</time></trkpt><trkpt lat="40.40138749211429" lon="17.910314885483313"><ele>45.0</ele><time>2026-04-21T18:03:35.018Z</time></trkpt><trkpt lat="40.40132669780003" lon="17.910580319691242"><ele>45.0</ele><time>2026-04-21T18:03:36.018Z</time></trkpt><trkpt lat="40.40126279172141" lon="17.910844510309005"><ele>45.0</ele><time>2026-04-21T18:03:37.018Z</time></trkpt><trkpt lat="40.40119526082869" lon="17.91111292128912"><ele>45.0</ele><time>2026-04-21T18:03:38.018Z</time></trkpt><trkpt lat="40.40113470340314" lon="17.911377389123484"><ele>45.0</ele><time>2026-04-21T18:03:39.018Z</time></trkpt><trkpt lat="40.40106959921501" lon="17.911636398329133"><ele>45.0</ele><time>2026-04-21T18:03:40.018Z</time></trkpt><trkpt lat="40.400996023227464" lon="17.911905869170955"><ele>45.0</ele><time>2026-04-21T18:03:41.018Z</time></trkpt><trkpt lat="40.40093730928305" lon="17.912171492487634"><ele>45.0</ele><time>2026-04-21T18:03:42.018Z</time></trkpt><trkpt lat="40.40088052357847" lon="17.912436561369496"><ele>45.0</ele><time>2026-04-21T18:03:43.018Z</time></trkpt><trkpt lat="40.40081686760483" lon="17.912704050802635"><ele>44.666666666666664</ele><time>2026-04-21T18:03:44.018Z</time></trkpt><trkpt lat="40.40076116018939" lon="17.912970067363872"><ele>44.33333333333333</ele><time>2026-04-21T18:03:45.018Z</time></trkpt><trkpt lat="40.40069546976838" lon="17.91324024853024"><ele>44.0</ele><time>2026-04-21T18:03:46.018Z</time></trkpt><trkpt lat="40.40062983341931" lon="17.913509301803654"><ele>44.0</ele><time>2026-04-21T18:03:47.018Z</time></trkpt><trkpt lat="40.400566214319205" lon="17.913772279128505"><ele>44.0</ele><time>2026-04-21T18:03:48.018Z</time></trkpt><trkpt lat="40.40050563891017" lon="17.914034646393056"><ele>44.0</ele><time>2026-04-21T18:03:49.018Z</time></trkpt><trkpt lat="40.40044343282048" lon="17.91429899000919"><ele>44.0</ele><time>2026-04-21T18:03:50.018Z</time></trkpt><trkpt lat="40.400378882398755" lon="17.914560810151396"><ele>44.0</ele><time>2026-04-21T18:03:51.018Z</time></trkpt><trkpt lat="40.40031653137869" lon="17.914829004963494"><ele>44.0</ele><time>2026-04-21T18:03:52.018Z</time></trkpt><trkpt lat="40.400256789859704" lon="17.91509071380029"><ele>44.33333333333333</ele><time>2026-04-21T18:03:53.018Z</time></trkpt><trkpt lat="40.400191333272055" lon="17.91534823552055"><ele>44.666666666666664</ele><time>2026-04-21T18:03:54.018Z</time></trkpt><trkpt lat="40.400126864296716" lon="17.915608975754974"><ele>45.0</ele><time>2026-04-21T18:03:55.018Z</time></trkpt><trkpt lat="40.400066503962016" lon="17.915877239735682"><ele>45.0</ele><time>2026-04-21T18:03:56.018Z</time></trkpt><trkpt lat="40.40000688181922" lon="17.9161510192108"><ele>45.0</ele><time>2026-04-21T18:03:57.018Z</time></trkpt><trkpt lat="40.39994629670925" lon="17.916416271022186"><ele>45.0</ele><time>2026-04-21T18:03:58.018Z</time></trkpt><trkpt lat="40.39988631355201" lon="17.916681116135294"><ele>45.333333333333336</ele><time>2026-04-21T18:03:59.018Z</time></trkpt><trkpt lat="40.39982489804164" lon="17.91694497445073"><ele>45.66666666666667</ele><time>2026-04-21T18:04:00.018Z</time></trkpt><trkpt lat="40.399767796349195" lon="17.917211451295632"><ele>46.0</ele><time>2026-04-21T18:04:01.018Z</time></trkpt><trkpt lat="40.39970486261966" lon="17.917475911638594"><ele>45.66666666666667</ele><time>2026-04-21T18:04:02.018Z</time></trkpt><trkpt lat="40.39964707481549" lon="17.917734054241986"><ele>45.333333333333336</ele><time>2026-04-21T18:04:03.018Z</time></trkpt><trkpt lat="40.39959207746295" lon="17.917992741991014"><ele>45.0</ele><time>2026-04-21T18:04:04.018Z</time></trkpt><trkpt lat="40.39952472029008" lon="17.918271863917653"><ele>45.333333333333336</ele><time>2026-04-21T18:04:05.018Z</time></trkpt><trkpt lat="40.39945947810829" lon="17.918549083230094"><ele>45.66666666666667</ele><time>2026-04-21T18:04:06.018Z</time></trkpt><trkpt lat="40.39939435145035" lon="17.918828684351833"><ele>46.0</ele><time>2026-04-21T18:04:07.018Z</time></trkpt><trkpt lat="40.399333663483226" lon="17.919107746847516"><ele>47.0</ele><time>2026-04-21T18:04:08.018Z</time></trkpt><trkpt lat="40.39927008082291" lon="17.919381056228385"><ele>48.0</ele><time>2026-04-21T18:04:09.018Z</time></trkpt><trkpt lat="40.39920462296738" lon="17.91965457958486"><ele>49.0</ele><time>2026-04-21T18:04:10.018Z</time></trkpt><trkpt lat="40.399139807257804" lon="17.919924770098675"><ele>49.0</ele><time>2026-04-21T18:04:11.018Z</time></trkpt><trkpt lat="40.39907485412528" lon="17.920197075888165"><ele>49.0</ele><time>2026-04-21T18:04:12.018Z</time></trkpt><trkpt lat="40.399011371272444" lon="17.92046772371213"><ele>49.0</ele><time>2026-04-21T18:04:13.018Z</time></trkpt><trkpt lat="40.398948428223775" lon="17.920737352402725"><ele>48.666666666666664</ele><time>2026-04-21T18:04:14.018Z</time></trkpt><trkpt lat="40.398883539415124" lon="17.92100791837347"><ele>48.33333333333333</ele><time>2026-04-21T18:04:15.018Z</time></trkpt><trkpt lat="40.39882032413779" lon="17.921276506081725"><ele>48.0</ele><time>2026-04-21T18:04:16.018Z</time></trkpt><trkpt lat="40.39875780413626" lon="17.921545531511132"><ele>47.666666666666664</ele><time>2026-04-21T18:04:17.018Z</time></trkpt><trkpt lat="40.39869734996272" lon="17.921810179208965"><ele>47.33333333333333</ele><time>2026-04-21T18:04:18.018Z</time></trkpt><trkpt lat="40.398633074233025" lon="17.922077181646344"><ele>47.0</ele><time>2026-04-21T18:04:19.018Z</time></trkpt><trkpt lat="40.39856859236222" lon="17.922343889569124"><ele>47.33333333333333</ele><time>2026-04-21T18:04:20.018Z</time></trkpt><trkpt lat="40.39850412218071" lon="17.92260875967913"><ele>47.666666666666664</ele><time>2026-04-21T18:04:21.018Z</time></trkpt><trkpt lat="40.39843872369484" lon="17.922887141876505"><ele>48.0</ele><time>2026-04-21T18:04:22.018Z</time></trkpt><trkpt lat="40.39837146572653" lon="17.923165327636777"><ele>47.5</ele><time>2026-04-21T18:04:23.018Z</time></trkpt><trkpt lat="40.39830523940896" lon="17.923463090794172"><ele>47.0</ele><time>2026-04-21T18:04:24.018Z</time></trkpt><trkpt lat="40.39822922707018" lon="17.92376402848759"><ele>47.0</ele><time>2026-04-21T18:04:25.018Z</time></trkpt><trkpt lat="40.39817740003695" lon="17.924076817245066"><ele>47.0</ele><time>2026-04-21T18:04:26.018Z</time></trkpt><trkpt lat="40.39815616478158" lon="17.92439576127567"><ele>47.0</ele><time>2026-04-21T18:04:27.018Z</time></trkpt><trkpt lat="40.3981602931864" lon="17.924740091277023"><ele>47.0</ele><time>2026-04-21T18:04:28.018Z</time></trkpt><trkpt lat="40.398212789216785" lon="17.925040896757306"><ele>46.5</ele><time>2026-04-21T18:04:29.018Z</time></trkpt><trkpt lat="40.398618184442455" lon="17.9251082608143"><ele>46.0</ele><time>2026-04-21T18:04:30.018Z</time></trkpt><trkpt lat="40.39864504780809" lon="17.92538904368092"><ele>46.0</ele><time>2026-04-21T18:04:31.018Z</time></trkpt><trkpt lat="40.398673791900876" lon="17.925665967659782"><ele>46.0</ele><time>2026-04-21T18:04:32.018Z</time></trkpt><trkpt lat="40.39870174385489" lon="17.925934266348293"><ele>46.0</ele><time>2026-04-21T18:04:33.018Z</time></trkpt><trkpt lat="40.398734172040534" lon="17.92617718579761"><ele>45.66666666666667</ele><time>2026-04-21T18:04:34.018Z</time></trkpt><trkpt lat="40.398759270926874" lon="17.926405697518828"><ele>45.333333333333336</ele><time>2026-04-21T18:04:35.018Z</time></trkpt><trkpt lat="40.398778437043994" lon="17.926636679376024"><ele>45.0</ele><time>2026-04-21T18:04:36.018Z</time></trkpt><trkpt lat="40.39880387839088" lon="17.92687638817813"><ele>45.333333333333336</ele><time>2026-04-21T18:04:37.018Z</time></trkpt><trkpt lat="40.39882868259449" lon="17.92712035027572"><ele>45.66666666666667</ele><time>2026-04-21T18:04:38.018Z</time></trkpt><trkpt lat="40.39885580762646" lon="17.927361096307145"><ele>46.0</ele><time>2026-04-21T18:04:39.018Z</time></trkpt><trkpt lat="40.39887798540304" lon="17.927604964188053"><ele>46.66666666666667</ele><time>2026-04-21T18:04:40.018Z</time></trkpt><trkpt lat="40.39890010053309" lon="17.927854051123454"><ele>47.333333333333336</ele><time>2026-04-21T18:04:41.018Z</time></trkpt><trkpt lat="40.3989279502233" lon="17.9280979091432"><ele>48.0</ele><time>2026-04-21T18:04:42.018Z</time></trkpt><trkpt lat="40.39895100534899" lon="17.928351198773697"><ele>47.666666666666664</ele><time>2026-04-21T18:04:43.018Z</time></trkpt><trkpt lat="40.39897726726564" lon="17.928599661101952"><ele>47.33333333333333</ele><time>2026-04-21T18:04:44.018Z</time></trkpt><trkpt lat="40.39900456863065" lon="17.928852262877914"><ele>47.0</ele><time>2026-04-21T18:04:45.018Z</time></trkpt><trkpt lat="40.39903175335792" lon="17.92910817289274"><ele>46.666666666666664</ele><time>2026-04-21T18:04:46.018Z</time></trkpt><trkpt lat="40.3990599496601" lon="17.92936380994434"><ele>46.333333333333336</ele><time>2026-04-21T18:04:47.018Z</time></trkpt><trkpt lat="40.39908769939987" lon="17.92961976474703"><ele>46.0</ele><time>2026-04-21T18:04:48.018Z</time></trkpt><trkpt lat="40.39911458567597" lon="17.92987755658904"><ele>45.333333333333336</ele><time>2026-04-21T18:04:49.018Z</time></trkpt><trkpt lat="40.39914143966167" lon="17.9301357966084"><ele>44.666666666666664</ele><time>2026-04-21T18:04:50.018Z</time></trkpt><trkpt lat="40.39916816090185" lon="17.93039437968429"><ele>44.0</ele><time>2026-04-21T18:04:51.018Z</time></trkpt><trkpt lat="40.39919653190506" lon="17.93065428182189"><ele>44.0</ele><time>2026-04-21T18:04:52.018Z</time></trkpt><trkpt lat="40.39922146101073" lon="17.93091992525715"><ele>44.0</ele><time>2026-04-21T18:04:53.018Z</time></trkpt><trkpt lat="40.3992501089914" lon="17.93118440110832"><ele>44.0</ele><time>2026-04-21T18:04:54.018Z</time></trkpt><trkpt lat="40.39928021724169" lon="17.93144699091846"><ele>44.0</ele><time>2026-04-21T18:04:55.018Z</time></trkpt><trkpt lat="40.39930747854819" lon="17.93171399711293"><ele>44.0</ele><time>2026-04-21T18:04:56.018Z</time></trkpt><trkpt lat="40.39932991667046" lon="17.931980115986363"><ele>44.0</ele><time>2026-04-21T18:04:57.018Z</time></trkpt><trkpt lat="40.39935372893224" lon="17.93224359573688"><ele>44.33333333333333</ele><time>2026-04-21T18:04:58.018Z</time></trkpt><trkpt lat="40.39937737947517" lon="17.932512442703977"><ele>44.666666666666664</ele><time>2026-04-21T18:04:59.018Z</time></trkpt><trkpt lat="40.39940372755223" lon="17.932780273539887"><ele>45.0</ele><time>2026-04-21T18:05:00.018Z</time></trkpt><trkpt lat="40.39943264260213" lon="17.933051607292875"><ele>45.0</ele><time>2026-04-21T18:05:01.018Z</time></trkpt><trkpt lat="40.39945932139999" lon="17.93331744506131"><ele>45.0</ele><time>2026-04-21T18:05:02.018Z</time></trkpt><trkpt lat="40.39948698138183" lon="17.933583933096997"><ele>45.0</ele><time>2026-04-21T18:05:03.018Z</time></trkpt><trkpt lat="40.39951263366136" lon="17.93385346356142"><ele>44.666666666666664</ele><time>2026-04-21T18:05:04.018Z</time></trkpt><trkpt lat="40.39953788226217" lon="17.934127484579154"><ele>44.33333333333333</ele><time>2026-04-21T18:05:05.018Z</time></trkpt><trkpt lat="40.399555509685655" lon="17.934402879638217"><ele>44.0</ele><time>2026-04-21T18:05:06.018Z</time></trkpt><trkpt lat="40.39958225477119" lon="17.93467044754349"><ele>44.0</ele><time>2026-04-21T18:05:07.019Z</time></trkpt><trkpt lat="40.39960602355177" lon="17.934946922731005"><ele>44.0</ele><time>2026-04-21T18:05:08.019Z</time></trkpt><trkpt lat="40.399629763209774" lon="17.935224389859034"><ele>44.0</ele><time>2026-04-21T18:05:09.019Z</time></trkpt><trkpt lat="40.399669069954605" lon="17.93549310615818"><ele>44.0</ele><time>2026-04-21T18:05:10.019Z</time></trkpt><trkpt lat="40.39969998898768" lon="17.93576192153956"><ele>44.0</ele><time>2026-04-21T18:05:11.018Z</time></trkpt><trkpt lat="40.3997269981114" lon="17.93603308064198"><ele>44.0</ele><time>2026-04-21T18:05:12.018Z</time></trkpt><trkpt lat="40.39975572912188" lon="17.936307182237915"><ele>44.0</ele><time>2026-04-21T18:05:13.019Z</time></trkpt><trkpt lat="40.399779871029736" lon="17.93658095836726"><ele>44.0</ele><time>2026-04-21T18:05:14.019Z</time></trkpt><trkpt lat="40.39980492017093" lon="17.93685599643334"><ele>44.0</ele><time>2026-04-21T18:05:15.019Z</time></trkpt><trkpt lat="40.39982760273632" lon="17.937134454837576"><ele>44.0</ele><time>2026-04-21T18:05:16.019Z</time></trkpt><trkpt lat="40.39985450219148" lon="17.937414434942276"><ele>44.0</ele><time>2026-04-21T18:05:17.019Z</time></trkpt><trkpt lat="40.39987840181567" lon="17.937698635902233"><ele>44.0</ele><time>2026-04-21T18:05:18.019Z</time></trkpt><trkpt lat="40.39990618707566" lon="17.937996834888434"><ele>44.0</ele><time>2026-04-21T18:05:19.019Z</time></trkpt><trkpt lat="40.399936709002915" lon="17.93826943302551"><ele>44.0</ele><time>2026-04-21T18:05:20.018Z</time></trkpt><trkpt lat="40.39996437910593" lon="17.938513729416453"><ele>44.0</ele><time>2026-04-21T18:05:21.018Z</time></trkpt><trkpt lat="40.39999225173253" lon="17.938737917180404"><ele>44.0</ele><time>2026-04-21T18:05:22.018Z</time></trkpt><trkpt lat="40.40001007075282" lon="17.93895084485433"><ele>44.0</ele><time>2026-04-21T18:05:23.018Z</time></trkpt><trkpt lat="40.4000282449324" lon="17.9391521849149"><ele>44.0</ele><time>2026-04-21T18:05:24.018Z</time></trkpt><trkpt lat="40.400043962948416" lon="17.939343769163273"><ele>44.33333333333333</ele><time>2026-04-21T18:05:25.018Z</time></trkpt><trkpt lat="40.400064348384994" lon="17.939547838472034"><ele>44.666666666666664</ele><time>2026-04-21T18:05:26.018Z</time></trkpt><trkpt lat="40.40008841911681" lon="17.939764838795842"><ele>45.0</ele><time>2026-04-21T18:05:27.018Z</time></trkpt><trkpt lat="40.400118189099075" lon="17.93997887215546"><ele>44.75</ele><time>2026-04-21T18:05:28.018Z</time></trkpt><trkpt lat="40.400139961685944" lon="17.94017041918339"><ele>44.5</ele><time>2026-04-21T18:05:29.018Z</time></trkpt><trkpt lat="40.40015637752825" lon="17.940340544225357"><ele>44.25</ele><time>2026-04-21T18:05:30.018Z</time></trkpt><trkpt lat="40.40017085449714" lon="17.940501550354853"><ele>44.0</ele><time>2026-04-21T18:05:31.018Z</time></trkpt><trkpt lat="40.400185733742305" lon="17.940641127773024"><ele>44.0</ele><time>2026-04-21T18:05:32.018Z</time></trkpt><trkpt lat="40.40020108827126" lon="17.940770933120636"><ele>44.0</ele><time>2026-04-21T18:05:33.018Z</time></trkpt><trkpt lat="40.40021536491572" lon="17.94089713575741"><ele>44.0</ele><time>2026-04-21T18:05:34.018Z</time></trkpt><trkpt lat="40.40023309106207" lon="17.941005238032897"><ele>44.0</ele><time>2026-04-21T18:05:35.018Z</time></trkpt><trkpt lat="40.40024221582398" lon="17.94110624565803"><ele>44.0</ele><time>2026-04-21T18:05:36.018Z</time></trkpt><trkpt lat="40.40025604941588" lon="17.941226543183284"><ele>44.5</ele><time>2026-04-21T18:05:37.018Z</time></trkpt><trkpt lat="40.40027030692671" lon="17.9413709935949"><ele>45.0</ele><time>2026-04-21T18:05:38.018Z</time></trkpt><trkpt lat="40.4002848154326" lon="17.941539288869468"><ele>45.5</ele><time>2026-04-21T18:05:39.018Z</time></trkpt><trkpt lat="40.40030075299549" lon="17.941730330874503"><ele>46.0</ele><time>2026-04-21T18:05:40.018Z</time></trkpt><trkpt lat="40.400311563458004" lon="17.94191325301493"><ele>46.0</ele><time>2026-04-21T18:05:41.018Z</time></trkpt><trkpt lat="40.400327646496585" lon="17.94204821669678"><ele>46.0</ele><time>2026-04-21T18:05:42.018Z</time></trkpt><trkpt lat="40.40035353433925" lon="17.942196694741625"><ele>46.0</ele><time>2026-04-21T18:05:43.018Z</time></trkpt><trkpt lat="40.40037094575578" lon="17.94235795399766"><ele>46.0</ele><time>2026-04-21T18:05:44.018Z</time></trkpt><trkpt lat="40.400385434352835" lon="17.942519687158974"><ele>46.25</ele><time>2026-04-21T18:05:45.018Z</time></trkpt><trkpt lat="40.40040592999454" lon="17.942685882359108"><ele>46.5</ele><time>2026-04-21T18:05:46.018Z</time></trkpt><trkpt lat="40.40042300141573" lon="17.942851571176526"><ele>46.75</ele><time>2026-04-21T18:05:47.018Z</time></trkpt><trkpt lat="40.40043635578185" lon="17.943015827423228"><ele>47.0</ele><time>2026-04-21T18:05:48.018Z</time></trkpt><trkpt lat="40.4004448885095" lon="17.943180085954722"><ele>47.0</ele><time>2026-04-21T18:05:49.018Z</time></trkpt><trkpt lat="40.40045730216163" lon="17.943335845884974"><ele>47.0</ele><time>2026-04-21T18:05:50.018Z</time></trkpt><trkpt lat="40.40047382253656" lon="17.943498008245026"><ele>47.0</ele><time>2026-04-21T18:05:51.018Z</time></trkpt><trkpt lat="40.40049426722951" lon="17.943646413210153"><ele>47.0</ele><time>2026-04-21T18:05:52.018Z</time></trkpt><trkpt lat="40.40050807052592" lon="17.943791672149082"><ele>46.75</ele><time>2026-04-21T18:05:53.018Z</time></trkpt><trkpt lat="40.400516831612414" lon="17.94393829856089"><ele>46.5</ele><time>2026-04-21T18:05:54.018Z</time></trkpt><trkpt lat="40.40053087569985" lon="17.94409372221905"><ele>46.25</ele><time>2026-04-21T18:05:55.018Z</time></trkpt><trkpt lat="40.40054781696657" lon="17.944266698011273"><ele>46.0</ele><time>2026-04-21T18:05:56.018Z</time></trkpt><trkpt lat="40.400556190155406" lon="17.944444195490476"><ele>46.0</ele><time>2026-04-21T18:05:57.018Z</time></trkpt><trkpt lat="40.40056247313328" lon="17.944581092791402"><ele>46.0</ele><time>2026-04-21T18:05:58.018Z</time></trkpt><trkpt lat="40.40058663101668" lon="17.944708869640284"><ele>46.0</ele><time>2026-04-21T18:05:59.018Z</time></trkpt><trkpt lat="40.40061492750056" lon="17.944873933241855"><ele>46.0</ele><time>2026-04-21T18:06:00.018Z</time></trkpt><trkpt lat="40.40063640167498" lon="17.94504562245805"><ele>45.66666666666667</ele><time>2026-04-21T18:06:01.018Z</time></trkpt><trkpt lat="40.40065703284027" lon="17.94524861782792"><ele>45.333333333333336</ele><time>2026-04-21T18:06:02.018Z</time></trkpt><trkpt lat="40.4006647600419" lon="17.94548158805401"><ele>45.0</ele><time>2026-04-21T18:06:03.018Z</time></trkpt><trkpt lat="40.40067052950425" lon="17.945700977675262"><ele>44.75</ele><time>2026-04-21T18:06:04.018Z</time></trkpt><trkpt lat="40.40069403626383" lon="17.94590011788558"><ele>44.5</ele><time>2026-04-21T18:06:05.018Z</time></trkpt><trkpt lat="40.400716825096346" lon="17.946086190885588"><ele>44.25</ele><time>2026-04-21T18:06:06.018Z</time></trkpt><trkpt lat="40.400746378534464" lon="17.94625099817255"><ele>44.0</ele><time>2026-04-21T18:06:07.018Z</time></trkpt><trkpt lat="40.40076021672016" lon="17.94640491826347"><ele>44.0</ele><time>2026-04-21T18:06:08.018Z</time></trkpt><trkpt lat="40.40078042678127" lon="17.946547356136655"><ele>44.0</ele><time>2026-04-21T18:06:09.018Z</time></trkpt><trkpt lat="40.4007954821876" lon="17.946689861141696"><ele>44.0</ele><time>2026-04-21T18:06:10.018Z</time></trkpt><trkpt lat="40.40080715331351" lon="17.946842703775093"><ele>44.0</ele><time>2026-04-21T18:06:11.018Z</time></trkpt><trkpt lat="40.40082400555651" lon="17.946992943717532"><ele>44.75</ele><time>2026-04-21T18:06:12.018Z</time></trkpt><trkpt lat="40.4008339778849" lon="17.94715269041636"><ele>45.5</ele><time>2026-04-21T18:06:13.018Z</time></trkpt><trkpt lat="40.400847401204516" lon="17.947315737640846"><ele>46.25</ele><time>2026-04-21T18:06:14.018Z</time></trkpt><trkpt lat="40.40086307736948" lon="17.947460589902207"><ele>47.0</ele><time>2026-04-21T18:06:15.018Z</time></trkpt><trkpt lat="40.40088025729239" lon="17.947595307452406"><ele>47.0</ele><time>2026-04-21T18:06:16.018Z</time></trkpt><trkpt lat="40.400890386793016" lon="17.947717722133728"><ele>47.0</ele><time>2026-04-21T18:06:17.018Z</time></trkpt><trkpt lat="40.40090658127927" lon="17.947835446023927"><ele>47.0</ele><time>2026-04-21T18:06:18.018Z</time></trkpt><trkpt lat="40.40092135679872" lon="17.94794372788907"><ele>47.0</ele><time>2026-04-21T18:06:19.018Z</time></trkpt><trkpt lat="40.4009340427591" lon="17.94804305567743"><ele>47.0</ele><time>2026-04-21T18:06:20.018Z</time></trkpt><trkpt lat="40.40095187196042" lon="17.94813137381133"><ele>47.0</ele><time>2026-04-21T18:06:21.018Z</time></trkpt><trkpt lat="40.400962991024194" lon="17.948222289670355"><ele>47.0</ele><time>2026-04-21T18:06:22.018Z</time></trkpt><trkpt lat="40.400976741230714" lon="17.948328636863916"><ele>47.0</ele><time>2026-04-21T18:06:23.018Z</time></trkpt><trkpt lat="40.400985838600775" lon="17.94843872034487"><ele>47.0</ele><time>2026-04-21T18:06:24.018Z</time></trkpt><trkpt lat="40.40099670046717" lon="17.948532271633912"><ele>47.0</ele><time>2026-04-21T18:06:25.018Z</time></trkpt><trkpt lat="40.40101129668123" lon="17.948619725381224"><ele>47.0</ele><time>2026-04-21T18:06:26.018Z</time></trkpt><trkpt lat="40.401039720579874" lon="17.948704107940166"><ele>47.0</ele><time>2026-04-21T18:06:27.018Z</time></trkpt><trkpt lat="40.40104829478041" lon="17.94879231937337"><ele>47.0</ele><time>2026-04-21T18:06:28.018Z</time></trkpt><trkpt lat="40.401051485678806" lon="17.948888037177017"><ele>46.83333333333333</ele><time>2026-04-21T18:06:29.018Z</time></trkpt><trkpt lat="40.401056309300984" lon="17.948993854231972"><ele>46.666666666666664</ele><time>2026-04-21T18:06:30.018Z</time></trkpt><trkpt lat="40.40106450760954" lon="17.9491038294195"><ele>46.5</ele><time>2026-04-21T18:06:31.018Z</time></trkpt><trkpt lat="40.40107533810936" lon="17.949224822015402"><ele>46.333333333333336</ele><time>2026-04-21T18:06:32.018Z</time></trkpt><trkpt lat="40.40109050416225" lon="17.949345350639167"><ele>46.16666666666667</ele><time>2026-04-21T18:06:33.018Z</time></trkpt><trkpt lat="40.401097894133805" lon="17.949458306883116"><ele>46.0</ele><time>2026-04-21T18:06:34.018Z</time></trkpt><trkpt lat="40.40111167778491" lon="17.94956291771237"><ele>46.0</ele><time>2026-04-21T18:06:35.018Z</time></trkpt><trkpt lat="40.401122766012755" lon="17.949661105561358"><ele>46.0</ele><time>2026-04-21T18:06:36.018Z</time></trkpt><trkpt lat="40.40112846168572" lon="17.94975242050352"><ele>46.0</ele><time>2026-04-21T18:06:37.018Z</time></trkpt><trkpt lat="40.40112858297463" lon="17.94985301799723"><ele>46.0</ele><time>2026-04-21T18:06:38.018Z</time></trkpt><trkpt lat="40.40113330340867" lon="17.949952916702966"><ele>46.0</ele><time>2026-04-21T18:06:39.018Z</time></trkpt><trkpt lat="40.40114108599851" lon="17.95005499759843"><ele>46.0</ele><time>2026-04-21T18:06:40.018Z</time></trkpt><trkpt lat="40.40115280263674" lon="17.950156141288808"><ele>46.16666666666667</ele><time>2026-04-21T18:06:41.018Z</time></trkpt><trkpt lat="40.401164849360136" lon="17.95025722395124"><ele>46.333333333333336</ele><time>2026-04-21T18:06:42.018Z</time></trkpt><trkpt lat="40.40117497937526" lon="17.950358769157994"><ele>46.5</ele><time>2026-04-21T18:06:43.018Z</time></trkpt><trkpt lat="40.401193106605504" lon="17.950460518549278"><ele>46.666666666666664</ele><time>2026-04-21T18:06:44.018Z</time></trkpt><trkpt lat="40.40121188967098" lon="17.95056342280888"><ele>46.83333333333333</ele><time>2026-04-21T18:06:45.018Z</time></trkpt><trkpt lat="40.401228401724715" lon="17.950663529943633"><ele>47.0</ele><time>2026-04-21T18:06:46.018Z</time></trkpt><trkpt lat="40.40123756050914" lon="17.95076715341727"><ele>47.166666666666664</ele><time>2026-04-21T18:06:47.018Z</time></trkpt><trkpt lat="40.401240691534596" lon="17.950881800726695"><ele>47.33333333333333</ele><time>2026-04-21T18:06:48.018Z</time></trkpt><trkpt lat="40.401246097465354" lon="17.95099059667622"><ele>47.5</ele><time>2026-04-21T18:06:49.018Z</time></trkpt><trkpt lat="40.40125438104883" lon="17.951106799813676"><ele>47.666666666666664</ele><time>2026-04-21T18:06:50.018Z</time></trkpt><trkpt lat="40.40126365888814" lon="17.95121756540365"><ele>47.833333333333336</ele><time>2026-04-21T18:06:51.018Z</time></trkpt><trkpt lat="40.401275102433175" lon="17.951315477919533"><ele>48.0</ele><time>2026-04-21T18:06:52.018Z</time></trkpt><trkpt lat="40.40128567590878" lon="17.95141093724583"><ele>48.0</ele><time>2026-04-21T18:06:53.018Z</time></trkpt><trkpt lat="40.40130093972348" lon="17.951579374351933"><ele>48.0</ele><time>2026-04-21T18:06:55.018Z</time></trkpt><trkpt lat="40.40131458694457" lon="17.951739571259257"><ele>48.0</ele><time>2026-04-21T18:06:57.018Z</time></trkpt><trkpt lat="40.4013281859617" lon="17.951902588954813"><ele>48.0</ele><time>2026-04-21T18:06:59.018Z</time></trkpt><trkpt lat="40.40134269921985" lon="17.951990809993404"><ele>48.0</ele><time>2026-04-21T18:07:00.018Z</time></trkpt><trkpt lat="40.40134457470215" lon="17.952080124594357"><ele>48.0</ele><time>2026-04-21T18:07:01.018Z</time></trkpt><trkpt lat="40.401350333107" lon="17.95216358547939"><ele>48.0</ele><time>2026-04-21T18:07:02.018Z</time></trkpt><trkpt lat="40.40135943836084" lon="17.952310989244182"><ele>48.0</ele><time>2026-04-21T18:07:04.018Z</time></trkpt><trkpt lat="40.4013617977823" lon="17.952400637903725"><ele>48.0</ele><time>2026-04-21T18:07:05.018Z</time></trkpt><trkpt lat="40.40136846229858" lon="17.952559242706865"><ele>48.0</ele><time>2026-04-21T18:07:07.018Z</time></trkpt><trkpt lat="40.40137021225076" lon="17.952678864783632"><ele>47.8</ele><time>2026-04-21T18:07:09.018Z</time></trkpt><trkpt lat="40.401365898890475" lon="17.95278825573539"><ele>47.599999999999994</ele><time>2026-04-21T18:07:11.018Z</time></trkpt><trkpt lat="40.40136386956075" lon="17.95294108572361"><ele>47.400000000000006</ele><time>2026-04-21T18:07:13.019Z</time></trkpt><trkpt lat="40.4013794178603" lon="17.953113880893735"><ele>47.2</ele><time>2026-04-21T18:07:15.02Z</time></trkpt><trkpt lat="40.40138101760852" lon="17.953208064450962"><ele>47.0</ele><time>2026-04-21T18:07:16.02Z</time></trkpt><trkpt lat="40.40137620299051" lon="17.953293232219533"><ele>46.400000000000006</ele><time>2026-04-21T18:07:17.02Z</time></trkpt><trkpt lat="40.40136141541258" lon="17.953409757168227"><ele>45.800000000000004</ele><time>2026-04-21T18:07:19.02Z</time></trkpt><trkpt lat="40.401345879066106" lon="17.953503657049076"><ele>45.2</ele><time>2026-04-21T18:07:21.019Z</time></trkpt><trkpt lat="40.4013246494201" lon="17.95368559354323"><ele>44.6</ele><time>2026-04-21T18:07:23.019Z</time></trkpt><trkpt lat="40.40131660886191" lon="17.95384601009538"><ele>44.0</ele><time>2026-04-21T18:07:24.019Z</time></trkpt><trkpt lat="40.40129809308069" lon="17.95403338697787"><ele>44.0</ele><time>2026-04-21T18:07:25.02Z</time></trkpt><trkpt lat="40.4012868673106" lon="17.954200637733905"><ele>44.0</ele><time>2026-04-21T18:07:26.019Z</time></trkpt><trkpt lat="40.40127343418504" lon="17.954377374359655"><ele>44.0</ele><time>2026-04-21T18:07:27.019Z</time></trkpt><trkpt lat="40.40126208565266" lon="17.95455733653915"><ele>44.0</ele><time>2026-04-21T18:07:28.019Z</time></trkpt><trkpt lat="40.40124406688196" lon="17.954732203378985"><ele>43.5</ele><time>2026-04-21T18:07:29.019Z</time></trkpt><trkpt lat="40.40123161954652" lon="17.954912702631482"><ele>43.0</ele><time>2026-04-21T18:07:30.019Z</time></trkpt><trkpt lat="40.40124178086799" lon="17.955099972711665"><ele>42.5</ele><time>2026-04-21T18:07:31.019Z</time></trkpt><trkpt lat="40.401233899426394" lon="17.955292885554268"><ele>42.0</ele><time>2026-04-21T18:07:32.019Z</time></trkpt><trkpt lat="40.401229138325114" lon="17.955498915663"><ele>41.333333333333336</ele><time>2026-04-21T18:07:33.019Z</time></trkpt><trkpt lat="40.401229209813586" lon="17.95571203566883"><ele>40.66666666666667</ele><time>2026-04-21T18:07:34.019Z</time></trkpt><trkpt lat="40.401230407404796" lon="17.955923445244213"><ele>40.0</ele><time>2026-04-21T18:07:35.019Z</time></trkpt><trkpt lat="40.40122757522594" lon="17.95613620865415"><ele>40.0</ele><time>2026-04-21T18:07:36.019Z</time></trkpt><trkpt lat="40.401224136683226" lon="17.9563528309471"><ele>40.0</ele><time>2026-04-21T18:07:37.019Z</time></trkpt><trkpt lat="40.40121960690924" lon="17.956598033631394"><ele>40.0</ele><time>2026-04-21T18:07:38.019Z</time></trkpt><trkpt lat="40.40121427261941" lon="17.956874200757063"><ele>40.0</ele><time>2026-04-21T18:07:39.019Z</time></trkpt><trkpt lat="40.40122166331032" lon="17.95714866955491"><ele>40.0</ele><time>2026-04-21T18:07:40.019Z</time></trkpt><trkpt lat="40.40123708496013" lon="17.95741921215945"><ele>40.0</ele><time>2026-04-21T18:07:41.019Z</time></trkpt><trkpt lat="40.401259242360865" lon="17.957673320200087"><ele>39.66666666666667</ele><time>2026-04-21T18:07:42.019Z</time></trkpt><trkpt lat="40.40130846685824" lon="17.957908345727933"><ele>39.333333333333336</ele><time>2026-04-21T18:07:43.019Z</time></trkpt><trkpt lat="40.40136211149885" lon="17.958130090342312"><ele>39.0</ele><time>2026-04-21T18:07:44.019Z</time></trkpt><trkpt lat="40.40140228402723" lon="17.958343682066133"><ele>39.5</ele><time>2026-04-21T18:07:45.019Z</time></trkpt><trkpt lat="40.40143101235919" lon="17.958572904914654"><ele>40.0</ele><time>2026-04-21T18:07:46.019Z</time></trkpt><trkpt lat="40.401075955052356" lon="17.95907574560738"><ele>40.333333333333336</ele><time>2026-04-21T18:07:47.019Z</time></trkpt><trkpt lat="40.40106066296527" lon="17.95933778060412"><ele>40.666666666666664</ele><time>2026-04-21T18:07:48.019Z</time></trkpt><trkpt lat="40.401047464698316" lon="17.959599126563102"><ele>41.0</ele><time>2026-04-21T18:07:49.019Z</time></trkpt><trkpt lat="40.40103251143992" lon="17.95986362622506"><ele>40.33333333333333</ele><time>2026-04-21T18:07:50.019Z</time></trkpt><trkpt lat="40.401022963771965" lon="17.96011020905657"><ele>39.666666666666664</ele><time>2026-04-21T18:07:51.019Z</time></trkpt><trkpt lat="40.401015497462595" lon="17.96035230916692"><ele>39.0</ele><time>2026-04-21T18:07:52.019Z</time></trkpt><trkpt lat="40.40100457759096" lon="17.960598608079966"><ele>39.0</ele><time>2026-04-21T18:07:53.019Z</time></trkpt><trkpt lat="40.40099231895898" lon="17.96084797102678"><ele>39.0</ele><time>2026-04-21T18:07:54.019Z</time></trkpt><trkpt lat="40.40098101495419" lon="17.961097785494403"><ele>39.0</ele><time>2026-04-21T18:07:55.019Z</time></trkpt><trkpt lat="40.4009698115546" lon="17.961348898630813"><ele>39.0</ele><time>2026-04-21T18:07:56.019Z</time></trkpt><trkpt lat="40.40095617303984" lon="17.961598670062283"><ele>39.0</ele><time>2026-04-21T18:07:57.019Z</time></trkpt><trkpt lat="40.40094579700389" lon="17.961848049461114"><ele>39.0</ele><time>2026-04-21T18:07:58.019Z</time></trkpt><trkpt lat="40.4009347913539" lon="17.962085451635403"><ele>39.0</ele><time>2026-04-21T18:07:59.019Z</time></trkpt><trkpt lat="40.400921731214005" lon="17.962321461972195"><ele>39.0</ele><time>2026-04-21T18:08:00.019Z</time></trkpt><trkpt lat="40.40090780746884" lon="17.962565174140188"><ele>39.0</ele><time>2026-04-21T18:08:01.019Z</time></trkpt><trkpt lat="40.40089848471776" lon="17.962796223972845"><ele>39.333333333333336</ele><time>2026-04-21T18:08:02.019Z</time></trkpt><trkpt lat="40.4008908174349" lon="17.96302566883748"><ele>39.66666666666667</ele><time>2026-04-21T18:08:03.019Z</time></trkpt><trkpt lat="40.40087987057124" lon="17.963258151025848"><ele>40.0</ele><time>2026-04-21T18:08:04.019Z</time></trkpt><trkpt lat="40.40086971953098" lon="17.963493315497935"><ele>39.333333333333336</ele><time>2026-04-21T18:08:05.019Z</time></trkpt><trkpt lat="40.40085883564874" lon="17.963723232351917"><ele>38.666666666666664</ele><time>2026-04-21T18:08:06.019Z</time></trkpt><trkpt lat="40.40084746703799" lon="17.963943164492996"><ele>38.0</ele><time>2026-04-21T18:08:07.019Z</time></trkpt><trkpt lat="40.40083667474257" lon="17.964154164089866"><ele>38.0</ele><time>2026-04-21T18:08:08.019Z</time></trkpt><trkpt lat="40.40082680110901" lon="17.964360094064165"><ele>38.0</ele><time>2026-04-21T18:08:09.019Z</time></trkpt><trkpt lat="40.400823220213105" lon="17.964555216452354"><ele>38.0</ele><time>2026-04-21T18:08:10.019Z</time></trkpt><trkpt lat="40.40081451580842" lon="17.96477094587183"><ele>38.0</ele><time>2026-04-21T18:08:11.019Z</time></trkpt><trkpt lat="40.400802020062144" lon="17.9649837167319"><ele>38.0</ele><time>2026-04-21T18:08:12.019Z</time></trkpt><trkpt lat="40.400791491951324" lon="17.96519882916352"><ele>38.0</ele><time>2026-04-21T18:08:13.019Z</time></trkpt><trkpt lat="40.40078382161477" lon="17.9654186344304"><ele>37.666666666666664</ele><time>2026-04-21T18:08:14.019Z</time></trkpt><trkpt lat="40.400764773208714" lon="17.96564680664906"><ele>37.333333333333336</ele><time>2026-04-21T18:08:15.019Z</time></trkpt><trkpt lat="40.40075727764384" lon="17.96587201265889"><ele>37.0</ele><time>2026-04-21T18:08:16.019Z</time></trkpt><trkpt lat="40.400749703631305" lon="17.966096233239718"><ele>36.66666666666667</ele><time>2026-04-21T18:08:17.019Z</time></trkpt><trkpt lat="40.400741423994766" lon="17.966314782551663"><ele>36.333333333333336</ele><time>2026-04-21T18:08:18.019Z</time></trkpt><trkpt lat="40.40073074476691" lon="17.966528113700914"><ele>36.0</ele><time>2026-04-21T18:08:19.019Z</time></trkpt><trkpt lat="40.40072319933075" lon="17.966744673566016"><ele>36.0</ele><time>2026-04-21T18:08:20.019Z</time></trkpt><trkpt lat="40.40071295255778" lon="17.966970754519792"><ele>36.0</ele><time>2026-04-21T18:08:21.019Z</time></trkpt><trkpt lat="40.40070653560093" lon="17.967193385604112"><ele>36.0</ele><time>2026-04-21T18:08:22.019Z</time></trkpt><trkpt lat="40.400694727452795" lon="17.967423434774254"><ele>35.666666666666664</ele><time>2026-04-21T18:08:23.019Z</time></trkpt><trkpt lat="40.40067948663028" lon="17.96764179413889"><ele>35.33333333333333</ele><time>2026-04-21T18:08:24.019Z</time></trkpt><trkpt lat="40.40067192539949" lon="17.96785190056056"><ele>35.0</ele><time>2026-04-21T18:08:25.019Z</time></trkpt><trkpt lat="40.40066821489865" lon="17.968046754563996"><ele>35.0</ele><time>2026-04-21T18:08:26.019Z</time></trkpt><trkpt lat="40.40066382670479" lon="17.96824758166662"><ele>35.0</ele><time>2026-04-21T18:08:27.019Z</time></trkpt><trkpt lat="40.40065549188927" lon="17.9684471960146"><ele>35.0</ele><time>2026-04-21T18:08:28.019Z</time></trkpt><trkpt lat="40.4006466302788" lon="17.96862441823737"><ele>35.0</ele><time>2026-04-21T18:08:29.019Z</time></trkpt><trkpt lat="40.40063759251019" lon="17.968799318607314"><ele>35.0</ele><time>2026-04-21T18:08:30.019Z</time></trkpt><trkpt lat="40.40062902187921" lon="17.96898121689413"><ele>35.0</ele><time>2026-04-21T18:08:31.019Z</time></trkpt><trkpt lat="40.400615457209895" lon="17.969165613425968"><ele>35.0</ele><time>2026-04-21T18:08:32.019Z</time></trkpt><trkpt lat="40.40060640531238" lon="17.96934344579012"><ele>35.0</ele><time>2026-04-21T18:08:33.019Z</time></trkpt><trkpt lat="40.40059790692108" lon="17.969525650068213"><ele>34.75</ele><time>2026-04-21T18:08:34.019Z</time></trkpt><trkpt lat="40.40059362886161" lon="17.969714700150153"><ele>34.5</ele><time>2026-04-21T18:08:35.019Z</time></trkpt><trkpt lat="40.40058493066287" lon="17.969905631322813"><ele>34.25</ele><time>2026-04-21T18:08:36.019Z</time></trkpt><trkpt lat="40.400576390464316" lon="17.97007849230599"><ele>34.0</ele><time>2026-04-21T18:08:37.019Z</time></trkpt><trkpt lat="40.40056925941891" lon="17.97023638355689"><ele>34.0</ele><time>2026-04-21T18:08:38.019Z</time></trkpt><trkpt lat="40.40056378780745" lon="17.970385173381867"><ele>34.0</ele><time>2026-04-21T18:08:39.019Z</time></trkpt><trkpt lat="40.40055969136119" lon="17.970506289952247"><ele>34.0</ele><time>2026-04-21T18:08:40.019Z</time></trkpt><trkpt lat="40.40054706940283" lon="17.970609037176565"><ele>34.0</ele><time>2026-04-21T18:08:41.019Z</time></trkpt><trkpt lat="40.400522776158994" lon="17.970701415117155"><ele>34.0</ele><time>2026-04-21T18:08:42.019Z</time></trkpt><trkpt lat="40.40048556720744" lon="17.970841471846786"><ele>34.6</ele><time>2026-04-21T18:08:44.019Z</time></trkpt><trkpt lat="40.40045397945512" lon="17.970931526088386"><ele>35.2</ele><time>2026-04-21T18:08:45.019Z</time></trkpt><trkpt lat="40.400407806505264" lon="17.971030280507502"><ele>35.800000000000004</ele><time>2026-04-21T18:08:46.019Z</time></trkpt><trkpt lat="40.400383223362944" lon="17.97113903948724"><ele>36.4</ele><time>2026-04-21T18:08:47.019Z</time></trkpt><trkpt lat="40.40039383463527" lon="17.971267185355657"><ele>37.0</ele><time>2026-04-21T18:08:48.019Z</time></trkpt><trkpt lat="40.400436107690666" lon="17.9714106204536"><ele>37.0</ele><time>2026-04-21T18:08:49.019Z</time></trkpt><trkpt lat="40.40048169715466" lon="17.971568069359115"><ele>37.0</ele><time>2026-04-21T18:08:50.019Z</time></trkpt><trkpt lat="40.40049360751122" lon="17.971725853297443"><ele>37.0</ele><time>2026-04-21T18:08:51.019Z</time></trkpt><trkpt lat="40.4004858880402" lon="17.97191245739578"><ele>37.0</ele><time>2026-04-21T18:08:52.019Z</time></trkpt><trkpt lat="40.40046401264763" lon="17.97212196396665"><ele>37.0</ele><time>2026-04-21T18:08:53.019Z</time></trkpt><trkpt lat="40.400447313494745" lon="17.972356824642876"><ele>37.0</ele><time>2026-04-21T18:08:54.019Z</time></trkpt><trkpt lat="40.40044378793474" lon="17.97261806366654"><ele>37.0</ele><time>2026-04-21T18:08:55.019Z</time></trkpt><trkpt lat="40.400455290865494" lon="17.972894722516678"><ele>37.0</ele><time>2026-04-21T18:08:56.019Z</time></trkpt><trkpt lat="40.400452270531694" lon="17.97320395732126"><ele>37.0</ele><time>2026-04-21T18:08:57.019Z</time></trkpt><trkpt lat="40.400436330770994" lon="17.97352028011307"><ele>36.5</ele><time>2026-04-21T18:08:58.019Z</time></trkpt><trkpt lat="40.400412800111944" lon="17.97384563029937"><ele>36.0</ele><time>2026-04-21T18:08:59.019Z</time></trkpt><trkpt lat="40.40039316091497" lon="17.974167682560378"><ele>35.0</ele><time>2026-04-21T18:09:00.019Z</time></trkpt><trkpt lat="40.40037701848429" lon="17.974498853765393"><ele>34.0</ele><time>2026-04-21T18:09:01.019Z</time></trkpt><trkpt lat="40.400363020626735" lon="17.974828284259907"><ele>34.0</ele><time>2026-04-21T18:09:02.019Z</time></trkpt><trkpt lat="40.40034960612187" lon="17.975142594841817"><ele>34.0</ele><time>2026-04-21T18:09:03.019Z</time></trkpt><trkpt lat="40.40033556617516" lon="17.975453921091425"><ele>34.0</ele><time>2026-04-21T18:09:04.019Z</time></trkpt><trkpt lat="40.40031905745393" lon="17.97576807256193"><ele>34.0</ele><time>2026-04-21T18:09:05.019Z</time></trkpt><trkpt lat="40.40030371488265" lon="17.97608115859631"><ele>33.5</ele><time>2026-04-21T18:09:06.019Z</time></trkpt><trkpt lat="40.40028638347058" lon="17.976394226658126"><ele>33.0</ele><time>2026-04-21T18:09:07.019Z</time></trkpt><trkpt lat="40.4002733042385" lon="17.976695144260272"><ele>34.0</ele><time>2026-04-21T18:09:08.019Z</time></trkpt><trkpt lat="40.40025900755049" lon="17.97700012703114"><ele>35.0</ele><time>2026-04-21T18:09:09.019Z</time></trkpt><trkpt lat="40.40024446151495" lon="17.97730839183474"><ele>34.5</ele><time>2026-04-21T18:09:10.019Z</time></trkpt><trkpt lat="40.40023435818643" lon="17.97761268068117"><ele>34.0</ele><time>2026-04-21T18:09:11.019Z</time></trkpt><trkpt lat="40.400218910562764" lon="17.97792408141716"><ele>34.0</ele><time>2026-04-21T18:09:12.019Z</time></trkpt><trkpt lat="40.40020709302364" lon="17.978226472905472"><ele>34.0</ele><time>2026-04-21T18:09:13.019Z</time></trkpt><trkpt lat="40.40019289966904" lon="17.97852732295338"><ele>34.0</ele><time>2026-04-21T18:09:14.019Z</time></trkpt><trkpt lat="40.40017780367094" lon="17.978825556067626"><ele>34.0</ele><time>2026-04-21T18:09:15.019Z</time></trkpt><trkpt lat="40.400164223390185" lon="17.97913390335917"><ele>34.0</ele><time>2026-04-21T18:09:16.019Z</time></trkpt><trkpt lat="40.400149302062616" lon="17.979443653827726"><ele>34.0</ele><time>2026-04-21T18:09:17.019Z</time></trkpt><trkpt lat="40.40013516483197" lon="17.97974463475582"><ele>34.0</ele><time>2026-04-21T18:09:18.021Z</time></trkpt><trkpt lat="40.400129235929825" lon="17.98005072604535"><ele>34.0</ele><time>2026-04-21T18:09:19.02Z</time></trkpt><trkpt lat="40.400116446117856" lon="17.98035397030023"><ele>34.0</ele><time>2026-04-21T18:09:20.02Z</time></trkpt><trkpt lat="40.400101111815786" lon="17.980657875779208"><ele>34.0</ele><time>2026-04-21T18:09:21.02Z</time></trkpt><trkpt lat="40.400083499151705" lon="17.980959769960627"><ele>33.5</ele><time>2026-04-21T18:09:22.02Z</time></trkpt><trkpt lat="40.40007101667293" lon="17.981272870634214"><ele>33.0</ele><time>2026-04-21T18:09:23.02Z</time></trkpt><trkpt lat="40.400054156190755" lon="17.981586668098235"><ele>33.0</ele><time>2026-04-21T18:09:24.021Z</time></trkpt><trkpt lat="40.40003795970464" lon="17.981904072370703"><ele>33.0</ele><time>2026-04-21T18:09:25.02Z</time></trkpt><trkpt lat="40.40002369586403" lon="17.9822188960999"><ele>31.5</ele><time>2026-04-21T18:09:26.02Z</time></trkpt><trkpt lat="40.40001061120598" lon="17.982536055738745"><ele>30.0</ele><time>2026-04-21T18:09:27.021Z</time></trkpt><trkpt lat="40.39999429589588" lon="17.9828507905129"><ele>30.0</ele><time>2026-04-21T18:09:28.02Z</time></trkpt><trkpt lat="40.3999802754437" lon="17.983170898083035"><ele>30.0</ele><time>2026-04-21T18:09:29.02Z</time></trkpt><trkpt lat="40.39996548981583" lon="17.98349193984682"><ele>30.0</ele><time>2026-04-21T18:09:30.02Z</time></trkpt><trkpt lat="40.39995360080801" lon="17.983810348582146"><ele>30.0</ele><time>2026-04-21T18:09:31.021Z</time></trkpt><trkpt lat="40.399937383284694" lon="17.98413175273084"><ele>30.5</ele><time>2026-04-21T18:09:32.021Z</time></trkpt><trkpt lat="40.399920451247084" lon="17.984452982706372"><ele>31.0</ele><time>2026-04-21T18:09:33.021Z</time></trkpt><trkpt lat="40.399903907627305" lon="17.98477141002175"><ele>33.0</ele><time>2026-04-21T18:09:34.021Z</time></trkpt><trkpt lat="40.399890006732" lon="17.985085474920776"><ele>35.0</ele><time>2026-04-21T18:09:35.021Z</time></trkpt><trkpt lat="40.39987281556078" lon="17.985403073195886"><ele>35.0</ele><time>2026-04-21T18:09:36.021Z</time></trkpt><trkpt lat="40.39985986674512" lon="17.985718039403466"><ele>35.0</ele><time>2026-04-21T18:09:37.021Z</time></trkpt><trkpt lat="40.39984247325531" lon="17.98603491328109"><ele>34.0</ele><time>2026-04-21T18:09:38.021Z</time></trkpt><trkpt lat="40.39982737459803" lon="17.986353058321345"><ele>33.0</ele><time>2026-04-21T18:09:39.021Z</time></trkpt><trkpt lat="40.39981289303207" lon="17.986667308628075"><ele>33.0</ele><time>2026-04-21T18:09:40.021Z</time></trkpt><trkpt lat="40.399795848829136" lon="17.98698483702873"><ele>33.0</ele><time>2026-04-21T18:09:41.021Z</time></trkpt><trkpt lat="40.39978406256891" lon="17.987292838337137"><ele>32.0</ele><time>2026-04-21T18:09:42.021Z</time></trkpt><trkpt lat="40.399772779683396" lon="17.987599793885437"><ele>31.0</ele><time>2026-04-21T18:09:43.021Z</time></trkpt><trkpt lat="40.399757628597314" lon="17.98790191543417"><ele>31.0</ele><time>2026-04-21T18:09:44.021Z</time></trkpt><trkpt lat="40.39974351188607" lon="17.98820606332324"><ele>31.0</ele><time>2026-04-21T18:09:45.021Z</time></trkpt><trkpt lat="40.39973229292449" lon="17.9885082537178"><ele>31.0</ele><time>2026-04-21T18:09:46.021Z</time></trkpt><trkpt lat="40.39971986393158" lon="17.988808364147125"><ele>31.0</ele><time>2026-04-21T18:09:47.021Z</time></trkpt><trkpt lat="40.399708407434936" lon="17.98910798770528"><ele>31.0</ele><time>2026-04-21T18:09:48.021Z</time></trkpt><trkpt lat="40.39969414564311" lon="17.989406035125967"><ele>31.0</ele><time>2026-04-21T18:09:49.021Z</time></trkpt><trkpt lat="40.39967573688264" lon="17.989707024658664"><ele>31.0</ele><time>2026-04-21T18:09:50.021Z</time></trkpt><trkpt lat="40.39966332538464" lon="17.989997769492884"><ele>31.0</ele><time>2026-04-21T18:09:51.021Z</time></trkpt><trkpt lat="40.39965218242252" lon="17.99028611445648"><ele>31.0</ele><time>2026-04-21T18:09:52.021Z</time></trkpt><trkpt lat="40.39963915666392" lon="17.990575062962034"><ele>31.333333333333336</ele><time>2026-04-21T18:09:53.021Z</time></trkpt><trkpt lat="40.399628011775874" lon="17.99086162861437"><ele>31.666666666666664</ele><time>2026-04-21T18:09:54.021Z</time></trkpt><trkpt lat="40.39961192586769" lon="17.991143884107654"><ele>32.0</ele><time>2026-04-21T18:09:55.021Z</time></trkpt><trkpt lat="40.39959845125617" lon="17.991422407014394"><ele>33.0</ele><time>2026-04-21T18:09:56.021Z</time></trkpt><trkpt lat="40.399585469650255" lon="17.991714686720904"><ele>34.0</ele><time>2026-04-21T18:09:57.021Z</time></trkpt><trkpt lat="40.39957276920154" lon="17.991996368741983"><ele>35.0</ele><time>2026-04-21T18:09:58.021Z</time></trkpt><trkpt lat="40.399559073525765" lon="17.992276084157318"><ele>35.0</ele><time>2026-04-21T18:09:59.021Z</time></trkpt><trkpt lat="40.399547192963986" lon="17.99255339102272"><ele>35.0</ele><time>2026-04-21T18:10:00.021Z</time></trkpt><trkpt lat="40.399528837853396" lon="17.992822295472813"><ele>35.0</ele><time>2026-04-21T18:10:01.021Z</time></trkpt><trkpt lat="40.39951673043428" lon="17.993085615416348"><ele>35.33333333333333</ele><time>2026-04-21T18:10:02.021Z</time></trkpt><trkpt lat="40.39950365585907" lon="17.993344871928485"><ele>35.666666666666664</ele><time>2026-04-21T18:10:03.021Z</time></trkpt><trkpt lat="40.399497926874766" lon="17.993598471956126"><ele>36.0</ele><time>2026-04-21T18:10:04.021Z</time></trkpt><trkpt lat="40.399491359193206" lon="17.993857382260924"><ele>36.0</ele><time>2026-04-21T18:10:05.021Z</time></trkpt><trkpt lat="40.399480267548746" lon="17.9941059530611"><ele>36.0</ele><time>2026-04-21T18:10:06.021Z</time></trkpt><trkpt lat="40.399472074213364" lon="17.994354308251346"><ele>36.0</ele><time>2026-04-21T18:10:07.021Z</time></trkpt><trkpt lat="40.39946084229134" lon="17.994621054590105"><ele>35.666666666666664</ele><time>2026-04-21T18:10:08.021Z</time></trkpt><trkpt lat="40.39945707030209" lon="17.994899826407327"><ele>35.33333333333333</ele><time>2026-04-21T18:10:09.021Z</time></trkpt><trkpt lat="40.3994515680574" lon="17.995206184942"><ele>35.0</ele><time>2026-04-21T18:10:10.021Z</time></trkpt><trkpt lat="40.399442881429685" lon="17.995531350937384"><ele>34.5</ele><time>2026-04-21T18:10:11.021Z</time></trkpt><trkpt lat="40.399434371334934" lon="17.995886201191357"><ele>34.0</ele><time>2026-04-21T18:10:12.021Z</time></trkpt><trkpt lat="40.39942027640707" lon="17.996240733887912"><ele>34.0</ele><time>2026-04-21T18:10:13.021Z</time></trkpt><trkpt lat="40.399394288655266" lon="17.996594213690514"><ele>34.0</ele><time>2026-04-21T18:10:14.021Z</time></trkpt><trkpt lat="40.39937120668115" lon="17.996944740297206"><ele>34.0</ele><time>2026-04-21T18:10:15.021Z</time></trkpt><trkpt lat="40.399349896505385" lon="17.997293510117903"><ele>34.0</ele><time>2026-04-21T18:10:16.021Z</time></trkpt><trkpt lat="40.39932793745237" lon="17.99764400748207"><ele>34.5</ele><time>2026-04-21T18:10:17.021Z</time></trkpt><trkpt lat="40.39931106606084" lon="17.99799275483886"><ele>35.0</ele><time>2026-04-21T18:10:18.021Z</time></trkpt><trkpt lat="40.39929620137692" lon="17.99834140099148"><ele>33.5</ele><time>2026-04-21T18:10:19.021Z</time></trkpt><trkpt lat="40.39928061319173" lon="17.99868125221458"><ele>32.0</ele><time>2026-04-21T18:10:20.021Z</time></trkpt><trkpt lat="40.399265076428904" lon="17.999003288530886"><ele>31.0</ele><time>2026-04-21T18:10:21.021Z</time></trkpt><trkpt lat="40.39925518327895" lon="17.999308023933605"><ele>30.0</ele><time>2026-04-21T18:10:22.021Z</time></trkpt><trkpt lat="40.39924421741519" lon="17.999615318551875"><ele>30.0</ele><time>2026-04-21T18:10:23.021Z</time></trkpt><trkpt lat="40.399230927834566" lon="17.999920764802972"><ele>30.0</ele><time>2026-04-21T18:10:24.021Z</time></trkpt><trkpt lat="40.39921584249897" lon="18.00022523958948"><ele>30.0</ele><time>2026-04-21T18:10:25.021Z</time></trkpt><trkpt lat="40.399197925263906" lon="18.000524201261904"><ele>30.0</ele><time>2026-04-21T18:10:26.021Z</time></trkpt><trkpt lat="40.39918695580384" lon="18.0008110668644"><ele>30.0</ele><time>2026-04-21T18:10:27.021Z</time></trkpt><trkpt lat="40.39917467024163" lon="18.001083290410484"><ele>30.333333333333336</ele><time>2026-04-21T18:10:28.021Z</time></trkpt><trkpt lat="40.39915450124794" lon="18.001342735253733"><ele>30.666666666666668</ele><time>2026-04-21T18:10:29.021Z</time></trkpt><trkpt lat="40.399132073878626" lon="18.001610889173783"><ele>31.0</ele><time>2026-04-21T18:10:30.021Z</time></trkpt><trkpt lat="40.3991211759914" lon="18.001876791779512"><ele>30.333333333333336</ele><time>2026-04-21T18:10:31.021Z</time></trkpt><trkpt lat="40.39911176655281" lon="18.00214994354465"><ele>29.666666666666664</ele><time>2026-04-21T18:10:32.021Z</time></trkpt><trkpt lat="40.39909878873331" lon="18.002419512199154"><ele>29.0</ele><time>2026-04-21T18:10:33.021Z</time></trkpt><trkpt lat="40.39907976783951" lon="18.00270584982706"><ele>28.0</ele><time>2026-04-21T18:10:34.021Z</time></trkpt><trkpt lat="40.39905014524983" lon="18.00299245988467"><ele>27.0</ele><time>2026-04-21T18:10:35.021Z</time></trkpt><trkpt lat="40.39901800920271" lon="18.003296984941347"><ele>27.0</ele><time>2026-04-21T18:10:36.021Z</time></trkpt><trkpt lat="40.398991657096836" lon="18.003599332417313"><ele>27.0</ele><time>2026-04-21T18:10:37.021Z</time></trkpt><trkpt lat="40.398961216885716" lon="18.003911881185328"><ele>27.0</ele><time>2026-04-21T18:10:38.021Z</time></trkpt><trkpt lat="40.39893291707539" lon="18.004201543013014"><ele>27.0</ele><time>2026-04-21T18:10:39.021Z</time></trkpt><trkpt lat="40.398919895891666" lon="18.004469631035658"><ele>27.0</ele><time>2026-04-21T18:10:40.021Z</time></trkpt><trkpt lat="40.39892529377248" lon="18.004709030823225"><ele>27.0</ele><time>2026-04-21T18:10:41.021Z</time></trkpt><trkpt lat="40.3989703458527" lon="18.004899093239388"><ele>27.0</ele><time>2026-04-21T18:10:42.021Z</time></trkpt><trkpt lat="40.39897567809701" lon="18.00512898981839"><ele>27.0</ele><time>2026-04-21T18:10:43.021Z</time></trkpt><trkpt lat="40.39897035567549" lon="18.005351820229844"><ele>27.333333333333336</ele><time>2026-04-21T18:10:44.021Z</time></trkpt><trkpt lat="40.398966958872926" lon="18.005579228858544"><ele>27.666666666666668</ele><time>2026-04-21T18:10:45.021Z</time></trkpt><trkpt lat="40.39896609681947" lon="18.005797372059412"><ele>28.0</ele><time>2026-04-21T18:10:46.021Z</time></trkpt><trkpt lat="40.398973453910855" lon="18.00601494633792"><ele>29.0</ele><time>2026-04-21T18:10:47.021Z</time></trkpt><trkpt lat="40.398967258732235" lon="18.006231109891633"><ele>30.0</ele><time>2026-04-21T18:10:48.021Z</time></trkpt><trkpt lat="40.39895386540171" lon="18.00643581038322"><ele>31.0</ele><time>2026-04-21T18:10:49.021Z</time></trkpt><trkpt lat="40.39895034378481" lon="18.006625791002616"><ele>30.5</ele><time>2026-04-21T18:10:50.021Z</time></trkpt><trkpt lat="40.39894479136774" lon="18.00682024558947"><ele>30.0</ele><time>2026-04-21T18:10:51.021Z</time></trkpt><trkpt lat="40.39893965570727" lon="18.00701709264129"><ele>29.5</ele><time>2026-04-21T18:10:52.021Z</time></trkpt><trkpt lat="40.39893422463615" lon="18.00720273778579"><ele>29.0</ele><time>2026-04-21T18:10:53.021Z</time></trkpt><trkpt lat="40.39893984388723" lon="18.007393096906057"><ele>28.75</ele><time>2026-04-21T18:10:54.021Z</time></trkpt><trkpt lat="40.398932270790446" lon="18.007558483949886"><ele>28.5</ele><time>2026-04-21T18:10:55.021Z</time></trkpt><trkpt lat="40.39893978845013" lon="18.007723914765695"><ele>28.25</ele><time>2026-04-21T18:10:56.021Z</time></trkpt><trkpt lat="40.39895059482997" lon="18.007879149690947"><ele>28.0</ele><time>2026-04-21T18:10:57.021Z</time></trkpt><trkpt lat="40.39897987681115" lon="18.00802751275748"><ele>28.000000000000004</ele><time>2026-04-21T18:10:58.021Z</time></trkpt><trkpt lat="40.39901399690794" lon="18.008166285597266"><ele>28.0</ele><time>2026-04-21T18:10:59.021Z</time></trkpt><trkpt lat="40.39904438681447" lon="18.008296503379334"><ele>28.0</ele><time>2026-04-21T18:11:00.021Z</time></trkpt><trkpt lat="40.39907055703505" lon="18.00840067665614"><ele>28.0</ele><time>2026-04-21T18:11:01.021Z</time></trkpt><trkpt lat="40.39908009716916" lon="18.008487965792575"><ele>28.000000000000004</ele><time>2026-04-21T18:11:02.021Z</time></trkpt><trkpt lat="40.39904107706754" lon="18.008572004831453"><ele>28.0</ele><time>2026-04-21T18:11:04.021Z</time></trkpt><trkpt lat="40.39898331152863" lon="18.00861067552776"><ele>28.25</ele><time>2026-04-21T18:11:06.021Z</time></trkpt><trkpt lat="40.399033288508086" lon="18.00854293060885"><ele>28.5</ele><time>2026-04-21T18:11:08.021Z</time></trkpt><trkpt lat="40.39890329305619" lon="18.008706605618865"><ele>28.75</ele><time>2026-04-21T18:11:09.021Z</time></trkpt><trkpt lat="40.39887144560139" lon="18.008827942344507"><ele>29.0</ele><time>2026-04-21T18:11:11.021Z</time></trkpt><trkpt lat="40.39885373485382" lon="18.008990244187814"><ele>28.999999999999996</ele><time>2026-04-21T18:11:13.021Z</time></trkpt><trkpt lat="40.39887683843108" lon="18.00907515097975"><ele>29.0</ele><time>2026-04-21T18:11:14.021Z</time></trkpt><trkpt lat="40.39892155513811" lon="18.009147826248206"><ele>29.0</ele><time>2026-04-21T18:11:15.021Z</time></trkpt><trkpt lat="40.39898247770372" lon="18.00921112608306"><ele>29.0</ele><time>2026-04-21T18:11:16.021Z</time></trkpt><trkpt lat="40.39906415436462" lon="18.009260855092847"><ele>28.999999999999996</ele><time>2026-04-21T18:11:17.021Z</time></trkpt><trkpt lat="40.399142385962286" lon="18.00931680571155"><ele>29.0</ele><time>2026-04-21T18:11:18.021Z</time></trkpt><trkpt lat="40.39921215891396" lon="18.00939545854235"><ele>29.25</ele><time>2026-04-21T18:11:19.021Z</time></trkpt><trkpt lat="40.39927319292338" lon="18.009507909904315"><ele>29.5</ele><time>2026-04-21T18:11:20.021Z</time></trkpt><trkpt lat="40.39933302750688" lon="18.009641586425914"><ele>29.75</ele><time>2026-04-21T18:11:21.021Z</time></trkpt><trkpt lat="40.39938891772612" lon="18.009791712727885"><ele>30.0</ele><time>2026-04-21T18:11:22.021Z</time></trkpt><trkpt lat="40.399454258170536" lon="18.00997576133566"><ele>29.666666666666664</ele><time>2026-04-21T18:11:23.021Z</time></trkpt><trkpt lat="40.39953811668691" lon="18.010194693623"><ele>29.333333333333332</ele><time>2026-04-21T18:11:24.021Z</time></trkpt><trkpt lat="40.3996278927468" lon="18.010392425611705"><ele>29.0</ele><time>2026-04-21T18:11:25.021Z</time></trkpt><trkpt lat="40.39970589577159" lon="18.01053441666432"><ele>28.999999999999996</ele><time>2026-04-21T18:11:26.022Z</time></trkpt><trkpt lat="40.39976852235634" lon="18.010644631664757"><ele>29.0</ele><time>2026-04-21T18:11:27.021Z</time></trkpt><trkpt lat="40.3998150775732" lon="18.010742291433868"><ele>29.0</ele><time>2026-04-21T18:11:28.021Z</time></trkpt><trkpt lat="40.39985206545941" lon="18.01081740067654"><ele>29.0</ele><time>2026-04-21T18:11:29.022Z</time></trkpt><trkpt lat="40.39991268634219" lon="18.01089723012578"><ele>28.999999999999996</ele><time>2026-04-21T18:11:31.021Z</time></trkpt><trkpt lat="40.39997900687804" lon="18.01096571308842"><ele>29.0</ele><time>2026-04-21T18:11:33.021Z</time></trkpt><trkpt lat="40.400038356535084" lon="18.011060820690762"><ele>29.333333333333332</ele><time>2026-04-21T18:11:35.022Z</time></trkpt><trkpt lat="40.40010690265966" lon="18.011182131977517"><ele>29.666666666666664</ele><time>2026-04-21T18:11:37.021Z</time></trkpt><trkpt lat="40.400152832558966" lon="18.011245957204906"><ele>30.0</ele><time>2026-04-21T18:11:38.021Z</time></trkpt><trkpt lat="40.400207343626725" lon="18.01131504120719"><ele>30.333333333333336</ele><time>2026-04-21T18:11:39.021Z</time></trkpt><trkpt lat="40.400264601303064" lon="18.01139143761936"><ele>30.666666666666668</ele><time>2026-04-21T18:11:40.021Z</time></trkpt><trkpt lat="40.40032051569485" lon="18.01147110626931"><ele>31.0</ele><time>2026-04-21T18:11:41.021Z</time></trkpt><trkpt lat="40.4003836312738" lon="18.01155454812421"><ele>31.0</ele><time>2026-04-21T18:11:42.021Z</time></trkpt><trkpt lat="40.40044259099214" lon="18.011641944848332"><ele>31.0</ele><time>2026-04-21T18:11:43.021Z</time></trkpt><trkpt lat="40.400502742542564" lon="18.011739979243536"><ele>31.0</ele><time>2026-04-21T18:11:44.021Z</time></trkpt><trkpt lat="40.400574684450795" lon="18.011843150276608"><ele>31.0</ele><time>2026-04-21T18:11:45.021Z</time></trkpt><trkpt lat="40.40064532581944" lon="18.011940706243625"><ele>31.0</ele><time>2026-04-21T18:11:46.021Z</time></trkpt><trkpt lat="40.40071287790832" lon="18.012026914512013"><ele>30.833333333333336</ele><time>2026-04-21T18:11:47.021Z</time></trkpt><trkpt lat="40.40076131578288" lon="18.012088863854824"><ele>30.666666666666668</ele><time>2026-04-21T18:11:48.021Z</time></trkpt><trkpt lat="40.400839291746536" lon="18.01210260853923"><ele>30.5</ele><time>2026-04-21T18:11:51.021Z</time></trkpt><trkpt lat="40.40088018841461" lon="18.01201560216798"><ele>30.333333333333336</ele><time>2026-04-21T18:11:54.021Z</time></trkpt><trkpt lat="40.40083611352123" lon="18.011925314422324"><ele>30.166666666666668</ele><time>2026-04-21T18:11:56.021Z</time></trkpt><trkpt lat="40.40074468656935" lon="18.011833433885638"><ele>30.0</ele><time>2026-04-21T18:11:58.021Z</time></trkpt><trkpt lat="40.40068849773926" lon="18.0117772092773"><ele>30.0</ele><time>2026-04-21T18:12:00.021Z</time></trkpt><trkpt lat="40.40063295693281" lon="18.01173829413336"><ele>30.0</ele><time>2026-04-21T18:14:12.022Z</time></trkpt><trkpt lat="40.40058168566656" lon="18.011795039689005"><ele>30.0</ele><time>2026-04-21T18:14:23.022Z</time></trkpt><trkpt lat="40.40064696936486" lon="18.011947953821274"><ele>30.0</ele><time>2026-04-21T18:14:26.022Z</time></trkpt><trkpt lat="40.40071401897963" lon="18.012040442583558"><ele>30.0</ele><time>2026-04-21T18:14:27.022Z</time></trkpt><trkpt lat="40.40078579281441" lon="18.01215018878367"><ele>30.0</ele><time>2026-04-21T18:14:28.022Z</time></trkpt><trkpt lat="40.40086447217543" lon="18.012261216081242"><ele>30.0</ele><time>2026-04-21T18:14:29.022Z</time></trkpt><trkpt lat="40.40094005489136" lon="18.01235113706282"><ele>30.0</ele><time>2026-04-21T18:14:30.022Z</time></trkpt><trkpt lat="40.40100121834855" lon="18.01242764034905"><ele>30.0</ele><time>2026-04-21T18:14:31.022Z</time></trkpt><trkpt lat="40.40105627287771" lon="18.012510068895786"><ele>30.0</ele><time>2026-04-21T18:14:32.022Z</time></trkpt><trkpt lat="40.401109071813565" lon="18.012589150382528"><ele>30.2</ele><time>2026-04-21T18:14:33.022Z</time></trkpt><trkpt lat="40.401165778738" lon="18.01266646536634"><ele>30.4</ele><time>2026-04-21T18:14:34.022Z</time></trkpt><trkpt lat="40.40121701694409" lon="18.01274989584603"><ele>30.6</ele><time>2026-04-21T18:14:35.022Z</time></trkpt><trkpt lat="40.40128795391358" lon="18.012840038373724"><ele>30.8</ele><time>2026-04-21T18:14:36.022Z</time></trkpt><trkpt lat="40.40136257851173" lon="18.01294738168709"><ele>31.0</ele><time>2026-04-21T18:14:37.022Z</time></trkpt><trkpt lat="40.40143228923071" lon="18.01304915076791"><ele>31.0</ele><time>2026-04-21T18:14:38.022Z</time></trkpt><trkpt lat="40.40148842325128" lon="18.013164070658124"><ele>31.0</ele><time>2026-04-21T18:14:39.022Z</time></trkpt><trkpt lat="40.40154291425134" lon="18.013265088399862"><ele>31.0</ele><time>2026-04-21T18:14:40.022Z</time></trkpt><trkpt lat="40.401602134749815" lon="18.013362985372257"><ele>31.0</ele><time>2026-04-21T18:14:41.022Z</time></trkpt><trkpt lat="40.401670052199165" lon="18.01345201521368"><ele>31.0</ele><time>2026-04-21T18:14:42.022Z</time></trkpt><trkpt lat="40.401737160723826" lon="18.01354823118411"><ele>31.200000000000003</ele><time>2026-04-21T18:14:43.022Z</time></trkpt><trkpt lat="40.401811673144756" lon="18.01364833731133"><ele>31.400000000000002</ele><time>2026-04-21T18:14:44.022Z</time></trkpt><trkpt lat="40.40188867972855" lon="18.013760480139116"><ele>31.6</ele><time>2026-04-21T18:14:45.022Z</time></trkpt><trkpt lat="40.40196169314608" lon="18.013867943205586"><ele>31.8</ele><time>2026-04-21T18:14:46.022Z</time></trkpt><trkpt lat="40.402034085893575" lon="18.013970232051033"><ele>32.0</ele><time>2026-04-21T18:14:47.022Z</time></trkpt><trkpt lat="40.402101252138024" lon="18.01407517773787"><ele>32.2</ele><time>2026-04-21T18:14:48.022Z</time></trkpt><trkpt lat="40.4021657567077" lon="18.014169816559754"><ele>32.400000000000006</ele><time>2026-04-21T18:14:49.022Z</time></trkpt><trkpt lat="40.402216638530774" lon="18.014260974932434"><ele>32.599999999999994</ele><time>2026-04-21T18:14:50.022Z</time></trkpt><trkpt lat="40.40226667944733" lon="18.014336993908582"><ele>32.8</ele><time>2026-04-21T18:14:51.022Z</time></trkpt><trkpt lat="40.40232745812835" lon="18.01442012040583"><ele>33.0</ele><time>2026-04-21T18:14:52.022Z</time></trkpt><trkpt lat="40.4024041470065" lon="18.014518686871607"><ele>33.0</ele><time>2026-04-21T18:14:53.022Z</time></trkpt><trkpt lat="40.40249941373906" lon="18.0146397614283"><ele>33.0</ele><time>2026-04-21T18:14:54.022Z</time></trkpt><trkpt lat="40.402594365066285" lon="18.01477824283482"><ele>33.0</ele><time>2026-04-21T18:14:55.022Z</time></trkpt><trkpt lat="40.40267519493322" lon="18.014923319251913"><ele>33.0</ele><time>2026-04-21T18:14:56.022Z</time></trkpt><trkpt lat="40.4027370507305" lon="18.015026547881924"><ele>33.0</ele><time>2026-04-21T18:14:57.022Z</time></trkpt><trkpt lat="40.40277283673131" lon="18.015119329944856"><ele>33.0</ele><time>2026-04-21T18:14:58.022Z</time></trkpt><trkpt lat="40.402811846644205" lon="18.015212486870197"><ele>33.0</ele><time>2026-04-21T18:14:59.022Z</time></trkpt><trkpt lat="40.40286169677565" lon="18.01528576114114"><ele>33.0</ele><time>2026-04-21T18:15:00.022Z</time></trkpt><trkpt lat="40.40293133860882" lon="18.015399681355124"><ele>33.0</ele><time>2026-04-21T18:15:02.022Z</time></trkpt><trkpt lat="40.40303669899991" lon="18.015549318420305"><ele>32.6</ele><time>2026-04-21T18:15:04.022Z</time></trkpt><trkpt lat="40.40309923321644" lon="18.015662847324776"><ele>32.199999999999996</ele><time>2026-04-21T18:15:05.022Z</time></trkpt><trkpt lat="40.40313887101696" lon="18.01574892410528"><ele>31.8</ele><time>2026-04-21T18:15:06.022Z</time></trkpt><trkpt lat="40.403185941823104" lon="18.01587423933826"><ele>31.4</ele><time>2026-04-21T18:15:08.022Z</time></trkpt><trkpt lat="40.40320563454972" lon="18.01602697523538"><ele>31.0</ele><time>2026-04-21T18:15:10.022Z</time></trkpt><trkpt lat="40.40322633711125" lon="18.016108193686712"><ele>31.0</ele><time>2026-04-21T18:15:11.022Z</time></trkpt><trkpt lat="40.40325829860948" lon="18.01620506306493"><ele>31.0</ele><time>2026-04-21T18:15:12.022Z</time></trkpt><trkpt lat="40.403293096528465" lon="18.016334349017708"><ele>31.0</ele><time>2026-04-21T18:15:13.022Z</time></trkpt><trkpt lat="40.4033164686738" lon="18.016480692681554"><ele>31.0</ele><time>2026-04-21T18:15:14.022Z</time></trkpt><trkpt lat="40.403324445786836" lon="18.01663083232848"><ele>31.0</ele><time>2026-04-21T18:15:15.022Z</time></trkpt><trkpt lat="40.40333221382873" lon="18.01677730502136"><ele>30.6</ele><time>2026-04-21T18:15:16.022Z</time></trkpt><trkpt lat="40.403332039785006" lon="18.016922343515407"><ele>30.200000000000003</ele><time>2026-04-21T18:15:17.022Z</time></trkpt><trkpt lat="40.403326470262854" lon="18.01705335586378"><ele>29.799999999999997</ele><time>2026-04-21T18:15:18.022Z</time></trkpt><trkpt lat="40.403317985849625" lon="18.017176357310785"><ele>29.4</ele><time>2026-04-21T18:15:19.022Z</time></trkpt><trkpt lat="40.40330727662532" lon="18.01729915086873"><ele>29.0</ele><time>2026-04-21T18:15:20.022Z</time></trkpt><trkpt lat="40.403288872243394" lon="18.01743133267946"><ele>28.6</ele><time>2026-04-21T18:15:21.022Z</time></trkpt><trkpt lat="40.40326227477557" lon="18.017558047528972"><ele>28.2</ele><time>2026-04-21T18:15:22.022Z</time></trkpt><trkpt lat="40.403232883716186" lon="18.01768788461107"><ele>27.800000000000004</ele><time>2026-04-21T18:15:23.022Z</time></trkpt><trkpt lat="40.403199618382494" lon="18.01781531316555"><ele>27.400000000000002</ele><time>2026-04-21T18:15:24.022Z</time></trkpt><trkpt lat="40.4031621561743" lon="18.017950942029042"><ele>27.0</ele><time>2026-04-21T18:15:25.022Z</time></trkpt><trkpt lat="40.40311521949154" lon="18.01807554414031"><ele>27.0</ele><time>2026-04-21T18:15:26.022Z</time></trkpt><trkpt lat="40.40307112432559" lon="18.018197389791126"><ele>27.0</ele><time>2026-04-21T18:15:27.022Z</time></trkpt><trkpt lat="40.40302437923983" lon="18.0183318213944"><ele>27.0</ele><time>2026-04-21T18:15:28.022Z</time></trkpt><trkpt lat="40.40296431844905" lon="18.01848254770847"><ele>27.0</ele><time>2026-04-21T18:15:29.022Z</time></trkpt><trkpt lat="40.40289666046109" lon="18.018641756474153"><ele>27.25</ele><time>2026-04-21T18:15:30.022Z</time></trkpt><trkpt lat="40.402827661837875" lon="18.018805461841666"><ele>27.5</ele><time>2026-04-21T18:15:31.022Z</time></trkpt><trkpt lat="40.40277120085967" lon="18.01894550456642"><ele>27.75</ele><time>2026-04-21T18:15:32.022Z</time></trkpt><trkpt lat="40.40272699244645" lon="18.019075138372717"><ele>28.0</ele><time>2026-04-21T18:15:33.022Z</time></trkpt><trkpt lat="40.402694810664684" lon="18.019193317035644"><ele>28.000000000000004</ele><time>2026-04-21T18:15:34.023Z</time></trkpt><trkpt lat="40.402656968083974" lon="18.019294044361235"><ele>28.0</ele><time>2026-04-21T18:15:35.022Z</time></trkpt><trkpt lat="40.402612229870144" lon="18.01941213380207"><ele>28.0</ele><time>2026-04-21T18:15:36.022Z</time></trkpt><trkpt lat="40.40258865582442" lon="18.019517384420325"><ele>28.0</ele><time>2026-04-21T18:15:37.023Z</time></trkpt><trkpt lat="40.40257074062122" lon="18.019619031401852"><ele>28.000000000000004</ele><time>2026-04-21T18:15:38.023Z</time></trkpt><trkpt lat="40.402544258759455" lon="18.01972344920694"><ele>28.0</ele><time>2026-04-21T18:15:39.023Z</time></trkpt><trkpt lat="40.402520867421785" lon="18.01983202570745"><ele>28.000000000000004</ele><time>2026-04-21T18:15:40.023Z</time></trkpt><trkpt lat="40.402487258904976" lon="18.019904048587946"><ele>28.0</ele><time>2026-04-21T18:15:41.022Z</time></trkpt><trkpt lat="40.402457931589964" lon="18.019990158366674"><ele>28.0</ele><time>2026-04-21T18:15:42.022Z</time></trkpt><trkpt lat="40.402414863187396" lon="18.020075293118964"><ele>28.0</ele><time>2026-04-21T18:15:43.023Z</time></trkpt><trkpt lat="40.4023754393485" lon="18.020164559371292"><ele>28.000000000000004</ele><time>2026-04-21T18:15:44.023Z</time></trkpt><trkpt lat="40.402296382621294" lon="18.02030162819707"><ele>28.0</ele><time>2026-04-21T18:15:45.023Z</time></trkpt><trkpt lat="40.40221441041842" lon="18.020433637229488"><ele>27.799999999999997</ele><time>2026-04-21T18:15:46.023Z</time></trkpt><trkpt lat="40.40213085288857" lon="18.02056735244582"><ele>27.599999999999998</ele><time>2026-04-21T18:15:47.023Z</time></trkpt><trkpt lat="40.402069118761744" lon="18.02067835001469"><ele>27.400000000000002</ele><time>2026-04-21T18:15:48.023Z</time></trkpt><trkpt lat="40.402023434972634" lon="18.020772653437668"><ele>27.200000000000003</ele><time>2026-04-21T18:15:49.023Z</time></trkpt><trkpt lat="40.40199062624876" lon="18.02085070754468"><ele>27.0</ele><time>2026-04-21T18:15:50.023Z</time></trkpt><trkpt lat="40.40195679457234" lon="18.020920428626425"><ele>27.333333333333332</ele><time>2026-04-21T18:15:51.023Z</time></trkpt><trkpt lat="40.40191247323412" lon="18.020989403991603"><ele>27.666666666666664</ele><time>2026-04-21T18:15:52.023Z</time></trkpt><trkpt lat="40.401864090732424" lon="18.021055431906483"><ele>28.0</ele><time>2026-04-21T18:15:53.023Z</time></trkpt><trkpt lat="40.4018086197578" lon="18.021127147648734"><ele>28.333333333333332</ele><time>2026-04-21T18:15:54.023Z</time></trkpt><trkpt lat="40.40174499279574" lon="18.02120031280784"><ele>28.666666666666664</ele><time>2026-04-21T18:15:55.023Z</time></trkpt><trkpt lat="40.401671781207156" lon="18.021272171842956"><ele>29.0</ele><time>2026-04-21T18:15:56.023Z</time></trkpt><trkpt lat="40.401596311522134" lon="18.021351677283416"><ele>29.0</ele><time>2026-04-21T18:15:57.023Z</time></trkpt><trkpt lat="40.40151431913433" lon="18.02141769755507"><ele>29.0</ele><time>2026-04-21T18:15:58.023Z</time></trkpt><trkpt lat="40.40143025834411" lon="18.021478156729856"><ele>29.0</ele><time>2026-04-21T18:15:59.023Z</time></trkpt><trkpt lat="40.401339750265386" lon="18.021550040475802"><ele>29.0</ele><time>2026-04-21T18:16:00.023Z</time></trkpt><trkpt lat="40.40123697135599" lon="18.02162664370751"><ele>29.0</ele><time>2026-04-21T18:16:01.023Z</time></trkpt><trkpt lat="40.40113991598854" lon="18.021694880189653"><ele>29.25</ele><time>2026-04-21T18:16:02.023Z</time></trkpt><trkpt lat="40.4010319494876" lon="18.021791383326985"><ele>29.5</ele><time>2026-04-21T18:16:03.023Z</time></trkpt><trkpt lat="40.400907558655526" lon="18.02190213264078"><ele>29.75</ele><time>2026-04-21T18:16:04.023Z</time></trkpt><trkpt lat="40.40078069223795" lon="18.0219858243716"><ele>30.0</ele><time>2026-04-21T18:16:05.023Z</time></trkpt><trkpt lat="40.400679984755314" lon="18.022071459137265"><ele>30.0</ele><time>2026-04-21T18:16:06.023Z</time></trkpt><trkpt lat="40.40061083857104" lon="18.022160460001754"><ele>30.0</ele><time>2026-04-21T18:16:07.023Z</time></trkpt><trkpt lat="40.400534698740834" lon="18.022203179102313"><ele>30.0</ele><time>2026-04-21T18:16:08.023Z</time></trkpt><trkpt lat="40.40042459656163" lon="18.02222636325493"><ele>30.0</ele><time>2026-04-21T18:16:09.023Z</time></trkpt><trkpt lat="40.400328608518066" lon="18.022272917181176"><ele>30.0</ele><time>2026-04-21T18:16:10.023Z</time></trkpt><trkpt lat="40.40022982923337" lon="18.022295029395963"><ele>30.166666666666668</ele><time>2026-04-21T18:16:11.023Z</time></trkpt><trkpt lat="40.400161066870396" lon="18.022329222109892"><ele>30.333333333333336</ele><time>2026-04-21T18:16:12.023Z</time></trkpt><trkpt lat="40.40009433228314" lon="18.022375189690667"><ele>30.5</ele><time>2026-04-21T18:16:13.023Z</time></trkpt><trkpt lat="40.40003456060169" lon="18.02243100559149"><ele>30.666666666666668</ele><time>2026-04-21T18:16:14.023Z</time></trkpt><trkpt lat="40.39998870336354" lon="18.02248828323317"><ele>30.833333333333336</ele><time>2026-04-21T18:16:15.023Z</time></trkpt><trkpt lat="40.39992801747505" lon="18.022533894925736"><ele>31.0</ele><time>2026-04-21T18:16:16.023Z</time></trkpt><trkpt lat="40.40016454340998" lon="18.02263244102748"><ele>30.500000000000004</ele><time>2026-04-21T18:16:17.023Z</time></trkpt><trkpt lat="40.40010942139484" lon="18.0226863176538"><ele>30.0</ele><time>2026-04-21T18:16:18.023Z</time></trkpt><trkpt lat="40.40005503396508" lon="18.02273219907256"><ele>29.5</ele><time>2026-04-21T18:16:19.023Z</time></trkpt><trkpt lat="40.39998189021163" lon="18.022786222703846"><ele>29.0</ele><time>2026-04-21T18:16:20.023Z</time></trkpt><trkpt lat="40.399903401636166" lon="18.022861278686026"><ele>28.500000000000004</ele><time>2026-04-21T18:16:21.023Z</time></trkpt><trkpt lat="40.39980984359576" lon="18.02294669107053"><ele>28.0</ele><time>2026-04-21T18:16:22.023Z</time></trkpt><trkpt lat="40.39973999580182" lon="18.023026318035893"><ele>28.0</ele><time>2026-04-21T18:16:23.023Z</time></trkpt><trkpt lat="40.399675906585195" lon="18.023089002423113"><ele>27.999999999999996</ele><time>2026-04-21T18:16:24.023Z</time></trkpt><trkpt lat="40.399604575230796" lon="18.023143568776057"><ele>27.999999999999996</ele><time>2026-04-21T18:16:25.023Z</time></trkpt><trkpt lat="40.39952731439718" lon="18.02322313981803"><ele>28.0</ele><time>2026-04-21T18:16:26.023Z</time></trkpt><trkpt lat="40.39944414500232" lon="18.02328738614703"><ele>28.0</ele><time>2026-04-21T18:16:27.023Z</time></trkpt><trkpt lat="40.39936389756267" lon="18.023366752492386"><ele>28.4</ele><time>2026-04-21T18:16:28.023Z</time></trkpt><trkpt lat="40.39928448673971" lon="18.023446238462864"><ele>28.799999999999997</ele><time>2026-04-21T18:16:29.023Z</time></trkpt><trkpt lat="40.3991991308251" lon="18.0235333505514"><ele>29.2</ele><time>2026-04-21T18:16:30.023Z</time></trkpt><trkpt lat="40.39911100478464" lon="18.023627435959934"><ele>29.6</ele><time>2026-04-21T18:16:31.023Z</time></trkpt><trkpt lat="40.39902206667721" lon="18.023698559224506"><ele>30.0</ele><time>2026-04-21T18:16:32.023Z</time></trkpt><trkpt lat="40.39894497205351" lon="18.023774100029982"><ele>30.0</ele><time>2026-04-21T18:16:33.023Z</time></trkpt><trkpt lat="40.398869369991324" lon="18.023852564719476"><ele>30.0</ele><time>2026-04-21T18:16:34.023Z</time></trkpt><trkpt lat="40.39878966131341" lon="18.023928079944547"><ele>30.0</ele><time>2026-04-21T18:16:35.023Z</time></trkpt><trkpt lat="40.398720152798504" lon="18.023995515792432"><ele>30.0</ele><time>2026-04-21T18:16:36.023Z</time></trkpt><trkpt lat="40.398659848744394" lon="18.02406018618763"><ele>30.0</ele><time>2026-04-21T18:16:37.023Z</time></trkpt><trkpt lat="40.39859917254826" lon="18.024115088905223"><ele>30.0</ele><time>2026-04-21T18:16:38.023Z</time></trkpt><trkpt lat="40.398541846212055" lon="18.024171048778687"><ele>29.833333333333332</ele><time>2026-04-21T18:16:39.023Z</time></trkpt><trkpt lat="40.398444506027275" lon="18.024246376850325"><ele>29.666666666666664</ele><time>2026-04-21T18:16:41.023Z</time></trkpt><trkpt lat="40.39835500012445" lon="18.024249749586474"><ele>29.5</ele><time>2026-04-21T18:16:43.023Z</time></trkpt><trkpt lat="40.39826958803332" lon="18.024325536074453"><ele>29.333333333333332</ele><time>2026-04-21T18:16:45.023Z</time></trkpt><trkpt lat="40.398232233822554" lon="18.02439937161544"><ele>29.166666666666664</ele><time>2026-04-21T18:16:46.023Z</time></trkpt><trkpt lat="40.39820949907139" lon="18.024482461727732"><ele>29.0</ele><time>2026-04-21T18:16:47.023Z</time></trkpt><trkpt lat="40.398198936698215" lon="18.024583569058052"><ele>29.0</ele><time>2026-04-21T18:16:48.023Z</time></trkpt><trkpt lat="40.39819479069268" lon="18.024700716641785"><ele>29.0</ele><time>2026-04-21T18:16:49.023Z</time></trkpt><trkpt lat="40.39819348380584" lon="18.024825011340926"><ele>29.0</ele><time>2026-04-21T18:16:50.023Z</time></trkpt><trkpt lat="40.39818465660743" lon="18.024970636069675"><ele>29.0</ele><time>2026-04-21T18:16:51.023Z</time></trkpt><trkpt lat="40.398173858091546" lon="18.025113352676694"><ele>29.0</ele><time>2026-04-21T18:16:52.023Z</time></trkpt><trkpt lat="40.39814404766138" lon="18.025247028848337"><ele>29.0</ele><time>2026-04-21T18:16:53.023Z</time></trkpt><trkpt lat="40.398118787050805" lon="18.0253660829892"><ele>29.0</ele><time>2026-04-21T18:16:54.023Z</time></trkpt><trkpt lat="40.39810530329308" lon="18.025492482468675"><ele>29.0</ele><time>2026-04-21T18:16:55.023Z</time></trkpt><trkpt lat="40.398093331540636" lon="18.025632700499006"><ele>29.0</ele><time>2026-04-21T18:16:56.023Z</time></trkpt><trkpt lat="40.39807369279553" lon="18.025777157960068"><ele>29.0</ele><time>2026-04-21T18:16:57.023Z</time></trkpt><trkpt lat="40.39804095378974" lon="18.02594291722524"><ele>29.0</ele><time>2026-04-21T18:16:58.023Z</time></trkpt><trkpt lat="40.398007775023345" lon="18.026114448907943"><ele>29.0</ele><time>2026-04-21T18:16:59.023Z</time></trkpt><trkpt lat="40.39798394960394" lon="18.026281515783104"><ele>29.0</ele><time>2026-04-21T18:17:00.023Z</time></trkpt><trkpt lat="40.39795708415277" lon="18.026450700883498"><ele>29.0</ele><time>2026-04-21T18:17:01.023Z</time></trkpt><trkpt lat="40.3979343138489" lon="18.026626362087374"><ele>28.75</ele><time>2026-04-21T18:17:02.023Z</time></trkpt><trkpt lat="40.39789743320257" lon="18.02679772661406"><ele>28.5</ele><time>2026-04-21T18:17:03.023Z</time></trkpt><trkpt lat="40.397867244657085" lon="18.026979454902737"><ele>28.25</ele><time>2026-04-21T18:17:04.023Z</time></trkpt><trkpt lat="40.39783437232954" lon="18.027167944618764"><ele>28.0</ele><time>2026-04-21T18:17:05.023Z</time></trkpt><trkpt lat="40.397807462595225" lon="18.027366283518642"><ele>27.666666666666668</ele><time>2026-04-21T18:17:06.023Z</time></trkpt><trkpt lat="40.39777833257847" lon="18.027559376013844"><ele>27.333333333333336</ele><time>2026-04-21T18:17:07.023Z</time></trkpt><trkpt lat="40.397747208208834" lon="18.027752579655594"><ele>27.0</ele><time>2026-04-21T18:17:08.023Z</time></trkpt><trkpt lat="40.39771310395851" lon="18.02796319146275"><ele>27.0</ele><time>2026-04-21T18:17:09.023Z</time></trkpt><trkpt lat="40.39768130961578" lon="18.02818303002841"><ele>27.0</ele><time>2026-04-21T18:17:10.023Z</time></trkpt><trkpt lat="40.39763846947829" lon="18.028425096671846"><ele>27.0</ele><time>2026-04-21T18:17:11.023Z</time></trkpt><trkpt lat="40.39760037122299" lon="18.028697651167437"><ele>27.0</ele><time>2026-04-21T18:17:12.023Z</time></trkpt><trkpt lat="40.39755736787331" lon="18.02898241076359"><ele>27.0</ele><time>2026-04-21T18:17:13.023Z</time></trkpt><trkpt lat="40.39750805818594" lon="18.029278083154416"><ele>27.5</ele><time>2026-04-21T18:17:14.023Z</time></trkpt><trkpt lat="40.39745933781732" lon="18.029583286520744"><ele>28.0</ele><time>2026-04-21T18:17:15.023Z</time></trkpt><trkpt lat="40.397415255746054" lon="18.029896021823536"><ele>28.0</ele><time>2026-04-21T18:17:16.023Z</time></trkpt><trkpt lat="40.39736933407145" lon="18.03017651400018"><ele>28.0</ele><time>2026-04-21T18:17:17.023Z</time></trkpt><trkpt lat="40.39732727010072" lon="18.03040406184072"><ele>28.0</ele><time>2026-04-21T18:17:18.023Z</time></trkpt><trkpt lat="40.39728946361552" lon="18.030612207643888"><ele>28.0</ele><time>2026-04-21T18:17:19.023Z</time></trkpt><trkpt lat="40.397259937539765" lon="18.03080306519326"><ele>28.0</ele><time>2026-04-21T18:17:20.023Z</time></trkpt><trkpt lat="40.39722880875209" lon="18.030984681984453"><ele>28.0</ele><time>2026-04-21T18:17:21.023Z</time></trkpt><trkpt lat="40.39720295449567" lon="18.031147935216637"><ele>28.0</ele><time>2026-04-21T18:17:22.023Z</time></trkpt><trkpt lat="40.3971808018343" lon="18.031293551235688"><ele>27.833333333333336</ele><time>2026-04-21T18:17:23.023Z</time></trkpt><trkpt lat="40.397153529960676" lon="18.031424761176627"><ele>27.666666666666668</ele><time>2026-04-21T18:17:24.023Z</time></trkpt><trkpt lat="40.39712254097224" lon="18.031539165976646"><ele>27.5</ele><time>2026-04-21T18:17:25.023Z</time></trkpt><trkpt lat="40.39707561704852" lon="18.03161806526975"><ele>27.333333333333336</ele><time>2026-04-21T18:17:26.023Z</time></trkpt><trkpt lat="40.397023686076146" lon="18.03167903651752"><ele>27.166666666666668</ele><time>2026-04-21T18:17:27.023Z</time></trkpt><trkpt lat="40.39696731955814" lon="18.0317429940002"><ele>27.0</ele><time>2026-04-21T18:17:28.023Z</time></trkpt><trkpt lat="40.39690938759231" lon="18.031825606771577"><ele>27.0</ele><time>2026-04-21T18:17:29.023Z</time></trkpt><trkpt lat="40.396853853703476" lon="18.031932808312874"><ele>27.000000000000004</ele><time>2026-04-21T18:17:30.023Z</time></trkpt><trkpt lat="40.39682261887133" lon="18.032052038773525"><ele>27.000000000000004</ele><time>2026-04-21T18:17:31.023Z</time></trkpt><trkpt lat="40.39681239380313" lon="18.03216585039472"><ele>27.0</ele><time>2026-04-21T18:17:32.023Z</time></trkpt><trkpt lat="40.39682566033718" lon="18.032283059147876"><ele>27.0</ele><time>2026-04-21T18:17:33.023Z</time></trkpt><trkpt lat="40.396847682196906" lon="18.03240845029289"><ele>27.0</ele><time>2026-04-21T18:17:34.023Z</time></trkpt><trkpt lat="40.39686476147519" lon="18.032541185436074"><ele>27.0</ele><time>2026-04-21T18:17:35.023Z</time></trkpt><trkpt lat="40.39687297422771" lon="18.032698693821768"><ele>27.0</ele><time>2026-04-21T18:17:36.023Z</time></trkpt><trkpt lat="40.39687594301522" lon="18.032902232577634"><ele>27.0</ele><time>2026-04-21T18:17:37.023Z</time></trkpt><trkpt lat="40.39686609089382" lon="18.03313430112762"><ele>27.0</ele><time>2026-04-21T18:17:38.023Z</time></trkpt><trkpt lat="40.396848133510176" lon="18.033371802886627"><ele>27.0</ele><time>2026-04-21T18:17:39.023Z</time></trkpt><trkpt lat="40.39682754080814" lon="18.033583138689533"><ele>27.0</ele><time>2026-04-21T18:17:40.024Z</time></trkpt><trkpt lat="40.396805946082615" lon="18.03376346974545"><ele>27.0</ele><time>2026-04-21T18:17:41.023Z</time></trkpt><trkpt lat="40.396784973339265" lon="18.033931110205952"><ele>27.0</ele><time>2026-04-21T18:17:42.023Z</time></trkpt><trkpt lat="40.39675866784236" lon="18.03408197179563"><ele>27.0</ele><time>2026-04-21T18:17:43.024Z</time></trkpt><trkpt lat="40.39673167500212" lon="18.034227236008775"><ele>27.0</ele><time>2026-04-21T18:17:44.023Z</time></trkpt><trkpt lat="40.39670588264262" lon="18.034362465942532"><ele>27.166666666666668</ele><time>2026-04-21T18:17:45.023Z</time></trkpt><trkpt lat="40.396682207863826" lon="18.03448792336068"><ele>27.333333333333336</ele><time>2026-04-21T18:17:46.023Z</time></trkpt><trkpt lat="40.39666727925929" lon="18.034597165108135"><ele>27.5</ele><time>2026-04-21T18:17:47.023Z</time></trkpt><trkpt lat="40.39666227551154" lon="18.034696013716445"><ele>27.666666666666668</ele><time>2026-04-21T18:17:48.023Z</time></trkpt><trkpt lat="40.396647087309134" lon="18.034806301569684"><ele>27.833333333333336</ele><time>2026-04-21T18:17:49.024Z</time></trkpt><trkpt lat="40.39662747326696" lon="18.034926890934383"><ele>28.0</ele><time>2026-04-21T18:17:50.024Z</time></trkpt><trkpt lat="40.39660413786597" lon="18.035073438236893"><ele>28.333333333333336</ele><time>2026-04-21T18:17:51.024Z</time></trkpt><trkpt lat="40.39657920106545" lon="18.03524871586564"><ele>28.666666666666664</ele><time>2026-04-21T18:17:52.023Z</time></trkpt><trkpt lat="40.396544426466264" lon="18.035453116083662"><ele>29.0</ele><time>2026-04-21T18:17:53.024Z</time></trkpt><trkpt lat="40.39651969923978" lon="18.035684176038902"><ele>29.0</ele><time>2026-04-21T18:17:54.024Z</time></trkpt><trkpt lat="40.39648715814282" lon="18.035954866777924"><ele>29.0</ele><time>2026-04-21T18:17:55.024Z</time></trkpt><trkpt lat="40.39644191944287" lon="18.036243615983906"><ele>29.0</ele><time>2026-04-21T18:17:56.024Z</time></trkpt><trkpt lat="40.39638695882605" lon="18.036556544567325"><ele>29.5</ele><time>2026-04-21T18:17:57.024Z</time></trkpt><trkpt lat="40.39633783131839" lon="18.036873423859888"><ele>30.0</ele><time>2026-04-21T18:17:58.024Z</time></trkpt><trkpt lat="40.39627604712228" lon="18.03719871256025"><ele>28.5</ele><time>2026-04-21T18:17:59.024Z</time></trkpt><trkpt lat="40.39621920160325" lon="18.03753185612043"><ele>27.0</ele><time>2026-04-21T18:18:00.024Z</time></trkpt><trkpt lat="40.39616128295091" lon="18.037864169779795"><ele>27.0</ele><time>2026-04-21T18:18:01.024Z</time></trkpt><trkpt lat="40.39611105489907" lon="18.03820272786092"><ele>27.0</ele><time>2026-04-21T18:18:02.024Z</time></trkpt><trkpt lat="40.3960570381211" lon="18.038545255648504"><ele>27.5</ele><time>2026-04-21T18:18:03.024Z</time></trkpt><trkpt lat="40.39600406282863" lon="18.038894786679666"><ele>28.0</ele><time>2026-04-21T18:18:04.024Z</time></trkpt><trkpt lat="40.395947799152864" lon="18.03925439819836"><ele>28.0</ele><time>2026-04-21T18:18:05.024Z</time></trkpt><trkpt lat="40.39589239128361" lon="18.039615101293915"><ele>28.0</ele><time>2026-04-21T18:18:06.024Z</time></trkpt><trkpt lat="40.39584415962008" lon="18.03995635559518"><ele>28.0</ele><time>2026-04-21T18:18:07.024Z</time></trkpt><trkpt lat="40.39579159745851" lon="18.040288847616427"><ele>28.0</ele><time>2026-04-21T18:18:08.024Z</time></trkpt><trkpt lat="40.395743426702495" lon="18.040606941229044"><ele>28.5</ele><time>2026-04-21T18:18:09.024Z</time></trkpt><trkpt lat="40.39569264919218" lon="18.04091989672759"><ele>29.0</ele><time>2026-04-21T18:18:10.024Z</time></trkpt><trkpt lat="40.39565156057742" lon="18.04121511827727"><ele>29.0</ele><time>2026-04-21T18:18:11.024Z</time></trkpt><trkpt lat="40.39561236594509" lon="18.041485312656203"><ele>29.0</ele><time>2026-04-21T18:18:12.024Z</time></trkpt><trkpt lat="40.395574932308506" lon="18.04174201100436"><ele>29.0</ele><time>2026-04-21T18:18:13.024Z</time></trkpt><trkpt lat="40.395528314855916" lon="18.042003598402196"><ele>28.333333333333332</ele><time>2026-04-21T18:18:14.024Z</time></trkpt><trkpt lat="40.39548394556501" lon="18.042271306144748"><ele>27.666666666666664</ele><time>2026-04-21T18:18:15.024Z</time></trkpt><trkpt lat="40.39544238676086" lon="18.042541845315434"><ele>27.0</ele><time>2026-04-21T18:18:16.024Z</time></trkpt><trkpt lat="40.395403617617326" lon="18.042799146612417"><ele>27.0</ele><time>2026-04-21T18:18:17.024Z</time></trkpt><trkpt lat="40.3953720678149" lon="18.04304784415462"><ele>27.0</ele><time>2026-04-21T18:18:18.024Z</time></trkpt><trkpt lat="40.395339361667716" lon="18.0432774482472"><ele>27.0</ele><time>2026-04-21T18:18:19.024Z</time></trkpt><trkpt lat="40.39530217427642" lon="18.0435105232667"><ele>27.333333333333336</ele><time>2026-04-21T18:18:20.024Z</time></trkpt><trkpt lat="40.39525566477723" lon="18.043760621583743"><ele>27.666666666666668</ele><time>2026-04-21T18:18:21.024Z</time></trkpt><trkpt lat="40.39521534290028" lon="18.044015824302193"><ele>28.0</ele><time>2026-04-21T18:18:22.024Z</time></trkpt><trkpt lat="40.39518505273191" lon="18.0442484461094"><ele>29.333333333333336</ele><time>2026-04-21T18:18:23.024Z</time></trkpt><trkpt lat="40.39515690128293" lon="18.044451730089133"><ele>30.666666666666664</ele><time>2026-04-21T18:18:24.024Z</time></trkpt><trkpt lat="40.39511943798612" lon="18.04463859755986"><ele>32.0</ele><time>2026-04-21T18:18:25.024Z</time></trkpt><trkpt lat="40.395073292183525" lon="18.0448290007505"><ele>32.33333333333333</ele><time>2026-04-21T18:18:26.024Z</time></trkpt><trkpt lat="40.39501640008515" lon="18.045024822302732"><ele>32.666666666666664</ele><time>2026-04-21T18:18:27.024Z</time></trkpt><trkpt lat="40.394963203811116" lon="18.045220188096867"><ele>33.0</ele><time>2026-04-21T18:18:28.024Z</time></trkpt><trkpt lat="40.39492713618954" lon="18.045395746357958"><ele>33.0</ele><time>2026-04-21T18:18:29.024Z</time></trkpt><trkpt lat="40.39489360415701" lon="18.045561124311227"><ele>33.0</ele><time>2026-04-21T18:18:30.024Z</time></trkpt><trkpt lat="40.39485487550737" lon="18.045699024930336"><ele>33.0</ele><time>2026-04-21T18:18:31.024Z</time></trkpt><trkpt lat="40.39480406232167" lon="18.04581829942153"><ele>33.0</ele><time>2026-04-21T18:18:32.024Z</time></trkpt><trkpt lat="40.39473696595464" lon="18.045916198802576"><ele>33.0</ele><time>2026-04-21T18:18:33.024Z</time></trkpt><trkpt lat="40.394660507776656" lon="18.046032133128037"><ele>32.8</ele><time>2026-04-21T18:18:34.024Z</time></trkpt><trkpt lat="40.39458853838836" lon="18.046152318589154"><ele>32.599999999999994</ele><time>2026-04-21T18:18:35.024Z</time></trkpt><trkpt lat="40.39454630088575" lon="18.046286114002775"><ele>32.400000000000006</ele><time>2026-04-21T18:18:36.024Z</time></trkpt><trkpt lat="40.39454479443898" lon="18.046429711844684"><ele>32.2</ele><time>2026-04-21T18:18:37.024Z</time></trkpt><trkpt lat="40.39456450784886" lon="18.046575312383087"><ele>32.0</ele><time>2026-04-21T18:18:38.024Z</time></trkpt><trkpt lat="40.39461514967704" lon="18.046741481595777"><ele>32.0</ele><time>2026-04-21T18:18:39.024Z</time></trkpt><trkpt lat="40.39466959276087" lon="18.04689186071796"><ele>32.0</ele><time>2026-04-21T18:18:40.024Z</time></trkpt><trkpt lat="40.39470245327946" lon="18.04702175076834"><ele>32.0</ele><time>2026-04-21T18:18:41.024Z</time></trkpt><trkpt lat="40.39470649866863" lon="18.047196349674483"><ele>32.0</ele><time>2026-04-21T18:18:42.024Z</time></trkpt><trkpt lat="40.394688357698186" lon="18.04740907050603"><ele>31.666666666666664</ele><time>2026-04-21T18:18:43.024Z</time></trkpt><trkpt lat="40.39464794652541" lon="18.047652272259963"><ele>31.333333333333336</ele><time>2026-04-21T18:18:44.024Z</time></trkpt><trkpt lat="40.394604410727375" lon="18.047910050863536"><ele>31.0</ele><time>2026-04-21T18:18:45.024Z</time></trkpt><trkpt lat="40.39455526152159" lon="18.048185572265716"><ele>33.0</ele><time>2026-04-21T18:18:46.024Z</time></trkpt><trkpt lat="40.394502605995065" lon="18.048484615027263"><ele>35.0</ele><time>2026-04-21T18:18:47.024Z</time></trkpt><trkpt lat="40.394451068570824" lon="18.0487935041175"><ele>35.0</ele><time>2026-04-21T18:18:48.024Z</time></trkpt><trkpt lat="40.39440133651513" lon="18.049100672520158"><ele>35.0</ele><time>2026-04-21T18:18:49.024Z</time></trkpt><trkpt lat="40.39435359892048" lon="18.049395109863944"><ele>35.0</ele><time>2026-04-21T18:18:50.024Z</time></trkpt><trkpt lat="40.39430413535601" lon="18.049677907540694"><ele>35.0</ele><time>2026-04-21T18:18:51.024Z</time></trkpt><trkpt lat="40.394263528268844" lon="18.049957421728735"><ele>35.0</ele><time>2026-04-21T18:18:52.024Z</time></trkpt><trkpt lat="40.39422086802376" lon="18.050240086410792"><ele>34.0</ele><time>2026-04-21T18:18:53.024Z</time></trkpt><trkpt lat="40.39417757726192" lon="18.050522405570927"><ele>33.0</ele><time>2026-04-21T18:18:54.024Z</time></trkpt><trkpt lat="40.39413526234373" lon="18.050800795926158"><ele>32.0</ele><time>2026-04-21T18:18:55.024Z</time></trkpt><trkpt lat="40.39409068426681" lon="18.051076778788442"><ele>32.0</ele><time>2026-04-21T18:18:56.024Z</time></trkpt><trkpt lat="40.39404036884063" lon="18.051349554944757"><ele>32.0</ele><time>2026-04-21T18:18:57.024Z</time></trkpt><trkpt lat="40.393994571786706" lon="18.051629741826375"><ele>32.0</ele><time>2026-04-21T18:18:58.024Z</time></trkpt><trkpt lat="40.393950356850105" lon="18.051906264144872"><ele>32.0</ele><time>2026-04-21T18:18:59.024Z</time></trkpt><trkpt lat="40.39390729812578" lon="18.052185523354098"><ele>32.0</ele><time>2026-04-21T18:19:00.024Z</time></trkpt><trkpt lat="40.39386441286229" lon="18.05245726096449"><ele>32.0</ele><time>2026-04-21T18:19:01.024Z</time></trkpt><trkpt lat="40.39382045627787" lon="18.052729084834112"><ele>31.666666666666664</ele><time>2026-04-21T18:19:02.024Z</time></trkpt><trkpt lat="40.39377749507305" lon="18.052998524867842"><ele>31.333333333333336</ele><time>2026-04-21T18:19:03.024Z</time></trkpt><trkpt lat="40.39373732306658" lon="18.053272100844417"><ele>31.0</ele><time>2026-04-21T18:19:04.024Z</time></trkpt><trkpt lat="40.39368869598253" lon="18.053542397643266"><ele>30.666666666666668</ele><time>2026-04-21T18:19:05.024Z</time></trkpt><trkpt lat="40.39365358302535" lon="18.053815421422478"><ele>30.333333333333336</ele><time>2026-04-21T18:19:06.024Z</time></trkpt><trkpt lat="40.393616129665006" lon="18.054085819646605"><ele>30.0</ele><time>2026-04-21T18:19:07.024Z</time></trkpt><trkpt lat="40.39357773086561" lon="18.054347910597805"><ele>30.0</ele><time>2026-04-21T18:19:08.024Z</time></trkpt><trkpt lat="40.39353941114668" lon="18.054605524864762"><ele>30.0</ele><time>2026-04-21T18:19:09.024Z</time></trkpt><trkpt lat="40.39349938019859" lon="18.05484898110442"><ele>30.0</ele><time>2026-04-21T18:19:10.024Z</time></trkpt><trkpt lat="40.393461936909176" lon="18.055082897950083"><ele>30.666666666666664</ele><time>2026-04-21T18:19:11.024Z</time></trkpt><trkpt lat="40.39342365897505" lon="18.055324697607702"><ele>31.333333333333332</ele><time>2026-04-21T18:19:12.024Z</time></trkpt><trkpt lat="40.39338694702886" lon="18.055581995194473"><ele>32.0</ele><time>2026-04-21T18:19:13.024Z</time></trkpt><trkpt lat="40.393341467331034" lon="18.055846947174363"><ele>32.0</ele><time>2026-04-21T18:19:14.024Z</time></trkpt><trkpt lat="40.39329763117582" lon="18.056130912591097"><ele>32.0</ele><time>2026-04-21T18:19:15.024Z</time></trkpt><trkpt lat="40.39325627594225" lon="18.05642522150836"><ele>32.0</ele><time>2026-04-21T18:19:16.024Z</time></trkpt><trkpt lat="40.393212561656874" lon="18.056730702095887"><ele>32.0</ele><time>2026-04-21T18:19:17.024Z</time></trkpt><trkpt lat="40.39316948164038" lon="18.057052693074912"><ele>32.0</ele><time>2026-04-21T18:19:18.024Z</time></trkpt><trkpt lat="40.393121217194796" lon="18.057377113153755"><ele>31.0</ele><time>2026-04-21T18:19:19.024Z</time></trkpt><trkpt lat="40.39306949435289" lon="18.05770761281529"><ele>30.0</ele><time>2026-04-21T18:19:20.024Z</time></trkpt><trkpt lat="40.39302092549125" lon="18.0580487342334"><ele>31.0</ele><time>2026-04-21T18:19:21.024Z</time></trkpt><trkpt lat="40.3929663450107" lon="18.058397034730977"><ele>32.0</ele><time>2026-04-21T18:19:22.024Z</time></trkpt><trkpt lat="40.39290840601987" lon="18.05875446137162"><ele>32.0</ele><time>2026-04-21T18:19:23.024Z</time></trkpt><trkpt lat="40.39284354059786" lon="18.059107550930353"><ele>32.0</ele><time>2026-04-21T18:19:24.024Z</time></trkpt><trkpt lat="40.39278202211834" lon="18.059447590406513"><ele>32.0</ele><time>2026-04-21T18:19:25.024Z</time></trkpt><trkpt lat="40.39271921993699" lon="18.059778448951473"><ele>32.0</ele><time>2026-04-21T18:19:26.024Z</time></trkpt><trkpt lat="40.3926640839861" lon="18.060116701995316"><ele>31.5</ele><time>2026-04-21T18:19:27.024Z</time></trkpt><trkpt lat="40.39260813344336" lon="18.060445951381887"><ele>31.0</ele><time>2026-04-21T18:19:28.024Z</time></trkpt><trkpt lat="40.39255235478622" lon="18.060760382742775"><ele>31.0</ele><time>2026-04-21T18:19:29.024Z</time></trkpt><trkpt lat="40.392501885319184" lon="18.061061115205554"><ele>31.0</ele><time>2026-04-21T18:19:30.024Z</time></trkpt><trkpt lat="40.392457780016905" lon="18.061338276237283"><ele>31.0</ele><time>2026-04-21T18:19:31.024Z</time></trkpt><trkpt lat="40.392415649302905" lon="18.061599316093382"><ele>31.0</ele><time>2026-04-21T18:19:32.024Z</time></trkpt><trkpt lat="40.39238359097143" lon="18.061838848233876"><ele>31.0</ele><time>2026-04-21T18:19:33.024Z</time></trkpt><trkpt lat="40.392355620525905" lon="18.062070393366483"><ele>32.0</ele><time>2026-04-21T18:19:34.024Z</time></trkpt><trkpt lat="40.39232323249443" lon="18.06232359723714"><ele>33.0</ele><time>2026-04-21T18:19:35.024Z</time></trkpt><trkpt lat="40.392279542263545" lon="18.062596323279074"><ele>34.0</ele><time>2026-04-21T18:19:36.024Z</time></trkpt><trkpt lat="40.39223662615922" lon="18.06288429017822"><ele>34.0</ele><time>2026-04-21T18:19:37.024Z</time></trkpt><trkpt lat="40.39218831927034" lon="18.06318821656645"><ele>34.0</ele><time>2026-04-21T18:19:38.024Z</time></trkpt><trkpt lat="40.39213157678531" lon="18.06349404957533"><ele>34.0</ele><time>2026-04-21T18:19:39.024Z</time></trkpt><trkpt lat="40.39207068734852" lon="18.063818830406248"><ele>34.0</ele><time>2026-04-21T18:19:40.024Z</time></trkpt><trkpt lat="40.392019369958525" lon="18.06414076865231"><ele>34.0</ele><time>2026-04-21T18:19:41.024Z</time></trkpt><trkpt lat="40.391971739481534" lon="18.064463816234138"><ele>34.0</ele><time>2026-04-21T18:19:42.024Z</time></trkpt><trkpt lat="40.39191497022944" lon="18.06479020242117"><ele>34.0</ele><time>2026-04-21T18:19:43.024Z</time></trkpt><trkpt lat="40.391863157929734" lon="18.06510853192289"><ele>34.0</ele><time>2026-04-21T18:19:44.024Z</time></trkpt><trkpt lat="40.39181533311365" lon="18.06542011893296"><ele>34.0</ele><time>2026-04-21T18:19:45.024Z</time></trkpt><trkpt lat="40.391770875074705" lon="18.065732603385463"><ele>34.0</ele><time>2026-04-21T18:19:46.024Z</time></trkpt><trkpt lat="40.39172768918459" lon="18.0660398900895"><ele>34.0</ele><time>2026-04-21T18:19:47.024Z</time></trkpt><trkpt lat="40.391686251824396" lon="18.066340043586194"><ele>34.0</ele><time>2026-04-21T18:19:48.024Z</time></trkpt><trkpt lat="40.3916432120223" lon="18.066625200253032"><ele>34.333333333333336</ele><time>2026-04-21T18:19:49.024Z</time></trkpt><trkpt lat="40.391601841337106" lon="18.06690992189131"><ele>34.666666666666664</ele><time>2026-04-21T18:19:50.025Z</time></trkpt><trkpt lat="40.391558634454626" lon="18.067189890749088"><ele>35.0</ele><time>2026-04-21T18:19:51.025Z</time></trkpt><trkpt lat="40.39151340614337" lon="18.06747186287169"><ele>36.0</ele><time>2026-04-21T18:19:52.025Z</time></trkpt><trkpt lat="40.39146746197195" lon="18.06775164822102"><ele>37.0</ele><time>2026-04-21T18:19:53.025Z</time></trkpt><trkpt lat="40.391423854042976" lon="18.06802825929273"><ele>38.0</ele><time>2026-04-21T18:19:54.025Z</time></trkpt><trkpt lat="40.39138118083941" lon="18.06830453856909"><ele>37.666666666666664</ele><time>2026-04-21T18:19:55.024Z</time></trkpt><trkpt lat="40.39133748303619" lon="18.06857992412189"><ele>37.333333333333336</ele><time>2026-04-21T18:19:56.024Z</time></trkpt><trkpt lat="40.39129337133374" lon="18.06885839511638"><ele>37.0</ele><time>2026-04-21T18:19:57.024Z</time></trkpt><trkpt lat="40.39124676854768" lon="18.069131192337668"><ele>38.0</ele><time>2026-04-21T18:19:58.024Z</time></trkpt><trkpt lat="40.39120265142607" lon="18.06940348947668"><ele>39.0</ele><time>2026-04-21T18:19:59.024Z</time></trkpt><trkpt lat="40.39115855513375" lon="18.06967463846623"><ele>40.0</ele><time>2026-04-21T18:20:00.024Z</time></trkpt><trkpt lat="40.391138922335834" lon="18.069933114091736"><ele>41.66666666666667</ele><time>2026-04-21T18:20:01.024Z</time></trkpt><trkpt lat="40.391137041894446" lon="18.070183569218656"><ele>43.333333333333336</ele><time>2026-04-21T18:20:02.024Z</time></trkpt><trkpt lat="40.39116407084589" lon="18.070445406255732"><ele>45.0</ele><time>2026-04-21T18:20:03.024Z</time></trkpt><trkpt lat="40.39119687218039" lon="18.070735746787083"><ele>48.0</ele><time>2026-04-21T18:20:04.024Z</time></trkpt><trkpt lat="40.391233072744" lon="18.071015671772212"><ele>51.0</ele><time>2026-04-21T18:20:05.024Z</time></trkpt><trkpt lat="40.39127440651036" lon="18.071328672524118"><ele>53.5</ele><time>2026-04-21T18:20:06.024Z</time></trkpt><trkpt lat="40.39131881838747" lon="18.071628304683934"><ele>56.0</ele><time>2026-04-21T18:20:07.024Z</time></trkpt><trkpt lat="40.39138914360473" lon="18.07191233755128"><ele>57.0</ele><time>2026-04-21T18:20:08.024Z</time></trkpt><trkpt lat="40.391475960532524" lon="18.072192406282284"><ele>58.0</ele><time>2026-04-21T18:20:09.024Z</time></trkpt><trkpt lat="40.39071396482167" lon="18.072528542782"><ele>56.666666666666664</ele><time>2026-04-21T18:20:10.024Z</time></trkpt><trkpt lat="40.39068021509703" lon="18.07277295364167"><ele>55.33333333333333</ele><time>2026-04-21T18:20:11.024Z</time></trkpt><trkpt lat="40.390663771843535" lon="18.073029311936285"><ele>54.0</ele><time>2026-04-21T18:20:12.024Z</time></trkpt><trkpt lat="40.39065342828728" lon="18.073290166805243"><ele>54.0</ele><time>2026-04-21T18:20:13.024Z</time></trkpt><trkpt lat="40.39064653190199" lon="18.07354993626351"><ele>54.0</ele><time>2026-04-21T18:20:14.024Z</time></trkpt><trkpt lat="40.39064573967283" lon="18.07380407102795"><ele>54.0</ele><time>2026-04-21T18:20:15.024Z</time></trkpt><trkpt lat="40.390649993129045" lon="18.07404785112719"><ele>54.33333333333333</ele><time>2026-04-21T18:20:16.024Z</time></trkpt><trkpt lat="40.39065801132713" lon="18.074301550306714"><ele>54.666666666666664</ele><time>2026-04-21T18:20:17.024Z</time></trkpt><trkpt lat="40.39066477150439" lon="18.074548928852845"><ele>55.0</ele><time>2026-04-21T18:20:18.024Z</time></trkpt><trkpt lat="40.390673604529226" lon="18.074775719056714"><ele>54.75</ele><time>2026-04-21T18:20:19.024Z</time></trkpt><trkpt lat="40.39067592754778" lon="18.074988579494754"><ele>54.5</ele><time>2026-04-21T18:20:20.024Z</time></trkpt><trkpt lat="40.390675093362766" lon="18.07517697843018"><ele>54.25</ele><time>2026-04-21T18:20:21.024Z</time></trkpt><trkpt lat="40.39066362738513" lon="18.075348979791364"><ele>54.0</ele><time>2026-04-21T18:20:22.024Z</time></trkpt><trkpt lat="40.39065131922097" lon="18.0755042447883"><ele>54.0</ele><time>2026-04-21T18:20:23.024Z</time></trkpt><trkpt lat="40.39063242479049" lon="18.075633007177267"><ele>54.0</ele><time>2026-04-21T18:20:24.024Z</time></trkpt><trkpt lat="40.39061340221763" lon="18.075743737048004"><ele>54.0</ele><time>2026-04-21T18:20:25.024Z</time></trkpt><trkpt lat="40.390585787191526" lon="18.075838979040594"><ele>54.0</ele><time>2026-04-21T18:20:26.024Z</time></trkpt><trkpt lat="40.39054492842087" lon="18.075915382148395"><ele>54.0</ele><time>2026-04-21T18:20:27.024Z</time></trkpt><trkpt lat="40.39047841867274" lon="18.075976294199723"><ele>54.0</ele><time>2026-04-21T18:20:28.024Z</time></trkpt><trkpt lat="40.3903905984935" lon="18.076040294036"><ele>54.0</ele><time>2026-04-21T18:20:29.024Z</time></trkpt><trkpt lat="40.39030378345417" lon="18.076109980802546"><ele>54.00000000000001</ele><time>2026-04-21T18:20:30.024Z</time></trkpt><trkpt lat="40.39023580117406" lon="18.076189279382678"><ele>54.00000000000001</ele><time>2026-04-21T18:20:31.024Z</time></trkpt><trkpt lat="40.39019220561286" lon="18.07628429030777"><ele>54.0</ele><time>2026-04-21T18:20:32.024Z</time></trkpt><trkpt lat="40.39018742685954" lon="18.076405517292006"><ele>54.0</ele><time>2026-04-21T18:20:33.024Z</time></trkpt><trkpt lat="40.39020065308666" lon="18.07652675029196"><ele>54.25</ele><time>2026-04-21T18:20:34.024Z</time></trkpt><trkpt lat="40.39023442752124" lon="18.076656222102127"><ele>54.5</ele><time>2026-04-21T18:20:35.024Z</time></trkpt><trkpt lat="40.39030627715941" lon="18.076818405975803"><ele>54.75</ele><time>2026-04-21T18:20:36.024Z</time></trkpt><trkpt lat="40.39040284364927" lon="18.07694981402237"><ele>55.0</ele><time>2026-04-21T18:20:37.024Z</time></trkpt><trkpt lat="40.39045664600252" lon="18.077056757095157"><ele>55.0</ele><time>2026-04-21T18:20:38.024Z</time></trkpt><trkpt lat="40.39039035419278" lon="18.077215842602932"><ele>55.0</ele><time>2026-04-21T18:20:39.024Z</time></trkpt><trkpt lat="40.39024157061978" lon="18.07749394229125"><ele>55.0</ele><time>2026-04-21T18:20:40.024Z</time></trkpt><trkpt lat="40.39013830292025" lon="18.077756451374825"><ele>54.666666666666664</ele><time>2026-04-21T18:20:41.024Z</time></trkpt><trkpt lat="40.39005041273105" lon="18.07803073200523"><ele>54.33333333333333</ele><time>2026-04-21T18:20:42.024Z</time></trkpt><trkpt lat="40.38998021993229" lon="18.078301183852393"><ele>54.0</ele><time>2026-04-21T18:20:43.024Z</time></trkpt><trkpt lat="40.38990164444847" lon="18.078580446951356"><ele>55.0</ele><time>2026-04-21T18:20:44.024Z</time></trkpt><trkpt lat="40.389821184119164" lon="18.07887058558498"><ele>56.0</ele><time>2026-04-21T18:20:45.024Z</time></trkpt><trkpt lat="40.38974438462062" lon="18.07916718237336"><ele>55.66666666666667</ele><time>2026-04-21T18:20:46.024Z</time></trkpt><trkpt lat="40.389672400765775" lon="18.079434003975294"><ele>55.33333333333333</ele><time>2026-04-21T18:20:47.024Z</time></trkpt><trkpt lat="40.38962016957934" lon="18.0797057078512"><ele>55.0</ele><time>2026-04-21T18:20:48.024Z</time></trkpt><trkpt lat="40.389579635453295" lon="18.079988916052997"><ele>56.0</ele><time>2026-04-21T18:20:49.024Z</time></trkpt><trkpt lat="40.38953687468998" lon="18.080284193122303"><ele>57.0</ele><time>2026-04-21T18:20:50.024Z</time></trkpt><trkpt lat="40.38949510702326" lon="18.080608077275055"><ele>57.0</ele><time>2026-04-21T18:20:51.024Z</time></trkpt><trkpt lat="40.38944879257646" lon="18.08096129833068"><ele>57.0</ele><time>2026-04-21T18:20:52.024Z</time></trkpt><trkpt lat="40.3894008529389" lon="18.081332395190852"><ele>56.5</ele><time>2026-04-21T18:20:53.024Z</time></trkpt><trkpt lat="40.38933682430002" lon="18.08170704506173"><ele>56.0</ele><time>2026-04-21T18:20:54.024Z</time></trkpt><trkpt lat="40.389261982609874" lon="18.082083255783004"><ele>54.5</ele><time>2026-04-21T18:20:55.024Z</time></trkpt><trkpt lat="40.389194530592235" lon="18.082460053185304"><ele>53.0</ele><time>2026-04-21T18:20:56.024Z</time></trkpt><trkpt lat="40.389137139069234" lon="18.082838386810646"><ele>53.0</ele><time>2026-04-21T18:20:57.024Z</time></trkpt><trkpt lat="40.38907948168819" lon="18.08320521509317"><ele>53.0</ele><time>2026-04-21T18:20:58.024Z</time></trkpt><trkpt lat="40.38902531127372" lon="18.083564221363208"><ele>52.5</ele><time>2026-04-21T18:20:59.024Z</time></trkpt><trkpt lat="40.38896893048969" lon="18.083925254520683"><ele>52.0</ele><time>2026-04-21T18:21:00.024Z</time></trkpt><trkpt lat="40.38891176942061" lon="18.084268737660693"><ele>52.0</ele><time>2026-04-21T18:21:01.024Z</time></trkpt><trkpt lat="40.388862958474824" lon="18.0846101807902"><ele>52.0</ele><time>2026-04-21T18:21:02.024Z</time></trkpt><trkpt lat="40.388811722405876" lon="18.084954870341097"><ele>54.0</ele><time>2026-04-21T18:21:03.024Z</time></trkpt><trkpt lat="40.38875344804276" lon="18.08530745526222"><ele>56.0</ele><time>2026-04-21T18:21:04.024Z</time></trkpt><trkpt lat="40.38870111072473" lon="18.08565118803254"><ele>56.5</ele><time>2026-04-21T18:21:05.024Z</time></trkpt><trkpt lat="40.38865191532624" lon="18.085972975421637"><ele>57.0</ele><time>2026-04-21T18:21:06.024Z</time></trkpt><trkpt lat="40.38859728753907" lon="18.08628132335812"><ele>57.0</ele><time>2026-04-21T18:21:07.024Z</time></trkpt><trkpt lat="40.38855080631432" lon="18.08658559941358"><ele>57.0</ele><time>2026-04-21T18:21:08.024Z</time></trkpt><trkpt lat="40.38850062231885" lon="18.086904580765005"><ele>56.0</ele><time>2026-04-21T18:21:09.024Z</time></trkpt><trkpt lat="40.38845311772241" lon="18.087218162471746"><ele>55.0</ele><time>2026-04-21T18:21:10.024Z</time></trkpt><trkpt lat="40.38840330526486" lon="18.08754285670611"><ele>55.0</ele><time>2026-04-21T18:21:11.024Z</time></trkpt><trkpt lat="40.388355897537004" lon="18.087872560243643"><ele>55.0</ele><time>2026-04-21T18:21:12.024Z</time></trkpt><trkpt lat="40.38830288586854" lon="18.088199616056915"><ele>55.5</ele><time>2026-04-21T18:21:13.024Z</time></trkpt><trkpt lat="40.388252902054504" lon="18.088534435366412"><ele>56.0</ele><time>2026-04-21T18:21:14.024Z</time></trkpt><trkpt lat="40.388199927930785" lon="18.088870901137344"><ele>55.5</ele><time>2026-04-21T18:21:15.024Z</time></trkpt><trkpt lat="40.388147922673475" lon="18.089210694857"><ele>55.0</ele><time>2026-04-21T18:21:16.024Z</time></trkpt><trkpt lat="40.38809364656841" lon="18.089552380143974"><ele>55.0</ele><time>2026-04-21T18:21:17.024Z</time></trkpt><trkpt lat="40.388043808824314" lon="18.089888955425163"><ele>55.0</ele><time>2026-04-21T18:21:18.024Z</time></trkpt><trkpt lat="40.38799564551112" lon="18.090223222663216"><ele>55.5</ele><time>2026-04-21T18:21:19.024Z</time></trkpt><trkpt lat="40.387941549949765" lon="18.090564050509826"><ele>56.0</ele><time>2026-04-21T18:21:20.024Z</time></trkpt><trkpt lat="40.38788751903992" lon="18.090906435640704"><ele>56.0</ele><time>2026-04-21T18:21:21.024Z</time></trkpt><trkpt lat="40.38782811076526" lon="18.09124734676312"><ele>56.0</ele><time>2026-04-21T18:21:22.024Z</time></trkpt><trkpt lat="40.3877741791265" lon="18.091589225375706"><ele>55.0</ele><time>2026-04-21T18:21:23.024Z</time></trkpt><trkpt lat="40.387718991652804" lon="18.091927681598317"><ele>54.0</ele><time>2026-04-21T18:21:24.024Z</time></trkpt><trkpt lat="40.387668841355726" lon="18.092261168040608"><ele>53.0</ele><time>2026-04-21T18:21:25.024Z</time></trkpt><trkpt lat="40.387616849030266" lon="18.092596443817953"><ele>52.0</ele><time>2026-04-21T18:21:26.024Z</time></trkpt><trkpt lat="40.387561676036434" lon="18.09293504366068"><ele>52.5</ele><time>2026-04-21T18:21:27.024Z</time></trkpt><trkpt lat="40.38750942153312" lon="18.093268235831214"><ele>53.0</ele><time>2026-04-21T18:21:28.024Z</time></trkpt><trkpt lat="40.387458466841686" lon="18.093603582484516"><ele>53.0</ele><time>2026-04-21T18:21:29.024Z</time></trkpt><trkpt lat="40.38740942027203" lon="18.093937352824423"><ele>53.0</ele><time>2026-04-21T18:21:30.024Z</time></trkpt><trkpt lat="40.387358075279316" lon="18.094275935654995"><ele>53.5</ele><time>2026-04-21T18:21:31.024Z</time></trkpt><trkpt lat="40.38730367771442" lon="18.094616074180962"><ele>54.0</ele><time>2026-04-21T18:21:32.024Z</time></trkpt><trkpt lat="40.38725240917197" lon="18.094955458863772"><ele>55.0</ele><time>2026-04-21T18:21:33.024Z</time></trkpt><trkpt lat="40.387195776154215" lon="18.095295175709236"><ele>56.0</ele><time>2026-04-21T18:21:34.024Z</time></trkpt><trkpt lat="40.387140177517956" lon="18.095633369587684"><ele>56.0</ele><time>2026-04-21T18:21:35.024Z</time></trkpt><trkpt lat="40.387085480514116" lon="18.095967784247996"><ele>56.0</ele><time>2026-04-21T18:21:36.024Z</time></trkpt><trkpt lat="40.387030820630635" lon="18.096304713218228"><ele>56.0</ele><time>2026-04-21T18:21:37.024Z</time></trkpt><trkpt lat="40.38697738608903" lon="18.0966456167496"><ele>56.0</ele><time>2026-04-21T18:21:38.024Z</time></trkpt><trkpt lat="40.386922025006115" lon="18.09698694841097"><ele>56.0</ele><time>2026-04-21T18:21:39.024Z</time></trkpt><trkpt lat="40.38686781513445" lon="18.097323957550845"><ele>56.0</ele><time>2026-04-21T18:21:40.024Z</time></trkpt><trkpt lat="40.38681303692208" lon="18.09766474998951"><ele>56.5</ele><time>2026-04-21T18:21:41.024Z</time></trkpt><trkpt lat="40.38676050543779" lon="18.09801181775947"><ele>57.0</ele><time>2026-04-21T18:21:42.024Z</time></trkpt><trkpt lat="40.386708479697404" lon="18.09835348701192"><ele>56.0</ele><time>2026-04-21T18:21:43.024Z</time></trkpt><trkpt lat="40.38665622364983" lon="18.09869730980145"><ele>55.0</ele><time>2026-04-21T18:21:44.024Z</time></trkpt><trkpt lat="40.38660016869569" lon="18.099040223771734"><ele>54.5</ele><time>2026-04-21T18:21:45.024Z</time></trkpt><trkpt lat="40.38654642897353" lon="18.099386169007627"><ele>54.0</ele><time>2026-04-21T18:21:46.024Z</time></trkpt><trkpt lat="40.38649266617666" lon="18.099736370019855"><ele>56.5</ele><time>2026-04-21T18:21:47.024Z</time></trkpt><trkpt lat="40.38644263688233" lon="18.100089003224767"><ele>59.0</ele><time>2026-04-21T18:21:48.024Z</time></trkpt><trkpt lat="40.3863860625298" lon="18.100443080679973"><ele>57.5</ele><time>2026-04-21T18:21:49.024Z</time></trkpt><trkpt lat="40.386324912067444" lon="18.100793035375197"><ele>56.0</ele><time>2026-04-21T18:21:50.024Z</time></trkpt><trkpt lat="40.38626973988495" lon="18.101146905840533"><ele>56.0</ele><time>2026-04-21T18:21:51.024Z</time></trkpt><trkpt lat="40.3862141031469" lon="18.10149158952884"><ele>56.0</ele><time>2026-04-21T18:21:52.025Z</time></trkpt><trkpt lat="40.38616455483512" lon="18.101838467764676"><ele>55.5</ele><time>2026-04-21T18:21:53.025Z</time></trkpt><trkpt lat="40.38611097331909" lon="18.10217976950324"><ele>55.0</ele><time>2026-04-21T18:21:54.025Z</time></trkpt><trkpt lat="40.38605189578495" lon="18.102522816859622"><ele>55.0</ele><time>2026-04-21T18:21:55.026Z</time></trkpt><trkpt lat="40.385996045034496" lon="18.102873886196708"><ele>55.0</ele><time>2026-04-21T18:21:56.025Z</time></trkpt><trkpt lat="40.38594199305251" lon="18.103213559041624"><ele>56.0</ele><time>2026-04-21T18:21:57.025Z</time></trkpt><trkpt lat="40.385887474623345" lon="18.10355921835"><ele>57.0</ele><time>2026-04-21T18:21:58.025Z</time></trkpt><trkpt lat="40.38582865962002" lon="18.103903614573767"><ele>57.5</ele><time>2026-04-21T18:21:59.025Z</time></trkpt><trkpt lat="40.385768614341096" lon="18.10425766507293"><ele>58.0</ele><time>2026-04-21T18:22:00.025Z</time></trkpt><trkpt lat="40.38570992331573" lon="18.10461060458676"><ele>57.5</ele><time>2026-04-21T18:22:01.025Z</time></trkpt><trkpt lat="40.38565046933871" lon="18.104967434868342"><ele>57.0</ele><time>2026-04-21T18:22:02.025Z</time></trkpt><trkpt lat="40.38558972100308" lon="18.105322826245505"><ele>57.0</ele><time>2026-04-21T18:22:03.025Z</time></trkpt><trkpt lat="40.385530252465344" lon="18.10566406599175"><ele>57.0</ele><time>2026-04-21T18:22:04.026Z</time></trkpt><trkpt lat="40.38547651889151" lon="18.106005710849512"><ele>56.5</ele><time>2026-04-21T18:22:05.024Z</time></trkpt><trkpt lat="40.38541749778122" lon="18.106330140209355"><ele>56.0</ele><time>2026-04-21T18:22:06.024Z</time></trkpt><trkpt lat="40.38536261588724" lon="18.106628490452476"><ele>56.0</ele><time>2026-04-21T18:22:07.024Z</time></trkpt><trkpt lat="40.385312728565836" lon="18.10691039962976"><ele>56.0</ele><time>2026-04-21T18:22:08.024Z</time></trkpt><trkpt lat="40.38525928661195" lon="18.107176994675786"><ele>56.0</ele><time>2026-04-21T18:22:09.024Z</time></trkpt><trkpt lat="40.38521071012619" lon="18.107419043531134"><ele>56.0</ele><time>2026-04-21T18:22:10.024Z</time></trkpt><trkpt lat="40.38516366582017" lon="18.10763100170628"><ele>56.0</ele><time>2026-04-21T18:22:11.024Z</time></trkpt><trkpt lat="40.38513165261529" lon="18.10781577333544"><ele>56.0</ele><time>2026-04-21T18:22:12.024Z</time></trkpt><trkpt lat="40.38509721479294" lon="18.107959395199774"><ele>56.0</ele><time>2026-04-21T18:22:13.024Z</time></trkpt><trkpt lat="40.38506792957076" lon="18.1080822361605"><ele>56.0</ele><time>2026-04-21T18:22:14.024Z</time></trkpt><trkpt lat="40.38504348109028" lon="18.108167689685256"><ele>55.99999999999999</ele><time>2026-04-21T18:22:15.024Z</time></trkpt><trkpt lat="40.38495795864497" lon="18.108306143879187"><ele>55.99999999999999</ele><time>2026-04-21T18:22:17.024Z</time></trkpt><trkpt lat="40.38488801704128" lon="18.10840170157055"><ele>56.0</ele><time>2026-04-21T18:22:18.024Z</time></trkpt><trkpt lat="40.3848395216185" lon="18.108514429521147"><ele>56.0</ele><time>2026-04-21T18:22:19.024Z</time></trkpt><trkpt lat="40.384806345722325" lon="18.10866230644627"><ele>56.0</ele><time>2026-04-21T18:22:20.024Z</time></trkpt><trkpt lat="40.38478266701618" lon="18.108808960094795"><ele>56.0</ele><time>2026-04-21T18:22:21.024Z</time></trkpt><trkpt lat="40.384759390505714" lon="18.108931878350905"><ele>56.0</ele><time>2026-04-21T18:22:22.024Z</time></trkpt><trkpt lat="40.38468838785701" lon="18.10906491732153"><ele>56.0</ele><time>2026-04-21T18:22:23.024Z</time></trkpt><trkpt lat="40.384583851637494" lon="18.109213000002494"><ele>56.0</ele><time>2026-04-21T18:22:24.024Z</time></trkpt><trkpt lat="40.38445280667091" lon="18.10938882501896"><ele>56.0</ele><time>2026-04-21T18:22:25.024Z</time></trkpt><trkpt lat="40.38433440701644" lon="18.109556267563942"><ele>56.0</ele><time>2026-04-21T18:22:26.024Z</time></trkpt><trkpt lat="40.384203379151735" lon="18.109731507080166"><ele>54.333333333333336</ele><time>2026-04-21T18:22:27.024Z</time></trkpt><trkpt lat="40.38404078314405" lon="18.109909492012914"><ele>52.66666666666667</ele><time>2026-04-21T18:22:28.024Z</time></trkpt><trkpt lat="40.383870604972294" lon="18.11007532917472"><ele>51.0</ele><time>2026-04-21T18:22:29.024Z</time></trkpt><trkpt lat="40.3837010324511" lon="18.11023832149815"><ele>51.0</ele><time>2026-04-21T18:22:30.024Z</time></trkpt><trkpt lat="40.38354215648612" lon="18.1103916316041"><ele>51.0</ele><time>2026-04-21T18:22:31.024Z</time></trkpt><trkpt lat="40.3833811895699" lon="18.110549525061444"><ele>51.0</ele><time>2026-04-21T18:22:32.024Z</time></trkpt><trkpt lat="40.38321233992429" lon="18.110714137949813"><ele>51.0</ele><time>2026-04-21T18:22:33.024Z</time></trkpt><trkpt lat="40.383041159411775" lon="18.11088974181794"><ele>51.0</ele><time>2026-04-21T18:22:34.024Z</time></trkpt><trkpt lat="40.38286694550233" lon="18.111072315608215"><ele>51.0</ele><time>2026-04-21T18:22:35.024Z</time></trkpt><trkpt lat="40.38267869643449" lon="18.11124932621646"><ele>51.0</ele><time>2026-04-21T18:22:36.024Z</time></trkpt><trkpt lat="40.38249495762426" lon="18.11143286007626"><ele>51.0</ele><time>2026-04-21T18:22:37.024Z</time></trkpt><trkpt lat="40.38230978459158" lon="18.111615212424006"><ele>49.0</ele><time>2026-04-21T18:22:38.024Z</time></trkpt><trkpt lat="40.38212558982195" lon="18.111798634961495"><ele>47.0</ele><time>2026-04-21T18:22:39.024Z</time></trkpt><trkpt lat="40.381937302153034" lon="18.111983184130356"><ele>47.0</ele><time>2026-04-21T18:22:40.024Z</time></trkpt><trkpt lat="40.38175032735214" lon="18.112173465350228"><ele>47.0</ele><time>2026-04-21T18:22:41.024Z</time></trkpt><trkpt lat="40.381561895965774" lon="18.112367291006212"><ele>47.33333333333333</ele><time>2026-04-21T18:22:42.024Z</time></trkpt><trkpt lat="40.38138922483675" lon="18.112546975928115"><ele>47.666666666666664</ele><time>2026-04-21T18:22:43.024Z</time></trkpt><trkpt lat="40.381219673051056" lon="18.1127321713088"><ele>48.0</ele><time>2026-04-21T18:22:44.024Z</time></trkpt><trkpt lat="40.381061999642505" lon="18.11293046324846"><ele>48.66666666666667</ele><time>2026-04-21T18:22:45.024Z</time></trkpt><trkpt lat="40.380913345943554" lon="18.113136855460976"><ele>49.333333333333336</ele><time>2026-04-21T18:22:46.024Z</time></trkpt><trkpt lat="40.38077661059519" lon="18.113355444085045"><ele>50.0</ele><time>2026-04-21T18:22:47.024Z</time></trkpt><trkpt lat="40.380656447132914" lon="18.113571398818788"><ele>50.0</ele><time>2026-04-21T18:22:48.024Z</time></trkpt><trkpt lat="40.380549756094766" lon="18.11377890992431"><ele>50.0</ele><time>2026-04-21T18:22:49.024Z</time></trkpt><trkpt lat="40.38044803730968" lon="18.113995392194763"><ele>50.0</ele><time>2026-04-21T18:22:50.024Z</time></trkpt><trkpt lat="40.38036122812302" lon="18.11421121587477"><ele>50.0</ele><time>2026-04-21T18:22:51.024Z</time></trkpt><trkpt lat="40.38027934243824" lon="18.114422995820693"><ele>50.0</ele><time>2026-04-21T18:22:52.024Z</time></trkpt><trkpt lat="40.380204996225245" lon="18.114623959549693"><ele>50.0</ele><time>2026-04-21T18:22:53.024Z</time></trkpt><trkpt lat="40.3801485620314" lon="18.114815792323"><ele>50.25</ele><time>2026-04-21T18:22:54.024Z</time></trkpt><trkpt lat="40.38010230963288" lon="18.11499954715752"><ele>50.5</ele><time>2026-04-21T18:22:55.024Z</time></trkpt><trkpt lat="40.38006452056311" lon="18.115184603375706"><ele>50.75</ele><time>2026-04-21T18:22:56.024Z</time></trkpt><trkpt lat="40.38003339851145" lon="18.115363296066807"><ele>51.0</ele><time>2026-04-21T18:22:57.024Z</time></trkpt><trkpt lat="40.38000701881759" lon="18.115541410544857"><ele>51.0</ele><time>2026-04-21T18:22:58.024Z</time></trkpt><trkpt lat="40.37997644202159" lon="18.115723756884368"><ele>51.0</ele><time>2026-04-21T18:22:59.024Z</time></trkpt><trkpt lat="40.37995824910524" lon="18.115899383207566"><ele>51.0</ele><time>2026-04-21T18:23:00.024Z</time></trkpt><trkpt lat="40.37993991929103" lon="18.11607327781708"><ele>51.0</ele><time>2026-04-21T18:23:01.024Z</time></trkpt><trkpt lat="40.37992028974934" lon="18.116253849802963"><ele>51.0</ele><time>2026-04-21T18:23:02.024Z</time></trkpt><trkpt lat="40.379896603693645" lon="18.116440504639726"><ele>51.0</ele><time>2026-04-21T18:23:03.024Z</time></trkpt><trkpt lat="40.37987216504005" lon="18.116632179118465"><ele>51.0</ele><time>2026-04-21T18:23:04.024Z</time></trkpt><trkpt lat="40.37984762060524" lon="18.116830787064792"><ele>51.0</ele><time>2026-04-21T18:23:05.024Z</time></trkpt><trkpt lat="40.37982627629362" lon="18.11703830392696"><ele>50.33333333333333</ele><time>2026-04-21T18:23:06.024Z</time></trkpt><trkpt lat="40.37980276050396" lon="18.11725500129853"><ele>49.666666666666664</ele><time>2026-04-21T18:23:07.024Z</time></trkpt><trkpt lat="40.379780786653605" lon="18.117478748660986"><ele>49.0</ele><time>2026-04-21T18:23:08.024Z</time></trkpt><trkpt lat="40.379760841275974" lon="18.117705563921803"><ele>49.0</ele><time>2026-04-21T18:23:09.024Z</time></trkpt><trkpt lat="40.37974723886218" lon="18.11792399435139"><ele>49.0</ele><time>2026-04-21T18:23:10.024Z</time></trkpt><trkpt lat="40.379725959926986" lon="18.118122831620703"><ele>49.0</ele><time>2026-04-21T18:23:11.024Z</time></trkpt><trkpt lat="40.379705327483336" lon="18.118310736199483"><ele>49.0</ele><time>2026-04-21T18:23:12.024Z</time></trkpt><trkpt lat="40.379687864409064" lon="18.118487131591753"><ele>49.0</ele><time>2026-04-21T18:23:13.024Z</time></trkpt><trkpt lat="40.37966911371185" lon="18.11865875512231"><ele>49.0</ele><time>2026-04-21T18:23:14.024Z</time></trkpt><trkpt lat="40.37965446990965" lon="18.118826674619385"><ele>49.0</ele><time>2026-04-21T18:23:15.024Z</time></trkpt><trkpt lat="40.37963668290512" lon="18.11900245734045"><ele>49.0</ele><time>2026-04-21T18:23:16.024Z</time></trkpt><trkpt lat="40.37961450643919" lon="18.119187411758617"><ele>49.0</ele><time>2026-04-21T18:23:17.024Z</time></trkpt><trkpt lat="40.37958324277748" lon="18.1193835986643"><ele>49.0</ele><time>2026-04-21T18:23:18.024Z</time></trkpt><trkpt lat="40.37954985441678" lon="18.11957786253207"><ele>49.0</ele><time>2026-04-21T18:23:19.024Z</time></trkpt><trkpt lat="40.37951602476308" lon="18.119749464940135"><ele>49.0</ele><time>2026-04-21T18:23:20.024Z</time></trkpt><trkpt lat="40.37947265524971" lon="18.11991677098699"><ele>49.0</ele><time>2026-04-21T18:23:21.024Z</time></trkpt><trkpt lat="40.37943342233822" lon="18.12008024176465"><ele>49.0</ele><time>2026-04-21T18:23:22.024Z</time></trkpt><trkpt lat="40.379388634821176" lon="18.1202415616954"><ele>49.0</ele><time>2026-04-21T18:23:23.024Z</time></trkpt><trkpt lat="40.37934673966976" lon="18.12039069530801"><ele>49.0</ele><time>2026-04-21T18:23:24.024Z</time></trkpt><trkpt lat="40.37930570560657" lon="18.120536854775693"><ele>49.0</ele><time>2026-04-21T18:23:25.024Z</time></trkpt><trkpt lat="40.37924586200336" lon="18.120692570886305"><ele>49.0</ele><time>2026-04-21T18:23:26.024Z</time></trkpt><trkpt lat="40.379178203512225" lon="18.12085586533625"><ele>49.0</ele><time>2026-04-21T18:23:27.024Z</time></trkpt><trkpt lat="40.37910294898338" lon="18.121027449766117"><ele>49.0</ele><time>2026-04-21T18:23:28.024Z</time></trkpt><trkpt lat="40.379031181121675" lon="18.121198955009955"><ele>49.0</ele><time>2026-04-21T18:23:29.024Z</time></trkpt><trkpt lat="40.37894935596911" lon="18.121380001740736"><ele>49.0</ele><time>2026-04-21T18:23:30.024Z</time></trkpt><trkpt lat="40.37886190246672" lon="18.121572302450595"><ele>48.666666666666664</ele><time>2026-04-21T18:23:31.024Z</time></trkpt><trkpt lat="40.37876386860171" lon="18.121761594081956"><ele>48.33333333333333</ele><time>2026-04-21T18:23:32.024Z</time></trkpt><trkpt lat="40.37865991571039" lon="18.12194728302474"><ele>48.0</ele><time>2026-04-21T18:23:33.024Z</time></trkpt><trkpt lat="40.37853432623027" lon="18.12214089635279"><ele>48.0</ele><time>2026-04-21T18:23:34.024Z</time></trkpt><trkpt lat="40.37841712732125" lon="18.122328570542074"><ele>48.0</ele><time>2026-04-21T18:23:35.024Z</time></trkpt><trkpt lat="40.378286795598285" lon="18.12251448346194"><ele>48.0</ele><time>2026-04-21T18:23:36.024Z</time></trkpt><trkpt lat="40.37815591427549" lon="18.12269777703388"><ele>48.33333333333333</ele><time>2026-04-21T18:23:37.024Z</time></trkpt><trkpt lat="40.378031688690065" lon="18.12287340298016"><ele>48.666666666666664</ele><time>2026-04-21T18:23:38.024Z</time></trkpt><trkpt lat="40.3779163497772" lon="18.123043411183566"><ele>49.0</ele><time>2026-04-21T18:23:39.024Z</time></trkpt><trkpt lat="40.37780496954562" lon="18.123215878220805"><ele>49.33333333333333</ele><time>2026-04-21T18:23:40.024Z</time></trkpt><trkpt lat="40.37769240938233" lon="18.12339566392584"><ele>49.66666666666667</ele><time>2026-04-21T18:23:41.024Z</time></trkpt><trkpt lat="40.3775725091703" lon="18.123553349132003"><ele>50.0</ele><time>2026-04-21T18:23:42.024Z</time></trkpt><trkpt lat="40.37745515720662" lon="18.123715379510593"><ele>50.0</ele><time>2026-04-21T18:23:43.024Z</time></trkpt><trkpt lat="40.37734444197013" lon="18.12387365888797"><ele>50.0</ele><time>2026-04-21T18:23:44.024Z</time></trkpt><trkpt lat="40.37722537381509" lon="18.124037494931134"><ele>50.0</ele><time>2026-04-21T18:23:45.024Z</time></trkpt><trkpt lat="40.37711554037958" lon="18.1241862401123"><ele>50.0</ele><time>2026-04-21T18:23:46.024Z</time></trkpt><trkpt lat="40.37701622998499" lon="18.12433254757741"><ele>50.0</ele><time>2026-04-21T18:23:47.024Z</time></trkpt><trkpt lat="40.376912093220724" lon="18.124492696859882"><ele>50.0</ele><time>2026-04-21T18:23:48.024Z</time></trkpt><trkpt lat="40.376795964394745" lon="18.12465650662917"><ele>50.0</ele><time>2026-04-21T18:23:49.024Z</time></trkpt><trkpt lat="40.37668318052553" lon="18.124824101137186"><ele>50.0</ele><time>2026-04-21T18:23:50.024Z</time></trkpt><trkpt lat="40.376562065864434" lon="18.124992181861327"><ele>50.0</ele><time>2026-04-21T18:23:51.024Z</time></trkpt><trkpt lat="40.376442123068024" lon="18.125162597690533"><ele>48.333333333333336</ele><time>2026-04-21T18:23:52.024Z</time></trkpt><trkpt lat="40.376335513700276" lon="18.125323136095147"><ele>46.66666666666667</ele><time>2026-04-21T18:23:53.024Z</time></trkpt><trkpt lat="40.376224044105506" lon="18.12549060174748"><ele>45.0</ele><time>2026-04-21T18:23:54.024Z</time></trkpt><trkpt lat="40.37611213857012" lon="18.125650665055673"><ele>46.66666666666667</ele><time>2026-04-21T18:23:55.024Z</time></trkpt><trkpt lat="40.37599757313573" lon="18.125812880958215"><ele>48.333333333333336</ele><time>2026-04-21T18:23:56.024Z</time></trkpt><trkpt lat="40.37588126016721" lon="18.12597955810629"><ele>50.0</ele><time>2026-04-21T18:23:57.026Z</time></trkpt><trkpt lat="40.37576190363106" lon="18.12615663261161"><ele>50.0</ele><time>2026-04-21T18:23:58.025Z</time></trkpt><trkpt lat="40.37562858387193" lon="18.126359515189375"><ele>50.0</ele><time>2026-04-21T18:23:59.025Z</time></trkpt><trkpt lat="40.375483122772934" lon="18.126585637913813"><ele>50.0</ele><time>2026-04-21T18:24:00.026Z</time></trkpt><trkpt lat="40.3753303221599" lon="18.126826275602745"><ele>49.5</ele><time>2026-04-21T18:24:01.026Z</time></trkpt><trkpt lat="40.37516429042527" lon="18.127078902761724"><ele>49.0</ele><time>2026-04-21T18:24:02.026Z</time></trkpt><trkpt lat="40.37499587261034" lon="18.127324721914984"><ele>49.0</ele><time>2026-04-21T18:24:03.026Z</time></trkpt><trkpt lat="40.37482038507924" lon="18.12757135405886"><ele>49.0</ele><time>2026-04-21T18:24:04.026Z</time></trkpt><trkpt lat="40.374643531280086" lon="18.12781737063289"><ele>48.5</ele><time>2026-04-21T18:24:05.026Z</time></trkpt><trkpt lat="40.3744617429423" lon="18.128068139010377"><ele>48.0</ele><time>2026-04-21T18:24:06.026Z</time></trkpt><trkpt lat="40.37428687411117" lon="18.128313341007054"><ele>49.0</ele><time>2026-04-21T18:24:07.026Z</time></trkpt><trkpt lat="40.37412204143219" lon="18.12855486723116"><ele>50.0</ele><time>2026-04-21T18:24:08.026Z</time></trkpt><trkpt lat="40.37397205068009" lon="18.128768604382277"><ele>50.0</ele><time>2026-04-21T18:24:09.025Z</time></trkpt><trkpt lat="40.3738294093631" lon="18.12897494197458"><ele>50.0</ele><time>2026-04-21T18:24:10.026Z</time></trkpt><trkpt lat="40.37368925076563" lon="18.12918084261617"><ele>50.0</ele><time>2026-04-21T18:24:11.026Z</time></trkpt><trkpt lat="40.373552737602665" lon="18.129379715975862"><ele>50.0</ele><time>2026-04-21T18:24:12.026Z</time></trkpt><trkpt lat="40.37342162438445" lon="18.129565761347727"><ele>50.0</ele><time>2026-04-21T18:24:13.026Z</time></trkpt><trkpt lat="40.373290971155235" lon="18.129754981349006"><ele>50.0</ele><time>2026-04-21T18:24:14.026Z</time></trkpt><trkpt lat="40.373157760167345" lon="18.129948452779974"><ele>49.333333333333336</ele><time>2026-04-21T18:24:15.026Z</time></trkpt><trkpt lat="40.37302108249977" lon="18.130145022336208"><ele>48.66666666666667</ele><time>2026-04-21T18:24:16.026Z</time></trkpt><trkpt lat="40.37288621320955" lon="18.130347165559225"><ele>48.0</ele><time>2026-04-21T18:24:17.026Z</time></trkpt><trkpt lat="40.37274139847088" lon="18.130578262514792"><ele>49.5</ele><time>2026-04-21T18:24:18.026Z</time></trkpt><trkpt lat="40.37258209085885" lon="18.130832136418476"><ele>51.0</ele><time>2026-04-21T18:24:19.026Z</time></trkpt><trkpt lat="40.372397438117396" lon="18.131089373657563"><ele>51.0</ele><time>2026-04-21T18:24:20.026Z</time></trkpt><trkpt lat="40.37220017010142" lon="18.131358292392648"><ele>51.0</ele><time>2026-04-21T18:24:21.026Z</time></trkpt><trkpt lat="40.372010948043595" lon="18.131618594552613"><ele>51.0</ele><time>2026-04-21T18:24:22.026Z</time></trkpt><trkpt lat="40.37183075290048" lon="18.13187776060246"><ele>51.0</ele><time>2026-04-21T18:24:23.026Z</time></trkpt><trkpt lat="40.371655929185174" lon="18.132136078109443"><ele>51.0</ele><time>2026-04-21T18:24:24.026Z</time></trkpt><trkpt lat="40.37148071592615" lon="18.132389580437824"><ele>51.0</ele><time>2026-04-21T18:24:25.026Z</time></trkpt><trkpt lat="40.37130829594642" lon="18.132640310231693"><ele>50.5</ele><time>2026-04-21T18:24:26.026Z</time></trkpt><trkpt lat="40.37114325039245" lon="18.132878932730033"><ele>50.0</ele><time>2026-04-21T18:24:27.026Z</time></trkpt><trkpt lat="40.370991704777516" lon="18.13310067264887"><ele>50.66666666666667</ele><time>2026-04-21T18:24:28.026Z</time></trkpt><trkpt lat="40.370843145991444" lon="18.133315840953806"><ele>51.33333333333333</ele><time>2026-04-21T18:24:29.026Z</time></trkpt><trkpt lat="40.37069363422829" lon="18.13353215648811"><ele>52.0</ele><time>2026-04-21T18:24:30.026Z</time></trkpt><trkpt lat="40.37054114095594" lon="18.13375790362745"><ele>51.0</ele><time>2026-04-21T18:24:31.026Z</time></trkpt><trkpt lat="40.37038143269101" lon="18.13399104461508"><ele>50.0</ele><time>2026-04-21T18:24:32.026Z</time></trkpt><trkpt lat="40.37022309179973" lon="18.134219617094374"><ele>50.0</ele><time>2026-04-21T18:24:33.026Z</time></trkpt><trkpt lat="40.370066711472354" lon="18.13445007639151"><ele>50.0</ele><time>2026-04-21T18:24:34.026Z</time></trkpt><trkpt lat="40.36991016237979" lon="18.134677994481653"><ele>50.5</ele><time>2026-04-21T18:24:35.026Z</time></trkpt><trkpt lat="40.36975339850426" lon="18.134905382987647"><ele>51.0</ele><time>2026-04-21T18:24:36.026Z</time></trkpt><trkpt lat="40.36959089663059" lon="18.13514108790151"><ele>51.0</ele><time>2026-04-21T18:24:37.026Z</time></trkpt><trkpt lat="40.369430651175755" lon="18.135375936115175"><ele>51.0</ele><time>2026-04-21T18:24:38.026Z</time></trkpt><trkpt lat="40.36926458630679" lon="18.13561309033359"><ele>52.5</ele><time>2026-04-21T18:24:39.026Z</time></trkpt><trkpt lat="40.369105872687435" lon="18.135847913973805"><ele>54.0</ele><time>2026-04-21T18:24:40.026Z</time></trkpt><trkpt lat="40.36894114843846" lon="18.136086699781647"><ele>52.5</ele><time>2026-04-21T18:24:41.026Z</time></trkpt><trkpt lat="40.368780888659785" lon="18.13632068914397"><ele>51.0</ele><time>2026-04-21T18:24:42.026Z</time></trkpt><trkpt lat="40.368625960387824" lon="18.13655019936953"><ele>52.0</ele><time>2026-04-21T18:24:43.026Z</time></trkpt><trkpt lat="40.36846366476652" lon="18.13678463721571"><ele>53.0</ele><time>2026-04-21T18:24:44.026Z</time></trkpt><trkpt lat="40.36829803162575" lon="18.137015582167056"><ele>53.0</ele><time>2026-04-21T18:24:45.026Z</time></trkpt><trkpt lat="40.36814714825272" lon="18.137226550088442"><ele>53.0</ele><time>2026-04-21T18:24:46.026Z</time></trkpt><trkpt lat="40.36800307918549" lon="18.137439436885234"><ele>53.0</ele><time>2026-04-21T18:24:47.026Z</time></trkpt><trkpt lat="40.36785963961892" lon="18.137652851559167"><ele>53.5</ele><time>2026-04-21T18:24:48.026Z</time></trkpt><trkpt lat="40.367706279230816" lon="18.137872342396417"><ele>54.0</ele><time>2026-04-21T18:24:49.026Z</time></trkpt><trkpt lat="40.36755413953687" lon="18.138097412252563"><ele>53.0</ele><time>2026-04-21T18:24:50.026Z</time></trkpt><trkpt lat="40.36739746805231" lon="18.13832605678407"><ele>52.0</ele><time>2026-04-21T18:24:51.026Z</time></trkpt><trkpt lat="40.367247604822175" lon="18.138553841913144"><ele>52.0</ele><time>2026-04-21T18:24:52.026Z</time></trkpt><trkpt lat="40.36709934472806" lon="18.1387868822528"><ele>52.0</ele><time>2026-04-21T18:24:53.026Z</time></trkpt><trkpt lat="40.36698078082119" lon="18.13903322572419"><ele>50.5</ele><time>2026-04-21T18:24:54.026Z</time></trkpt><trkpt lat="40.366866784155704" lon="18.139293628219647"><ele>49.0</ele><time>2026-04-21T18:24:55.026Z</time></trkpt><trkpt lat="40.36676607162164" lon="18.139564842598528"><ele>49.0</ele><time>2026-04-21T18:24:56.026Z</time></trkpt><trkpt lat="40.366673672738074" lon="18.13982099781068"><ele>49.0</ele><time>2026-04-21T18:24:57.026Z</time></trkpt><trkpt lat="40.36658711262368" lon="18.14006014970665"><ele>49.0</ele><time>2026-04-21T18:24:58.026Z</time></trkpt><trkpt lat="40.3665127867805" lon="18.14027495741403"><ele>49.33333333333333</ele><time>2026-04-21T18:24:59.026Z</time></trkpt><trkpt lat="40.36644362111814" lon="18.14047608376962"><ele>49.66666666666667</ele><time>2026-04-21T18:25:00.026Z</time></trkpt><trkpt lat="40.36637819105858" lon="18.140675731254476"><ele>50.0</ele><time>2026-04-21T18:25:01.026Z</time></trkpt><trkpt lat="40.36631042757226" lon="18.140867667236083"><ele>50.66666666666667</ele><time>2026-04-21T18:25:02.026Z</time></trkpt><trkpt lat="40.36624223977196" lon="18.14104838736266"><ele>51.33333333333333</ele><time>2026-04-21T18:25:03.026Z</time></trkpt><trkpt lat="40.3661745790249" lon="18.14122351273476"><ele>52.0</ele><time>2026-04-21T18:25:04.026Z</time></trkpt><trkpt lat="40.36611235115944" lon="18.141401641031475"><ele>51.666666666666664</ele><time>2026-04-21T18:25:05.026Z</time></trkpt><trkpt lat="40.36604800959369" lon="18.141579716985962"><ele>51.33333333333333</ele><time>2026-04-21T18:25:06.026Z</time></trkpt><trkpt lat="40.365977509005596" lon="18.1417606092371"><ele>51.0</ele><time>2026-04-21T18:25:07.026Z</time></trkpt><trkpt lat="40.365916896378316" lon="18.141938219186287"><ele>51.0</ele><time>2026-04-21T18:25:08.026Z</time></trkpt><trkpt lat="40.36586070754841" lon="18.142106653628137"><ele>51.0</ele><time>2026-04-21T18:25:09.026Z</time></trkpt><trkpt lat="40.36580003541112" lon="18.142292627404906"><ele>51.0</ele><time>2026-04-21T18:25:10.026Z</time></trkpt><trkpt lat="40.36573112358575" lon="18.142474353017704"><ele>51.0</ele><time>2026-04-21T18:25:11.026Z</time></trkpt><trkpt lat="40.36566357433621" lon="18.142663060940546"><ele>51.33333333333333</ele><time>2026-04-21T18:25:12.026Z</time></trkpt><trkpt lat="40.365595109338535" lon="18.14285904531671"><ele>51.666666666666664</ele><time>2026-04-21T18:25:13.026Z</time></trkpt><trkpt lat="40.36552089585478" lon="18.143048901638817"><ele>52.0</ele><time>2026-04-21T18:25:14.026Z</time></trkpt><trkpt lat="40.36545657795497" lon="18.14324175943791"><ele>51.0</ele><time>2026-04-21T18:25:15.026Z</time></trkpt><trkpt lat="40.36538775804498" lon="18.14344284927966"><ele>50.0</ele><time>2026-04-21T18:25:16.026Z</time></trkpt><trkpt lat="40.365314463912746" lon="18.14363227163982"><ele>49.0</ele><time>2026-04-21T18:25:17.026Z</time></trkpt><trkpt lat="40.365241744955526" lon="18.143817805891743"><ele>49.0</ele><time>2026-04-21T18:25:18.026Z</time></trkpt><trkpt lat="40.365159839065136" lon="18.144007390012888"><ele>49.0</ele><time>2026-04-21T18:25:19.026Z</time></trkpt><trkpt lat="40.36509085111006" lon="18.144208430884355"><ele>49.0</ele><time>2026-04-21T18:25:20.026Z</time></trkpt><trkpt lat="40.36503056300928" lon="18.144380675910845"><ele>49.33333333333333</ele><time>2026-04-21T18:25:21.026Z</time></trkpt><trkpt lat="40.3649710835989" lon="18.144575014586938"><ele>49.66666666666667</ele><time>2026-04-21T18:25:22.026Z</time></trkpt><trkpt lat="40.36491014731626" lon="18.14476337311188"><ele>50.0</ele><time>2026-04-21T18:25:23.026Z</time></trkpt><trkpt lat="40.364847013647065" lon="18.144932515123536"><ele>50.0</ele><time>2026-04-21T18:25:24.026Z</time></trkpt><trkpt lat="40.364792757040156" lon="18.14509696497513"><ele>50.0</ele><time>2026-04-21T18:25:25.026Z</time></trkpt><trkpt lat="40.36473664581315" lon="18.145251137494064"><ele>50.0</ele><time>2026-04-21T18:25:26.026Z</time></trkpt><trkpt lat="40.3646834378504" lon="18.145393732133467"><ele>50.0</ele><time>2026-04-21T18:25:27.026Z</time></trkpt><trkpt lat="40.36464251802197" lon="18.145517396216015"><ele>50.16666666666667</ele><time>2026-04-21T18:25:28.026Z</time></trkpt><trkpt lat="40.3646165542889" lon="18.145622352859476"><ele>50.333333333333336</ele><time>2026-04-21T18:25:29.026Z</time></trkpt><trkpt lat="40.36460222499541" lon="18.145723978293788"><ele>50.5</ele><time>2026-04-21T18:25:30.026Z</time></trkpt><trkpt lat="40.36458887054275" lon="18.145818763928908"><ele>50.66666666666667</ele><time>2026-04-21T18:25:31.026Z</time></trkpt><trkpt lat="40.36457003027152" lon="18.145903279803758"><ele>50.833333333333336</ele><time>2026-04-21T18:25:32.026Z</time></trkpt><trkpt lat="40.364513768331385" lon="18.14604598804633"><ele>51.0</ele><time>2026-04-21T18:25:34.026Z</time></trkpt><trkpt lat="40.364440705125695" lon="18.146193901352234"><ele>50.666666666666664</ele><time>2026-04-21T18:25:36.026Z</time></trkpt><trkpt lat="40.36442370562992" lon="18.146296886971577"><ele>50.33333333333333</ele><time>2026-04-21T18:25:37.026Z</time></trkpt><trkpt lat="40.36443740378861" lon="18.14640051243396"><ele>50.0</ele><time>2026-04-21T18:25:38.026Z</time></trkpt><trkpt lat="40.36446075502679" lon="18.14650653763135"><ele>49.666666666666664</ele><time>2026-04-21T18:25:39.026Z</time></trkpt><trkpt lat="40.364467223061276" lon="18.146618847029295"><ele>49.33333333333333</ele><time>2026-04-21T18:25:40.026Z</time></trkpt><trkpt lat="40.364447249603074" lon="18.14671165277453"><ele>49.0</ele><time>2026-04-21T18:25:41.026Z</time></trkpt><trkpt lat="40.36440075480344" lon="18.146806649325516"><ele>48.25</ele><time>2026-04-21T18:25:42.026Z</time></trkpt><trkpt lat="40.36432718397289" lon="18.14690420965634"><ele>47.5</ele><time>2026-04-21T18:25:43.026Z</time></trkpt><trkpt lat="40.36421521212164" lon="18.147006311309717"><ele>46.75</ele><time>2026-04-21T18:25:44.026Z</time></trkpt><trkpt lat="40.364121732329295" lon="18.147114292839127"><ele>46.0</ele><time>2026-04-21T18:25:45.026Z</time></trkpt><trkpt lat="40.36404956612479" lon="18.14724061307395"><ele>46.0</ele><time>2026-04-21T18:25:46.026Z</time></trkpt><trkpt lat="40.3640075593773" lon="18.14738253327144"><ele>46.0</ele><time>2026-04-21T18:25:47.026Z</time></trkpt><trkpt lat="40.363969152133976" lon="18.14751670657966"><ele>46.0</ele><time>2026-04-21T18:25:48.026Z</time></trkpt><trkpt lat="40.363916861686285" lon="18.147638295218293"><ele>46.0</ele><time>2026-04-21T18:25:49.026Z</time></trkpt><trkpt lat="40.363873927528225" lon="18.147758864132886"><ele>46.0</ele><time>2026-04-21T18:25:50.026Z</time></trkpt><trkpt lat="40.363830153302054" lon="18.147879944207535"><ele>46.0</ele><time>2026-04-21T18:25:51.026Z</time></trkpt><trkpt lat="40.36378178326697" lon="18.14800496947902"><ele>46.0</ele><time>2026-04-21T18:25:52.026Z</time></trkpt><trkpt lat="40.36373596862313" lon="18.148127965239333"><ele>46.0</ele><time>2026-04-21T18:25:53.026Z</time></trkpt><trkpt lat="40.363699433143545" lon="18.148240102561807"><ele>46.0</ele><time>2026-04-21T18:25:54.026Z</time></trkpt><trkpt lat="40.363671734240995" lon="18.1483262590716"><ele>46.0</ele><time>2026-04-21T18:25:55.026Z</time></trkpt><trkpt lat="40.36364448813145" lon="18.1484014847611"><ele>46.0</ele><time>2026-04-21T18:25:56.026Z</time></trkpt><trkpt lat="40.36361091068467" lon="18.148474528901964"><ele>46.4</ele><time>2026-04-21T18:25:57.026Z</time></trkpt><trkpt lat="40.363557766776296" lon="18.14863626836682"><ele>46.8</ele><time>2026-04-21T18:25:59.026Z</time></trkpt><trkpt lat="40.36351759137382" lon="18.148730205262446"><ele>47.199999999999996</ele><time>2026-04-21T18:26:00.026Z</time></trkpt><trkpt lat="40.36348151968319" lon="18.148832071714732"><ele>47.599999999999994</ele><time>2026-04-21T18:26:01.026Z</time></trkpt><trkpt lat="40.36344175652556" lon="18.14893855380148"><ele>48.0</ele><time>2026-04-21T18:26:02.026Z</time></trkpt><trkpt lat="40.363397608459124" lon="18.14904619802247"><ele>48.0</ele><time>2026-04-21T18:26:03.027Z</time></trkpt><trkpt lat="40.36334617276817" lon="18.14918507414402"><ele>48.0</ele><time>2026-04-21T18:26:04.027Z</time></trkpt><trkpt lat="40.36329269394866" lon="18.14933259528731"><ele>48.0</ele><time>2026-04-21T18:26:05.027Z</time></trkpt><trkpt lat="40.36324166749099" lon="18.149478025909247"><ele>48.0</ele><time>2026-04-21T18:26:06.027Z</time></trkpt><trkpt lat="40.3631915120885" lon="18.149615384881876"><ele>48.0</ele><time>2026-04-21T18:26:07.027Z</time></trkpt><trkpt lat="40.363145918653856" lon="18.149742480226262"><ele>48.0</ele><time>2026-04-21T18:26:08.027Z</time></trkpt><trkpt lat="40.36310352537343" lon="18.149857085038757"><ele>48.0</ele><time>2026-04-21T18:26:09.027Z</time></trkpt><trkpt lat="40.363069617516075" lon="18.14996187751332"><ele>48.0</ele><time>2026-04-21T18:26:10.027Z</time></trkpt><trkpt lat="40.363049850400465" lon="18.150062293879913"><ele>48.0</ele><time>2026-04-21T18:26:11.027Z</time></trkpt><trkpt lat="40.36302230689842" lon="18.150153706156924"><ele>48.0</ele><time>2026-04-21T18:26:12.027Z</time></trkpt><trkpt lat="40.36299490163384" lon="18.150240153900317"><ele>48.166666666666664</ele><time>2026-04-21T18:26:13.027Z</time></trkpt><trkpt lat="40.36296499046532" lon="18.150327456949093"><ele>48.33333333333333</ele><time>2026-04-21T18:26:14.027Z</time></trkpt><trkpt lat="40.36294441719222" lon="18.150410518302905"><ele>48.5</ele><time>2026-04-21T18:26:15.027Z</time></trkpt><trkpt lat="40.3629170856299" lon="18.150505406339843"><ele>48.666666666666664</ele><time>2026-04-21T18:26:16.026Z</time></trkpt><trkpt lat="40.36288678548975" lon="18.150608119336198"><ele>48.83333333333333</ele><time>2026-04-21T18:26:17.026Z</time></trkpt><trkpt lat="40.36285622194098" lon="18.150717989646814"><ele>49.0</ele><time>2026-04-21T18:26:18.026Z</time></trkpt><trkpt lat="40.36281127681868" lon="18.15083645659893"><ele>49.0</ele><time>2026-04-21T18:26:19.026Z</time></trkpt><trkpt lat="40.36277940239994" lon="18.150964486046202"><ele>49.0</ele><time>2026-04-21T18:26:20.026Z</time></trkpt><trkpt lat="40.362746853382205" lon="18.15110307843086"><ele>49.0</ele><time>2026-04-21T18:26:21.026Z</time></trkpt><trkpt lat="40.362703759046994" lon="18.151250830620477"><ele>49.0</ele><time>2026-04-21T18:26:22.026Z</time></trkpt><trkpt lat="40.362653559146196" lon="18.151405443295513"><ele>48.33333333333333</ele><time>2026-04-21T18:26:23.026Z</time></trkpt><trkpt lat="40.36259843122202" lon="18.15157899250635"><ele>47.666666666666664</ele><time>2026-04-21T18:26:24.026Z</time></trkpt><trkpt lat="40.36253454728584" lon="18.151767213968263"><ele>47.0</ele><time>2026-04-21T18:26:25.026Z</time></trkpt><trkpt lat="40.362454124354954" lon="18.151972810148685"><ele>47.0</ele><time>2026-04-21T18:26:26.026Z</time></trkpt><trkpt lat="40.36236901988364" lon="18.152178607486494"><ele>47.0</ele><time>2026-04-21T18:26:27.026Z</time></trkpt><trkpt lat="40.36230346711881" lon="18.152369309674167"><ele>47.0</ele><time>2026-04-21T18:26:28.026Z</time></trkpt><trkpt lat="40.362236816673025" lon="18.152544701170598"><ele>46.5</ele><time>2026-04-21T18:26:29.026Z</time></trkpt><trkpt lat="40.362179447945294" lon="18.152706180894786"><ele>46.0</ele><time>2026-04-21T18:26:30.026Z</time></trkpt><trkpt lat="40.36212636256064" lon="18.152859007946724"><ele>45.5</ele><time>2026-04-21T18:26:31.026Z</time></trkpt><trkpt lat="40.36207183166964" lon="18.153000350754027"><ele>45.0</ele><time>2026-04-21T18:26:32.026Z</time></trkpt><trkpt lat="40.362027573050746" lon="18.153132071449996"><ele>44.8</ele><time>2026-04-21T18:26:33.026Z</time></trkpt><trkpt lat="40.36197806248485" lon="18.153250874569903"><ele>44.6</ele><time>2026-04-21T18:26:34.026Z</time></trkpt><trkpt lat="40.36192851045517" lon="18.1533763576536"><ele>44.400000000000006</ele><time>2026-04-21T18:26:35.026Z</time></trkpt><trkpt lat="40.36187475803949" lon="18.15348322176918"><ele>44.2</ele><time>2026-04-21T18:26:36.026Z</time></trkpt><trkpt lat="40.361830899678395" lon="18.153574855595572"><ele>44.0</ele><time>2026-04-21T18:26:37.026Z</time></trkpt><trkpt lat="40.36179394633064" lon="18.15366350797788"><ele>44.0</ele><time>2026-04-21T18:26:38.026Z</time></trkpt><trkpt lat="40.36176258341068" lon="18.153754860802472"><ele>44.0</ele><time>2026-04-21T18:26:39.026Z</time></trkpt><trkpt lat="40.361724148256165" lon="18.15386426254225"><ele>44.0</ele><time>2026-04-21T18:26:40.026Z</time></trkpt><trkpt lat="40.36168594820846" lon="18.15400048181603"><ele>44.0</ele><time>2026-04-21T18:26:41.026Z</time></trkpt><trkpt lat="40.36163835100969" lon="18.15412956022233"><ele>44.0</ele><time>2026-04-21T18:26:42.026Z</time></trkpt><trkpt lat="40.361600695376694" lon="18.15425282902363"><ele>44.6</ele><time>2026-04-21T18:26:43.026Z</time></trkpt><trkpt lat="40.361563680315626" lon="18.154384626235604"><ele>45.2</ele><time>2026-04-21T18:26:44.026Z</time></trkpt><trkpt lat="40.36152316257518" lon="18.154521259810323"><ele>45.800000000000004</ele><time>2026-04-21T18:26:45.026Z</time></trkpt><trkpt lat="40.36148039346983" lon="18.154650331112038"><ele>46.400000000000006</ele><time>2026-04-21T18:26:46.026Z</time></trkpt><trkpt lat="40.36144482441238" lon="18.154754826222067"><ele>47.0</ele><time>2026-04-21T18:26:47.026Z</time></trkpt><trkpt lat="40.36140995978522" lon="18.154842703526437"><ele>47.166666666666664</ele><time>2026-04-21T18:26:48.026Z</time></trkpt><trkpt lat="40.36138313637217" lon="18.15493394613271"><ele>47.33333333333333</ele><time>2026-04-21T18:26:49.026Z</time></trkpt><trkpt lat="40.361347866808494" lon="18.15503432159415"><ele>47.5</ele><time>2026-04-21T18:26:50.026Z</time></trkpt><trkpt lat="40.361302905527964" lon="18.155130662695356"><ele>47.666666666666664</ele><time>2026-04-21T18:26:51.026Z</time></trkpt><trkpt lat="40.36126148670109" lon="18.15523626181064"><ele>47.833333333333336</ele><time>2026-04-21T18:26:52.026Z</time></trkpt><trkpt lat="40.36121365193413" lon="18.155355203557026"><ele>48.0</ele><time>2026-04-21T18:26:53.026Z</time></trkpt><trkpt lat="40.36115182086269" lon="18.15549518439587"><ele>48.0</ele><time>2026-04-21T18:26:54.026Z</time></trkpt><trkpt lat="40.361077434269156" lon="18.155658512755082"><ele>48.0</ele><time>2026-04-21T18:26:55.026Z</time></trkpt><trkpt lat="40.36101821412795" lon="18.155797645255237"><ele>48.0</ele><time>2026-04-21T18:26:56.026Z</time></trkpt><trkpt lat="40.36096896955742" lon="18.155919096725093"><ele>48.0</ele><time>2026-04-21T18:26:57.026Z</time></trkpt><trkpt lat="40.3609275798835" lon="18.156032556235278"><ele>47.99999999999999</ele><time>2026-04-21T18:26:58.026Z</time></trkpt><trkpt lat="40.36088511088301" lon="18.15613506371443"><ele>48.0</ele><time>2026-04-21T18:26:59.026Z</time></trkpt><trkpt lat="40.36084703415062" lon="18.156224590825616"><ele>48.0</ele><time>2026-04-21T18:27:00.026Z</time></trkpt><trkpt lat="40.36081080463155" lon="18.156306529678954"><ele>48.0</ele><time>2026-04-21T18:27:01.026Z</time></trkpt><trkpt lat="40.36076751387114" lon="18.15637555020775"><ele>48.0</ele><time>2026-04-21T18:27:02.026Z</time></trkpt><trkpt lat="40.36072127124363" lon="18.15643258160814"><ele>47.99999999999999</ele><time>2026-04-21T18:27:03.026Z</time></trkpt><trkpt lat="40.36065986081847" lon="18.15646653822848"><ele>48.0</ele><time>2026-04-21T18:27:04.026Z</time></trkpt><trkpt lat="40.36057544881556" lon="18.156520535323786"><ele>47.666666666666664</ele><time>2026-04-21T18:27:05.026Z</time></trkpt><trkpt lat="40.36048867899368" lon="18.156561299485404"><ele>47.333333333333336</ele><time>2026-04-21T18:27:06.026Z</time></trkpt><trkpt lat="40.36040917203357" lon="18.156591297509078"><ele>47.0</ele><time>2026-04-21T18:27:07.026Z</time></trkpt><trkpt lat="40.3603312390995" lon="18.156599350109328"><ele>46.66666666666667</ele><time>2026-04-21T18:27:08.026Z</time></trkpt><trkpt lat="40.3602433580694" lon="18.156586288059035"><ele>46.333333333333336</ele><time>2026-04-21T18:27:09.026Z</time></trkpt><trkpt lat="40.3601615918056" lon="18.156555202734104"><ele>46.0</ele><time>2026-04-21T18:27:10.026Z</time></trkpt><trkpt lat="40.36007784683997" lon="18.156502286825127"><ele>46.0</ele><time>2026-04-21T18:27:11.026Z</time></trkpt><trkpt lat="40.35998877403192" lon="18.156452378779452"><ele>46.0</ele><time>2026-04-21T18:27:12.026Z</time></trkpt><trkpt lat="40.35989909821132" lon="18.156408754672235"><ele>46.0</ele><time>2026-04-21T18:27:13.026Z</time></trkpt><trkpt lat="40.35982221723297" lon="18.156359396755956"><ele>46.0</ele><time>2026-04-21T18:27:14.026Z</time></trkpt><trkpt lat="40.359730342320155" lon="18.15630789685128"><ele>46.0</ele><time>2026-04-21T18:27:15.026Z</time></trkpt><trkpt lat="40.35963924601335" lon="18.15624876191032"><ele>46.0</ele><time>2026-04-21T18:27:16.026Z</time></trkpt><trkpt lat="40.359543108042544" lon="18.156178812037325"><ele>46.0</ele><time>2026-04-21T18:27:17.026Z</time></trkpt><trkpt lat="40.35945245307347" lon="18.15610201084271"><ele>46.0</ele><time>2026-04-21T18:27:18.026Z</time></trkpt><trkpt lat="40.35936396108972" lon="18.156026377065036"><ele>46.0</ele><time>2026-04-21T18:27:19.026Z</time></trkpt><trkpt lat="40.35928214958238" lon="18.15595480184536"><ele>46.0</ele><time>2026-04-21T18:27:20.026Z</time></trkpt><trkpt lat="40.35920401198816" lon="18.155885718689408"><ele>46.0</ele><time>2026-04-21T18:27:21.026Z</time></trkpt><trkpt lat="40.35912663065289" lon="18.155813284034288"><ele>46.0</ele><time>2026-04-21T18:27:22.026Z</time></trkpt><trkpt lat="40.3590516041718" lon="18.155734954059177"><ele>46.0</ele><time>2026-04-21T18:27:23.026Z</time></trkpt><trkpt lat="40.35897260099113" lon="18.155656747149063"><ele>46.0</ele><time>2026-04-21T18:27:24.026Z</time></trkpt><trkpt lat="40.35888677764953" lon="18.155574494219376"><ele>46.0</ele><time>2026-04-21T18:27:25.026Z</time></trkpt><trkpt lat="40.358797519312375" lon="18.15549559860465"><ele>46.16666666666667</ele><time>2026-04-21T18:27:26.026Z</time></trkpt><trkpt lat="40.358714595082894" lon="18.155426033171867"><ele>46.333333333333336</ele><time>2026-04-21T18:27:27.026Z</time></trkpt><trkpt lat="40.358643243327734" lon="18.155363467975477"><ele>46.5</ele><time>2026-04-21T18:27:28.026Z</time></trkpt><trkpt lat="40.358578591981136" lon="18.155298816943354"><ele>46.666666666666664</ele><time>2026-04-21T18:27:29.026Z</time></trkpt><trkpt lat="40.358517020782934" lon="18.155237057059164"><ele>46.83333333333333</ele><time>2026-04-21T18:27:30.026Z</time></trkpt><trkpt lat="40.358462818026" lon="18.155181171365466"><ele>47.0</ele><time>2026-04-21T18:27:31.026Z</time></trkpt><trkpt lat="40.35837320534014" lon="18.155097699342242"><ele>47.0</ele><time>2026-04-21T18:27:33.026Z</time></trkpt><trkpt lat="40.358311954331086" lon="18.155013901161706"><ele>47.0</ele><time>2026-04-21T18:27:35.026Z</time></trkpt><trkpt lat="40.35827854701284" lon="18.15493547373597"><ele>47.0</ele><time>2026-04-21T18:27:37.026Z</time></trkpt><trkpt lat="40.35823427356522" lon="18.15483553146546"><ele>47.0</ele><time>2026-04-21T18:27:39.026Z</time></trkpt><trkpt lat="40.35817953105615" lon="18.154778415900427"><ele>47.0</ele><time>2026-04-21T18:27:41.026Z</time></trkpt><trkpt lat="40.358071796050815" lon="18.154731291343737"><ele>47.0</ele><time>2026-04-21T18:27:43.026Z</time></trkpt><trkpt lat="40.357989520070944" lon="18.154677790599635"><ele>47.75</ele><time>2026-04-21T18:27:44.026Z</time></trkpt><trkpt lat="40.35789740344386" lon="18.154591807306048"><ele>48.5</ele><time>2026-04-21T18:27:45.026Z</time></trkpt><trkpt lat="40.35776848925753" lon="18.154479714101466"><ele>49.25</ele><time>2026-04-21T18:27:46.026Z</time></trkpt><trkpt lat="40.35764795372869" lon="18.154364062906357"><ele>50.0</ele><time>2026-04-21T18:27:47.026Z</time></trkpt><trkpt lat="40.35753879586313" lon="18.154271360494224"><ele>50.0</ele><time>2026-04-21T18:27:48.026Z</time></trkpt><trkpt lat="40.357438749918714" lon="18.154197928355142"><ele>50.0</ele><time>2026-04-21T18:27:49.026Z</time></trkpt><trkpt lat="40.357347677648114" lon="18.154127382338643"><ele>50.0</ele><time>2026-04-21T18:27:50.026Z</time></trkpt><trkpt lat="40.35726245818995" lon="18.154059436968634"><ele>50.0</ele><time>2026-04-21T18:27:51.026Z</time></trkpt><trkpt lat="40.357168074212794" lon="18.15400763115384"><ele>50.0</ele><time>2026-04-21T18:27:52.026Z</time></trkpt><trkpt lat="40.3570617102027" lon="18.153961717414408"><ele>50.4</ele><time>2026-04-21T18:27:53.026Z</time></trkpt><trkpt lat="40.356945274020326" lon="18.15391035427088"><ele>50.8</ele><time>2026-04-21T18:27:54.026Z</time></trkpt><trkpt lat="40.35684875849187" lon="18.15382580899716"><ele>51.2</ele><time>2026-04-21T18:27:55.026Z</time></trkpt><trkpt lat="40.356776278538135" lon="18.153718932497387"><ele>51.6</ele><time>2026-04-21T18:27:56.026Z</time></trkpt><trkpt lat="40.3567033856694" lon="18.153631119090686"><ele>52.0</ele><time>2026-04-21T18:27:57.026Z</time></trkpt><trkpt lat="40.356625687635386" lon="18.15355130539205"><ele>52.0</ele><time>2026-04-21T18:27:58.026Z</time></trkpt><trkpt lat="40.35654583969045" lon="18.153468414575695"><ele>52.0</ele><time>2026-04-21T18:27:59.026Z</time></trkpt><trkpt lat="40.35646839467652" lon="18.153387124621922"><ele>52.0</ele><time>2026-04-21T18:28:00.026Z</time></trkpt><trkpt lat="40.3563727822003" lon="18.15330410368559"><ele>52.0</ele><time>2026-04-21T18:28:01.026Z</time></trkpt><trkpt lat="40.356280846046445" lon="18.15320645372347"><ele>52.0</ele><time>2026-04-21T18:28:02.026Z</time></trkpt><trkpt lat="40.3561979353405" lon="18.153117298758676"><ele>51.6</ele><time>2026-04-21T18:28:03.026Z</time></trkpt><trkpt lat="40.356128744403726" lon="18.153035386403968"><ele>51.2</ele><time>2026-04-21T18:28:04.026Z</time></trkpt><trkpt lat="40.35605434323199" lon="18.15295028776977"><ele>50.8</ele><time>2026-04-21T18:28:05.026Z</time></trkpt><trkpt lat="40.35598173626798" lon="18.152868563780704"><ele>50.4</ele><time>2026-04-21T18:28:06.026Z</time></trkpt><trkpt lat="40.355910592695885" lon="18.152788842602458"><ele>50.0</ele><time>2026-04-21T18:28:07.026Z</time></trkpt><trkpt lat="40.355840910472644" lon="18.152711970305905"><ele>50.00000000000001</ele><time>2026-04-21T18:28:08.026Z</time></trkpt><trkpt lat="40.35577110503601" lon="18.1526431252412"><ele>50.0</ele><time>2026-04-21T18:28:09.028Z</time></trkpt><trkpt lat="40.355704000070055" lon="18.152570059869323"><ele>50.0</ele><time>2026-04-21T18:28:10.028Z</time></trkpt><trkpt lat="40.35564289665776" lon="18.152501810924537"><ele>50.0</ele><time>2026-04-21T18:28:11.028Z</time></trkpt><trkpt lat="40.35558191498917" lon="18.152433412318477"><ele>50.00000000000001</ele><time>2026-04-21T18:28:12.027Z</time></trkpt><trkpt lat="40.355518909721134" lon="18.152367948651623"><ele>50.0</ele><time>2026-04-21T18:28:13.027Z</time></trkpt><trkpt lat="40.35545759770241" lon="18.152305053054373"><ele>50.00000000000001</ele><time>2026-04-21T18:28:14.027Z</time></trkpt><trkpt lat="40.355402276981614" lon="18.152244943167176"><ele>50.0</ele><time>2026-04-21T18:28:15.028Z</time></trkpt><trkpt lat="40.355345737236306" lon="18.15218167604633"><ele>50.0</ele><time>2026-04-21T18:28:16.027Z</time></trkpt><trkpt lat="40.35529680139455" lon="18.152124738162"><ele>50.0</ele><time>2026-04-21T18:28:17.027Z</time></trkpt><trkpt lat="40.355204442013736" lon="18.152029379209544"><ele>50.00000000000001</ele><time>2026-04-21T18:28:19.027Z</time></trkpt><trkpt lat="40.355151809674936" lon="18.15197330140817"><ele>50.0</ele><time>2026-04-21T18:28:20.027Z</time></trkpt><trkpt lat="40.355095726275046" lon="18.15191325811533"><ele>50.0</ele><time>2026-04-21T18:28:21.028Z</time></trkpt><trkpt lat="40.35499174683357" lon="18.151803287984976"><ele>50.0</ele><time>2026-04-21T18:28:23.028Z</time></trkpt><trkpt lat="40.354929398073935" lon="18.151749377314648"><ele>50.0</ele><time>2026-04-21T18:28:24.028Z</time></trkpt><trkpt lat="40.35482750186506" lon="18.151664559921286"><ele>50.0</ele><time>2026-04-21T18:28:26.028Z</time></trkpt><trkpt lat="40.35476299673673" lon="18.151597840881397"><ele>50.0</ele><time>2026-04-21T18:28:28.028Z</time></trkpt><trkpt lat="40.354674629764055" lon="18.15151862132407"><ele>50.0</ele><time>2026-04-21T18:28:30.028Z</time></trkpt><trkpt lat="40.35458105401211" lon="18.15143109603172"><ele>50.0</ele><time>2026-04-21T18:28:32.028Z</time></trkpt><trkpt lat="40.35452875821043" lon="18.15138040686927"><ele>50.0</ele><time>2026-04-21T18:28:33.028Z</time></trkpt><trkpt lat="40.35442360861776" lon="18.151284201465636"><ele>50.0</ele><time>2026-04-21T18:28:35.028Z</time></trkpt><trkpt lat="40.354362915002945" lon="18.1512268741429"><ele>50.0</ele><time>2026-04-21T18:28:36.028Z</time></trkpt><trkpt lat="40.35429915838216" lon="18.15117209476589"><ele>50.0</ele><time>2026-04-21T18:28:37.028Z</time></trkpt><trkpt lat="40.354213943610986" lon="18.151088175795998"><ele>50.0</ele><time>2026-04-21T18:28:38.028Z</time></trkpt><trkpt lat="40.35411520690984" lon="18.150983305161734"><ele>50.0</ele><time>2026-04-21T18:28:39.028Z</time></trkpt><trkpt lat="40.35401262743753" lon="18.150879658864376"><ele>50.0</ele><time>2026-04-21T18:28:40.028Z</time></trkpt><trkpt lat="40.35391352633724" lon="18.150780986823936"><ele>49.5</ele><time>2026-04-21T18:28:41.028Z</time></trkpt><trkpt lat="40.35381340282713" lon="18.150689119447023"><ele>49.0</ele><time>2026-04-21T18:28:42.028Z</time></trkpt><trkpt lat="40.353696730714674" lon="18.15058573531368"><ele>48.5</ele><time>2026-04-21T18:28:43.028Z</time></trkpt><trkpt lat="40.35357952110032" lon="18.15049299315135"><ele>48.0</ele><time>2026-04-21T18:28:44.028Z</time></trkpt><trkpt lat="40.35346654620214" lon="18.150425300378267"><ele>48.0</ele><time>2026-04-21T18:28:45.028Z</time></trkpt><trkpt lat="40.353356348147365" lon="18.15037210902062"><ele>48.0</ele><time>2026-04-21T18:28:46.028Z</time></trkpt><trkpt lat="40.353249669662" lon="18.150350460776785"><ele>48.0</ele><time>2026-04-21T18:28:47.028Z</time></trkpt><trkpt lat="40.353143614804566" lon="18.1503663115152"><ele>48.0</ele><time>2026-04-21T18:28:48.028Z</time></trkpt><trkpt lat="40.353036091529674" lon="18.15039802461447"><ele>48.0</ele><time>2026-04-21T18:28:49.028Z</time></trkpt><trkpt lat="40.35291057425846" lon="18.150459689401156"><ele>48.4</ele><time>2026-04-21T18:28:50.028Z</time></trkpt><trkpt lat="40.35277403376202" lon="18.15053216016906"><ele>48.8</ele><time>2026-04-21T18:28:51.028Z</time></trkpt><trkpt lat="40.35265511514385" lon="18.150560516389813"><ele>49.2</ele><time>2026-04-21T18:28:52.028Z</time></trkpt><trkpt lat="40.35256032063203" lon="18.15059311266788"><ele>49.6</ele><time>2026-04-21T18:28:53.028Z</time></trkpt><trkpt lat="40.352479423198844" lon="18.150589825201777"><ele>50.0</ele><time>2026-04-21T18:28:54.028Z</time></trkpt><trkpt lat="40.3524157575814" lon="18.1505903947703"><ele>50.0</ele><time>2026-04-21T18:28:55.028Z</time></trkpt><trkpt lat="40.35235090060165" lon="18.15058612607609"><ele>50.0</ele><time>2026-04-21T18:28:56.028Z</time></trkpt><trkpt lat="40.352272094764686" lon="18.150557840326545"><ele>50.0</ele><time>2026-04-21T18:28:57.028Z</time></trkpt><trkpt lat="40.35219864408374" lon="18.150557172286437"><ele>50.0</ele><time>2026-04-21T18:28:58.028Z</time></trkpt><trkpt lat="40.35210945001277" lon="18.15060991656493"><ele>50.0</ele><time>2026-04-21T18:29:00.028Z</time></trkpt><trkpt lat="40.35204150588374" lon="18.150765780586095"><ele>50.0</ele><time>2026-04-21T18:29:02.028Z</time></trkpt><trkpt lat="40.35200507173816" lon="18.150864278988532"><ele>50.0</ele><time>2026-04-21T18:29:03.028Z</time></trkpt><trkpt lat="40.351958201583045" lon="18.150961185347047"><ele>50.0</ele><time>2026-04-21T18:29:04.028Z</time></trkpt><trkpt lat="40.351896444680214" lon="18.151052691939245"><ele>50.0</ele><time>2026-04-21T18:29:05.028Z</time></trkpt><trkpt lat="40.351823312990376" lon="18.151137584655917"><ele>50.0</ele><time>2026-04-21T18:29:06.028Z</time></trkpt><trkpt lat="40.3517366034536" lon="18.151209160178244"><ele>50.0</ele><time>2026-04-21T18:29:07.028Z</time></trkpt><trkpt lat="40.351641627808505" lon="18.15127128373874"><ele>50.0</ele><time>2026-04-21T18:29:08.028Z</time></trkpt><trkpt lat="40.35153580101788" lon="18.151324119811633"><ele>50.0</ele><time>2026-04-21T18:29:09.028Z</time></trkpt><trkpt lat="40.351406034684544" lon="18.151378637776368"><ele>50.0</ele><time>2026-04-21T18:29:10.028Z</time></trkpt><trkpt lat="40.35127049392054" lon="18.151449955532104"><ele>50.0</ele><time>2026-04-21T18:29:11.028Z</time></trkpt><trkpt lat="40.351156974289225" lon="18.151501041304186"><ele>50.0</ele><time>2026-04-21T18:29:12.028Z</time></trkpt><trkpt lat="40.35105578010363" lon="18.151538839583424"><ele>50.0</ele><time>2026-04-21T18:29:13.028Z</time></trkpt><trkpt lat="40.350946657716555" lon="18.151567658257"><ele>50.0</ele><time>2026-04-21T18:29:14.028Z</time></trkpt><trkpt lat="40.350855578911755" lon="18.151598963620017"><ele>50.0</ele><time>2026-04-21T18:29:15.028Z</time></trkpt><trkpt lat="40.35076163550048" lon="18.15163103426126"><ele>50.00000000000001</ele><time>2026-04-21T18:29:16.028Z</time></trkpt><trkpt lat="40.35068983763596" lon="18.15164956826192"><ele>50.0</ele><time>2026-04-21T18:29:17.028Z</time></trkpt><trkpt lat="40.350633987653836" lon="18.151703697955234"><ele>50.0</ele><time>2026-04-21T18:29:18.028Z</time></trkpt><trkpt lat="40.35052510848208" lon="18.15175351176372"><ele>50.0</ele><time>2026-04-21T18:29:20.028Z</time></trkpt><trkpt lat="40.35046000980812" lon="18.151801952987064"><ele>50.00000000000001</ele><time>2026-04-21T18:29:22.028Z</time></trkpt><trkpt lat="40.350426159200126" lon="18.15187392485515"><ele>50.0</ele><time>2026-04-21T18:29:32.028Z</time></trkpt><trkpt lat="40.350372722035715" lon="18.151935278886334"><ele>50.25</ele><time>2026-04-21T18:29:47.028Z</time></trkpt><trkpt lat="40.35027127533519" lon="18.15196912026408"><ele>50.5</ele><time>2026-04-21T18:29:48.028Z</time></trkpt><trkpt lat="40.3501321462299" lon="18.152024168969394"><ele>50.75</ele><time>2026-04-21T18:29:49.028Z</time></trkpt><trkpt lat="40.3499699288391" lon="18.152085070179602"><ele>51.0</ele><time>2026-04-21T18:29:50.028Z</time></trkpt><trkpt lat="40.34988759848208" lon="18.15217468860553"><ele>51.0</ele><time>2026-04-21T18:29:52.028Z</time></trkpt><trkpt lat="40.34973622881915" lon="18.152253831718706"><ele>51.0</ele><time>2026-04-21T18:29:53.028Z</time></trkpt><trkpt lat="40.34960943674598" lon="18.15232275572651"><ele>51.0</ele><time>2026-04-21T18:29:54.028Z</time></trkpt><trkpt lat="40.34946462457067" lon="18.152396601165343"><ele>50.0</ele><time>2026-04-21T18:29:55.028Z</time></trkpt><trkpt lat="40.349307946286515" lon="18.15247425478803"><ele>49.0</ele><time>2026-04-21T18:29:56.028Z</time></trkpt><trkpt lat="40.349147637093985" lon="18.152555583894443"><ele>48.0</ele><time>2026-04-21T18:29:57.028Z</time></trkpt><trkpt lat="40.34900447671994" lon="18.152629666390414"><ele>48.25</ele><time>2026-04-21T18:29:58.028Z</time></trkpt><trkpt lat="40.34887392932007" lon="18.15269349480226"><ele>48.5</ele><time>2026-04-21T18:29:59.028Z</time></trkpt><trkpt lat="40.34873807414305" lon="18.152766084990475"><ele>48.75</ele><time>2026-04-21T18:30:00.028Z</time></trkpt><trkpt lat="40.34860443252316" lon="18.152845580163035"><ele>49.0</ele><time>2026-04-21T18:30:01.028Z</time></trkpt><trkpt lat="40.34846680024861" lon="18.152924849617293"><ele>49.0</ele><time>2026-04-21T18:30:02.028Z</time></trkpt><trkpt lat="40.34832046294433" lon="18.152994835208226"><ele>49.0</ele><time>2026-04-21T18:30:03.028Z</time></trkpt><trkpt lat="40.348190503825116" lon="18.15305993797965"><ele>49.0</ele><time>2026-04-21T18:30:04.028Z</time></trkpt><trkpt lat="40.3480711814382" lon="18.153129872810933"><ele>49.0</ele><time>2026-04-21T18:30:05.028Z</time></trkpt><trkpt lat="40.34794780909666" lon="18.15320013068911"><ele>49.400000000000006</ele><time>2026-04-21T18:30:06.028Z</time></trkpt><trkpt lat="40.34784162873909" lon="18.153264793988164"><ele>49.8</ele><time>2026-04-21T18:30:07.028Z</time></trkpt><trkpt lat="40.34773595959319" lon="18.153319699939885"><ele>50.2</ele><time>2026-04-21T18:30:08.028Z</time></trkpt><trkpt lat="40.3476409049201" lon="18.153377141105818"><ele>50.599999999999994</ele><time>2026-04-21T18:30:09.028Z</time></trkpt><trkpt lat="40.347552836818586" lon="18.153431325533944"><ele>51.0</ele><time>2026-04-21T18:30:10.028Z</time></trkpt><trkpt lat="40.34747530064859" lon="18.153485613222955"><ele>51.0</ele><time>2026-04-21T18:30:11.028Z</time></trkpt><trkpt lat="40.34740469704957" lon="18.153534002044225"><ele>51.0</ele><time>2026-04-21T18:30:12.028Z</time></trkpt><trkpt lat="40.34736597840101" lon="18.1536201747445"><ele>51.0</ele><time>2026-04-21T18:30:43.028Z</time></trkpt><trkpt lat="40.34723289697899" lon="18.1536821235112"><ele>51.0</ele><time>2026-04-21T18:30:45.028Z</time></trkpt><trkpt lat="40.34713031534165" lon="18.153735385077802"><ele>51.0</ele><time>2026-04-21T18:30:46.028Z</time></trkpt><trkpt lat="40.347021233183455" lon="18.15382228484485"><ele>50.5</ele><time>2026-04-21T18:30:47.028Z</time></trkpt><trkpt lat="40.3468959957409" lon="18.153909538257672"><ele>50.0</ele><time>2026-04-21T18:30:48.028Z</time></trkpt><trkpt lat="40.346765542869434" lon="18.154004094182998"><ele>49.5</ele><time>2026-04-21T18:30:49.028Z</time></trkpt><trkpt lat="40.346626931717026" lon="18.154102631888296"><ele>49.0</ele><time>2026-04-21T18:30:50.028Z</time></trkpt><trkpt lat="40.34651982913936" lon="18.15418444823114"><ele>49.0</ele><time>2026-04-21T18:30:51.028Z</time></trkpt><trkpt lat="40.346436280965015" lon="18.154265952140072"><ele>49.0</ele><time>2026-04-21T18:30:52.028Z</time></trkpt><trkpt lat="40.34634180490963" lon="18.154352241242044"><ele>49.0</ele><time>2026-04-21T18:30:53.028Z</time></trkpt><trkpt lat="40.346239736014084" lon="18.154425255767865"><ele>49.0</ele><time>2026-04-21T18:30:54.028Z</time></trkpt><trkpt lat="40.34614743626036" lon="18.154519251389395"><ele>48.75</ele><time>2026-04-21T18:30:55.028Z</time></trkpt><trkpt lat="40.34606119903635" lon="18.154616798735162"><ele>48.5</ele><time>2026-04-21T18:30:56.028Z</time></trkpt><trkpt lat="40.34597891238899" lon="18.154716345606968"><ele>48.25</ele><time>2026-04-21T18:30:57.028Z</time></trkpt><trkpt lat="40.34589352344156" lon="18.15482836797273"><ele>48.0</ele><time>2026-04-21T18:30:58.028Z</time></trkpt><trkpt lat="40.34581356031247" lon="18.15496798761801"><ele>48.0</ele><time>2026-04-21T18:30:59.028Z</time></trkpt><trkpt lat="40.34572647287908" lon="18.15510535023515"><ele>48.0</ele><time>2026-04-21T18:31:00.028Z</time></trkpt><trkpt lat="40.345644996969035" lon="18.155220392855657"><ele>48.0</ele><time>2026-04-21T18:31:01.028Z</time></trkpt><trkpt lat="40.34557039591314" lon="18.155329769593855"><ele>48.0</ele><time>2026-04-21T18:31:02.028Z</time></trkpt><trkpt lat="40.34549650078151" lon="18.15543278712798"><ele>47.8</ele><time>2026-04-21T18:31:03.028Z</time></trkpt><trkpt lat="40.34542821656155" lon="18.155539467252133"><ele>47.599999999999994</ele><time>2026-04-21T18:31:04.028Z</time></trkpt><trkpt lat="40.34535854148841" lon="18.155640391395092"><ele>47.400000000000006</ele><time>2026-04-21T18:31:05.028Z</time></trkpt><trkpt lat="40.34529460692327" lon="18.15574155222079"><ele>47.2</ele><time>2026-04-21T18:31:06.028Z</time></trkpt><trkpt lat="40.345238385643285" lon="18.155840054083217"><ele>47.0</ele><time>2026-04-21T18:31:07.028Z</time></trkpt><trkpt lat="40.345174728267764" lon="18.155934796626497"><ele>46.83333333333333</ele><time>2026-04-21T18:31:08.028Z</time></trkpt><trkpt lat="40.34511862750972" lon="18.15602452175373"><ele>46.666666666666664</ele><time>2026-04-21T18:31:09.028Z</time></trkpt><trkpt lat="40.34507231159607" lon="18.156117036777193"><ele>46.5</ele><time>2026-04-21T18:31:10.028Z</time></trkpt><trkpt lat="40.345022877372244" lon="18.156195457502285"><ele>46.333333333333336</ele><time>2026-04-21T18:31:11.028Z</time></trkpt><trkpt lat="40.3449744927091" lon="18.156281587144644"><ele>46.16666666666667</ele><time>2026-04-21T18:31:12.028Z</time></trkpt><trkpt lat="40.34491069363141" lon="18.15636466759882"><ele>46.0</ele><time>2026-04-21T18:31:13.028Z</time></trkpt><trkpt lat="40.34485225805556" lon="18.15643315998649"><ele>46.0</ele><time>2026-04-21T18:31:14.028Z</time></trkpt><trkpt lat="40.34480365736898" lon="18.156511513980522"><ele>46.0</ele><time>2026-04-21T18:31:15.028Z</time></trkpt><trkpt lat="40.34476045404631" lon="18.156582068922923"><ele>46.0</ele><time>2026-04-21T18:31:16.028Z</time></trkpt><trkpt lat="40.34472125792002" lon="18.15665464618914"><ele>46.0</ele><time>2026-04-21T18:31:17.028Z</time></trkpt><trkpt lat="40.344681422553265" lon="18.156720509752727"><ele>46.0</ele><time>2026-04-21T18:31:18.028Z</time></trkpt><trkpt lat="40.34464250437185" lon="18.156802908182605"><ele>46.0</ele><time>2026-04-21T18:31:19.028Z</time></trkpt><trkpt lat="40.344575352514056" lon="18.15688806270545"><ele>46.0</ele><time>2026-04-21T18:31:21.028Z</time></trkpt><trkpt lat="40.34451837928364" lon="18.156981857985954"><ele>46.0</ele><time>2026-04-21T18:31:25.028Z</time></trkpt><trkpt lat="40.3444785438813" lon="18.157063075698687"><ele>46.0</ele><time>2026-04-21T18:31:27.028Z</time></trkpt><trkpt lat="40.34443802173745" lon="18.157153534893666"><ele>46.0</ele><time>2026-04-21T18:31:29.028Z</time></trkpt><trkpt lat="40.34436294638516" lon="18.15725837247833"><ele>46.0</ele><time>2026-04-21T18:31:31.028Z</time></trkpt><trkpt lat="40.34429541427387" lon="18.15736943354244"><ele>46.0</ele><time>2026-04-21T18:31:33.028Z</time></trkpt><trkpt lat="40.34423177888073" lon="18.1574671433665"><ele>46.0</ele><time>2026-04-21T18:31:35.028Z</time></trkpt><trkpt lat="40.344177331260624" lon="18.157546809514145"><ele>46.0</ele><time>2026-04-21T18:31:38.028Z</time></trkpt><trkpt lat="40.344101502646026" lon="18.15762979805685"><ele>46.0</ele><time>2026-04-21T18:32:27.029Z</time></trkpt><trkpt lat="40.344024787515494" lon="18.157712327212817"><ele>46.0</ele><time>2026-04-21T18:32:45.029Z</time></trkpt><trkpt lat="40.34396395368885" lon="18.15780233844808"><ele>46.0</ele><time>2026-04-21T18:32:46.029Z</time></trkpt><trkpt lat="40.34388118346861" lon="18.157939755794462"><ele>46.0</ele><time>2026-04-21T18:32:47.029Z</time></trkpt><trkpt lat="40.343784892575066" lon="18.158103744207033"><ele>46.0</ele><time>2026-04-21T18:32:48.029Z</time></trkpt><trkpt lat="40.343687838378784" lon="18.158265777187246"><ele>46.0</ele><time>2026-04-21T18:32:49.029Z</time></trkpt><trkpt lat="40.34358136406696" lon="18.158438951691924"><ele>46.333333333333336</ele><time>2026-04-21T18:32:50.029Z</time></trkpt><trkpt lat="40.3434588051889" lon="18.15860368596055"><ele>46.666666666666664</ele><time>2026-04-21T18:32:51.029Z</time></trkpt><trkpt lat="40.34334032402176" lon="18.158769865894747"><ele>47.0</ele><time>2026-04-21T18:32:52.029Z</time></trkpt><trkpt lat="40.34322309742008" lon="18.158929916732664"><ele>47.0</ele><time>2026-04-21T18:32:53.029Z</time></trkpt><trkpt lat="40.34311466747569" lon="18.159065118435528"><ele>47.0</ele><time>2026-04-21T18:32:54.029Z</time></trkpt><trkpt lat="40.3430420868" lon="18.159166543953845"><ele>47.0</ele><time>2026-04-21T18:32:55.029Z</time></trkpt><trkpt lat="40.343006777215976" lon="18.159239078089733"><ele>47.0</ele><time>2026-04-21T18:32:56.029Z</time></trkpt><trkpt lat="40.34320813689167" lon="18.159066356007063"><ele>47.2</ele><time>2026-04-21T18:32:58.029Z</time></trkpt><trkpt lat="40.34321423165336" lon="18.159152247272555"><ele>47.400000000000006</ele><time>2026-04-21T18:33:09.029Z</time></trkpt><trkpt lat="40.343284062761256" lon="18.159242441719122"><ele>47.599999999999994</ele><time>2026-04-21T18:33:11.029Z</time></trkpt><trkpt lat="40.343366842647754" lon="18.15927979872647"><ele>47.8</ele><time>2026-04-21T18:33:12.029Z</time></trkpt><trkpt lat="40.34346302817013" lon="18.159323103404944"><ele>48.0</ele><time>2026-04-21T18:33:13.029Z</time></trkpt><trkpt lat="40.34357319256628" lon="18.1593891051342"><ele>48.0</ele><time>2026-04-21T18:33:14.029Z</time></trkpt><trkpt lat="40.34370156902101" lon="18.159478173371614"><ele>48.0</ele><time>2026-04-21T18:33:15.029Z</time></trkpt><trkpt lat="40.34382304155473" lon="18.159535497392444"><ele>48.0</ele><time>2026-04-21T18:33:16.029Z</time></trkpt><trkpt lat="40.34392069339786" lon="18.159602846341464"><ele>48.0</ele><time>2026-04-21T18:33:17.029Z</time></trkpt><trkpt lat="40.344023941454225" lon="18.159669031545988"><ele>48.0</ele><time>2026-04-21T18:33:18.029Z</time></trkpt><trkpt lat="40.34412659329045" lon="18.159735881186354"><ele>48.0</ele><time>2026-04-21T18:33:19.029Z</time></trkpt><trkpt lat="40.344229720025545" lon="18.159795090726146"><ele>48.0</ele><time>2026-04-21T18:33:20.029Z</time></trkpt><trkpt lat="40.34435519520688" lon="18.159850641220537"><ele>48.0</ele><time>2026-04-21T18:33:21.029Z</time></trkpt><trkpt lat="40.34446296307126" lon="18.159908213226256"><ele>48.0</ele><time>2026-04-21T18:33:22.029Z</time></trkpt><trkpt lat="40.34457943948008" lon="18.15997122856125"><ele>48.0</ele><time>2026-04-21T18:33:23.029Z</time></trkpt><trkpt lat="40.344706534744006" lon="18.16003919150753"><ele>48.0</ele><time>2026-04-21T18:33:24.029Z</time></trkpt><trkpt lat="40.34483595759098" lon="18.16011055957676"><ele>48.0</ele><time>2026-04-21T18:33:25.029Z</time></trkpt><trkpt lat="40.34495900183317" lon="18.160159100873067"><ele>48.5</ele><time>2026-04-21T18:33:26.029Z</time></trkpt><trkpt lat="40.345070054831176" lon="18.16021550217075"><ele>49.0</ele><time>2026-04-21T18:33:27.029Z</time></trkpt><trkpt lat="40.34518136341525" lon="18.160282216428037"><ele>49.5</ele><time>2026-04-21T18:33:28.029Z</time></trkpt><trkpt lat="40.345303204248545" lon="18.16036093517757"><ele>50.0</ele><time>2026-04-21T18:33:29.029Z</time></trkpt><trkpt lat="40.34541981897176" lon="18.160437917364114"><ele>50.0</ele><time>2026-04-21T18:33:30.029Z</time></trkpt><trkpt lat="40.34552937847101" lon="18.16047821042255"><ele>50.0</ele><time>2026-04-21T18:33:31.029Z</time></trkpt><trkpt lat="40.34565315308002" lon="18.160537297304522"><ele>50.0</ele><time>2026-04-21T18:33:32.029Z</time></trkpt><trkpt lat="40.34577482710088" lon="18.160594222678327"><ele>50.0</ele><time>2026-04-21T18:33:33.029Z</time></trkpt><trkpt lat="40.345890223363014" lon="18.16064003713669"><ele>50.5</ele><time>2026-04-21T18:33:34.029Z</time></trkpt><trkpt lat="40.345994873173076" lon="18.16071791036477"><ele>51.0</ele><time>2026-04-21T18:33:35.029Z</time></trkpt><trkpt lat="40.346099322951055" lon="18.16078149691637"><ele>51.5</ele><time>2026-04-21T18:33:36.029Z</time></trkpt><trkpt lat="40.34620023859067" lon="18.16083801985524"><ele>52.0</ele><time>2026-04-21T18:33:37.029Z</time></trkpt><trkpt lat="40.346311011265406" lon="18.16089368425124"><ele>52.2</ele><time>2026-04-21T18:33:38.029Z</time></trkpt><trkpt lat="40.34642081080611" lon="18.160944549074348"><ele>52.400000000000006</ele><time>2026-04-21T18:33:39.029Z</time></trkpt><trkpt lat="40.34650036603379" lon="18.161009163039513"><ele>52.599999999999994</ele><time>2026-04-21T18:33:40.029Z</time></trkpt><trkpt lat="40.34657289018206" lon="18.16105517895555"><ele>52.8</ele><time>2026-04-21T18:33:41.029Z</time></trkpt><trkpt lat="40.34664470261964" lon="18.161117076530132"><ele>53.0</ele><time>2026-04-21T18:33:42.029Z</time></trkpt><trkpt lat="40.34672941454475" lon="18.161173053648444"><ele>53.00000000000001</ele><time>2026-04-21T18:33:43.029Z</time></trkpt><trkpt lat="40.34680554950328" lon="18.161210002660685"><ele>53.0</ele><time>2026-04-21T18:33:44.029Z</time></trkpt><trkpt lat="40.34688597976097" lon="18.16126019205851"><ele>53.0</ele><time>2026-04-21T18:33:45.029Z</time></trkpt><trkpt lat="40.346955620393" lon="18.16130223263402"><ele>53.0</ele><time>2026-04-21T18:33:46.029Z</time></trkpt><trkpt lat="40.347017347509706" lon="18.16132804807805"><ele>53.00000000000001</ele><time>2026-04-21T18:33:47.029Z</time></trkpt><trkpt lat="40.34711107948311" lon="18.161373592318938"><ele>53.0</ele><time>2026-04-21T18:33:49.029Z</time></trkpt><trkpt lat="40.34714736550392" lon="18.16121262383688"><ele>53.0</ele><time>2026-04-21T18:33:51.029Z</time></trkpt><trkpt lat="40.34716401298534" lon="18.161120750182032"><ele>53.0</ele><time>2026-04-21T18:33:52.029Z</time></trkpt><trkpt lat="40.34719777031802" lon="18.161025821506662"><ele>53.0</ele><time>2026-04-21T18:33:53.029Z</time></trkpt><trkpt lat="40.347247355648484" lon="18.1609496997958"><ele>53.0</ele><time>2026-04-21T18:33:54.029Z</time></trkpt><trkpt lat="40.34729155368732" lon="18.16088750334684"><ele>53.0</ele><time>2026-04-21T18:33:55.029Z</time></trkpt><trkpt lat="40.347344473647595" lon="18.16082663512272"><ele>53.0</ele><time>2026-04-21T18:33:56.029Z</time></trkpt><trkpt lat="40.34739571674175" lon="18.160770998320306"><ele>53.0</ele><time>2026-04-21T18:33:57.029Z</time></trkpt><trkpt lat="40.34750767180624" lon="18.160695234839952"><ele>52.50000000000001</ele><time>2026-04-21T18:33:59.029Z</time></trkpt><trkpt lat="40.34757281287566" lon="18.16066774482256"><ele>52.0</ele><time>2026-04-21T18:34:00.029Z</time></trkpt><trkpt lat="40.34765607681291" lon="18.160662498326925"><ele>51.5</ele><time>2026-04-21T18:34:01.029Z</time></trkpt><trkpt lat="40.34774624893749" lon="18.160671041063157"><ele>51.0</ele><time>2026-04-21T18:34:02.029Z</time></trkpt><trkpt lat="40.34782747696996" lon="18.160685191249616"><ele>50.50000000000001</ele><time>2026-04-21T18:34:03.029Z</time></trkpt><trkpt lat="40.34789808401819" lon="18.160730730078573"><ele>50.0</ele><time>2026-04-21T18:34:04.029Z</time></trkpt><trkpt lat="40.34796762730629" lon="18.160779237274497"><ele>50.0</ele><time>2026-04-21T18:34:05.029Z</time></trkpt><trkpt lat="40.34804221354012" lon="18.160859049712485"><ele>50.0</ele><time>2026-04-21T18:34:06.029Z</time></trkpt><trkpt lat="40.34811227375951" lon="18.160934116629246"><ele>50.0</ele><time>2026-04-21T18:34:07.029Z</time></trkpt><trkpt lat="40.34819360908653" lon="18.1610088545766"><ele>50.0</ele><time>2026-04-21T18:34:08.029Z</time></trkpt><trkpt lat="40.34828507208712" lon="18.161095748991382"><ele>50.0</ele><time>2026-04-21T18:34:09.029Z</time></trkpt><trkpt lat="40.34840689185317" lon="18.16122698500778"><ele>50.00000000000001</ele><time>2026-04-21T18:34:10.029Z</time></trkpt><trkpt lat="40.3485078509217" lon="18.161298746143675"><ele>50.0</ele><time>2026-04-21T18:34:11.029Z</time></trkpt><trkpt lat="40.348568648407515" lon="18.16135320599873"><ele>50.0</ele><time>2026-04-21T18:34:12.029Z</time></trkpt><trkpt lat="40.34861135249717" lon="18.161423937111213"><ele>50.0</ele><time>2026-04-21T18:34:13.029Z</time></trkpt><trkpt lat="40.3486697430015" lon="18.16153774351176"><ele>50.00000000000001</ele><time>2026-04-21T18:34:15.029Z</time></trkpt><trkpt lat="40.34870571172459" lon="18.161629406894228"><ele>50.0</ele><time>2026-04-21T18:34:17.029Z</time></trkpt><trkpt lat="40.348725072597475" lon="18.161725060205853"><ele>50.28571428571429</ele><time>2026-04-21T18:34:20.029Z</time></trkpt><trkpt lat="40.34866881841192" lon="18.16180362871684"><ele>50.57142857142857</ele><time>2026-04-21T18:34:23.029Z</time></trkpt><trkpt lat="40.34862239903144" lon="18.161881842199097"><ele>50.85714285714286</ele><time>2026-04-21T18:34:26.029Z</time></trkpt><trkpt lat="40.34861205660772" lon="18.16198161493126"><ele>51.142857142857146</ele><time>2026-04-21T18:34:29.03Z</time></trkpt><trkpt lat="40.348598818924316" lon="18.16206283851499"><ele>51.42857142857143</ele><time>2026-04-21T18:34:31.03Z</time></trkpt><trkpt lat="40.3486179426248" lon="18.16214899484568"><ele>51.714285714285715</ele><time>2026-04-21T18:34:34.03Z</time></trkpt><trkpt lat="40.34868487018593" lon="18.162193825123826"><ele>52.0</ele><time>2026-04-21T18:34:36.03Z</time></trkpt><trkpt lat="40.34874833269309" lon="18.162227663147313"><ele>52.0</ele><time>2026-04-21T18:34:37.029Z</time></trkpt><trkpt lat="40.34882638268786" lon="18.162280120335307"><ele>52.0</ele><time>2026-04-21T18:34:38.029Z</time></trkpt><trkpt lat="40.34890715665206" lon="18.16236292021788"><ele>52.0</ele><time>2026-04-21T18:34:39.03Z</time></trkpt><trkpt lat="40.34901367478857" lon="18.162439777443346"><ele>52.0</ele><time>2026-04-21T18:34:40.03Z</time></trkpt><trkpt lat="40.349103175809965" lon="18.16248912483857"><ele>52.0</ele><time>2026-04-21T18:34:41.03Z</time></trkpt><trkpt lat="40.34917612254825" lon="18.162535378487714"><ele>52.2</ele><time>2026-04-21T18:34:42.03Z</time></trkpt><trkpt lat="40.34924519952045" lon="18.162569621462822"><ele>52.400000000000006</ele><time>2026-04-21T18:34:43.03Z</time></trkpt><trkpt lat="40.34932116999998" lon="18.16262921960741"><ele>52.599999999999994</ele><time>2026-04-21T18:34:44.03Z</time></trkpt><trkpt lat="40.34941331814145" lon="18.16270242348289"><ele>52.8</ele><time>2026-04-21T18:34:45.03Z</time></trkpt><trkpt lat="40.34951687319271" lon="18.16280281745325"><ele>53.0</ele><time>2026-04-21T18:34:46.03Z</time></trkpt><trkpt lat="40.3496150156645" lon="18.162886348762207"><ele>53.0</ele><time>2026-04-21T18:34:47.03Z</time></trkpt><trkpt lat="40.349697336572106" lon="18.16294485717071"><ele>53.0</ele><time>2026-04-21T18:34:48.03Z</time></trkpt><trkpt lat="40.349797970470874" lon="18.16300559108586"><ele>53.0</ele><time>2026-04-21T18:34:49.03Z</time></trkpt><trkpt lat="40.349901943288984" lon="18.163076430885077"><ele>53.0</ele><time>2026-04-21T18:34:50.03Z</time></trkpt><trkpt lat="40.35002211880486" lon="18.16317383219933"><ele>53.4</ele><time>2026-04-21T18:34:51.03Z</time></trkpt><trkpt lat="40.350136187057444" lon="18.163239942773686"><ele>53.8</ele><time>2026-04-21T18:34:52.03Z</time></trkpt><trkpt lat="40.35023195631975" lon="18.163294254257522"><ele>54.2</ele><time>2026-04-21T18:34:53.03Z</time></trkpt><trkpt lat="40.35030150597736" lon="18.163356469550912"><ele>54.6</ele><time>2026-04-21T18:34:54.03Z</time></trkpt><trkpt lat="40.350365224038555" lon="18.163407995836824"><ele>55.0</ele><time>2026-04-21T18:34:55.03Z</time></trkpt><trkpt lat="40.35042975452055" lon="18.163470667364045"><ele>55.0</ele><time>2026-04-21T18:34:56.03Z</time></trkpt><trkpt lat="40.35049802670056" lon="18.16350042168616"><ele>55.0</ele><time>2026-04-21T18:34:57.03Z</time></trkpt><trkpt lat="40.35062146539492" lon="18.163495163259444"><ele>55.0</ele><time>2026-04-21T18:34:59.03Z</time></trkpt><trkpt lat="40.35066265566046" lon="18.163423072849167"><ele>55.0</ele><time>2026-04-21T18:35:00.03Z</time></trkpt><trkpt lat="40.35068767580983" lon="18.16330709681883"><ele>55.0</ele><time>2026-04-21T18:35:02.03Z</time></trkpt><trkpt lat="40.350639924271825" lon="18.163171501546532"><ele>54.8</ele><time>2026-04-21T18:35:04.03Z</time></trkpt><trkpt lat="40.35058850630964" lon="18.16307687033897"><ele>54.6</ele><time>2026-04-21T18:35:05.03Z</time></trkpt><trkpt lat="40.35049998152143" lon="18.16298157349355"><ele>54.400000000000006</ele><time>2026-04-21T18:35:06.03Z</time></trkpt><trkpt lat="40.35043946842631" lon="18.162899969507194"><ele>54.2</ele><time>2026-04-21T18:35:07.03Z</time></trkpt><trkpt lat="40.35038962337014" lon="18.16283499070259"><ele>54.0</ele><time>2026-04-21T18:35:08.03Z</time></trkpt><trkpt lat="40.350303210331376" lon="18.16269922519111"><ele>54.0</ele><time>2026-04-21T18:35:10.03Z</time></trkpt><trkpt lat="40.35026016970491" lon="18.16263303349957"><ele>54.0</ele><time>2026-04-21T18:35:11.03Z</time></trkpt><trkpt lat="40.35020735933341" lon="18.162543452598126"><ele>54.0</ele><time>2026-04-21T18:35:13.03Z</time></trkpt><trkpt lat="40.3501579875988" lon="18.162476484928934"><ele>54.0</ele><time>2026-04-21T18:35:15.03Z</time></trkpt><trkpt lat="40.350083326914664" lon="18.162389404957892"><ele>54.0</ele><time>2026-04-21T18:35:17.029Z</time></trkpt><trkpt lat="40.350028120397184" lon="18.16233625106972"><ele>54.0</ele><time>2026-04-21T18:35:18.029Z</time></trkpt><trkpt lat="40.34997867545407" lon="18.162283187493212"><ele>53.666666666666664</ele><time>2026-04-21T18:35:19.029Z</time></trkpt><trkpt lat="40.34993609014797" lon="18.162214121422767"><ele>53.33333333333333</ele><time>2026-04-21T18:35:20.029Z</time></trkpt><trkpt lat="40.34989700476148" lon="18.16214041911276"><ele>53.0</ele><time>2026-04-21T18:35:21.029Z</time></trkpt><trkpt lat="40.349852055656704" lon="18.162077494221993"><ele>52.666666666666664</ele><time>2026-04-21T18:35:22.029Z</time></trkpt><trkpt lat="40.34978602915368" lon="18.1619541167844"><ele>52.33333333333333</ele><time>2026-04-21T18:35:24.029Z</time></trkpt><trkpt lat="40.34966982802383" lon="18.16193607724749"><ele>52.0</ele><time>2026-04-21T18:35:26.029Z</time></trkpt><trkpt lat="40.34957296153567" lon="18.161930560882702"><ele>52.0</ele><time>2026-04-21T18:35:28.029Z</time></trkpt><trkpt lat="40.34950593699759" lon="18.161933893171987"><ele>52.0</ele><time>2026-04-21T18:35:31.029Z</time></trkpt><trkpt lat="40.34945894872431" lon="18.161875968104056"><ele>52.0</ele><time>2026-04-21T18:35:52.029Z</time></trkpt><trkpt lat="40.349391222517305" lon="18.161877065379866"><ele>52.0</ele><time>2026-04-21T18:35:55.029Z</time></trkpt><trkpt lat="40.34933198818486" lon="18.161847845670927"><ele>52.0</ele><time>2026-04-21T18:36:01.029Z</time></trkpt></trkseg><trkseg><trkpt lat="40.34931048049473" lon="18.16179367177129"><ele>52.0</ele><time>2026-04-21T20:04:50.004Z</time></trkpt><trkpt lat="40.34922856887656" lon="18.161846702901478"><ele>52.0</ele><time>2026-04-21T20:05:00.005Z</time></trkpt><trkpt lat="40.3491262480957" lon="18.16183733214563"><ele>52.0</ele><time>2026-04-21T20:05:02.005Z</time></trkpt><trkpt lat="40.349052435685216" lon="18.161826411864933"><ele>52.0</ele><time>2026-04-21T20:05:03.005Z</time></trkpt><trkpt lat="40.348934022459424" lon="18.16174488658378"><ele>52.0</ele><time>2026-04-21T20:05:05.006Z</time></trkpt><trkpt lat="40.34887733424503" lon="18.16167497228764"><ele>52.0</ele><time>2026-04-21T20:05:06.006Z</time></trkpt><trkpt lat="40.34881944306941" lon="18.16157697299118"><ele>52.0</ele><time>2026-04-21T20:05:07.006Z</time></trkpt><trkpt lat="40.348758128321" lon="18.161450645329364"><ele>52.0</ele><time>2026-04-21T20:05:08.006Z</time></trkpt><trkpt lat="40.34867921278086" lon="18.16133115273824"><ele>52.0</ele><time>2026-04-21T20:05:09.006Z</time></trkpt><trkpt lat="40.34857348907287" lon="18.16123498196087"><ele>51.5</ele><time>2026-04-21T20:05:10.006Z</time></trkpt><trkpt lat="40.34845949393756" lon="18.161114647736305"><ele>51.0</ele><time>2026-04-21T20:05:11.006Z</time></trkpt><trkpt lat="40.34833270835919" lon="18.1610025867841"><ele>50.5</ele><time>2026-04-21T20:05:12.006Z</time></trkpt><trkpt lat="40.34820974411096" lon="18.160897513607466"><ele>50.0</ele><time>2026-04-21T20:05:13.006Z</time></trkpt><trkpt lat="40.348086025726914" lon="18.160795488703116"><ele>50.00000000000001</ele><time>2026-04-21T20:05:14.006Z</time></trkpt><trkpt lat="40.348010549693754" lon="18.16071960774112"><ele>50.0</ele><time>2026-04-21T20:05:15.006Z</time></trkpt><trkpt lat="40.3479434354525" lon="18.160667055582667"><ele>50.0</ele><time>2026-04-21T20:05:16.006Z</time></trkpt><trkpt lat="40.34788070230955" lon="18.16060608803868"><ele>50.0</ele><time>2026-04-21T20:05:17.006Z</time></trkpt><trkpt lat="40.34788546954803" lon="18.16050991638542"><ele>50.00000000000001</ele><time>2026-04-21T20:05:18.006Z</time></trkpt><trkpt lat="40.34784788740475" lon="18.160415782673432"><ele>50.0</ele><time>2026-04-21T20:05:20.006Z</time></trkpt><trkpt lat="40.347832858270216" lon="18.16031137577196"><ele>49.8</ele><time>2026-04-21T20:05:22.006Z</time></trkpt><trkpt lat="40.34780236754629" lon="18.160236840426915"><ele>49.6</ele><time>2026-04-21T20:05:24.006Z</time></trkpt><trkpt lat="40.34773303611827" lon="18.16016561186543"><ele>49.400000000000006</ele><time>2026-04-21T20:05:26.006Z</time></trkpt><trkpt lat="40.347634143041354" lon="18.16015999367227"><ele>49.2</ele><time>2026-04-21T20:05:28.006Z</time></trkpt><trkpt lat="40.347549924800454" lon="18.160291444499222"><ele>49.0</ele><time>2026-04-21T20:05:30.006Z</time></trkpt><trkpt lat="40.34749546742316" lon="18.160398021067166"><ele>49.0</ele><time>2026-04-21T20:05:31.006Z</time></trkpt><trkpt lat="40.347449994354136" lon="18.160516562325675"><ele>49.0</ele><time>2026-04-21T20:05:32.006Z</time></trkpt><trkpt lat="40.347386981032855" lon="18.160631712026497"><ele>49.0</ele><time>2026-04-21T20:05:33.006Z</time></trkpt><trkpt lat="40.34733044997349" lon="18.160701441890794"><ele>49.0</ele><time>2026-04-21T20:05:34.006Z</time></trkpt><trkpt lat="40.34723875578196" lon="18.160734912437576"><ele>49.0</ele><time>2026-04-21T20:05:36.005Z</time></trkpt><trkpt lat="40.34713820432751" lon="18.160690020356142"><ele>49.666666666666664</ele><time>2026-04-21T20:05:38.005Z</time></trkpt><trkpt lat="40.347061097587975" lon="18.160636061952495"><ele>50.33333333333333</ele><time>2026-04-21T20:05:39.005Z</time></trkpt><trkpt lat="40.34699418069929" lon="18.16057108702879"><ele>51.0</ele><time>2026-04-21T20:05:40.005Z</time></trkpt><trkpt lat="40.34691995433634" lon="18.160504464461205"><ele>51.66666666666667</ele><time>2026-04-21T20:05:41.005Z</time></trkpt><trkpt lat="40.34684229962756" lon="18.16043797018275"><ele>52.333333333333336</ele><time>2026-04-21T20:05:42.005Z</time></trkpt><trkpt lat="40.346762161526044" lon="18.16037369547347"><ele>53.0</ele><time>2026-04-21T20:05:43.005Z</time></trkpt><trkpt lat="40.34667674950939" lon="18.160305623672265"><ele>53.0</ele><time>2026-04-21T20:05:44.005Z</time></trkpt><trkpt lat="40.346587607010726" lon="18.16023129767474"><ele>53.0</ele><time>2026-04-21T20:05:45.005Z</time></trkpt><trkpt lat="40.346498940427054" lon="18.160159270090524"><ele>53.0</ele><time>2026-04-21T20:05:46.005Z</time></trkpt><trkpt lat="40.34641166516413" lon="18.160093576866416"><ele>53.0</ele><time>2026-04-21T20:05:47.005Z</time></trkpt><trkpt lat="40.34632455884322" lon="18.160036960421664"><ele>53.0</ele><time>2026-04-21T20:05:48.005Z</time></trkpt><trkpt lat="40.34625007426657" lon="18.159972374345895"><ele>52.8</ele><time>2026-04-21T20:05:49.005Z</time></trkpt><trkpt lat="40.34618114420214" lon="18.159906598882486"><ele>52.599999999999994</ele><time>2026-04-21T20:05:50.005Z</time></trkpt><trkpt lat="40.346108395630196" lon="18.159831712187593"><ele>52.400000000000006</ele><time>2026-04-21T20:05:51.005Z</time></trkpt><trkpt lat="40.34602970056624" lon="18.15975268001048"><ele>52.2</ele><time>2026-04-21T20:05:52.005Z</time></trkpt><trkpt lat="40.34594859033088" lon="18.159676159889422"><ele>52.0</ele><time>2026-04-21T20:05:53.005Z</time></trkpt><trkpt lat="40.34586739572837" lon="18.159602817521552"><ele>51.666666666666664</ele><time>2026-04-21T20:05:54.005Z</time></trkpt><trkpt lat="40.34578584887121" lon="18.15954161966878"><ele>51.33333333333333</ele><time>2026-04-21T20:05:55.005Z</time></trkpt><trkpt lat="40.34570908550826" lon="18.159466729723043"><ele>51.0</ele><time>2026-04-21T20:05:56.005Z</time></trkpt><trkpt lat="40.345635771294795" lon="18.159398587471888"><ele>50.66666666666667</ele><time>2026-04-21T20:05:57.005Z</time></trkpt><trkpt lat="40.34555811322216" lon="18.15934503539606"><ele>50.333333333333336</ele><time>2026-04-21T20:05:58.005Z</time></trkpt><trkpt lat="40.34548971776528" lon="18.15929180231056"><ele>50.0</ele><time>2026-04-21T20:05:59.005Z</time></trkpt><trkpt lat="40.34542640171385" lon="18.15922936035914"><ele>50.00000000000001</ele><time>2026-04-21T20:06:00.005Z</time></trkpt><trkpt lat="40.34535400933459" lon="18.159163155661524"><ele>50.0</ele><time>2026-04-21T20:06:01.005Z</time></trkpt><trkpt lat="40.34528821521368" lon="18.159103537266397"><ele>50.0</ele><time>2026-04-21T20:06:02.005Z</time></trkpt><trkpt lat="40.345214453275204" lon="18.159044288448122"><ele>50.0</ele><time>2026-04-21T20:06:03.005Z</time></trkpt><trkpt lat="40.34515288805701" lon="18.158954122426408"><ele>50.00000000000001</ele><time>2026-04-21T20:06:04.005Z</time></trkpt><trkpt lat="40.34506570874253" lon="18.15888349372197"><ele>50.0</ele><time>2026-04-21T20:06:05.005Z</time></trkpt><trkpt lat="40.344959078555696" lon="18.158799365169425"><ele>50.0</ele><time>2026-04-21T20:06:06.005Z</time></trkpt><trkpt lat="40.344853714905675" lon="18.15869403843757"><ele>50.0</ele><time>2026-04-21T20:06:07.005Z</time></trkpt><trkpt lat="40.34475777517942" lon="18.15860421308584"><ele>50.0</ele><time>2026-04-21T20:06:08.005Z</time></trkpt><trkpt lat="40.34467383902347" lon="18.15852482504763"><ele>50.0</ele><time>2026-04-21T20:06:09.005Z</time></trkpt><trkpt lat="40.344593421451286" lon="18.15845236361804"><ele>49.50000000000001</ele><time>2026-04-21T20:06:10.005Z</time></trkpt><trkpt lat="40.344520426701195" lon="18.158381548635187"><ele>49.0</ele><time>2026-04-21T20:06:11.005Z</time></trkpt><trkpt lat="40.34444954608474" lon="18.158317593569993"><ele>48.5</ele><time>2026-04-21T20:06:12.005Z</time></trkpt><trkpt lat="40.34438152144787" lon="18.158257582021452"><ele>48.0</ele><time>2026-04-21T20:06:13.005Z</time></trkpt><trkpt lat="40.34431920913788" lon="18.15820219367578"><ele>47.5</ele><time>2026-04-21T20:06:14.005Z</time></trkpt><trkpt lat="40.34426695041621" lon="18.158147869511968"><ele>47.0</ele><time>2026-04-21T20:06:15.005Z</time></trkpt><trkpt lat="40.34417475079768" lon="18.158057241218778"><ele>46.83333333333333</ele><time>2026-04-21T20:06:17.005Z</time></trkpt><trkpt lat="40.344115886964154" lon="18.158008292251576"><ele>46.666666666666664</ele><time>2026-04-21T20:06:19.005Z</time></trkpt><trkpt lat="40.34407234023942" lon="18.157931539088526"><ele>46.5</ele><time>2026-04-21T20:07:15.005Z</time></trkpt><trkpt lat="40.34400908623856" lon="18.157914404954607"><ele>46.333333333333336</ele><time>2026-04-21T20:07:17.005Z</time></trkpt><trkpt lat="40.343919450665474" lon="18.15793604187124"><ele>46.16666666666667</ele><time>2026-04-21T20:07:18.005Z</time></trkpt><trkpt lat="40.34385113959327" lon="18.158043703155847"><ele>46.0</ele><time>2026-04-21T20:07:20.005Z</time></trkpt><trkpt lat="40.34380452139467" lon="18.158117175578106"><ele>46.0</ele><time>2026-04-21T20:07:21.005Z</time></trkpt><trkpt lat="40.34375424996497" lon="18.158198288617488"><ele>46.0</ele><time>2026-04-21T20:07:22.005Z</time></trkpt><trkpt lat="40.343708705597265" lon="18.158271834011263"><ele>46.0</ele><time>2026-04-21T20:07:23.005Z</time></trkpt><trkpt lat="40.343664066082844" lon="18.158343918587082"><ele>46.0</ele><time>2026-04-21T20:07:24.005Z</time></trkpt><trkpt lat="40.3436244170976" lon="18.15841190793705"><ele>46.0</ele><time>2026-04-21T20:07:25.005Z</time></trkpt><trkpt lat="40.34357800752708" lon="18.158489988164412"><ele>46.0</ele><time>2026-04-21T20:07:26.005Z</time></trkpt><trkpt lat="40.34353255628732" lon="18.158566456056434"><ele>46.0</ele><time>2026-04-21T20:07:27.005Z</time></trkpt><trkpt lat="40.343458160612094" lon="18.158690733815636"><ele>46.16666666666667</ele><time>2026-04-21T20:07:29.005Z</time></trkpt><trkpt lat="40.343392765923845" lon="18.15875648391271"><ele>46.333333333333336</ele><time>2026-04-21T20:07:30.005Z</time></trkpt><trkpt lat="40.343355607584236" lon="18.158827483482593"><ele>46.5</ele><time>2026-04-21T20:07:31.005Z</time></trkpt><trkpt lat="40.34331763117246" lon="18.158897200622377"><ele>46.666666666666664</ele><time>2026-04-21T20:07:32.005Z</time></trkpt><trkpt lat="40.343266271964026" lon="18.15896460321927"><ele>46.83333333333333</ele><time>2026-04-21T20:07:33.005Z</time></trkpt><trkpt lat="40.343171865934764" lon="18.159045282384138"><ele>47.0</ele><time>2026-04-21T20:07:35.005Z</time></trkpt><trkpt lat="40.34310831611895" lon="18.15905394906006"><ele>46.75</ele><time>2026-04-21T20:07:36.005Z</time></trkpt><trkpt lat="40.34295007420829" lon="18.158988211666063"><ele>46.5</ele><time>2026-04-21T20:07:38.005Z</time></trkpt><trkpt lat="40.34285431712913" lon="18.158932063554822"><ele>46.25</ele><time>2026-04-21T20:07:39.005Z</time></trkpt><trkpt lat="40.34275150632094" lon="18.158881735432093"><ele>46.0</ele><time>2026-04-21T20:07:40.005Z</time></trkpt><trkpt lat="40.34264253467838" lon="18.158834740671445"><ele>46.0</ele><time>2026-04-21T20:07:41.005Z</time></trkpt><trkpt lat="40.34253763583729" lon="18.1587770516949"><ele>46.0</ele><time>2026-04-21T20:07:42.005Z</time></trkpt><trkpt lat="40.34243203084709" lon="18.158726033291668"><ele>46.0</ele><time>2026-04-21T20:07:43.005Z</time></trkpt><trkpt lat="40.34233119506954" lon="18.15867250088896"><ele>46.0</ele><time>2026-04-21T20:07:44.005Z</time></trkpt><trkpt lat="40.3422301966764" lon="18.158621305789975"><ele>46.0</ele><time>2026-04-21T20:07:45.005Z</time></trkpt><trkpt lat="40.34212571907839" lon="18.158570859795695"><ele>45.8</ele><time>2026-04-21T20:07:46.005Z</time></trkpt><trkpt lat="40.34202015137115" lon="18.158514819885045"><ele>45.599999999999994</ele><time>2026-04-21T20:07:47.005Z</time></trkpt><trkpt lat="40.34191849906565" lon="18.158460169667123"><ele>45.4</ele><time>2026-04-21T20:07:48.005Z</time></trkpt><trkpt lat="40.341827850334845" lon="18.158406803540267"><ele>45.2</ele><time>2026-04-21T20:07:49.005Z</time></trkpt><trkpt lat="40.34173703179875" lon="18.1583601558235"><ele>45.0</ele><time>2026-04-21T20:07:50.005Z</time></trkpt><trkpt lat="40.34165248829882" lon="18.158316228887657"><ele>45.0</ele><time>2026-04-21T20:07:51.005Z</time></trkpt><trkpt lat="40.34156546922289" lon="18.158271443339213"><ele>45.0</ele><time>2026-04-21T20:07:52.005Z</time></trkpt><trkpt lat="40.34147178272027" lon="18.158225107682608"><ele>45.0</ele><time>2026-04-21T20:07:53.005Z</time></trkpt><trkpt lat="40.3413728332328" lon="18.158174881568975"><ele>45.0</ele><time>2026-04-21T20:07:54.005Z</time></trkpt><trkpt lat="40.34126276402449" lon="18.158120157815606"><ele>45.0</ele><time>2026-04-21T20:07:55.005Z</time></trkpt><trkpt lat="40.341134780579694" lon="18.158053097950575"><ele>45.25</ele><time>2026-04-21T20:07:56.005Z</time></trkpt><trkpt lat="40.34099458278098" lon="18.157969834563296"><ele>45.5</ele><time>2026-04-21T20:07:57.005Z</time></trkpt><trkpt lat="40.34087473920815" lon="18.157893038243362"><ele>45.75</ele><time>2026-04-21T20:07:58.005Z</time></trkpt><trkpt lat="40.34076008264921" lon="18.15781961011648"><ele>46.0</ele><time>2026-04-21T20:07:59.005Z</time></trkpt><trkpt lat="40.34066447145244" lon="18.157750701398452"><ele>46.0</ele><time>2026-04-21T20:08:00.005Z</time></trkpt><trkpt lat="40.340579774970756" lon="18.15767625509685"><ele>46.0</ele><time>2026-04-21T20:08:01.005Z</time></trkpt><trkpt lat="40.34049153052532" lon="18.157621618197943"><ele>46.0</ele><time>2026-04-21T20:08:02.005Z</time></trkpt><trkpt lat="40.34040082625627" lon="18.157606434571683"><ele>46.0</ele><time>2026-04-21T20:08:03.005Z</time></trkpt><trkpt lat="40.34032064101455" lon="18.15757621069434"><ele>46.0</ele><time>2026-04-21T20:08:04.005Z</time></trkpt><trkpt lat="40.34023298727902" lon="18.15754362678625"><ele>45.833333333333336</ele><time>2026-04-21T20:08:05.005Z</time></trkpt><trkpt lat="40.340149895329404" lon="18.15751601967464"><ele>45.66666666666667</ele><time>2026-04-21T20:08:06.005Z</time></trkpt><trkpt lat="40.34007882104435" lon="18.157483116394094"><ele>45.5</ele><time>2026-04-21T20:08:07.005Z</time></trkpt><trkpt lat="40.340014497459826" lon="18.15745559765305"><ele>45.333333333333336</ele><time>2026-04-21T20:08:08.005Z</time></trkpt><trkpt lat="40.33991732198357" lon="18.157416876529737"><ele>45.166666666666664</ele><time>2026-04-21T20:08:10.005Z</time></trkpt><trkpt lat="40.33985347826591" lon="18.15739129393587"><ele>45.0</ele><time>2026-04-21T20:08:13.005Z</time></trkpt><trkpt lat="40.339839261553074" lon="18.157302045654454"><ele>45.0</ele><time>2026-04-21T20:08:20.005Z</time></trkpt><trkpt lat="40.33974891833104" lon="18.157250671188642"><ele>45.0</ele><time>2026-04-21T20:08:22.005Z</time></trkpt><trkpt lat="40.33968955759752" lon="18.157218201323452"><ele>45.0</ele><time>2026-04-21T20:08:23.005Z</time></trkpt><trkpt lat="40.339620637330334" lon="18.157193019784287"><ele>45.0</ele><time>2026-04-21T20:08:24.005Z</time></trkpt><trkpt lat="40.339547901313566" lon="18.157162583124634"><ele>45.0</ele><time>2026-04-21T20:08:25.005Z</time></trkpt><trkpt lat="40.33946372615964" lon="18.15712109440577"><ele>45.0</ele><time>2026-04-21T20:08:26.005Z</time></trkpt><trkpt lat="40.339379205105935" lon="18.1570810474986"><ele>44.8</ele><time>2026-04-21T20:08:27.005Z</time></trkpt><trkpt lat="40.33929395409057" lon="18.157045178664326"><ele>44.6</ele><time>2026-04-21T20:08:28.005Z</time></trkpt><trkpt lat="40.33920186680878" lon="18.157011946234647"><ele>44.400000000000006</ele><time>2026-04-21T20:08:29.005Z</time></trkpt><trkpt lat="40.33910569182045" lon="18.1569598581696"><ele>44.2</ele><time>2026-04-21T20:08:30.005Z</time></trkpt><trkpt lat="40.33900540047386" lon="18.15690518523544"><ele>44.0</ele><time>2026-04-21T20:08:31.005Z</time></trkpt><trkpt lat="40.338898662997515" lon="18.15684968415279"><ele>43.75</ele><time>2026-04-21T20:08:32.005Z</time></trkpt><trkpt lat="40.338783971928834" lon="18.15679996695686"><ele>43.5</ele><time>2026-04-21T20:08:33.005Z</time></trkpt><trkpt lat="40.33866195115772" lon="18.1567423087057"><ele>43.25</ele><time>2026-04-21T20:08:34.004Z</time></trkpt><trkpt lat="40.338536542302265" lon="18.156678700913258"><ele>43.0</ele><time>2026-04-21T20:08:35.004Z</time></trkpt><trkpt lat="40.338420692694385" lon="18.156596943018965"><ele>43.25</ele><time>2026-04-21T20:08:36.004Z</time></trkpt><trkpt lat="40.338304356068626" lon="18.156536120879"><ele>43.5</ele><time>2026-04-21T20:08:37.004Z</time></trkpt><trkpt lat="40.33817639049101" lon="18.156476085451015"><ele>43.75</ele><time>2026-04-21T20:08:38.004Z</time></trkpt><trkpt lat="40.33804619555791" lon="18.15641011635364"><ele>44.0</ele><time>2026-04-21T20:08:39.004Z</time></trkpt><trkpt lat="40.33791841118953" lon="18.156340672402035"><ele>44.25</ele><time>2026-04-21T20:08:40.004Z</time></trkpt><trkpt lat="40.337792584866094" lon="18.15626996839065"><ele>44.5</ele><time>2026-04-21T20:08:41.004Z</time></trkpt><trkpt lat="40.33766755756783" lon="18.156205396737587"><ele>44.75</ele><time>2026-04-21T20:08:42.004Z</time></trkpt><trkpt lat="40.33754910013997" lon="18.1561453423284"><ele>45.0</ele><time>2026-04-21T20:08:43.004Z</time></trkpt><trkpt lat="40.33744193694255" lon="18.15606892154676"><ele>45.0</ele><time>2026-04-21T20:08:44.004Z</time></trkpt><trkpt lat="40.33733767755351" lon="18.156033242109448"><ele>45.0</ele><time>2026-04-21T20:08:45.004Z</time></trkpt><trkpt lat="40.33724725652203" lon="18.155975234778396"><ele>45.0</ele><time>2026-04-21T20:08:46.004Z</time></trkpt><trkpt lat="40.337155145385516" lon="18.15592973454767"><ele>45.0</ele><time>2026-04-21T20:08:47.004Z</time></trkpt><trkpt lat="40.33707510081109" lon="18.15588510329986"><ele>45.0</ele><time>2026-04-21T20:08:48.004Z</time></trkpt><trkpt lat="40.336995838461355" lon="18.155844464210215"><ele>45.0</ele><time>2026-04-21T20:08:49.004Z</time></trkpt><trkpt lat="40.33691530134012" lon="18.155795570390804"><ele>45.0</ele><time>2026-04-21T20:08:50.004Z</time></trkpt><trkpt lat="40.33682710523831" lon="18.155743853199457"><ele>45.0</ele><time>2026-04-21T20:08:51.004Z</time></trkpt><trkpt lat="40.33672948974267" lon="18.15568604089933"><ele>45.0</ele><time>2026-04-21T20:08:52.004Z</time></trkpt><trkpt lat="40.336624744227294" lon="18.15563126223257"><ele>45.0</ele><time>2026-04-21T20:08:53.004Z</time></trkpt><trkpt lat="40.33651326457391" lon="18.155571925944777"><ele>45.0</ele><time>2026-04-21T20:08:54.004Z</time></trkpt><trkpt lat="40.33639423085216" lon="18.155507412459936"><ele>45.0</ele><time>2026-04-21T20:08:55.004Z</time></trkpt><trkpt lat="40.33627322179053" lon="18.155444385222513"><ele>45.0</ele><time>2026-04-21T20:08:56.004Z</time></trkpt><trkpt lat="40.33615618606403" lon="18.15537732012054"><ele>45.0</ele><time>2026-04-21T20:08:57.004Z</time></trkpt><trkpt lat="40.33603537179362" lon="18.15530795518929"><ele>46.0</ele><time>2026-04-21T20:08:58.004Z</time></trkpt><trkpt lat="40.33591106900518" lon="18.155236335722872"><ele>47.0</ele><time>2026-04-21T20:08:59.004Z</time></trkpt><trkpt lat="40.33578035069385" lon="18.15516472226713"><ele>48.0</ele><time>2026-04-21T20:09:00.004Z</time></trkpt><trkpt lat="40.33564785344234" lon="18.15509095755327"><ele>49.0</ele><time>2026-04-21T20:09:01.004Z</time></trkpt><trkpt lat="40.33553046787962" lon="18.155047897388247"><ele>49.0</ele><time>2026-04-21T20:09:02.004Z</time></trkpt><trkpt lat="40.33538801115517" lon="18.154974817716923"><ele>49.0</ele><time>2026-04-21T20:09:03.004Z</time></trkpt><trkpt lat="40.33524374956735" lon="18.15489887234716"><ele>49.0</ele><time>2026-04-21T20:09:04.005Z</time></trkpt><trkpt lat="40.33509143996618" lon="18.15481884379844"><ele>49.33333333333333</ele><time>2026-04-21T20:09:05.005Z</time></trkpt><trkpt lat="40.334933253085296" lon="18.15473468947168"><ele>49.66666666666667</ele><time>2026-04-21T20:09:06.005Z</time></trkpt><trkpt lat="40.334772054499545" lon="18.154649876349094"><ele>50.0</ele><time>2026-04-21T20:09:07.005Z</time></trkpt><trkpt lat="40.334615817282526" lon="18.154560233703762"><ele>49.333333333333336</ele><time>2026-04-21T20:09:08.004Z</time></trkpt><trkpt lat="40.334454140294376" lon="18.154469389625987"><ele>48.66666666666667</ele><time>2026-04-21T20:09:09.004Z</time></trkpt><trkpt lat="40.33428832542193" lon="18.15437696871523"><ele>48.0</ele><time>2026-04-21T20:09:10.005Z</time></trkpt><trkpt lat="40.33412686417411" lon="18.154287312994374"><ele>48.0</ele><time>2026-04-21T20:09:11.004Z</time></trkpt><trkpt lat="40.3339555452312" lon="18.154194748413268"><ele>48.0</ele><time>2026-04-21T20:09:12.004Z</time></trkpt><trkpt lat="40.333781441718884" lon="18.15409726262224"><ele>48.0</ele><time>2026-04-21T20:09:13.005Z</time></trkpt><trkpt lat="40.333602945863014" lon="18.154002328760754"><ele>47.666666666666664</ele><time>2026-04-21T20:09:14.005Z</time></trkpt><trkpt lat="40.3334294212285" lon="18.153900500136068"><ele>47.33333333333333</ele><time>2026-04-21T20:09:15.005Z</time></trkpt><trkpt lat="40.333243692126715" lon="18.15380653177707"><ele>47.0</ele><time>2026-04-21T20:09:16.005Z</time></trkpt><trkpt lat="40.33305799968999" lon="18.153708903461762"><ele>47.0</ele><time>2026-04-21T20:09:17.005Z</time></trkpt><trkpt lat="40.3328666741353" lon="18.153608346457915"><ele>47.0</ele><time>2026-04-21T20:09:18.005Z</time></trkpt><trkpt lat="40.332678484486564" lon="18.15350855100024"><ele>47.0</ele><time>2026-04-21T20:09:19.005Z</time></trkpt><trkpt lat="40.33248366596592" lon="18.15340472899762"><ele>47.0</ele><time>2026-04-21T20:09:20.005Z</time></trkpt><trkpt lat="40.33229079873418" lon="18.153303352887566"><ele>47.0</ele><time>2026-04-21T20:09:21.005Z</time></trkpt><trkpt lat="40.3320999937599" lon="18.15320404206425"><ele>47.0</ele><time>2026-04-21T20:09:22.005Z</time></trkpt><trkpt lat="40.33190487182221" lon="18.153103511519667"><ele>45.666666666666664</ele><time>2026-04-21T20:09:23.005Z</time></trkpt><trkpt lat="40.331707955708055" lon="18.152999333663015"><ele>44.333333333333336</ele><time>2026-04-21T20:09:24.005Z</time></trkpt><trkpt lat="40.331515070145244" lon="18.152893157011793"><ele>43.0</ele><time>2026-04-21T20:09:25.005Z</time></trkpt><trkpt lat="40.33130964608793" lon="18.152778888093067"><ele>42.0</ele><time>2026-04-21T20:09:26.005Z</time></trkpt><trkpt lat="40.3311019182616" lon="18.152668725688564"><ele>41.0</ele><time>2026-04-21T20:09:27.005Z</time></trkpt><trkpt lat="40.33089693962102" lon="18.152555404333754"><ele>40.0</ele><time>2026-04-21T20:09:28.005Z</time></trkpt><trkpt lat="40.330692283181605" lon="18.152441172505185"><ele>38.333333333333336</ele><time>2026-04-21T20:09:29.005Z</time></trkpt><trkpt lat="40.330486086747676" lon="18.15233001504665"><ele>36.666666666666664</ele><time>2026-04-21T20:09:30.005Z</time></trkpt><trkpt lat="40.33028395023765" lon="18.152217329085392"><ele>35.0</ele><time>2026-04-21T20:09:31.005Z</time></trkpt><trkpt lat="40.33008097640197" lon="18.152101731221784"><ele>35.0</ele><time>2026-04-21T20:09:32.005Z</time></trkpt><trkpt lat="40.329880941407545" lon="18.151988861987025"><ele>35.0</ele><time>2026-04-21T20:09:33.005Z</time></trkpt><trkpt lat="40.3296792354312" lon="18.151871710502505"><ele>35.0</ele><time>2026-04-21T20:09:34.005Z</time></trkpt><trkpt lat="40.329470296299085" lon="18.151759324875247"><ele>35.0</ele><time>2026-04-21T20:09:35.005Z</time></trkpt><trkpt lat="40.32925452448773" lon="18.15164616928472"><ele>35.0</ele><time>2026-04-21T20:09:36.005Z</time></trkpt><trkpt lat="40.32903876978212" lon="18.151537022999864"><ele>34.0</ele><time>2026-04-21T20:09:37.005Z</time></trkpt><trkpt lat="40.32882093997186" lon="18.1514267754514"><ele>33.0</ele><time>2026-04-21T20:09:38.005Z</time></trkpt><trkpt lat="40.3286062669491" lon="18.151306571615777"><ele>33.0</ele><time>2026-04-21T20:09:39.005Z</time></trkpt><trkpt lat="40.32838744385299" lon="18.151189923891383"><ele>33.0</ele><time>2026-04-21T20:09:40.005Z</time></trkpt><trkpt lat="40.32816673382925" lon="18.15107095519919"><ele>32.0</ele><time>2026-04-21T20:09:41.005Z</time></trkpt><trkpt lat="40.327941986960994" lon="18.15095081009402"><ele>31.0</ele><time>2026-04-21T20:09:42.005Z</time></trkpt><trkpt lat="40.32771379357949" lon="18.15083063070995"><ele>31.0</ele><time>2026-04-21T20:09:43.005Z</time></trkpt><trkpt lat="40.32748599975921" lon="18.150708037161966"><ele>31.0</ele><time>2026-04-21T20:09:44.005Z</time></trkpt><trkpt lat="40.32725660677121" lon="18.15058633847773"><ele>30.0</ele><time>2026-04-21T20:09:45.005Z</time></trkpt><trkpt lat="40.32702597713037" lon="18.150462953981727"><ele>29.0</ele><time>2026-04-21T20:09:46.005Z</time></trkpt><trkpt lat="40.32679318007245" lon="18.15034110063318"><ele>29.0</ele><time>2026-04-21T20:09:47.005Z</time></trkpt><trkpt lat="40.3265611056799" lon="18.150215852155743"><ele>29.0</ele><time>2026-04-21T20:09:48.005Z</time></trkpt><trkpt lat="40.32632648120819" lon="18.150092079774435"><ele>29.0</ele><time>2026-04-21T20:09:49.005Z</time></trkpt><trkpt lat="40.32609629314597" lon="18.149970042863462"><ele>29.0</ele><time>2026-04-21T20:09:50.005Z</time></trkpt><trkpt lat="40.3258824584344" lon="18.1498510902363"><ele>29.5</ele><time>2026-04-21T20:09:51.005Z</time></trkpt><trkpt lat="40.32567413926935" lon="18.149745521291745"><ele>30.0</ele><time>2026-04-21T20:09:52.005Z</time></trkpt><trkpt lat="40.32546189824103" lon="18.149632125522725"><ele>31.0</ele><time>2026-04-21T20:09:53.005Z</time></trkpt><trkpt lat="40.32525163201388" lon="18.14952085681716"><ele>32.0</ele><time>2026-04-21T20:09:54.005Z</time></trkpt><trkpt lat="40.32503855516509" lon="18.14940657937515"><ele>32.0</ele><time>2026-04-21T20:09:55.005Z</time></trkpt><trkpt lat="40.32481881042269" lon="18.149283798414057"><ele>32.0</ele><time>2026-04-21T20:09:56.005Z</time></trkpt><trkpt lat="40.32459444673697" lon="18.149160431418746"><ele>30.5</ele><time>2026-04-21T20:09:57.005Z</time></trkpt><trkpt lat="40.324363620156696" lon="18.149035913083768"><ele>29.0</ele><time>2026-04-21T20:09:58.005Z</time></trkpt><trkpt lat="40.3241320348782" lon="18.14890840774713"><ele>27.5</ele><time>2026-04-21T20:09:59.005Z</time></trkpt><trkpt lat="40.32389659972543" lon="18.148778826338052"><ele>26.0</ele><time>2026-04-21T20:10:00.005Z</time></trkpt><trkpt lat="40.32366457615868" lon="18.148650301798025"><ele>26.0</ele><time>2026-04-21T20:10:01.005Z</time></trkpt><trkpt lat="40.323427989812046" lon="18.148525201031468"><ele>26.0</ele><time>2026-04-21T20:10:02.005Z</time></trkpt><trkpt lat="40.32319426344583" lon="18.148396892794683"><ele>26.0</ele><time>2026-04-21T20:10:03.005Z</time></trkpt><trkpt lat="40.32295735959883" lon="18.148268986687423"><ele>26.0</ele><time>2026-04-21T20:10:04.005Z</time></trkpt><trkpt lat="40.322724613177684" lon="18.148146305384877"><ele>26.0</ele><time>2026-04-21T20:10:05.005Z</time></trkpt><trkpt lat="40.32248977741116" lon="18.148024500504796"><ele>26.0</ele><time>2026-04-21T20:10:06.005Z</time></trkpt><trkpt lat="40.322256167760315" lon="18.147899219378967"><ele>25.0</ele><time>2026-04-21T20:10:07.005Z</time></trkpt><trkpt lat="40.32202269063371" lon="18.147772367968567"><ele>24.0</ele><time>2026-04-21T20:10:08.005Z</time></trkpt><trkpt lat="40.321789327381474" lon="18.147645301238196"><ele>24.0</ele><time>2026-04-21T20:10:09.005Z</time></trkpt><trkpt lat="40.321554657484704" lon="18.147517464968303"><ele>24.0</ele><time>2026-04-21T20:10:10.004Z</time></trkpt><trkpt lat="40.32132201021526" lon="18.14739700409414"><ele>23.0</ele><time>2026-04-21T20:10:11.004Z</time></trkpt><trkpt lat="40.32108720645098" lon="18.1472728184586"><ele>22.0</ele><time>2026-04-21T20:10:12.004Z</time></trkpt><trkpt lat="40.32084993092652" lon="18.147151646117592"><ele>22.0</ele><time>2026-04-21T20:10:13.004Z</time></trkpt><trkpt lat="40.32061631219889" lon="18.147032451822582"><ele>22.0</ele><time>2026-04-21T20:10:14.004Z</time></trkpt><trkpt lat="40.32038275860509" lon="18.14691144141214"><ele>22.5</ele><time>2026-04-21T20:10:15.004Z</time></trkpt><trkpt lat="40.32014784378934" lon="18.146790645694647"><ele>23.0</ele><time>2026-04-21T20:10:16.004Z</time></trkpt><trkpt lat="40.31991191022042" lon="18.146670030912478"><ele>23.0</ele><time>2026-04-21T20:10:17.004Z</time></trkpt><trkpt lat="40.319675440399685" lon="18.14655072196907"><ele>23.0</ele><time>2026-04-21T20:10:18.004Z</time></trkpt><trkpt lat="40.31944048205355" lon="18.146426941334678"><ele>22.5</ele><time>2026-04-21T20:10:19.004Z</time></trkpt><trkpt lat="40.31920629522319" lon="18.14630397056365"><ele>22.0</ele><time>2026-04-21T20:10:20.004Z</time></trkpt><trkpt lat="40.31897140044659" lon="18.146183659956584"><ele>22.5</ele><time>2026-04-21T20:10:21.004Z</time></trkpt><trkpt lat="40.31873668942424" lon="18.146063251638324"><ele>23.0</ele><time>2026-04-21T20:10:22.004Z</time></trkpt><trkpt lat="40.31850101748672" lon="18.145946456230842"><ele>23.0</ele><time>2026-04-21T20:10:23.004Z</time></trkpt><trkpt lat="40.31826834138444" lon="18.14582654761178"><ele>23.0</ele><time>2026-04-21T20:10:24.004Z</time></trkpt><trkpt lat="40.318036504741755" lon="18.14570104228779"><ele>26.5</ele><time>2026-04-21T20:10:25.004Z</time></trkpt><trkpt lat="40.31780501146012" lon="18.145565661386776"><ele>30.0</ele><time>2026-04-21T20:10:26.004Z</time></trkpt><trkpt lat="40.31758236766109" lon="18.145413538348127"><ele>30.0</ele><time>2026-04-21T20:10:27.004Z</time></trkpt><trkpt lat="40.317363247207155" lon="18.14524725739461"><ele>30.0</ele><time>2026-04-21T20:10:28.004Z</time></trkpt><trkpt lat="40.31715534047899" lon="18.145065492426806"><ele>31.0</ele><time>2026-04-21T20:10:29.004Z</time></trkpt><trkpt lat="40.316952530543794" lon="18.144869464169567"><ele>32.0</ele><time>2026-04-21T20:10:30.004Z</time></trkpt><trkpt lat="40.31675731475866" lon="18.144656764907083"><ele>32.0</ele><time>2026-04-21T20:10:31.004Z</time></trkpt><trkpt lat="40.3165719394015" lon="18.144428444938715"><ele>32.0</ele><time>2026-04-21T20:10:32.004Z</time></trkpt><trkpt lat="40.31640005743048" lon="18.144187277245333"><ele>33.0</ele><time>2026-04-21T20:10:33.004Z</time></trkpt><trkpt lat="40.31623977370664" lon="18.14392954226112"><ele>34.0</ele><time>2026-04-21T20:10:34.004Z</time></trkpt><trkpt lat="40.316089212742824" lon="18.143660807315275"><ele>34.0</ele><time>2026-04-21T20:10:35.004Z</time></trkpt><trkpt lat="40.31595044837434" lon="18.143381931649984"><ele>34.0</ele><time>2026-04-21T20:10:36.004Z</time></trkpt><trkpt lat="40.31582141404252" lon="18.143093466025107"><ele>35.0</ele><time>2026-04-21T20:10:37.004Z</time></trkpt><trkpt lat="40.315697519896474" lon="18.14280387104291"><ele>36.0</ele><time>2026-04-21T20:10:38.004Z</time></trkpt><trkpt lat="40.315570894995155" lon="18.142518652892175"><ele>35.5</ele><time>2026-04-21T20:10:39.004Z</time></trkpt><trkpt lat="40.31543647406107" lon="18.142239205769727"><ele>35.0</ele><time>2026-04-21T20:10:40.004Z</time></trkpt><trkpt lat="40.31530851485737" lon="18.141953541909597"><ele>35.0</ele><time>2026-04-21T20:10:41.004Z</time></trkpt><trkpt lat="40.31517687402578" lon="18.14167010002553"><ele>35.0</ele><time>2026-04-21T20:10:42.004Z</time></trkpt><trkpt lat="40.31504788844811" lon="18.14138784746122"><ele>34.5</ele><time>2026-04-21T20:10:43.004Z</time></trkpt><trkpt lat="40.31491829818581" lon="18.14110212690941"><ele>34.0</ele><time>2026-04-21T20:10:44.004Z</time></trkpt><trkpt lat="40.31478541131945" lon="18.140824080260586"><ele>35.0</ele><time>2026-04-21T20:10:45.004Z</time></trkpt><trkpt lat="40.314651923886565" lon="18.140540760805163"><ele>36.0</ele><time>2026-04-21T20:10:46.004Z</time></trkpt><trkpt lat="40.314519652944774" lon="18.140256721378446"><ele>36.0</ele><time>2026-04-21T20:10:47.004Z</time></trkpt><trkpt lat="40.31438867765103" lon="18.139974672842424"><ele>36.0</ele><time>2026-04-21T20:10:48.004Z</time></trkpt><trkpt lat="40.31425936583852" lon="18.139696251477517"><ele>36.0</ele><time>2026-04-21T20:10:49.004Z</time></trkpt><trkpt lat="40.314127219666915" lon="18.1394164713243"><ele>36.0</ele><time>2026-04-21T20:10:50.004Z</time></trkpt><trkpt lat="40.31398982212291" lon="18.139133346624433"><ele>35.5</ele><time>2026-04-21T20:10:51.004Z</time></trkpt><trkpt lat="40.31384767080802" lon="18.138866978408384"><ele>35.0</ele><time>2026-04-21T20:10:52.004Z</time></trkpt><trkpt lat="40.31368692494285" lon="18.138617041946166"><ele>35.0</ele><time>2026-04-21T20:10:53.004Z</time></trkpt><trkpt lat="40.31351142286297" lon="18.138377797344297"><ele>35.0</ele><time>2026-04-21T20:10:54.004Z</time></trkpt><trkpt lat="40.31332401092642" lon="18.138150287489218"><ele>35.0</ele><time>2026-04-21T20:10:55.004Z</time></trkpt><trkpt lat="40.31312574658501" lon="18.137945671708124"><ele>35.0</ele><time>2026-04-21T20:10:56.004Z</time></trkpt><trkpt lat="40.312922893885634" lon="18.137754944992253"><ele>35.5</ele><time>2026-04-21T20:10:57.004Z</time></trkpt><trkpt lat="40.31270880591706" lon="18.137582624486182"><ele>36.0</ele><time>2026-04-21T20:10:58.004Z</time></trkpt><trkpt lat="40.312487643660326" lon="18.13743387224257"><ele>35.0</ele><time>2026-04-21T20:10:59.004Z</time></trkpt><trkpt lat="40.31225273763867" lon="18.13730173171955"><ele>34.0</ele><time>2026-04-21T20:11:00.004Z</time></trkpt><trkpt lat="40.31201116101855" lon="18.137193769994497"><ele>34.0</ele><time>2026-04-21T20:11:01.004Z</time></trkpt><trkpt lat="40.31176663268791" lon="18.137097470613632"><ele>34.0</ele><time>2026-04-21T20:11:02.004Z</time></trkpt><trkpt lat="40.311526267349045" lon="18.137005539726168"><ele>35.0</ele><time>2026-04-21T20:11:03.004Z</time></trkpt><trkpt lat="40.31127811223497" lon="18.13692037943379"><ele>36.0</ele><time>2026-04-21T20:11:04.004Z</time></trkpt><trkpt lat="40.31103370224769" lon="18.136835274392716"><ele>36.0</ele><time>2026-04-21T20:11:05.004Z</time></trkpt><trkpt lat="40.31078756517882" lon="18.13675035793189"><ele>36.0</ele><time>2026-04-21T20:11:06.004Z</time></trkpt><trkpt lat="40.31054687264698" lon="18.13666350108222"><ele>35.5</ele><time>2026-04-21T20:11:07.004Z</time></trkpt><trkpt lat="40.31030024190681" lon="18.136576131155984"><ele>35.0</ele><time>2026-04-21T20:11:08.004Z</time></trkpt><trkpt lat="40.31005578855467" lon="18.136487913284324"><ele>34.5</ele><time>2026-04-21T20:11:09.004Z</time></trkpt><trkpt lat="40.30980920279616" lon="18.136402621424253"><ele>34.0</ele><time>2026-04-21T20:11:10.005Z</time></trkpt><trkpt lat="40.30956709336686" lon="18.136312868729703"><ele>35.0</ele><time>2026-04-21T20:11:11.005Z</time></trkpt><trkpt lat="40.3093240510231" lon="18.1362228414644"><ele>36.0</ele><time>2026-04-21T20:11:12.005Z</time></trkpt><trkpt lat="40.309080836728015" lon="18.13613629340385"><ele>36.0</ele><time>2026-04-21T20:11:13.004Z</time></trkpt><trkpt lat="40.308837759075246" lon="18.136052732286345"><ele>36.0</ele><time>2026-04-21T20:11:14.004Z</time></trkpt><trkpt lat="40.30859266268054" lon="18.135969321350387"><ele>36.0</ele><time>2026-04-21T20:11:15.004Z</time></trkpt><trkpt lat="40.308344003664125" lon="18.135887026363847"><ele>36.0</ele><time>2026-04-21T20:11:16.005Z</time></trkpt><trkpt lat="40.30810035715327" lon="18.135800820900197"><ele>36.5</ele><time>2026-04-21T20:11:17.004Z</time></trkpt><trkpt lat="40.307862469177955" lon="18.135720863745124"><ele>37.0</ele><time>2026-04-21T20:11:18.004Z</time></trkpt><trkpt lat="40.30761596051656" lon="18.135630551938718"><ele>37.5</ele><time>2026-04-21T20:11:19.004Z</time></trkpt><trkpt lat="40.30737237465722" lon="18.13554503322255"><ele>38.0</ele><time>2026-04-21T20:11:20.004Z</time></trkpt><trkpt lat="40.30712907740887" lon="18.135458080427306"><ele>39.5</ele><time>2026-04-21T20:11:21.004Z</time></trkpt><trkpt lat="40.306884065543535" lon="18.135373751982993"><ele>41.0</ele><time>2026-04-21T20:11:22.005Z</time></trkpt><trkpt lat="40.30664081159629" lon="18.13529628839923"><ele>41.0</ele><time>2026-04-21T20:11:23.004Z</time></trkpt><trkpt lat="40.30639443686275" lon="18.135209917150853"><ele>41.0</ele><time>2026-04-21T20:11:24.004Z</time></trkpt><trkpt lat="40.306149928122466" lon="18.13512151517787"><ele>41.0</ele><time>2026-04-21T20:11:25.004Z</time></trkpt><trkpt lat="40.305907055517466" lon="18.135033594020925"><ele>41.0</ele><time>2026-04-21T20:11:26.004Z</time></trkpt><trkpt lat="40.305665215797845" lon="18.134944733071862"><ele>41.0</ele><time>2026-04-21T20:11:27.004Z</time></trkpt><trkpt lat="40.305422155728536" lon="18.134857818715727"><ele>41.0</ele><time>2026-04-21T20:11:28.004Z</time></trkpt><trkpt lat="40.305177565686805" lon="18.13477498470821"><ele>41.0</ele><time>2026-04-21T20:11:29.004Z</time></trkpt><trkpt lat="40.30493011794582" lon="18.13469583834992"><ele>41.0</ele><time>2026-04-21T20:11:30.004Z</time></trkpt><trkpt lat="40.304682093679155" lon="18.134610598760943"><ele>41.0</ele><time>2026-04-21T20:11:31.004Z</time></trkpt><trkpt lat="40.30443770143842" lon="18.13452108463951"><ele>41.0</ele><time>2026-04-21T20:11:32.004Z</time></trkpt><trkpt lat="40.30419904787629" lon="18.13442716099691"><ele>41.0</ele><time>2026-04-21T20:11:33.004Z</time></trkpt><trkpt lat="40.30395535879936" lon="18.134330811304086"><ele>41.0</ele><time>2026-04-21T20:11:34.004Z</time></trkpt><trkpt lat="40.303714994517826" lon="18.1342271053427"><ele>42.0</ele><time>2026-04-21T20:11:35.004Z</time></trkpt><trkpt lat="40.30347570861479" lon="18.134114584157587"><ele>43.0</ele><time>2026-04-21T20:11:36.004Z</time></trkpt><trkpt lat="40.30323261605976" lon="18.134008697097237"><ele>42.0</ele><time>2026-04-21T20:11:37.004Z</time></trkpt><trkpt lat="40.30298980998864" lon="18.133903467499987"><ele>41.0</ele><time>2026-04-21T20:11:38.004Z</time></trkpt><trkpt lat="40.30274430565147" lon="18.133797506446882"><ele>41.0</ele><time>2026-04-21T20:11:39.004Z</time></trkpt><trkpt lat="40.302503006051396" lon="18.13369027769695"><ele>41.0</ele><time>2026-04-21T20:11:40.004Z</time></trkpt><trkpt lat="40.30226028460029" lon="18.13358265314614"><ele>40.5</ele><time>2026-04-21T20:11:41.004Z</time></trkpt><trkpt lat="40.30202120406042" lon="18.133472146445865"><ele>40.0</ele><time>2026-04-21T20:11:42.004Z</time></trkpt><trkpt lat="40.301782509424974" lon="18.1333662519542"><ele>40.0</ele><time>2026-04-21T20:11:43.004Z</time></trkpt><trkpt lat="40.30154345592865" lon="18.133258788677068"><ele>40.0</ele><time>2026-04-21T20:11:44.004Z</time></trkpt><trkpt lat="40.301301721742504" lon="18.133151791972388"><ele>38.5</ele><time>2026-04-21T20:11:45.004Z</time></trkpt><trkpt lat="40.30106207612326" lon="18.133045512953334"><ele>37.0</ele><time>2026-04-21T20:11:46.004Z</time></trkpt><trkpt lat="40.300824552581325" lon="18.13294116878439"><ele>37.0</ele><time>2026-04-21T20:11:47.004Z</time></trkpt><trkpt lat="40.30058907970144" lon="18.132834119168656"><ele>37.0</ele><time>2026-04-21T20:11:48.004Z</time></trkpt><trkpt lat="40.300351293436876" lon="18.132727903336743"><ele>38.0</ele><time>2026-04-21T20:11:49.004Z</time></trkpt><trkpt lat="40.30011558029685" lon="18.132624671569207"><ele>39.0</ele><time>2026-04-21T20:11:50.004Z</time></trkpt><trkpt lat="40.299878348283684" lon="18.132527546057876"><ele>39.0</ele><time>2026-04-21T20:11:51.004Z</time></trkpt><trkpt lat="40.29964034731315" lon="18.132439355212536"><ele>39.0</ele><time>2026-04-21T20:11:52.004Z</time></trkpt><trkpt lat="40.29939200613539" lon="18.13235965279226"><ele>39.0</ele><time>2026-04-21T20:11:53.004Z</time></trkpt><trkpt lat="40.29914225702807" lon="18.13229056060296"><ele>39.0</ele><time>2026-04-21T20:11:54.004Z</time></trkpt><trkpt lat="40.29889167981618" lon="18.132226952899966"><ele>40.5</ele><time>2026-04-21T20:11:55.004Z</time></trkpt><trkpt lat="40.29864327596106" lon="18.132172872491978"><ele>42.0</ele><time>2026-04-21T20:11:56.004Z</time></trkpt><trkpt lat="40.2983930796577" lon="18.132128369497984"><ele>42.0</ele><time>2026-04-21T20:11:57.004Z</time></trkpt><trkpt lat="40.298144609847505" lon="18.132095230526293"><ele>42.0</ele><time>2026-04-21T20:11:58.004Z</time></trkpt><trkpt lat="40.297892286302506" lon="18.132075152870197"><ele>42.0</ele><time>2026-04-21T20:11:59.004Z</time></trkpt><trkpt lat="40.29764139423786" lon="18.132063668376972"><ele>42.0</ele><time>2026-04-21T20:12:00.004Z</time></trkpt><trkpt lat="40.29738985372732" lon="18.132064129376488"><ele>43.0</ele><time>2026-04-21T20:12:01.004Z</time></trkpt><trkpt lat="40.297139253047575" lon="18.132068575390985"><ele>44.0</ele><time>2026-04-21T20:12:02.004Z</time></trkpt><trkpt lat="40.29688870173307" lon="18.13208297833684"><ele>44.0</ele><time>2026-04-21T20:12:03.004Z</time></trkpt><trkpt lat="40.296639192363116" lon="18.132106917553624"><ele>44.0</ele><time>2026-04-21T20:12:04.004Z</time></trkpt><trkpt lat="40.29639014324171" lon="18.132140106190647"><ele>44.0</ele><time>2026-04-21T20:12:05.004Z</time></trkpt><trkpt lat="40.29613786957873" lon="18.13218224539866"><ele>44.0</ele><time>2026-04-21T20:12:06.004Z</time></trkpt><trkpt lat="40.295885136116276" lon="18.132229681778437"><ele>44.0</ele><time>2026-04-21T20:12:07.004Z</time></trkpt><trkpt lat="40.29563586071119" lon="18.13227748880869"><ele>44.0</ele><time>2026-04-21T20:12:08.004Z</time></trkpt><trkpt lat="40.29538466661191" lon="18.132323413678645"><ele>44.0</ele><time>2026-04-21T20:12:09.004Z</time></trkpt><trkpt lat="40.29513418214589" lon="18.132366742107724"><ele>44.0</ele><time>2026-04-21T20:12:10.004Z</time></trkpt><trkpt lat="40.29488394435544" lon="18.132410143339534"><ele>44.5</ele><time>2026-04-21T20:12:11.004Z</time></trkpt><trkpt lat="40.29463240937635" lon="18.132455554016836"><ele>45.0</ele><time>2026-04-21T20:12:12.004Z</time></trkpt><trkpt lat="40.29438297135784" lon="18.132499725001257"><ele>45.0</ele><time>2026-04-21T20:12:13.004Z</time></trkpt><trkpt lat="40.29413140236318" lon="18.132542761502933"><ele>45.0</ele><time>2026-04-21T20:12:14.004Z</time></trkpt><trkpt lat="40.29387904981613" lon="18.132584189452682"><ele>46.5</ele><time>2026-04-21T20:12:15.004Z</time></trkpt><trkpt lat="40.293627459851095" lon="18.132626359480597"><ele>48.0</ele><time>2026-04-21T20:12:16.004Z</time></trkpt><trkpt lat="40.29337773346503" lon="18.132671758463438"><ele>48.0</ele><time>2026-04-21T20:12:17.004Z</time></trkpt><trkpt lat="40.29312598155087" lon="18.132714993231197"><ele>48.0</ele><time>2026-04-21T20:12:18.004Z</time></trkpt><trkpt lat="40.29287170059825" lon="18.132759335591164"><ele>49.0</ele><time>2026-04-21T20:12:19.004Z</time></trkpt><trkpt lat="40.29261835981503" lon="18.13280328604172"><ele>50.0</ele><time>2026-04-21T20:12:20.004Z</time></trkpt><trkpt lat="40.29236578403926" lon="18.132846011504856"><ele>50.5</ele><time>2026-04-21T20:12:21.004Z</time></trkpt><trkpt lat="40.29211292747374" lon="18.13288929737512"><ele>51.0</ele><time>2026-04-21T20:12:22.004Z</time></trkpt><trkpt lat="40.291859534981924" lon="18.13293194535549"><ele>51.0</ele><time>2026-04-21T20:12:23.004Z</time></trkpt><trkpt lat="40.291604119273565" lon="18.132975830218083"><ele>51.0</ele><time>2026-04-21T20:12:24.004Z</time></trkpt><trkpt lat="40.29135329622571" lon="18.133013830223252"><ele>51.5</ele><time>2026-04-21T20:12:25.004Z</time></trkpt><trkpt lat="40.2911027914705" lon="18.133037652922372"><ele>52.0</ele><time>2026-04-21T20:12:26.003Z</time></trkpt><trkpt lat="40.29085768196985" lon="18.133046237530007"><ele>52.0</ele><time>2026-04-21T20:12:27.003Z</time></trkpt><trkpt lat="40.29060416621853" lon="18.13306199908561"><ele>52.0</ele><time>2026-04-21T20:12:28.003Z</time></trkpt><trkpt lat="40.2903511416804" lon="18.133035387448324"><ele>51.5</ele><time>2026-04-21T20:12:29.003Z</time></trkpt><trkpt lat="40.29009770668971" lon="18.132993359307502"><ele>51.0</ele><time>2026-04-21T20:12:30.003Z</time></trkpt><trkpt lat="40.289847702521605" lon="18.13292867887927"><ele>51.5</ele><time>2026-04-21T20:12:31.003Z</time></trkpt><trkpt lat="40.28960308118991" lon="18.13284964057937"><ele>52.0</ele><time>2026-04-21T20:12:32.003Z</time></trkpt><trkpt lat="40.28934968036848" lon="18.132747288959568"><ele>52.0</ele><time>2026-04-21T20:12:33.003Z</time></trkpt><trkpt lat="40.28911144700618" lon="18.132643533014928"><ele>52.0</ele><time>2026-04-21T20:12:34.003Z</time></trkpt><trkpt lat="40.288870898300544" lon="18.13254044330784"><ele>50.5</ele><time>2026-04-21T20:12:35.003Z</time></trkpt><trkpt lat="40.28863224166423" lon="18.132439450791892"><ele>49.0</ele><time>2026-04-21T20:12:36.003Z</time></trkpt><trkpt lat="40.28839353587986" lon="18.13232935854946"><ele>48.5</ele><time>2026-04-21T20:12:37.003Z</time></trkpt><trkpt lat="40.28815105715866" lon="18.132217071900016"><ele>48.0</ele><time>2026-04-21T20:12:38.003Z</time></trkpt><trkpt lat="40.28791160232783" lon="18.13210798948156"><ele>48.0</ele><time>2026-04-21T20:12:39.003Z</time></trkpt><trkpt lat="40.287671997400764" lon="18.131997725623727"><ele>48.0</ele><time>2026-04-21T20:12:40.003Z</time></trkpt><trkpt lat="40.28743466170107" lon="18.13188824119367"><ele>48.5</ele><time>2026-04-21T20:12:41.003Z</time></trkpt><trkpt lat="40.28719672626024" lon="18.13177750657498"><ele>49.0</ele><time>2026-04-21T20:12:42.003Z</time></trkpt><trkpt lat="40.28695980275054" lon="18.13166840111883"><ele>49.0</ele><time>2026-04-21T20:12:43.003Z</time></trkpt><trkpt lat="40.286718846287535" lon="18.131560017320172"><ele>49.0</ele><time>2026-04-21T20:12:44.003Z</time></trkpt><trkpt lat="40.28647716840224" lon="18.131452450034992"><ele>49.0</ele><time>2026-04-21T20:12:45.003Z</time></trkpt><trkpt lat="40.28623620649727" lon="18.13134229510258"><ele>49.0</ele><time>2026-04-21T20:12:46.003Z</time></trkpt><trkpt lat="40.28599587519644" lon="18.13123517054012"><ele>49.0</ele><time>2026-04-21T20:12:47.003Z</time></trkpt><trkpt lat="40.28576076747497" lon="18.13112960598601"><ele>49.0</ele><time>2026-04-21T20:12:48.003Z</time></trkpt><trkpt lat="40.28552132110073" lon="18.131018667231857"><ele>49.5</ele><time>2026-04-21T20:12:49.003Z</time></trkpt><trkpt lat="40.28528144262116" lon="18.13091284812502"><ele>50.0</ele><time>2026-04-21T20:12:50.003Z</time></trkpt><trkpt lat="40.28503848324436" lon="18.13081082121203"><ele>49.0</ele><time>2026-04-21T20:12:51.003Z</time></trkpt><trkpt lat="40.28480348867487" lon="18.13070608268971"><ele>48.0</ele><time>2026-04-21T20:12:52.003Z</time></trkpt><trkpt lat="40.28456462729106" lon="18.1305984130211"><ele>47.5</ele><time>2026-04-21T20:12:53.003Z</time></trkpt><trkpt lat="40.28432293294344" lon="18.130489185997565"><ele>47.0</ele><time>2026-04-21T20:12:54.003Z</time></trkpt><trkpt lat="40.2840825487101" lon="18.13037830670092"><ele>47.5</ele><time>2026-04-21T20:12:55.003Z</time></trkpt><trkpt lat="40.28384387879998" lon="18.130271928026346"><ele>48.0</ele><time>2026-04-21T20:12:56.003Z</time></trkpt><trkpt lat="40.283606974958516" lon="18.130165416565447"><ele>48.0</ele><time>2026-04-21T20:12:57.003Z</time></trkpt><trkpt lat="40.283366651885075" lon="18.130061906139304"><ele>48.0</ele><time>2026-04-21T20:12:58.003Z</time></trkpt><trkpt lat="40.28312407465013" lon="18.129956916519202"><ele>47.5</ele><time>2026-04-21T20:12:59.003Z</time></trkpt><trkpt lat="40.28288332353906" lon="18.129850930854694"><ele>47.0</ele><time>2026-04-21T20:13:00.003Z</time></trkpt><trkpt lat="40.28264265133794" lon="18.129743972857195"><ele>47.0</ele><time>2026-04-21T20:13:01.003Z</time></trkpt><trkpt lat="40.28240315064209" lon="18.129636019237136"><ele>47.0</ele><time>2026-04-21T20:13:02.003Z</time></trkpt><trkpt lat="40.28216384963722" lon="18.1295259176862"><ele>47.5</ele><time>2026-04-21T20:13:03.003Z</time></trkpt><trkpt lat="40.28192600989752" lon="18.129416276996356"><ele>48.0</ele><time>2026-04-21T20:13:04.003Z</time></trkpt><trkpt lat="40.28168930929945" lon="18.129309288123626"><ele>48.0</ele><time>2026-04-21T20:13:05.003Z</time></trkpt><trkpt lat="40.281447515372236" lon="18.129200251021885"><ele>48.0</ele><time>2026-04-21T20:13:06.003Z</time></trkpt><trkpt lat="40.28120647955183" lon="18.12909324399601"><ele>48.5</ele><time>2026-04-21T20:13:07.003Z</time></trkpt><trkpt lat="40.280968090605384" lon="18.128987116391833"><ele>49.0</ele><time>2026-04-21T20:13:08.003Z</time></trkpt><trkpt lat="40.28073080187307" lon="18.128882294325106"><ele>49.5</ele><time>2026-04-21T20:13:09.003Z</time></trkpt><trkpt lat="40.28049302944735" lon="18.1287803594397"><ele>50.0</ele><time>2026-04-21T20:13:10.003Z</time></trkpt><trkpt lat="40.28025134079986" lon="18.128675030691443"><ele>50.0</ele><time>2026-04-21T20:13:11.003Z</time></trkpt><trkpt lat="40.28001163155652" lon="18.128565153743246"><ele>50.0</ele><time>2026-04-21T20:13:12.003Z</time></trkpt><trkpt lat="40.27977207080778" lon="18.1284533568096"><ele>49.0</ele><time>2026-04-21T20:13:13.003Z</time></trkpt><trkpt lat="40.27953326501643" lon="18.128344447379977"><ele>48.0</ele><time>2026-04-21T20:13:14.003Z</time></trkpt><trkpt lat="40.27929338493386" lon="18.12824050566466"><ele>48.5</ele><time>2026-04-21T20:13:15.003Z</time></trkpt><trkpt lat="40.27905451623864" lon="18.128134788971174"><ele>49.0</ele><time>2026-04-21T20:13:16.004Z</time></trkpt><trkpt lat="40.278814355459936" lon="18.12803075584485"><ele>49.0</ele><time>2026-04-21T20:13:17.004Z</time></trkpt><trkpt lat="40.278574642951796" lon="18.127923734330746"><ele>49.0</ele><time>2026-04-21T20:13:18.004Z</time></trkpt><trkpt lat="40.278336199186164" lon="18.127814980617384"><ele>52.5</ele><time>2026-04-21T20:13:19.004Z</time></trkpt><trkpt lat="40.278097374181115" lon="18.127710741828697"><ele>56.0</ele><time>2026-04-21T20:13:20.004Z</time></trkpt><trkpt lat="40.27785775416211" lon="18.127607728236285"><ele>56.0</ele><time>2026-04-21T20:13:21.004Z</time></trkpt><trkpt lat="40.27761826327881" lon="18.12750419286069"><ele>56.0</ele><time>2026-04-21T20:13:22.004Z</time></trkpt><trkpt lat="40.27737803046437" lon="18.127397511696902"><ele>54.5</ele><time>2026-04-21T20:13:23.004Z</time></trkpt><trkpt lat="40.27713958202486" lon="18.127292781300994"><ele>53.0</ele><time>2026-04-21T20:13:24.004Z</time></trkpt><trkpt lat="40.27690061514515" lon="18.127187206589802"><ele>53.0</ele><time>2026-04-21T20:13:25.004Z</time></trkpt><trkpt lat="40.27665932671094" lon="18.127076793831115"><ele>53.0</ele><time>2026-04-21T20:13:26.004Z</time></trkpt><trkpt lat="40.27641967463472" lon="18.12696756087088"><ele>51.0</ele><time>2026-04-21T20:13:27.004Z</time></trkpt><trkpt lat="40.276180856368484" lon="18.12685842194542"><ele>49.0</ele><time>2026-04-21T20:13:28.004Z</time></trkpt><trkpt lat="40.275943281087116" lon="18.12675563674138"><ele>49.0</ele><time>2026-04-21T20:13:29.004Z</time></trkpt><trkpt lat="40.275702543514974" lon="18.126650869629696"><ele>49.0</ele><time>2026-04-21T20:13:30.004Z</time></trkpt><trkpt lat="40.27545958846279" lon="18.126547333520712"><ele>48.5</ele><time>2026-04-21T20:13:31.004Z</time></trkpt><trkpt lat="40.275219930516435" lon="18.126439246042445"><ele>48.0</ele><time>2026-04-21T20:13:32.004Z</time></trkpt><trkpt lat="40.27497711581324" lon="18.12633039618391"><ele>46.0</ele><time>2026-04-21T20:13:33.004Z</time></trkpt><trkpt lat="40.27473806001851" lon="18.126222312318752"><ele>44.0</ele><time>2026-04-21T20:13:34.004Z</time></trkpt><trkpt lat="40.27449900184642" lon="18.126115632724638"><ele>44.0</ele><time>2026-04-21T20:13:35.004Z</time></trkpt><trkpt lat="40.27426031158504" lon="18.126010712189803"><ele>44.0</ele><time>2026-04-21T20:13:36.004Z</time></trkpt><trkpt lat="40.27401838034205" lon="18.12590063729384"><ele>43.5</ele><time>2026-04-21T20:13:37.004Z</time></trkpt><trkpt lat="40.27378363634118" lon="18.125791298436152"><ele>43.0</ele><time>2026-04-21T20:13:38.004Z</time></trkpt><trkpt lat="40.27354384412869" lon="18.125688566129273"><ele>43.0</ele><time>2026-04-21T20:13:39.004Z</time></trkpt><trkpt lat="40.27330485354775" lon="18.12558459217309"><ele>43.0</ele><time>2026-04-21T20:13:40.004Z</time></trkpt><trkpt lat="40.27306451169639" lon="18.1254780177829"><ele>44.0</ele><time>2026-04-21T20:13:41.004Z</time></trkpt><trkpt lat="40.2728249758604" lon="18.125368102414747"><ele>45.0</ele><time>2026-04-21T20:13:42.004Z</time></trkpt><trkpt lat="40.272585541763476" lon="18.125263371252416"><ele>45.0</ele><time>2026-04-21T20:13:43.004Z</time></trkpt><trkpt lat="40.27234746464838" lon="18.12516028999646"><ele>45.0</ele><time>2026-04-21T20:13:44.004Z</time></trkpt><trkpt lat="40.27210717048788" lon="18.12505145788867"><ele>44.0</ele><time>2026-04-21T20:13:45.004Z</time></trkpt><trkpt lat="40.27186574972327" lon="18.12494239532548"><ele>43.0</ele><time>2026-04-21T20:13:46.004Z</time></trkpt><trkpt lat="40.27162456850573" lon="18.124835954580877"><ele>42.5</ele><time>2026-04-21T20:13:47.004Z</time></trkpt><trkpt lat="40.27138367299155" lon="18.124733148231563"><ele>42.0</ele><time>2026-04-21T20:13:48.004Z</time></trkpt><trkpt lat="40.271145044184344" lon="18.124623884077145"><ele>42.0</ele><time>2026-04-21T20:13:49.004Z</time></trkpt><trkpt lat="40.27090889693946" lon="18.124514984361856"><ele>42.0</ele><time>2026-04-21T20:13:50.004Z</time></trkpt><trkpt lat="40.27066644612498" lon="18.12440697681388"><ele>43.0</ele><time>2026-04-21T20:13:51.004Z</time></trkpt><trkpt lat="40.27042531160816" lon="18.12430077081252"><ele>44.0</ele><time>2026-04-21T20:13:52.004Z</time></trkpt><trkpt lat="40.27018759252029" lon="18.124195002532538"><ele>44.0</ele><time>2026-04-21T20:13:53.004Z</time></trkpt><trkpt lat="40.2699472353475" lon="18.124092734381207"><ele>44.0</ele><time>2026-04-21T20:13:54.004Z</time></trkpt><trkpt lat="40.269709590238115" lon="18.12398531414907"><ele>44.5</ele><time>2026-04-21T20:13:55.004Z</time></trkpt><trkpt lat="40.26947159082359" lon="18.123877623469298"><ele>45.0</ele><time>2026-04-21T20:13:56.004Z</time></trkpt><trkpt lat="40.26922853669641" lon="18.123771862055577"><ele>45.0</ele><time>2026-04-21T20:13:57.004Z</time></trkpt><trkpt lat="40.26898758742717" lon="18.12366351001473"><ele>45.0</ele><time>2026-04-21T20:13:58.004Z</time></trkpt><trkpt lat="40.268749518263235" lon="18.12355291107968"><ele>44.5</ele><time>2026-04-21T20:13:59.004Z</time></trkpt><trkpt lat="40.2685118496351" lon="18.12344587234782"><ele>44.0</ele><time>2026-04-21T20:14:00.004Z</time></trkpt><trkpt lat="40.268277865826896" lon="18.12334090779903"><ele>43.5</ele><time>2026-04-21T20:14:01.004Z</time></trkpt><trkpt lat="40.26805106757392" lon="18.123235216061495"><ele>43.0</ele><time>2026-04-21T20:14:02.004Z</time></trkpt><trkpt lat="40.26782765221544" lon="18.123134759968686"><ele>43.0</ele><time>2026-04-21T20:14:03.004Z</time></trkpt><trkpt lat="40.26760079244932" lon="18.12303514255928"><ele>43.0</ele><time>2026-04-21T20:14:04.004Z</time></trkpt><trkpt lat="40.26736694429999" lon="18.12293611410325"><ele>44.0</ele><time>2026-04-21T20:14:05.004Z</time></trkpt><trkpt lat="40.2671406118475" lon="18.122833783838225"><ele>45.0</ele><time>2026-04-21T20:14:06.004Z</time></trkpt><trkpt lat="40.26691157118782" lon="18.122731619607382"><ele>45.0</ele><time>2026-04-21T20:14:07.004Z</time></trkpt><trkpt lat="40.266683464964764" lon="18.122629494339026"><ele>45.0</ele><time>2026-04-21T20:14:08.004Z</time></trkpt><trkpt lat="40.266455472955805" lon="18.122527411788884"><ele>46.0</ele><time>2026-04-21T20:14:09.004Z</time></trkpt><trkpt lat="40.266224817794445" lon="18.122424145269928"><ele>47.0</ele><time>2026-04-21T20:14:10.004Z</time></trkpt><trkpt lat="40.26599569235885" lon="18.122324433749196"><ele>47.5</ele><time>2026-04-21T20:14:11.004Z</time></trkpt><trkpt lat="40.26576779026222" lon="18.12222603487827"><ele>48.0</ele><time>2026-04-21T20:14:12.004Z</time></trkpt><trkpt lat="40.26553812605959" lon="18.122122540068037"><ele>46.0</ele><time>2026-04-21T20:14:13.004Z</time></trkpt><trkpt lat="40.265307825537796" lon="18.122020938861514"><ele>44.0</ele><time>2026-04-21T20:14:14.004Z</time></trkpt><trkpt lat="40.26507839191812" lon="18.121922378169835"><ele>44.0</ele><time>2026-04-21T20:14:15.004Z</time></trkpt><trkpt lat="40.264848232004255" lon="18.121822499445386"><ele>44.0</ele><time>2026-04-21T20:14:16.004Z</time></trkpt><trkpt lat="40.264621866460594" lon="18.121719211298203"><ele>45.0</ele><time>2026-04-21T20:14:17.004Z</time></trkpt><trkpt lat="40.26439348663418" lon="18.121618219392104"><ele>46.0</ele><time>2026-04-21T20:14:18.004Z</time></trkpt><trkpt lat="40.26416448603163" lon="18.12151824405902"><ele>46.5</ele><time>2026-04-21T20:14:19.004Z</time></trkpt><trkpt lat="40.26393607705918" lon="18.121413903791385"><ele>47.0</ele><time>2026-04-21T20:14:20.004Z</time></trkpt><trkpt lat="40.263707953247994" lon="18.121312878107666"><ele>47.0</ele><time>2026-04-21T20:14:21.004Z</time></trkpt><trkpt lat="40.263480083492624" lon="18.121209054988594"><ele>47.0</ele><time>2026-04-21T20:14:22.004Z</time></trkpt><trkpt lat="40.263250478665" lon="18.12110996759402"><ele>47.0</ele><time>2026-04-21T20:14:23.004Z</time></trkpt><trkpt lat="40.26302249003074" lon="18.12101049374557"><ele>47.0</ele><time>2026-04-21T20:14:24.004Z</time></trkpt><trkpt lat="40.262793295395" lon="18.12090603519602"><ele>47.0</ele><time>2026-04-21T20:14:25.004Z</time></trkpt><trkpt lat="40.262567131325945" lon="18.120798727125553"><ele>47.0</ele><time>2026-04-21T20:14:26.004Z</time></trkpt><trkpt lat="40.26233734629919" lon="18.120697246312062"><ele>46.5</ele><time>2026-04-21T20:14:27.004Z</time></trkpt><trkpt lat="40.26211013698293" lon="18.120599855382995"><ele>46.0</ele><time>2026-04-21T20:14:28.004Z</time></trkpt><trkpt lat="40.26188268041901" lon="18.12049883054816"><ele>46.0</ele><time>2026-04-21T20:14:29.004Z</time></trkpt><trkpt lat="40.26165253162829" lon="18.12039781770609"><ele>46.0</ele><time>2026-04-21T20:14:30.004Z</time></trkpt><trkpt lat="40.26142231054909" lon="18.12029718389615"><ele>46.0</ele><time>2026-04-21T20:14:31.004Z</time></trkpt><trkpt lat="40.26119450731033" lon="18.120196902103935"><ele>46.0</ele><time>2026-04-21T20:14:32.004Z</time></trkpt><trkpt lat="40.26096526710697" lon="18.120094591481358"><ele>46.0</ele><time>2026-04-21T20:14:33.004Z</time></trkpt><trkpt lat="40.260738078227206" lon="18.119988500911717"><ele>46.0</ele><time>2026-04-21T20:14:34.004Z</time></trkpt><trkpt lat="40.260510204751334" lon="18.119883933061622"><ele>46.5</ele><time>2026-04-21T20:14:35.004Z</time></trkpt><trkpt lat="40.260281814198486" lon="18.11978337965761"><ele>47.0</ele><time>2026-04-21T20:14:36.004Z</time></trkpt><trkpt lat="40.26005180908958" lon="18.119684740311204"><ele>47.0</ele><time>2026-04-21T20:14:37.004Z</time></trkpt><trkpt lat="40.25982342975398" lon="18.119582308414557"><ele>47.0</ele><time>2026-04-21T20:14:38.004Z</time></trkpt><trkpt lat="40.259593660789044" lon="18.11948460158278"><ele>47.0</ele><time>2026-04-21T20:14:39.004Z</time></trkpt><trkpt lat="40.25936456541067" lon="18.11938062601446"><ele>47.0</ele><time>2026-04-21T20:14:40.004Z</time></trkpt><trkpt lat="40.259132240210434" lon="18.11927841588783"><ele>47.0</ele><time>2026-04-21T20:14:41.004Z</time></trkpt><trkpt lat="40.25890378080761" lon="18.119177643698176"><ele>47.0</ele><time>2026-04-21T20:14:42.004Z</time></trkpt><trkpt lat="40.25867782567756" lon="18.119075953457568"><ele>47.5</ele><time>2026-04-21T20:14:43.004Z</time></trkpt><trkpt lat="40.258445505236004" lon="18.118974161237556"><ele>48.0</ele><time>2026-04-21T20:14:44.004Z</time></trkpt><trkpt lat="40.2582202966992" lon="18.11887009179449"><ele>48.0</ele><time>2026-04-21T20:14:45.004Z</time></trkpt><trkpt lat="40.25799290599107" lon="18.118772692177924"><ele>48.0</ele><time>2026-04-21T20:14:46.004Z</time></trkpt><trkpt lat="40.25776444699107" lon="18.11867198982992"><ele>48.0</ele><time>2026-04-21T20:14:47.004Z</time></trkpt><trkpt lat="40.257533928748146" lon="18.118573665677264"><ele>48.0</ele><time>2026-04-21T20:14:48.004Z</time></trkpt><trkpt lat="40.25730691598203" lon="18.118470237144063"><ele>46.5</ele><time>2026-04-21T20:14:49.004Z</time></trkpt><trkpt lat="40.25707833286303" lon="18.118363290120598"><ele>45.0</ele><time>2026-04-21T20:14:50.004Z</time></trkpt><trkpt lat="40.25684908018508" lon="18.118261855542926"><ele>45.0</ele><time>2026-04-21T20:14:51.004Z</time></trkpt><trkpt lat="40.25662114013066" lon="18.118157769806526"><ele>45.0</ele><time>2026-04-21T20:14:52.004Z</time></trkpt><trkpt lat="40.25639201300682" lon="18.11805660914791"><ele>44.5</ele><time>2026-04-21T20:14:53.004Z</time></trkpt><trkpt lat="40.25616393144143" lon="18.11795229403892"><ele>44.0</ele><time>2026-04-21T20:14:54.004Z</time></trkpt><trkpt lat="40.255932359337514" lon="18.11785433088836"><ele>44.0</ele><time>2026-04-21T20:14:55.004Z</time></trkpt><trkpt lat="40.255703117704726" lon="18.11775742916337"><ele>44.0</ele><time>2026-04-21T20:14:56.004Z</time></trkpt><trkpt lat="40.25547649726742" lon="18.117657671333543"><ele>44.5</ele><time>2026-04-21T20:14:57.003Z</time></trkpt><trkpt lat="40.255247218084406" lon="18.11755272272057"><ele>45.0</ele><time>2026-04-21T20:14:58.003Z</time></trkpt><trkpt lat="40.255016739592165" lon="18.117448442384536"><ele>45.0</ele><time>2026-04-21T20:14:59.003Z</time></trkpt><trkpt lat="40.2547874342715" lon="18.117344163307486"><ele>45.0</ele><time>2026-04-21T20:15:00.003Z</time></trkpt><trkpt lat="40.254560386420245" lon="18.11724315040098"><ele>45.0</ele><time>2026-04-21T20:15:01.003Z</time></trkpt><trkpt lat="40.25433366007152" lon="18.117142378714526"><ele>45.0</ele><time>2026-04-21T20:15:02.003Z</time></trkpt><trkpt lat="40.25410688835203" lon="18.117038999592406"><ele>44.5</ele><time>2026-04-21T20:15:03.003Z</time></trkpt><trkpt lat="40.25387822540903" lon="18.116935264970746"><ele>44.0</ele><time>2026-04-21T20:15:04.003Z</time></trkpt><trkpt lat="40.25364781163147" lon="18.11683737519954"><ele>44.0</ele><time>2026-04-21T20:15:05.003Z</time></trkpt><trkpt lat="40.2534202953406" lon="18.116739267134808"><ele>44.0</ele><time>2026-04-21T20:15:06.003Z</time></trkpt><trkpt lat="40.25319067178362" lon="18.11663822638688"><ele>45.0</ele><time>2026-04-21T20:15:07.003Z</time></trkpt><trkpt lat="40.252962437766136" lon="18.116538417914565"><ele>46.0</ele><time>2026-04-21T20:15:08.003Z</time></trkpt><trkpt lat="40.25273510253332" lon="18.11643728426385"><ele>46.0</ele><time>2026-04-21T20:15:09.003Z</time></trkpt><trkpt lat="40.25250503064556" lon="18.116335489520804"><ele>46.0</ele><time>2026-04-21T20:15:10.003Z</time></trkpt><trkpt lat="40.252274904463675" lon="18.116231984477192"><ele>45.5</ele><time>2026-04-21T20:15:11.003Z</time></trkpt><trkpt lat="40.25204733017728" lon="18.11612986368399"><ele>45.0</ele><time>2026-04-21T20:15:12.003Z</time></trkpt><trkpt lat="40.25181989778591" lon="18.11603057242578"><ele>45.0</ele><time>2026-04-21T20:15:13.003Z</time></trkpt><trkpt lat="40.25159277045523" lon="18.115929882342268"><ele>45.0</ele><time>2026-04-21T20:15:14.003Z</time></trkpt><trkpt lat="40.25136614366566" lon="18.115823629548686"><ele>45.5</ele><time>2026-04-21T20:15:15.003Z</time></trkpt><trkpt lat="40.25113828952777" lon="18.115718085479465"><ele>46.0</ele><time>2026-04-21T20:15:16.003Z</time></trkpt><trkpt lat="40.250908830397144" lon="18.11561516978065"><ele>46.0</ele><time>2026-04-21T20:15:17.003Z</time></trkpt><trkpt lat="40.250679614711764" lon="18.11551478069011"><ele>46.0</ele><time>2026-04-21T20:15:18.003Z</time></trkpt><trkpt lat="40.25045272544022" lon="18.115414308722084"><ele>47.0</ele><time>2026-04-21T20:15:19.003Z</time></trkpt><trkpt lat="40.25022566207855" lon="18.115311741221046"><ele>48.0</ele><time>2026-04-21T20:15:20.003Z</time></trkpt><trkpt lat="40.24999545140571" lon="18.11520668881045"><ele>48.0</ele><time>2026-04-21T20:15:21.003Z</time></trkpt><trkpt lat="40.24976354269789" lon="18.11510321436921"><ele>48.0</ele><time>2026-04-21T20:15:22.004Z</time></trkpt><trkpt lat="40.24954005463488" lon="18.115000361830237"><ele>48.5</ele><time>2026-04-21T20:15:23.004Z</time></trkpt><trkpt lat="40.24931334694566" lon="18.114896228417898"><ele>49.0</ele><time>2026-04-21T20:15:24.004Z</time></trkpt><trkpt lat="40.249086937587116" lon="18.11479254361371"><ele>51.0</ele><time>2026-04-21T20:15:25.004Z</time></trkpt><trkpt lat="40.24886207780389" lon="18.114690320733782"><ele>53.0</ele><time>2026-04-21T20:15:26.004Z</time></trkpt><trkpt lat="40.2486372837842" lon="18.114588699764766"><ele>53.0</ele><time>2026-04-21T20:15:27.004Z</time></trkpt><trkpt lat="40.24841160735705" lon="18.1144900736753"><ele>53.0</ele><time>2026-04-21T20:15:28.003Z</time></trkpt><trkpt lat="40.248180622868716" lon="18.1143911626993"><ele>54.0</ele><time>2026-04-21T20:15:29.003Z</time></trkpt><trkpt lat="40.247948491019024" lon="18.11428942174795"><ele>55.0</ele><time>2026-04-21T20:15:30.003Z</time></trkpt><trkpt lat="40.24771718981647" lon="18.114191334079262"><ele>55.0</ele><time>2026-04-21T20:15:31.004Z</time></trkpt><trkpt lat="40.24749015204349" lon="18.114091802102163"><ele>55.0</ele><time>2026-04-21T20:15:32.003Z</time></trkpt><trkpt lat="40.24726158156518" lon="18.11398959301666"><ele>55.5</ele><time>2026-04-21T20:15:33.003Z</time></trkpt><trkpt lat="40.24703349852429" lon="18.113887241401773"><ele>56.0</ele><time>2026-04-21T20:15:34.004Z</time></trkpt><trkpt lat="40.246804851214726" lon="18.113784385315252"><ele>56.0</ele><time>2026-04-21T20:15:35.003Z</time></trkpt><trkpt lat="40.24657604075339" lon="18.113679517632818"><ele>56.0</ele><time>2026-04-21T20:15:36.003Z</time></trkpt><trkpt lat="40.24634342330327" lon="18.11357592340926"><ele>56.0</ele><time>2026-04-21T20:15:37.003Z</time></trkpt><trkpt lat="40.24611053274763" lon="18.113474488254077"><ele>56.0</ele><time>2026-04-21T20:15:38.003Z</time></trkpt><trkpt lat="40.24587956015635" lon="18.113371113530643"><ele>56.0</ele><time>2026-04-21T20:15:39.003Z</time></trkpt><trkpt lat="40.24564894958977" lon="18.113270232777506"><ele>56.0</ele><time>2026-04-21T20:15:40.003Z</time></trkpt><trkpt lat="40.24541445247988" lon="18.113168689568486"><ele>57.0</ele><time>2026-04-21T20:15:41.003Z</time></trkpt><trkpt lat="40.245182166886444" lon="18.113069487429822"><ele>58.0</ele><time>2026-04-21T20:15:42.003Z</time></trkpt><trkpt lat="40.24495267550826" lon="18.112970441264"><ele>57.5</ele><time>2026-04-21T20:15:43.003Z</time></trkpt><trkpt lat="40.24472341807731" lon="18.11286948166908"><ele>57.0</ele><time>2026-04-21T20:15:44.003Z</time></trkpt><trkpt lat="40.24449222017736" lon="18.112766913355344"><ele>57.0</ele><time>2026-04-21T20:15:45.003Z</time></trkpt><trkpt lat="40.244262601814675" lon="18.112664310270546"><ele>57.0</ele><time>2026-04-21T20:15:46.003Z</time></trkpt><trkpt lat="40.24403364076609" lon="18.11256339123179"><ele>57.0</ele><time>2026-04-21T20:15:47.003Z</time></trkpt><trkpt lat="40.24380680621531" lon="18.112458945372346"><ele>57.0</ele><time>2026-04-21T20:15:48.003Z</time></trkpt><trkpt lat="40.24358185292842" lon="18.112354833323128"><ele>57.0</ele><time>2026-04-21T20:15:49.003Z</time></trkpt><trkpt lat="40.24335644655236" lon="18.11225280389076"><ele>57.0</ele><time>2026-04-21T20:15:50.003Z</time></trkpt><trkpt lat="40.24313140639113" lon="18.112152338361323"><ele>56.5</ele><time>2026-04-21T20:15:51.003Z</time></trkpt><trkpt lat="40.24290736031335" lon="18.112050225411743"><ele>56.0</ele><time>2026-04-21T20:15:52.003Z</time></trkpt><trkpt lat="40.24268264717838" lon="18.111949965315073"><ele>56.0</ele><time>2026-04-21T20:15:53.003Z</time></trkpt><trkpt lat="40.24245685053233" lon="18.111848459919443"><ele>56.0</ele><time>2026-04-21T20:15:54.003Z</time></trkpt><trkpt lat="40.24222802441264" lon="18.111746902068436"><ele>56.0</ele><time>2026-04-21T20:15:55.003Z</time></trkpt><trkpt lat="40.24199966989154" lon="18.11164498539741"><ele>56.0</ele><time>2026-04-21T20:15:56.003Z</time></trkpt><trkpt lat="40.24176890697363" lon="18.111543729021168"><ele>57.0</ele><time>2026-04-21T20:15:57.003Z</time></trkpt><trkpt lat="40.241540402812284" lon="18.111444903250277"><ele>58.0</ele><time>2026-04-21T20:15:58.003Z</time></trkpt><trkpt lat="40.24131180213174" lon="18.111345432560594"><ele>58.0</ele><time>2026-04-21T20:15:59.003Z</time></trkpt><trkpt lat="40.24108337484483" lon="18.111243954596542"><ele>58.0</ele><time>2026-04-21T20:16:00.003Z</time></trkpt><trkpt lat="40.240856479105204" lon="18.11114086301609"><ele>56.5</ele><time>2026-04-21T20:16:01.003Z</time></trkpt><trkpt lat="40.240630249238706" lon="18.11103755493703"><ele>55.0</ele><time>2026-04-21T20:16:02.003Z</time></trkpt><trkpt lat="40.24040348725293" lon="18.11093498663249"><ele>55.0</ele><time>2026-04-21T20:16:03.003Z</time></trkpt><trkpt lat="40.24017367141316" lon="18.110833159765736"><ele>55.0</ele><time>2026-04-21T20:16:04.003Z</time></trkpt><trkpt lat="40.23994472189936" lon="18.110729913681485"><ele>54.5</ele><time>2026-04-21T20:16:05.003Z</time></trkpt><trkpt lat="40.23971347607266" lon="18.11062900022685"><ele>54.0</ele><time>2026-04-21T20:16:06.003Z</time></trkpt><trkpt lat="40.23948073490829" lon="18.110528380313312"><ele>54.0</ele><time>2026-04-21T20:16:07.003Z</time></trkpt><trkpt lat="40.23925070617356" lon="18.1104251661972"><ele>54.0</ele><time>2026-04-21T20:16:08.003Z</time></trkpt><trkpt lat="40.23901902334121" lon="18.110322795761412"><ele>54.0</ele><time>2026-04-21T20:16:09.003Z</time></trkpt><trkpt lat="40.23879068928719" lon="18.110223585432706"><ele>54.0</ele><time>2026-04-21T20:16:10.003Z</time></trkpt><trkpt lat="40.238561411907774" lon="18.110125097480417"><ele>54.0</ele><time>2026-04-21T20:16:11.003Z</time></trkpt><trkpt lat="40.238334859821116" lon="18.110028695227964"><ele>54.0</ele><time>2026-04-21T20:16:12.003Z</time></trkpt><trkpt lat="40.238110235552874" lon="18.10992691965543"><ele>53.5</ele><time>2026-04-21T20:16:13.003Z</time></trkpt><trkpt lat="40.23788701284948" lon="18.109820705918867"><ele>53.0</ele><time>2026-04-21T20:16:14.003Z</time></trkpt><trkpt lat="40.23765987966282" lon="18.10971615830365"><ele>53.0</ele><time>2026-04-21T20:16:15.003Z</time></trkpt><trkpt lat="40.237429402696385" lon="18.109611502721304"><ele>53.0</ele><time>2026-04-21T20:16:16.003Z</time></trkpt><trkpt lat="40.23719887913104" lon="18.10950593708632"><ele>52.5</ele><time>2026-04-21T20:16:17.003Z</time></trkpt><trkpt lat="40.236968290612666" lon="18.109400249085603"><ele>52.0</ele><time>2026-04-21T20:16:18.003Z</time></trkpt><trkpt lat="40.23673365043388" lon="18.10929667828494"><ele>52.0</ele><time>2026-04-21T20:16:19.003Z</time></trkpt><trkpt lat="40.23649832162719" lon="18.109194412432366"><ele>52.0</ele><time>2026-04-21T20:16:20.003Z</time></trkpt><trkpt lat="40.23626705779324" lon="18.109089103897386"><ele>52.0</ele><time>2026-04-21T20:16:21.003Z</time></trkpt><trkpt lat="40.236037487556224" lon="18.108986157733806"><ele>52.0</ele><time>2026-04-21T20:16:22.003Z</time></trkpt><trkpt lat="40.235805647574885" lon="18.108888316685523"><ele>52.5</ele><time>2026-04-21T20:16:23.003Z</time></trkpt><trkpt lat="40.23557890372429" lon="18.10879211550337"><ele>53.0</ele><time>2026-04-21T20:16:24.003Z</time></trkpt><trkpt lat="40.23535076276456" lon="18.108695653524467"><ele>53.0</ele><time>2026-04-21T20:16:25.003Z</time></trkpt><trkpt lat="40.235125101643135" lon="18.10859737034117"><ele>53.0</ele><time>2026-04-21T20:16:26.003Z</time></trkpt><trkpt lat="40.234899417480946" lon="18.10849709500244"><ele>52.0</ele><time>2026-04-21T20:16:27.003Z</time></trkpt><trkpt lat="40.234674542446726" lon="18.108393348627217"><ele>51.0</ele><time>2026-04-21T20:16:28.003Z</time></trkpt><trkpt lat="40.23444470286277" lon="18.108289657394025"><ele>51.0</ele><time>2026-04-21T20:16:29.003Z</time></trkpt><trkpt lat="40.23421599704648" lon="18.108185457956242"><ele>51.0</ele><time>2026-04-21T20:16:30.003Z</time></trkpt><trkpt lat="40.23398597787825" lon="18.108078512430478"><ele>50.0</ele><time>2026-04-21T20:16:31.003Z</time></trkpt><trkpt lat="40.233752521718536" lon="18.107971103097718"><ele>49.0</ele><time>2026-04-21T20:16:32.003Z</time></trkpt><trkpt lat="40.23352202519172" lon="18.1078688305119"><ele>49.0</ele><time>2026-04-21T20:16:33.003Z</time></trkpt><trkpt lat="40.23329018578103" lon="18.107770689132227"><ele>49.0</ele><time>2026-04-21T20:16:34.003Z</time></trkpt><trkpt lat="40.233061411017154" lon="18.107674965408705"><ele>49.5</ele><time>2026-04-21T20:16:35.003Z</time></trkpt><trkpt lat="40.232830917696106" lon="18.10757560969096"><ele>50.0</ele><time>2026-04-21T20:16:36.003Z</time></trkpt><trkpt lat="40.23260454866553" lon="18.107475528502814"><ele>50.0</ele><time>2026-04-21T20:16:37.003Z</time></trkpt><trkpt lat="40.23237837945225" lon="18.107374258101146"><ele>50.0</ele><time>2026-04-21T20:16:38.003Z</time></trkpt><trkpt lat="40.232153395086115" lon="18.107273507859286"><ele>50.0</ele><time>2026-04-21T20:16:39.003Z</time></trkpt><trkpt lat="40.231928537365036" lon="18.107172541714846"><ele>50.0</ele><time>2026-04-21T20:16:40.003Z</time></trkpt><trkpt lat="40.23170137004633" lon="18.107072617612634"><ele>50.0</ele><time>2026-04-21T20:16:41.003Z</time></trkpt><trkpt lat="40.23147047445966" lon="18.106973383571432"><ele>50.0</ele><time>2026-04-21T20:16:42.003Z</time></trkpt><trkpt lat="40.23124259215344" lon="18.10687291952796"><ele>50.0</ele><time>2026-04-21T20:16:43.003Z</time></trkpt><trkpt lat="40.23101140683471" lon="18.106769113851662"><ele>50.0</ele><time>2026-04-21T20:16:44.003Z</time></trkpt><trkpt lat="40.230782861194314" lon="18.10666499526158"><ele>48.0</ele><time>2026-04-21T20:16:45.003Z</time></trkpt><trkpt lat="40.230552741156984" lon="18.106560986880787"><ele>46.0</ele><time>2026-04-21T20:16:46.003Z</time></trkpt><trkpt lat="40.23032609063231" lon="18.106456455418932"><ele>46.0</ele><time>2026-04-21T20:16:47.003Z</time></trkpt><trkpt lat="40.23009905067225" lon="18.106350113909343"><ele>46.0</ele><time>2026-04-21T20:16:48.003Z</time></trkpt><trkpt lat="40.22987192008869" lon="18.10624628817218"><ele>45.5</ele><time>2026-04-21T20:16:49.003Z</time></trkpt><trkpt lat="40.22964316644688" lon="18.106143385392546"><ele>45.0</ele><time>2026-04-21T20:16:50.003Z</time></trkpt><trkpt lat="40.22941061676769" lon="18.106040650790465"><ele>45.0</ele><time>2026-04-21T20:16:51.003Z</time></trkpt><trkpt lat="40.229183707602225" lon="18.105939047478874"><ele>45.0</ele><time>2026-04-21T20:16:52.003Z</time></trkpt><trkpt lat="40.22895660465811" lon="18.105834606453005"><ele>44.5</ele><time>2026-04-21T20:16:53.003Z</time></trkpt><trkpt lat="40.22872961627896" lon="18.10573312977534"><ele>44.0</ele><time>2026-04-21T20:16:54.003Z</time></trkpt><trkpt lat="40.22850206301171" lon="18.105631019004385"><ele>44.0</ele><time>2026-04-21T20:16:55.003Z</time></trkpt><trkpt lat="40.22827394479057" lon="18.10552746607578"><ele>44.0</ele><time>2026-04-21T20:16:56.003Z</time></trkpt><trkpt lat="40.22804732732752" lon="18.10542636176327"><ele>46.0</ele><time>2026-04-21T20:16:57.003Z</time></trkpt><trkpt lat="40.227818413593646" lon="18.105323648991938"><ele>48.0</ele><time>2026-04-21T20:16:58.003Z</time></trkpt><trkpt lat="40.22758825180428" lon="18.105217898427785"><ele>48.0</ele><time>2026-04-21T20:16:59.003Z</time></trkpt><trkpt lat="40.22735949400504" lon="18.105110519314483"><ele>48.0</ele><time>2026-04-21T20:17:00.003Z</time></trkpt><trkpt lat="40.22712811124759" lon="18.10500702363498"><ele>47.5</ele><time>2026-04-21T20:17:01.003Z</time></trkpt><trkpt lat="40.22689870724703" lon="18.10490210473181"><ele>47.0</ele><time>2026-04-21T20:17:02.003Z</time></trkpt><trkpt lat="40.22666852146958" lon="18.104796594854395"><ele>46.5</ele><time>2026-04-21T20:17:03.003Z</time></trkpt><trkpt lat="40.22644092180756" lon="18.104694955904826"><ele>46.0</ele><time>2026-04-21T20:17:04.003Z</time></trkpt><trkpt lat="40.22621397136605" lon="18.104594612543206"><ele>46.0</ele><time>2026-04-21T20:17:05.003Z</time></trkpt><trkpt lat="40.22598691999574" lon="18.10449602690818"><ele>46.0</ele><time>2026-04-21T20:17:06.003Z</time></trkpt><trkpt lat="40.225759313232366" lon="18.104394252589877"><ele>46.0</ele><time>2026-04-21T20:17:07.003Z</time></trkpt><trkpt lat="40.22553140100263" lon="18.10429043447525"><ele>46.0</ele><time>2026-04-21T20:17:08.003Z</time></trkpt><trkpt lat="40.225303131101235" lon="18.104178450282703"><ele>46.0</ele><time>2026-04-21T20:17:09.003Z</time></trkpt><trkpt lat="40.22507548357787" lon="18.104075444120753"><ele>46.0</ele><time>2026-04-21T20:17:10.003Z</time></trkpt><trkpt lat="40.22484539870061" lon="18.103974286144677"><ele>45.5</ele><time>2026-04-21T20:17:11.003Z</time></trkpt><trkpt lat="40.22461746365081" lon="18.10387585301135"><ele>45.0</ele><time>2026-04-21T20:17:12.003Z</time></trkpt><trkpt lat="40.224390016612126" lon="18.103774636308106"><ele>45.0</ele><time>2026-04-21T20:17:13.003Z</time></trkpt><trkpt lat="40.22416006097387" lon="18.10367210363913"><ele>45.0</ele><time>2026-04-21T20:17:14.002Z</time></trkpt><trkpt lat="40.223932478100714" lon="18.103570194028354"><ele>45.5</ele><time>2026-04-21T20:17:15.002Z</time></trkpt><trkpt lat="40.2237023017452" lon="18.10346962764977"><ele>46.0</ele><time>2026-04-21T20:17:16.002Z</time></trkpt><trkpt lat="40.22347364784241" lon="18.10336825829036"><ele>46.0</ele><time>2026-04-21T20:17:17.002Z</time></trkpt><trkpt lat="40.22324620361415" lon="18.10326362557715"><ele>46.0</ele><time>2026-04-21T20:17:18.002Z</time></trkpt><trkpt lat="40.22301878057191" lon="18.103160562556702"><ele>44.5</ele><time>2026-04-21T20:17:19.002Z</time></trkpt><trkpt lat="40.2227939735667" lon="18.10305587086884"><ele>43.0</ele><time>2026-04-21T20:17:20.002Z</time></trkpt><trkpt lat="40.222566459974644" lon="18.10295687560024"><ele>43.0</ele><time>2026-04-21T20:17:21.002Z</time></trkpt><trkpt lat="40.222336549221644" lon="18.10285563689467"><ele>43.0</ele><time>2026-04-21T20:17:22.002Z</time></trkpt><trkpt lat="40.22210610409976" lon="18.102759455964826"><ele>43.5</ele><time>2026-04-21T20:17:23.002Z</time></trkpt><trkpt lat="40.22188057024886" lon="18.102652762408393"><ele>44.0</ele><time>2026-04-21T20:17:24.002Z</time></trkpt><trkpt lat="40.22165353541919" lon="18.102549060494205"><ele>44.0</ele><time>2026-04-21T20:17:25.002Z</time></trkpt><trkpt lat="40.22142565916064" lon="18.102447043619332"><ele>44.0</ele><time>2026-04-21T20:17:26.002Z</time></trkpt><trkpt lat="40.22119644153859" lon="18.10234279781012"><ele>43.5</ele><time>2026-04-21T20:17:27.002Z</time></trkpt><trkpt lat="40.22096896292776" lon="18.102238305397123"><ele>43.0</ele><time>2026-04-21T20:17:28.004Z</time></trkpt><trkpt lat="40.220740233441745" lon="18.10213328503272"><ele>43.5</ele><time>2026-04-21T20:17:29.004Z</time></trkpt><trkpt lat="40.22051060410362" lon="18.102029795438842"><ele>44.0</ele><time>2026-04-21T20:17:30.004Z</time></trkpt><trkpt lat="40.220279852851384" lon="18.101925809663296"><ele>44.0</ele><time>2026-04-21T20:17:31.004Z</time></trkpt><trkpt lat="40.22005335363037" lon="18.101821266398506"><ele>44.0</ele><time>2026-04-21T20:17:32.004Z</time></trkpt><trkpt lat="40.21982669342221" lon="18.10171750941123"><ele>43.5</ele><time>2026-04-21T20:17:33.004Z</time></trkpt><trkpt lat="40.219598182556695" lon="18.10161125451796"><ele>43.0</ele><time>2026-04-21T20:17:34.004Z</time></trkpt><trkpt lat="40.21936969727506" lon="18.101507933312597"><ele>44.0</ele><time>2026-04-21T20:17:35.003Z</time></trkpt><trkpt lat="40.219143090545685" lon="18.101404302730373"><ele>45.0</ele><time>2026-04-21T20:17:36.003Z</time></trkpt><trkpt lat="40.2189157608549" lon="18.10130346760872"><ele>45.0</ele><time>2026-04-21T20:17:37.004Z</time></trkpt><trkpt lat="40.218688591867156" lon="18.101202764416463"><ele>45.0</ele><time>2026-04-21T20:17:38.004Z</time></trkpt><trkpt lat="40.21845881704193" lon="18.10109868204342"><ele>45.0</ele><time>2026-04-21T20:17:39.004Z</time></trkpt><trkpt lat="40.218232265065616" lon="18.100994533867148"><ele>45.0</ele><time>2026-04-21T20:17:40.004Z</time></trkpt><trkpt lat="40.21800642443318" lon="18.100888927774204"><ele>44.5</ele><time>2026-04-21T20:17:41.004Z</time></trkpt><trkpt lat="40.21778086117409" lon="18.10078186358534"><ele>44.0</ele><time>2026-04-21T20:17:42.004Z</time></trkpt><trkpt lat="40.21755204671414" lon="18.100679398045123"><ele>43.5</ele><time>2026-04-21T20:17:43.004Z</time></trkpt><trkpt lat="40.217320907355784" lon="18.100575099830266"><ele>43.0</ele><time>2026-04-21T20:17:44.004Z</time></trkpt><trkpt lat="40.217094556794024" lon="18.10047110284243"><ele>43.0</ele><time>2026-04-21T20:17:45.004Z</time></trkpt><trkpt lat="40.21686439552487" lon="18.100365504518553"><ele>43.0</ele><time>2026-04-21T20:17:46.004Z</time></trkpt><trkpt lat="40.21663696807246" lon="18.10025730223722"><ele>43.5</ele><time>2026-04-21T20:17:47.004Z</time></trkpt><trkpt lat="40.21641074108399" lon="18.100149277745874"><ele>44.0</ele><time>2026-04-21T20:17:48.004Z</time></trkpt><trkpt lat="40.21618298779698" lon="18.100042541144777"><ele>44.0</ele><time>2026-04-21T20:17:49.004Z</time></trkpt><trkpt lat="40.21595444708346" lon="18.099940557812552"><ele>44.0</ele><time>2026-04-21T20:17:50.004Z</time></trkpt><trkpt lat="40.21572589101575" lon="18.09983904553835"><ele>43.5</ele><time>2026-04-21T20:17:51.003Z</time></trkpt><trkpt lat="40.21548995464091" lon="18.099734270080937"><ele>43.0</ele><time>2026-04-21T20:17:52.003Z</time></trkpt><trkpt lat="40.21525769731167" lon="18.09963343886894"><ele>43.0</ele><time>2026-04-21T20:17:53.003Z</time></trkpt><trkpt lat="40.21503093262562" lon="18.09952627844164"><ele>43.0</ele><time>2026-04-21T20:17:54.003Z</time></trkpt><trkpt lat="40.21480491965499" lon="18.099421133301785"><ele>43.0</ele><time>2026-04-21T20:17:55.003Z</time></trkpt><trkpt lat="40.21458155048489" lon="18.099317997323187"><ele>43.0</ele><time>2026-04-21T20:17:56.003Z</time></trkpt><trkpt lat="40.21435604532168" lon="18.099212981772656"><ele>43.0</ele><time>2026-04-21T20:17:57.003Z</time></trkpt><trkpt lat="40.214128511936536" lon="18.099112913544925"><ele>43.0</ele><time>2026-04-21T20:17:58.003Z</time></trkpt><trkpt lat="40.21390167294742" lon="18.09901130353923"><ele>43.5</ele><time>2026-04-21T20:17:59.003Z</time></trkpt><trkpt lat="40.21367177844503" lon="18.098910827828977"><ele>44.0</ele><time>2026-04-21T20:18:00.003Z</time></trkpt><trkpt lat="40.213443127412674" lon="18.098813956632288"><ele>44.0</ele><time>2026-04-21T20:18:01.003Z</time></trkpt><trkpt lat="40.213214045183925" lon="18.098714645648524"><ele>44.0</ele><time>2026-04-21T20:18:02.003Z</time></trkpt><trkpt lat="40.21298974690246" lon="18.098615957566363"><ele>45.0</ele><time>2026-04-21T20:18:03.003Z</time></trkpt><trkpt lat="40.21276274004556" lon="18.098512729902637"><ele>46.0</ele><time>2026-04-21T20:18:04.003Z</time></trkpt><trkpt lat="40.212536242444116" lon="18.09840721799478"><ele>46.0</ele><time>2026-04-21T20:18:05.003Z</time></trkpt><trkpt lat="40.21230775122571" lon="18.09830238480141"><ele>46.0</ele><time>2026-04-21T20:18:06.003Z</time></trkpt><trkpt lat="40.21207966188525" lon="18.09820073009299"><ele>46.0</ele><time>2026-04-21T20:18:07.003Z</time></trkpt><trkpt lat="40.211851818177735" lon="18.09809919209786"><ele>46.0</ele><time>2026-04-21T20:18:08.003Z</time></trkpt><trkpt lat="40.21162317662361" lon="18.09799665882073"><ele>45.5</ele><time>2026-04-21T20:18:09.003Z</time></trkpt><trkpt lat="40.21139420438379" lon="18.09789441271677"><ele>45.0</ele><time>2026-04-21T20:18:10.003Z</time></trkpt><trkpt lat="40.21116660265915" lon="18.097791723553087"><ele>45.0</ele><time>2026-04-21T20:18:11.003Z</time></trkpt><trkpt lat="40.21093746666206" lon="18.097690949033097"><ele>45.0</ele><time>2026-04-21T20:18:12.003Z</time></trkpt><trkpt lat="40.21070787247778" lon="18.097587686816226"><ele>45.5</ele><time>2026-04-21T20:18:13.003Z</time></trkpt><trkpt lat="40.2104775812587" lon="18.0974861694584"><ele>46.0</ele><time>2026-04-21T20:18:14.003Z</time></trkpt><trkpt lat="40.210248986737085" lon="18.097382207865824"><ele>48.0</ele><time>2026-04-21T20:18:15.003Z</time></trkpt><trkpt lat="40.210021919859244" lon="18.097278324688777"><ele>50.0</ele><time>2026-04-21T20:18:16.003Z</time></trkpt><trkpt lat="40.20979508396795" lon="18.097176033724033"><ele>51.5</ele><time>2026-04-21T20:18:17.003Z</time></trkpt><trkpt lat="40.20956833502493" lon="18.097072591746215"><ele>53.0</ele><time>2026-04-21T20:18:18.003Z</time></trkpt><trkpt lat="40.20934245945991" lon="18.096966266649257"><ele>53.0</ele><time>2026-04-21T20:18:19.003Z</time></trkpt><trkpt lat="40.20911503119242" lon="18.096863011557456"><ele>53.0</ele><time>2026-04-21T20:18:20.003Z</time></trkpt><trkpt lat="40.20888668196405" lon="18.096760106006972"><ele>54.0</ele><time>2026-04-21T20:18:21.003Z</time></trkpt><trkpt lat="40.208654703660564" lon="18.09665926123013"><ele>55.0</ele><time>2026-04-21T20:18:22.003Z</time></trkpt><trkpt lat="40.20842201451658" lon="18.09656325634464"><ele>56.0</ele><time>2026-04-21T20:18:23.003Z</time></trkpt><trkpt lat="40.20818589702572" lon="18.096472383114953"><ele>57.0</ele><time>2026-04-21T20:18:24.003Z</time></trkpt><trkpt lat="40.207948973511186" lon="18.09637857452848"><ele>58.0</ele><time>2026-04-21T20:18:25.003Z</time></trkpt><trkpt lat="40.2077111536612" lon="18.096279498138816"><ele>59.0</ele><time>2026-04-21T20:18:26.003Z</time></trkpt><trkpt lat="40.20747500720236" lon="18.096179305101323"><ele>59.5</ele><time>2026-04-21T20:18:27.003Z</time></trkpt><trkpt lat="40.207237586538604" lon="18.09607823436939"><ele>60.0</ele><time>2026-04-21T20:18:28.003Z</time></trkpt><trkpt lat="40.20699746998458" lon="18.095973823235067"><ele>60.0</ele><time>2026-04-21T20:18:29.003Z</time></trkpt><trkpt lat="40.20676902661062" lon="18.095871353261682"><ele>60.0</ele><time>2026-04-21T20:18:30.003Z</time></trkpt><trkpt lat="40.206548902892685" lon="18.095772584256228"><ele>59.5</ele><time>2026-04-21T20:18:31.003Z</time></trkpt><trkpt lat="40.206322556007585" lon="18.09567260370573"><ele>59.0</ele><time>2026-04-21T20:18:32.003Z</time></trkpt><trkpt lat="40.20610178391486" lon="18.09557296330387"><ele>59.0</ele><time>2026-04-21T20:18:33.003Z</time></trkpt><trkpt lat="40.205875802025" lon="18.09547200686197"><ele>59.0</ele><time>2026-04-21T20:18:34.003Z</time></trkpt><trkpt lat="40.20564648711065" lon="18.095368980853966"><ele>58.5</ele><time>2026-04-21T20:18:35.003Z</time></trkpt><trkpt lat="40.20542154686548" lon="18.09526560232251"><ele>58.0</ele><time>2026-04-21T20:18:36.003Z</time></trkpt><trkpt lat="40.2051964075932" lon="18.095159842411203"><ele>58.0</ele><time>2026-04-21T20:18:37.003Z</time></trkpt><trkpt lat="40.204971764016875" lon="18.09505504694883"><ele>58.0</ele><time>2026-04-21T20:18:38.003Z</time></trkpt><trkpt lat="40.204747958554634" lon="18.094952887536117"><ele>58.5</ele><time>2026-04-21T20:18:39.003Z</time></trkpt><trkpt lat="40.20452365850312" lon="18.094849142608386"><ele>59.0</ele><time>2026-04-21T20:18:40.003Z</time></trkpt><trkpt lat="40.20429751077287" lon="18.09474704194979"><ele>59.0</ele><time>2026-04-21T20:18:41.003Z</time></trkpt><trkpt lat="40.20407167512344" lon="18.094640034737754"><ele>59.0</ele><time>2026-04-21T20:18:42.003Z</time></trkpt><trkpt lat="40.20384151220961" lon="18.094535548335866"><ele>59.0</ele><time>2026-04-21T20:18:43.003Z</time></trkpt><trkpt lat="40.20360947630222" lon="18.09443171131994"><ele>59.0</ele><time>2026-04-21T20:18:44.003Z</time></trkpt><trkpt lat="40.203378884951036" lon="18.094329763824625"><ele>59.5</ele><time>2026-04-21T20:18:45.003Z</time></trkpt><trkpt lat="40.20314854333919" lon="18.09422830552999"><ele>60.0</ele><time>2026-04-21T20:18:46.003Z</time></trkpt><trkpt lat="40.2029192104165" lon="18.094125657124856"><ele>59.5</ele><time>2026-04-21T20:18:47.003Z</time></trkpt><trkpt lat="40.202688261791714" lon="18.09402789662485"><ele>59.0</ele><time>2026-04-21T20:18:48.003Z</time></trkpt><trkpt lat="40.20246075793345" lon="18.093926682583934"><ele>58.5</ele><time>2026-04-21T20:18:49.003Z</time></trkpt><trkpt lat="40.202229114086045" lon="18.09382788942901"><ele>58.0</ele><time>2026-04-21T20:18:50.003Z</time></trkpt><trkpt lat="40.20199749846943" lon="18.09372772857426"><ele>58.0</ele><time>2026-04-21T20:18:51.003Z</time></trkpt><trkpt lat="40.201770502055226" lon="18.093625304170697"><ele>58.0</ele><time>2026-04-21T20:18:52.003Z</time></trkpt><trkpt lat="40.201540875017976" lon="18.09352592276075"><ele>58.5</ele><time>2026-04-21T20:18:53.003Z</time></trkpt><trkpt lat="40.201316388097" lon="18.093425683257216"><ele>59.0</ele><time>2026-04-21T20:18:54.003Z</time></trkpt><trkpt lat="40.20108888831398" lon="18.093326306207423"><ele>59.0</ele><time>2026-04-21T20:18:55.003Z</time></trkpt><trkpt lat="40.20086225768312" lon="18.09322498950132"><ele>59.0</ele><time>2026-04-21T20:18:56.003Z</time></trkpt><trkpt lat="40.20063208142311" lon="18.093123931596708"><ele>58.5</ele><time>2026-04-21T20:18:57.003Z</time></trkpt><trkpt lat="40.200405753512975" lon="18.093024025249054"><ele>58.0</ele><time>2026-04-21T20:18:58.003Z</time></trkpt><trkpt lat="40.20017449483713" lon="18.092924344539867"><ele>58.0</ele><time>2026-04-21T20:18:59.003Z</time></trkpt><trkpt lat="40.199949384713385" lon="18.092822216198236"><ele>58.0</ele><time>2026-04-21T20:19:00.003Z</time></trkpt><trkpt lat="40.199723667487966" lon="18.092720663510583"><ele>58.5</ele><time>2026-04-21T20:19:01.003Z</time></trkpt><trkpt lat="40.199494854123756" lon="18.09261809281755"><ele>59.0</ele><time>2026-04-21T20:19:02.003Z</time></trkpt><trkpt lat="40.19926800505045" lon="18.09251485488518"><ele>58.0</ele><time>2026-04-21T20:19:03.003Z</time></trkpt><trkpt lat="40.19903934649437" lon="18.092412639682376"><ele>57.0</ele><time>2026-04-21T20:19:04.003Z</time></trkpt><trkpt lat="40.19881163606572" lon="18.092309295390592"><ele>56.5</ele><time>2026-04-21T20:19:05.003Z</time></trkpt><trkpt lat="40.198585095093954" lon="18.092208589382718"><ele>56.0</ele><time>2026-04-21T20:19:06.003Z</time></trkpt><trkpt lat="40.19835752865621" lon="18.092108937074503"><ele>55.0</ele><time>2026-04-21T20:19:07.003Z</time></trkpt><trkpt lat="40.19812945894823" lon="18.09200721358149"><ele>54.0</ele><time>2026-04-21T20:19:08.003Z</time></trkpt><trkpt lat="40.19790394661085" lon="18.091907701201784"><ele>54.0</ele><time>2026-04-21T20:19:09.003Z</time></trkpt><trkpt lat="40.197677201228835" lon="18.091806080511297"><ele>54.0</ele><time>2026-04-21T20:19:10.003Z</time></trkpt><trkpt lat="40.19745110558613" lon="18.09170413004191"><ele>54.5</ele><time>2026-04-21T20:19:11.003Z</time></trkpt><trkpt lat="40.1972251070635" lon="18.091602533239726"><ele>55.0</ele><time>2026-04-21T20:19:12.003Z</time></trkpt><trkpt lat="40.196999409694996" lon="18.091501539652832"><ele>53.5</ele><time>2026-04-21T20:19:13.003Z</time></trkpt><trkpt lat="40.19677086111582" lon="18.09140065172132"><ele>52.0</ele><time>2026-04-21T20:19:14.003Z</time></trkpt><trkpt lat="40.19654200148946" lon="18.09129769811122"><ele>52.5</ele><time>2026-04-21T20:19:15.003Z</time></trkpt><trkpt lat="40.196310432170144" lon="18.091194402935578"><ele>53.0</ele><time>2026-04-21T20:19:16.003Z</time></trkpt><trkpt lat="40.19608169566591" lon="18.0910941972122"><ele>53.0</ele><time>2026-04-21T20:19:17.003Z</time></trkpt><trkpt lat="40.19585069699559" lon="18.09099118346835"><ele>53.0</ele><time>2026-04-21T20:19:18.003Z</time></trkpt><trkpt lat="40.19562366396208" lon="18.090888606529226"><ele>52.5</ele><time>2026-04-21T20:19:19.003Z</time></trkpt><trkpt lat="40.19539232504128" lon="18.09078802048185"><ele>52.0</ele><time>2026-04-21T20:19:20.003Z</time></trkpt><trkpt lat="40.195161660797154" lon="18.090682682675716"><ele>51.5</ele><time>2026-04-21T20:19:21.003Z</time></trkpt><trkpt lat="40.194933591732955" lon="18.090574895784794"><ele>51.0</ele><time>2026-04-21T20:19:22.003Z</time></trkpt><trkpt lat="40.19469967759882" lon="18.090469603026353"><ele>51.0</ele><time>2026-04-21T20:19:23.003Z</time></trkpt><trkpt lat="40.19446998260152" lon="18.090363948065892"><ele>51.0</ele><time>2026-04-21T20:19:24.003Z</time></trkpt><trkpt lat="40.19423917402195" lon="18.09025884618202"><ele>51.0</ele><time>2026-04-21T20:19:25.003Z</time></trkpt><trkpt lat="40.19400823519638" lon="18.090155722327328"><ele>51.0</ele><time>2026-04-21T20:19:26.003Z</time></trkpt><trkpt lat="40.19377840115493" lon="18.09005649242708"><ele>51.5</ele><time>2026-04-21T20:19:27.003Z</time></trkpt><trkpt lat="40.193550297665695" lon="18.08995823243121"><ele>52.0</ele><time>2026-04-21T20:19:28.003Z</time></trkpt><trkpt lat="40.19332203987561" lon="18.08985822846975"><ele>51.0</ele><time>2026-04-21T20:19:29.003Z</time></trkpt><trkpt lat="40.19309009514678" lon="18.089756604478538"><ele>50.0</ele><time>2026-04-21T20:19:30.003Z</time></trkpt><trkpt lat="40.19286118256746" lon="18.08965736070583"><ele>50.0</ele><time>2026-04-21T20:19:31.003Z</time></trkpt><trkpt lat="40.19263469467592" lon="18.08955821896338"><ele>50.0</ele><time>2026-04-21T20:19:32.003Z</time></trkpt><trkpt lat="40.192407420471305" lon="18.08946052322277"><ele>50.0</ele><time>2026-04-21T20:19:33.003Z</time></trkpt><trkpt lat="40.19217896637636" lon="18.089358898441834"><ele>50.0</ele><time>2026-04-21T20:19:34.003Z</time></trkpt><trkpt lat="40.1919534763635" lon="18.089257493300984"><ele>50.0</ele><time>2026-04-21T20:19:35.003Z</time></trkpt><trkpt lat="40.19172736083723" lon="18.089154809200455"><ele>50.0</ele><time>2026-04-21T20:19:36.003Z</time></trkpt><trkpt lat="40.19149897815559" lon="18.08904844206134"><ele>49.5</ele><time>2026-04-21T20:19:37.003Z</time></trkpt><trkpt lat="40.19126685852323" lon="18.08894791011044"><ele>49.0</ele><time>2026-04-21T20:19:38.003Z</time></trkpt><trkpt lat="40.19103741529518" lon="18.08884605169759"><ele>49.0</ele><time>2026-04-21T20:19:39.001Z</time></trkpt><trkpt lat="40.19080873322372" lon="18.088748109155805"><ele>49.0</ele><time>2026-04-21T20:19:39.999Z</time></trkpt><trkpt lat="40.19058233621043" lon="18.088648160013403"><ele>49.0</ele><time>2026-04-21T20:19:40.996Z</time></trkpt><trkpt lat="40.19035327955496" lon="18.08854629467027"><ele>49.0</ele><time>2026-04-21T20:19:41.994Z</time></trkpt><trkpt lat="40.19012607127485" lon="18.088442870137893"><ele>49.0</ele><time>2026-04-21T20:19:42.991Z</time></trkpt><trkpt lat="40.189895581916126" lon="18.088340553536217"><ele>49.0</ele><time>2026-04-21T20:19:43.988Z</time></trkpt><trkpt lat="40.18966306402783" lon="18.088237771567865"><ele>48.5</ele><time>2026-04-21T20:19:44.986Z</time></trkpt><trkpt lat="40.18943072405396" lon="18.088135120194252"><ele>48.0</ele><time>2026-04-21T20:19:45.984Z</time></trkpt><trkpt lat="40.189200342616495" lon="18.088029723692006"><ele>48.5</ele><time>2026-04-21T20:19:46.983Z</time></trkpt><trkpt lat="40.188973130057384" lon="18.087925481058857"><ele>49.0</ele><time>2026-04-21T20:19:47.981Z</time></trkpt><trkpt lat="40.18874322451807" lon="18.087821038375964"><ele>49.0</ele><time>2026-04-21T20:19:48.979Z</time></trkpt><trkpt lat="40.18851746712599" lon="18.087720716473104"><ele>49.0</ele><time>2026-04-21T20:19:49.978Z</time></trkpt><trkpt lat="40.188289088491544" lon="18.087623018791522"><ele>49.0</ele><time>2026-04-21T20:19:50.976Z</time></trkpt><trkpt lat="40.188059561638525" lon="18.087527397992467"><ele>49.0</ele><time>2026-04-21T20:19:51.975Z</time></trkpt><trkpt lat="40.18783128052485" lon="18.087431973509375"><ele>48.5</ele><time>2026-04-21T20:19:52.974Z</time></trkpt><trkpt lat="40.18760297667418" lon="18.087332080290413"><ele>48.0</ele><time>2026-04-21T20:19:53.973Z</time></trkpt><trkpt lat="40.18737601398851" lon="18.087227310801893"><ele>48.0</ele><time>2026-04-21T20:19:54.971Z</time></trkpt><trkpt lat="40.1871481005424" lon="18.087123251254024"><ele>48.0</ele><time>2026-04-21T20:19:55.97Z</time></trkpt><trkpt lat="40.18692045571754" lon="18.087023437710556"><ele>48.0</ele><time>2026-04-21T20:19:56.969Z</time></trkpt><trkpt lat="40.18668949737635" lon="18.086924152029102"><ele>48.0</ele><time>2026-04-21T20:19:57.969Z</time></trkpt><trkpt lat="40.186462193121194" lon="18.08682020039967"><ele>48.5</ele><time>2026-04-21T20:19:58.968Z</time></trkpt><trkpt lat="40.18623745886885" lon="18.08671985452"><ele>49.0</ele><time>2026-04-21T20:19:59.967Z</time></trkpt><trkpt lat="40.18601262283256" lon="18.086619116738003"><ele>49.0</ele><time>2026-04-21T20:20:00.966Z</time></trkpt><trkpt lat="40.185785766085395" lon="18.08651561896372"><ele>49.0</ele><time>2026-04-21T20:20:01.965Z</time></trkpt><trkpt lat="40.185555816272924" lon="18.086410061305443"><ele>48.5</ele><time>2026-04-21T20:20:02.965Z</time></trkpt><trkpt lat="40.185325884690634" lon="18.08631037381094"><ele>48.0</ele><time>2026-04-21T20:20:03.964Z</time></trkpt><trkpt lat="40.185092837620246" lon="18.086208611156703"><ele>48.0</ele><time>2026-04-21T20:20:04.964Z</time></trkpt><trkpt lat="40.18486280933541" lon="18.086111959011784"><ele>48.0</ele><time>2026-04-21T20:20:05.963Z</time></trkpt><trkpt lat="40.184631845480524" lon="18.086011587258593"><ele>48.0</ele><time>2026-04-21T20:20:06.963Z</time></trkpt><trkpt lat="40.184401525502864" lon="18.0859090751224"><ele>48.0</ele><time>2026-04-21T20:20:07.962Z</time></trkpt><trkpt lat="40.18417298578318" lon="18.085809634874103"><ele>47.5</ele><time>2026-04-21T20:20:08.962Z</time></trkpt><trkpt lat="40.18394280241336" lon="18.085710298852888"><ele>47.0</ele><time>2026-04-21T20:20:09.961Z</time></trkpt><trkpt lat="40.1837162912921" lon="18.0856112825927"><ele>47.0</ele><time>2026-04-21T20:20:10.961Z</time></trkpt><trkpt lat="40.1834880336091" lon="18.085510266100158"><ele>47.0</ele><time>2026-04-21T20:20:11.96Z</time></trkpt><trkpt lat="40.18325775129259" lon="18.085402106243546"><ele>47.5</ele><time>2026-04-21T20:20:12.96Z</time></trkpt><trkpt lat="40.18302514791247" lon="18.08529521833485"><ele>48.0</ele><time>2026-04-21T20:20:13.96Z</time></trkpt><trkpt lat="40.18279723266191" lon="18.08518663026662"><ele>48.0</ele><time>2026-04-21T20:20:14.959Z</time></trkpt><trkpt lat="40.18256829318032" lon="18.085078064727863"><ele>48.0</ele><time>2026-04-21T20:20:15.959Z</time></trkpt><trkpt lat="40.182334365887165" lon="18.08497191150261"><ele>47.0</ele><time>2026-04-21T20:20:16.959Z</time></trkpt><trkpt lat="40.18210376964337" lon="18.084867783172665"><ele>46.0</ele><time>2026-04-21T20:20:17.959Z</time></trkpt><trkpt lat="40.18187079970131" lon="18.084766070234746"><ele>46.0</ele><time>2026-04-21T20:20:18.958Z</time></trkpt><trkpt lat="40.181641461884944" lon="18.084666641805356"><ele>46.0</ele><time>2026-04-21T20:20:19.958Z</time></trkpt><trkpt lat="40.18141392231259" lon="18.08457022557381"><ele>45.5</ele><time>2026-04-21T20:20:20.958Z</time></trkpt><trkpt lat="40.1811858710577" lon="18.084474912515002"><ele>45.0</ele><time>2026-04-21T20:20:21.958Z</time></trkpt><trkpt lat="40.18095446277461" lon="18.084377907810435"><ele>45.0</ele><time>2026-04-21T20:20:22.957Z</time></trkpt><trkpt lat="40.18072245029917" lon="18.08428477529449"><ele>45.0</ele><time>2026-04-21T20:20:23.957Z</time></trkpt><trkpt lat="40.180493550128176" lon="18.084192136563562"><ele>44.5</ele><time>2026-04-21T20:20:24.957Z</time></trkpt><trkpt lat="40.1802614122219" lon="18.084097834253328"><ele>44.0</ele><time>2026-04-21T20:20:25.957Z</time></trkpt><trkpt lat="40.18003367628344" lon="18.084003865941334"><ele>43.0</ele><time>2026-04-21T20:20:26.957Z</time></trkpt><trkpt lat="40.17981078324169" lon="18.083905800124775"><ele>42.0</ele><time>2026-04-21T20:20:27.957Z</time></trkpt><trkpt lat="40.17959173222141" lon="18.083794912962276"><ele>42.0</ele><time>2026-04-21T20:20:28.956Z</time></trkpt><trkpt lat="40.17937030107332" lon="18.083674507793017"><ele>42.0</ele><time>2026-04-21T20:20:29.956Z</time></trkpt><trkpt lat="40.179149153607945" lon="18.083553286714743"><ele>43.0</ele><time>2026-04-21T20:20:30.956Z</time></trkpt><trkpt lat="40.178924353306165" lon="18.08342739845039"><ele>44.0</ele><time>2026-04-21T20:20:31.956Z</time></trkpt><trkpt lat="40.17870611896536" lon="18.083298859440976"><ele>43.0</ele><time>2026-04-21T20:20:32.956Z</time></trkpt><trkpt lat="40.17848632687276" lon="18.08316606476778"><ele>42.0</ele><time>2026-04-21T20:20:33.956Z</time></trkpt><trkpt lat="40.178269894218154" lon="18.08302719113041"><ele>42.5</ele><time>2026-04-21T20:20:34.956Z</time></trkpt><trkpt lat="40.17805744750522" lon="18.082875751933305"><ele>43.0</ele><time>2026-04-21T20:20:35.956Z</time></trkpt><trkpt lat="40.17784560176502" lon="18.082718045081208"><ele>43.0</ele><time>2026-04-21T20:20:36.956Z</time></trkpt><trkpt lat="40.17763735187037" lon="18.08254952327229"><ele>43.0</ele><time>2026-04-21T20:20:37.956Z</time></trkpt><trkpt lat="40.1774324536777" lon="18.082376940116102"><ele>43.5</ele><time>2026-04-21T20:20:38.955Z</time></trkpt><trkpt lat="40.17723115989112" lon="18.082199383989053"><ele>44.0</ele><time>2026-04-21T20:20:39.955Z</time></trkpt><trkpt lat="40.177035676497255" lon="18.082015942902142"><ele>44.0</ele><time>2026-04-21T20:20:40.955Z</time></trkpt><trkpt lat="40.17684306984355" lon="18.081823990845223"><ele>44.0</ele><time>2026-04-21T20:20:41.955Z</time></trkpt><trkpt lat="40.176655246935496" lon="18.081627367539767"><ele>43.5</ele><time>2026-04-21T20:20:42.955Z</time></trkpt><trkpt lat="40.17646915294692" lon="18.081424934038985"><ele>43.0</ele><time>2026-04-21T20:20:43.955Z</time></trkpt><trkpt lat="40.17628628677545" lon="18.081216910834183"><ele>43.0</ele><time>2026-04-21T20:20:44.955Z</time></trkpt><trkpt lat="40.17610356236766" lon="18.081002113212747"><ele>43.0</ele><time>2026-04-21T20:20:45.955Z</time></trkpt><trkpt lat="40.17592969225878" lon="18.080785004115675"><ele>42.5</ele><time>2026-04-21T20:20:46.955Z</time></trkpt><trkpt lat="40.175760079855785" lon="18.08056043360213"><ele>42.0</ele><time>2026-04-21T20:20:47.955Z</time></trkpt><trkpt lat="40.175594950416986" lon="18.080329040690458"><ele>42.0</ele><time>2026-04-21T20:20:48.955Z</time></trkpt><trkpt lat="40.17543253048033" lon="18.080090456492428"><ele>42.0</ele><time>2026-04-21T20:20:49.955Z</time></trkpt><trkpt lat="40.17527647864063" lon="18.0798467132523"><ele>41.5</ele><time>2026-04-21T20:20:50.955Z</time></trkpt><trkpt lat="40.17512039788293" lon="18.079598061208397"><ele>41.0</ele><time>2026-04-21T20:20:51.955Z</time></trkpt><trkpt lat="40.17497201331863" lon="18.07935045558948"><ele>42.0</ele><time>2026-04-21T20:20:52.955Z</time></trkpt><trkpt lat="40.17481753282884" lon="18.079100751474122"><ele>43.0</ele><time>2026-04-21T20:20:53.955Z</time></trkpt><trkpt lat="40.17466630189396" lon="18.07885297385551"><ele>43.0</ele><time>2026-04-21T20:20:54.955Z</time></trkpt><trkpt lat="40.174515614102596" lon="18.078603495043104"><ele>43.0</ele><time>2026-04-21T20:20:55.955Z</time></trkpt><trkpt lat="40.17436420071787" lon="18.0783368574227"><ele>44.0</ele><time>2026-04-21T20:20:56.955Z</time></trkpt><trkpt lat="40.174206850120356" lon="18.07807200664702"><ele>45.0</ele><time>2026-04-21T20:20:57.954Z</time></trkpt><trkpt lat="40.174047371633414" lon="18.07781574035972"><ele>44.5</ele><time>2026-04-21T20:20:58.954Z</time></trkpt><trkpt lat="40.1738971915988" lon="18.077542984989986"><ele>44.0</ele><time>2026-04-21T20:20:59.954Z</time></trkpt><trkpt lat="40.1737407121589" lon="18.07729737487603"><ele>43.0</ele><time>2026-04-21T20:21:00.954Z</time></trkpt><trkpt lat="40.17359056566919" lon="18.077058613069486"><ele>42.0</ele><time>2026-04-21T20:21:01.954Z</time></trkpt><trkpt lat="40.173452898443124" lon="18.076822356491828"><ele>42.0</ele><time>2026-04-21T20:21:02.954Z</time></trkpt><trkpt lat="40.17329421969598" lon="18.076611410667955"><ele>42.0</ele><time>2026-04-21T20:21:03.954Z</time></trkpt><trkpt lat="40.17313641499193" lon="18.07640693916769"><ele>42.0</ele><time>2026-04-21T20:21:04.954Z</time></trkpt><trkpt lat="40.172979047381276" lon="18.0761767814875"><ele>43.0</ele><time>2026-04-21T20:21:05.954Z</time></trkpt><trkpt lat="40.17282581880176" lon="18.07593967236531"><ele>44.0</ele><time>2026-04-21T20:21:06.954Z</time></trkpt><trkpt lat="40.17267482372708" lon="18.075698971179598"><ele>44.0</ele><time>2026-04-21T20:21:07.954Z</time></trkpt><trkpt lat="40.17252153702176" lon="18.07545887018864"><ele>44.0</ele><time>2026-04-21T20:21:08.954Z</time></trkpt><trkpt lat="40.17237097102431" lon="18.075213546401972"><ele>43.0</ele><time>2026-04-21T20:21:09.954Z</time></trkpt><trkpt lat="40.17221920122518" lon="18.07496884707618"><ele>42.0</ele><time>2026-04-21T20:21:10.954Z</time></trkpt><trkpt lat="40.17206394353025" lon="18.07472713378184"><ele>42.0</ele><time>2026-04-21T20:21:11.954Z</time></trkpt><trkpt lat="40.17190802430154" lon="18.07448818924195"><ele>42.0</ele><time>2026-04-21T20:21:12.954Z</time></trkpt><trkpt lat="40.17175585108404" lon="18.074249573555196"><ele>42.5</ele><time>2026-04-21T20:21:13.954Z</time></trkpt><trkpt lat="40.17160206858745" lon="18.074007675526634"><ele>43.0</ele><time>2026-04-21T20:21:14.954Z</time></trkpt><trkpt lat="40.171447533534504" lon="18.07376654560716"><ele>43.5</ele><time>2026-04-21T20:21:15.954Z</time></trkpt><trkpt lat="40.171291954452684" lon="18.073526604183765"><ele>44.0</ele><time>2026-04-21T20:21:16.954Z</time></trkpt><trkpt lat="40.171134762415804" lon="18.07328556851955"><ele>44.0</ele><time>2026-04-21T20:21:17.954Z</time></trkpt><trkpt lat="40.170983859532654" lon="18.07304164249371"><ele>44.0</ele><time>2026-04-21T20:21:18.954Z</time></trkpt><trkpt lat="40.17083127682396" lon="18.07279505870256"><ele>44.5</ele><time>2026-04-21T20:21:19.954Z</time></trkpt><trkpt lat="40.17068027557897" lon="18.07254874110767"><ele>45.0</ele><time>2026-04-21T20:21:20.954Z</time></trkpt><trkpt lat="40.17052871787276" lon="18.072308353090428"><ele>45.0</ele><time>2026-04-21T20:21:21.954Z</time></trkpt><trkpt lat="40.17037279739406" lon="18.072066048681087"><ele>45.0</ele><time>2026-04-21T20:21:22.954Z</time></trkpt><trkpt lat="40.17021571691366" lon="18.07182571809537"><ele>44.0</ele><time>2026-04-21T20:21:23.954Z</time></trkpt><trkpt lat="40.170062143596894" lon="18.07158724027714"><ele>43.0</ele><time>2026-04-21T20:21:24.954Z</time></trkpt><trkpt lat="40.169907105006786" lon="18.071347887754158"><ele>44.0</ele><time>2026-04-21T20:21:25.954Z</time></trkpt><trkpt lat="40.169756571405344" lon="18.071102731503583"><ele>45.0</ele><time>2026-04-21T20:21:26.954Z</time></trkpt><trkpt lat="40.16960661259254" lon="18.070854838868033"><ele>44.0</ele><time>2026-04-21T20:21:27.954Z</time></trkpt><trkpt lat="40.16945652046312" lon="18.070607104252325"><ele>43.0</ele><time>2026-04-21T20:21:28.954Z</time></trkpt><trkpt lat="40.16930711222964" lon="18.070358116631258"><ele>43.0</ele><time>2026-04-21T20:21:29.954Z</time></trkpt><trkpt lat="40.16915724318036" lon="18.07011179474442"><ele>43.0</ele><time>2026-04-21T20:21:30.954Z</time></trkpt><trkpt lat="40.16900696488586" lon="18.069865709494504"><ele>43.5</ele><time>2026-04-21T20:21:31.954Z</time></trkpt><trkpt lat="40.168855812919915" lon="18.069621116173515"><ele>44.0</ele><time>2026-04-21T20:21:32.954Z</time></trkpt><trkpt lat="40.16870254106214" lon="18.0693798037503"><ele>44.0</ele><time>2026-04-21T20:21:33.954Z</time></trkpt><trkpt lat="40.16854880072787" lon="18.069137556238868"><ele>44.0</ele><time>2026-04-21T20:21:34.954Z</time></trkpt><trkpt lat="40.16839441480177" lon="18.068894711953664"><ele>44.0</ele><time>2026-04-21T20:21:35.954Z</time></trkpt><trkpt lat="40.16824044054709" lon="18.068651005243126"><ele>44.0</ele><time>2026-04-21T20:21:36.954Z</time></trkpt><trkpt lat="40.16808741380978" lon="18.06840566369952"><ele>44.5</ele><time>2026-04-21T20:21:37.954Z</time></trkpt><trkpt lat="40.16793412558871" lon="18.06815968353133"><ele>45.0</ele><time>2026-04-21T20:21:38.955Z</time></trkpt><trkpt lat="40.16778178734444" lon="18.06791754934062"><ele>45.0</ele><time>2026-04-21T20:21:39.954Z</time></trkpt><trkpt lat="40.16762898948259" lon="18.067676465242126"><ele>45.0</ele><time>2026-04-21T20:21:40.954Z</time></trkpt><trkpt lat="40.167478239696614" lon="18.067433804535465"><ele>45.5</ele><time>2026-04-21T20:21:41.954Z</time></trkpt><trkpt lat="40.167326076367694" lon="18.067191268658036"><ele>46.0</ele><time>2026-04-21T20:21:42.954Z</time></trkpt><trkpt lat="40.16717254252376" lon="18.06694569807046"><ele>46.0</ele><time>2026-04-21T20:21:43.954Z</time></trkpt><trkpt lat="40.167017461410246" lon="18.066700705001075"><ele>46.0</ele><time>2026-04-21T20:21:44.955Z</time></trkpt><trkpt lat="40.16686334240279" lon="18.066456582961976"><ele>46.0</ele><time>2026-04-21T20:21:45.955Z</time></trkpt><trkpt lat="40.16670875397234" lon="18.066214209201483"><ele>46.0</ele><time>2026-04-21T20:21:46.955Z</time></trkpt><trkpt lat="40.16655690617775" lon="18.065972661085258"><ele>46.5</ele><time>2026-04-21T20:21:47.955Z</time></trkpt><trkpt lat="40.166402810902184" lon="18.065730402263956"><ele>47.0</ele><time>2026-04-21T20:21:48.954Z</time></trkpt><trkpt lat="40.166248871617285" lon="18.0654862559382"><ele>47.0</ele><time>2026-04-21T20:21:49.954Z</time></trkpt><trkpt lat="40.166095642791035" lon="18.0652394419052"><ele>47.0</ele><time>2026-04-21T20:21:50.955Z</time></trkpt><trkpt lat="40.165942655322816" lon="18.064996318123875"><ele>46.5</ele><time>2026-04-21T20:21:51.955Z</time></trkpt><trkpt lat="40.16579009463574" lon="18.064752024647703"><ele>46.0</ele><time>2026-04-21T20:21:52.955Z</time></trkpt><trkpt lat="40.16563669264344" lon="18.064508005218794"><ele>46.0</ele><time>2026-04-21T20:21:53.955Z</time></trkpt><trkpt lat="40.1654842790803" lon="18.064264981842594"><ele>46.0</ele><time>2026-04-21T20:21:54.955Z</time></trkpt><trkpt lat="40.16532997253806" lon="18.06402044763598"><ele>46.0</ele><time>2026-04-21T20:21:55.955Z</time></trkpt><trkpt lat="40.16517457570102" lon="18.063778882663353"><ele>46.0</ele><time>2026-04-21T20:21:56.955Z</time></trkpt><trkpt lat="40.16502170814419" lon="18.063536918208726"><ele>46.0</ele><time>2026-04-21T20:21:57.955Z</time></trkpt><trkpt lat="40.164870210660034" lon="18.0632967259015"><ele>46.0</ele><time>2026-04-21T20:21:58.955Z</time></trkpt><trkpt lat="40.16471860296726" lon="18.06305329101858"><ele>46.5</ele><time>2026-04-21T20:21:59.955Z</time></trkpt><trkpt lat="40.16456726242803" lon="18.062809929207734"><ele>47.0</ele><time>2026-04-21T20:22:00.955Z</time></trkpt><trkpt lat="40.164415936505456" lon="18.062564694079526"><ele>47.0</ele><time>2026-04-21T20:22:01.955Z</time></trkpt><trkpt lat="40.16426394544853" lon="18.062320397364886"><ele>47.0</ele><time>2026-04-21T20:22:02.955Z</time></trkpt><trkpt lat="40.164113270466046" lon="18.06207585125474"><ele>47.5</ele><time>2026-04-21T20:22:03.955Z</time></trkpt><trkpt lat="40.163961775326115" lon="18.061830116453617"><ele>48.0</ele><time>2026-04-21T20:22:04.955Z</time></trkpt><trkpt lat="40.16380581846599" lon="18.06158299562306"><ele>48.5</ele><time>2026-04-21T20:22:05.955Z</time></trkpt><trkpt lat="40.16365074911706" lon="18.061336597920345"><ele>49.0</ele><time>2026-04-21T20:22:06.955Z</time></trkpt><trkpt lat="40.16349438787522" lon="18.0610950835194"><ele>49.0</ele><time>2026-04-21T20:22:07.954Z</time></trkpt><trkpt lat="40.16334056384028" lon="18.06085359636041"><ele>49.0</ele><time>2026-04-21T20:22:08.954Z</time></trkpt><trkpt lat="40.16318613003508" lon="18.0606121906194"><ele>48.0</ele><time>2026-04-21T20:22:09.954Z</time></trkpt><trkpt lat="40.16303333356659" lon="18.06036886298625"><ele>47.0</ele><time>2026-04-21T20:22:10.954Z</time></trkpt><trkpt lat="40.16288053106356" lon="18.0601257921668"><ele>47.5</ele><time>2026-04-21T20:22:11.954Z</time></trkpt><trkpt lat="40.162725993227546" lon="18.059883207766354"><ele>48.0</ele><time>2026-04-21T20:22:12.954Z</time></trkpt><trkpt lat="40.16257538628867" lon="18.059641573893717"><ele>48.0</ele><time>2026-04-21T20:22:13.954Z</time></trkpt><trkpt lat="40.16242193546313" lon="18.059398563658398"><ele>48.0</ele><time>2026-04-21T20:22:14.954Z</time></trkpt><trkpt lat="40.16226649572468" lon="18.059152774035287"><ele>47.0</ele><time>2026-04-21T20:22:15.954Z</time></trkpt><trkpt lat="40.16210879791097" lon="18.058907307282308"><ele>46.0</ele><time>2026-04-21T20:22:16.954Z</time></trkpt><trkpt lat="40.1619537641848" lon="18.058663949508166"><ele>46.0</ele><time>2026-04-21T20:22:17.954Z</time></trkpt><trkpt lat="40.16180307511907" lon="18.0584178701426"><ele>46.0</ele><time>2026-04-21T20:22:18.954Z</time></trkpt><trkpt lat="40.161652892688124" lon="18.058171881416914"><ele>46.0</ele><time>2026-04-21T20:22:19.954Z</time></trkpt><trkpt lat="40.1615005128052" lon="18.057927391000252"><ele>46.0</ele><time>2026-04-21T20:22:20.954Z</time></trkpt><trkpt lat="40.16134874929457" lon="18.057682394118974"><ele>46.0</ele><time>2026-04-21T20:22:21.954Z</time></trkpt><trkpt lat="40.16119595341437" lon="18.05744001444131"><ele>46.0</ele><time>2026-04-21T20:22:22.954Z</time></trkpt><trkpt lat="40.161042985534" lon="18.05719856206357"><ele>46.0</ele><time>2026-04-21T20:22:23.954Z</time></trkpt><trkpt lat="40.160889914737204" lon="18.056957470937455"><ele>46.0</ele><time>2026-04-21T20:22:24.954Z</time></trkpt><trkpt lat="40.160734873973766" lon="18.05671317134985"><ele>46.5</ele><time>2026-04-21T20:22:25.954Z</time></trkpt><trkpt lat="40.160579939358534" lon="18.056464661725656"><ele>47.0</ele><time>2026-04-21T20:22:26.954Z</time></trkpt><trkpt lat="40.16042527042095" lon="18.05622075328161"><ele>47.0</ele><time>2026-04-21T20:22:27.954Z</time></trkpt><trkpt lat="40.16026995789848" lon="18.05598151869877"><ele>47.0</ele><time>2026-04-21T20:22:28.954Z</time></trkpt><trkpt lat="40.16011546463462" lon="18.055741783905503"><ele>46.0</ele><time>2026-04-21T20:22:29.954Z</time></trkpt><trkpt lat="40.15996130977204" lon="18.055498473037396"><ele>45.0</ele><time>2026-04-21T20:22:30.954Z</time></trkpt><trkpt lat="40.159811412312266" lon="18.055255784160845"><ele>46.0</ele><time>2026-04-21T20:22:31.954Z</time></trkpt><trkpt lat="40.15965957954423" lon="18.055012771961607"><ele>47.0</ele><time>2026-04-21T20:22:32.954Z</time></trkpt><trkpt lat="40.159505913182166" lon="18.05476919616718"><ele>47.0</ele><time>2026-04-21T20:22:33.954Z</time></trkpt><trkpt lat="40.15935229935247" lon="18.054526547774067"><ele>47.0</ele><time>2026-04-21T20:22:34.954Z</time></trkpt><trkpt lat="40.15919558750736" lon="18.054280458639923"><ele>47.5</ele><time>2026-04-21T20:22:35.954Z</time></trkpt><trkpt lat="40.15903679568594" lon="18.05403762096297"><ele>48.0</ele><time>2026-04-21T20:22:36.954Z</time></trkpt><trkpt lat="40.15887862879502" lon="18.05380174001936"><ele>48.0</ele><time>2026-04-21T20:22:37.954Z</time></trkpt><trkpt lat="40.15870867647939" lon="18.05356950811261"><ele>48.0</ele><time>2026-04-21T20:22:38.954Z</time></trkpt><trkpt lat="40.15852151896154" lon="18.05336079199053"><ele>47.0</ele><time>2026-04-21T20:22:39.954Z</time></trkpt><trkpt lat="40.158329708646285" lon="18.05315191720199"><ele>46.0</ele><time>2026-04-21T20:22:40.954Z</time></trkpt><trkpt lat="40.158133795185876" lon="18.052966058559083"><ele>46.0</ele><time>2026-04-21T20:22:41.954Z</time></trkpt><trkpt lat="40.15793415845923" lon="18.052794285181637"><ele>46.0</ele><time>2026-04-21T20:22:42.954Z</time></trkpt><trkpt lat="40.15773227276748" lon="18.052626434772275"><ele>46.0</ele><time>2026-04-21T20:22:43.954Z</time></trkpt><trkpt lat="40.1575263739693" lon="18.052457403578572"><ele>46.0</ele><time>2026-04-21T20:22:44.954Z</time></trkpt><trkpt lat="40.15732048464324" lon="18.05229424907106"><ele>46.5</ele><time>2026-04-21T20:22:45.954Z</time></trkpt><trkpt lat="40.157112771034406" lon="18.05213719385346"><ele>47.0</ele><time>2026-04-21T20:22:46.954Z</time></trkpt><trkpt lat="40.15690216377049" lon="18.051985771634033"><ele>47.0</ele><time>2026-04-21T20:22:47.954Z</time></trkpt><trkpt lat="40.15669037147645" lon="18.051840765043014"><ele>47.0</ele><time>2026-04-21T20:22:48.954Z</time></trkpt><trkpt lat="40.15647961519073" lon="18.05169998703574"><ele>47.0</ele><time>2026-04-21T20:22:49.954Z</time></trkpt><trkpt lat="40.15626361047466" lon="18.051565207338932"><ele>47.0</ele><time>2026-04-21T20:22:50.954Z</time></trkpt><trkpt lat="40.15604324649571" lon="18.05144270760128"><ele>47.0</ele><time>2026-04-21T20:22:51.954Z</time></trkpt><trkpt lat="40.155821714072395" lon="18.05132954984775"><ele>47.0</ele><time>2026-04-21T20:22:52.954Z</time></trkpt><trkpt lat="40.155597501588844" lon="18.05122402290762"><ele>47.0</ele><time>2026-04-21T20:22:53.954Z</time></trkpt><trkpt lat="40.155368845184874" lon="18.051125982414757"><ele>47.0</ele><time>2026-04-21T20:22:54.954Z</time></trkpt><trkpt lat="40.15513698342059" lon="18.051036989034444"><ele>47.0</ele><time>2026-04-21T20:22:55.954Z</time></trkpt><trkpt lat="40.154898194842126" lon="18.05096151963668"><ele>47.0</ele><time>2026-04-21T20:22:56.954Z</time></trkpt><trkpt lat="40.15465891033705" lon="18.050897488421498"><ele>48.0</ele><time>2026-04-21T20:22:57.954Z</time></trkpt><trkpt lat="40.154418440838796" lon="18.05084378815558"><ele>49.0</ele><time>2026-04-21T20:22:58.954Z</time></trkpt><trkpt lat="40.15418008982566" lon="18.05079446401756"><ele>48.0</ele><time>2026-04-21T20:22:59.954Z</time></trkpt><trkpt lat="40.15394461201906" lon="18.05074162552154"><ele>47.0</ele><time>2026-04-21T20:23:00.954Z</time></trkpt><trkpt lat="40.15371484643849" lon="18.0506886642551"><ele>47.0</ele><time>2026-04-21T20:23:01.954Z</time></trkpt><trkpt lat="40.15347916503799" lon="18.050637464657857"><ele>47.0</ele><time>2026-04-21T20:23:02.954Z</time></trkpt><trkpt lat="40.15324494767461" lon="18.0505919504803"><ele>47.5</ele><time>2026-04-21T20:23:03.954Z</time></trkpt><trkpt lat="40.15301192689431" lon="18.05053335874535"><ele>48.0</ele><time>2026-04-21T20:23:04.954Z</time></trkpt><trkpt lat="40.15277751143629" lon="18.050477770625864"><ele>48.0</ele><time>2026-04-21T20:23:05.954Z</time></trkpt><trkpt lat="40.15254719234507" lon="18.05041752285831"><ele>48.0</ele><time>2026-04-21T20:23:06.954Z</time></trkpt><trkpt lat="40.15231142945862" lon="18.05035363994965"><ele>48.5</ele><time>2026-04-21T20:23:07.954Z</time></trkpt><trkpt lat="40.15207635849033" lon="18.050290203027128"><ele>49.0</ele><time>2026-04-21T20:23:08.954Z</time></trkpt><trkpt lat="40.15184350043004" lon="18.050225349066768"><ele>49.0</ele><time>2026-04-21T20:23:09.954Z</time></trkpt><trkpt lat="40.1516068582203" lon="18.050161080814544"><ele>49.0</ele><time>2026-04-21T20:23:10.954Z</time></trkpt><trkpt lat="40.1513649616188" lon="18.050099302704947"><ele>50.0</ele><time>2026-04-21T20:23:11.954Z</time></trkpt><trkpt lat="40.15112247549002" lon="18.050043731571986"><ele>51.0</ele><time>2026-04-21T20:23:12.954Z</time></trkpt><trkpt lat="40.15088169518857" lon="18.049990851723237"><ele>52.0</ele><time>2026-04-21T20:23:13.954Z</time></trkpt><trkpt lat="40.15064017004623" lon="18.049937319061875"><ele>53.0</ele><time>2026-04-21T20:23:14.954Z</time></trkpt><trkpt lat="40.15040370907397" lon="18.04988437850736"><ele>53.0</ele><time>2026-04-21T20:23:15.953Z</time></trkpt><trkpt lat="40.150169591466145" lon="18.049825687161952"><ele>53.0</ele><time>2026-04-21T20:23:16.953Z</time></trkpt><trkpt lat="40.14993248599263" lon="18.049768577879657"><ele>53.5</ele><time>2026-04-21T20:23:17.953Z</time></trkpt><trkpt lat="40.149693179241766" lon="18.049709155704647"><ele>54.0</ele><time>2026-04-21T20:23:18.953Z</time></trkpt><trkpt lat="40.149452969096075" lon="18.04965185372153"><ele>54.0</ele><time>2026-04-21T20:23:19.953Z</time></trkpt><trkpt lat="40.14921123493449" lon="18.04959618285462"><ele>54.0</ele><time>2026-04-21T20:23:20.953Z</time></trkpt><trkpt lat="40.148970000488774" lon="18.049541268692966"><ele>55.5</ele><time>2026-04-21T20:23:21.953Z</time></trkpt><trkpt lat="40.14872866453466" lon="18.049486653237686"><ele>57.0</ele><time>2026-04-21T20:23:22.953Z</time></trkpt><trkpt lat="40.14848666476453" lon="18.04943602214228"><ele>57.0</ele><time>2026-04-21T20:23:23.953Z</time></trkpt><trkpt lat="40.14824746726957" lon="18.049385438601014"><ele>57.0</ele><time>2026-04-21T20:23:24.953Z</time></trkpt><trkpt lat="40.148008444043725" lon="18.049331054636834"><ele>57.0</ele><time>2026-04-21T20:23:25.953Z</time></trkpt><trkpt lat="40.14777399215402" lon="18.049271527034467"><ele>57.0</ele><time>2026-04-21T20:23:26.953Z</time></trkpt><trkpt lat="40.14753466967286" lon="18.04921096158437"><ele>57.5</ele><time>2026-04-21T20:23:27.953Z</time></trkpt><trkpt lat="40.14729900072095" lon="18.049158938790566"><ele>58.0</ele><time>2026-04-21T20:23:28.953Z</time></trkpt><trkpt lat="40.14706394518294" lon="18.04911934756357"><ele>57.0</ele><time>2026-04-21T20:23:29.953Z</time></trkpt><trkpt lat="40.146824062397144" lon="18.04909183250492"><ele>56.0</ele><time>2026-04-21T20:23:30.953Z</time></trkpt><trkpt lat="40.14658215459264" lon="18.049072336617282"><ele>56.0</ele><time>2026-04-21T20:23:31.953Z</time></trkpt><trkpt lat="40.14634501182947" lon="18.049059466320884"><ele>56.0</ele><time>2026-04-21T20:23:32.953Z</time></trkpt><trkpt lat="40.14610419240512" lon="18.04905059007715"><ele>56.0</ele><time>2026-04-21T20:23:33.953Z</time></trkpt><trkpt lat="40.14586401386298" lon="18.049047822579563"><ele>56.0</ele><time>2026-04-21T20:23:34.953Z</time></trkpt><trkpt lat="40.145624535937465" lon="18.049047431603984"><ele>57.0</ele><time>2026-04-21T20:23:35.953Z</time></trkpt><trkpt lat="40.14538294654061" lon="18.049044858525644"><ele>58.0</ele><time>2026-04-21T20:23:36.953Z</time></trkpt><trkpt lat="40.14513951961886" lon="18.049045575136777"><ele>58.0</ele><time>2026-04-21T20:23:37.953Z</time></trkpt><trkpt lat="40.1448966471488" lon="18.04905395225812"><ele>58.0</ele><time>2026-04-21T20:23:38.953Z</time></trkpt><trkpt lat="40.14465653415648" lon="18.049067941835872"><ele>58.5</ele><time>2026-04-21T20:23:39.953Z</time></trkpt><trkpt lat="40.144418399827686" lon="18.049080228338713"><ele>59.0</ele><time>2026-04-21T20:23:40.953Z</time></trkpt><trkpt lat="40.14417681279787" lon="18.049099788881943"><ele>58.5</ele><time>2026-04-21T20:23:41.953Z</time></trkpt><trkpt lat="40.143938769621585" lon="18.049124839288524"><ele>58.0</ele><time>2026-04-21T20:23:42.953Z</time></trkpt><trkpt lat="40.14369603140843" lon="18.049158470489942"><ele>60.5</ele><time>2026-04-21T20:23:43.953Z</time></trkpt><trkpt lat="40.14345477839628" lon="18.049194738709847"><ele>63.0</ele><time>2026-04-21T20:23:44.954Z</time></trkpt><trkpt lat="40.143215827368316" lon="18.04924268710728"><ele>63.0</ele><time>2026-04-21T20:23:45.954Z</time></trkpt><trkpt lat="40.14297862469343" lon="18.049294229165902"><ele>63.0</ele><time>2026-04-21T20:23:46.954Z</time></trkpt><trkpt lat="40.142738961876915" lon="18.049347134694795"><ele>63.0</ele><time>2026-04-21T20:23:47.953Z</time></trkpt><trkpt lat="40.142500315714045" lon="18.049399923029238"><ele>63.0</ele><time>2026-04-21T20:23:48.954Z</time></trkpt><trkpt lat="40.14226235533545" lon="18.04945772414995"><ele>62.5</ele><time>2026-04-21T20:23:49.954Z</time></trkpt><trkpt lat="40.1420274943096" lon="18.0495120047694"><ele>62.0</ele><time>2026-04-21T20:23:50.953Z</time></trkpt><trkpt lat="40.14179005630185" lon="18.049576190972882"><ele>62.0</ele><time>2026-04-21T20:23:51.954Z</time></trkpt><trkpt lat="40.14155722563534" lon="18.049646378011165"><ele>62.0</ele><time>2026-04-21T20:23:52.954Z</time></trkpt><trkpt lat="40.14132434244867" lon="18.04971971625614"><ele>63.5</ele><time>2026-04-21T20:23:53.954Z</time></trkpt><trkpt lat="40.14109244947973" lon="18.049797811113514"><ele>65.0</ele><time>2026-04-21T20:23:54.953Z</time></trkpt><trkpt lat="40.140861997914264" lon="18.049873922840263"><ele>66.5</ele><time>2026-04-21T20:23:55.953Z</time></trkpt><trkpt lat="40.14062899832784" lon="18.04994866819176"><ele>68.0</ele><time>2026-04-21T20:23:56.953Z</time></trkpt><trkpt lat="40.14039210809872" lon="18.050017783338532"><ele>68.0</ele><time>2026-04-21T20:23:57.953Z</time></trkpt><trkpt lat="40.14015200713581" lon="18.050086143360247"><ele>68.0</ele><time>2026-04-21T20:23:58.953Z</time></trkpt><trkpt lat="40.139916114897666" lon="18.05015502185071"><ele>68.5</ele><time>2026-04-21T20:23:59.953Z</time></trkpt><trkpt lat="40.13968054336469" lon="18.050222938968403"><ele>69.0</ele><time>2026-04-21T20:24:00.953Z</time></trkpt><trkpt lat="40.139440829668565" lon="18.05029350071138"><ele>69.0</ele><time>2026-04-21T20:24:01.953Z</time></trkpt><trkpt lat="40.139203254928994" lon="18.050350566875135"><ele>69.0</ele><time>2026-04-21T20:24:02.953Z</time></trkpt><trkpt lat="40.13896281598054" lon="18.05040653904205"><ele>69.0</ele><time>2026-04-21T20:24:03.953Z</time></trkpt><trkpt lat="40.13872043607701" lon="18.05047979697933"><ele>69.0</ele><time>2026-04-21T20:24:04.953Z</time></trkpt><trkpt lat="40.13848619811" lon="18.05056786529238"><ele>69.0</ele><time>2026-04-21T20:24:05.953Z</time></trkpt><trkpt lat="40.13825304917923" lon="18.050648279190657"><ele>69.0</ele><time>2026-04-21T20:24:06.953Z</time></trkpt><trkpt lat="40.13801871539273" lon="18.050723098361605"><ele>70.0</ele><time>2026-04-21T20:24:07.953Z</time></trkpt><trkpt lat="40.13778673680315" lon="18.0507994282083"><ele>71.0</ele><time>2026-04-21T20:24:08.953Z</time></trkpt><trkpt lat="40.13755036195739" lon="18.050869427856505"><ele>72.0</ele><time>2026-04-21T20:24:09.953Z</time></trkpt><trkpt lat="40.137317939994375" lon="18.050943068237117"><ele>73.0</ele><time>2026-04-21T20:24:10.953Z</time></trkpt><trkpt lat="40.137087099507866" lon="18.051015478454605"><ele>73.0</ele><time>2026-04-21T20:24:11.953Z</time></trkpt><trkpt lat="40.136852812163724" lon="18.051087004507075"><ele>73.0</ele><time>2026-04-21T20:24:12.953Z</time></trkpt><trkpt lat="40.13661613005771" lon="18.051154769938396"><ele>73.0</ele><time>2026-04-21T20:24:13.953Z</time></trkpt><trkpt lat="40.136380439041545" lon="18.051226783279706"><ele>73.0</ele><time>2026-04-21T20:24:14.953Z</time></trkpt><trkpt lat="40.13614705989139" lon="18.051302865901842"><ele>73.0</ele><time>2026-04-21T20:24:15.953Z</time></trkpt><trkpt lat="40.1359146561809" lon="18.05137864962882"><ele>73.0</ele><time>2026-04-21T20:24:16.953Z</time></trkpt><trkpt lat="40.13568168696913" lon="18.051448444117295"><ele>75.0</ele><time>2026-04-21T20:24:17.953Z</time></trkpt><trkpt lat="40.13545075810089" lon="18.05151839809543"><ele>77.0</ele><time>2026-04-21T20:24:18.953Z</time></trkpt><trkpt lat="40.13521696192833" lon="18.05159163455628"><ele>76.0</ele><time>2026-04-21T20:24:19.953Z</time></trkpt><trkpt lat="40.13497987251703" lon="18.05166786935663"><ele>75.0</ele><time>2026-04-21T20:24:20.953Z</time></trkpt><trkpt lat="40.13474521361079" lon="18.051747890317493"><ele>77.0</ele><time>2026-04-21T20:24:21.953Z</time></trkpt><trkpt lat="40.1345090420758" lon="18.051825991626536"><ele>79.0</ele><time>2026-04-21T20:24:22.953Z</time></trkpt><trkpt lat="40.13427288489457" lon="18.051901662321963"><ele>79.5</ele><time>2026-04-21T20:24:23.953Z</time></trkpt><trkpt lat="40.134040455937324" lon="18.051978819429102"><ele>80.0</ele><time>2026-04-21T20:24:24.953Z</time></trkpt><trkpt lat="40.13381085322164" lon="18.052055880937175"><ele>80.0</ele><time>2026-04-21T20:24:25.953Z</time></trkpt><trkpt lat="40.133580756546756" lon="18.052130236507228"><ele>80.0</ele><time>2026-04-21T20:24:26.953Z</time></trkpt><trkpt lat="40.13335340217803" lon="18.052209863621524"><ele>80.5</ele><time>2026-04-21T20:24:27.953Z</time></trkpt><trkpt lat="40.133123922312116" lon="18.052285376333714"><ele>81.0</ele><time>2026-04-21T20:24:28.953Z</time></trkpt><trkpt lat="40.13288527030296" lon="18.05235598357801"><ele>81.0</ele><time>2026-04-21T20:24:29.953Z</time></trkpt><trkpt lat="40.13264615331871" lon="18.052416965757384"><ele>81.0</ele><time>2026-04-21T20:24:30.953Z</time></trkpt><trkpt lat="40.13240910719483" lon="18.052480047456825"><ele>81.5</ele><time>2026-04-21T20:24:31.953Z</time></trkpt><trkpt lat="40.13217429431597" lon="18.052547132023776"><ele>82.0</ele><time>2026-04-21T20:24:32.953Z</time></trkpt><trkpt lat="40.13193732911014" lon="18.05261472988643"><ele>82.0</ele><time>2026-04-21T20:24:33.953Z</time></trkpt><trkpt lat="40.13169969251843" lon="18.05268273918131"><ele>82.0</ele><time>2026-04-21T20:24:34.953Z</time></trkpt><trkpt lat="40.13146391010317" lon="18.052752751685222"><ele>82.5</ele><time>2026-04-21T20:24:35.953Z</time></trkpt><trkpt lat="40.13122831412758" lon="18.05282333400788"><ele>83.0</ele><time>2026-04-21T20:24:36.953Z</time></trkpt><trkpt lat="40.13099672051776" lon="18.05288913683147"><ele>83.0</ele><time>2026-04-21T20:24:37.953Z</time></trkpt><trkpt lat="40.13076385274857" lon="18.05295052917977"><ele>83.0</ele><time>2026-04-21T20:24:38.953Z</time></trkpt><trkpt lat="40.13053167881631" lon="18.05300490027413"><ele>84.0</ele><time>2026-04-21T20:24:39.953Z</time></trkpt><trkpt lat="40.13029974169696" lon="18.053054300738687"><ele>85.0</ele><time>2026-04-21T20:24:40.953Z</time></trkpt><trkpt lat="40.130059025475816" lon="18.05308497948146"><ele>85.0</ele><time>2026-04-21T20:24:41.953Z</time></trkpt><trkpt lat="40.129814179875304" lon="18.053111632875527"><ele>85.0</ele><time>2026-04-21T20:24:42.953Z</time></trkpt><trkpt lat="40.12957029772128" lon="18.053134418856637"><ele>85.0</ele><time>2026-04-21T20:24:43.953Z</time></trkpt><trkpt lat="40.12932798773146" lon="18.053152486790424"><ele>85.0</ele><time>2026-04-21T20:24:44.953Z</time></trkpt><trkpt lat="40.12908628703737" lon="18.05316069569724"><ele>85.0</ele><time>2026-04-21T20:24:45.952Z</time></trkpt><trkpt lat="40.12884686804495" lon="18.0531564043025"><ele>85.0</ele><time>2026-04-21T20:24:46.952Z</time></trkpt><trkpt lat="40.12860038945488" lon="18.05313933971098"><ele>85.0</ele><time>2026-04-21T20:24:47.952Z</time></trkpt><trkpt lat="40.128352431955264" lon="18.053119459848745"><ele>85.0</ele><time>2026-04-21T20:24:48.952Z</time></trkpt><trkpt lat="40.1281076784934" lon="18.053089663440677"><ele>84.5</ele><time>2026-04-21T20:24:49.952Z</time></trkpt><trkpt lat="40.12786389371599" lon="18.053050981475067"><ele>84.0</ele><time>2026-04-21T20:24:50.952Z</time></trkpt><trkpt lat="40.12762466019031" lon="18.0530051637167"><ele>86.0</ele><time>2026-04-21T20:24:51.952Z</time></trkpt><trkpt lat="40.127387135014935" lon="18.05295081208615"><ele>88.0</ele><time>2026-04-21T20:24:52.952Z</time></trkpt><trkpt lat="40.12714883804459" lon="18.05288377651146"><ele>88.0</ele><time>2026-04-21T20:24:53.952Z</time></trkpt><trkpt lat="40.12691376714718" lon="18.052811906844898"><ele>88.0</ele><time>2026-04-21T20:24:54.952Z</time></trkpt><trkpt lat="40.126678479369616" lon="18.052730828850375"><ele>88.5</ele><time>2026-04-21T20:24:55.952Z</time></trkpt><trkpt lat="40.126445319149866" lon="18.052644788895513"><ele>89.0</ele><time>2026-04-21T20:24:56.952Z</time></trkpt><trkpt lat="40.12621500394986" lon="18.05255161352057"><ele>88.0</ele><time>2026-04-21T20:24:57.952Z</time></trkpt><trkpt lat="40.12598610354949" lon="18.052450124064627"><ele>87.0</ele><time>2026-04-21T20:24:58.952Z</time></trkpt><trkpt lat="40.1257596192967" lon="18.052333551243173"><ele>86.5</ele><time>2026-04-21T20:24:59.952Z</time></trkpt><trkpt lat="40.1255348621312" lon="18.05220618398423"><ele>86.0</ele><time>2026-04-21T20:25:00.952Z</time></trkpt><trkpt lat="40.125314133822286" lon="18.052073420666538"><ele>86.0</ele><time>2026-04-21T20:25:01.952Z</time></trkpt><trkpt lat="40.1250954252945" lon="18.051935384090743"><ele>86.0</ele><time>2026-04-21T20:25:02.952Z</time></trkpt><trkpt lat="40.1248790863112" lon="18.051792957753158"><ele>86.0</ele><time>2026-04-21T20:25:03.952Z</time></trkpt><trkpt lat="40.12467017860112" lon="18.051642622760568"><ele>86.0</ele><time>2026-04-21T20:25:04.952Z</time></trkpt><trkpt lat="40.12446274656073" lon="18.05147945671658"><ele>85.5</ele><time>2026-04-21T20:25:05.952Z</time></trkpt><trkpt lat="40.1242558539752" lon="18.05130967235106"><ele>85.0</ele><time>2026-04-21T20:25:06.952Z</time></trkpt><trkpt lat="40.124050306649224" lon="18.051139100392795"><ele>85.0</ele><time>2026-04-21T20:25:07.952Z</time></trkpt><trkpt lat="40.12384713577678" lon="18.050964044376546"><ele>85.0</ele><time>2026-04-21T20:25:08.952Z</time></trkpt><trkpt lat="40.123646039926804" lon="18.050785204486097"><ele>85.0</ele><time>2026-04-21T20:25:09.952Z</time></trkpt><trkpt lat="40.12344730555653" lon="18.050603971310576"><ele>85.0</ele><time>2026-04-21T20:25:10.952Z</time></trkpt><trkpt lat="40.12324317796439" lon="18.050437141629036"><ele>84.5</ele><time>2026-04-21T20:25:11.952Z</time></trkpt><trkpt lat="40.12305190646225" lon="18.050276213074657"><ele>84.0</ele><time>2026-04-21T20:25:12.952Z</time></trkpt><trkpt lat="40.12286812375326" lon="18.050111657404667"><ele>84.0</ele><time>2026-04-21T20:25:13.952Z</time></trkpt><trkpt lat="40.12268564073414" lon="18.049959819770432"><ele>84.0</ele><time>2026-04-21T20:25:14.952Z</time></trkpt><trkpt lat="40.12252594296457" lon="18.049812501992218"><ele>84.0</ele><time>2026-04-21T20:25:15.952Z</time></trkpt><trkpt lat="40.12237294686798" lon="18.049663104365813"><ele>84.33333333333333</ele><time>2026-04-21T20:25:16.952Z</time></trkpt><trkpt lat="40.12221569685155" lon="18.049519745768688"><ele>84.66666666666666</ele><time>2026-04-21T20:25:17.952Z</time></trkpt><trkpt lat="40.12205951901489" lon="18.04938122021165"><ele>85.0</ele><time>2026-04-21T20:25:18.952Z</time></trkpt><trkpt lat="40.12190908822019" lon="18.049244598751706"><ele>84.66666666666666</ele><time>2026-04-21T20:25:19.952Z</time></trkpt><trkpt lat="40.12176294480113" lon="18.049104788240765"><ele>84.33333333333333</ele><time>2026-04-21T20:25:20.952Z</time></trkpt><trkpt lat="40.121627511136616" lon="18.048963700986175"><ele>84.0</ele><time>2026-04-21T20:25:21.952Z</time></trkpt><trkpt lat="40.121508894818106" lon="18.048824399449455"><ele>83.5</ele><time>2026-04-21T20:25:22.952Z</time></trkpt><trkpt lat="40.12140271634777" lon="18.048704599323333"><ele>83.0</ele><time>2026-04-21T20:25:23.952Z</time></trkpt><trkpt lat="40.1213054339047" lon="18.04862887443313"><ele>82.5</ele><time>2026-04-21T20:25:24.952Z</time></trkpt><trkpt lat="40.12122833398527" lon="18.048560394467877"><ele>82.0</ele><time>2026-04-21T20:25:25.952Z</time></trkpt><trkpt lat="40.12109982271054" lon="18.04850677500565"><ele>82.0</ele><time>2026-04-21T20:25:26.952Z</time></trkpt><trkpt lat="40.121082589830536" lon="18.048415193484438"><ele>82.0</ele><time>2026-04-21T20:25:27.952Z</time></trkpt><trkpt lat="40.12132371366117" lon="18.04813070187404"><ele>82.0</ele><time>2026-04-21T20:25:28.952Z</time></trkpt><trkpt lat="40.12141198690016" lon="18.048016299574353"><ele>81.5</ele><time>2026-04-21T20:25:29.952Z</time></trkpt><trkpt lat="40.1215466102312" lon="18.0478768048952"><ele>81.0</ele><time>2026-04-21T20:25:30.952Z</time></trkpt><trkpt lat="40.12054272975457" lon="18.047445790255654"><ele>81.0</ele><time>2026-04-21T20:25:31.952Z</time></trkpt><trkpt lat="40.120451502826995" lon="18.047230063722314"><ele>81.0</ele><time>2026-04-21T20:25:32.952Z</time></trkpt><trkpt lat="40.120355485890634" lon="18.047020283851165"><ele>81.0</ele><time>2026-04-21T20:25:33.952Z</time></trkpt><trkpt lat="40.120277902990615" lon="18.04683476992769"><ele>81.0</ele><time>2026-04-21T20:25:34.952Z</time></trkpt><trkpt lat="40.12020382121752" lon="18.046661411022132"><ele>81.0</ele><time>2026-04-21T20:25:35.952Z</time></trkpt><trkpt lat="40.120129461734706" lon="18.046496330556895"><ele>81.0</ele><time>2026-04-21T20:25:36.952Z</time></trkpt><trkpt lat="40.12003870422603" lon="18.046344369120213"><ele>81.0</ele><time>2026-04-21T20:25:37.952Z</time></trkpt><trkpt lat="40.119935461669854" lon="18.04621343180026"><ele>80.75</ele><time>2026-04-21T20:25:38.952Z</time></trkpt><trkpt lat="40.11981033194273" lon="18.046105482601536"><ele>80.5</ele><time>2026-04-21T20:25:39.952Z</time></trkpt><trkpt lat="40.11967899920347" lon="18.046015012104633"><ele>80.25</ele><time>2026-04-21T20:25:40.952Z</time></trkpt><trkpt lat="40.11953600016339" lon="18.04596099565092"><ele>80.0</ele><time>2026-04-21T20:25:41.952Z</time></trkpt><trkpt lat="40.11938518116092" lon="18.045947257498092"><ele>80.0</ele><time>2026-04-21T20:25:42.952Z</time></trkpt><trkpt lat="40.119238098816254" lon="18.04595815183445"><ele>80.0</ele><time>2026-04-21T20:25:43.952Z</time></trkpt><trkpt lat="40.119089161802435" lon="18.045985763322587"><ele>80.0</ele><time>2026-04-21T20:25:44.951Z</time></trkpt><trkpt lat="40.11894155669528" lon="18.046041220769837"><ele>80.0</ele><time>2026-04-21T20:25:45.951Z</time></trkpt><trkpt lat="40.118796679020605" lon="18.04613303054754"><ele>80.0</ele><time>2026-04-21T20:25:46.951Z</time></trkpt><trkpt lat="40.11865621551401" lon="18.04623942554324"><ele>80.0</ele><time>2026-04-21T20:25:47.951Z</time></trkpt><trkpt lat="40.11851418057723" lon="18.04635308210002"><ele>80.0</ele><time>2026-04-21T20:25:48.951Z</time></trkpt><trkpt lat="40.118368866185676" lon="18.04648007124175"><ele>80.0</ele><time>2026-04-21T20:25:49.951Z</time></trkpt><trkpt lat="40.118212452445086" lon="18.046610615913963"><ele>80.0</ele><time>2026-04-21T20:25:50.952Z</time></trkpt><trkpt lat="40.11803781048153" lon="18.046752580541586"><ele>80.33333333333334</ele><time>2026-04-21T20:25:51.952Z</time></trkpt><trkpt lat="40.11785627051431" lon="18.046903930053865"><ele>80.66666666666667</ele><time>2026-04-21T20:25:52.952Z</time></trkpt><trkpt lat="40.117667505753985" lon="18.047052872420704"><ele>81.0</ele><time>2026-04-21T20:25:53.953Z</time></trkpt><trkpt lat="40.11746988664588" lon="18.047240779153178"><ele>81.0</ele><time>2026-04-21T20:25:54.952Z</time></trkpt><trkpt lat="40.117267733555934" lon="18.047395212061108"><ele>81.0</ele><time>2026-04-21T20:25:55.952Z</time></trkpt><trkpt lat="40.11705552177227" lon="18.047554151026212"><ele>81.0</ele><time>2026-04-21T20:25:56.953Z</time></trkpt><trkpt lat="40.11684211349174" lon="18.047717936944938"><ele>81.0</ele><time>2026-04-21T20:25:57.953Z</time></trkpt><trkpt lat="40.11662460893463" lon="18.04788119147243"><ele>80.5</ele><time>2026-04-21T20:25:58.953Z</time></trkpt><trkpt lat="40.11640673170001" lon="18.048043872652833"><ele>80.0</ele><time>2026-04-21T20:25:59.953Z</time></trkpt><trkpt lat="40.11619745490583" lon="18.048205352242615"><ele>80.0</ele><time>2026-04-21T20:26:00.953Z</time></trkpt><trkpt lat="40.11597811546464" lon="18.048365009155884"><ele>80.0</ele><time>2026-04-21T20:26:01.953Z</time></trkpt><trkpt lat="40.115766562630895" lon="18.04852427300669"><ele>80.0</ele><time>2026-04-21T20:26:02.952Z</time></trkpt><trkpt lat="40.115552819604034" lon="18.04868439569408"><ele>80.0</ele><time>2026-04-21T20:26:03.952Z</time></trkpt><trkpt lat="40.11534427416433" lon="18.048846226946623"><ele>80.0</ele><time>2026-04-21T20:26:04.952Z</time></trkpt><trkpt lat="40.115133452897645" lon="18.04900515969502"><ele>80.0</ele><time>2026-04-21T20:26:05.952Z</time></trkpt><trkpt lat="40.114923200767436" lon="18.049167966187333"><ele>81.0</ele><time>2026-04-21T20:26:06.952Z</time></trkpt><trkpt lat="40.1147121541538" lon="18.049325113497172"><ele>82.0</ele><time>2026-04-21T20:26:07.952Z</time></trkpt><trkpt lat="40.11450718811699" lon="18.049487856710293"><ele>82.0</ele><time>2026-04-21T20:26:08.952Z</time></trkpt><trkpt lat="40.11429943534661" lon="18.04964889261125"><ele>82.0</ele><time>2026-04-21T20:26:09.952Z</time></trkpt><trkpt lat="40.114091377682136" lon="18.04980407011771"><ele>82.5</ele><time>2026-04-21T20:26:10.952Z</time></trkpt><trkpt lat="40.11388542507333" lon="18.049962145050525"><ele>83.0</ele><time>2026-04-21T20:26:11.952Z</time></trkpt><trkpt lat="40.11368003899678" lon="18.050116981522326"><ele>83.0</ele><time>2026-04-21T20:26:12.952Z</time></trkpt><trkpt lat="40.11347493955697" lon="18.050271517606546"><ele>83.0</ele><time>2026-04-21T20:26:13.952Z</time></trkpt><trkpt lat="40.113275625192195" lon="18.05042085021991"><ele>83.0</ele><time>2026-04-21T20:26:14.952Z</time></trkpt><trkpt lat="40.11308384319067" lon="18.050565556640045"><ele>83.0</ele><time>2026-04-21T20:26:15.952Z</time></trkpt><trkpt lat="40.112898110973234" lon="18.050714155739865"><ele>83.0</ele><time>2026-04-21T20:26:16.952Z</time></trkpt><trkpt lat="40.11270885170998" lon="18.050858752770836"><ele>83.0</ele><time>2026-04-21T20:26:17.952Z</time></trkpt><trkpt lat="40.11252374144689" lon="18.051002861073947"><ele>83.0</ele><time>2026-04-21T20:26:18.952Z</time></trkpt><trkpt lat="40.112334903244125" lon="18.051142466930205"><ele>83.0</ele><time>2026-04-21T20:26:19.952Z</time></trkpt><trkpt lat="40.11214973988502" lon="18.05128499916656"><ele>83.0</ele><time>2026-04-21T20:26:20.952Z</time></trkpt><trkpt lat="40.11196366393708" lon="18.051421989922932"><ele>83.0</ele><time>2026-04-21T20:26:21.952Z</time></trkpt><trkpt lat="40.11178075434238" lon="18.051561384384854"><ele>83.0</ele><time>2026-04-21T20:26:22.952Z</time></trkpt><trkpt lat="40.11160083082827" lon="18.051705241192828"><ele>83.0</ele><time>2026-04-21T20:26:23.952Z</time></trkpt><trkpt lat="40.11141827260694" lon="18.051845536939336"><ele>83.0</ele><time>2026-04-21T20:26:24.952Z</time></trkpt><trkpt lat="40.11123816881764" lon="18.051989293041892"><ele>83.0</ele><time>2026-04-21T20:26:25.952Z</time></trkpt><trkpt lat="40.11105805355621" lon="18.05213143179896"><ele>83.0</ele><time>2026-04-21T20:26:26.952Z</time></trkpt><trkpt lat="40.110878001043794" lon="18.052274268804055"><ele>83.0</ele><time>2026-04-21T20:26:27.952Z</time></trkpt><trkpt lat="40.110696887112184" lon="18.05241523475205"><ele>83.0</ele><time>2026-04-21T20:26:28.952Z</time></trkpt><trkpt lat="40.11051204817271" lon="18.052561750541216"><ele>83.33333333333334</ele><time>2026-04-21T20:26:29.952Z</time></trkpt><trkpt lat="40.11032787375951" lon="18.052707296064263"><ele>83.66666666666667</ele><time>2026-04-21T20:26:30.952Z</time></trkpt><trkpt lat="40.110142117401786" lon="18.05285235260299"><ele>84.0</ele><time>2026-04-21T20:26:31.952Z</time></trkpt><trkpt lat="40.109953450420164" lon="18.052996286355224"><ele>83.66666666666667</ele><time>2026-04-21T20:26:32.952Z</time></trkpt><trkpt lat="40.10976121381182" lon="18.05314416107524"><ele>83.33333333333334</ele><time>2026-04-21T20:26:33.952Z</time></trkpt><trkpt lat="40.10956832468547" lon="18.053294031691852"><ele>83.0</ele><time>2026-04-21T20:26:34.952Z</time></trkpt><trkpt lat="40.1093764237962" lon="18.05344587912945"><ele>83.0</ele><time>2026-04-21T20:26:35.952Z</time></trkpt><trkpt lat="40.10917976659245" lon="18.053594402473173"><ele>83.0</ele><time>2026-04-21T20:26:36.952Z</time></trkpt><trkpt lat="40.108981359905194" lon="18.053748149365795"><ele>82.5</ele><time>2026-04-21T20:26:37.952Z</time></trkpt><trkpt lat="40.108778581515665" lon="18.053899921845645"><ele>82.0</ele><time>2026-04-21T20:26:38.952Z</time></trkpt><trkpt lat="40.108578625304034" lon="18.054053985183362"><ele>82.5</ele><time>2026-04-21T20:26:39.952Z</time></trkpt><trkpt lat="40.10837349608088" lon="18.054207372319055"><ele>83.0</ele><time>2026-04-21T20:26:40.952Z</time></trkpt><trkpt lat="40.10817199669544" lon="18.054361813203204"><ele>82.0</ele><time>2026-04-21T20:26:41.952Z</time></trkpt><trkpt lat="40.10797076712652" lon="18.054518339953212"><ele>81.0</ele><time>2026-04-21T20:26:42.952Z</time></trkpt><trkpt lat="40.10776865242006" lon="18.054673899232693"><ele>81.0</ele><time>2026-04-21T20:26:43.952Z</time></trkpt><trkpt lat="40.107571506872745" lon="18.054828581457627"><ele>81.0</ele><time>2026-04-21T20:26:44.952Z</time></trkpt><trkpt lat="40.10737337048262" lon="18.05497576201897"><ele>81.0</ele><time>2026-04-21T20:26:45.952Z</time></trkpt><trkpt lat="40.107174436787204" lon="18.05512545676757"><ele>81.0</ele><time>2026-04-21T20:26:46.952Z</time></trkpt><trkpt lat="40.10697930791555" lon="18.055279625814155"><ele>81.0</ele><time>2026-04-21T20:26:47.952Z</time></trkpt><trkpt lat="40.106784331528004" lon="18.05542899819279"><ele>81.0</ele><time>2026-04-21T20:26:48.952Z</time></trkpt><trkpt lat="40.10658803309622" lon="18.055580890447423"><ele>80.5</ele><time>2026-04-21T20:26:49.952Z</time></trkpt><trkpt lat="40.10639071968499" lon="18.055738867271597"><ele>80.0</ele><time>2026-04-21T20:26:50.952Z</time></trkpt><trkpt lat="40.10619420570427" lon="18.05588903493869"><ele>81.0</ele><time>2026-04-21T20:26:51.952Z</time></trkpt><trkpt lat="40.10599813782997" lon="18.056032377638665"><ele>82.0</ele><time>2026-04-21T20:26:52.952Z</time></trkpt><trkpt lat="40.105800516803754" lon="18.056174491033378"><ele>80.66666666666666</ele><time>2026-04-21T20:26:53.952Z</time></trkpt><trkpt lat="40.10560812960464" lon="18.056327755377872"><ele>79.33333333333333</ele><time>2026-04-21T20:26:54.952Z</time></trkpt><trkpt lat="40.10541672764835" lon="18.05647585462834"><ele>78.0</ele><time>2026-04-21T20:26:55.952Z</time></trkpt><trkpt lat="40.10522324174686" lon="18.056627965798004"><ele>78.0</ele><time>2026-04-21T20:26:56.952Z</time></trkpt><trkpt lat="40.105027250846156" lon="18.0567809899436"><ele>78.0</ele><time>2026-04-21T20:26:57.952Z</time></trkpt><trkpt lat="40.104841156469085" lon="18.056922454875117"><ele>78.0</ele><time>2026-04-21T20:26:58.952Z</time></trkpt><trkpt lat="40.104656488347224" lon="18.05706128129225"><ele>78.33333333333333</ele><time>2026-04-21T20:26:59.951Z</time></trkpt><trkpt lat="40.10447273220938" lon="18.057211024810723"><ele>78.66666666666666</ele><time>2026-04-21T20:27:00.951Z</time></trkpt><trkpt lat="40.104282042364446" lon="18.05735813327014"><ele>79.0</ele><time>2026-04-21T20:27:01.951Z</time></trkpt><trkpt lat="40.10409663614064" lon="18.05750212139172"><ele>78.33333333333333</ele><time>2026-04-21T20:27:02.951Z</time></trkpt><trkpt lat="40.103918692590696" lon="18.057644793060305"><ele>77.66666666666667</ele><time>2026-04-21T20:27:03.951Z</time></trkpt><trkpt lat="40.10374759237357" lon="18.057765791090898"><ele>77.0</ele><time>2026-04-21T20:27:04.951Z</time></trkpt><trkpt lat="40.10359268500324" lon="18.05788342621235"><ele>77.0</ele><time>2026-04-21T20:27:05.951Z</time></trkpt><trkpt lat="40.10345123631129" lon="18.057992267026425"><ele>77.0</ele><time>2026-04-21T20:27:06.951Z</time></trkpt><trkpt lat="40.10331368255051" lon="18.058091539275875"><ele>77.0</ele><time>2026-04-21T20:27:07.951Z</time></trkpt><trkpt lat="40.10318268281625" lon="18.058188177447214"><ele>76.25</ele><time>2026-04-21T20:27:08.951Z</time></trkpt><trkpt lat="40.10306737635427" lon="18.05828014790624"><ele>75.5</ele><time>2026-04-21T20:27:09.951Z</time></trkpt><trkpt lat="40.10296226476816" lon="18.058364014631472"><ele>74.75</ele><time>2026-04-21T20:27:10.951Z</time></trkpt><trkpt lat="40.10286829799873" lon="18.058439691002043"><ele>74.0</ele><time>2026-04-21T20:27:11.951Z</time></trkpt><trkpt lat="40.10277281688936" lon="18.05851723356466"><ele>74.4</ele><time>2026-04-21T20:27:12.951Z</time></trkpt><trkpt lat="40.10267887637109" lon="18.058592446222814"><ele>74.80000000000001</ele><time>2026-04-21T20:27:13.951Z</time></trkpt><trkpt lat="40.10259399972363" lon="18.058664142836946"><ele>75.19999999999999</ele><time>2026-04-21T20:27:14.951Z</time></trkpt><trkpt lat="40.102519676906184" lon="18.058723778699363"><ele>75.6</ele><time>2026-04-21T20:27:15.951Z</time></trkpt><trkpt lat="40.10245032038203" lon="18.05875481422552"><ele>76.0</ele><time>2026-04-21T20:27:16.951Z</time></trkpt><trkpt lat="40.10235030171977" lon="18.058770251094856"><ele>76.0</ele><time>2026-04-21T20:27:18.951Z</time></trkpt><trkpt lat="40.10227284344399" lon="18.05867056168159"><ele>76.0</ele><time>2026-04-21T20:27:19.951Z</time></trkpt><trkpt lat="40.10219905079243" lon="18.058583307109732"><ele>76.0</ele><time>2026-04-21T20:27:20.951Z</time></trkpt><trkpt lat="40.102088809243206" lon="18.05844771684847"><ele>76.0</ele><time>2026-04-21T20:27:21.951Z</time></trkpt><trkpt lat="40.10195789575402" lon="18.058302633230326"><ele>75.0</ele><time>2026-04-21T20:27:22.951Z</time></trkpt><trkpt lat="40.1018101096528" lon="18.058131990814978"><ele>74.0</ele><time>2026-04-21T20:27:23.951Z</time></trkpt><trkpt lat="40.10163751671722" lon="18.05794806639496"><ele>73.0</ele><time>2026-04-21T20:27:24.951Z</time></trkpt><trkpt lat="40.10145836003693" lon="18.057756732505922"><ele>72.66666666666666</ele><time>2026-04-21T20:27:25.951Z</time></trkpt><trkpt lat="40.101295557966345" lon="18.057589626959246"><ele>72.33333333333333</ele><time>2026-04-21T20:27:26.951Z</time></trkpt><trkpt lat="40.10114401602139" lon="18.057449801367113"><ele>72.0</ele><time>2026-04-21T20:27:27.951Z</time></trkpt><trkpt lat="40.10099484862056" lon="18.05732083707464"><ele>72.0</ele><time>2026-04-21T20:27:28.951Z</time></trkpt><trkpt lat="40.10083311503909" lon="18.05719793809354"><ele>72.0</ele><time>2026-04-21T20:27:29.951Z</time></trkpt><trkpt lat="40.100681306321064" lon="18.057089114938808"><ele>72.0</ele><time>2026-04-21T20:27:30.951Z</time></trkpt><trkpt lat="40.10052342013172" lon="18.056994558142247"><ele>71.0</ele><time>2026-04-21T20:27:31.951Z</time></trkpt><trkpt lat="40.100351617257" lon="18.0569239166333"><ele>70.0</ele><time>2026-04-21T20:27:32.951Z</time></trkpt><trkpt lat="40.10017135452949" lon="18.056880879890336"><ele>69.0</ele><time>2026-04-21T20:27:33.951Z</time></trkpt><trkpt lat="40.09998400081366" lon="18.056849886593596"><ele>68.66666666666667</ele><time>2026-04-21T20:27:34.951Z</time></trkpt><trkpt lat="40.09980909040761" lon="18.056823087781698"><ele>68.33333333333334</ele><time>2026-04-21T20:27:35.951Z</time></trkpt><trkpt lat="40.09963033011044" lon="18.056819842442795"><ele>68.0</ele><time>2026-04-21T20:27:36.951Z</time></trkpt><trkpt lat="40.099441244988945" lon="18.056850715114706"><ele>68.0</ele><time>2026-04-21T20:27:37.951Z</time></trkpt><trkpt lat="40.09925876880793" lon="18.056903813337627"><ele>68.0</ele><time>2026-04-21T20:27:38.951Z</time></trkpt><trkpt lat="40.09908498389102" lon="18.056987801092564"><ele>68.0</ele><time>2026-04-21T20:27:39.951Z</time></trkpt><trkpt lat="40.09890474246883" lon="18.057100891859506"><ele>67.66666666666667</ele><time>2026-04-21T20:27:40.951Z</time></trkpt><trkpt lat="40.098707228861954" lon="18.05722357934468"><ele>67.33333333333333</ele><time>2026-04-21T20:27:41.951Z</time></trkpt><trkpt lat="40.09849962278794" lon="18.05735365741995"><ele>67.0</ele><time>2026-04-21T20:27:42.951Z</time></trkpt><trkpt lat="40.098290775870794" lon="18.057479213372652"><ele>67.33333333333333</ele><time>2026-04-21T20:27:43.951Z</time></trkpt><trkpt lat="40.09809966224823" lon="18.057582530728805"><ele>67.66666666666667</ele><time>2026-04-21T20:27:44.951Z</time></trkpt><trkpt lat="40.09794418816531" lon="18.057667766995756"><ele>68.0</ele><time>2026-04-21T20:27:45.951Z</time></trkpt><trkpt lat="40.097826817034964" lon="18.057737771370448"><ele>68.0</ele><time>2026-04-21T20:27:46.951Z</time></trkpt><trkpt lat="40.097720675845636" lon="18.05779923514675"><ele>68.0</ele><time>2026-04-21T20:27:47.951Z</time></trkpt><trkpt lat="40.09762996106497" lon="18.057837418053"><ele>68.0</ele><time>2026-04-21T20:27:48.951Z</time></trkpt><trkpt lat="40.097562323803146" lon="18.057851260633857"><ele>68.0</ele><time>2026-04-21T20:27:49.951Z</time></trkpt><trkpt lat="40.09749889863089" lon="18.057872546094465"><ele>68.0</ele><time>2026-04-21T20:27:51.951Z</time></trkpt><trkpt lat="40.09741715529235" lon="18.057894710736957"><ele>68.0</ele><time>2026-04-21T20:27:53.951Z</time></trkpt><trkpt lat="40.097303655996654" lon="18.05796314989375"><ele>67.75</ele><time>2026-04-21T20:27:55.951Z</time></trkpt><trkpt lat="40.097233276791634" lon="18.058035091865104"><ele>67.5</ele><time>2026-04-21T20:27:56.952Z</time></trkpt><trkpt lat="40.09715376138603" lon="18.058146942239723"><ele>67.25</ele><time>2026-04-21T20:27:57.952Z</time></trkpt><trkpt lat="40.09707360850627" lon="18.05828896001956"><ele>67.0</ele><time>2026-04-21T20:27:58.952Z</time></trkpt><trkpt lat="40.09699029640286" lon="18.058449831247376"><ele>67.0</ele><time>2026-04-21T20:27:59.951Z</time></trkpt><trkpt lat="40.09689861592058" lon="18.0585941258406"><ele>67.0</ele><time>2026-04-21T20:28:00.952Z</time></trkpt><trkpt lat="40.096839038697716" lon="18.0587448437861"><ele>67.0</ele><time>2026-04-21T20:28:01.952Z</time></trkpt><trkpt lat="40.09676647636273" lon="18.05886960882838"><ele>67.0</ele><time>2026-04-21T20:28:02.951Z</time></trkpt><trkpt lat="40.096693652057034" lon="18.058998738421415"><ele>67.25</ele><time>2026-04-21T20:28:03.951Z</time></trkpt><trkpt lat="40.09662032119231" lon="18.059132117468383"><ele>67.5</ele><time>2026-04-21T20:28:04.951Z</time></trkpt><trkpt lat="40.09654643819388" lon="18.059258175298456"><ele>67.75</ele><time>2026-04-21T20:28:05.951Z</time></trkpt><trkpt lat="40.09647451698053" lon="18.059387677359506"><ele>68.0</ele><time>2026-04-21T20:28:06.951Z</time></trkpt><trkpt lat="40.09640834122815" lon="18.05950802106392"><ele>67.25</ele><time>2026-04-21T20:28:07.951Z</time></trkpt><trkpt lat="40.096340303670274" lon="18.059627893833465"><ele>66.5</ele><time>2026-04-21T20:28:08.951Z</time></trkpt><trkpt lat="40.09626284537862" lon="18.059753358738227"><ele>65.75</ele><time>2026-04-21T20:28:09.952Z</time></trkpt><trkpt lat="40.09617166486374" lon="18.05987264718031"><ele>65.0</ele><time>2026-04-21T20:28:10.952Z</time></trkpt><trkpt lat="40.09607503511647" lon="18.05999125355197"><ele>65.0</ele><time>2026-04-21T20:28:11.952Z</time></trkpt><trkpt lat="40.09596904832945" lon="18.06011754846329"><ele>65.0</ele><time>2026-04-21T20:28:12.952Z</time></trkpt><trkpt lat="40.0958515051578" lon="18.060242937207118"><ele>65.0</ele><time>2026-04-21T20:28:13.952Z</time></trkpt><trkpt lat="40.09572808504723" lon="18.060350661044826"><ele>65.0</ele><time>2026-04-21T20:28:14.952Z</time></trkpt><trkpt lat="40.09559975294677" lon="18.060449462468096"><ele>64.66666666666667</ele><time>2026-04-21T20:28:15.952Z</time></trkpt><trkpt lat="40.09546179964694" lon="18.06053510972625"><ele>64.33333333333333</ele><time>2026-04-21T20:28:16.952Z</time></trkpt><trkpt lat="40.09529675909611" lon="18.06062565717871"><ele>64.0</ele><time>2026-04-21T20:28:17.952Z</time></trkpt><trkpt lat="40.095124400853905" lon="18.0607051805427"><ele>64.0</ele><time>2026-04-21T20:28:18.951Z</time></trkpt><trkpt lat="40.09496807209425" lon="18.06076759060714"><ele>64.0</ele><time>2026-04-21T20:28:19.951Z</time></trkpt><trkpt lat="40.094820217356904" lon="18.06081875489379"><ele>64.0</ele><time>2026-04-21T20:28:20.951Z</time></trkpt><trkpt lat="40.09466781794202" lon="18.060852504090235"><ele>64.33333333333333</ele><time>2026-04-21T20:28:21.951Z</time></trkpt><trkpt lat="40.09451376451557" lon="18.06086560144626"><ele>64.66666666666667</ele><time>2026-04-21T20:28:22.951Z</time></trkpt><trkpt lat="40.09435474430129" lon="18.06087761841472"><ele>65.0</ele><time>2026-04-21T20:28:23.951Z</time></trkpt><trkpt lat="40.09418173170324" lon="18.06086428513719"><ele>65.0</ele><time>2026-04-21T20:28:24.951Z</time></trkpt><trkpt lat="40.09400571530367" lon="18.060826985745365"><ele>65.0</ele><time>2026-04-21T20:28:25.951Z</time></trkpt><trkpt lat="40.09381905336668" lon="18.060770870802724"><ele>65.0</ele><time>2026-04-21T20:28:26.951Z</time></trkpt><trkpt lat="40.0936535866587" lon="18.060671775838674"><ele>65.0</ele><time>2026-04-21T20:28:27.951Z</time></trkpt><trkpt lat="40.093490410685256" lon="18.0605837668774"><ele>65.0</ele><time>2026-04-21T20:28:28.951Z</time></trkpt><trkpt lat="40.093327523703294" lon="18.060480340909017"><ele>65.0</ele><time>2026-04-21T20:28:29.951Z</time></trkpt><trkpt lat="40.09318633666101" lon="18.06037929854849"><ele>64.0</ele><time>2026-04-21T20:28:30.951Z</time></trkpt><trkpt lat="40.093045682893795" lon="18.06026942820529"><ele>63.0</ele><time>2026-04-21T20:28:31.951Z</time></trkpt><trkpt lat="40.09293881677504" lon="18.0601757341762"><ele>62.0</ele><time>2026-04-21T20:28:32.951Z</time></trkpt><trkpt lat="40.09280649199939" lon="18.060061443382434"><ele>62.0</ele><time>2026-04-21T20:28:33.951Z</time></trkpt><trkpt lat="40.092676225632914" lon="18.05996672911363"><ele>62.0</ele><time>2026-04-21T20:28:34.951Z</time></trkpt><trkpt lat="40.09253829926022" lon="18.059889700174207"><ele>62.0</ele><time>2026-04-21T20:28:35.951Z</time></trkpt><trkpt lat="40.09240250829871" lon="18.0598404986064"><ele>62.0</ele><time>2026-04-21T20:28:37.951Z</time></trkpt><trkpt lat="40.09231816787997" lon="18.05982139661576"><ele>61.66666666666667</ele><time>2026-04-21T20:28:38.951Z</time></trkpt><trkpt lat="40.092239937584395" lon="18.059809668233886"><ele>61.333333333333336</ele><time>2026-04-21T20:28:39.951Z</time></trkpt><trkpt lat="40.092167956468344" lon="18.059846871593063"><ele>61.0</ele><time>2026-04-21T20:28:40.951Z</time></trkpt><trkpt lat="40.0920992961008" lon="18.059857467437695"><ele>60.66666666666667</ele><time>2026-04-21T20:28:41.951Z</time></trkpt><trkpt lat="40.09203464407534" lon="18.05986616989865"><ele>60.333333333333336</ele><time>2026-04-21T20:28:42.951Z</time></trkpt><trkpt lat="40.09195303705542" lon="18.059927848695278"><ele>60.0</ele><time>2026-04-21T20:28:44.951Z</time></trkpt><trkpt lat="40.09192714184564" lon="18.060037169132684"><ele>59.75</ele><time>2026-04-21T20:28:46.951Z</time></trkpt><trkpt lat="40.09201934135924" lon="18.06018038090375"><ele>59.5</ele><time>2026-04-21T20:28:48.951Z</time></trkpt><trkpt lat="40.0920960695229" lon="18.060278272601973"><ele>59.25</ele><time>2026-04-21T20:28:49.951Z</time></trkpt><trkpt lat="40.09217493723556" lon="18.060417789547508"><ele>59.0</ele><time>2026-04-21T20:28:50.951Z</time></trkpt><trkpt lat="40.09225415410711" lon="18.06060326786078"><ele>59.0</ele><time>2026-04-21T20:28:51.951Z</time></trkpt><trkpt lat="40.092326270513894" lon="18.060807540100097"><ele>59.0</ele><time>2026-04-21T20:28:52.951Z</time></trkpt><trkpt lat="40.092393842421025" lon="18.06098277436974"><ele>59.0</ele><time>2026-04-21T20:28:53.951Z</time></trkpt><trkpt lat="40.092462449942424" lon="18.061135125274795"><ele>59.400000000000006</ele><time>2026-04-21T20:28:54.951Z</time></trkpt><trkpt lat="40.09252252376152" lon="18.061273054230643"><ele>59.800000000000004</ele><time>2026-04-21T20:28:55.951Z</time></trkpt><trkpt lat="40.092572181407625" lon="18.061394907790543"><ele>60.199999999999996</ele><time>2026-04-21T20:28:56.951Z</time></trkpt><trkpt lat="40.09260970409559" lon="18.061484980688114"><ele>60.599999999999994</ele><time>2026-04-21T20:28:57.951Z</time></trkpt><trkpt lat="40.09264966785626" lon="18.061566950933557"><ele>61.0</ele><time>2026-04-21T20:28:59.951Z</time></trkpt><trkpt lat="40.092690927811276" lon="18.061674426433864"><ele>61.166666666666664</ele><time>2026-04-21T20:29:01.951Z</time></trkpt><trkpt lat="40.09272288795931" lon="18.06175154791798"><ele>61.33333333333333</ele><time>2026-04-21T20:29:02.951Z</time></trkpt><trkpt lat="40.092763855559895" lon="18.06185628724396"><ele>61.5</ele><time>2026-04-21T20:29:03.951Z</time></trkpt><trkpt lat="40.09281288064952" lon="18.061975559692158"><ele>61.66666666666667</ele><time>2026-04-21T20:29:04.951Z</time></trkpt><trkpt lat="40.092843531647254" lon="18.06209852304364"><ele>61.833333333333336</ele><time>2026-04-21T20:29:05.951Z</time></trkpt><trkpt lat="40.09287936408777" lon="18.062187434328187"><ele>62.0</ele><time>2026-04-21T20:29:06.951Z</time></trkpt><trkpt lat="40.092922119604914" lon="18.0622511810308"><ele>62.0</ele><time>2026-04-21T20:29:07.951Z</time></trkpt><trkpt lat="40.09293582138711" lon="18.06237420995778"><ele>62.0</ele><time>2026-04-21T20:29:09.951Z</time></trkpt><trkpt lat="40.0929593763424" lon="18.062471753256656"><ele>62.0</ele><time>2026-04-21T20:29:11.951Z</time></trkpt><trkpt lat="40.09277463201811" lon="18.062640110486598"><ele>62.0</ele><time>2026-04-21T20:29:12.951Z</time></trkpt><trkpt lat="40.09267680846123" lon="18.062752036591874"><ele>62.0</ele><time>2026-04-21T20:29:13.951Z</time></trkpt><trkpt lat="40.0925685701057" lon="18.062863192177122"><ele>62.0</ele><time>2026-04-21T20:29:14.951Z</time></trkpt><trkpt lat="40.092483339686154" lon="18.06295554653242"><ele>62.0</ele><time>2026-04-21T20:29:15.951Z</time></trkpt><trkpt lat="40.09238812649943" lon="18.063023454056722"><ele>62.0</ele><time>2026-04-21T20:29:16.95Z</time></trkpt><trkpt lat="40.09229252486595" lon="18.063074211232593"><ele>62.0</ele><time>2026-04-21T20:29:17.95Z</time></trkpt><trkpt lat="40.092207928890055" lon="18.063108441126303"><ele>62.0</ele><time>2026-04-21T20:29:18.95Z</time></trkpt><trkpt lat="40.092113256437855" lon="18.06311883909317"><ele>62.0</ele><time>2026-04-21T20:29:19.95Z</time></trkpt><trkpt lat="40.09200803618503" lon="18.06311631127424"><ele>62.0</ele><time>2026-04-21T20:29:20.95Z</time></trkpt><trkpt lat="40.09189190686963" lon="18.06312538000498"><ele>62.0</ele><time>2026-04-21T20:29:21.95Z</time></trkpt><trkpt lat="40.09177283937527" lon="18.06315807597087"><ele>62.0</ele><time>2026-04-21T20:29:22.95Z</time></trkpt><trkpt lat="40.091663960145894" lon="18.063193026157684"><ele>62.0</ele><time>2026-04-21T20:29:23.95Z</time></trkpt><trkpt lat="40.09156301843625" lon="18.063224171176312"><ele>62.0</ele><time>2026-04-21T20:29:24.95Z</time></trkpt><trkpt lat="40.09146259739081" lon="18.063256316935718"><ele>62.0</ele><time>2026-04-21T20:29:25.95Z</time></trkpt><trkpt lat="40.09135968176835" lon="18.06329577274969"><ele>62.0</ele><time>2026-04-21T20:29:26.95Z</time></trkpt><trkpt lat="40.09125571604477" lon="18.063325153910636"><ele>61.400000000000006</ele><time>2026-04-21T20:29:27.95Z</time></trkpt><trkpt lat="40.091156708564235" lon="18.063352082584306"><ele>60.800000000000004</ele><time>2026-04-21T20:29:28.95Z</time></trkpt><trkpt lat="40.091056445420435" lon="18.06338135893343"><ele>60.2</ele><time>2026-04-21T20:29:29.95Z</time></trkpt><trkpt lat="40.09095373488948" lon="18.063408442304265"><ele>59.6</ele><time>2026-04-21T20:29:30.95Z</time></trkpt><trkpt lat="40.090845587318334" lon="18.063443083034333"><ele>59.0</ele><time>2026-04-21T20:29:31.95Z</time></trkpt><trkpt lat="40.09073701017546" lon="18.06347343447671"><ele>59.0</ele><time>2026-04-21T20:29:32.95Z</time></trkpt><trkpt lat="40.09062420897764" lon="18.06349973922723"><ele>59.00000000000001</ele><time>2026-04-21T20:29:33.95Z</time></trkpt><trkpt lat="40.09051979214768" lon="18.06352954765437"><ele>59.00000000000001</ele><time>2026-04-21T20:29:34.95Z</time></trkpt><trkpt lat="40.09042032211986" lon="18.063556602466207"><ele>59.0</ele><time>2026-04-21T20:29:35.95Z</time></trkpt><trkpt lat="40.090321054854535" lon="18.06358939197369"><ele>59.0</ele><time>2026-04-21T20:29:36.95Z</time></trkpt><trkpt lat="40.09021163164098" lon="18.063624162692854"><ele>59.0</ele><time>2026-04-21T20:29:37.95Z</time></trkpt><trkpt lat="40.090095949048944" lon="18.06366660842891"><ele>59.0</ele><time>2026-04-21T20:29:38.95Z</time></trkpt><trkpt lat="40.0899794321391" lon="18.063716946546442"><ele>59.0</ele><time>2026-04-21T20:29:39.95Z</time></trkpt><trkpt lat="40.08985831279114" lon="18.06377516685093"><ele>59.0</ele><time>2026-04-21T20:29:40.95Z</time></trkpt><trkpt lat="40.08973068889246" lon="18.06384201792981"><ele>58.75</ele><time>2026-04-21T20:29:41.95Z</time></trkpt><trkpt lat="40.08960979321026" lon="18.06393053727431"><ele>58.5</ele><time>2026-04-21T20:29:42.95Z</time></trkpt><trkpt lat="40.08949364535246" lon="18.06403675105614"><ele>58.25</ele><time>2026-04-21T20:29:43.95Z</time></trkpt><trkpt lat="40.089373468532195" lon="18.06416679825877"><ele>58.0</ele><time>2026-04-21T20:29:44.95Z</time></trkpt><trkpt lat="40.0892565260991" lon="18.064310819434066"><ele>58.0</ele><time>2026-04-21T20:29:45.95Z</time></trkpt><trkpt lat="40.08914586987184" lon="18.064444088182334"><ele>58.0</ele><time>2026-04-21T20:29:46.95Z</time></trkpt><trkpt lat="40.089051960426744" lon="18.064545227972005"><ele>58.0</ele><time>2026-04-21T20:29:47.95Z</time></trkpt><trkpt lat="40.08898888484917" lon="18.064612170237563"><ele>58.0</ele><time>2026-04-21T20:29:48.95Z</time></trkpt><trkpt lat="40.088933069808796" lon="18.064654287051244"><ele>58.0</ele><time>2026-04-21T20:29:50.95Z</time></trkpt><trkpt lat="40.088999133587635" lon="18.064835851510036"><ele>58.0</ele><time>2026-04-21T20:29:52.95Z</time></trkpt><trkpt lat="40.089024177228644" lon="18.064958629533574"><ele>58.0</ele><time>2026-04-21T20:29:53.95Z</time></trkpt><trkpt lat="40.08906892624507" lon="18.0650978324634"><ele>58.0</ele><time>2026-04-21T20:29:54.95Z</time></trkpt><trkpt lat="40.08912141403583" lon="18.065271472336114"><ele>58.0</ele><time>2026-04-21T20:29:55.95Z</time></trkpt><trkpt lat="40.08917900053083" lon="18.065463591521677"><ele>58.0</ele><time>2026-04-21T20:29:56.95Z</time></trkpt><trkpt lat="40.08924026327587" lon="18.065667975627907"><ele>58.0</ele><time>2026-04-21T20:29:57.95Z</time></trkpt><trkpt lat="40.089289564129146" lon="18.065829599411927"><ele>58.0</ele><time>2026-04-21T20:29:58.95Z</time></trkpt><trkpt lat="40.08931634962303" lon="18.065916932594114"><ele>58.0</ele><time>2026-04-21T20:29:59.95Z</time></trkpt><trkpt lat="40.089276902601554" lon="18.066019689903925"><ele>58.599999999999994</ele><time>2026-04-21T20:30:04.95Z</time></trkpt><trkpt lat="40.08921741747165" lon="18.06607122813824"><ele>59.199999999999996</ele><time>2026-04-21T20:30:05.951Z</time></trkpt><trkpt lat="40.08912997497765" lon="18.066107531754668"><ele>59.8</ele><time>2026-04-21T20:30:06.95Z</time></trkpt><trkpt lat="40.089028660756846" lon="18.066138193818638"><ele>60.4</ele><time>2026-04-21T20:30:07.95Z</time></trkpt><trkpt lat="40.08892436230728" lon="18.066174438639244"><ele>61.0</ele><time>2026-04-21T20:30:08.95Z</time></trkpt><trkpt lat="40.088804748685675" lon="18.066241848937423"><ele>61.0</ele><time>2026-04-21T20:30:09.951Z</time></trkpt><trkpt lat="40.08868343924189" lon="18.0663036601055"><ele>61.0</ele><time>2026-04-21T20:30:10.951Z</time></trkpt><trkpt lat="40.08856937925866" lon="18.066356073932077"><ele>61.0</ele><time>2026-04-21T20:30:11.95Z</time></trkpt><trkpt lat="40.08845561225074" lon="18.066398216842998"><ele>61.0</ele><time>2026-04-21T20:30:12.95Z</time></trkpt><trkpt lat="40.08833173989442" lon="18.06641772748877"><ele>60.33333333333333</ele><time>2026-04-21T20:30:13.95Z</time></trkpt><trkpt lat="40.08819484202105" lon="18.066429914157787"><ele>59.66666666666667</ele><time>2026-04-21T20:30:14.95Z</time></trkpt><trkpt lat="40.08804037173598" lon="18.066437754675768"><ele>59.0</ele><time>2026-04-21T20:30:15.951Z</time></trkpt><trkpt lat="40.087880145850065" lon="18.066447202888117"><ele>59.0</ele><time>2026-04-21T20:30:16.951Z</time></trkpt><trkpt lat="40.08770494222157" lon="18.06645608745502"><ele>59.0</ele><time>2026-04-21T20:30:17.951Z</time></trkpt><trkpt lat="40.08751381163777" lon="18.06646730806476"><ele>59.0</ele><time>2026-04-21T20:30:18.951Z</time></trkpt><trkpt lat="40.087302470944046" lon="18.066488111851836"><ele>59.333333333333336</ele><time>2026-04-21T20:30:19.951Z</time></trkpt><trkpt lat="40.087076348713914" lon="18.066497125607718"><ele>59.66666666666667</ele><time>2026-04-21T20:30:20.951Z</time></trkpt><trkpt lat="40.08685545542743" lon="18.066513351169288"><ele>60.0</ele><time>2026-04-21T20:30:21.951Z</time></trkpt><trkpt lat="40.086654519785036" lon="18.06652098127477"><ele>59.5</ele><time>2026-04-21T20:30:22.95Z</time></trkpt><trkpt lat="40.08649155988558" lon="18.066536524989505"><ele>59.0</ele><time>2026-04-21T20:30:23.95Z</time></trkpt><trkpt lat="40.08634943347416" lon="18.066549383664945"><ele>58.5</ele><time>2026-04-21T20:30:24.95Z</time></trkpt><trkpt lat="40.086218761399955" lon="18.06656322710742"><ele>58.0</ele><time>2026-04-21T20:30:25.95Z</time></trkpt><trkpt lat="40.086094245099325" lon="18.066576046029155"><ele>58.0</ele><time>2026-04-21T20:30:26.95Z</time></trkpt><trkpt lat="40.085983849395426" lon="18.06658228521755"><ele>58.0</ele><time>2026-04-21T20:30:27.95Z</time></trkpt><trkpt lat="40.085885527906804" lon="18.066580351789742"><ele>58.0</ele><time>2026-04-21T20:30:28.95Z</time></trkpt><trkpt lat="40.08581231019503" lon="18.06661058133749"><ele>58.0</ele><time>2026-04-21T20:30:29.95Z</time></trkpt><trkpt lat="40.08573415935933" lon="18.066535634408904"><ele>58.0</ele><time>2026-04-21T20:30:30.95Z</time></trkpt><trkpt lat="40.08566047154286" lon="18.06649065972182"><ele>58.0</ele><time>2026-04-21T20:30:31.95Z</time></trkpt><trkpt lat="40.08558851730743" lon="18.066469850987584"><ele>58.0</ele><time>2026-04-21T20:30:32.95Z</time></trkpt><trkpt lat="40.08550861934489" lon="18.066483175057158"><ele>58.0</ele><time>2026-04-21T20:30:33.95Z</time></trkpt><trkpt lat="40.085422803602505" lon="18.06654201643873"><ele>58.0</ele><time>2026-04-21T20:30:34.95Z</time></trkpt><trkpt lat="40.085352498766156" lon="18.066661126724707"><ele>58.0</ele><time>2026-04-21T20:30:35.95Z</time></trkpt><trkpt lat="40.08519573902749" lon="18.066671315807803"><ele>58.33333333333333</ele><time>2026-04-21T20:30:36.95Z</time></trkpt><trkpt lat="40.085029014366704" lon="18.06669336994856"><ele>58.66666666666667</ele><time>2026-04-21T20:30:37.95Z</time></trkpt><trkpt lat="40.08485082745113" lon="18.066697657516773"><ele>59.0</ele><time>2026-04-21T20:30:38.95Z</time></trkpt><trkpt lat="40.0846588746655" lon="18.06670025045129"><ele>59.333333333333336</ele><time>2026-04-21T20:30:39.95Z</time></trkpt><trkpt lat="40.084454890336815" lon="18.066706530675223"><ele>59.66666666666667</ele><time>2026-04-21T20:30:40.95Z</time></trkpt><trkpt lat="40.084243829365676" lon="18.066726445877585"><ele>60.0</ele><time>2026-04-21T20:30:41.95Z</time></trkpt><trkpt lat="40.08402180377665" lon="18.06674824450176"><ele>59.0</ele><time>2026-04-21T20:30:42.95Z</time></trkpt><trkpt lat="40.08379680463138" lon="18.06677931611265"><ele>58.0</ele><time>2026-04-21T20:30:43.95Z</time></trkpt><trkpt lat="40.08356854968552" lon="18.066836621348344"><ele>58.0</ele><time>2026-04-21T20:30:44.95Z</time></trkpt><trkpt lat="40.08334173606898" lon="18.066893972908137"><ele>58.0</ele><time>2026-04-21T20:30:45.95Z</time></trkpt><trkpt lat="40.08311547296193" lon="18.066967850450606"><ele>58.0</ele><time>2026-04-21T20:30:46.95Z</time></trkpt><trkpt lat="40.08290161487784" lon="18.06702520318093"><ele>58.0</ele><time>2026-04-21T20:30:47.95Z</time></trkpt><trkpt lat="40.08270459676101" lon="18.06707077694599"><ele>58.0</ele><time>2026-04-21T20:30:48.95Z</time></trkpt><trkpt lat="40.08251180342302" lon="18.06711972193605"><ele>58.33333333333333</ele><time>2026-04-21T20:30:49.95Z</time></trkpt><trkpt lat="40.08231692815677" lon="18.06716921625506"><ele>58.66666666666667</ele><time>2026-04-21T20:30:50.95Z</time></trkpt><trkpt lat="40.08212706645848" lon="18.06720411451393"><ele>59.0</ele><time>2026-04-21T20:30:51.95Z</time></trkpt><trkpt lat="40.08193192893614" lon="18.067215133229244"><ele>59.0</ele><time>2026-04-21T20:30:52.95Z</time></trkpt><trkpt lat="40.08174132563796" lon="18.067205403059845"><ele>59.0</ele><time>2026-04-21T20:30:53.95Z</time></trkpt><trkpt lat="40.08154706115914" lon="18.06717272594285"><ele>59.0</ele><time>2026-04-21T20:30:54.95Z</time></trkpt><trkpt lat="40.08135551312594" lon="18.06711819873104"><ele>58.333333333333336</ele><time>2026-04-21T20:30:55.95Z</time></trkpt><trkpt lat="40.081163443096024" lon="18.067036089715874"><ele>57.66666666666667</ele><time>2026-04-21T20:30:56.95Z</time></trkpt><trkpt lat="40.08096169063583" lon="18.066936930054272"><ele>57.0</ele><time>2026-04-21T20:30:57.95Z</time></trkpt><trkpt lat="40.08075768859892" lon="18.06684082992947"><ele>57.0</ele><time>2026-04-21T20:30:58.95Z</time></trkpt><trkpt lat="40.08054092614721" lon="18.066754697857835"><ele>57.0</ele><time>2026-04-21T20:30:59.95Z</time></trkpt><trkpt lat="40.080313713533755" lon="18.066677187279396"><ele>57.0</ele><time>2026-04-21T20:31:00.95Z</time></trkpt><trkpt lat="40.080080383854664" lon="18.06660414135773"><ele>57.0</ele><time>2026-04-21T20:31:01.95Z</time></trkpt><trkpt lat="40.07984292483397" lon="18.066527859068454"><ele>56.5</ele><time>2026-04-21T20:31:02.95Z</time></trkpt><trkpt lat="40.07959784091657" lon="18.066451943097107"><ele>56.0</ele><time>2026-04-21T20:31:03.95Z</time></trkpt><trkpt lat="40.07935843168585" lon="18.0663731655028"><ele>56.0</ele><time>2026-04-21T20:31:04.95Z</time></trkpt><trkpt lat="40.079112397530025" lon="18.06629069843837"><ele>56.0</ele><time>2026-04-21T20:31:05.95Z</time></trkpt><trkpt lat="40.078882470534914" lon="18.066215638749092"><ele>56.66666666666667</ele><time>2026-04-21T20:31:06.95Z</time></trkpt><trkpt lat="40.078671347482455" lon="18.066148511257644"><ele>57.33333333333333</ele><time>2026-04-21T20:31:07.95Z</time></trkpt><trkpt lat="40.078474191375044" lon="18.066085224105763"><ele>58.0</ele><time>2026-04-21T20:31:08.95Z</time></trkpt><trkpt lat="40.078281882514055" lon="18.066017507056653"><ele>58.0</ele><time>2026-04-21T20:31:09.95Z</time></trkpt><trkpt lat="40.07808659587108" lon="18.06597312786639"><ele>58.0</ele><time>2026-04-21T20:31:10.95Z</time></trkpt><trkpt lat="40.07789312196475" lon="18.065946343901608"><ele>58.0</ele><time>2026-04-21T20:31:11.95Z</time></trkpt><trkpt lat="40.07769207944737" lon="18.065932533930333"><ele>58.0</ele><time>2026-04-21T20:31:12.95Z</time></trkpt><trkpt lat="40.077491206117195" lon="18.065914426969666"><ele>58.0</ele><time>2026-04-21T20:31:13.95Z</time></trkpt><trkpt lat="40.077295504541546" lon="18.065904290788396"><ele>58.0</ele><time>2026-04-21T20:31:14.95Z</time></trkpt><trkpt lat="40.077116175197126" lon="18.065901945874167"><ele>58.0</ele><time>2026-04-21T20:31:15.95Z</time></trkpt><trkpt lat="40.076938092958976" lon="18.065896101125958"><ele>58.0</ele><time>2026-04-21T20:31:16.95Z</time></trkpt><trkpt lat="40.076762200977" lon="18.065880529001248"><ele>58.0</ele><time>2026-04-21T20:31:17.95Z</time></trkpt><trkpt lat="40.0765727904162" lon="18.065857181926447"><ele>57.666666666666664</ele><time>2026-04-21T20:31:18.95Z</time></trkpt><trkpt lat="40.07639061731214" lon="18.06577551384598"><ele>57.33333333333333</ele><time>2026-04-21T20:31:19.95Z</time></trkpt><trkpt lat="40.076206063062656" lon="18.06569013132017"><ele>57.0</ele><time>2026-04-21T20:31:20.95Z</time></trkpt><trkpt lat="40.076016463015485" lon="18.065595674371238"><ele>57.0</ele><time>2026-04-21T20:31:21.95Z</time></trkpt><trkpt lat="40.07582048999568" lon="18.065494092731864"><ele>57.0</ele><time>2026-04-21T20:31:22.95Z</time></trkpt><trkpt lat="40.07561462587887" lon="18.065393366563274"><ele>57.0</ele><time>2026-04-21T20:31:23.949Z</time></trkpt><trkpt lat="40.07541394548694" lon="18.065284776961306"><ele>57.0</ele><time>2026-04-21T20:31:24.949Z</time></trkpt><trkpt lat="40.075208856154106" lon="18.065166289112504"><ele>57.0</ele><time>2026-04-21T20:31:25.949Z</time></trkpt><trkpt lat="40.074998109310066" lon="18.06505976628869"><ele>57.0</ele><time>2026-04-21T20:31:26.949Z</time></trkpt><trkpt lat="40.0747921276463" lon="18.06495311823987"><ele>57.0</ele><time>2026-04-21T20:31:27.949Z</time></trkpt><trkpt lat="40.07457662930827" lon="18.064840173664777"><ele>56.0</ele><time>2026-04-21T20:31:28.949Z</time></trkpt><trkpt lat="40.0743558636864" lon="18.064724959549135"><ele>55.0</ele><time>2026-04-21T20:31:29.949Z</time></trkpt><trkpt lat="40.074137030207005" lon="18.064610390693748"><ele>55.5</ele><time>2026-04-21T20:31:30.949Z</time></trkpt><trkpt lat="40.07391955854839" lon="18.06449693514738"><ele>56.0</ele><time>2026-04-21T20:31:31.949Z</time></trkpt><trkpt lat="40.073697790401305" lon="18.064381487470186"><ele>56.0</ele><time>2026-04-21T20:31:32.949Z</time></trkpt><trkpt lat="40.073478338900564" lon="18.064267245771315"><ele>56.0</ele><time>2026-04-21T20:31:33.949Z</time></trkpt><trkpt lat="40.07325845282903" lon="18.064152777855707"><ele>55.0</ele><time>2026-04-21T20:31:34.949Z</time></trkpt><trkpt lat="40.07304184712731" lon="18.06404001762524"><ele>54.0</ele><time>2026-04-21T20:31:35.949Z</time></trkpt><trkpt lat="40.07282187187181" lon="18.063925503275254"><ele>54.0</ele><time>2026-04-21T20:31:36.949Z</time></trkpt><trkpt lat="40.072603020125065" lon="18.06381156434009"><ele>54.0</ele><time>2026-04-21T20:31:37.949Z</time></trkpt><trkpt lat="40.07238335755068" lon="18.06369681750138"><ele>54.0</ele><time>2026-04-21T20:31:38.949Z</time></trkpt><trkpt lat="40.07216872121852" lon="18.063584696316703"><ele>54.0</ele><time>2026-04-21T20:31:39.949Z</time></trkpt><trkpt lat="40.071957563598" lon="18.0634743923018"><ele>54.0</ele><time>2026-04-21T20:31:40.949Z</time></trkpt><trkpt lat="40.0717608422841" lon="18.063370840291714"><ele>54.0</ele><time>2026-04-21T20:31:41.949Z</time></trkpt><trkpt lat="40.071559998347155" lon="18.06328128152644"><ele>54.0</ele><time>2026-04-21T20:31:42.949Z</time></trkpt><trkpt lat="40.07138390649359" lon="18.063179320893276"><ele>54.0</ele><time>2026-04-21T20:31:43.949Z</time></trkpt><trkpt lat="40.07121631887415" lon="18.063093994115597"><ele>54.0</ele><time>2026-04-21T20:31:44.949Z</time></trkpt><trkpt lat="40.0710595861033" lon="18.063003908797782"><ele>54.0</ele><time>2026-04-21T20:31:45.949Z</time></trkpt><trkpt lat="40.0708109428405" lon="18.062894440066994"><ele>54.33333333333333</ele><time>2026-04-21T20:31:46.949Z</time></trkpt><trkpt lat="40.07062701332421" lon="18.06284470850659"><ele>54.666666666666664</ele><time>2026-04-21T20:31:47.949Z</time></trkpt><trkpt lat="40.07043812730773" lon="18.062811154207164"><ele>55.0</ele><time>2026-04-21T20:31:48.949Z</time></trkpt><trkpt lat="40.07024947958882" lon="18.062766976266975"><ele>55.0</ele><time>2026-04-21T20:31:49.949Z</time></trkpt><trkpt lat="40.07005677546372" lon="18.062721967897044"><ele>55.0</ele><time>2026-04-21T20:31:50.949Z</time></trkpt><trkpt lat="40.06986662546607" lon="18.06268081883809"><ele>55.0</ele><time>2026-04-21T20:31:51.949Z</time></trkpt><trkpt lat="40.06967543216239" lon="18.062637923150646"><ele>55.33333333333333</ele><time>2026-04-21T20:31:52.949Z</time></trkpt><trkpt lat="40.069486402681335" lon="18.06259721924081"><ele>55.66666666666667</ele><time>2026-04-21T20:31:53.949Z</time></trkpt><trkpt lat="40.069316061605626" lon="18.062554893284727"><ele>56.0</ele><time>2026-04-21T20:31:54.949Z</time></trkpt><trkpt lat="40.06915210446899" lon="18.062514642970694"><ele>56.0</ele><time>2026-04-21T20:31:55.949Z</time></trkpt><trkpt lat="40.06899214858335" lon="18.062474357023557"><ele>56.0</ele><time>2026-04-21T20:31:56.949Z</time></trkpt><trkpt lat="40.06883330409738" lon="18.06242787520392"><ele>56.0</ele><time>2026-04-21T20:31:57.949Z</time></trkpt><trkpt lat="40.06868369093389" lon="18.06234370825703"><ele>56.0</ele><time>2026-04-21T20:31:58.949Z</time></trkpt><trkpt lat="40.06853070485805" lon="18.062268097591122"><ele>56.0</ele><time>2026-04-21T20:31:59.949Z</time></trkpt><trkpt lat="40.0683726983178" lon="18.062210451878286"><ele>56.0</ele><time>2026-04-21T20:32:00.949Z</time></trkpt><trkpt lat="40.068242538808384" lon="18.06211471169369"><ele>56.0</ele><time>2026-04-21T20:32:01.949Z</time></trkpt><trkpt lat="40.06811140522755" lon="18.062050536303854"><ele>56.0</ele><time>2026-04-21T20:32:02.949Z</time></trkpt><trkpt lat="40.06799051010972" lon="18.061989681656264"><ele>56.0</ele><time>2026-04-21T20:32:03.949Z</time></trkpt><trkpt lat="40.06787842843803" lon="18.061924811302784"><ele>56.0</ele><time>2026-04-21T20:32:04.949Z</time></trkpt><trkpt lat="40.06777949774137" lon="18.06184662054686"><ele>56.00000000000001</ele><time>2026-04-21T20:32:05.949Z</time></trkpt><trkpt lat="40.067699222177" lon="18.06175831560826"><ele>56.0</ele><time>2026-04-21T20:32:06.949Z</time></trkpt><trkpt lat="40.06762706099704" lon="18.06167078515779"><ele>56.0</ele><time>2026-04-21T20:32:07.949Z</time></trkpt><trkpt lat="40.06757732136665" lon="18.061598899711036"><ele>56.0</ele><time>2026-04-21T20:32:08.949Z</time></trkpt><trkpt lat="40.06752362634656" lon="18.061550879486308"><ele>56.00000000000001</ele><time>2026-04-21T20:32:09.95Z</time></trkpt><trkpt lat="40.06746831494585" lon="18.061456145424337"><ele>56.0</ele><time>2026-04-21T20:32:11.949Z</time></trkpt><trkpt lat="40.067391888380214" lon="18.06147612230381"><ele>56.25</ele><time>2026-04-21T20:32:13.949Z</time></trkpt><trkpt lat="40.06734167446692" lon="18.061693822506836"><ele>56.5</ele><time>2026-04-21T20:32:15.949Z</time></trkpt><trkpt lat="40.06734418177337" lon="18.06181924654329"><ele>56.75</ele><time>2026-04-21T20:32:16.949Z</time></trkpt><trkpt lat="40.06736176135803" lon="18.06197911891866"><ele>57.0</ele><time>2026-04-21T20:32:17.949Z</time></trkpt><trkpt lat="40.06738561785515" lon="18.062171600753608"><ele>57.0</ele><time>2026-04-21T20:32:18.949Z</time></trkpt><trkpt lat="40.0673832905708" lon="18.062387702853286"><ele>57.0</ele><time>2026-04-21T20:32:19.949Z</time></trkpt><trkpt lat="40.067364698145084" lon="18.06261963381081"><ele>57.0</ele><time>2026-04-21T20:32:20.95Z</time></trkpt><trkpt lat="40.06729859740402" lon="18.062856458745234"><ele>57.0</ele><time>2026-04-21T20:32:21.949Z</time></trkpt><trkpt lat="40.06724219122335" lon="18.063119725982748"><ele>57.0</ele><time>2026-04-21T20:32:22.949Z</time></trkpt><trkpt lat="40.0671606820492" lon="18.0633926791922"><ele>57.0</ele><time>2026-04-21T20:32:23.949Z</time></trkpt><trkpt lat="40.0670797208904" lon="18.06366551465405"><ele>57.0</ele><time>2026-04-21T20:32:24.949Z</time></trkpt><trkpt lat="40.066997384352504" lon="18.06394183043104"><ele>57.0</ele><time>2026-04-21T20:32:25.949Z</time></trkpt><trkpt lat="40.066880745595206" lon="18.064195778782114"><ele>57.33333333333333</ele><time>2026-04-21T20:32:26.949Z</time></trkpt><trkpt lat="40.06678422634171" lon="18.064453624051005"><ele>57.666666666666664</ele><time>2026-04-21T20:32:27.949Z</time></trkpt><trkpt lat="40.066699828622916" lon="18.06469135298284"><ele>58.0</ele><time>2026-04-21T20:32:28.949Z</time></trkpt><trkpt lat="40.06664540068241" lon="18.064956087166177"><ele>59.0</ele><time>2026-04-21T20:32:29.949Z</time></trkpt><trkpt lat="40.06659382869979" lon="18.06522918121347"><ele>60.0</ele><time>2026-04-21T20:32:30.949Z</time></trkpt><trkpt lat="40.06654947780883" lon="18.065500251737898"><ele>61.0</ele><time>2026-04-21T20:32:31.949Z</time></trkpt><trkpt lat="40.06649708132585" lon="18.065768964102713"><ele>61.0</ele><time>2026-04-21T20:32:32.949Z</time></trkpt><trkpt lat="40.066443451544046" lon="18.066037395949163"><ele>61.0</ele><time>2026-04-21T20:32:33.949Z</time></trkpt><trkpt lat="40.06639492902426" lon="18.06627715638494"><ele>61.0</ele><time>2026-04-21T20:32:34.949Z</time></trkpt><trkpt lat="40.06635687097288" lon="18.066484469244386"><ele>61.8</ele><time>2026-04-21T20:32:35.949Z</time></trkpt><trkpt lat="40.066316487036616" lon="18.066661463970977"><ele>62.599999999999994</ele><time>2026-04-21T20:32:36.949Z</time></trkpt><trkpt lat="40.0662957043995" lon="18.066811095667266"><ele>63.4</ele><time>2026-04-21T20:32:37.949Z</time></trkpt><trkpt lat="40.06627969154422" lon="18.066928898588237"><ele>64.2</ele><time>2026-04-21T20:32:38.949Z</time></trkpt><trkpt lat="40.06626235590322" lon="18.067019293306153"><ele>65.0</ele><time>2026-04-21T20:32:39.949Z</time></trkpt><trkpt lat="40.06620488539039" lon="18.067103657880992"><ele>65.0</ele><time>2026-04-21T20:32:41.949Z</time></trkpt><trkpt lat="40.06608358644192" lon="18.067089359731785"><ele>65.0</ele><time>2026-04-21T20:32:43.949Z</time></trkpt><trkpt lat="40.06598650481482" lon="18.067056029570114"><ele>65.0</ele><time>2026-04-21T20:32:44.949Z</time></trkpt><trkpt lat="40.06587752112961" lon="18.06702003706161"><ele>65.0</ele><time>2026-04-21T20:32:45.949Z</time></trkpt><trkpt lat="40.065746525827336" lon="18.066977832285357"><ele>64.66666666666667</ele><time>2026-04-21T20:32:46.949Z</time></trkpt><trkpt lat="40.065599158857395" lon="18.066924460875956"><ele>64.33333333333333</ele><time>2026-04-21T20:32:47.949Z</time></trkpt><trkpt lat="40.0654180942867" lon="18.066866778071002"><ele>64.0</ele><time>2026-04-21T20:32:48.949Z</time></trkpt><trkpt lat="40.06521695750974" lon="18.066798938755653"><ele>64.0</ele><time>2026-04-21T20:32:49.949Z</time></trkpt><trkpt lat="40.064998546880524" lon="18.066731203839602"><ele>64.0</ele><time>2026-04-21T20:32:50.949Z</time></trkpt><trkpt lat="40.06476690301047" lon="18.066656812243185"><ele>63.0</ele><time>2026-04-21T20:32:51.949Z</time></trkpt><trkpt lat="40.06453805049976" lon="18.06658097687576"><ele>62.0</ele><time>2026-04-21T20:32:52.949Z</time></trkpt><trkpt lat="40.064305168342194" lon="18.06649385845489"><ele>63.5</ele><time>2026-04-21T20:32:53.949Z</time></trkpt><trkpt lat="40.06405985166974" lon="18.06637972267202"><ele>65.0</ele><time>2026-04-21T20:32:54.949Z</time></trkpt><trkpt lat="40.063806153524574" lon="18.06626645401353"><ele>65.0</ele><time>2026-04-21T20:32:55.949Z</time></trkpt><trkpt lat="40.0635557399643" lon="18.066139566726555"><ele>65.0</ele><time>2026-04-21T20:32:56.949Z</time></trkpt><trkpt lat="40.06334106168851" lon="18.06603713802937"><ele>64.66666666666667</ele><time>2026-04-21T20:32:57.949Z</time></trkpt><trkpt lat="40.06315166660388" lon="18.065944884751378"><ele>64.33333333333333</ele><time>2026-04-21T20:32:58.949Z</time></trkpt><trkpt lat="40.06298204487004" lon="18.06586831628393"><ele>64.0</ele><time>2026-04-21T20:32:59.949Z</time></trkpt><trkpt lat="40.062818424482415" lon="18.065788656297332"><ele>64.0</ele><time>2026-04-21T20:33:00.949Z</time></trkpt><trkpt lat="40.062669898732615" lon="18.06571315077509"><ele>64.0</ele><time>2026-04-21T20:33:01.949Z</time></trkpt><trkpt lat="40.06253464630135" lon="18.065633825598937"><ele>64.0</ele><time>2026-04-21T20:33:02.949Z</time></trkpt><trkpt lat="40.06239955142707" lon="18.06552292104522"><ele>64.5</ele><time>2026-04-21T20:33:03.949Z</time></trkpt><trkpt lat="40.06227289935954" lon="18.065396485201234"><ele>65.0</ele><time>2026-04-21T20:33:04.949Z</time></trkpt><trkpt lat="40.06216562954915" lon="18.065282294163335"><ele>65.5</ele><time>2026-04-21T20:33:05.949Z</time></trkpt><trkpt lat="40.06206764589405" lon="18.065200116765855"><ele>66.0</ele><time>2026-04-21T20:33:06.949Z</time></trkpt><trkpt lat="40.06195768012287" lon="18.06514094132964"><ele>66.0</ele><time>2026-04-21T20:33:07.949Z</time></trkpt><trkpt lat="40.061824709416044" lon="18.065102961762555"><ele>66.0</ele><time>2026-04-21T20:33:08.949Z</time></trkpt><trkpt lat="40.06168147558799" lon="18.065088927921284"><ele>66.0</ele><time>2026-04-21T20:33:09.949Z</time></trkpt><trkpt lat="40.06151949857526" lon="18.06509481833963"><ele>66.0</ele><time>2026-04-21T20:33:10.949Z</time></trkpt><trkpt lat="40.06136459577338" lon="18.065130614922335"><ele>66.0</ele><time>2026-04-21T20:33:11.949Z</time></trkpt><trkpt lat="40.06120307865848" lon="18.0651803904825"><ele>66.0</ele><time>2026-04-21T20:33:12.948Z</time></trkpt><trkpt lat="40.061031073659535" lon="18.065222579533316"><ele>66.0</ele><time>2026-04-21T20:33:13.948Z</time></trkpt><trkpt lat="40.06087867284632" lon="18.065257552071863"><ele>65.6</ele><time>2026-04-21T20:33:14.948Z</time></trkpt><trkpt lat="40.060752980549694" lon="18.06528588119076"><ele>65.19999999999999</ele><time>2026-04-21T20:33:15.948Z</time></trkpt><trkpt lat="40.06064684636974" lon="18.065311197259472"><ele>64.80000000000001</ele><time>2026-04-21T20:33:16.948Z</time></trkpt><trkpt lat="40.0605520182008" lon="18.065327357118544"><ele>64.4</ele><time>2026-04-21T20:33:17.948Z</time></trkpt><trkpt lat="40.06046356811793" lon="18.06534893328271"><ele>64.0</ele><time>2026-04-21T20:33:18.948Z</time></trkpt><trkpt lat="40.06036974109487" lon="18.065374205615502"><ele>64.0</ele><time>2026-04-21T20:33:19.948Z</time></trkpt><trkpt lat="40.06026326361858" lon="18.065410805970938"><ele>64.0</ele><time>2026-04-21T20:33:20.948Z</time></trkpt><trkpt lat="40.060126042167546" lon="18.06546176665331"><ele>64.0</ele><time>2026-04-21T20:33:21.948Z</time></trkpt><trkpt lat="40.059948671136155" lon="18.0654839064308"><ele>64.0</ele><time>2026-04-21T20:33:22.948Z</time></trkpt><trkpt lat="40.05975760637519" lon="18.06551695725047"><ele>63.33333333333333</ele><time>2026-04-21T20:33:23.948Z</time></trkpt><trkpt lat="40.059570392634406" lon="18.06555088886601"><ele>62.66666666666667</ele><time>2026-04-21T20:33:24.948Z</time></trkpt><trkpt lat="40.05941610903187" lon="18.065586574324122"><ele>62.0</ele><time>2026-04-21T20:33:25.948Z</time></trkpt><trkpt lat="40.05929531731747" lon="18.065610491186078"><ele>62.0</ele><time>2026-04-21T20:33:26.948Z</time></trkpt><trkpt lat="40.059204634029214" lon="18.065626476231333"><ele>62.0</ele><time>2026-04-21T20:33:27.948Z</time></trkpt><trkpt lat="40.059131540736566" lon="18.065634649896406"><ele>62.0</ele><time>2026-04-21T20:33:28.948Z</time></trkpt><trkpt lat="40.05903674305204" lon="18.065652242982267"><ele>62.0</ele><time>2026-04-21T20:33:30.948Z</time></trkpt><trkpt lat="40.05896915026938" lon="18.065785113309648"><ele>62.0</ele><time>2026-04-21T20:33:39.948Z</time></trkpt><trkpt lat="40.05892973003518" lon="18.065873291264097"><ele>61.833333333333336</ele><time>2026-04-21T20:33:40.948Z</time></trkpt><trkpt lat="40.05887462109326" lon="18.065953811368953"><ele>61.66666666666667</ele><time>2026-04-21T20:33:41.948Z</time></trkpt><trkpt lat="40.05881004641702" lon="18.066004585168933"><ele>61.5</ele><time>2026-04-21T20:33:42.948Z</time></trkpt><trkpt lat="40.058731140447115" lon="18.06602315212128"><ele>61.33333333333333</ele><time>2026-04-21T20:33:43.948Z</time></trkpt><trkpt lat="40.05863806975183" lon="18.06604958679513"><ele>61.166666666666664</ele><time>2026-04-21T20:33:44.948Z</time></trkpt><trkpt lat="40.05857990908642" lon="18.066108795557405"><ele>61.0</ele><time>2026-04-21T20:33:45.948Z</time></trkpt><trkpt lat="40.058563218592994" lon="18.066268401838638"><ele>60.99999999999999</ele><time>2026-04-21T20:33:47.948Z</time></trkpt><trkpt lat="40.05858385929214" lon="18.06634749865994"><ele>61.0</ele><time>2026-04-21T20:33:48.948Z</time></trkpt><trkpt lat="40.05862567063399" lon="18.066430245873768"><ele>61.0</ele><time>2026-04-21T20:33:49.948Z</time></trkpt><trkpt lat="40.058668391094756" lon="18.066525220943173"><ele>61.0</ele><time>2026-04-21T20:33:50.948Z</time></trkpt><trkpt lat="40.05871625509737" lon="18.06663490539745"><ele>60.99999999999999</ele><time>2026-04-21T20:33:51.948Z</time></trkpt><trkpt lat="40.058720995678996" lon="18.06678282709473"><ele>61.0</ele><time>2026-04-21T20:33:52.948Z</time></trkpt><trkpt lat="40.05874587212594" lon="18.06693520478754"><ele>60.666666666666664</ele><time>2026-04-21T20:33:53.948Z</time></trkpt><trkpt lat="40.05871589059768" lon="18.067114374169968"><ele>60.33333333333333</ele><time>2026-04-21T20:33:54.948Z</time></trkpt><trkpt lat="40.05868069364769" lon="18.067319846405187"><ele>60.0</ele><time>2026-04-21T20:33:55.948Z</time></trkpt><trkpt lat="40.05864818149949" lon="18.06756901022312"><ele>60.0</ele><time>2026-04-21T20:33:56.948Z</time></trkpt><trkpt lat="40.05858456264654" lon="18.067831085046684"><ele>60.0</ele><time>2026-04-21T20:33:57.948Z</time></trkpt><trkpt lat="40.05853131523195" lon="18.06811051575081"><ele>60.0</ele><time>2026-04-21T20:33:58.948Z</time></trkpt><trkpt lat="40.05848084421282" lon="18.06840185317522"><ele>60.5</ele><time>2026-04-21T20:33:59.948Z</time></trkpt><trkpt lat="40.058426301967906" lon="18.068710063637493"><ele>61.0</ele><time>2026-04-21T20:34:00.948Z</time></trkpt><trkpt lat="40.0583716885008" lon="18.06902698021063"><ele>60.5</ele><time>2026-04-21T20:34:01.948Z</time></trkpt><trkpt lat="40.058313725328965" lon="18.06935342430254"><ele>60.0</ele><time>2026-04-21T20:34:02.948Z</time></trkpt><trkpt lat="40.0582544961386" lon="18.0696789225636"><ele>59.5</ele><time>2026-04-21T20:34:03.948Z</time></trkpt><trkpt lat="40.05819589651876" lon="18.070004582462474"><ele>59.0</ele><time>2026-04-21T20:34:04.948Z</time></trkpt><trkpt lat="40.058134437427626" lon="18.070330190996614"><ele>59.0</ele><time>2026-04-21T20:34:05.948Z</time></trkpt><trkpt lat="40.05807445312051" lon="18.070653464260307"><ele>59.0</ele><time>2026-04-21T20:34:06.948Z</time></trkpt><trkpt lat="40.05801781247627" lon="18.070980988360343"><ele>59.0</ele><time>2026-04-21T20:34:07.948Z</time></trkpt><trkpt lat="40.05796247490933" lon="18.071307972860907"><ele>59.0</ele><time>2026-04-21T20:34:08.948Z</time></trkpt><trkpt lat="40.05790455768022" lon="18.07163499308401"><ele>59.5</ele><time>2026-04-21T20:34:09.948Z</time></trkpt><trkpt lat="40.057843341475916" lon="18.071963339922963"><ele>60.0</ele><time>2026-04-21T20:34:10.948Z</time></trkpt><trkpt lat="40.05778421306141" lon="18.072285517537722"><ele>60.0</ele><time>2026-04-21T20:34:11.948Z</time></trkpt><trkpt lat="40.057727345621075" lon="18.07261478921597"><ele>60.0</ele><time>2026-04-21T20:34:12.948Z</time></trkpt><trkpt lat="40.057667509360556" lon="18.072931477213793"><ele>60.0</ele><time>2026-04-21T20:34:13.948Z</time></trkpt><trkpt lat="40.05761089093853" lon="18.073256508534286"><ele>60.0</ele><time>2026-04-21T20:34:14.948Z</time></trkpt><trkpt lat="40.057547832088574" lon="18.073582680346135"><ele>59.5</ele><time>2026-04-21T20:34:15.948Z</time></trkpt><trkpt lat="40.05749178729061" lon="18.07390286975121"><ele>59.0</ele><time>2026-04-21T20:34:16.948Z</time></trkpt><trkpt lat="40.05743798042344" lon="18.074223225807806"><ele>58.5</ele><time>2026-04-21T20:34:17.948Z</time></trkpt><trkpt lat="40.0573802490284" lon="18.074545576283274"><ele>58.0</ele><time>2026-04-21T20:34:18.948Z</time></trkpt><trkpt lat="40.0573262008337" lon="18.074870985680015"><ele>58.5</ele><time>2026-04-21T20:34:19.948Z</time></trkpt><trkpt lat="40.057265300469744" lon="18.075199087637994"><ele>59.0</ele><time>2026-04-21T20:34:20.949Z</time></trkpt><trkpt lat="40.057208330312356" lon="18.07552444625293"><ele>59.0</ele><time>2026-04-21T20:34:21.948Z</time></trkpt><trkpt lat="40.057147481890496" lon="18.075852732234182"><ele>59.0</ele><time>2026-04-21T20:34:22.948Z</time></trkpt><trkpt lat="40.05708674758018" lon="18.076178509482514"><ele>59.0</ele><time>2026-04-21T20:34:23.948Z</time></trkpt><trkpt lat="40.0570309053859" lon="18.07650517315958"><ele>59.0</ele><time>2026-04-21T20:34:24.948Z</time></trkpt><trkpt lat="40.056975547014666" lon="18.076829070996446"><ele>59.5</ele><time>2026-04-21T20:34:25.948Z</time></trkpt><trkpt lat="40.05691766793641" lon="18.077154366458377"><ele>60.0</ele><time>2026-04-21T20:34:26.948Z</time></trkpt><trkpt lat="40.05685892702176" lon="18.077480028803382"><ele>60.5</ele><time>2026-04-21T20:34:27.948Z</time></trkpt><trkpt lat="40.056802395636154" lon="18.07780930564115"><ele>61.0</ele><time>2026-04-21T20:34:28.948Z</time></trkpt><trkpt lat="40.05674547199112" lon="18.078134489285468"><ele>60.5</ele><time>2026-04-21T20:34:29.948Z</time></trkpt><trkpt lat="40.05668584267782" lon="18.07845781843101"><ele>60.0</ele><time>2026-04-21T20:34:30.948Z</time></trkpt><trkpt lat="40.05662706658332" lon="18.078786955070637"><ele>58.5</ele><time>2026-04-21T20:34:31.948Z</time></trkpt><trkpt lat="40.05656473846629" lon="18.07911566847262"><ele>57.0</ele><time>2026-04-21T20:34:32.948Z</time></trkpt><trkpt lat="40.05650435331861" lon="18.07944159111573"><ele>57.0</ele><time>2026-04-21T20:34:33.948Z</time></trkpt><trkpt lat="40.05644199204671" lon="18.07977216953805"><ele>57.0</ele><time>2026-04-21T20:34:34.948Z</time></trkpt><trkpt lat="40.056379792204154" lon="18.080102718046323"><ele>57.5</ele><time>2026-04-21T20:34:35.948Z</time></trkpt><trkpt lat="40.05632316715485" lon="18.080427868737967"><ele>58.0</ele><time>2026-04-21T20:34:36.948Z</time></trkpt><trkpt lat="40.05626926916098" lon="18.08073744268398"><ele>58.5</ele><time>2026-04-21T20:34:37.948Z</time></trkpt><trkpt lat="40.05621970032249" lon="18.081036679949566"><ele>59.0</ele><time>2026-04-21T20:34:38.948Z</time></trkpt><trkpt lat="40.05616633559897" lon="18.08133487285203"><ele>59.0</ele><time>2026-04-21T20:34:39.948Z</time></trkpt><trkpt lat="40.05611210767338" lon="18.081634298921784"><ele>59.0</ele><time>2026-04-21T20:34:40.948Z</time></trkpt><trkpt lat="40.056056904519465" lon="18.08193873488369"><ele>59.0</ele><time>2026-04-21T20:34:41.948Z</time></trkpt><trkpt lat="40.056002693799634" lon="18.082245225555337"><ele>59.0</ele><time>2026-04-21T20:34:42.948Z</time></trkpt><trkpt lat="40.0559512347754" lon="18.082554579919286"><ele>59.0</ele><time>2026-04-21T20:34:43.948Z</time></trkpt><trkpt lat="40.0558965607158" lon="18.08286320259322"><ele>59.0</ele><time>2026-04-21T20:34:44.948Z</time></trkpt><trkpt lat="40.055841064201914" lon="18.083177328311425"><ele>58.5</ele><time>2026-04-21T20:34:45.948Z</time></trkpt><trkpt lat="40.05578135083113" lon="18.083490896760715"><ele>58.0</ele><time>2026-04-21T20:34:46.948Z</time></trkpt><trkpt lat="40.055718069683614" lon="18.083818683351073"><ele>58.5</ele><time>2026-04-21T20:34:47.876Z</time></trkpt><trkpt lat="40.05566421791775" lon="18.08413431826447"><ele>59.0</ele><time>2026-04-21T20:34:48.876Z</time></trkpt><trkpt lat="40.05560908935452" lon="18.084450361871184"><ele>59.0</ele><time>2026-04-21T20:34:49.876Z</time></trkpt><trkpt lat="40.055553205869465" lon="18.084767225431175"><ele>59.0</ele><time>2026-04-21T20:34:50.876Z</time></trkpt><trkpt lat="40.05549675703574" lon="18.08508312816471"><ele>59.0</ele><time>2026-04-21T20:34:51.876Z</time></trkpt><trkpt lat="40.05543668823353" lon="18.08539613521317"><ele>59.0</ele><time>2026-04-21T20:34:52.876Z</time></trkpt><trkpt lat="40.055383440136644" lon="18.085710235818542"><ele>59.0</ele><time>2026-04-21T20:34:53.876Z</time></trkpt><trkpt lat="40.055325173396234" lon="18.08602503680137"><ele>59.0</ele><time>2026-04-21T20:34:54.876Z</time></trkpt><trkpt lat="40.055270336026624" lon="18.086340027123597"><ele>59.0</ele><time>2026-04-21T20:34:55.876Z</time></trkpt><trkpt lat="40.055214664824284" lon="18.086656255384344"><ele>59.0</ele><time>2026-04-21T20:34:56.876Z</time></trkpt><trkpt lat="40.055158650087414" lon="18.086972918499395"><ele>59.0</ele><time>2026-04-21T20:34:57.876Z</time></trkpt><trkpt lat="40.055102587614904" lon="18.087286688426985"><ele>59.0</ele><time>2026-04-21T20:34:58.876Z</time></trkpt><trkpt lat="40.055046581918994" lon="18.0876009289064"><ele>59.0</ele><time>2026-04-21T20:34:59.876Z</time></trkpt><trkpt lat="40.05499401397702" lon="18.087911650089307"><ele>59.0</ele><time>2026-04-21T20:35:00.876Z</time></trkpt><trkpt lat="40.054938761448085" lon="18.088216105257338"><ele>58.0</ele><time>2026-04-21T20:35:01.876Z</time></trkpt><trkpt lat="40.05488206082323" lon="18.088518401930774"><ele>57.0</ele><time>2026-04-21T20:35:02.876Z</time></trkpt><trkpt lat="40.05482931320231" lon="18.0888159350455"><ele>57.0</ele><time>2026-04-21T20:35:03.876Z</time></trkpt><trkpt lat="40.05477849311147" lon="18.089110171385194"><ele>57.0</ele><time>2026-04-21T20:35:04.875Z</time></trkpt><trkpt lat="40.05472648732062" lon="18.089400436910886"><ele>57.0</ele><time>2026-04-21T20:35:05.875Z</time></trkpt><trkpt lat="40.05467455996936" lon="18.08969199797932"><ele>57.0</ele><time>2026-04-21T20:35:06.875Z</time></trkpt><trkpt lat="40.05462277736642" lon="18.089982511258896"><ele>57.5</ele><time>2026-04-21T20:35:07.875Z</time></trkpt><trkpt lat="40.054570036905595" lon="18.090269402135057"><ele>58.0</ele><time>2026-04-21T20:35:08.875Z</time></trkpt><trkpt lat="40.05451410060586" lon="18.09055464152506"><ele>57.33333333333333</ele><time>2026-04-21T20:35:09.875Z</time></trkpt><trkpt lat="40.05446568583052" lon="18.09083429071464"><ele>56.66666666666667</ele><time>2026-04-21T20:35:10.875Z</time></trkpt><trkpt lat="40.05441236291737" lon="18.091120338414587"><ele>56.0</ele><time>2026-04-21T20:35:11.875Z</time></trkpt><trkpt lat="40.054360938498704" lon="18.09140314881816"><ele>56.66666666666667</ele><time>2026-04-21T20:35:12.875Z</time></trkpt><trkpt lat="40.05431453304831" lon="18.091689108925813"><ele>57.33333333333333</ele><time>2026-04-21T20:35:13.875Z</time></trkpt><trkpt lat="40.05426863040169" lon="18.091976412222902"><ele>58.0</ele><time>2026-04-21T20:35:14.875Z</time></trkpt><trkpt lat="40.054221774490905" lon="18.092264006439244"><ele>58.0</ele><time>2026-04-21T20:35:15.875Z</time></trkpt><trkpt lat="40.054177269566075" lon="18.092550955706873"><ele>58.0</ele><time>2026-04-21T20:35:16.875Z</time></trkpt><trkpt lat="40.054133934276" lon="18.092840418142064"><ele>58.0</ele><time>2026-04-21T20:35:17.875Z</time></trkpt><trkpt lat="40.05407650630226" lon="18.093128725899273"><ele>58.0</ele><time>2026-04-21T20:35:18.875Z</time></trkpt><trkpt lat="40.05402415386566" lon="18.093416303665396"><ele>58.0</ele><time>2026-04-21T20:35:19.875Z</time></trkpt><trkpt lat="40.05397586892933" lon="18.093711307065682"><ele>58.0</ele><time>2026-04-21T20:35:20.875Z</time></trkpt><trkpt lat="40.053909156111686" lon="18.09400680381569"><ele>58.0</ele><time>2026-04-21T20:35:21.875Z</time></trkpt><trkpt lat="40.05385544393503" lon="18.09430790349093"><ele>58.0</ele><time>2026-04-21T20:35:22.875Z</time></trkpt><trkpt lat="40.053801536305805" lon="18.094613412637223"><ele>58.0</ele><time>2026-04-21T20:35:23.875Z</time></trkpt><trkpt lat="40.053747160925816" lon="18.094918982393605"><ele>58.0</ele><time>2026-04-21T20:35:24.875Z</time></trkpt><trkpt lat="40.05369280555945" lon="18.09522411043199"><ele>57.5</ele><time>2026-04-21T20:35:25.875Z</time></trkpt><trkpt lat="40.05363911367805" lon="18.09552551394267"><ele>57.0</ele><time>2026-04-21T20:35:26.875Z</time></trkpt><trkpt lat="40.05358455556834" lon="18.095831780079976"><ele>57.0</ele><time>2026-04-21T20:35:27.875Z</time></trkpt><trkpt lat="40.053542803532665" lon="18.096146807836767"><ele>57.0</ele><time>2026-04-21T20:35:28.875Z</time></trkpt><trkpt lat="40.05348244752592" lon="18.096454155810534"><ele>57.0</ele><time>2026-04-21T20:35:29.875Z</time></trkpt><trkpt lat="40.053423110487294" lon="18.096762124254997"><ele>57.0</ele><time>2026-04-21T20:35:30.875Z</time></trkpt><trkpt lat="40.05336674355114" lon="18.097069039873624"><ele>57.0</ele><time>2026-04-21T20:35:31.875Z</time></trkpt><trkpt lat="40.05330719329437" lon="18.097379663827493"><ele>57.0</ele><time>2026-04-21T20:35:32.875Z</time></trkpt><trkpt lat="40.053251026248674" lon="18.09768712844732"><ele>57.0</ele><time>2026-04-21T20:35:33.875Z</time></trkpt><trkpt lat="40.05319680112106" lon="18.097997841122147"><ele>57.0</ele><time>2026-04-21T20:35:34.875Z</time></trkpt><trkpt lat="40.05314380988487" lon="18.09831625925331"><ele>57.0</ele><time>2026-04-21T20:35:35.875Z</time></trkpt><trkpt lat="40.05308865733482" lon="18.098634198941237"><ele>57.0</ele><time>2026-04-21T20:35:36.875Z</time></trkpt><trkpt lat="40.05303166120635" lon="18.09894785670108"><ele>57.0</ele><time>2026-04-21T20:35:37.875Z</time></trkpt><trkpt lat="40.05297406510899" lon="18.099266550462357"><ele>57.0</ele><time>2026-04-21T20:35:38.875Z</time></trkpt><trkpt lat="40.05291385870583" lon="18.09958258517986"><ele>57.0</ele><time>2026-04-21T20:35:39.875Z</time></trkpt><trkpt lat="40.05286001028649" lon="18.099900247335146"><ele>57.0</ele><time>2026-04-21T20:35:40.875Z</time></trkpt><trkpt lat="40.05280576356728" lon="18.10021275970344"><ele>56.5</ele><time>2026-04-21T20:35:41.875Z</time></trkpt><trkpt lat="40.05275047610549" lon="18.10052536309469"><ele>56.0</ele><time>2026-04-21T20:35:42.875Z</time></trkpt><trkpt lat="40.05269596222975" lon="18.100832505962384"><ele>56.0</ele><time>2026-04-21T20:35:43.875Z</time></trkpt><trkpt lat="40.05264595950751" lon="18.101136024035302"><ele>56.0</ele><time>2026-04-21T20:35:44.875Z</time></trkpt><trkpt lat="40.05260643516479" lon="18.10139541208954"><ele>56.0</ele><time>2026-04-21T20:35:45.875Z</time></trkpt><trkpt lat="40.052569613914585" lon="18.101601450187335"><ele>56.333333333333336</ele><time>2026-04-21T20:35:46.874Z</time></trkpt><trkpt lat="40.05252988785583" lon="18.101799556249734"><ele>56.66666666666667</ele><time>2026-04-21T20:35:47.874Z</time></trkpt><trkpt lat="40.05249694885945" lon="18.1019943906478"><ele>57.0</ele><time>2026-04-21T20:35:48.874Z</time></trkpt><trkpt lat="40.05246261875963" lon="18.102184082078878"><ele>57.0</ele><time>2026-04-21T20:35:49.874Z</time></trkpt><trkpt lat="40.05242635778032" lon="18.102384367852913"><ele>57.0</ele><time>2026-04-21T20:35:50.874Z</time></trkpt><trkpt lat="40.052388880901496" lon="18.102589725845984"><ele>57.0</ele><time>2026-04-21T20:35:51.874Z</time></trkpt><trkpt lat="40.05235084202998" lon="18.10279960348618"><ele>57.0</ele><time>2026-04-21T20:35:52.874Z</time></trkpt><trkpt lat="40.052308969201455" lon="18.103008185925702"><ele>57.0</ele><time>2026-04-21T20:35:53.874Z</time></trkpt><trkpt lat="40.052270352393634" lon="18.10322324051657"><ele>57.0</ele><time>2026-04-21T20:35:54.874Z</time></trkpt><trkpt lat="40.052232059946554" lon="18.10344092107452"><ele>56.66666666666667</ele><time>2026-04-21T20:35:55.874Z</time></trkpt><trkpt lat="40.0521972147678" lon="18.10364970120147"><ele>56.333333333333336</ele><time>2026-04-21T20:35:56.874Z</time></trkpt><trkpt lat="40.05216097585544" lon="18.103848712550334"><ele>56.0</ele><time>2026-04-21T20:35:57.874Z</time></trkpt><trkpt lat="40.05212317137048" lon="18.10404761059478"><ele>55.5</ele><time>2026-04-21T20:35:58.874Z</time></trkpt><trkpt lat="40.05208928792157" lon="18.104239547070154"><ele>55.0</ele><time>2026-04-21T20:35:59.874Z</time></trkpt><trkpt lat="40.05205715897492" lon="18.104424837954692"><ele>54.5</ele><time>2026-04-21T20:36:00.874Z</time></trkpt><trkpt lat="40.05202517712705" lon="18.104607367603947"><ele>54.0</ele><time>2026-04-21T20:36:01.874Z</time></trkpt><trkpt lat="40.05198991033667" lon="18.104786549868656"><ele>54.5</ele><time>2026-04-21T20:36:02.874Z</time></trkpt><trkpt lat="40.05195954511194" lon="18.104969011910203"><ele>55.0</ele><time>2026-04-21T20:36:03.874Z</time></trkpt><trkpt lat="40.05193064795886" lon="18.105154133616967"><ele>55.5</ele><time>2026-04-21T20:36:04.874Z</time></trkpt><trkpt lat="40.05189326911678" lon="18.10533697141985"><ele>56.0</ele><time>2026-04-21T20:36:05.874Z</time></trkpt><trkpt lat="40.05186342220346" lon="18.105518791725128"><ele>56.0</ele><time>2026-04-21T20:36:06.874Z</time></trkpt><trkpt lat="40.05183512997145" lon="18.105695823815633"><ele>56.0</ele><time>2026-04-21T20:36:07.874Z</time></trkpt><trkpt lat="40.0518127932767" lon="18.10585518820873"><ele>56.0</ele><time>2026-04-21T20:36:08.874Z</time></trkpt><trkpt lat="40.0517907998665" lon="18.106013481015612"><ele>56.0</ele><time>2026-04-21T20:36:09.874Z</time></trkpt><trkpt lat="40.051772339985696" lon="18.106179001726833"><ele>56.0</ele><time>2026-04-21T20:36:10.874Z</time></trkpt><trkpt lat="40.05175321225067" lon="18.106354497880904"><ele>56.0</ele><time>2026-04-21T20:36:11.874Z</time></trkpt><trkpt lat="40.05173599537792" lon="18.10653041767098"><ele>56.0</ele><time>2026-04-21T20:36:12.874Z</time></trkpt><trkpt lat="40.051714990260365" lon="18.106706589751354"><ele>56.0</ele><time>2026-04-21T20:36:13.874Z</time></trkpt><trkpt lat="40.05169589372132" lon="18.1068764155158"><ele>56.0</ele><time>2026-04-21T20:36:14.874Z</time></trkpt><trkpt lat="40.051680765877755" lon="18.10703865073249"><ele>56.0</ele><time>2026-04-21T20:36:15.874Z</time></trkpt><trkpt lat="40.05166020848903" lon="18.107188180580074"><ele>56.0</ele><time>2026-04-21T20:36:16.874Z</time></trkpt><trkpt lat="40.05164127838685" lon="18.107326351881103"><ele>56.0</ele><time>2026-04-21T20:36:17.874Z</time></trkpt><trkpt lat="40.05162426794247" lon="18.107460463794727"><ele>55.8</ele><time>2026-04-21T20:36:18.874Z</time></trkpt><trkpt lat="40.0516005049273" lon="18.107575068637786"><ele>55.599999999999994</ele><time>2026-04-21T20:36:19.874Z</time></trkpt><trkpt lat="40.05155964885394" lon="18.1076845530423"><ele>55.4</ele><time>2026-04-21T20:36:20.874Z</time></trkpt><trkpt lat="40.051510004698734" lon="18.107802695861675"><ele>55.2</ele><time>2026-04-21T20:36:21.874Z</time></trkpt><trkpt lat="40.05145618722444" lon="18.107932579674408"><ele>55.0</ele><time>2026-04-21T20:36:22.874Z</time></trkpt><trkpt lat="40.051418820706296" lon="18.108096239862334"><ele>55.33333333333333</ele><time>2026-04-21T20:36:23.874Z</time></trkpt><trkpt lat="40.05138130544777" lon="18.10827278846121"><ele>55.66666666666667</ele><time>2026-04-21T20:36:24.874Z</time></trkpt><trkpt lat="40.0513394071482" lon="18.108498338807102"><ele>56.0</ele><time>2026-04-21T20:36:25.874Z</time></trkpt><trkpt lat="40.051295274247664" lon="18.108775372315016"><ele>56.0</ele><time>2026-04-21T20:36:26.875Z</time></trkpt><trkpt lat="40.05123810770126" lon="18.109077897594396"><ele>56.0</ele><time>2026-04-21T20:36:27.874Z</time></trkpt><trkpt lat="40.0511689042484" lon="18.109389114669167"><ele>56.0</ele><time>2026-04-21T20:36:28.874Z</time></trkpt><trkpt lat="40.0510993508327" lon="18.109713926234075"><ele>56.0</ele><time>2026-04-21T20:36:29.875Z</time></trkpt><trkpt lat="40.051041449244615" lon="18.110012484680702"><ele>55.66666666666667</ele><time>2026-04-21T20:36:30.874Z</time></trkpt><trkpt lat="40.05099772517428" lon="18.110273759946818"><ele>55.33333333333333</ele><time>2026-04-21T20:36:31.874Z</time></trkpt><trkpt lat="40.050962964029665" lon="18.110496704981955"><ele>55.0</ele><time>2026-04-21T20:36:32.874Z</time></trkpt><trkpt lat="40.05093149324463" lon="18.110682728603"><ele>55.2</ele><time>2026-04-21T20:36:33.874Z</time></trkpt><trkpt lat="40.05089303338498" lon="18.110832096000852"><ele>55.4</ele><time>2026-04-21T20:36:34.874Z</time></trkpt><trkpt lat="40.05087294009581" lon="18.110939782742978"><ele>55.599999999999994</ele><time>2026-04-21T20:36:35.874Z</time></trkpt><trkpt lat="40.0508539085227" lon="18.111039631240246"><ele>55.8</ele><time>2026-04-21T20:36:36.874Z</time></trkpt><trkpt lat="40.05083257528993" lon="18.11116068596464"><ele>56.0</ele><time>2026-04-21T20:36:37.874Z</time></trkpt><trkpt lat="40.05080710935958" lon="18.11133086668635"><ele>56.0</ele><time>2026-04-21T20:36:38.874Z</time></trkpt><trkpt lat="40.05077578674424" lon="18.111535426245197"><ele>56.0</ele><time>2026-04-21T20:36:39.874Z</time></trkpt><trkpt lat="40.050734695952166" lon="18.111767981101604"><ele>56.0</ele><time>2026-04-21T20:36:40.874Z</time></trkpt><trkpt lat="40.0506872735818" lon="18.112024785407655"><ele>56.0</ele><time>2026-04-21T20:36:41.874Z</time></trkpt><trkpt lat="40.050638078874954" lon="18.112296968999015"><ele>56.0</ele><time>2026-04-21T20:36:42.874Z</time></trkpt><trkpt lat="40.050586615603706" lon="18.11258595949266"><ele>56.0</ele><time>2026-04-21T20:36:43.874Z</time></trkpt><trkpt lat="40.0505353264494" lon="18.11288486867923"><ele>56.5</ele><time>2026-04-21T20:36:44.874Z</time></trkpt><trkpt lat="40.050480436103335" lon="18.113189730880038"><ele>57.0</ele><time>2026-04-21T20:36:45.874Z</time></trkpt><trkpt lat="40.05042767684368" lon="18.11349784977925"><ele>57.0</ele><time>2026-04-21T20:36:46.874Z</time></trkpt><trkpt lat="40.05037795157273" lon="18.113804863657993"><ele>57.0</ele><time>2026-04-21T20:36:47.874Z</time></trkpt><trkpt lat="40.05032150036791" lon="18.114113016861346"><ele>56.5</ele><time>2026-04-21T20:36:48.874Z</time></trkpt><trkpt lat="40.05026697963894" lon="18.114417628387645"><ele>56.0</ele><time>2026-04-21T20:36:49.874Z</time></trkpt><trkpt lat="40.050212646241434" lon="18.114723530727083"><ele>56.5</ele><time>2026-04-21T20:36:50.874Z</time></trkpt><trkpt lat="40.05015731395688" lon="18.11502490910314"><ele>57.0</ele><time>2026-04-21T20:36:51.874Z</time></trkpt><trkpt lat="40.05010337703963" lon="18.11532703091457"><ele>57.0</ele><time>2026-04-21T20:36:52.874Z</time></trkpt><trkpt lat="40.050048651502046" lon="18.115626323542198"><ele>57.0</ele><time>2026-04-21T20:36:53.874Z</time></trkpt><trkpt lat="40.04999650329371" lon="18.11593098174045"><ele>56.0</ele><time>2026-04-21T20:36:54.873Z</time></trkpt><trkpt lat="40.04994775120588" lon="18.1162370790562"><ele>55.0</ele><time>2026-04-21T20:36:55.873Z</time></trkpt><trkpt lat="40.04988543043006" lon="18.116542865861064"><ele>56.0</ele><time>2026-04-21T20:36:56.873Z</time></trkpt><trkpt lat="40.04982960576551" lon="18.116846926080147"><ele>57.0</ele><time>2026-04-21T20:36:57.873Z</time></trkpt><trkpt lat="40.04977838217369" lon="18.117144560359073"><ele>58.0</ele><time>2026-04-21T20:36:58.873Z</time></trkpt><trkpt lat="40.049724947835195" lon="18.117440662250775"><ele>59.0</ele><time>2026-04-21T20:36:59.873Z</time></trkpt><trkpt lat="40.04967352715152" lon="18.11773785176581"><ele>59.0</ele><time>2026-04-21T20:37:00.873Z</time></trkpt><trkpt lat="40.04962780698691" lon="18.118014101495543"><ele>59.0</ele><time>2026-04-21T20:37:01.873Z</time></trkpt><trkpt lat="40.04958035402179" lon="18.11826924652317"><ele>59.0</ele><time>2026-04-21T20:37:02.873Z</time></trkpt><trkpt lat="40.04953517643354" lon="18.118510852098073"><ele>59.66666666666667</ele><time>2026-04-21T20:37:03.873Z</time></trkpt><trkpt lat="40.0494920714498" lon="18.118743422140405"><ele>60.33333333333333</ele><time>2026-04-21T20:37:04.873Z</time></trkpt><trkpt lat="40.04944909596889" lon="18.11895553274842"><ele>61.0</ele><time>2026-04-21T20:37:05.873Z</time></trkpt><trkpt lat="40.049418290342174" lon="18.11913011740648"><ele>61.0</ele><time>2026-04-21T20:37:06.873Z</time></trkpt><trkpt lat="40.04939277361295" lon="18.11926509967009"><ele>61.0</ele><time>2026-04-21T20:37:07.873Z</time></trkpt><trkpt lat="40.04937074001131" lon="18.119400156015537"><ele>61.0</ele><time>2026-04-21T20:37:08.873Z</time></trkpt><trkpt lat="40.04934439349827" lon="18.11954791053178"><ele>61.0</ele><time>2026-04-21T20:37:09.873Z</time></trkpt><trkpt lat="40.04931994723116" lon="18.119730095466053"><ele>61.33333333333333</ele><time>2026-04-21T20:37:10.873Z</time></trkpt><trkpt lat="40.049278715686505" lon="18.119934461267214"><ele>61.66666666666667</ele><time>2026-04-21T20:37:11.873Z</time></trkpt><trkpt lat="40.04924163605183" lon="18.120152211415423"><ele>62.0</ele><time>2026-04-21T20:37:12.873Z</time></trkpt><trkpt lat="40.04920133985559" lon="18.120385518409996"><ele>62.0</ele><time>2026-04-21T20:37:13.873Z</time></trkpt><trkpt lat="40.049162095618925" lon="18.120616201599614"><ele>62.0</ele><time>2026-04-21T20:37:14.873Z</time></trkpt><trkpt lat="40.04912309756129" lon="18.120820235388233"><ele>62.0</ele><time>2026-04-21T20:37:15.873Z</time></trkpt><trkpt lat="40.04908721376023" lon="18.120985225505386"><ele>62.16666666666667</ele><time>2026-04-21T20:37:16.873Z</time></trkpt><trkpt lat="40.04905573708059" lon="18.121128239444907"><ele>62.333333333333336</ele><time>2026-04-21T20:37:17.873Z</time></trkpt><trkpt lat="40.04903285880702" lon="18.12124349008692"><ele>62.5</ele><time>2026-04-21T20:37:18.873Z</time></trkpt><trkpt lat="40.0490132349427" lon="18.121334816167305"><ele>62.66666666666667</ele><time>2026-04-21T20:37:19.873Z</time></trkpt><trkpt lat="40.04899532821331" lon="18.121428399070453"><ele>62.833333333333336</ele><time>2026-04-21T20:37:20.873Z</time></trkpt><trkpt lat="40.048976184195226" lon="18.12153491133296"><ele>63.0</ele><time>2026-04-21T20:37:21.873Z</time></trkpt><trkpt lat="40.04896089906216" lon="18.121656961101717"><ele>63.75</ele><time>2026-04-21T20:37:22.873Z</time></trkpt><trkpt lat="40.04893741661064" lon="18.121796827761997"><ele>64.5</ele><time>2026-04-21T20:37:23.873Z</time></trkpt><trkpt lat="40.04890450771988" lon="18.121964811611946"><ele>65.25</ele><time>2026-04-21T20:37:24.873Z</time></trkpt><trkpt lat="40.0488642190879" lon="18.122160511655633"><ele>66.0</ele><time>2026-04-21T20:37:25.873Z</time></trkpt><trkpt lat="40.048823724413865" lon="18.122389363271648"><ele>66.0</ele><time>2026-04-21T20:37:26.873Z</time></trkpt><trkpt lat="40.048798408107345" lon="18.12259142154909"><ele>66.0</ele><time>2026-04-21T20:37:27.873Z</time></trkpt><trkpt lat="40.048774520686415" lon="18.122755772351237"><ele>66.0</ele><time>2026-04-21T20:37:28.873Z</time></trkpt><trkpt lat="40.04876947259419" lon="18.122901981045803"><ele>66.0</ele><time>2026-04-21T20:37:29.873Z</time></trkpt><trkpt lat="40.048786776411774" lon="18.123035206435905"><ele>66.0</ele><time>2026-04-21T20:37:30.873Z</time></trkpt><trkpt lat="40.048820300921" lon="18.123175075182946"><ele>66.0</ele><time>2026-04-21T20:37:31.873Z</time></trkpt><trkpt lat="40.04885565938056" lon="18.123315118515155"><ele>66.0</ele><time>2026-04-21T20:37:32.873Z</time></trkpt><trkpt lat="40.048895822087125" lon="18.123448532720637"><ele>66.0</ele><time>2026-04-21T20:37:33.873Z</time></trkpt><trkpt lat="40.04893626510153" lon="18.12356570467203"><ele>66.0</ele><time>2026-04-21T20:37:34.873Z</time></trkpt><trkpt lat="40.04898605066479" lon="18.123661238653327"><ele>66.28571428571428</ele><time>2026-04-21T20:37:35.872Z</time></trkpt><trkpt lat="40.04901875737786" lon="18.123757270858338"><ele>66.57142857142857</ele><time>2026-04-21T20:37:36.872Z</time></trkpt><trkpt lat="40.049035090542986" lon="18.123856010443046"><ele>66.85714285714286</ele><time>2026-04-21T20:37:37.872Z</time></trkpt><trkpt lat="40.049083013092535" lon="18.123933232860516"><ele>67.14285714285714</ele><time>2026-04-21T20:37:38.872Z</time></trkpt><trkpt lat="40.049121478610815" lon="18.124013030450264"><ele>67.42857142857143</ele><time>2026-04-21T20:37:39.872Z</time></trkpt><trkpt lat="40.04915072046808" lon="18.124091030119928"><ele>67.71428571428571</ele><time>2026-04-21T20:37:40.872Z</time></trkpt><trkpt lat="40.04917408694327" lon="18.124184078081615"><ele>68.0</ele><time>2026-04-21T20:37:41.872Z</time></trkpt><trkpt lat="40.04919061467765" lon="18.124313825803966"><ele>69.25</ele><time>2026-04-21T20:37:42.872Z</time></trkpt><trkpt lat="40.049248832280306" lon="18.124437129644832"><ele>70.5</ele><time>2026-04-21T20:37:43.872Z</time></trkpt><trkpt lat="40.04932118546028" lon="18.124575212826812"><ele>71.75</ele><time>2026-04-21T20:37:44.872Z</time></trkpt><trkpt lat="40.04936551580172" lon="18.1247203624954"><ele>73.0</ele><time>2026-04-21T20:37:45.872Z</time></trkpt><trkpt lat="40.04941023262159" lon="18.124938826959752"><ele>73.2</ele><time>2026-04-21T20:37:46.872Z</time></trkpt><trkpt lat="40.049465253866295" lon="18.12510051286875"><ele>73.4</ele><time>2026-04-21T20:37:47.872Z</time></trkpt><trkpt lat="40.04951113882485" lon="18.125242999023207"><ele>73.60000000000001</ele><time>2026-04-21T20:37:48.872Z</time></trkpt><trkpt lat="40.04956381997861" lon="18.12535430061035"><ele>73.8</ele><time>2026-04-21T20:37:49.872Z</time></trkpt><trkpt lat="40.049586520429976" lon="18.12546548117418"><ele>74.0</ele><time>2026-04-21T20:37:50.872Z</time></trkpt><trkpt lat="40.04961538442917" lon="18.125557340443425"><ele>74.0</ele><time>2026-04-21T20:37:51.872Z</time></trkpt><trkpt lat="40.04965838916341" lon="18.125631228950677"><ele>74.0</ele><time>2026-04-21T20:37:52.872Z</time></trkpt><trkpt lat="40.04968542565024" lon="18.125710400339003"><ele>74.0</ele><time>2026-04-21T20:37:53.872Z</time></trkpt><trkpt lat="40.04973096273399" lon="18.125843747234516"><ele>74.0</ele><time>2026-04-21T20:37:55.872Z</time></trkpt><trkpt lat="40.04976297797192" lon="18.125937498171112"><ele>74.0</ele><time>2026-04-21T20:37:58.872Z</time></trkpt><trkpt lat="40.04969260990616" lon="18.125980814903865"><ele>74.0</ele><time>2026-04-21T20:37:59.872Z</time></trkpt><trkpt lat="40.049606546323034" lon="18.126016985810942"><ele>74.0</ele><time>2026-04-21T20:38:00.872Z</time></trkpt><trkpt lat="40.04950518175651" lon="18.12605960869063"><ele>74.0</ele><time>2026-04-21T20:38:01.872Z</time></trkpt><trkpt lat="40.04936464184011" lon="18.12612788598186"><ele>74.0</ele><time>2026-04-21T20:38:02.872Z</time></trkpt><trkpt lat="40.04922339852575" lon="18.12618568612512"><ele>74.0</ele><time>2026-04-21T20:38:03.872Z</time></trkpt><trkpt lat="40.049117727811364" lon="18.12623442318009"><ele>74.0</ele><time>2026-04-21T20:38:04.872Z</time></trkpt><trkpt lat="40.04901662736332" lon="18.126275084794624"><ele>74.0</ele><time>2026-04-21T20:38:05.872Z</time></trkpt><trkpt lat="40.048904989274554" lon="18.126323758086446"><ele>74.0</ele><time>2026-04-21T20:38:06.872Z</time></trkpt><trkpt lat="40.048797821593666" lon="18.12637762629018"><ele>74.0</ele><time>2026-04-21T20:38:07.872Z</time></trkpt><trkpt lat="40.04868366060484" lon="18.12642096043532"><ele>74.0</ele><time>2026-04-21T20:38:08.872Z</time></trkpt><trkpt lat="40.048562085202896" lon="18.12647049221474"><ele>74.0</ele><time>2026-04-21T20:38:09.872Z</time></trkpt><trkpt lat="40.04848483610688" lon="18.12650796891558"><ele>74.0</ele><time>2026-04-21T20:38:10.872Z</time></trkpt><trkpt lat="40.04841951215375" lon="18.12653058333078"><ele>74.0</ele><time>2026-04-21T20:38:11.872Z</time></trkpt><trkpt lat="40.04834218828163" lon="18.12653806129199"><ele>74.0</ele><time>2026-04-21T20:38:14.872Z</time></trkpt><trkpt lat="40.04826774851456" lon="18.12658648147791"><ele>74.0</ele><time>2026-04-21T20:38:15.871Z</time></trkpt><trkpt lat="40.0481606314958" lon="18.12663679481357"><ele>74.25</ele><time>2026-04-21T20:38:16.871Z</time></trkpt><trkpt lat="40.04803398258022" lon="18.126694386080665"><ele>74.5</ele><time>2026-04-21T20:38:17.871Z</time></trkpt><trkpt lat="40.04789337962006" lon="18.126765954614427"><ele>74.75</ele><time>2026-04-21T20:38:18.871Z</time></trkpt><trkpt lat="40.04776330481433" lon="18.12683577457105"><ele>75.0</ele><time>2026-04-21T20:38:19.871Z</time></trkpt><trkpt lat="40.04763808523563" lon="18.126910183183647"><ele>75.0</ele><time>2026-04-21T20:38:20.871Z</time></trkpt><trkpt lat="40.04750241880914" lon="18.126980177892854"><ele>75.0</ele><time>2026-04-21T20:38:21.871Z</time></trkpt><trkpt lat="40.04736344902954" lon="18.127045638472115"><ele>75.0</ele><time>2026-04-21T20:38:22.871Z</time></trkpt><trkpt lat="40.047237773330515" lon="18.127090554024118"><ele>75.0</ele><time>2026-04-21T20:38:23.871Z</time></trkpt><trkpt lat="40.047127872131554" lon="18.127147356241046"><ele>75.0</ele><time>2026-04-21T20:38:24.871Z</time></trkpt><trkpt lat="40.04703224990854" lon="18.127204125004514"><ele>75.0</ele><time>2026-04-21T20:38:25.871Z</time></trkpt><trkpt lat="40.04693942439076" lon="18.127250632220218"><ele>75.0</ele><time>2026-04-21T20:38:26.872Z</time></trkpt><trkpt lat="40.04684482247789" lon="18.127281017560232"><ele>75.0</ele><time>2026-04-21T20:38:27.871Z</time></trkpt><trkpt lat="40.046738556010126" lon="18.12733173264155"><ele>75.0</ele><time>2026-04-21T20:38:28.871Z</time></trkpt><trkpt lat="40.04662456949448" lon="18.12738613211346"><ele>75.25</ele><time>2026-04-21T20:38:29.872Z</time></trkpt><trkpt lat="40.04648187560567" lon="18.127455431226593"><ele>75.5</ele><time>2026-04-21T20:38:30.872Z</time></trkpt><trkpt lat="40.0463418383945" lon="18.12752271465303"><ele>75.75</ele><time>2026-04-21T20:38:31.872Z</time></trkpt><trkpt lat="40.04622650128895" lon="18.12757764428041"><ele>76.0</ele><time>2026-04-21T20:38:32.872Z</time></trkpt><trkpt lat="40.04613687251942" lon="18.127620330558745"><ele>76.0</ele><time>2026-04-21T20:38:33.872Z</time></trkpt><trkpt lat="40.04604200327996" lon="18.12768663525569"><ele>76.0</ele><time>2026-04-21T20:38:34.872Z</time></trkpt><trkpt lat="40.04594402736067" lon="18.127713677709966"><ele>76.0</ele><time>2026-04-21T20:38:35.872Z</time></trkpt><trkpt lat="40.045815735041096" lon="18.127793468855412"><ele>76.0</ele><time>2026-04-21T20:38:36.872Z</time></trkpt><trkpt lat="40.045671197492815" lon="18.127866806066702"><ele>76.33333333333333</ele><time>2026-04-21T20:38:37.872Z</time></trkpt><trkpt lat="40.04549260437949" lon="18.127947020739697"><ele>76.66666666666667</ele><time>2026-04-21T20:38:38.872Z</time></trkpt><trkpt lat="40.045289399957674" lon="18.128028744515735"><ele>77.0</ele><time>2026-04-21T20:38:39.872Z</time></trkpt><trkpt lat="40.04508252508282" lon="18.128148207792776"><ele>77.66666666666667</ele><time>2026-04-21T20:38:40.872Z</time></trkpt><trkpt lat="40.044873658815085" lon="18.128244748117485"><ele>78.33333333333333</ele><time>2026-04-21T20:38:41.872Z</time></trkpt><trkpt lat="40.044706387854376" lon="18.128320572739042"><ele>79.0</ele><time>2026-04-21T20:38:42.872Z</time></trkpt><trkpt lat="40.04456180853548" lon="18.12839370663006"><ele>79.0</ele><time>2026-04-21T20:38:43.872Z</time></trkpt><trkpt lat="40.04442177729827" lon="18.12846196448883"><ele>79.0</ele><time>2026-04-21T20:38:44.872Z</time></trkpt><trkpt lat="40.044274199259824" lon="18.128521247406603"><ele>79.0</ele><time>2026-04-21T20:38:45.872Z</time></trkpt><trkpt lat="40.04412286587462" lon="18.128588148751078"><ele>79.0</ele><time>2026-04-21T20:38:46.872Z</time></trkpt><trkpt lat="40.04396847368798" lon="18.12865662956291"><ele>79.0</ele><time>2026-04-21T20:38:47.872Z</time></trkpt><trkpt lat="40.04383320060183" lon="18.12873186083217"><ele>79.0</ele><time>2026-04-21T20:38:48.872Z</time></trkpt><trkpt lat="40.043721649984775" lon="18.128795998198076"><ele>79.0</ele><time>2026-04-21T20:38:49.872Z</time></trkpt><trkpt lat="40.04361100850726" lon="18.12884480549369"><ele>79.0</ele><time>2026-04-21T20:38:50.871Z</time></trkpt><trkpt lat="40.04350885102505" lon="18.12890139676604"><ele>79.0</ele><time>2026-04-21T20:38:51.871Z</time></trkpt><trkpt lat="40.04342970153053" lon="18.128946850034108"><ele>79.0</ele><time>2026-04-21T20:38:52.871Z</time></trkpt><trkpt lat="40.043289820980576" lon="18.128874314112554"><ele>79.0</ele><time>2026-04-21T20:38:54.871Z</time></trkpt><trkpt lat="40.04319185265119" lon="18.1288434597463"><ele>79.0</ele><time>2026-04-21T20:38:55.871Z</time></trkpt><trkpt lat="40.04305829343836" lon="18.128801770776032"><ele>78.33333333333333</ele><time>2026-04-21T20:38:56.871Z</time></trkpt><trkpt lat="40.04289651107491" lon="18.128751272243626"><ele>77.66666666666667</ele><time>2026-04-21T20:38:57.871Z</time></trkpt><trkpt lat="40.0427276986224" lon="18.128697968718036"><ele>77.0</ele><time>2026-04-21T20:38:58.871Z</time></trkpt><trkpt lat="40.04254231314961" lon="18.12863959674682"><ele>76.5</ele><time>2026-04-21T20:38:59.871Z</time></trkpt><trkpt lat="40.042384944387685" lon="18.128590711793006"><ele>76.0</ele><time>2026-04-21T20:39:00.871Z</time></trkpt><trkpt lat="40.04224771130481" lon="18.128549412556865"><ele>75.5</ele><time>2026-04-21T20:39:01.871Z</time></trkpt><trkpt lat="40.04212234236389" lon="18.128512490784498"><ele>75.0</ele><time>2026-04-21T20:39:02.871Z</time></trkpt><trkpt lat="40.04200726206156" lon="18.128478837091528"><ele>75.0</ele><time>2026-04-21T20:39:03.871Z</time></trkpt><trkpt lat="40.04190849533693" lon="18.128452421179702"><ele>75.0</ele><time>2026-04-21T20:39:04.871Z</time></trkpt><trkpt lat="40.04181252901897" lon="18.128438895508463"><ele>75.0</ele><time>2026-04-21T20:39:05.871Z</time></trkpt><trkpt lat="40.0417220082597" lon="18.128460068076652"><ele>75.0</ele><time>2026-04-21T20:39:06.871Z</time></trkpt><trkpt lat="40.041633726297135" lon="18.12846906607357"><ele>75.0</ele><time>2026-04-21T20:39:07.871Z</time></trkpt><trkpt lat="40.041549038328014" lon="18.128475692756666"><ele>74.2</ele><time>2026-04-21T20:39:08.871Z</time></trkpt><trkpt lat="40.041485477301286" lon="18.128483503877536"><ele>73.4</ele><time>2026-04-21T20:39:09.871Z</time></trkpt><trkpt lat="40.04142590329095" lon="18.128633173471307"><ele>72.6</ele><time>2026-04-21T20:39:14.871Z</time></trkpt><trkpt lat="40.04142834511075" lon="18.128745088041057"><ele>71.8</ele><time>2026-04-21T20:39:15.871Z</time></trkpt><trkpt lat="40.041426070152866" lon="18.12887039520895"><ele>71.0</ele><time>2026-04-21T20:39:16.871Z</time></trkpt><trkpt lat="40.041451375194896" lon="18.12901246953891"><ele>72.75</ele><time>2026-04-21T20:39:17.871Z</time></trkpt><trkpt lat="40.04147451446067" lon="18.129197872083374"><ele>74.5</ele><time>2026-04-21T20:39:18.871Z</time></trkpt><trkpt lat="40.041500734635754" lon="18.129395562865525"><ele>76.25</ele><time>2026-04-21T20:39:19.871Z</time></trkpt><trkpt lat="40.0415154491697" lon="18.129582467348076"><ele>78.0</ele><time>2026-04-21T20:39:20.871Z</time></trkpt><trkpt lat="40.04151350618262" lon="18.129778513261833"><ele>80.66666666666667</ele><time>2026-04-21T20:39:21.871Z</time></trkpt><trkpt lat="40.04153218890624" lon="18.12999030393925"><ele>83.33333333333334</ele><time>2026-04-21T20:39:22.871Z</time></trkpt><trkpt lat="40.04157071243861" lon="18.130201550129527"><ele>86.0</ele><time>2026-04-21T20:39:23.871Z</time></trkpt><trkpt lat="40.041591862889426" lon="18.130406085838317"><ele>86.0</ele><time>2026-04-21T20:39:24.871Z</time></trkpt><trkpt lat="40.04160474801614" lon="18.130570986188424"><ele>86.0</ele><time>2026-04-21T20:39:25.871Z</time></trkpt><trkpt lat="40.041613380970816" lon="18.130695691055962"><ele>86.0</ele><time>2026-04-21T20:39:26.871Z</time></trkpt><trkpt lat="40.041622383272916" lon="18.13079169125425"><ele>86.0</ele><time>2026-04-21T20:39:27.871Z</time></trkpt><trkpt lat="40.041628858162355" lon="18.13088453216722"><ele>86.0</ele><time>2026-04-21T20:39:28.87Z</time></trkpt><trkpt lat="40.04163790292549" lon="18.1310007828758"><ele>88.25</ele><time>2026-04-21T20:39:29.87Z</time></trkpt><trkpt lat="40.041646625704686" lon="18.13114464098875"><ele>90.5</ele><time>2026-04-21T20:39:30.87Z</time></trkpt><trkpt lat="40.041657647320164" lon="18.13130056245263"><ele>92.75</ele><time>2026-04-21T20:39:31.87Z</time></trkpt><trkpt lat="40.04166767506899" lon="18.13144938308013"><ele>95.0</ele><time>2026-04-21T20:39:32.87Z</time></trkpt><trkpt lat="40.04168487128379" lon="18.13159282950413"><ele>96.2</ele><time>2026-04-21T20:39:33.87Z</time></trkpt><trkpt lat="40.041698680423906" lon="18.13172375849374"><ele>97.4</ele><time>2026-04-21T20:39:34.87Z</time></trkpt><trkpt lat="40.041711339630986" lon="18.13186789422581"><ele>98.6</ele><time>2026-04-21T20:39:35.87Z</time></trkpt><trkpt lat="40.04171260570755" lon="18.132016761075516"><ele>99.8</ele><time>2026-04-21T20:39:36.87Z</time></trkpt><trkpt lat="40.041722357860166" lon="18.132160011482647"><ele>101.0</ele><time>2026-04-21T20:39:37.87Z</time></trkpt><trkpt lat="40.041725400763845" lon="18.13230443771309"><ele>101.99999999999999</ele><time>2026-04-21T20:39:38.87Z</time></trkpt><trkpt lat="40.041728737009585" lon="18.132431878947006"><ele>103.0</ele><time>2026-04-21T20:39:39.87Z</time></trkpt><trkpt lat="40.04174064172368" lon="18.132535271932817"><ele>104.0</ele><time>2026-04-21T20:39:40.87Z</time></trkpt><trkpt lat="40.041746443579754" lon="18.132656645708874"><ele>105.0</ele><time>2026-04-21T20:39:42.87Z</time></trkpt><trkpt lat="40.04175422857855" lon="18.132743077413647"><ele>105.99999999999999</ele><time>2026-04-21T20:39:43.87Z</time></trkpt><trkpt lat="40.04177193632337" lon="18.132855969716616"><ele>107.0</ele><time>2026-04-21T20:39:44.87Z</time></trkpt><trkpt lat="40.04177909438897" lon="18.132991358915746"><ele>107.0</ele><time>2026-04-21T20:39:45.87Z</time></trkpt><trkpt lat="40.04180089695258" lon="18.133134541942823"><ele>107.0</ele><time>2026-04-21T20:39:46.87Z</time></trkpt><trkpt lat="40.0418135602103" lon="18.133310713712035"><ele>107.0</ele><time>2026-04-21T20:39:47.87Z</time></trkpt><trkpt lat="40.04181827429125" lon="18.133500831022957"><ele>107.0</ele><time>2026-04-21T20:39:48.87Z</time></trkpt><trkpt lat="40.04182849728681" lon="18.133693436918065"><ele>107.5</ele><time>2026-04-21T20:39:49.87Z</time></trkpt><trkpt lat="40.041849410944955" lon="18.133865790470423"><ele>108.0</ele><time>2026-04-21T20:39:50.87Z</time></trkpt><trkpt lat="40.04189466222375" lon="18.13400942114774"><ele>108.5</ele><time>2026-04-21T20:39:51.87Z</time></trkpt><trkpt lat="40.04195539904189" lon="18.134127684065827"><ele>109.0</ele><time>2026-04-21T20:39:52.87Z</time></trkpt><trkpt lat="40.04204465708626" lon="18.134223833698357"><ele>108.66666666666667</ele><time>2026-04-21T20:39:53.87Z</time></trkpt><trkpt lat="40.04216068386347" lon="18.13431076447998"><ele>108.33333333333334</ele><time>2026-04-21T20:39:54.87Z</time></trkpt><trkpt lat="40.042307150996265" lon="18.13438990267542"><ele>108.0</ele><time>2026-04-21T20:39:55.87Z</time></trkpt><trkpt lat="40.04247251609197" lon="18.134458292330486"><ele>108.0</ele><time>2026-04-21T20:39:56.87Z</time></trkpt><trkpt lat="40.0426623242697" lon="18.134518928609243"><ele>108.0</ele><time>2026-04-21T20:39:57.87Z</time></trkpt><trkpt lat="40.0428465751865" lon="18.1345882645158"><ele>108.0</ele><time>2026-04-21T20:39:58.87Z</time></trkpt><trkpt lat="40.04303357716252" lon="18.134667406304274"><ele>108.0</ele><time>2026-04-21T20:39:59.87Z</time></trkpt><trkpt lat="40.043225922967395" lon="18.134749183516828"><ele>108.0</ele><time>2026-04-21T20:40:00.87Z</time></trkpt><trkpt lat="40.043422296961886" lon="18.134829396316867"><ele>108.0</ele><time>2026-04-21T20:40:01.87Z</time></trkpt><trkpt lat="40.04361107670256" lon="18.134912115792176"><ele>109.0</ele><time>2026-04-21T20:40:02.87Z</time></trkpt><trkpt lat="40.04378480500193" lon="18.135002328879263"><ele>110.0</ele><time>2026-04-21T20:40:03.87Z</time></trkpt><trkpt lat="40.04393539395321" lon="18.13508732066628"><ele>111.0</ele><time>2026-04-21T20:40:04.87Z</time></trkpt><trkpt lat="40.04406455548286" lon="18.13517243410186"><ele>111.33333333333334</ele><time>2026-04-21T20:40:05.87Z</time></trkpt><trkpt lat="40.044191803829214" lon="18.13529224160847"><ele>111.66666666666667</ele><time>2026-04-21T20:40:06.87Z</time></trkpt><trkpt lat="40.044292442757204" lon="18.13545519153879"><ele>112.0</ele><time>2026-04-21T20:40:07.87Z</time></trkpt><trkpt lat="40.04437700373899" lon="18.135627584279064"><ele>114.0</ele><time>2026-04-21T20:40:08.869Z</time></trkpt><trkpt lat="40.044431399255075" lon="18.1358255525475"><ele>116.0</ele><time>2026-04-21T20:40:09.869Z</time></trkpt><trkpt lat="40.04448096222754" lon="18.13604076829861"><ele>118.0</ele><time>2026-04-21T20:40:10.869Z</time></trkpt><trkpt lat="40.044524439923975" lon="18.136271559612776"><ele>118.0</ele><time>2026-04-21T20:40:11.869Z</time></trkpt><trkpt lat="40.04456153538157" lon="18.13649901722732"><ele>118.0</ele><time>2026-04-21T20:40:12.869Z</time></trkpt><trkpt lat="40.04460637828413" lon="18.13670191070754"><ele>118.0</ele><time>2026-04-21T20:40:13.869Z</time></trkpt><trkpt lat="40.04464424127375" lon="18.13688475790831"><ele>119.0</ele><time>2026-04-21T20:40:14.869Z</time></trkpt><trkpt lat="40.044683851169204" lon="18.137052255119208"><ele>120.0</ele><time>2026-04-21T20:40:15.869Z</time></trkpt><trkpt lat="40.04473864818745" lon="18.137228125233378"><ele>121.0</ele><time>2026-04-21T20:40:16.869Z</time></trkpt><trkpt lat="40.04480594135392" lon="18.13741928477494"><ele>122.0</ele><time>2026-04-21T20:40:17.869Z</time></trkpt><trkpt lat="40.04488097598951" lon="18.137622038943164"><ele>123.33333333333333</ele><time>2026-04-21T20:40:18.869Z</time></trkpt><trkpt lat="40.04495878399771" lon="18.13783862392088"><ele>124.66666666666666</ele><time>2026-04-21T20:40:19.869Z</time></trkpt><trkpt lat="40.04503445764383" lon="18.138052497428657"><ele>126.0</ele><time>2026-04-21T20:40:20.869Z</time></trkpt><trkpt lat="40.04511470416658" lon="18.138278870224454"><ele>127.0</ele><time>2026-04-21T20:40:21.869Z</time></trkpt><trkpt lat="40.04520527417498" lon="18.1385203184023"><ele>128.0</ele><time>2026-04-21T20:40:22.869Z</time></trkpt><trkpt lat="40.04530609962254" lon="18.138772113259336"><ele>129.0</ele><time>2026-04-21T20:40:23.869Z</time></trkpt><trkpt lat="40.04540117346609" lon="18.139020265841935"><ele>131.0</ele><time>2026-04-21T20:40:24.869Z</time></trkpt><trkpt lat="40.0455077867105" lon="18.139278187855258"><ele>133.0</ele><time>2026-04-21T20:40:25.869Z</time></trkpt><trkpt lat="40.04560722474312" lon="18.139542984359387"><ele>133.0</ele><time>2026-04-21T20:40:26.869Z</time></trkpt><trkpt lat="40.045708470255335" lon="18.13981285580559"><ele>133.0</ele><time>2026-04-21T20:40:27.869Z</time></trkpt><trkpt lat="40.04581300620092" lon="18.140081541421836"><ele>133.5</ele><time>2026-04-21T20:40:28.869Z</time></trkpt><trkpt lat="40.04591867584967" lon="18.140348120608486"><ele>134.0</ele><time>2026-04-21T20:40:29.869Z</time></trkpt><trkpt lat="40.04601858721361" lon="18.140618544954297"><ele>134.5</ele><time>2026-04-21T20:40:30.869Z</time></trkpt><trkpt lat="40.04612406831933" lon="18.140887870098634"><ele>135.0</ele><time>2026-04-21T20:40:31.869Z</time></trkpt><trkpt lat="40.04623448824784" lon="18.141156038883548"><ele>135.0</ele><time>2026-04-21T20:40:32.87Z</time></trkpt><trkpt lat="40.04633881694181" lon="18.141430865572787"><ele>135.0</ele><time>2026-04-21T20:40:33.869Z</time></trkpt><trkpt lat="40.04644539185571" lon="18.141701055903265"><ele>136.0</ele><time>2026-04-21T20:40:34.869Z</time></trkpt><trkpt lat="40.04656373707948" lon="18.14196006160148"><ele>137.0</ele><time>2026-04-21T20:40:35.869Z</time></trkpt><trkpt lat="40.046696134875404" lon="18.14220205844971"><ele>138.0</ele><time>2026-04-21T20:40:36.869Z</time></trkpt><trkpt lat="40.04684628852399" lon="18.14243081832071"><ele>139.0</ele><time>2026-04-21T20:40:37.869Z</time></trkpt><trkpt lat="40.04700751633462" lon="18.14264532294138"><ele>139.0</ele><time>2026-04-21T20:40:38.87Z</time></trkpt><trkpt lat="40.04716977990832" lon="18.14285490021854"><ele>139.0</ele><time>2026-04-21T20:40:39.869Z</time></trkpt><trkpt lat="40.04732753977545" lon="18.143068346792138"><ele>140.33333333333334</ele><time>2026-04-21T20:40:40.869Z</time></trkpt><trkpt lat="40.04747092387684" lon="18.143295880941206"><ele>141.66666666666666</ele><time>2026-04-21T20:40:41.87Z</time></trkpt><trkpt lat="40.04759566324833" lon="18.143521562752312"><ele>143.0</ele><time>2026-04-21T20:40:42.869Z</time></trkpt><trkpt lat="40.04771329834041" lon="18.14372744470792"><ele>143.0</ele><time>2026-04-21T20:40:43.869Z</time></trkpt><trkpt lat="40.047817852379225" lon="18.14391717251866"><ele>143.0</ele><time>2026-04-21T20:40:44.869Z</time></trkpt><trkpt lat="40.0479091407054" lon="18.14409302446364"><ele>143.0</ele><time>2026-04-21T20:40:45.869Z</time></trkpt><trkpt lat="40.047985095483455" lon="18.14423676131661"><ele>143.8</ele><time>2026-04-21T20:40:46.869Z</time></trkpt><trkpt lat="40.048035193222304" lon="18.14436091919514"><ele>144.60000000000002</ele><time>2026-04-21T20:40:47.869Z</time></trkpt><trkpt lat="40.04807545336437" lon="18.144482018152207"><ele>145.39999999999998</ele><time>2026-04-21T20:40:48.869Z</time></trkpt><trkpt lat="40.04811535550794" lon="18.14459991058893"><ele>146.2</ele><time>2026-04-21T20:40:49.869Z</time></trkpt><trkpt lat="40.048127447640695" lon="18.144751962405753"><ele>147.0</ele><time>2026-04-21T20:40:50.869Z</time></trkpt><trkpt lat="40.048057659762435" lon="18.144912181162017"><ele>147.5</ele><time>2026-04-21T20:40:51.869Z</time></trkpt><trkpt lat="40.04799894047378" lon="18.145064637548963"><ele>148.0</ele><time>2026-04-21T20:40:52.869Z</time></trkpt><trkpt lat="40.047910239742606" lon="18.145216273292114"><ele>148.5</ele><time>2026-04-21T20:40:53.869Z</time></trkpt><trkpt lat="40.047794045084785" lon="18.14537169834481"><ele>149.0</ele><time>2026-04-21T20:40:54.869Z</time></trkpt><trkpt lat="40.047669243785755" lon="18.145536622457197"><ele>149.0</ele><time>2026-04-21T20:40:55.869Z</time></trkpt><trkpt lat="40.04753096317271" lon="18.145707332111076"><ele>149.0</ele><time>2026-04-21T20:40:56.869Z</time></trkpt><trkpt lat="40.04737653762856" lon="18.145885371448298"><ele>149.0</ele><time>2026-04-21T20:40:57.869Z</time></trkpt><trkpt lat="40.04721269047208" lon="18.14606438289105"><ele>148.5</ele><time>2026-04-21T20:40:58.869Z</time></trkpt><trkpt lat="40.04703721844177" lon="18.14625297103491"><ele>148.0</ele><time>2026-04-21T20:40:59.869Z</time></trkpt><trkpt lat="40.046852171053246" lon="18.146448152028036"><ele>150.0</ele><time>2026-04-21T20:41:00.869Z</time></trkpt><trkpt lat="40.04666622977382" lon="18.14664734842399"><ele>152.0</ele><time>2026-04-21T20:41:01.869Z</time></trkpt><trkpt lat="40.04647803870543" lon="18.14684905276539"><ele>152.0</ele><time>2026-04-21T20:41:02.869Z</time></trkpt><trkpt lat="40.04629342840141" lon="18.147049045112453"><ele>152.0</ele><time>2026-04-21T20:41:03.869Z</time></trkpt><trkpt lat="40.04610654545225" lon="18.147245120677436"><ele>153.0</ele><time>2026-04-21T20:41:04.869Z</time></trkpt><trkpt lat="40.04592255879372" lon="18.14744160104294"><ele>154.0</ele><time>2026-04-21T20:41:05.869Z</time></trkpt><trkpt lat="40.045737262667984" lon="18.147637183786262"><ele>154.0</ele><time>2026-04-21T20:41:06.869Z</time></trkpt><trkpt lat="40.045558868644456" lon="18.147837438093006"><ele>154.0</ele><time>2026-04-21T20:41:07.869Z</time></trkpt><trkpt lat="40.045381776751775" lon="18.148033701195992"><ele>156.0</ele><time>2026-04-21T20:41:08.869Z</time></trkpt><trkpt lat="40.04520363069649" lon="18.148229183064437"><ele>158.0</ele><time>2026-04-21T20:41:09.869Z</time></trkpt><trkpt lat="40.04502331395964" lon="18.148423222413285"><ele>157.0</ele><time>2026-04-21T20:41:10.869Z</time></trkpt><trkpt lat="40.0448466536907" lon="18.148621022948436"><ele>156.0</ele><time>2026-04-21T20:41:11.869Z</time></trkpt><trkpt lat="40.044667542774576" lon="18.148813302023253"><ele>156.0</ele><time>2026-04-21T20:41:12.869Z</time></trkpt><trkpt lat="40.04448628656501" lon="18.149011416670646"><ele>156.0</ele><time>2026-04-21T20:41:13.868Z</time></trkpt><trkpt lat="40.04429929712791" lon="18.149210416063617"><ele>157.0</ele><time>2026-04-21T20:41:14.868Z</time></trkpt><trkpt lat="40.04411127497335" lon="18.149409579384198"><ele>158.0</ele><time>2026-04-21T20:41:15.868Z</time></trkpt><trkpt lat="40.04392282438895" lon="18.1496089933848"><ele>158.0</ele><time>2026-04-21T20:41:16.868Z</time></trkpt><trkpt lat="40.04373325276502" lon="18.14980714479608"><ele>158.0</ele><time>2026-04-21T20:41:17.868Z</time></trkpt><trkpt lat="40.04354197805333" lon="18.150002204746034"><ele>158.0</ele><time>2026-04-21T20:41:18.868Z</time></trkpt><trkpt lat="40.04335218591084" lon="18.15019269784993"><ele>158.0</ele><time>2026-04-21T20:41:19.868Z</time></trkpt><trkpt lat="40.043160160450945" lon="18.15038168774077"><ele>157.5</ele><time>2026-04-21T20:41:20.868Z</time></trkpt><trkpt lat="40.042966965199355" lon="18.150571809411808"><ele>157.0</ele><time>2026-04-21T20:41:21.868Z</time></trkpt><trkpt lat="40.04277251613715" lon="18.150762029835132"><ele>157.0</ele><time>2026-04-21T20:41:22.868Z</time></trkpt><trkpt lat="40.0425821734808" lon="18.150946424339978"><ele>157.0</ele><time>2026-04-21T20:41:23.868Z</time></trkpt><trkpt lat="40.04239349208815" lon="18.151133927447777"><ele>157.0</ele><time>2026-04-21T20:41:24.868Z</time></trkpt><trkpt lat="40.04220014837021" lon="18.15132599751547"><ele>157.0</ele><time>2026-04-21T20:41:25.868Z</time></trkpt><trkpt lat="40.04200343849123" lon="18.15152173003583"><ele>157.0</ele><time>2026-04-21T20:41:26.868Z</time></trkpt><trkpt lat="40.04180375619591" lon="18.15171666346935"><ele>157.0</ele><time>2026-04-21T20:41:27.868Z</time></trkpt><trkpt lat="40.04161185598806" lon="18.151906900953712"><ele>157.0</ele><time>2026-04-21T20:41:28.868Z</time></trkpt><trkpt lat="40.041417164484955" lon="18.152095709677365"><ele>157.0</ele><time>2026-04-21T20:41:29.868Z</time></trkpt><trkpt lat="40.04122445594607" lon="18.15228469255245"><ele>156.0</ele><time>2026-04-21T20:41:30.868Z</time></trkpt><trkpt lat="40.04102986279326" lon="18.152475769709483"><ele>155.0</ele><time>2026-04-21T20:41:31.868Z</time></trkpt><trkpt lat="40.04084972458792" lon="18.152650168631045"><ele>155.0</ele><time>2026-04-21T20:41:32.868Z</time></trkpt><trkpt lat="40.040680271889535" lon="18.152808051326264"><ele>155.0</ele><time>2026-04-21T20:41:33.868Z</time></trkpt><trkpt lat="40.04052241223684" lon="18.152949700323727"><ele>155.0</ele><time>2026-04-21T20:41:34.868Z</time></trkpt><trkpt lat="40.040376067169205" lon="18.153085195655244"><ele>154.66666666666666</ele><time>2026-04-21T20:41:35.868Z</time></trkpt><trkpt lat="40.04024005814737" lon="18.153211287323053"><ele>154.33333333333334</ele><time>2026-04-21T20:41:36.868Z</time></trkpt><trkpt lat="40.040105760987494" lon="18.153323163545018"><ele>154.0</ele><time>2026-04-21T20:41:37.868Z</time></trkpt><trkpt lat="40.039973869805294" lon="18.15342452067716"><ele>153.5</ele><time>2026-04-21T20:41:38.868Z</time></trkpt><trkpt lat="40.03984436115765" lon="18.153509484758494"><ele>153.0</ele><time>2026-04-21T20:41:39.868Z</time></trkpt><trkpt lat="40.03973788197176" lon="18.15362323357801"><ele>152.5</ele><time>2026-04-21T20:41:40.868Z</time></trkpt><trkpt lat="40.03962326852291" lon="18.15365803578224"><ele>152.0</ele><time>2026-04-21T20:41:41.868Z</time></trkpt><trkpt lat="40.03950359187016" lon="18.153643050621476"><ele>152.0</ele><time>2026-04-21T20:41:42.868Z</time></trkpt><trkpt lat="40.039414668880966" lon="18.153624333165663"><ele>152.0</ele><time>2026-04-21T20:41:43.868Z</time></trkpt><trkpt lat="40.03932072007283" lon="18.153718804301903"><ele>152.0</ele><time>2026-04-21T20:41:45.868Z</time></trkpt><trkpt lat="40.03929041835482" lon="18.15381359353537"><ele>152.0</ele><time>2026-04-21T20:41:46.868Z</time></trkpt><trkpt lat="40.03929619667068" lon="18.153928808856723"><ele>152.0</ele><time>2026-04-21T20:41:47.868Z</time></trkpt><trkpt lat="40.03925011244871" lon="18.15406176972768"><ele>152.25</ele><time>2026-04-21T20:41:48.868Z</time></trkpt><trkpt lat="40.03919497819838" lon="18.154195819040083"><ele>152.5</ele><time>2026-04-21T20:41:49.868Z</time></trkpt><trkpt lat="40.03907672368321" lon="18.154324589458213"><ele>152.75</ele><time>2026-04-21T20:41:50.868Z</time></trkpt><trkpt lat="40.03895756287822" lon="18.154464316014426"><ele>153.0</ele><time>2026-04-21T20:41:51.868Z</time></trkpt><trkpt lat="40.03881843763556" lon="18.154610760578578"><ele>153.0</ele><time>2026-04-21T20:41:52.867Z</time></trkpt><trkpt lat="40.038668264263656" lon="18.154761017420164"><ele>153.0</ele><time>2026-04-21T20:41:53.867Z</time></trkpt><trkpt lat="40.038506352950755" lon="18.154910856445852"><ele>153.0</ele><time>2026-04-21T20:41:54.867Z</time></trkpt><trkpt lat="40.03833190513624" lon="18.155075107723924"><ele>152.33333333333334</ele><time>2026-04-21T20:41:55.867Z</time></trkpt><trkpt lat="40.038156884745995" lon="18.15524335246869"><ele>151.66666666666669</ele><time>2026-04-21T20:41:56.867Z</time></trkpt><trkpt lat="40.037981439623294" lon="18.155417094210975"><ele>151.0</ele><time>2026-04-21T20:41:57.867Z</time></trkpt><trkpt lat="40.03780203230492" lon="18.15559194512936"><ele>149.5</ele><time>2026-04-21T20:41:58.867Z</time></trkpt><trkpt lat="40.037623432587736" lon="18.155762645152702"><ele>148.0</ele><time>2026-04-21T20:41:59.867Z</time></trkpt><trkpt lat="40.03744061086364" lon="18.155943088876462"><ele>146.5</ele><time>2026-04-21T20:42:00.867Z</time></trkpt><trkpt lat="40.03725616027242" lon="18.15612422305526"><ele>145.0</ele><time>2026-04-21T20:42:01.867Z</time></trkpt><trkpt lat="40.03706980460014" lon="18.156306769566715"><ele>145.0</ele><time>2026-04-21T20:42:02.867Z</time></trkpt><trkpt lat="40.03688222748806" lon="18.156493218638683"><ele>145.0</ele><time>2026-04-21T20:42:03.867Z</time></trkpt><trkpt lat="40.036693196873095" lon="18.15667913525023"><ele>144.0</ele><time>2026-04-21T20:42:04.867Z</time></trkpt><trkpt lat="40.036498529162124" lon="18.15686589173638"><ele>143.0</ele><time>2026-04-21T20:42:05.867Z</time></trkpt><trkpt lat="40.03630572007645" lon="18.15706125942364"><ele>143.0</ele><time>2026-04-21T20:42:06.867Z</time></trkpt><trkpt lat="40.03611300027217" lon="18.157246713046597"><ele>143.0</ele><time>2026-04-21T20:42:07.867Z</time></trkpt><trkpt lat="40.03591832372427" lon="18.1574312009555"><ele>142.0</ele><time>2026-04-21T20:42:08.867Z</time></trkpt><trkpt lat="40.0357281940315" lon="18.157616946064763"><ele>141.0</ele><time>2026-04-21T20:42:09.867Z</time></trkpt><trkpt lat="40.0355366114439" lon="18.157805918495047"><ele>141.0</ele><time>2026-04-21T20:42:10.867Z</time></trkpt><trkpt lat="40.03534248505285" lon="18.15799397962206"><ele>141.0</ele><time>2026-04-21T20:42:11.867Z</time></trkpt><trkpt lat="40.03515120933707" lon="18.158178797381453"><ele>141.5</ele><time>2026-04-21T20:42:12.867Z</time></trkpt><trkpt lat="40.03495836298863" lon="18.158365120131748"><ele>142.0</ele><time>2026-04-21T20:42:13.867Z</time></trkpt><trkpt lat="40.034767501708686" lon="18.15855065129207"><ele>142.0</ele><time>2026-04-21T20:42:14.867Z</time></trkpt><trkpt lat="40.03457744084869" lon="18.15873570762174"><ele>142.0</ele><time>2026-04-21T20:42:15.867Z</time></trkpt><trkpt lat="40.03438629494573" lon="18.15892127447617"><ele>142.0</ele><time>2026-04-21T20:42:16.867Z</time></trkpt><trkpt lat="40.034194457057474" lon="18.159106065177465"><ele>142.0</ele><time>2026-04-21T20:42:17.867Z</time></trkpt><trkpt lat="40.03400257579295" lon="18.15929178370432"><ele>142.0</ele><time>2026-04-21T20:42:18.867Z</time></trkpt><trkpt lat="40.033810557669185" lon="18.15947523189374"><ele>142.0</ele><time>2026-04-21T20:42:19.867Z</time></trkpt><trkpt lat="40.03362174202423" lon="18.15966028558485"><ele>142.0</ele><time>2026-04-21T20:42:20.867Z</time></trkpt><trkpt lat="40.033437886329715" lon="18.159846559346082"><ele>142.0</ele><time>2026-04-21T20:42:21.867Z</time></trkpt><trkpt lat="40.033252317039754" lon="18.160035226148693"><ele>143.5</ele><time>2026-04-21T20:42:22.867Z</time></trkpt><trkpt lat="40.03307134119743" lon="18.160226293689323"><ele>145.0</ele><time>2026-04-21T20:42:23.867Z</time></trkpt><trkpt lat="40.03289187908115" lon="18.160421196532962"><ele>145.0</ele><time>2026-04-21T20:42:24.867Z</time></trkpt><trkpt lat="40.03270936022196" lon="18.160616294144727"><ele>145.0</ele><time>2026-04-21T20:42:25.867Z</time></trkpt><trkpt lat="40.03252516441895" lon="18.16081787178392"><ele>144.5</ele><time>2026-04-21T20:42:26.867Z</time></trkpt><trkpt lat="40.032340117071165" lon="18.161023576902874"><ele>144.0</ele><time>2026-04-21T20:42:27.867Z</time></trkpt><trkpt lat="40.032158876339366" lon="18.1612312393304"><ele>144.0</ele><time>2026-04-21T20:42:28.867Z</time></trkpt><trkpt lat="40.03197696496561" lon="18.161435739696575"><ele>144.0</ele><time>2026-04-21T20:42:29.867Z</time></trkpt><trkpt lat="40.03179021372409" lon="18.16164137699024"><ele>144.0</ele><time>2026-04-21T20:42:30.867Z</time></trkpt><trkpt lat="40.031612488438654" lon="18.16183494468125"><ele>144.0</ele><time>2026-04-21T20:42:31.867Z</time></trkpt><trkpt lat="40.03144828943269" lon="18.16201169940146"><ele>144.0</ele><time>2026-04-21T20:42:32.866Z</time></trkpt><trkpt lat="40.031299075622826" lon="18.16217240207352"><ele>144.0</ele><time>2026-04-21T20:42:33.866Z</time></trkpt><trkpt lat="40.03116343259307" lon="18.162317397782015"><ele>144.0</ele><time>2026-04-21T20:42:34.866Z</time></trkpt><trkpt lat="40.03103643680549" lon="18.16245349832918"><ele>144.0</ele><time>2026-04-21T20:42:35.866Z</time></trkpt><trkpt lat="40.03091299262714" lon="18.16258353687552"><ele>144.0</ele><time>2026-04-21T20:42:36.866Z</time></trkpt><trkpt lat="40.03080440133452" lon="18.162702223089447"><ele>144.0</ele><time>2026-04-21T20:42:37.866Z</time></trkpt><trkpt lat="40.030706352791434" lon="18.162805129834503"><ele>144.0</ele><time>2026-04-21T20:42:38.867Z</time></trkpt><trkpt lat="40.03062965385194" lon="18.162927101233404"><ele>144.0</ele><time>2026-04-21T20:42:39.867Z</time></trkpt><trkpt lat="40.03054168037023" lon="18.162963824873756"><ele>144.0</ele><time>2026-04-21T20:42:40.867Z</time></trkpt><trkpt lat="40.03046335197843" lon="18.16299652227506"><ele>144.0</ele><time>2026-04-21T20:42:41.867Z</time></trkpt><trkpt lat="40.03036708879638" lon="18.162981206385844"><ele>144.0</ele><time>2026-04-21T20:42:42.867Z</time></trkpt><trkpt lat="40.03029282385625" lon="18.16302535856255"><ele>144.0</ele><time>2026-04-21T20:42:43.867Z</time></trkpt><trkpt lat="40.03022621548161" lon="18.163105286018354"><ele>144.0</ele><time>2026-04-21T20:42:44.867Z</time></trkpt><trkpt lat="40.030179035341696" lon="18.163220072308096"><ele>144.25</ele><time>2026-04-21T20:42:45.867Z</time></trkpt><trkpt lat="40.03019629133125" lon="18.163364414136318"><ele>144.5</ele><time>2026-04-21T20:42:46.866Z</time></trkpt><trkpt lat="40.03009040004538" lon="18.163517571623487"><ele>144.75</ele><time>2026-04-21T20:42:47.867Z</time></trkpt><trkpt lat="40.029995765115785" lon="18.16366714860038"><ele>145.0</ele><time>2026-04-21T20:42:48.867Z</time></trkpt><trkpt lat="40.029874072144025" lon="18.16381804377703"><ele>145.0</ele><time>2026-04-21T20:42:49.867Z</time></trkpt><trkpt lat="40.029727251352476" lon="18.16398646167533"><ele>145.0</ele><time>2026-04-21T20:42:50.867Z</time></trkpt><trkpt lat="40.02955888925087" lon="18.164175765856875"><ele>145.0</ele><time>2026-04-21T20:42:51.867Z</time></trkpt><trkpt lat="40.02938369958455" lon="18.164370032449042"><ele>145.0</ele><time>2026-04-21T20:42:52.867Z</time></trkpt><trkpt lat="40.029207831590824" lon="18.164569961020973"><ele>145.0</ele><time>2026-04-21T20:42:53.867Z</time></trkpt><trkpt lat="40.029024916144635" lon="18.164777043556743"><ele>145.5</ele><time>2026-04-21T20:42:54.866Z</time></trkpt><trkpt lat="40.02884212663978" lon="18.16498677442077"><ele>146.0</ele><time>2026-04-21T20:42:55.866Z</time></trkpt><trkpt lat="40.0286507854315" lon="18.16520658058186"><ele>146.0</ele><time>2026-04-21T20:42:56.866Z</time></trkpt><trkpt lat="40.02845122762876" lon="18.165426921232736"><ele>146.0</ele><time>2026-04-21T20:42:57.866Z</time></trkpt><trkpt lat="40.028269635961074" lon="18.16562612924121"><ele>145.66666666666666</ele><time>2026-04-21T20:42:58.866Z</time></trkpt><trkpt lat="40.02811663479366" lon="18.16580306525614"><ele>145.33333333333334</ele><time>2026-04-21T20:42:59.866Z</time></trkpt><trkpt lat="40.02797655187371" lon="18.165958993240963"><ele>145.0</ele><time>2026-04-21T20:43:00.866Z</time></trkpt><trkpt lat="40.027846745287334" lon="18.166098451100936"><ele>145.0</ele><time>2026-04-21T20:43:01.866Z</time></trkpt><trkpt lat="40.027736845669814" lon="18.166221991846605"><ele>145.0</ele><time>2026-04-21T20:43:02.866Z</time></trkpt><trkpt lat="40.027639562292904" lon="18.166329311021045"><ele>145.0</ele><time>2026-04-21T20:43:03.866Z</time></trkpt><trkpt lat="40.02755709539859" lon="18.166422243719637"><ele>145.0</ele><time>2026-04-21T20:43:04.866Z</time></trkpt><trkpt lat="40.02748026697877" lon="18.166499919088057"><ele>145.2</ele><time>2026-04-21T20:43:05.866Z</time></trkpt><trkpt lat="40.02739818419683" lon="18.16656561931653"><ele>145.4</ele><time>2026-04-21T20:43:06.866Z</time></trkpt><trkpt lat="40.027314236743166" lon="18.16662205666247"><ele>145.6</ele><time>2026-04-21T20:43:07.866Z</time></trkpt><trkpt lat="40.0272393563674" lon="18.166679707146557"><ele>145.8</ele><time>2026-04-21T20:43:08.866Z</time></trkpt><trkpt lat="40.02717602300431" lon="18.16676617387592"><ele>146.0</ele><time>2026-04-21T20:43:09.866Z</time></trkpt><trkpt lat="40.02711096844945" lon="18.16689198227041"><ele>146.0</ele><time>2026-04-21T20:43:10.866Z</time></trkpt><trkpt lat="40.02701943117189" lon="18.167046514880855"><ele>146.0</ele><time>2026-04-21T20:43:11.866Z</time></trkpt><trkpt lat="40.02688858469646" lon="18.167182717713334"><ele>146.0</ele><time>2026-04-21T20:43:12.866Z</time></trkpt><trkpt lat="40.02675539842494" lon="18.167360827857262"><ele>146.0</ele><time>2026-04-21T20:43:13.866Z</time></trkpt><trkpt lat="40.02660165954093" lon="18.16752523683234"><ele>146.0</ele><time>2026-04-21T20:43:14.866Z</time></trkpt><trkpt lat="40.02646535164514" lon="18.16767594748521"><ele>146.0</ele><time>2026-04-21T20:43:15.866Z</time></trkpt><trkpt lat="40.026348597374785" lon="18.167815969180072"><ele>146.0</ele><time>2026-04-21T20:43:16.866Z</time></trkpt><trkpt lat="40.026229829246155" lon="18.167926599276463"><ele>146.0</ele><time>2026-04-21T20:43:17.866Z</time></trkpt><trkpt lat="40.026118338261746" lon="18.16805234263403"><ele>146.0</ele><time>2026-04-21T20:43:18.866Z</time></trkpt><trkpt lat="40.026015953747994" lon="18.168167766745867"><ele>146.0</ele><time>2026-04-21T20:43:19.866Z</time></trkpt><trkpt lat="40.0259222153645" lon="18.168273416140668"><ele>146.0</ele><time>2026-04-21T20:43:20.866Z</time></trkpt><trkpt lat="40.02583026324588" lon="18.16837705244766"><ele>146.0</ele><time>2026-04-21T20:43:21.866Z</time></trkpt><trkpt lat="40.025738744444766" lon="18.168480359563915"><ele>146.0</ele><time>2026-04-21T20:43:22.866Z</time></trkpt><trkpt lat="40.025656422937686" lon="18.168573866797196"><ele>146.0</ele><time>2026-04-21T20:43:23.866Z</time></trkpt><trkpt lat="40.02558155374997" lon="18.168658908971413"><ele>146.0</ele><time>2026-04-21T20:43:24.866Z</time></trkpt><trkpt lat="40.02551081857867" lon="18.168739255563995"><ele>146.0</ele><time>2026-04-21T20:43:25.866Z</time></trkpt><trkpt lat="40.02544836050014" lon="18.168810200320287"><ele>146.0</ele><time>2026-04-21T20:43:26.866Z</time></trkpt><trkpt lat="40.02539467960377" lon="18.16887117533963"><ele>146.0</ele><time>2026-04-21T20:43:27.866Z</time></trkpt><trkpt lat="40.02531690037121" lon="18.168959524896774"><ele>146.0</ele><time>2026-04-21T20:43:29.866Z</time></trkpt><trkpt lat="40.02524132606391" lon="18.168961574339743"><ele>146.0</ele><time>2026-04-21T20:43:32.865Z</time></trkpt><trkpt lat="40.025243326382075" lon="18.16904935886807"><ele>145.66666666666666</ele><time>2026-04-21T20:43:40.865Z</time></trkpt><trkpt lat="40.02517840524156" lon="18.169118768676658"><ele>145.33333333333331</ele><time>2026-04-21T20:43:42.865Z</time></trkpt><trkpt lat="40.025092928710876" lon="18.169215804817295"><ele>145.0</ele><time>2026-04-21T20:43:44.865Z</time></trkpt><trkpt lat="40.025044363308936" lon="18.169275591435646"><ele>144.66666666666666</ele><time>2026-04-21T20:43:45.865Z</time></trkpt><trkpt lat="40.024987915921486" lon="18.169341298073054"><ele>144.33333333333334</ele><time>2026-04-21T20:43:46.865Z</time></trkpt><trkpt lat="40.02492486709647" lon="18.16940592079316"><ele>144.0</ele><time>2026-04-21T20:43:47.865Z</time></trkpt><trkpt lat="40.02485511860804" lon="18.169483559838216"><ele>144.0</ele><time>2026-04-21T20:43:48.865Z</time></trkpt><trkpt lat="40.02477808851771" lon="18.169564224496884"><ele>144.0</ele><time>2026-04-21T20:43:49.865Z</time></trkpt><trkpt lat="40.024705363852846" lon="18.169640714277804"><ele>144.0</ele><time>2026-04-21T20:43:50.865Z</time></trkpt><trkpt lat="40.02464483186699" lon="18.169710000451165"><ele>144.0</ele><time>2026-04-21T20:43:51.865Z</time></trkpt><trkpt lat="40.024578841245415" lon="18.1697830937253"><ele>144.0</ele><time>2026-04-21T20:43:52.865Z</time></trkpt><trkpt lat="40.02451088861974" lon="18.169855848031514"><ele>144.0</ele><time>2026-04-21T20:43:53.865Z</time></trkpt><trkpt lat="40.024441554060715" lon="18.16993746445503"><ele>144.33333333333334</ele><time>2026-04-21T20:43:54.865Z</time></trkpt><trkpt lat="40.02437734629528" lon="18.170010399496167"><ele>144.66666666666666</ele><time>2026-04-21T20:43:55.865Z</time></trkpt><trkpt lat="40.02431907882432" lon="18.170077332730976"><ele>145.0</ele><time>2026-04-21T20:43:56.865Z</time></trkpt><trkpt lat="40.02426867266427" lon="18.17014097705478"><ele>145.33333333333331</ele><time>2026-04-21T20:43:57.865Z</time></trkpt><trkpt lat="40.02421733491636" lon="18.170204933048915"><ele>145.66666666666666</ele><time>2026-04-21T20:43:58.865Z</time></trkpt><trkpt lat="40.02416111990073" lon="18.170267844272907"><ele>146.0</ele><time>2026-04-21T20:43:59.865Z</time></trkpt><trkpt lat="40.024094076362786" lon="18.170338988694382"><ele>146.0</ele><time>2026-04-21T20:44:00.865Z</time></trkpt><trkpt lat="40.02402080349641" lon="18.170413301748038"><ele>146.0</ele><time>2026-04-21T20:44:01.865Z</time></trkpt><trkpt lat="40.02394121161608" lon="18.170496816429207"><ele>146.0</ele><time>2026-04-21T20:44:02.865Z</time></trkpt><trkpt lat="40.02385605919727" lon="18.170589635961974"><ele>146.0</ele><time>2026-04-21T20:44:03.865Z</time></trkpt><trkpt lat="40.02377183116644" lon="18.170680265859183"><ele>146.0</ele><time>2026-04-21T20:44:04.865Z</time></trkpt><trkpt lat="40.02368141688989" lon="18.170784301837426"><ele>145.75</ele><time>2026-04-21T20:44:05.865Z</time></trkpt><trkpt lat="40.02358380139079" lon="18.17089796147224"><ele>145.5</ele><time>2026-04-21T20:44:06.865Z</time></trkpt><trkpt lat="40.02348343842022" lon="18.171019383409785"><ele>145.25</ele><time>2026-04-21T20:44:07.865Z</time></trkpt><trkpt lat="40.02336053246264" lon="18.171150278153366"><ele>145.0</ele><time>2026-04-21T20:44:08.865Z</time></trkpt><trkpt lat="40.02322829533002" lon="18.17129546700938"><ele>145.0</ele><time>2026-04-21T20:44:09.865Z</time></trkpt><trkpt lat="40.023089753243745" lon="18.17145808381446"><ele>145.0</ele><time>2026-04-21T20:44:10.865Z</time></trkpt><trkpt lat="40.02293506697202" lon="18.17164539632895"><ele>145.0</ele><time>2026-04-21T20:44:11.865Z</time></trkpt><trkpt lat="40.02276499060895" lon="18.171845220214127"><ele>146.0</ele><time>2026-04-21T20:44:12.864Z</time></trkpt><trkpt lat="40.0225937699812" lon="18.172039018415354"><ele>147.0</ele><time>2026-04-21T20:44:13.864Z</time></trkpt><trkpt lat="40.02241300119647" lon="18.172232068736225"><ele>149.0</ele><time>2026-04-21T20:44:14.864Z</time></trkpt><trkpt lat="40.022220932795875" lon="18.172426928635765"><ele>151.0</ele><time>2026-04-21T20:44:15.864Z</time></trkpt><trkpt lat="40.02201228057444" lon="18.172633842980513"><ele>151.0</ele><time>2026-04-21T20:44:16.864Z</time></trkpt><trkpt lat="40.021812105318205" lon="18.17286706236043"><ele>151.0</ele><time>2026-04-21T20:44:17.864Z</time></trkpt><trkpt lat="40.021612723198665" lon="18.173113186714733"><ele>152.0</ele><time>2026-04-21T20:44:18.864Z</time></trkpt><trkpt lat="40.021419111827726" lon="18.173352532715974"><ele>153.0</ele><time>2026-04-21T20:44:19.864Z</time></trkpt><trkpt lat="40.02122219328901" lon="18.173587338121997"><ele>153.0</ele><time>2026-04-21T20:44:20.864Z</time></trkpt><trkpt lat="40.02102326201264" lon="18.17381718289921"><ele>153.0</ele><time>2026-04-21T20:44:21.864Z</time></trkpt><trkpt lat="40.02082727778658" lon="18.174044174058448"><ele>151.5</ele><time>2026-04-21T20:44:22.864Z</time></trkpt><trkpt lat="40.02063267270029" lon="18.17426490013226"><ele>150.0</ele><time>2026-04-21T20:44:23.864Z</time></trkpt><trkpt lat="40.02043629997702" lon="18.174482739885203"><ele>150.0</ele><time>2026-04-21T20:44:24.864Z</time></trkpt><trkpt lat="40.020240427857374" lon="18.174686433399835"><ele>150.0</ele><time>2026-04-21T20:44:25.864Z</time></trkpt><trkpt lat="40.02005654134959" lon="18.174868877706764"><ele>149.33333333333334</ele><time>2026-04-21T20:44:26.864Z</time></trkpt><trkpt lat="40.01987957223218" lon="18.175041891701643"><ele>148.66666666666669</ele><time>2026-04-21T20:44:27.864Z</time></trkpt><trkpt lat="40.019696384081506" lon="18.175181324057156"><ele>148.0</ele><time>2026-04-21T20:44:28.864Z</time></trkpt><trkpt lat="40.01953416568259" lon="18.17531904554316"><ele>148.0</ele><time>2026-04-21T20:44:29.864Z</time></trkpt><trkpt lat="40.01938454636292" lon="18.17544240619412"><ele>148.0</ele><time>2026-04-21T20:44:30.864Z</time></trkpt><trkpt lat="40.01924899693585" lon="18.17554986883942"><ele>148.0</ele><time>2026-04-21T20:44:31.864Z</time></trkpt><trkpt lat="40.01912023370145" lon="18.175650414868496"><ele>148.0</ele><time>2026-04-21T20:44:32.864Z</time></trkpt><trkpt lat="40.01900890691339" lon="18.175733792072904"><ele>148.0</ele><time>2026-04-21T20:44:33.864Z</time></trkpt><trkpt lat="40.018910858280584" lon="18.17580680462919"><ele>148.0</ele><time>2026-04-21T20:44:34.864Z</time></trkpt><trkpt lat="40.018821319780834" lon="18.17587347971346"><ele>148.0</ele><time>2026-04-21T20:44:35.864Z</time></trkpt><trkpt lat="40.01874041551654" lon="18.17593122907911"><ele>148.0</ele><time>2026-04-21T20:44:36.864Z</time></trkpt><trkpt lat="40.01865345692088" lon="18.175993945596456"><ele>148.0</ele><time>2026-04-21T20:44:37.864Z</time></trkpt><trkpt lat="40.018566469195335" lon="18.176099151016142"><ele>148.0</ele><time>2026-04-21T20:44:38.864Z</time></trkpt><trkpt lat="40.01846730110457" lon="18.176198853364102"><ele>148.0</ele><time>2026-04-21T20:44:39.864Z</time></trkpt><trkpt lat="40.01857005961313" lon="18.176768460664107"><ele>147.0</ele><time>2026-04-21T20:44:40.864Z</time></trkpt><trkpt lat="40.01778932614329" lon="18.1766226919554"><ele>147.0</ele><time>2026-04-21T20:44:41.864Z</time></trkpt><trkpt lat="40.017591079663426" lon="18.17677195580524"><ele>147.0</ele><time>2026-04-21T20:44:42.864Z</time></trkpt><trkpt lat="40.01739079462713" lon="18.1769228424191"><ele>147.5</ele><time>2026-04-21T20:44:43.864Z</time></trkpt><trkpt lat="40.01718735288039" lon="18.17707076228206"><ele>148.0</ele><time>2026-04-21T20:44:44.865Z</time></trkpt><trkpt lat="40.016984149206884" lon="18.177221139373827"><ele>147.0</ele><time>2026-04-21T20:44:45.864Z</time></trkpt><trkpt lat="40.01677864301818" lon="18.177369751305942"><ele>146.0</ele><time>2026-04-21T20:44:46.864Z</time></trkpt><trkpt lat="40.01657348142802" lon="18.177518575059743"><ele>144.5</ele><time>2026-04-21T20:44:47.865Z</time></trkpt><trkpt lat="40.0163689257" lon="18.177667842028193"><ele>143.0</ele><time>2026-04-21T20:44:48.865Z</time></trkpt><trkpt lat="40.01616178160574" lon="18.177817309583748"><ele>143.0</ele><time>2026-04-21T20:44:49.865Z</time></trkpt><trkpt lat="40.015957807347704" lon="18.177963279714096"><ele>143.0</ele><time>2026-04-21T20:44:50.865Z</time></trkpt><trkpt lat="40.01575387270775" lon="18.17811177053414"><ele>142.5</ele><time>2026-04-21T20:44:51.865Z</time></trkpt><trkpt lat="40.01555312041226" lon="18.178261940438908"><ele>142.0</ele><time>2026-04-21T20:44:52.865Z</time></trkpt><trkpt lat="40.015350562754485" lon="18.1784059915918"><ele>142.0</ele><time>2026-04-21T20:44:53.865Z</time></trkpt><trkpt lat="40.015150505610045" lon="18.178550743266054"><ele>142.0</ele><time>2026-04-21T20:44:54.864Z</time></trkpt><trkpt lat="40.01495319737594" lon="18.178696426365438"><ele>140.0</ele><time>2026-04-21T20:44:55.864Z</time></trkpt><trkpt lat="40.01475602841207" lon="18.17884472458656"><ele>138.0</ele><time>2026-04-21T20:44:56.864Z</time></trkpt><trkpt lat="40.01456308627968" lon="18.17899431752869"><ele>138.33333333333334</ele><time>2026-04-21T20:44:57.864Z</time></trkpt><trkpt lat="40.01437795078517" lon="18.17913217495567"><ele>138.66666666666669</ele><time>2026-04-21T20:44:58.864Z</time></trkpt><trkpt lat="40.01421675406371" lon="18.179263746568708"><ele>139.0</ele><time>2026-04-21T20:44:59.864Z</time></trkpt><trkpt lat="40.01406734843695" lon="18.179385261872344"><ele>139.25</ele><time>2026-04-21T20:45:00.864Z</time></trkpt><trkpt lat="40.01392663469863" lon="18.17949330873275"><ele>139.5</ele><time>2026-04-21T20:45:01.864Z</time></trkpt><trkpt lat="40.01380467393962" lon="18.179591045498476"><ele>139.75</ele><time>2026-04-21T20:45:02.864Z</time></trkpt><trkpt lat="40.01369884186105" lon="18.1796751317881"><ele>140.0</ele><time>2026-04-21T20:45:03.864Z</time></trkpt><trkpt lat="40.01363271075666" lon="18.179712549854546"><ele>140.0</ele><time>2026-04-21T20:45:04.864Z</time></trkpt><trkpt lat="40.01355854162197" lon="18.179764241665094"><ele>140.0</ele><time>2026-04-21T20:45:05.864Z</time></trkpt><trkpt lat="40.01349406089715" lon="18.179793655358644"><ele>140.0</ele><time>2026-04-21T20:45:06.864Z</time></trkpt><trkpt lat="40.01343074627853" lon="18.17979634844837"><ele>140.0</ele><time>2026-04-21T20:45:07.864Z</time></trkpt><trkpt lat="40.01333676596149" lon="18.17973549873964"><ele>140.0</ele><time>2026-04-21T20:45:09.864Z</time></trkpt><trkpt lat="40.0132885345413" lon="18.17960439308816"><ele>140.0</ele><time>2026-04-21T20:45:11.864Z</time></trkpt><trkpt lat="40.01325972047212" lon="18.179507706212565"><ele>140.33333333333331</ele><time>2026-04-21T20:45:12.864Z</time></trkpt><trkpt lat="40.0132032308979" lon="18.179313810259952"><ele>140.66666666666666</ele><time>2026-04-21T20:45:13.864Z</time></trkpt><trkpt lat="40.013145985537705" lon="18.17911253511779"><ele>141.0</ele><time>2026-04-21T20:45:14.864Z</time></trkpt><trkpt lat="40.01307953386476" lon="18.178891951122058"><ele>141.33333333333334</ele><time>2026-04-21T20:45:15.864Z</time></trkpt><trkpt lat="40.01300979810287" lon="18.178648627388927"><ele>141.66666666666669</ele><time>2026-04-21T20:45:16.864Z</time></trkpt><trkpt lat="40.012924700499234" lon="18.178418197942722"><ele>142.0</ele><time>2026-04-21T20:45:17.864Z</time></trkpt><trkpt lat="40.012869729284134" lon="18.178213195579122"><ele>142.25</ele><time>2026-04-21T20:45:18.864Z</time></trkpt><trkpt lat="40.012820426979346" lon="18.178056653054387"><ele>142.5</ele><time>2026-04-21T20:45:19.864Z</time></trkpt><trkpt lat="40.01278031096936" lon="18.17789844383837"><ele>142.75</ele><time>2026-04-21T20:45:20.864Z</time></trkpt><trkpt lat="40.012738975072864" lon="18.177758982615156"><ele>143.0</ele><time>2026-04-21T20:45:21.864Z</time></trkpt><trkpt lat="40.012704450292034" lon="18.177652902808287"><ele>143.0</ele><time>2026-04-21T20:45:22.864Z</time></trkpt><trkpt lat="40.01265804987814" lon="18.177499180739396"><ele>143.0</ele><time>2026-04-21T20:45:24.864Z</time></trkpt><trkpt lat="40.0126318323885" lon="18.177415363830377"><ele>143.0</ele><time>2026-04-21T20:45:25.864Z</time></trkpt><trkpt lat="40.012602687841" lon="18.177337535518465"><ele>143.0</ele><time>2026-04-21T20:45:26.864Z</time></trkpt><trkpt lat="40.01255542599441" lon="18.177258118846567"><ele>143.0</ele><time>2026-04-21T20:45:28.864Z</time></trkpt><trkpt lat="40.01245239335294" lon="18.17729809822523"><ele>143.0</ele><time>2026-04-21T20:45:31.864Z</time></trkpt><trkpt lat="40.01235829337924" lon="18.17734256245814"><ele>143.16666666666666</ele><time>2026-04-21T20:45:32.864Z</time></trkpt><trkpt lat="40.01227344032652" lon="18.177383632489985"><ele>143.33333333333331</ele><time>2026-04-21T20:45:33.863Z</time></trkpt><trkpt lat="40.01220276548054" lon="18.1774102219089"><ele>143.5</ele><time>2026-04-21T20:45:34.863Z</time></trkpt><trkpt lat="40.012122849704085" lon="18.17745420126757"><ele>143.66666666666666</ele><time>2026-04-21T20:45:36.863Z</time></trkpt><trkpt lat="40.0121322863994" lon="18.17755016601464"><ele>143.83333333333334</ele><time>2026-04-21T20:45:40.863Z</time></trkpt><trkpt lat="40.01217355850508" lon="18.177625576399166"><ele>144.0</ele><time>2026-04-21T20:45:43.863Z</time></trkpt><trkpt lat="40.01217842713423" lon="18.177719279050795"><ele>144.0</ele><time>2026-04-21T20:45:46.863Z</time></trkpt><trkpt lat="40.01215378741846" lon="18.177803345691483"><ele>144.0</ele><time>2026-04-21T20:45:51.863Z</time></trkpt></trkseg></trk></gpx>